<?xml version="1.0" encoding="UTF-8" standalone="no" ?>
<gpx xmlns="http://www.topografix.com/GPX/1/1" xmlns:xsi="http://www.w3.org/2001/XMLSchema-instance" xsi:schemaLocation="http://www.topografix.com/GPX/1/1 http://www.topografix.com/GPX/1/1/gpx.xsd" version="1.1" creator="VisuGPX - https://www.visugpx.com">
  <metadata>
    <name>2021 pays basque espagne</name>
  </metadata>
  <trk>
    <name><![CDATA[2021 pays basque espagne_1]]></name>
    <trkseg>
      <trkpt lat="43.36018" lon="-1.58118">
        <ele>3</ele>
        <time>2021-06-21T05:49:22.509Z</time>
      </trkpt>
      <trkpt lat="43.36018" lon="-1.58118">
        <ele>3</ele>
        <time>2021-06-21T05:49:23.512Z</time>
      </trkpt>
      <trkpt lat="43.36018" lon="-1.58118">
        <ele>3</ele>
        <time>2021-06-21T05:49:24.522Z</time>
      </trkpt>
      <trkpt lat="43.36018" lon="-1.58118">
        <ele>3</ele>
        <time>2021-06-21T05:49:25.529Z</time>
      </trkpt>
      <trkpt lat="43.36018" lon="-1.58118">
        <ele>3</ele>
        <time>2021-06-21T05:49:26.537Z</time>
      </trkpt>
      <trkpt lat="43.36018" lon="-1.58118">
        <ele>3</ele>
        <time>2021-06-21T05:49:27.525Z</time>
      </trkpt>
      <trkpt lat="43.36018" lon="-1.58118">
        <ele>3</ele>
        <time>2021-06-21T05:49:28.536Z</time>
      </trkpt>
      <trkpt lat="43.36018" lon="-1.58118">
        <ele>3</ele>
        <time>2021-06-21T05:49:29.525Z</time>
      </trkpt>
      <trkpt lat="43.36018" lon="-1.58118">
        <ele>3</ele>
        <time>2021-06-21T05:49:30.537Z</time>
      </trkpt>
      <trkpt lat="43.36013" lon="-1.58122">
        <ele>3</ele>
        <time>2021-06-21T05:49:31.523Z</time>
      </trkpt>
      <trkpt lat="43.36013" lon="-1.58122">
        <ele>3</ele>
        <time>2021-06-21T05:49:32.533Z</time>
      </trkpt>
      <trkpt lat="43.36011" lon="-1.58126">
        <ele>3</ele>
        <time>2021-06-21T05:49:33.529Z</time>
      </trkpt>
      <trkpt lat="43.36011" lon="-1.58126">
        <ele>3</ele>
        <time>2021-06-21T05:49:34.536Z</time>
      </trkpt>
      <trkpt lat="43.36009" lon="-1.58131">
        <ele>3</ele>
        <time>2021-06-21T05:49:35.514Z</time>
      </trkpt>
      <trkpt lat="43.36009" lon="-1.58131">
        <ele>3</ele>
        <time>2021-06-21T05:49:36.509Z</time>
      </trkpt>
      <trkpt lat="43.36009" lon="-1.58135">
        <ele>3</ele>
        <time>2021-06-21T05:49:37.511Z</time>
      </trkpt>
      <trkpt lat="43.36009" lon="-1.58135">
        <ele>3</ele>
        <time>2021-06-21T05:49:38.538Z</time>
      </trkpt>
      <trkpt lat="43.36008" lon="-1.58137">
        <ele>3</ele>
        <time>2021-06-21T05:49:39.510Z</time>
      </trkpt>
      <trkpt lat="43.36008" lon="-1.58137">
        <ele>3</ele>
        <time>2021-06-21T05:49:40.520Z</time>
      </trkpt>
      <trkpt lat="43.36008" lon="-1.58137">
        <ele>3</ele>
        <time>2021-06-21T05:49:41.529Z</time>
      </trkpt>
      <trkpt lat="43.36008" lon="-1.58137">
        <ele>3</ele>
        <time>2021-06-21T05:49:42.547Z</time>
      </trkpt>
      <trkpt lat="43.36008" lon="-1.58137">
        <ele>3</ele>
        <time>2021-06-21T05:49:43.520Z</time>
      </trkpt>
      <trkpt lat="43.36008" lon="-1.58137">
        <ele>3</ele>
        <time>2021-06-21T05:49:44.527Z</time>
      </trkpt>
      <trkpt lat="43.36008" lon="-1.58137">
        <ele>3</ele>
        <time>2021-06-21T05:49:45.521Z</time>
      </trkpt>
      <trkpt lat="43.36008" lon="-1.58137">
        <ele>3</ele>
        <time>2021-06-21T05:49:46.543Z</time>
      </trkpt>
      <trkpt lat="43.36008" lon="-1.58137">
        <ele>3</ele>
        <time>2021-06-21T05:49:47.530Z</time>
      </trkpt>
      <trkpt lat="43.36008" lon="-1.58137">
        <ele>3</ele>
        <time>2021-06-21T05:49:48.526Z</time>
      </trkpt>
      <trkpt lat="43.36008" lon="-1.58137">
        <ele>3</ele>
        <time>2021-06-21T05:49:49.519Z</time>
      </trkpt>
      <trkpt lat="43.36008" lon="-1.58137">
        <ele>3</ele>
        <time>2021-06-21T05:49:50.538Z</time>
      </trkpt>
      <trkpt lat="43.36008" lon="-1.58137">
        <ele>3</ele>
        <time>2021-06-21T05:49:51.523Z</time>
      </trkpt>
      <trkpt lat="43.36008" lon="-1.58137">
        <ele>3</ele>
        <time>2021-06-21T05:49:52.523Z</time>
      </trkpt>
      <trkpt lat="43.36008" lon="-1.58137">
        <ele>3</ele>
        <time>2021-06-21T05:49:53.519Z</time>
      </trkpt>
      <trkpt lat="43.36008" lon="-1.58137">
        <ele>3</ele>
        <time>2021-06-21T05:49:54.527Z</time>
      </trkpt>
      <trkpt lat="43.36008" lon="-1.58137">
        <ele>3</ele>
        <time>2021-06-21T05:49:55.522Z</time>
      </trkpt>
      <trkpt lat="43.36008" lon="-1.58137">
        <ele>3</ele>
        <time>2021-06-21T05:49:56.523Z</time>
      </trkpt>
      <trkpt lat="43.36008" lon="-1.58137">
        <ele>3</ele>
        <time>2021-06-21T05:49:57.520Z</time>
      </trkpt>
      <trkpt lat="43.36008" lon="-1.58137">
        <ele>3</ele>
        <time>2021-06-21T05:49:58.537Z</time>
      </trkpt>
      <trkpt lat="43.36008" lon="-1.58137">
        <ele>3</ele>
        <time>2021-06-21T05:49:59.519Z</time>
      </trkpt>
      <trkpt lat="43.36008" lon="-1.58137">
        <ele>3</ele>
        <time>2021-06-21T05:50:00.527Z</time>
      </trkpt>
      <trkpt lat="43.36008" lon="-1.58137">
        <ele>3</ele>
        <time>2021-06-21T05:50:01.523Z</time>
      </trkpt>
      <trkpt lat="43.36008" lon="-1.58137">
        <ele>3</ele>
        <time>2021-06-21T05:50:02.541Z</time>
      </trkpt>
      <trkpt lat="43.36008" lon="-1.58137">
        <ele>3</ele>
        <time>2021-06-21T05:50:03.534Z</time>
      </trkpt>
      <trkpt lat="43.36008" lon="-1.58137">
        <ele>3</ele>
        <time>2021-06-21T05:50:04.519Z</time>
      </trkpt>
      <trkpt lat="43.36008" lon="-1.58137">
        <ele>3</ele>
        <time>2021-06-21T05:50:05.525Z</time>
      </trkpt>
      <trkpt lat="43.36008" lon="-1.58137">
        <ele>3</ele>
        <time>2021-06-21T05:50:06.540Z</time>
      </trkpt>
      <trkpt lat="43.36008" lon="-1.58137">
        <ele>3</ele>
        <time>2021-06-21T05:50:07.520Z</time>
      </trkpt>
      <trkpt lat="43.36008" lon="-1.58137">
        <ele>3</ele>
        <time>2021-06-21T05:50:08.539Z</time>
      </trkpt>
      <trkpt lat="43.36008" lon="-1.58137">
        <ele>3</ele>
        <time>2021-06-21T05:50:09.519Z</time>
      </trkpt>
      <trkpt lat="43.36008" lon="-1.58137">
        <ele>3</ele>
        <time>2021-06-21T05:50:10.543Z</time>
      </trkpt>
      <trkpt lat="43.36008" lon="-1.58137">
        <ele>3</ele>
        <time>2021-06-21T05:50:11.522Z</time>
      </trkpt>
      <trkpt lat="43.36008" lon="-1.58137">
        <ele>3</ele>
        <time>2021-06-21T05:50:12.526Z</time>
      </trkpt>
      <trkpt lat="43.36008" lon="-1.58137">
        <ele>3</ele>
        <time>2021-06-21T05:50:13.528Z</time>
      </trkpt>
      <trkpt lat="43.36008" lon="-1.58137">
        <ele>3</ele>
        <time>2021-06-21T05:50:14.526Z</time>
      </trkpt>
      <trkpt lat="43.36008" lon="-1.58137">
        <ele>3</ele>
        <time>2021-06-21T05:50:15.544Z</time>
      </trkpt>
      <trkpt lat="43.36008" lon="-1.58137">
        <ele>3</ele>
        <time>2021-06-21T05:50:16.525Z</time>
      </trkpt>
      <trkpt lat="43.36008" lon="-1.58137">
        <ele>3</ele>
        <time>2021-06-21T05:50:17.539Z</time>
      </trkpt>
      <trkpt lat="43.36008" lon="-1.58137">
        <ele>3</ele>
        <time>2021-06-21T05:50:18.529Z</time>
      </trkpt>
      <trkpt lat="43.36008" lon="-1.58137">
        <ele>3</ele>
        <time>2021-06-21T05:50:19.519Z</time>
      </trkpt>
      <trkpt lat="43.36008" lon="-1.58139">
        <ele>3</ele>
        <time>2021-06-21T05:50:20.542Z</time>
      </trkpt>
      <trkpt lat="43.36008" lon="-1.58139">
        <ele>3</ele>
        <time>2021-06-21T05:50:21.522Z</time>
      </trkpt>
      <trkpt lat="43.36008" lon="-1.58144">
        <ele>3</ele>
        <time>2021-06-21T05:50:22.525Z</time>
      </trkpt>
      <trkpt lat="43.36008" lon="-1.58144">
        <ele>3</ele>
        <time>2021-06-21T05:50:23.520Z</time>
      </trkpt>
      <trkpt lat="43.3601" lon="-1.58148">
        <ele>3</ele>
        <time>2021-06-21T05:50:24.537Z</time>
      </trkpt>
      <trkpt lat="43.3601" lon="-1.58148">
        <ele>3</ele>
        <time>2021-06-21T05:50:25.521Z</time>
      </trkpt>
      <trkpt lat="43.36013" lon="-1.58153">
        <ele>3</ele>
        <time>2021-06-21T05:50:26.540Z</time>
      </trkpt>
      <trkpt lat="43.36013" lon="-1.58153">
        <ele>3</ele>
        <time>2021-06-21T05:50:27.520Z</time>
      </trkpt>
      <trkpt lat="43.36017" lon="-1.5816">
        <ele>3</ele>
        <time>2021-06-21T05:50:28.576Z</time>
      </trkpt>
      <trkpt lat="43.36017" lon="-1.5816">
        <ele>3</ele>
        <time>2021-06-21T05:50:29.526Z</time>
      </trkpt>
      <trkpt lat="43.36022" lon="-1.58167">
        <ele>3</ele>
        <time>2021-06-21T05:50:30.543Z</time>
      </trkpt>
      <trkpt lat="43.36022" lon="-1.58167">
        <ele>3</ele>
        <time>2021-06-21T05:50:31.518Z</time>
      </trkpt>
      <trkpt lat="43.36028" lon="-1.58175">
        <ele>3</ele>
        <time>2021-06-21T05:50:32.526Z</time>
      </trkpt>
      <trkpt lat="43.36028" lon="-1.58175">
        <ele>3</ele>
        <time>2021-06-21T05:50:33.512Z</time>
      </trkpt>
      <trkpt lat="43.36033" lon="-1.58184">
        <ele>4</ele>
        <time>2021-06-21T05:50:34.523Z</time>
      </trkpt>
      <trkpt lat="43.36033" lon="-1.58184">
        <ele>4</ele>
        <time>2021-06-21T05:50:35.532Z</time>
      </trkpt>
      <trkpt lat="43.3604" lon="-1.58193">
        <ele>4</ele>
        <time>2021-06-21T05:50:36.545Z</time>
      </trkpt>
      <trkpt lat="43.3604" lon="-1.58193">
        <ele>4</ele>
        <time>2021-06-21T05:50:37.518Z</time>
      </trkpt>
      <trkpt lat="43.36046" lon="-1.58202">
        <ele>4</ele>
        <time>2021-06-21T05:50:38.542Z</time>
      </trkpt>
      <trkpt lat="43.36046" lon="-1.58202">
        <ele>4</ele>
        <time>2021-06-21T05:50:39.529Z</time>
      </trkpt>
      <trkpt lat="43.36053" lon="-1.58212">
        <ele>4</ele>
        <time>2021-06-21T05:50:40.531Z</time>
      </trkpt>
      <trkpt lat="43.36053" lon="-1.58212">
        <ele>4</ele>
        <time>2021-06-21T05:50:41.541Z</time>
      </trkpt>
      <trkpt lat="43.3606" lon="-1.58222">
        <ele>4</ele>
        <time>2021-06-21T05:50:42.516Z</time>
      </trkpt>
      <trkpt lat="43.3606" lon="-1.58222">
        <ele>4</ele>
        <time>2021-06-21T05:50:43.541Z</time>
      </trkpt>
      <trkpt lat="43.36066" lon="-1.58231">
        <ele>4</ele>
        <time>2021-06-21T05:50:44.512Z</time>
      </trkpt>
      <trkpt lat="43.36066" lon="-1.58231">
        <ele>4</ele>
        <time>2021-06-21T05:50:45.521Z</time>
      </trkpt>
      <trkpt lat="43.36073" lon="-1.58241">
        <ele>4</ele>
        <time>2021-06-21T05:50:46.527Z</time>
      </trkpt>
      <trkpt lat="43.36073" lon="-1.58241">
        <ele>4</ele>
        <time>2021-06-21T05:50:47.518Z</time>
      </trkpt>
      <trkpt lat="43.3608" lon="-1.58251">
        <ele>4</ele>
        <time>2021-06-21T05:50:48.531Z</time>
      </trkpt>
      <trkpt lat="43.3608" lon="-1.58251">
        <ele>4</ele>
        <time>2021-06-21T05:50:49.544Z</time>
      </trkpt>
      <trkpt lat="43.36087" lon="-1.58261">
        <ele>4</ele>
        <time>2021-06-21T05:50:50.517Z</time>
      </trkpt>
      <trkpt lat="43.36087" lon="-1.58261">
        <ele>4</ele>
        <time>2021-06-21T05:50:51.518Z</time>
      </trkpt>
      <trkpt lat="43.36094" lon="-1.58271">
        <ele>4</ele>
        <time>2021-06-21T05:50:52.530Z</time>
      </trkpt>
      <trkpt lat="43.36094" lon="-1.58271">
        <ele>4</ele>
        <time>2021-06-21T05:50:53.511Z</time>
      </trkpt>
      <trkpt lat="43.361" lon="-1.58281">
        <ele>4</ele>
        <time>2021-06-21T05:50:54.604Z</time>
      </trkpt>
      <trkpt lat="43.361" lon="-1.58281">
        <ele>4</ele>
        <time>2021-06-21T05:50:55.522Z</time>
      </trkpt>
      <trkpt lat="43.36107" lon="-1.58292">
        <ele>4</ele>
        <time>2021-06-21T05:50:56.537Z</time>
      </trkpt>
      <trkpt lat="43.36111" lon="-1.58297">
        <ele>4</ele>
        <time>2021-06-21T05:50:57.538Z</time>
      </trkpt>
      <trkpt lat="43.36111" lon="-1.58297">
        <ele>4</ele>
        <time>2021-06-21T05:50:58.514Z</time>
      </trkpt>
      <trkpt lat="43.36117" lon="-1.58307">
        <ele>4</ele>
        <time>2021-06-21T05:50:59.523Z</time>
      </trkpt>
      <trkpt lat="43.3612" lon="-1.58313">
        <ele>4</ele>
        <time>2021-06-21T05:51:00.509Z</time>
      </trkpt>
      <trkpt lat="43.3612" lon="-1.58313">
        <ele>4</ele>
        <time>2021-06-21T05:51:01.530Z</time>
      </trkpt>
      <trkpt lat="43.36127" lon="-1.58324">
        <ele>4</ele>
        <time>2021-06-21T05:51:02.541Z</time>
      </trkpt>
      <trkpt lat="43.36127" lon="-1.58324">
        <ele>4</ele>
        <time>2021-06-21T05:51:03.520Z</time>
      </trkpt>
      <trkpt lat="43.36133" lon="-1.58335">
        <ele>4</ele>
        <time>2021-06-21T05:51:04.522Z</time>
      </trkpt>
      <trkpt lat="43.36133" lon="-1.58335">
        <ele>4</ele>
        <time>2021-06-21T05:51:05.528Z</time>
      </trkpt>
      <trkpt lat="43.36138" lon="-1.58347">
        <ele>4</ele>
        <time>2021-06-21T05:51:06.540Z</time>
      </trkpt>
      <trkpt lat="43.36138" lon="-1.58347">
        <ele>4</ele>
        <time>2021-06-21T05:51:07.522Z</time>
      </trkpt>
      <trkpt lat="43.36143" lon="-1.58359">
        <ele>4</ele>
        <time>2021-06-21T05:51:08.534Z</time>
      </trkpt>
      <trkpt lat="43.36143" lon="-1.58359">
        <ele>4</ele>
        <time>2021-06-21T05:51:09.532Z</time>
      </trkpt>
      <trkpt lat="43.36148" lon="-1.58372">
        <ele>3</ele>
        <time>2021-06-21T05:51:10.541Z</time>
      </trkpt>
      <trkpt lat="43.36148" lon="-1.58372">
        <ele>3</ele>
        <time>2021-06-21T05:51:11.513Z</time>
      </trkpt>
      <trkpt lat="43.36153" lon="-1.58385">
        <ele>3</ele>
        <time>2021-06-21T05:51:12.527Z</time>
      </trkpt>
      <trkpt lat="43.36153" lon="-1.58385">
        <ele>3</ele>
        <time>2021-06-21T05:51:13.544Z</time>
      </trkpt>
      <trkpt lat="43.36157" lon="-1.58398">
        <ele>3</ele>
        <time>2021-06-21T05:51:14.518Z</time>
      </trkpt>
      <trkpt lat="43.36157" lon="-1.58398">
        <ele>3</ele>
        <time>2021-06-21T05:51:15.531Z</time>
      </trkpt>
      <trkpt lat="43.36161" lon="-1.5841">
        <ele>3</ele>
        <time>2021-06-21T05:51:16.539Z</time>
      </trkpt>
      <trkpt lat="43.36161" lon="-1.5841">
        <ele>3</ele>
        <time>2021-06-21T05:51:17.514Z</time>
      </trkpt>
      <trkpt lat="43.36166" lon="-1.58424">
        <ele>3</ele>
        <time>2021-06-21T05:51:18.524Z</time>
      </trkpt>
      <trkpt lat="43.36166" lon="-1.58424">
        <ele>3</ele>
        <time>2021-06-21T05:51:19.534Z</time>
      </trkpt>
      <trkpt lat="43.3617" lon="-1.58439">
        <ele>2</ele>
        <time>2021-06-21T05:51:20.525Z</time>
      </trkpt>
      <trkpt lat="43.3617" lon="-1.58439">
        <ele>2</ele>
        <time>2021-06-21T05:51:21.532Z</time>
      </trkpt>
      <trkpt lat="43.36175" lon="-1.58452">
        <ele>2</ele>
        <time>2021-06-21T05:51:22.518Z</time>
      </trkpt>
      <trkpt lat="43.36175" lon="-1.58452">
        <ele>2</ele>
        <time>2021-06-21T05:51:23.528Z</time>
      </trkpt>
      <trkpt lat="43.36179" lon="-1.58466">
        <ele>2</ele>
        <time>2021-06-21T05:51:24.535Z</time>
      </trkpt>
      <trkpt lat="43.36179" lon="-1.58466">
        <ele>2</ele>
        <time>2021-06-21T05:51:25.511Z</time>
      </trkpt>
      <trkpt lat="43.36183" lon="-1.5848">
        <ele>2</ele>
        <time>2021-06-21T05:51:26.515Z</time>
      </trkpt>
      <trkpt lat="43.36183" lon="-1.5848">
        <ele>2</ele>
        <time>2021-06-21T05:51:27.544Z</time>
      </trkpt>
      <trkpt lat="43.36187" lon="-1.58493">
        <ele>2</ele>
        <time>2021-06-21T05:51:28.514Z</time>
      </trkpt>
      <trkpt lat="43.36187" lon="-1.58493">
        <ele>2</ele>
        <time>2021-06-21T05:51:29.536Z</time>
      </trkpt>
      <trkpt lat="43.36191" lon="-1.58507">
        <ele>3</ele>
        <time>2021-06-21T05:51:30.547Z</time>
      </trkpt>
      <trkpt lat="43.36191" lon="-1.58507">
        <ele>3</ele>
        <time>2021-06-21T05:51:31.515Z</time>
      </trkpt>
      <trkpt lat="43.36195" lon="-1.5852">
        <ele>3</ele>
        <time>2021-06-21T05:51:32.580Z</time>
      </trkpt>
      <trkpt lat="43.36195" lon="-1.5852">
        <ele>3</ele>
        <time>2021-06-21T05:51:33.526Z</time>
      </trkpt>
      <trkpt lat="43.362" lon="-1.58533">
        <ele>2</ele>
        <time>2021-06-21T05:51:34.544Z</time>
      </trkpt>
      <trkpt lat="43.362" lon="-1.58533">
        <ele>2</ele>
        <time>2021-06-21T05:51:35.513Z</time>
      </trkpt>
      <trkpt lat="43.36204" lon="-1.58547">
        <ele>2</ele>
        <time>2021-06-21T05:51:36.521Z</time>
      </trkpt>
      <trkpt lat="43.36204" lon="-1.58547">
        <ele>2</ele>
        <time>2021-06-21T05:51:37.539Z</time>
      </trkpt>
      <trkpt lat="43.36209" lon="-1.5856">
        <ele>3</ele>
        <time>2021-06-21T05:51:38.510Z</time>
      </trkpt>
      <trkpt lat="43.36209" lon="-1.5856">
        <ele>3</ele>
        <time>2021-06-21T05:51:39.531Z</time>
      </trkpt>
      <trkpt lat="43.36213" lon="-1.58573">
        <ele>3</ele>
        <time>2021-06-21T05:51:40.539Z</time>
      </trkpt>
      <trkpt lat="43.36213" lon="-1.58573">
        <ele>3</ele>
        <time>2021-06-21T05:51:41.512Z</time>
      </trkpt>
      <trkpt lat="43.36217" lon="-1.58586">
        <ele>3</ele>
        <time>2021-06-21T05:51:42.521Z</time>
      </trkpt>
      <trkpt lat="43.36217" lon="-1.58586">
        <ele>3</ele>
        <time>2021-06-21T05:51:43.526Z</time>
      </trkpt>
      <trkpt lat="43.36221" lon="-1.58598">
        <ele>3</ele>
        <time>2021-06-21T05:51:44.533Z</time>
      </trkpt>
      <trkpt lat="43.36223" lon="-1.58605">
        <ele>3</ele>
        <time>2021-06-21T05:51:45.515Z</time>
      </trkpt>
      <trkpt lat="43.36223" lon="-1.58605">
        <ele>3</ele>
        <time>2021-06-21T05:51:46.519Z</time>
      </trkpt>
      <trkpt lat="43.36226" lon="-1.58618">
        <ele>3</ele>
        <time>2021-06-21T05:51:47.534Z</time>
      </trkpt>
      <trkpt lat="43.36228" lon="-1.58624">
        <ele>3</ele>
        <time>2021-06-21T05:51:48.546Z</time>
      </trkpt>
      <trkpt lat="43.36228" lon="-1.58624">
        <ele>3</ele>
        <time>2021-06-21T05:51:49.517Z</time>
      </trkpt>
      <trkpt lat="43.36232" lon="-1.58638">
        <ele>3</ele>
        <time>2021-06-21T05:51:50.524Z</time>
      </trkpt>
      <trkpt lat="43.36232" lon="-1.58638">
        <ele>3</ele>
        <time>2021-06-21T05:51:51.537Z</time>
      </trkpt>
      <trkpt lat="43.36236" lon="-1.58651">
        <ele>3</ele>
        <time>2021-06-21T05:51:52.548Z</time>
      </trkpt>
      <trkpt lat="43.36236" lon="-1.58651">
        <ele>3</ele>
        <time>2021-06-21T05:51:53.519Z</time>
      </trkpt>
      <trkpt lat="43.36241" lon="-1.58664">
        <ele>3</ele>
        <time>2021-06-21T05:51:54.558Z</time>
      </trkpt>
      <trkpt lat="43.36241" lon="-1.58664">
        <ele>3</ele>
        <time>2021-06-21T05:51:55.532Z</time>
      </trkpt>
      <trkpt lat="43.36245" lon="-1.58678">
        <ele>3</ele>
        <time>2021-06-21T05:51:56.542Z</time>
      </trkpt>
      <trkpt lat="43.36245" lon="-1.58678">
        <ele>3</ele>
        <time>2021-06-21T05:51:57.512Z</time>
      </trkpt>
      <trkpt lat="43.3625" lon="-1.58691">
        <ele>3</ele>
        <time>2021-06-21T05:51:58.518Z</time>
      </trkpt>
      <trkpt lat="43.36252" lon="-1.58698">
        <ele>3</ele>
        <time>2021-06-21T05:51:59.527Z</time>
      </trkpt>
      <trkpt lat="43.36254" lon="-1.58704">
        <ele>3</ele>
        <time>2021-06-21T05:52:00.511Z</time>
      </trkpt>
      <trkpt lat="43.36254" lon="-1.58704">
        <ele>3</ele>
        <time>2021-06-21T05:52:01.528Z</time>
      </trkpt>
      <trkpt lat="43.36259" lon="-1.58717">
        <ele>3</ele>
        <time>2021-06-21T05:52:02.537Z</time>
      </trkpt>
      <trkpt lat="43.36259" lon="-1.58717">
        <ele>3</ele>
        <time>2021-06-21T05:52:03.529Z</time>
      </trkpt>
      <trkpt lat="43.36265" lon="-1.5873">
        <ele>2</ele>
        <time>2021-06-21T05:52:04.540Z</time>
      </trkpt>
      <trkpt lat="43.36265" lon="-1.5873">
        <ele>2</ele>
        <time>2021-06-21T05:52:05.515Z</time>
      </trkpt>
      <trkpt lat="43.36272" lon="-1.58741">
        <ele>2</ele>
        <time>2021-06-21T05:52:06.534Z</time>
      </trkpt>
      <trkpt lat="43.36272" lon="-1.58741">
        <ele>2</ele>
        <time>2021-06-21T05:52:07.544Z</time>
      </trkpt>
      <trkpt lat="43.36278" lon="-1.58753">
        <ele>2</ele>
        <time>2021-06-21T05:52:08.516Z</time>
      </trkpt>
      <trkpt lat="43.36278" lon="-1.58753">
        <ele>2</ele>
        <time>2021-06-21T05:52:09.529Z</time>
      </trkpt>
      <trkpt lat="43.36286" lon="-1.58764">
        <ele>2</ele>
        <time>2021-06-21T05:52:10.534Z</time>
      </trkpt>
      <trkpt lat="43.3629" lon="-1.58769">
        <ele>2</ele>
        <time>2021-06-21T05:52:11.541Z</time>
      </trkpt>
      <trkpt lat="43.36294" lon="-1.58774">
        <ele>1</ele>
        <time>2021-06-21T05:52:12.518Z</time>
      </trkpt>
      <trkpt lat="43.36294" lon="-1.58774">
        <ele>1</ele>
        <time>2021-06-21T05:52:13.537Z</time>
      </trkpt>
      <trkpt lat="43.36303" lon="-1.58784">
        <ele>1</ele>
        <time>2021-06-21T05:52:14.543Z</time>
      </trkpt>
      <trkpt lat="43.36303" lon="-1.58784">
        <ele>1</ele>
        <time>2021-06-21T05:52:15.521Z</time>
      </trkpt>
      <trkpt lat="43.36311" lon="-1.58793">
        <ele>1</ele>
        <time>2021-06-21T05:52:16.587Z</time>
      </trkpt>
      <trkpt lat="43.36311" lon="-1.58793">
        <ele>1</ele>
        <time>2021-06-21T05:52:17.534Z</time>
      </trkpt>
      <trkpt lat="43.3632" lon="-1.588">
        <ele>1</ele>
        <time>2021-06-21T05:52:18.543Z</time>
      </trkpt>
      <trkpt lat="43.3632" lon="-1.588">
        <ele>1</ele>
        <time>2021-06-21T05:52:19.514Z</time>
      </trkpt>
      <trkpt lat="43.36329" lon="-1.58808">
        <ele>1</ele>
        <time>2021-06-21T05:52:20.520Z</time>
      </trkpt>
      <trkpt lat="43.36329" lon="-1.58808">
        <ele>1</ele>
        <time>2021-06-21T05:52:21.532Z</time>
      </trkpt>
      <trkpt lat="43.36337" lon="-1.58816">
        <ele>1</ele>
        <time>2021-06-21T05:52:22.520Z</time>
      </trkpt>
      <trkpt lat="43.36337" lon="-1.58816">
        <ele>1</ele>
        <time>2021-06-21T05:52:23.522Z</time>
      </trkpt>
      <trkpt lat="43.36345" lon="-1.58824">
        <ele>1</ele>
        <time>2021-06-21T05:52:24.528Z</time>
      </trkpt>
      <trkpt lat="43.36345" lon="-1.58824">
        <ele>1</ele>
        <time>2021-06-21T05:52:25.541Z</time>
      </trkpt>
      <trkpt lat="43.36354" lon="-1.58831">
        <ele>1</ele>
        <time>2021-06-21T05:52:26.535Z</time>
      </trkpt>
      <trkpt lat="43.36354" lon="-1.58831">
        <ele>1</ele>
        <time>2021-06-21T05:52:27.516Z</time>
      </trkpt>
      <trkpt lat="43.36362" lon="-1.58839">
        <ele>1</ele>
        <time>2021-06-21T05:52:28.531Z</time>
      </trkpt>
      <trkpt lat="43.36362" lon="-1.58839">
        <ele>1</ele>
        <time>2021-06-21T05:52:29.513Z</time>
      </trkpt>
      <trkpt lat="43.36371" lon="-1.58847">
        <ele>1</ele>
        <time>2021-06-21T05:52:30.520Z</time>
      </trkpt>
      <trkpt lat="43.36371" lon="-1.58847">
        <ele>1</ele>
        <time>2021-06-21T05:52:31.529Z</time>
      </trkpt>
      <trkpt lat="43.3638" lon="-1.58854">
        <ele>1</ele>
        <time>2021-06-21T05:52:32.524Z</time>
      </trkpt>
      <trkpt lat="43.3638" lon="-1.58854">
        <ele>1</ele>
        <time>2021-06-21T05:52:33.545Z</time>
      </trkpt>
      <trkpt lat="43.36389" lon="-1.58861">
        <ele>1</ele>
        <time>2021-06-21T05:52:34.515Z</time>
      </trkpt>
      <trkpt lat="43.36389" lon="-1.58861">
        <ele>1</ele>
        <time>2021-06-21T05:52:35.526Z</time>
      </trkpt>
      <trkpt lat="43.36397" lon="-1.58869">
        <ele>1</ele>
        <time>2021-06-21T05:52:36.535Z</time>
      </trkpt>
      <trkpt lat="43.36397" lon="-1.58869">
        <ele>1</ele>
        <time>2021-06-21T05:52:37.520Z</time>
      </trkpt>
      <trkpt lat="43.36405" lon="-1.58877">
        <ele>12.4</ele>
        <time>2021-06-21T05:52:38.513Z</time>
      </trkpt>
      <trkpt lat="43.36405" lon="-1.58877">
        <ele>12.4</ele>
        <time>2021-06-21T05:52:39.544Z</time>
      </trkpt>
      <trkpt lat="43.36413" lon="-1.58884">
        <ele>11.8</ele>
        <time>2021-06-21T05:52:40.511Z</time>
      </trkpt>
      <trkpt lat="43.36413" lon="-1.58884">
        <ele>11.8</ele>
        <time>2021-06-21T05:52:41.520Z</time>
      </trkpt>
      <trkpt lat="43.36421" lon="-1.58893">
        <ele>1</ele>
        <time>2021-06-21T05:52:42.530Z</time>
      </trkpt>
      <trkpt lat="43.36421" lon="-1.58893">
        <ele>1</ele>
        <time>2021-06-21T05:52:43.515Z</time>
      </trkpt>
      <trkpt lat="43.36428" lon="-1.58902">
        <ele>11.6</ele>
        <time>2021-06-21T05:52:44.548Z</time>
      </trkpt>
      <trkpt lat="43.36428" lon="-1.58902">
        <ele>11.6</ele>
        <time>2021-06-21T05:52:45.546Z</time>
      </trkpt>
      <trkpt lat="43.36435" lon="-1.58912">
        <ele>11.2</ele>
        <time>2021-06-21T05:52:46.515Z</time>
      </trkpt>
      <trkpt lat="43.36435" lon="-1.58912">
        <ele>11.2</ele>
        <time>2021-06-21T05:52:47.532Z</time>
      </trkpt>
      <trkpt lat="43.36442" lon="-1.58923">
        <ele>10.9</ele>
        <time>2021-06-21T05:52:48.545Z</time>
      </trkpt>
      <trkpt lat="43.36442" lon="-1.58923">
        <ele>10.9</ele>
        <time>2021-06-21T05:52:49.513Z</time>
      </trkpt>
      <trkpt lat="43.36448" lon="-1.58935">
        <ele>1</ele>
        <time>2021-06-21T05:52:50.524Z</time>
      </trkpt>
      <trkpt lat="43.36451" lon="-1.58941">
        <ele>1</ele>
        <time>2021-06-21T05:52:51.539Z</time>
      </trkpt>
      <trkpt lat="43.36451" lon="-1.58941">
        <ele>1</ele>
        <time>2021-06-21T05:52:52.513Z</time>
      </trkpt>
      <trkpt lat="43.36457" lon="-1.58953">
        <ele>2</ele>
        <time>2021-06-21T05:52:53.520Z</time>
      </trkpt>
      <trkpt lat="43.3646" lon="-1.58959">
        <ele>2</ele>
        <time>2021-06-21T05:52:54.536Z</time>
      </trkpt>
      <trkpt lat="43.3646" lon="-1.58959">
        <ele>2</ele>
        <time>2021-06-21T05:52:55.513Z</time>
      </trkpt>
      <trkpt lat="43.36465" lon="-1.58972">
        <ele>2</ele>
        <time>2021-06-21T05:52:56.525Z</time>
      </trkpt>
      <trkpt lat="43.36467" lon="-1.58978">
        <ele>1</ele>
        <time>2021-06-21T05:52:57.542Z</time>
      </trkpt>
      <trkpt lat="43.36467" lon="-1.58978">
        <ele>1</ele>
        <time>2021-06-21T05:52:58.520Z</time>
      </trkpt>
      <trkpt lat="43.36471" lon="-1.58992">
        <ele>1</ele>
        <time>2021-06-21T05:52:59.532Z</time>
      </trkpt>
      <trkpt lat="43.36474" lon="-1.58999">
        <ele>1</ele>
        <time>2021-06-21T05:53:00.532Z</time>
      </trkpt>
      <trkpt lat="43.36474" lon="-1.58999">
        <ele>1</ele>
        <time>2021-06-21T05:53:01.549Z</time>
      </trkpt>
      <trkpt lat="43.36478" lon="-1.59013">
        <ele>1</ele>
        <time>2021-06-21T05:53:02.523Z</time>
      </trkpt>
      <trkpt lat="43.36478" lon="-1.59013">
        <ele>1</ele>
        <time>2021-06-21T05:53:03.513Z</time>
      </trkpt>
      <trkpt lat="43.36482" lon="-1.59028">
        <ele>1</ele>
        <time>2021-06-21T05:53:04.521Z</time>
      </trkpt>
      <trkpt lat="43.36482" lon="-1.59028">
        <ele>1</ele>
        <time>2021-06-21T05:53:05.512Z</time>
      </trkpt>
      <trkpt lat="43.36486" lon="-1.59042">
        <ele>1</ele>
        <time>2021-06-21T05:53:06.525Z</time>
      </trkpt>
      <trkpt lat="43.36486" lon="-1.59042">
        <ele>1</ele>
        <time>2021-06-21T05:53:07.523Z</time>
      </trkpt>
      <trkpt lat="43.3649" lon="-1.59056">
        <ele>1</ele>
        <time>2021-06-21T05:53:08.519Z</time>
      </trkpt>
      <trkpt lat="43.3649" lon="-1.59056">
        <ele>1</ele>
        <time>2021-06-21T05:53:09.530Z</time>
      </trkpt>
      <trkpt lat="43.36494" lon="-1.59071">
        <ele>1</ele>
        <time>2021-06-21T05:53:10.539Z</time>
      </trkpt>
      <trkpt lat="43.36494" lon="-1.59071">
        <ele>1</ele>
        <time>2021-06-21T05:53:11.515Z</time>
      </trkpt>
      <trkpt lat="43.36498" lon="-1.59086">
        <ele>1</ele>
        <time>2021-06-21T05:53:12.549Z</time>
      </trkpt>
      <trkpt lat="43.36498" lon="-1.59086">
        <ele>1</ele>
        <time>2021-06-21T05:53:13.537Z</time>
      </trkpt>
      <trkpt lat="43.36502" lon="-1.591">
        <ele>1</ele>
        <time>2021-06-21T05:53:14.545Z</time>
      </trkpt>
      <trkpt lat="43.36502" lon="-1.591">
        <ele>1</ele>
        <time>2021-06-21T05:53:15.513Z</time>
      </trkpt>
      <trkpt lat="43.36507" lon="-1.59114">
        <ele>1</ele>
        <time>2021-06-21T05:53:16.519Z</time>
      </trkpt>
      <trkpt lat="43.36507" lon="-1.59114">
        <ele>1</ele>
        <time>2021-06-21T05:53:17.534Z</time>
      </trkpt>
      <trkpt lat="43.36511" lon="-1.59128">
        <ele>1</ele>
        <time>2021-06-21T05:53:18.548Z</time>
      </trkpt>
      <trkpt lat="43.36511" lon="-1.59128">
        <ele>1</ele>
        <time>2021-06-21T05:53:19.544Z</time>
      </trkpt>
      <trkpt lat="43.36515" lon="-1.59142">
        <ele>1</ele>
        <time>2021-06-21T05:53:20.514Z</time>
      </trkpt>
      <trkpt lat="43.36515" lon="-1.59142">
        <ele>1</ele>
        <time>2021-06-21T05:53:21.529Z</time>
      </trkpt>
      <trkpt lat="43.36519" lon="-1.59157">
        <ele>1</ele>
        <time>2021-06-21T05:53:22.539Z</time>
      </trkpt>
      <trkpt lat="43.36519" lon="-1.59157">
        <ele>1</ele>
        <time>2021-06-21T05:53:23.513Z</time>
      </trkpt>
      <trkpt lat="43.36523" lon="-1.5917">
        <ele>1</ele>
        <time>2021-06-21T05:53:24.523Z</time>
      </trkpt>
      <trkpt lat="43.36523" lon="-1.5917">
        <ele>1</ele>
        <time>2021-06-21T05:53:25.534Z</time>
      </trkpt>
      <trkpt lat="43.36527" lon="-1.59184">
        <ele>1</ele>
        <time>2021-06-21T05:53:26.550Z</time>
      </trkpt>
      <trkpt lat="43.36527" lon="-1.59184">
        <ele>1</ele>
        <time>2021-06-21T05:53:27.545Z</time>
      </trkpt>
      <trkpt lat="43.36531" lon="-1.59197">
        <ele>2</ele>
        <time>2021-06-21T05:53:28.513Z</time>
      </trkpt>
      <trkpt lat="43.36531" lon="-1.59197">
        <ele>2</ele>
        <time>2021-06-21T05:53:29.529Z</time>
      </trkpt>
      <trkpt lat="43.36536" lon="-1.5921">
        <ele>2</ele>
        <time>2021-06-21T05:53:30.539Z</time>
      </trkpt>
      <trkpt lat="43.36536" lon="-1.5921">
        <ele>2</ele>
        <time>2021-06-21T05:53:31.516Z</time>
      </trkpt>
      <trkpt lat="43.3654" lon="-1.59223">
        <ele>2</ele>
        <time>2021-06-21T05:53:32.534Z</time>
      </trkpt>
      <trkpt lat="43.3654" lon="-1.59223">
        <ele>2</ele>
        <time>2021-06-21T05:53:33.537Z</time>
      </trkpt>
      <trkpt lat="43.36544" lon="-1.59236">
        <ele>2</ele>
        <time>2021-06-21T05:53:34.543Z</time>
      </trkpt>
      <trkpt lat="43.36544" lon="-1.59236">
        <ele>2</ele>
        <time>2021-06-21T05:53:35.514Z</time>
      </trkpt>
      <trkpt lat="43.36548" lon="-1.59249">
        <ele>1</ele>
        <time>2021-06-21T05:53:36.536Z</time>
      </trkpt>
      <trkpt lat="43.36548" lon="-1.59249">
        <ele>1</ele>
        <time>2021-06-21T05:53:37.521Z</time>
      </trkpt>
      <trkpt lat="43.36552" lon="-1.59262">
        <ele>1</ele>
        <time>2021-06-21T05:53:38.549Z</time>
      </trkpt>
      <trkpt lat="43.36552" lon="-1.59262">
        <ele>1</ele>
        <time>2021-06-21T05:53:39.536Z</time>
      </trkpt>
      <trkpt lat="43.36556" lon="-1.59275">
        <ele>1</ele>
        <time>2021-06-21T05:53:40.545Z</time>
      </trkpt>
      <trkpt lat="43.36556" lon="-1.59275">
        <ele>1</ele>
        <time>2021-06-21T05:53:41.518Z</time>
      </trkpt>
      <trkpt lat="43.3656" lon="-1.59289">
        <ele>1</ele>
        <time>2021-06-21T05:53:42.527Z</time>
      </trkpt>
      <trkpt lat="43.3656" lon="-1.59289">
        <ele>1</ele>
        <time>2021-06-21T05:53:43.536Z</time>
      </trkpt>
      <trkpt lat="43.36563" lon="-1.59302">
        <ele>1</ele>
        <time>2021-06-21T05:53:44.539Z</time>
      </trkpt>
      <trkpt lat="43.36563" lon="-1.59302">
        <ele>1</ele>
        <time>2021-06-21T05:53:45.539Z</time>
      </trkpt>
      <trkpt lat="43.36567" lon="-1.59316">
        <ele>1</ele>
        <time>2021-06-21T05:53:46.546Z</time>
      </trkpt>
      <trkpt lat="43.36567" lon="-1.59316">
        <ele>1</ele>
        <time>2021-06-21T05:53:47.520Z</time>
      </trkpt>
      <trkpt lat="43.36571" lon="-1.59328">
        <ele>2</ele>
        <time>2021-06-21T05:53:48.536Z</time>
      </trkpt>
      <trkpt lat="43.36571" lon="-1.59328">
        <ele>2</ele>
        <time>2021-06-21T05:53:49.514Z</time>
      </trkpt>
      <trkpt lat="43.36575" lon="-1.59341">
        <ele>2</ele>
        <time>2021-06-21T05:53:50.553Z</time>
      </trkpt>
      <trkpt lat="43.36575" lon="-1.59341">
        <ele>2</ele>
        <time>2021-06-21T05:53:51.541Z</time>
      </trkpt>
      <trkpt lat="43.36578" lon="-1.59354">
        <ele>2</ele>
        <time>2021-06-21T05:53:52.548Z</time>
      </trkpt>
      <trkpt lat="43.36578" lon="-1.59354">
        <ele>2</ele>
        <time>2021-06-21T05:53:53.516Z</time>
      </trkpt>
      <trkpt lat="43.36581" lon="-1.59367">
        <ele>2</ele>
        <time>2021-06-21T05:53:54.523Z</time>
      </trkpt>
      <trkpt lat="43.36581" lon="-1.59367">
        <ele>2</ele>
        <time>2021-06-21T05:53:55.530Z</time>
      </trkpt>
      <trkpt lat="43.36584" lon="-1.5938">
        <ele>2</ele>
        <time>2021-06-21T05:53:56.514Z</time>
      </trkpt>
      <trkpt lat="43.36584" lon="-1.5938">
        <ele>2</ele>
        <time>2021-06-21T05:53:57.514Z</time>
      </trkpt>
      <trkpt lat="43.36587" lon="-1.59393">
        <ele>2</ele>
        <time>2021-06-21T05:53:58.522Z</time>
      </trkpt>
      <trkpt lat="43.36587" lon="-1.59393">
        <ele>2</ele>
        <time>2021-06-21T05:53:59.530Z</time>
      </trkpt>
      <trkpt lat="43.36589" lon="-1.59407">
        <ele>2</ele>
        <time>2021-06-21T05:54:00.543Z</time>
      </trkpt>
      <trkpt lat="43.36589" lon="-1.59407">
        <ele>2</ele>
        <time>2021-06-21T05:54:01.514Z</time>
      </trkpt>
      <trkpt lat="43.3659" lon="-1.5942">
        <ele>2</ele>
        <time>2021-06-21T05:54:02.531Z</time>
      </trkpt>
      <trkpt lat="43.3659" lon="-1.5942">
        <ele>2</ele>
        <time>2021-06-21T05:54:03.538Z</time>
      </trkpt>
      <trkpt lat="43.36592" lon="-1.59434">
        <ele>2</ele>
        <time>2021-06-21T05:54:04.546Z</time>
      </trkpt>
      <trkpt lat="43.36592" lon="-1.59434">
        <ele>2</ele>
        <time>2021-06-21T05:54:05.522Z</time>
      </trkpt>
      <trkpt lat="43.36593" lon="-1.59449">
        <ele>2</ele>
        <time>2021-06-21T05:54:06.531Z</time>
      </trkpt>
      <trkpt lat="43.36593" lon="-1.59449">
        <ele>2</ele>
        <time>2021-06-21T05:54:07.545Z</time>
      </trkpt>
      <trkpt lat="43.36593" lon="-1.59463">
        <ele>2</ele>
        <time>2021-06-21T05:54:08.535Z</time>
      </trkpt>
      <trkpt lat="43.36593" lon="-1.5947">
        <ele>2</ele>
        <time>2021-06-21T05:54:09.521Z</time>
      </trkpt>
      <trkpt lat="43.36593" lon="-1.5947">
        <ele>2</ele>
        <time>2021-06-21T05:54:10.540Z</time>
      </trkpt>
      <trkpt lat="43.36594" lon="-1.59484">
        <ele>2</ele>
        <time>2021-06-21T05:54:11.529Z</time>
      </trkpt>
      <trkpt lat="43.36594" lon="-1.59491">
        <ele>2</ele>
        <time>2021-06-21T05:54:12.521Z</time>
      </trkpt>
      <trkpt lat="43.36594" lon="-1.59491">
        <ele>2</ele>
        <time>2021-06-21T05:54:13.534Z</time>
      </trkpt>
      <trkpt lat="43.36594" lon="-1.59505">
        <ele>2</ele>
        <time>2021-06-21T05:54:14.540Z</time>
      </trkpt>
      <trkpt lat="43.36594" lon="-1.59505">
        <ele>2</ele>
        <time>2021-06-21T05:54:15.515Z</time>
      </trkpt>
      <trkpt lat="43.36593" lon="-1.59519">
        <ele>1</ele>
        <time>2021-06-21T05:54:16.546Z</time>
      </trkpt>
      <trkpt lat="43.36593" lon="-1.59519">
        <ele>1</ele>
        <time>2021-06-21T05:54:17.513Z</time>
      </trkpt>
      <trkpt lat="43.36592" lon="-1.59533">
        <ele>1</ele>
        <time>2021-06-21T05:54:18.525Z</time>
      </trkpt>
      <trkpt lat="43.36592" lon="-1.59533">
        <ele>1</ele>
        <time>2021-06-21T05:54:19.536Z</time>
      </trkpt>
      <trkpt lat="43.36591" lon="-1.59547">
        <ele>1</ele>
        <time>2021-06-21T05:54:20.543Z</time>
      </trkpt>
      <trkpt lat="43.36591" lon="-1.59547">
        <ele>1</ele>
        <time>2021-06-21T05:54:21.522Z</time>
      </trkpt>
      <trkpt lat="43.3659" lon="-1.59561">
        <ele>1</ele>
        <time>2021-06-21T05:54:22.536Z</time>
      </trkpt>
      <trkpt lat="43.3659" lon="-1.59561">
        <ele>1</ele>
        <time>2021-06-21T05:54:23.522Z</time>
      </trkpt>
      <trkpt lat="43.36589" lon="-1.59576">
        <ele>1</ele>
        <time>2021-06-21T05:54:24.530Z</time>
      </trkpt>
      <trkpt lat="43.36589" lon="-1.59576">
        <ele>1</ele>
        <time>2021-06-21T05:54:25.540Z</time>
      </trkpt>
      <trkpt lat="43.36588" lon="-1.5959">
        <ele>1</ele>
        <time>2021-06-21T05:54:26.547Z</time>
      </trkpt>
      <trkpt lat="43.36588" lon="-1.5959">
        <ele>1</ele>
        <time>2021-06-21T05:54:27.531Z</time>
      </trkpt>
      <trkpt lat="43.36587" lon="-1.59604">
        <ele>1</ele>
        <time>2021-06-21T05:54:28.597Z</time>
      </trkpt>
      <trkpt lat="43.36587" lon="-1.59604">
        <ele>1</ele>
        <time>2021-06-21T05:54:29.523Z</time>
      </trkpt>
      <trkpt lat="43.36586" lon="-1.59617">
        <ele>2</ele>
        <time>2021-06-21T05:54:30.539Z</time>
      </trkpt>
      <trkpt lat="43.36586" lon="-1.59617">
        <ele>2</ele>
        <time>2021-06-21T05:54:31.518Z</time>
      </trkpt>
      <trkpt lat="43.36586" lon="-1.59631">
        <ele>2</ele>
        <time>2021-06-21T05:54:32.518Z</time>
      </trkpt>
      <trkpt lat="43.36586" lon="-1.59631">
        <ele>2</ele>
        <time>2021-06-21T05:54:33.531Z</time>
      </trkpt>
      <trkpt lat="43.36585" lon="-1.59645">
        <ele>2</ele>
        <time>2021-06-21T05:54:34.540Z</time>
      </trkpt>
      <trkpt lat="43.36585" lon="-1.59645">
        <ele>2</ele>
        <time>2021-06-21T05:54:35.522Z</time>
      </trkpt>
      <trkpt lat="43.36585" lon="-1.59658">
        <ele>2</ele>
        <time>2021-06-21T05:54:36.531Z</time>
      </trkpt>
      <trkpt lat="43.36585" lon="-1.59658">
        <ele>2</ele>
        <time>2021-06-21T05:54:37.548Z</time>
      </trkpt>
      <trkpt lat="43.36584" lon="-1.59672">
        <ele>2</ele>
        <time>2021-06-21T05:54:38.536Z</time>
      </trkpt>
      <trkpt lat="43.36584" lon="-1.59672">
        <ele>2</ele>
        <time>2021-06-21T05:54:39.532Z</time>
      </trkpt>
      <trkpt lat="43.36583" lon="-1.59685">
        <ele>2</ele>
        <time>2021-06-21T05:54:40.543Z</time>
      </trkpt>
      <trkpt lat="43.36583" lon="-1.59685">
        <ele>2</ele>
        <time>2021-06-21T05:54:41.516Z</time>
      </trkpt>
      <trkpt lat="43.36582" lon="-1.59699">
        <ele>2</ele>
        <time>2021-06-21T05:54:42.523Z</time>
      </trkpt>
      <trkpt lat="43.36582" lon="-1.59699">
        <ele>2</ele>
        <time>2021-06-21T05:54:43.539Z</time>
      </trkpt>
      <trkpt lat="43.36582" lon="-1.59712">
        <ele>3</ele>
        <time>2021-06-21T05:54:44.521Z</time>
      </trkpt>
      <trkpt lat="43.36582" lon="-1.59712">
        <ele>3</ele>
        <time>2021-06-21T05:54:45.523Z</time>
      </trkpt>
      <trkpt lat="43.36581" lon="-1.59726">
        <ele>3</ele>
        <time>2021-06-21T05:54:46.531Z</time>
      </trkpt>
      <trkpt lat="43.3658" lon="-1.59733">
        <ele>3</ele>
        <time>2021-06-21T05:54:47.524Z</time>
      </trkpt>
      <trkpt lat="43.36579" lon="-1.59739">
        <ele>3</ele>
        <time>2021-06-21T05:54:48.522Z</time>
      </trkpt>
      <trkpt lat="43.36579" lon="-1.59739">
        <ele>3</ele>
        <time>2021-06-21T05:54:49.537Z</time>
      </trkpt>
      <trkpt lat="43.36578" lon="-1.59753">
        <ele>3</ele>
        <time>2021-06-21T05:54:50.542Z</time>
      </trkpt>
      <trkpt lat="43.36578" lon="-1.59753">
        <ele>3</ele>
        <time>2021-06-21T05:54:51.517Z</time>
      </trkpt>
      <trkpt lat="43.36577" lon="-1.59767">
        <ele>3</ele>
        <time>2021-06-21T05:54:52.541Z</time>
      </trkpt>
      <trkpt lat="43.36577" lon="-1.59767">
        <ele>3</ele>
        <time>2021-06-21T05:54:53.515Z</time>
      </trkpt>
      <trkpt lat="43.36575" lon="-1.59781">
        <ele>2</ele>
        <time>2021-06-21T05:54:54.534Z</time>
      </trkpt>
      <trkpt lat="43.36575" lon="-1.59781">
        <ele>2</ele>
        <time>2021-06-21T05:54:55.545Z</time>
      </trkpt>
      <trkpt lat="43.36574" lon="-1.59796">
        <ele>2</ele>
        <time>2021-06-21T05:54:56.514Z</time>
      </trkpt>
      <trkpt lat="43.36574" lon="-1.59796">
        <ele>2</ele>
        <time>2021-06-21T05:54:57.539Z</time>
      </trkpt>
      <trkpt lat="43.36572" lon="-1.5981">
        <ele>2</ele>
        <time>2021-06-21T05:54:58.518Z</time>
      </trkpt>
      <trkpt lat="43.36572" lon="-1.5981">
        <ele>2</ele>
        <time>2021-06-21T05:54:59.517Z</time>
      </trkpt>
      <trkpt lat="43.36569" lon="-1.59823">
        <ele>2</ele>
        <time>2021-06-21T05:55:00.529Z</time>
      </trkpt>
      <trkpt lat="43.36569" lon="-1.59823">
        <ele>2</ele>
        <time>2021-06-21T05:55:01.543Z</time>
      </trkpt>
      <trkpt lat="43.36568" lon="-1.59837">
        <ele>2</ele>
        <time>2021-06-21T05:55:02.523Z</time>
      </trkpt>
      <trkpt lat="43.36568" lon="-1.59837">
        <ele>2</ele>
        <time>2021-06-21T05:55:03.540Z</time>
      </trkpt>
      <trkpt lat="43.36564" lon="-1.59849">
        <ele>2</ele>
        <time>2021-06-21T05:55:04.548Z</time>
      </trkpt>
      <trkpt lat="43.36564" lon="-1.59849">
        <ele>2</ele>
        <time>2021-06-21T05:55:05.519Z</time>
      </trkpt>
      <trkpt lat="43.3656" lon="-1.59861">
        <ele>2</ele>
        <time>2021-06-21T05:55:06.557Z</time>
      </trkpt>
      <trkpt lat="43.3656" lon="-1.59861">
        <ele>2</ele>
        <time>2021-06-21T05:55:07.517Z</time>
      </trkpt>
      <trkpt lat="43.36554" lon="-1.59872">
        <ele>2</ele>
        <time>2021-06-21T05:55:08.532Z</time>
      </trkpt>
      <trkpt lat="43.36554" lon="-1.59872">
        <ele>2</ele>
        <time>2021-06-21T05:55:09.511Z</time>
      </trkpt>
      <trkpt lat="43.36548" lon="-1.59883">
        <ele>2</ele>
        <time>2021-06-21T05:55:10.521Z</time>
      </trkpt>
      <trkpt lat="43.36548" lon="-1.59883">
        <ele>2</ele>
        <time>2021-06-21T05:55:11.529Z</time>
      </trkpt>
      <trkpt lat="43.36541" lon="-1.59893">
        <ele>2</ele>
        <time>2021-06-21T05:55:12.649Z</time>
      </trkpt>
      <trkpt lat="43.36541" lon="-1.59893">
        <ele>2</ele>
        <time>2021-06-21T05:55:13.537Z</time>
      </trkpt>
      <trkpt lat="43.36533" lon="-1.59902">
        <ele>2</ele>
        <time>2021-06-21T05:55:14.546Z</time>
      </trkpt>
      <trkpt lat="43.36533" lon="-1.59902">
        <ele>2</ele>
        <time>2021-06-21T05:55:15.525Z</time>
      </trkpt>
      <trkpt lat="43.36524" lon="-1.5991">
        <ele>2</ele>
        <time>2021-06-21T05:55:16.533Z</time>
      </trkpt>
      <trkpt lat="43.36524" lon="-1.5991">
        <ele>2</ele>
        <time>2021-06-21T05:55:17.545Z</time>
      </trkpt>
      <trkpt lat="43.36515" lon="-1.59917">
        <ele>3</ele>
        <time>2021-06-21T05:55:18.526Z</time>
      </trkpt>
      <trkpt lat="43.36515" lon="-1.59917">
        <ele>3</ele>
        <time>2021-06-21T05:55:19.536Z</time>
      </trkpt>
      <trkpt lat="43.36506" lon="-1.59923">
        <ele>3</ele>
        <time>2021-06-21T05:55:20.543Z</time>
      </trkpt>
      <trkpt lat="43.36506" lon="-1.59923">
        <ele>3</ele>
        <time>2021-06-21T05:55:21.519Z</time>
      </trkpt>
      <trkpt lat="43.36497" lon="-1.59929">
        <ele>3</ele>
        <time>2021-06-21T05:55:22.509Z</time>
      </trkpt>
      <trkpt lat="43.36497" lon="-1.59929">
        <ele>3</ele>
        <time>2021-06-21T05:55:23.518Z</time>
      </trkpt>
      <trkpt lat="43.36488" lon="-1.59936">
        <ele>3</ele>
        <time>2021-06-21T05:55:24.524Z</time>
      </trkpt>
      <trkpt lat="43.36488" lon="-1.59936">
        <ele>3</ele>
        <time>2021-06-21T05:55:25.532Z</time>
      </trkpt>
      <trkpt lat="43.36479" lon="-1.59943">
        <ele>2</ele>
        <time>2021-06-21T05:55:26.541Z</time>
      </trkpt>
      <trkpt lat="43.36479" lon="-1.59943">
        <ele>2</ele>
        <time>2021-06-21T05:55:27.526Z</time>
      </trkpt>
      <trkpt lat="43.36471" lon="-1.5995">
        <ele>3</ele>
        <time>2021-06-21T05:55:28.541Z</time>
      </trkpt>
      <trkpt lat="43.36471" lon="-1.5995">
        <ele>3</ele>
        <time>2021-06-21T05:55:29.515Z</time>
      </trkpt>
      <trkpt lat="43.36463" lon="-1.59957">
        <ele>2</ele>
        <time>2021-06-21T05:55:30.533Z</time>
      </trkpt>
      <trkpt lat="43.36463" lon="-1.59957">
        <ele>2</ele>
        <time>2021-06-21T05:55:31.542Z</time>
      </trkpt>
      <trkpt lat="43.36455" lon="-1.59964">
        <ele>3</ele>
        <time>2021-06-21T05:55:32.524Z</time>
      </trkpt>
      <trkpt lat="43.36455" lon="-1.59964">
        <ele>3</ele>
        <time>2021-06-21T05:55:33.523Z</time>
      </trkpt>
      <trkpt lat="43.36446" lon="-1.59971">
        <ele>3</ele>
        <time>2021-06-21T05:55:34.533Z</time>
      </trkpt>
      <trkpt lat="43.36446" lon="-1.59971">
        <ele>3</ele>
        <time>2021-06-21T05:55:35.509Z</time>
      </trkpt>
      <trkpt lat="43.36438" lon="-1.59979">
        <ele>4</ele>
        <time>2021-06-21T05:55:36.528Z</time>
      </trkpt>
      <trkpt lat="43.36438" lon="-1.59979">
        <ele>4</ele>
        <time>2021-06-21T05:55:37.543Z</time>
      </trkpt>
      <trkpt lat="43.36431" lon="-1.59988">
        <ele>4</ele>
        <time>2021-06-21T05:55:38.512Z</time>
      </trkpt>
      <trkpt lat="43.36431" lon="-1.59988">
        <ele>4</ele>
        <time>2021-06-21T05:55:39.538Z</time>
      </trkpt>
      <trkpt lat="43.36424" lon="-1.59996">
        <ele>4</ele>
        <time>2021-06-21T05:55:40.545Z</time>
      </trkpt>
      <trkpt lat="43.36424" lon="-1.59996">
        <ele>4</ele>
        <time>2021-06-21T05:55:41.524Z</time>
      </trkpt>
      <trkpt lat="43.36417" lon="-1.60006">
        <ele>5</ele>
        <time>2021-06-21T05:55:42.531Z</time>
      </trkpt>
      <trkpt lat="43.36417" lon="-1.60006">
        <ele>5</ele>
        <time>2021-06-21T05:55:43.543Z</time>
      </trkpt>
      <trkpt lat="43.3641" lon="-1.60015">
        <ele>5</ele>
        <time>2021-06-21T05:55:44.511Z</time>
      </trkpt>
      <trkpt lat="43.3641" lon="-1.60015">
        <ele>5</ele>
        <time>2021-06-21T05:55:45.509Z</time>
      </trkpt>
      <trkpt lat="43.36403" lon="-1.60025">
        <ele>5</ele>
        <time>2021-06-21T05:55:46.518Z</time>
      </trkpt>
      <trkpt lat="43.36403" lon="-1.60025">
        <ele>5</ele>
        <time>2021-06-21T05:55:47.546Z</time>
      </trkpt>
      <trkpt lat="43.36397" lon="-1.60035">
        <ele>5</ele>
        <time>2021-06-21T05:55:48.532Z</time>
      </trkpt>
      <trkpt lat="43.36397" lon="-1.60035">
        <ele>5</ele>
        <time>2021-06-21T05:55:49.520Z</time>
      </trkpt>
      <trkpt lat="43.36391" lon="-1.60045">
        <ele>6</ele>
        <time>2021-06-21T05:55:50.534Z</time>
      </trkpt>
      <trkpt lat="43.36391" lon="-1.60045">
        <ele>6</ele>
        <time>2021-06-21T05:55:51.545Z</time>
      </trkpt>
      <trkpt lat="43.36385" lon="-1.60055">
        <ele>7</ele>
        <time>2021-06-21T05:55:52.518Z</time>
      </trkpt>
      <trkpt lat="43.36382" lon="-1.6006">
        <ele>7</ele>
        <time>2021-06-21T05:55:53.549Z</time>
      </trkpt>
      <trkpt lat="43.36379" lon="-1.60065">
        <ele>7</ele>
        <time>2021-06-21T05:55:54.530Z</time>
      </trkpt>
      <trkpt lat="43.36379" lon="-1.60065">
        <ele>7</ele>
        <time>2021-06-21T05:55:55.541Z</time>
      </trkpt>
      <trkpt lat="43.36373" lon="-1.60076">
        <ele>8</ele>
        <time>2021-06-21T05:55:56.548Z</time>
      </trkpt>
      <trkpt lat="43.36371" lon="-1.60082">
        <ele>8</ele>
        <time>2021-06-21T05:55:57.560Z</time>
      </trkpt>
      <trkpt lat="43.36371" lon="-1.60082">
        <ele>8</ele>
        <time>2021-06-21T05:55:58.515Z</time>
      </trkpt>
      <trkpt lat="43.36365" lon="-1.60094">
        <ele>9</ele>
        <time>2021-06-21T05:55:59.521Z</time>
      </trkpt>
      <trkpt lat="43.36363" lon="-1.601">
        <ele>9</ele>
        <time>2021-06-21T05:56:00.534Z</time>
      </trkpt>
      <trkpt lat="43.36363" lon="-1.601">
        <ele>9</ele>
        <time>2021-06-21T05:56:01.545Z</time>
      </trkpt>
      <trkpt lat="43.36359" lon="-1.60113">
        <ele>9</ele>
        <time>2021-06-21T05:56:02.512Z</time>
      </trkpt>
      <trkpt lat="43.36359" lon="-1.60113">
        <ele>9</ele>
        <time>2021-06-21T05:56:03.522Z</time>
      </trkpt>
      <trkpt lat="43.36355" lon="-1.60125">
        <ele>9</ele>
        <time>2021-06-21T05:56:04.532Z</time>
      </trkpt>
      <trkpt lat="43.36355" lon="-1.60125">
        <ele>9</ele>
        <time>2021-06-21T05:56:05.544Z</time>
      </trkpt>
      <trkpt lat="43.36351" lon="-1.60137">
        <ele>9</ele>
        <time>2021-06-21T05:56:06.510Z</time>
      </trkpt>
      <trkpt lat="43.36351" lon="-1.60137">
        <ele>9</ele>
        <time>2021-06-21T05:56:07.521Z</time>
      </trkpt>
      <trkpt lat="43.36347" lon="-1.60148">
        <ele>9</ele>
        <time>2021-06-21T05:56:08.631Z</time>
      </trkpt>
      <trkpt lat="43.36347" lon="-1.60148">
        <ele>9</ele>
        <time>2021-06-21T05:56:09.538Z</time>
      </trkpt>
      <trkpt lat="43.36342" lon="-1.6016">
        <ele>9</ele>
        <time>2021-06-21T05:56:10.545Z</time>
      </trkpt>
      <trkpt lat="43.36342" lon="-1.6016">
        <ele>9</ele>
        <time>2021-06-21T05:56:11.531Z</time>
      </trkpt>
      <trkpt lat="43.36337" lon="-1.60171">
        <ele>9</ele>
        <time>2021-06-21T05:56:12.540Z</time>
      </trkpt>
      <trkpt lat="43.36337" lon="-1.60171">
        <ele>9</ele>
        <time>2021-06-21T05:56:13.530Z</time>
      </trkpt>
      <trkpt lat="43.36331" lon="-1.60182">
        <ele>8</ele>
        <time>2021-06-21T05:56:14.530Z</time>
      </trkpt>
      <trkpt lat="43.36331" lon="-1.60182">
        <ele>8</ele>
        <time>2021-06-21T05:56:15.509Z</time>
      </trkpt>
      <trkpt lat="43.36323" lon="-1.60194">
        <ele>8</ele>
        <time>2021-06-21T05:56:16.521Z</time>
      </trkpt>
      <trkpt lat="43.3632" lon="-1.60199">
        <ele>8</ele>
        <time>2021-06-21T05:56:17.545Z</time>
      </trkpt>
      <trkpt lat="43.36316" lon="-1.60205">
        <ele>8</ele>
        <time>2021-06-21T05:56:18.523Z</time>
      </trkpt>
      <trkpt lat="43.36316" lon="-1.60205">
        <ele>8</ele>
        <time>2021-06-21T05:56:19.533Z</time>
      </trkpt>
      <trkpt lat="43.36309" lon="-1.60216">
        <ele>8</ele>
        <time>2021-06-21T05:56:20.542Z</time>
      </trkpt>
      <trkpt lat="43.36309" lon="-1.60216">
        <ele>8</ele>
        <time>2021-06-21T05:56:21.516Z</time>
      </trkpt>
      <trkpt lat="43.36302" lon="-1.60225">
        <ele>9</ele>
        <time>2021-06-21T05:56:22.538Z</time>
      </trkpt>
      <trkpt lat="43.36302" lon="-1.60225">
        <ele>9</ele>
        <time>2021-06-21T05:56:23.546Z</time>
      </trkpt>
      <trkpt lat="43.36293" lon="-1.60235">
        <ele>9</ele>
        <time>2021-06-21T05:56:24.515Z</time>
      </trkpt>
      <trkpt lat="43.36293" lon="-1.60235">
        <ele>9</ele>
        <time>2021-06-21T05:56:25.519Z</time>
      </trkpt>
      <trkpt lat="43.36284" lon="-1.60243">
        <ele>9</ele>
        <time>2021-06-21T05:56:26.526Z</time>
      </trkpt>
      <trkpt lat="43.36284" lon="-1.60243">
        <ele>9</ele>
        <time>2021-06-21T05:56:27.546Z</time>
      </trkpt>
      <trkpt lat="43.36275" lon="-1.60251">
        <ele>9</ele>
        <time>2021-06-21T05:56:28.518Z</time>
      </trkpt>
      <trkpt lat="43.36275" lon="-1.60251">
        <ele>9</ele>
        <time>2021-06-21T05:56:29.526Z</time>
      </trkpt>
      <trkpt lat="43.36265" lon="-1.60259">
        <ele>9</ele>
        <time>2021-06-21T05:56:30.535Z</time>
      </trkpt>
      <trkpt lat="43.36265" lon="-1.60259">
        <ele>9</ele>
        <time>2021-06-21T05:56:31.547Z</time>
      </trkpt>
      <trkpt lat="43.36256" lon="-1.60267">
        <ele>9</ele>
        <time>2021-06-21T05:56:32.517Z</time>
      </trkpt>
      <trkpt lat="43.36256" lon="-1.60267">
        <ele>9</ele>
        <time>2021-06-21T05:56:33.541Z</time>
      </trkpt>
      <trkpt lat="43.36247" lon="-1.60276">
        <ele>8</ele>
        <time>2021-06-21T05:56:34.546Z</time>
      </trkpt>
      <trkpt lat="43.36247" lon="-1.60276">
        <ele>8</ele>
        <time>2021-06-21T05:56:35.522Z</time>
      </trkpt>
      <trkpt lat="43.36238" lon="-1.60283">
        <ele>8</ele>
        <time>2021-06-21T05:56:36.533Z</time>
      </trkpt>
      <trkpt lat="43.36233" lon="-1.60287">
        <ele>8</ele>
        <time>2021-06-21T05:56:37.550Z</time>
      </trkpt>
      <trkpt lat="43.36233" lon="-1.60287">
        <ele>8</ele>
        <time>2021-06-21T05:56:38.528Z</time>
      </trkpt>
      <trkpt lat="43.36225" lon="-1.60295">
        <ele>8</ele>
        <time>2021-06-21T05:56:39.540Z</time>
      </trkpt>
      <trkpt lat="43.36221" lon="-1.60299">
        <ele>7</ele>
        <time>2021-06-21T05:56:40.510Z</time>
      </trkpt>
      <trkpt lat="43.36221" lon="-1.60299">
        <ele>7</ele>
        <time>2021-06-21T05:56:41.522Z</time>
      </trkpt>
      <trkpt lat="43.36212" lon="-1.60306">
        <ele>8</ele>
        <time>2021-06-21T05:56:42.532Z</time>
      </trkpt>
      <trkpt lat="43.36212" lon="-1.60306">
        <ele>8</ele>
        <time>2021-06-21T05:56:43.523Z</time>
      </trkpt>
      <trkpt lat="43.36203" lon="-1.60313">
        <ele>9</ele>
        <time>2021-06-21T05:56:44.530Z</time>
      </trkpt>
      <trkpt lat="43.36203" lon="-1.60313">
        <ele>9</ele>
        <time>2021-06-21T05:56:45.521Z</time>
      </trkpt>
      <trkpt lat="43.36195" lon="-1.6032">
        <ele>9</ele>
        <time>2021-06-21T05:56:46.536Z</time>
      </trkpt>
      <trkpt lat="43.3619" lon="-1.60324">
        <ele>9</ele>
        <time>2021-06-21T05:56:47.532Z</time>
      </trkpt>
      <trkpt lat="43.36186" lon="-1.60329">
        <ele>9</ele>
        <time>2021-06-21T05:56:48.511Z</time>
      </trkpt>
      <trkpt lat="43.36186" lon="-1.60329">
        <ele>9</ele>
        <time>2021-06-21T05:56:49.526Z</time>
      </trkpt>
      <trkpt lat="43.36178" lon="-1.60337">
        <ele>8</ele>
        <time>2021-06-21T05:56:50.533Z</time>
      </trkpt>
      <trkpt lat="43.36178" lon="-1.60337">
        <ele>8</ele>
        <time>2021-06-21T05:56:51.546Z</time>
      </trkpt>
      <trkpt lat="43.3617" lon="-1.60346">
        <ele>8</ele>
        <time>2021-06-21T05:56:52.512Z</time>
      </trkpt>
      <trkpt lat="43.3617" lon="-1.60346">
        <ele>8</ele>
        <time>2021-06-21T05:56:53.530Z</time>
      </trkpt>
      <trkpt lat="43.36163" lon="-1.60355">
        <ele>8</ele>
        <time>2021-06-21T05:56:54.541Z</time>
      </trkpt>
      <trkpt lat="43.36163" lon="-1.60355">
        <ele>8</ele>
        <time>2021-06-21T05:56:55.519Z</time>
      </trkpt>
      <trkpt lat="43.36156" lon="-1.60364">
        <ele>8</ele>
        <time>2021-06-21T05:56:56.509Z</time>
      </trkpt>
      <trkpt lat="43.36156" lon="-1.60364">
        <ele>8</ele>
        <time>2021-06-21T05:56:57.539Z</time>
      </trkpt>
      <trkpt lat="43.36149" lon="-1.60374">
        <ele>7</ele>
        <time>2021-06-21T05:56:58.509Z</time>
      </trkpt>
      <trkpt lat="43.36149" lon="-1.60374">
        <ele>7</ele>
        <time>2021-06-21T05:56:59.530Z</time>
      </trkpt>
      <trkpt lat="43.36143" lon="-1.60385">
        <ele>7</ele>
        <time>2021-06-21T05:57:00.537Z</time>
      </trkpt>
      <trkpt lat="43.36143" lon="-1.60385">
        <ele>7</ele>
        <time>2021-06-21T05:57:01.523Z</time>
      </trkpt>
      <trkpt lat="43.36137" lon="-1.60396">
        <ele>7</ele>
        <time>2021-06-21T05:57:02.571Z</time>
      </trkpt>
      <trkpt lat="43.36137" lon="-1.60396">
        <ele>7</ele>
        <time>2021-06-21T05:57:03.524Z</time>
      </trkpt>
      <trkpt lat="43.36131" lon="-1.60407">
        <ele>8</ele>
        <time>2021-06-21T05:57:04.533Z</time>
      </trkpt>
      <trkpt lat="43.36131" lon="-1.60407">
        <ele>8</ele>
        <time>2021-06-21T05:57:05.542Z</time>
      </trkpt>
      <trkpt lat="43.36127" lon="-1.60419">
        <ele>7</ele>
        <time>2021-06-21T05:57:06.550Z</time>
      </trkpt>
      <trkpt lat="43.36127" lon="-1.60419">
        <ele>7</ele>
        <time>2021-06-21T05:57:07.531Z</time>
      </trkpt>
      <trkpt lat="43.36123" lon="-1.60431">
        <ele>7</ele>
        <time>2021-06-21T05:57:08.526Z</time>
      </trkpt>
      <trkpt lat="43.36123" lon="-1.60431">
        <ele>7</ele>
        <time>2021-06-21T05:57:09.516Z</time>
      </trkpt>
      <trkpt lat="43.3612" lon="-1.60444">
        <ele>7</ele>
        <time>2021-06-21T05:57:10.524Z</time>
      </trkpt>
      <trkpt lat="43.3612" lon="-1.60444">
        <ele>7</ele>
        <time>2021-06-21T05:57:11.525Z</time>
      </trkpt>
      <trkpt lat="43.36117" lon="-1.60457">
        <ele>7</ele>
        <time>2021-06-21T05:57:12.533Z</time>
      </trkpt>
      <trkpt lat="43.36117" lon="-1.60457">
        <ele>7</ele>
        <time>2021-06-21T05:57:13.517Z</time>
      </trkpt>
      <trkpt lat="43.36113" lon="-1.60469">
        <ele>8</ele>
        <time>2021-06-21T05:57:14.527Z</time>
      </trkpt>
      <trkpt lat="43.36113" lon="-1.60469">
        <ele>8</ele>
        <time>2021-06-21T05:57:15.543Z</time>
      </trkpt>
      <trkpt lat="43.36111" lon="-1.60482">
        <ele>8</ele>
        <time>2021-06-21T05:57:16.581Z</time>
      </trkpt>
      <trkpt lat="43.36111" lon="-1.60482">
        <ele>8</ele>
        <time>2021-06-21T05:57:17.530Z</time>
      </trkpt>
      <trkpt lat="43.36109" lon="-1.60496">
        <ele>8</ele>
        <time>2021-06-21T05:57:18.536Z</time>
      </trkpt>
      <trkpt lat="43.36109" lon="-1.60496">
        <ele>8</ele>
        <time>2021-06-21T05:57:19.516Z</time>
      </trkpt>
      <trkpt lat="43.36108" lon="-1.6051">
        <ele>7</ele>
        <time>2021-06-21T05:57:20.531Z</time>
      </trkpt>
      <trkpt lat="43.36108" lon="-1.6051">
        <ele>7</ele>
        <time>2021-06-21T05:57:21.528Z</time>
      </trkpt>
      <trkpt lat="43.36107" lon="-1.60524">
        <ele>6</ele>
        <time>2021-06-21T05:57:22.545Z</time>
      </trkpt>
      <trkpt lat="43.36107" lon="-1.60524">
        <ele>6</ele>
        <time>2021-06-21T05:57:23.518Z</time>
      </trkpt>
      <trkpt lat="43.36107" lon="-1.60538">
        <ele>6</ele>
        <time>2021-06-21T05:57:24.525Z</time>
      </trkpt>
      <trkpt lat="43.36107" lon="-1.60538">
        <ele>6</ele>
        <time>2021-06-21T05:57:25.537Z</time>
      </trkpt>
      <trkpt lat="43.36108" lon="-1.60552">
        <ele>6</ele>
        <time>2021-06-21T05:57:26.511Z</time>
      </trkpt>
      <trkpt lat="43.36108" lon="-1.60552">
        <ele>6</ele>
        <time>2021-06-21T05:57:27.546Z</time>
      </trkpt>
      <trkpt lat="43.36108" lon="-1.60565">
        <ele>6</ele>
        <time>2021-06-21T05:57:28.525Z</time>
      </trkpt>
      <trkpt lat="43.36108" lon="-1.60565">
        <ele>6</ele>
        <time>2021-06-21T05:57:29.547Z</time>
      </trkpt>
      <trkpt lat="43.36109" lon="-1.60578">
        <ele>6</ele>
        <time>2021-06-21T05:57:30.515Z</time>
      </trkpt>
      <trkpt lat="43.36109" lon="-1.60578">
        <ele>6</ele>
        <time>2021-06-21T05:57:31.528Z</time>
      </trkpt>
      <trkpt lat="43.36109" lon="-1.6059">
        <ele>7</ele>
        <time>2021-06-21T05:57:32.536Z</time>
      </trkpt>
      <trkpt lat="43.36109" lon="-1.6059">
        <ele>7</ele>
        <time>2021-06-21T05:57:33.509Z</time>
      </trkpt>
      <trkpt lat="43.3611" lon="-1.60602">
        <ele>8</ele>
        <time>2021-06-21T05:57:34.529Z</time>
      </trkpt>
      <trkpt lat="43.3611" lon="-1.60602">
        <ele>8</ele>
        <time>2021-06-21T05:57:35.545Z</time>
      </trkpt>
      <trkpt lat="43.36112" lon="-1.60615">
        <ele>8</ele>
        <time>2021-06-21T05:57:36.513Z</time>
      </trkpt>
      <trkpt lat="43.36112" lon="-1.60615">
        <ele>8</ele>
        <time>2021-06-21T05:57:37.527Z</time>
      </trkpt>
      <trkpt lat="43.36113" lon="-1.60629">
        <ele>8</ele>
        <time>2021-06-21T05:57:38.535Z</time>
      </trkpt>
      <trkpt lat="43.36113" lon="-1.60629">
        <ele>8</ele>
        <time>2021-06-21T05:57:39.510Z</time>
      </trkpt>
      <trkpt lat="43.36115" lon="-1.60644">
        <ele>9</ele>
        <time>2021-06-21T05:57:40.519Z</time>
      </trkpt>
      <trkpt lat="43.36115" lon="-1.60644">
        <ele>9</ele>
        <time>2021-06-21T05:57:41.529Z</time>
      </trkpt>
      <trkpt lat="43.36116" lon="-1.60659">
        <ele>8</ele>
        <time>2021-06-21T05:57:42.524Z</time>
      </trkpt>
      <trkpt lat="43.36116" lon="-1.60659">
        <ele>8</ele>
        <time>2021-06-21T05:57:43.528Z</time>
      </trkpt>
      <trkpt lat="43.36118" lon="-1.60674">
        <ele>8</ele>
        <time>2021-06-21T05:57:44.540Z</time>
      </trkpt>
      <trkpt lat="43.36118" lon="-1.60674">
        <ele>8</ele>
        <time>2021-06-21T05:57:45.544Z</time>
      </trkpt>
      <trkpt lat="43.36119" lon="-1.60691">
        <ele>8</ele>
        <time>2021-06-21T05:57:46.516Z</time>
      </trkpt>
      <trkpt lat="43.3612" lon="-1.60699">
        <ele>7</ele>
        <time>2021-06-21T05:57:47.520Z</time>
      </trkpt>
      <trkpt lat="43.3612" lon="-1.60708">
        <ele>7</ele>
        <time>2021-06-21T05:57:48.537Z</time>
      </trkpt>
      <trkpt lat="43.3612" lon="-1.60708">
        <ele>7</ele>
        <time>2021-06-21T05:57:49.515Z</time>
      </trkpt>
      <trkpt lat="43.36122" lon="-1.60725">
        <ele>7</ele>
        <time>2021-06-21T05:57:50.534Z</time>
      </trkpt>
      <trkpt lat="43.36122" lon="-1.60725">
        <ele>7</ele>
        <time>2021-06-21T05:57:51.520Z</time>
      </trkpt>
      <trkpt lat="43.36122" lon="-1.60742">
        <ele>6</ele>
        <time>2021-06-21T05:57:52.515Z</time>
      </trkpt>
      <trkpt lat="43.36122" lon="-1.60742">
        <ele>6</ele>
        <time>2021-06-21T05:57:53.538Z</time>
      </trkpt>
      <trkpt lat="43.36122" lon="-1.60759">
        <ele>6</ele>
        <time>2021-06-21T05:57:54.549Z</time>
      </trkpt>
      <trkpt lat="43.36122" lon="-1.60759">
        <ele>6</ele>
        <time>2021-06-21T05:57:55.523Z</time>
      </trkpt>
      <trkpt lat="43.36123" lon="-1.60777">
        <ele>6</ele>
        <time>2021-06-21T05:57:56.523Z</time>
      </trkpt>
      <trkpt lat="43.36123" lon="-1.60777">
        <ele>6</ele>
        <time>2021-06-21T05:57:57.530Z</time>
      </trkpt>
      <trkpt lat="43.36122" lon="-1.60794">
        <ele>5</ele>
        <time>2021-06-21T05:57:58.538Z</time>
      </trkpt>
      <trkpt lat="43.36122" lon="-1.60803">
        <ele>5</ele>
        <time>2021-06-21T05:57:59.514Z</time>
      </trkpt>
      <trkpt lat="43.36121" lon="-1.60811">
        <ele>5</ele>
        <time>2021-06-21T05:58:00.540Z</time>
      </trkpt>
      <trkpt lat="43.36121" lon="-1.60811">
        <ele>5</ele>
        <time>2021-06-21T05:58:01.522Z</time>
      </trkpt>
      <trkpt lat="43.3612" lon="-1.60827">
        <ele>5</ele>
        <time>2021-06-21T05:58:02.528Z</time>
      </trkpt>
      <trkpt lat="43.3612" lon="-1.60827">
        <ele>5</ele>
        <time>2021-06-21T05:58:03.547Z</time>
      </trkpt>
      <trkpt lat="43.3612" lon="-1.60844">
        <ele>5</ele>
        <time>2021-06-21T05:58:04.530Z</time>
      </trkpt>
      <trkpt lat="43.3612" lon="-1.60844">
        <ele>5</ele>
        <time>2021-06-21T05:58:05.525Z</time>
      </trkpt>
      <trkpt lat="43.36119" lon="-1.60859">
        <ele>4</ele>
        <time>2021-06-21T05:58:06.530Z</time>
      </trkpt>
      <trkpt lat="43.36119" lon="-1.60859">
        <ele>4</ele>
        <time>2021-06-21T05:58:07.509Z</time>
      </trkpt>
      <trkpt lat="43.36119" lon="-1.60874">
        <ele>4</ele>
        <time>2021-06-21T05:58:08.516Z</time>
      </trkpt>
      <trkpt lat="43.36119" lon="-1.60874">
        <ele>4</ele>
        <time>2021-06-21T05:58:09.527Z</time>
      </trkpt>
      <trkpt lat="43.36118" lon="-1.60889">
        <ele>4</ele>
        <time>2021-06-21T05:58:10.539Z</time>
      </trkpt>
      <trkpt lat="43.36118" lon="-1.60896">
        <ele>4</ele>
        <time>2021-06-21T05:58:11.548Z</time>
      </trkpt>
      <trkpt lat="43.36118" lon="-1.60902">
        <ele>3</ele>
        <time>2021-06-21T05:58:12.522Z</time>
      </trkpt>
      <trkpt lat="43.36118" lon="-1.60902">
        <ele>3</ele>
        <time>2021-06-21T05:58:13.538Z</time>
      </trkpt>
      <trkpt lat="43.36118" lon="-1.60916">
        <ele>3</ele>
        <time>2021-06-21T05:58:14.510Z</time>
      </trkpt>
      <trkpt lat="43.36118" lon="-1.60916">
        <ele>3</ele>
        <time>2021-06-21T05:58:15.527Z</time>
      </trkpt>
      <trkpt lat="43.36116" lon="-1.60931">
        <ele>4</ele>
        <time>2021-06-21T05:58:16.535Z</time>
      </trkpt>
      <trkpt lat="43.36116" lon="-1.60931">
        <ele>4</ele>
        <time>2021-06-21T05:58:17.546Z</time>
      </trkpt>
      <trkpt lat="43.36115" lon="-1.60945">
        <ele>4</ele>
        <time>2021-06-21T05:58:18.513Z</time>
      </trkpt>
      <trkpt lat="43.36115" lon="-1.60945">
        <ele>4</ele>
        <time>2021-06-21T05:58:19.532Z</time>
      </trkpt>
      <trkpt lat="43.36113" lon="-1.60959">
        <ele>5</ele>
        <time>2021-06-21T05:58:20.538Z</time>
      </trkpt>
      <trkpt lat="43.36113" lon="-1.60959">
        <ele>5</ele>
        <time>2021-06-21T05:58:21.509Z</time>
      </trkpt>
      <trkpt lat="43.36112" lon="-1.60973">
        <ele>6</ele>
        <time>2021-06-21T05:58:22.524Z</time>
      </trkpt>
      <trkpt lat="43.36112" lon="-1.60973">
        <ele>6</ele>
        <time>2021-06-21T05:58:23.539Z</time>
      </trkpt>
      <trkpt lat="43.36111" lon="-1.60986">
        <ele>6</ele>
        <time>2021-06-21T05:58:24.549Z</time>
      </trkpt>
      <trkpt lat="43.36111" lon="-1.60986">
        <ele>6</ele>
        <time>2021-06-21T05:58:25.532Z</time>
      </trkpt>
      <trkpt lat="43.3611" lon="-1.61">
        <ele>7</ele>
        <time>2021-06-21T05:58:26.542Z</time>
      </trkpt>
      <trkpt lat="43.3611" lon="-1.61">
        <ele>7</ele>
        <time>2021-06-21T05:58:27.518Z</time>
      </trkpt>
      <trkpt lat="43.3611" lon="-1.61013">
        <ele>7</ele>
        <time>2021-06-21T05:58:28.527Z</time>
      </trkpt>
      <trkpt lat="43.3611" lon="-1.61013">
        <ele>7</ele>
        <time>2021-06-21T05:58:29.509Z</time>
      </trkpt>
      <trkpt lat="43.36109" lon="-1.61026">
        <ele>7</ele>
        <time>2021-06-21T05:58:30.522Z</time>
      </trkpt>
      <trkpt lat="43.36109" lon="-1.61026">
        <ele>7</ele>
        <time>2021-06-21T05:58:31.537Z</time>
      </trkpt>
      <trkpt lat="43.36107" lon="-1.61039">
        <ele>8</ele>
        <time>2021-06-21T05:58:32.550Z</time>
      </trkpt>
      <trkpt lat="43.36107" lon="-1.61039">
        <ele>8</ele>
        <time>2021-06-21T05:58:33.533Z</time>
      </trkpt>
      <trkpt lat="43.36107" lon="-1.61052">
        <ele>8</ele>
        <time>2021-06-21T05:58:34.545Z</time>
      </trkpt>
      <trkpt lat="43.36107" lon="-1.61052">
        <ele>8</ele>
        <time>2021-06-21T05:58:35.521Z</time>
      </trkpt>
      <trkpt lat="43.36106" lon="-1.61066">
        <ele>7</ele>
        <time>2021-06-21T05:58:36.528Z</time>
      </trkpt>
      <trkpt lat="43.36106" lon="-1.61066">
        <ele>7</ele>
        <time>2021-06-21T05:58:37.546Z</time>
      </trkpt>
      <trkpt lat="43.36105" lon="-1.61081">
        <ele>8</ele>
        <time>2021-06-21T05:58:38.513Z</time>
      </trkpt>
      <trkpt lat="43.36105" lon="-1.61081">
        <ele>8</ele>
        <time>2021-06-21T05:58:39.541Z</time>
      </trkpt>
      <trkpt lat="43.36103" lon="-1.61095">
        <ele>7</ele>
        <time>2021-06-21T05:58:40.548Z</time>
      </trkpt>
      <trkpt lat="43.36103" lon="-1.61095">
        <ele>7</ele>
        <time>2021-06-21T05:58:41.514Z</time>
      </trkpt>
      <trkpt lat="43.361" lon="-1.6111">
        <ele>7</ele>
        <time>2021-06-21T05:58:42.513Z</time>
      </trkpt>
      <trkpt lat="43.361" lon="-1.6111">
        <ele>7</ele>
        <time>2021-06-21T05:58:43.528Z</time>
      </trkpt>
      <trkpt lat="43.36097" lon="-1.61124">
        <ele>6</ele>
        <time>2021-06-21T05:58:44.535Z</time>
      </trkpt>
      <trkpt lat="43.36095" lon="-1.61132">
        <ele>6</ele>
        <time>2021-06-21T05:58:45.514Z</time>
      </trkpt>
      <trkpt lat="43.36095" lon="-1.61132">
        <ele>6</ele>
        <time>2021-06-21T05:58:46.525Z</time>
      </trkpt>
      <trkpt lat="43.36091" lon="-1.61148">
        <ele>6</ele>
        <time>2021-06-21T05:58:47.532Z</time>
      </trkpt>
      <trkpt lat="43.36089" lon="-1.61156">
        <ele>6</ele>
        <time>2021-06-21T05:58:48.530Z</time>
      </trkpt>
      <trkpt lat="43.36089" lon="-1.61156">
        <ele>6</ele>
        <time>2021-06-21T05:58:49.518Z</time>
      </trkpt>
      <trkpt lat="43.36084" lon="-1.61172">
        <ele>5</ele>
        <time>2021-06-21T05:58:50.527Z</time>
      </trkpt>
      <trkpt lat="43.36084" lon="-1.61172">
        <ele>5</ele>
        <time>2021-06-21T05:58:51.539Z</time>
      </trkpt>
      <trkpt lat="43.36078" lon="-1.61188">
        <ele>4</ele>
        <time>2021-06-21T05:58:52.541Z</time>
      </trkpt>
      <trkpt lat="43.36078" lon="-1.61188">
        <ele>4</ele>
        <time>2021-06-21T05:58:53.541Z</time>
      </trkpt>
      <trkpt lat="43.36071" lon="-1.61204">
        <ele>4</ele>
        <time>2021-06-21T05:58:54.510Z</time>
      </trkpt>
      <trkpt lat="43.36071" lon="-1.61204">
        <ele>4</ele>
        <time>2021-06-21T05:58:55.526Z</time>
      </trkpt>
      <trkpt lat="43.36064" lon="-1.6122">
        <ele>4</ele>
        <time>2021-06-21T05:58:56.534Z</time>
      </trkpt>
      <trkpt lat="43.36064" lon="-1.6122">
        <ele>4</ele>
        <time>2021-06-21T05:58:57.548Z</time>
      </trkpt>
      <trkpt lat="43.36055" lon="-1.61236">
        <ele>4</ele>
        <time>2021-06-21T05:58:58.513Z</time>
      </trkpt>
      <trkpt lat="43.36055" lon="-1.61236">
        <ele>4</ele>
        <time>2021-06-21T05:58:59.515Z</time>
      </trkpt>
      <trkpt lat="43.36046" lon="-1.61251">
        <ele>5</ele>
        <time>2021-06-21T05:59:00.526Z</time>
      </trkpt>
      <trkpt lat="43.36046" lon="-1.61251">
        <ele>5</ele>
        <time>2021-06-21T05:59:01.547Z</time>
      </trkpt>
      <trkpt lat="43.36037" lon="-1.61265">
        <ele>4</ele>
        <time>2021-06-21T05:59:02.515Z</time>
      </trkpt>
      <trkpt lat="43.36037" lon="-1.61265">
        <ele>4</ele>
        <time>2021-06-21T05:59:03.530Z</time>
      </trkpt>
      <trkpt lat="43.36027" lon="-1.61279">
        <ele>4</ele>
        <time>2021-06-21T05:59:04.527Z</time>
      </trkpt>
      <trkpt lat="43.36027" lon="-1.61279">
        <ele>4</ele>
        <time>2021-06-21T05:59:05.516Z</time>
      </trkpt>
      <trkpt lat="43.36018" lon="-1.61292">
        <ele>4</ele>
        <time>2021-06-21T05:59:06.522Z</time>
      </trkpt>
      <trkpt lat="43.36018" lon="-1.61292">
        <ele>4</ele>
        <time>2021-06-21T05:59:07.538Z</time>
      </trkpt>
      <trkpt lat="43.36009" lon="-1.61304">
        <ele>4</ele>
        <time>2021-06-21T05:59:08.511Z</time>
      </trkpt>
      <trkpt lat="43.36009" lon="-1.61304">
        <ele>4</ele>
        <time>2021-06-21T05:59:09.527Z</time>
      </trkpt>
      <trkpt lat="43.35999" lon="-1.61315">
        <ele>4</ele>
        <time>2021-06-21T05:59:10.535Z</time>
      </trkpt>
      <trkpt lat="43.35995" lon="-1.61321">
        <ele>4</ele>
        <time>2021-06-21T05:59:11.513Z</time>
      </trkpt>
      <trkpt lat="43.3599" lon="-1.61327">
        <ele>4</ele>
        <time>2021-06-21T05:59:12.534Z</time>
      </trkpt>
      <trkpt lat="43.3599" lon="-1.61327">
        <ele>4</ele>
        <time>2021-06-21T05:59:13.523Z</time>
      </trkpt>
      <trkpt lat="43.35983" lon="-1.61338">
        <ele>4</ele>
        <time>2021-06-21T05:59:14.531Z</time>
      </trkpt>
      <trkpt lat="43.35983" lon="-1.61338">
        <ele>4</ele>
        <time>2021-06-21T05:59:15.515Z</time>
      </trkpt>
      <trkpt lat="43.35975" lon="-1.61349">
        <ele>3</ele>
        <time>2021-06-21T05:59:16.521Z</time>
      </trkpt>
      <trkpt lat="43.35975" lon="-1.61349">
        <ele>3</ele>
        <time>2021-06-21T05:59:17.545Z</time>
      </trkpt>
      <trkpt lat="43.35967" lon="-1.6136">
        <ele>3</ele>
        <time>2021-06-21T05:59:18.526Z</time>
      </trkpt>
      <trkpt lat="43.35967" lon="-1.6136">
        <ele>3</ele>
        <time>2021-06-21T05:59:19.519Z</time>
      </trkpt>
      <trkpt lat="43.35959" lon="-1.61371">
        <ele>2</ele>
        <time>2021-06-21T05:59:20.516Z</time>
      </trkpt>
      <trkpt lat="43.35955" lon="-1.61377">
        <ele>2</ele>
        <time>2021-06-21T05:59:21.531Z</time>
      </trkpt>
      <trkpt lat="43.35951" lon="-1.61383">
        <ele>2</ele>
        <time>2021-06-21T05:59:22.527Z</time>
      </trkpt>
      <trkpt lat="43.35951" lon="-1.61383">
        <ele>2</ele>
        <time>2021-06-21T05:59:23.539Z</time>
      </trkpt>
      <trkpt lat="43.35941" lon="-1.61394">
        <ele>2</ele>
        <time>2021-06-21T05:59:24.548Z</time>
      </trkpt>
      <trkpt lat="43.35941" lon="-1.61394">
        <ele>2</ele>
        <time>2021-06-21T05:59:25.519Z</time>
      </trkpt>
      <trkpt lat="43.35931" lon="-1.61406">
        <ele>2</ele>
        <time>2021-06-21T05:59:26.519Z</time>
      </trkpt>
      <trkpt lat="43.35931" lon="-1.61406">
        <ele>2</ele>
        <time>2021-06-21T05:59:27.522Z</time>
      </trkpt>
      <trkpt lat="43.3592" lon="-1.61417">
        <ele>2</ele>
        <time>2021-06-21T05:59:28.529Z</time>
      </trkpt>
      <trkpt lat="43.3592" lon="-1.61417">
        <ele>2</ele>
        <time>2021-06-21T05:59:29.511Z</time>
      </trkpt>
      <trkpt lat="43.35909" lon="-1.61428">
        <ele>2</ele>
        <time>2021-06-21T05:59:30.621Z</time>
      </trkpt>
      <trkpt lat="43.35909" lon="-1.61428">
        <ele>2</ele>
        <time>2021-06-21T05:59:31.543Z</time>
      </trkpt>
      <trkpt lat="43.35897" lon="-1.61438">
        <ele>1</ele>
        <time>2021-06-21T05:59:32.512Z</time>
      </trkpt>
      <trkpt lat="43.35897" lon="-1.61438">
        <ele>1</ele>
        <time>2021-06-21T05:59:33.526Z</time>
      </trkpt>
      <trkpt lat="43.35885" lon="-1.61448">
        <ele>1</ele>
        <time>2021-06-21T05:59:34.527Z</time>
      </trkpt>
      <trkpt lat="43.35885" lon="-1.61448">
        <ele>1</ele>
        <time>2021-06-21T05:59:35.523Z</time>
      </trkpt>
      <trkpt lat="43.35873" lon="-1.61458">
        <ele>1</ele>
        <time>2021-06-21T05:59:36.533Z</time>
      </trkpt>
      <trkpt lat="43.35873" lon="-1.61458">
        <ele>1</ele>
        <time>2021-06-21T05:59:37.546Z</time>
      </trkpt>
      <trkpt lat="43.35861" lon="-1.61467">
        <ele>8</ele>
        <time>2021-06-21T05:59:38.528Z</time>
      </trkpt>
      <trkpt lat="43.35861" lon="-1.61467">
        <ele>8</ele>
        <time>2021-06-21T05:59:39.533Z</time>
      </trkpt>
      <trkpt lat="43.35849" lon="-1.61477">
        <ele>-1</ele>
        <time>2021-06-21T05:59:40.540Z</time>
      </trkpt>
      <trkpt lat="43.35849" lon="-1.61477">
        <ele>-1</ele>
        <time>2021-06-21T05:59:41.521Z</time>
      </trkpt>
      <trkpt lat="43.35837" lon="-1.61486">
        <ele>-2</ele>
        <time>2021-06-21T05:59:42.530Z</time>
      </trkpt>
      <trkpt lat="43.35837" lon="-1.61486">
        <ele>-2</ele>
        <time>2021-06-21T05:59:43.512Z</time>
      </trkpt>
      <trkpt lat="43.35826" lon="-1.61496">
        <ele>-3</ele>
        <time>2021-06-21T05:59:44.532Z</time>
      </trkpt>
      <trkpt lat="43.3582" lon="-1.615">
        <ele>-3</ele>
        <time>2021-06-21T05:59:45.530Z</time>
      </trkpt>
      <trkpt lat="43.3582" lon="-1.615">
        <ele>-3</ele>
        <time>2021-06-21T05:59:46.543Z</time>
      </trkpt>
      <trkpt lat="43.3581" lon="-1.61511">
        <ele>-4</ele>
        <time>2021-06-21T05:59:47.534Z</time>
      </trkpt>
      <trkpt lat="43.35805" lon="-1.61515">
        <ele>-4</ele>
        <time>2021-06-21T05:59:48.535Z</time>
      </trkpt>
      <trkpt lat="43.35805" lon="-1.61515">
        <ele>-4</ele>
        <time>2021-06-21T05:59:49.516Z</time>
      </trkpt>
      <trkpt lat="43.35796" lon="-1.61529">
        <ele>-4</ele>
        <time>2021-06-21T05:59:50.521Z</time>
      </trkpt>
      <trkpt lat="43.35796" lon="-1.61529">
        <ele>-4</ele>
        <time>2021-06-21T05:59:51.540Z</time>
      </trkpt>
      <trkpt lat="43.35787" lon="-1.61542">
        <ele>-4</ele>
        <time>2021-06-21T05:59:52.556Z</time>
      </trkpt>
      <trkpt lat="43.35787" lon="-1.61542">
        <ele>-4</ele>
        <time>2021-06-21T05:59:53.523Z</time>
      </trkpt>
      <trkpt lat="43.35779" lon="-1.61555">
        <ele>-5</ele>
        <time>2021-06-21T05:59:54.532Z</time>
      </trkpt>
      <trkpt lat="43.35779" lon="-1.61555">
        <ele>-5</ele>
        <time>2021-06-21T05:59:55.547Z</time>
      </trkpt>
      <trkpt lat="43.35771" lon="-1.61568">
        <ele>-5</ele>
        <time>2021-06-21T05:59:56.514Z</time>
      </trkpt>
      <trkpt lat="43.35767" lon="-1.61575">
        <ele>-5</ele>
        <time>2021-06-21T05:59:57.544Z</time>
      </trkpt>
      <trkpt lat="43.35767" lon="-1.61575">
        <ele>-5</ele>
        <time>2021-06-21T05:59:58.539Z</time>
      </trkpt>
      <trkpt lat="43.35759" lon="-1.61587">
        <ele>-6</ele>
        <time>2021-06-21T05:59:59.514Z</time>
      </trkpt>
      <trkpt lat="43.35756" lon="-1.61593">
        <ele>-6</ele>
        <time>2021-06-21T06:00:00.525Z</time>
      </trkpt>
      <trkpt lat="43.35756" lon="-1.61593">
        <ele>-6</ele>
        <time>2021-06-21T06:00:01.543Z</time>
      </trkpt>
      <trkpt lat="43.35749" lon="-1.61604">
        <ele>-6</ele>
        <time>2021-06-21T06:00:02.513Z</time>
      </trkpt>
      <trkpt lat="43.35749" lon="-1.61604">
        <ele>-6</ele>
        <time>2021-06-21T06:00:03.529Z</time>
      </trkpt>
      <trkpt lat="43.35741" lon="-1.61617">
        <ele>-6</ele>
        <time>2021-06-21T06:00:04.546Z</time>
      </trkpt>
      <trkpt lat="43.35741" lon="-1.61617">
        <ele>-6</ele>
        <time>2021-06-21T06:00:05.522Z</time>
      </trkpt>
      <trkpt lat="43.35733" lon="-1.61629">
        <ele>-7</ele>
        <time>2021-06-21T06:00:06.539Z</time>
      </trkpt>
      <trkpt lat="43.35733" lon="-1.61629">
        <ele>-7</ele>
        <time>2021-06-21T06:00:07.520Z</time>
      </trkpt>
      <trkpt lat="43.35726" lon="-1.61642">
        <ele>-7</ele>
        <time>2021-06-21T06:00:08.525Z</time>
      </trkpt>
      <trkpt lat="43.35726" lon="-1.61642">
        <ele>-7</ele>
        <time>2021-06-21T06:00:09.538Z</time>
      </trkpt>
      <trkpt lat="43.35718" lon="-1.61655">
        <ele>-7</ele>
        <time>2021-06-21T06:00:10.514Z</time>
      </trkpt>
      <trkpt lat="43.35718" lon="-1.61655">
        <ele>-7</ele>
        <time>2021-06-21T06:00:11.520Z</time>
      </trkpt>
      <trkpt lat="43.35711" lon="-1.61666">
        <ele>-8</ele>
        <time>2021-06-21T06:00:12.527Z</time>
      </trkpt>
      <trkpt lat="43.35711" lon="-1.61666">
        <ele>-8</ele>
        <time>2021-06-21T06:00:13.542Z</time>
      </trkpt>
      <trkpt lat="43.35703" lon="-1.61677">
        <ele>-8</ele>
        <time>2021-06-21T06:00:14.509Z</time>
      </trkpt>
      <trkpt lat="43.35703" lon="-1.61677">
        <ele>-8</ele>
        <time>2021-06-21T06:00:15.520Z</time>
      </trkpt>
      <trkpt lat="43.35696" lon="-1.61688">
        <ele>-9</ele>
        <time>2021-06-21T06:00:16.537Z</time>
      </trkpt>
      <trkpt lat="43.35696" lon="-1.61688">
        <ele>-9</ele>
        <time>2021-06-21T06:00:17.546Z</time>
      </trkpt>
      <trkpt lat="43.35688" lon="-1.617">
        <ele>-9</ele>
        <time>2021-06-21T06:00:18.515Z</time>
      </trkpt>
      <trkpt lat="43.35688" lon="-1.617">
        <ele>-9</ele>
        <time>2021-06-21T06:00:19.528Z</time>
      </trkpt>
      <trkpt lat="43.3568" lon="-1.61711">
        <ele>-9</ele>
        <time>2021-06-21T06:00:20.538Z</time>
      </trkpt>
      <trkpt lat="43.3568" lon="-1.61711">
        <ele>-9</ele>
        <time>2021-06-21T06:00:21.516Z</time>
      </trkpt>
      <trkpt lat="43.35673" lon="-1.61722">
        <ele>-10</ele>
        <time>2021-06-21T06:00:22.544Z</time>
      </trkpt>
      <trkpt lat="43.35669" lon="-1.61728">
        <ele>-10</ele>
        <time>2021-06-21T06:00:23.519Z</time>
      </trkpt>
      <trkpt lat="43.35666" lon="-1.61735">
        <ele>-10</ele>
        <time>2021-06-21T06:00:24.546Z</time>
      </trkpt>
      <trkpt lat="43.35666" lon="-1.61735">
        <ele>-10</ele>
        <time>2021-06-21T06:00:25.520Z</time>
      </trkpt>
      <trkpt lat="43.35658" lon="-1.61747">
        <ele>-10</ele>
        <time>2021-06-21T06:00:26.547Z</time>
      </trkpt>
      <trkpt lat="43.35658" lon="-1.61747">
        <ele>-10</ele>
        <time>2021-06-21T06:00:27.520Z</time>
      </trkpt>
      <trkpt lat="43.35651" lon="-1.61759">
        <ele>-11</ele>
        <time>2021-06-21T06:00:28.528Z</time>
      </trkpt>
      <trkpt lat="43.35651" lon="-1.61759">
        <ele>-11</ele>
        <time>2021-06-21T06:00:29.541Z</time>
      </trkpt>
      <trkpt lat="43.35643" lon="-1.61771">
        <ele>-11</ele>
        <time>2021-06-21T06:00:30.509Z</time>
      </trkpt>
      <trkpt lat="43.35643" lon="-1.61771">
        <ele>-11</ele>
        <time>2021-06-21T06:00:31.527Z</time>
      </trkpt>
      <trkpt lat="43.35635" lon="-1.61784">
        <ele>-9</ele>
        <time>2021-06-21T06:00:32.543Z</time>
      </trkpt>
      <trkpt lat="43.35635" lon="-1.61784">
        <ele>-9</ele>
        <time>2021-06-21T06:00:33.523Z</time>
      </trkpt>
      <trkpt lat="43.35627" lon="-1.61795">
        <ele>-8</ele>
        <time>2021-06-21T06:00:34.539Z</time>
      </trkpt>
      <trkpt lat="43.35627" lon="-1.61795">
        <ele>-8</ele>
        <time>2021-06-21T06:00:35.522Z</time>
      </trkpt>
      <trkpt lat="43.35619" lon="-1.61807">
        <ele>-7</ele>
        <time>2021-06-21T06:00:36.536Z</time>
      </trkpt>
      <trkpt lat="43.35619" lon="-1.61807">
        <ele>-7</ele>
        <time>2021-06-21T06:00:37.520Z</time>
      </trkpt>
      <trkpt lat="43.35611" lon="-1.61818">
        <ele>-6</ele>
        <time>2021-06-21T06:00:38.539Z</time>
      </trkpt>
      <trkpt lat="43.35611" lon="-1.61818">
        <ele>-6</ele>
        <time>2021-06-21T06:00:39.530Z</time>
      </trkpt>
      <trkpt lat="43.35603" lon="-1.61831">
        <ele>-5</ele>
        <time>2021-06-21T06:00:40.544Z</time>
      </trkpt>
      <trkpt lat="43.35603" lon="-1.61831">
        <ele>-5</ele>
        <time>2021-06-21T06:00:41.543Z</time>
      </trkpt>
      <trkpt lat="43.35595" lon="-1.61843">
        <ele>-4</ele>
        <time>2021-06-21T06:00:42.522Z</time>
      </trkpt>
      <trkpt lat="43.35595" lon="-1.61843">
        <ele>-4</ele>
        <time>2021-06-21T06:00:43.530Z</time>
      </trkpt>
      <trkpt lat="43.35588" lon="-1.61855">
        <ele>-2</ele>
        <time>2021-06-21T06:00:44.537Z</time>
      </trkpt>
      <trkpt lat="43.35588" lon="-1.61855">
        <ele>-2</ele>
        <time>2021-06-21T06:00:45.520Z</time>
      </trkpt>
      <trkpt lat="43.3558" lon="-1.61867">
        <ele>8.1</ele>
        <time>2021-06-21T06:00:46.529Z</time>
      </trkpt>
      <trkpt lat="43.3558" lon="-1.61867">
        <ele>8.1</ele>
        <time>2021-06-21T06:00:47.545Z</time>
      </trkpt>
      <trkpt lat="43.35573" lon="-1.6188">
        <ele>9.4</ele>
        <time>2021-06-21T06:00:48.511Z</time>
      </trkpt>
      <trkpt lat="43.35573" lon="-1.6188">
        <ele>9.4</ele>
        <time>2021-06-21T06:00:49.529Z</time>
      </trkpt>
      <trkpt lat="43.35565" lon="-1.61892">
        <ele>9.3</ele>
        <time>2021-06-21T06:00:50.541Z</time>
      </trkpt>
      <trkpt lat="43.35565" lon="-1.61892">
        <ele>9.3</ele>
        <time>2021-06-21T06:00:51.520Z</time>
      </trkpt>
      <trkpt lat="43.35557" lon="-1.61904">
        <ele>1</ele>
        <time>2021-06-21T06:00:52.533Z</time>
      </trkpt>
      <trkpt lat="43.35554" lon="-1.6191">
        <ele>2</ele>
        <time>2021-06-21T06:00:53.518Z</time>
      </trkpt>
      <trkpt lat="43.3555" lon="-1.61915">
        <ele>2</ele>
        <time>2021-06-21T06:00:54.546Z</time>
      </trkpt>
      <trkpt lat="43.3555" lon="-1.61915">
        <ele>2</ele>
        <time>2021-06-21T06:00:55.519Z</time>
      </trkpt>
      <trkpt lat="43.35542" lon="-1.61927">
        <ele>3</ele>
        <time>2021-06-21T06:00:56.527Z</time>
      </trkpt>
      <trkpt lat="43.35538" lon="-1.61933">
        <ele>4</ele>
        <time>2021-06-21T06:00:57.543Z</time>
      </trkpt>
      <trkpt lat="43.35538" lon="-1.61933">
        <ele>4</ele>
        <time>2021-06-21T06:00:58.512Z</time>
      </trkpt>
      <trkpt lat="43.35529" lon="-1.61944">
        <ele>5</ele>
        <time>2021-06-21T06:00:59.532Z</time>
      </trkpt>
      <trkpt lat="43.35526" lon="-1.6195">
        <ele>6</ele>
        <time>2021-06-21T06:01:00.512Z</time>
      </trkpt>
      <trkpt lat="43.35526" lon="-1.6195">
        <ele>6</ele>
        <time>2021-06-21T06:01:01.531Z</time>
      </trkpt>
      <trkpt lat="43.35518" lon="-1.61962">
        <ele>6</ele>
        <time>2021-06-21T06:01:02.538Z</time>
      </trkpt>
      <trkpt lat="43.35518" lon="-1.61962">
        <ele>6</ele>
        <time>2021-06-21T06:01:03.521Z</time>
      </trkpt>
      <trkpt lat="43.3551" lon="-1.61973">
        <ele>7</ele>
        <time>2021-06-21T06:01:04.528Z</time>
      </trkpt>
      <trkpt lat="43.3551" lon="-1.61973">
        <ele>7</ele>
        <time>2021-06-21T06:01:05.543Z</time>
      </trkpt>
      <trkpt lat="43.35502" lon="-1.61982">
        <ele>8</ele>
        <time>2021-06-21T06:01:06.513Z</time>
      </trkpt>
      <trkpt lat="43.35502" lon="-1.61982">
        <ele>8</ele>
        <time>2021-06-21T06:01:07.541Z</time>
      </trkpt>
      <trkpt lat="43.35493" lon="-1.61992">
        <ele>9</ele>
        <time>2021-06-21T06:01:08.524Z</time>
      </trkpt>
      <trkpt lat="43.35493" lon="-1.61992">
        <ele>9</ele>
        <time>2021-06-21T06:01:09.509Z</time>
      </trkpt>
      <trkpt lat="43.35483" lon="-1.62">
        <ele>11</ele>
        <time>2021-06-21T06:01:10.514Z</time>
      </trkpt>
      <trkpt lat="43.35483" lon="-1.62">
        <ele>11</ele>
        <time>2021-06-21T06:01:11.533Z</time>
      </trkpt>
      <trkpt lat="43.35474" lon="-1.62008">
        <ele>11</ele>
        <time>2021-06-21T06:01:12.543Z</time>
      </trkpt>
      <trkpt lat="43.35474" lon="-1.62008">
        <ele>11</ele>
        <time>2021-06-21T06:01:13.534Z</time>
      </trkpt>
      <trkpt lat="43.35464" lon="-1.62016">
        <ele>11</ele>
        <time>2021-06-21T06:01:14.540Z</time>
      </trkpt>
      <trkpt lat="43.35464" lon="-1.62016">
        <ele>11</ele>
        <time>2021-06-21T06:01:15.528Z</time>
      </trkpt>
      <trkpt lat="43.35454" lon="-1.62023">
        <ele>11</ele>
        <time>2021-06-21T06:01:16.539Z</time>
      </trkpt>
      <trkpt lat="43.35449" lon="-1.62027">
        <ele>11</ele>
        <time>2021-06-21T06:01:17.541Z</time>
      </trkpt>
      <trkpt lat="43.35444" lon="-1.62031">
        <ele>11</ele>
        <time>2021-06-21T06:01:18.541Z</time>
      </trkpt>
      <trkpt lat="43.35444" lon="-1.62031">
        <ele>11</ele>
        <time>2021-06-21T06:01:19.509Z</time>
      </trkpt>
      <trkpt lat="43.35434" lon="-1.62039">
        <ele>11</ele>
        <time>2021-06-21T06:01:20.527Z</time>
      </trkpt>
      <trkpt lat="43.35434" lon="-1.62039">
        <ele>11</ele>
        <time>2021-06-21T06:01:21.544Z</time>
      </trkpt>
      <trkpt lat="43.35424" lon="-1.62046">
        <ele>11</ele>
        <time>2021-06-21T06:01:22.532Z</time>
      </trkpt>
      <trkpt lat="43.35424" lon="-1.62046">
        <ele>11</ele>
        <time>2021-06-21T06:01:23.546Z</time>
      </trkpt>
      <trkpt lat="43.35413" lon="-1.62053">
        <ele>11</ele>
        <time>2021-06-21T06:01:24.513Z</time>
      </trkpt>
      <trkpt lat="43.35413" lon="-1.62053">
        <ele>11</ele>
        <time>2021-06-21T06:01:25.528Z</time>
      </trkpt>
      <trkpt lat="43.35403" lon="-1.62059">
        <ele>11</ele>
        <time>2021-06-21T06:01:26.538Z</time>
      </trkpt>
      <trkpt lat="43.35403" lon="-1.62059">
        <ele>11</ele>
        <time>2021-06-21T06:01:27.547Z</time>
      </trkpt>
      <trkpt lat="43.35392" lon="-1.62064">
        <ele>10</ele>
        <time>2021-06-21T06:01:28.514Z</time>
      </trkpt>
      <trkpt lat="43.35392" lon="-1.62064">
        <ele>10</ele>
        <time>2021-06-21T06:01:29.527Z</time>
      </trkpt>
      <trkpt lat="43.35381" lon="-1.62069">
        <ele>10</ele>
        <time>2021-06-21T06:01:30.534Z</time>
      </trkpt>
      <trkpt lat="43.35381" lon="-1.62069">
        <ele>10</ele>
        <time>2021-06-21T06:01:31.547Z</time>
      </trkpt>
      <trkpt lat="43.35369" lon="-1.62073">
        <ele>9</ele>
        <time>2021-06-21T06:01:32.527Z</time>
      </trkpt>
      <trkpt lat="43.35369" lon="-1.62073">
        <ele>9</ele>
        <time>2021-06-21T06:01:33.549Z</time>
      </trkpt>
      <trkpt lat="43.35358" lon="-1.62078">
        <ele>8</ele>
        <time>2021-06-21T06:01:34.515Z</time>
      </trkpt>
      <trkpt lat="43.35358" lon="-1.62078">
        <ele>8</ele>
        <time>2021-06-21T06:01:35.521Z</time>
      </trkpt>
      <trkpt lat="43.35347" lon="-1.62082">
        <ele>8</ele>
        <time>2021-06-21T06:01:36.539Z</time>
      </trkpt>
      <trkpt lat="43.35347" lon="-1.62082">
        <ele>8</ele>
        <time>2021-06-21T06:01:37.529Z</time>
      </trkpt>
      <trkpt lat="43.35335" lon="-1.62086">
        <ele>9</ele>
        <time>2021-06-21T06:01:38.516Z</time>
      </trkpt>
      <trkpt lat="43.35335" lon="-1.62086">
        <ele>9</ele>
        <time>2021-06-21T06:01:39.547Z</time>
      </trkpt>
      <trkpt lat="43.35324" lon="-1.62091">
        <ele>9</ele>
        <time>2021-06-21T06:01:40.516Z</time>
      </trkpt>
      <trkpt lat="43.35324" lon="-1.62091">
        <ele>9</ele>
        <time>2021-06-21T06:01:41.533Z</time>
      </trkpt>
      <trkpt lat="43.35313" lon="-1.62094">
        <ele>9</ele>
        <time>2021-06-21T06:01:42.545Z</time>
      </trkpt>
      <trkpt lat="43.35313" lon="-1.62094">
        <ele>9</ele>
        <time>2021-06-21T06:01:43.529Z</time>
      </trkpt>
      <trkpt lat="43.35302" lon="-1.62098">
        <ele>9</ele>
        <time>2021-06-21T06:01:44.519Z</time>
      </trkpt>
      <trkpt lat="43.35302" lon="-1.62098">
        <ele>9</ele>
        <time>2021-06-21T06:01:45.521Z</time>
      </trkpt>
      <trkpt lat="43.3529" lon="-1.62103">
        <ele>10</ele>
        <time>2021-06-21T06:01:46.531Z</time>
      </trkpt>
      <trkpt lat="43.35285" lon="-1.62105">
        <ele>10</ele>
        <time>2021-06-21T06:01:47.554Z</time>
      </trkpt>
      <trkpt lat="43.35285" lon="-1.62105">
        <ele>10</ele>
        <time>2021-06-21T06:01:48.539Z</time>
      </trkpt>
      <trkpt lat="43.35273" lon="-1.6211">
        <ele>10</ele>
        <time>2021-06-21T06:01:49.546Z</time>
      </trkpt>
      <trkpt lat="43.35273" lon="-1.6211">
        <ele>10</ele>
        <time>2021-06-21T06:01:50.524Z</time>
      </trkpt>
      <trkpt lat="43.35262" lon="-1.62114">
        <ele>10</ele>
        <time>2021-06-21T06:01:51.542Z</time>
      </trkpt>
      <trkpt lat="43.35262" lon="-1.62114">
        <ele>10</ele>
        <time>2021-06-21T06:01:52.524Z</time>
      </trkpt>
      <trkpt lat="43.35251" lon="-1.62117">
        <ele>10</ele>
        <time>2021-06-21T06:01:53.527Z</time>
      </trkpt>
      <trkpt lat="43.35245" lon="-1.62119">
        <ele>10</ele>
        <time>2021-06-21T06:01:54.529Z</time>
      </trkpt>
      <trkpt lat="43.35245" lon="-1.62119">
        <ele>10</ele>
        <time>2021-06-21T06:01:55.538Z</time>
      </trkpt>
      <trkpt lat="43.35233" lon="-1.62125">
        <ele>10</ele>
        <time>2021-06-21T06:01:56.549Z</time>
      </trkpt>
      <trkpt lat="43.35233" lon="-1.62125">
        <ele>10</ele>
        <time>2021-06-21T06:01:57.521Z</time>
      </trkpt>
      <trkpt lat="43.35223" lon="-1.6213">
        <ele>11</ele>
        <time>2021-06-21T06:01:58.512Z</time>
      </trkpt>
      <trkpt lat="43.35223" lon="-1.6213">
        <ele>11</ele>
        <time>2021-06-21T06:01:59.521Z</time>
      </trkpt>
      <trkpt lat="43.35212" lon="-1.62139">
        <ele>10</ele>
        <time>2021-06-21T06:02:00.530Z</time>
      </trkpt>
      <trkpt lat="43.35212" lon="-1.62139">
        <ele>10</ele>
        <time>2021-06-21T06:02:01.546Z</time>
      </trkpt>
      <trkpt lat="43.35203" lon="-1.62147">
        <ele>10</ele>
        <time>2021-06-21T06:02:02.512Z</time>
      </trkpt>
      <trkpt lat="43.35199" lon="-1.62153">
        <ele>10</ele>
        <time>2021-06-21T06:02:03.528Z</time>
      </trkpt>
      <trkpt lat="43.35199" lon="-1.62153">
        <ele>10</ele>
        <time>2021-06-21T06:02:04.545Z</time>
      </trkpt>
      <trkpt lat="43.35191" lon="-1.62164">
        <ele>9</ele>
        <time>2021-06-21T06:02:05.515Z</time>
      </trkpt>
      <trkpt lat="43.35188" lon="-1.6217">
        <ele>8</ele>
        <time>2021-06-21T06:02:06.533Z</time>
      </trkpt>
      <trkpt lat="43.35188" lon="-1.6217">
        <ele>8</ele>
        <time>2021-06-21T06:02:07.524Z</time>
      </trkpt>
      <trkpt lat="43.35181" lon="-1.62182">
        <ele>8</ele>
        <time>2021-06-21T06:02:08.538Z</time>
      </trkpt>
      <trkpt lat="43.35181" lon="-1.62182">
        <ele>8</ele>
        <time>2021-06-21T06:02:09.547Z</time>
      </trkpt>
      <trkpt lat="43.35175" lon="-1.62195">
        <ele>8</ele>
        <time>2021-06-21T06:02:10.521Z</time>
      </trkpt>
      <trkpt lat="43.35175" lon="-1.62195">
        <ele>8</ele>
        <time>2021-06-21T06:02:11.534Z</time>
      </trkpt>
      <trkpt lat="43.35169" lon="-1.62208">
        <ele>8</ele>
        <time>2021-06-21T06:02:12.552Z</time>
      </trkpt>
      <trkpt lat="43.35169" lon="-1.62208">
        <ele>8</ele>
        <time>2021-06-21T06:02:13.536Z</time>
      </trkpt>
      <trkpt lat="43.35163" lon="-1.6222">
        <ele>8</ele>
        <time>2021-06-21T06:02:14.542Z</time>
      </trkpt>
      <trkpt lat="43.35163" lon="-1.6222">
        <ele>8</ele>
        <time>2021-06-21T06:02:15.513Z</time>
      </trkpt>
      <trkpt lat="43.35157" lon="-1.62232">
        <ele>8</ele>
        <time>2021-06-21T06:02:16.523Z</time>
      </trkpt>
      <trkpt lat="43.35154" lon="-1.62238">
        <ele>8</ele>
        <time>2021-06-21T06:02:17.532Z</time>
      </trkpt>
      <trkpt lat="43.35152" lon="-1.62244">
        <ele>8</ele>
        <time>2021-06-21T06:02:18.524Z</time>
      </trkpt>
      <trkpt lat="43.35152" lon="-1.62244">
        <ele>8</ele>
        <time>2021-06-21T06:02:19.536Z</time>
      </trkpt>
      <trkpt lat="43.35146" lon="-1.62256">
        <ele>7</ele>
        <time>2021-06-21T06:02:20.543Z</time>
      </trkpt>
      <trkpt lat="43.35146" lon="-1.62256">
        <ele>7</ele>
        <time>2021-06-21T06:02:21.511Z</time>
      </trkpt>
      <trkpt lat="43.35141" lon="-1.62268">
        <ele>7</ele>
        <time>2021-06-21T06:02:22.531Z</time>
      </trkpt>
      <trkpt lat="43.35141" lon="-1.62268">
        <ele>7</ele>
        <time>2021-06-21T06:02:23.513Z</time>
      </trkpt>
      <trkpt lat="43.35135" lon="-1.62279">
        <ele>7</ele>
        <time>2021-06-21T06:02:24.523Z</time>
      </trkpt>
      <trkpt lat="43.35135" lon="-1.62279">
        <ele>7</ele>
        <time>2021-06-21T06:02:25.542Z</time>
      </trkpt>
      <trkpt lat="43.35129" lon="-1.62291">
        <ele>7</ele>
        <time>2021-06-21T06:02:26.510Z</time>
      </trkpt>
      <trkpt lat="43.35129" lon="-1.62291">
        <ele>7</ele>
        <time>2021-06-21T06:02:27.528Z</time>
      </trkpt>
      <trkpt lat="43.35123" lon="-1.62303">
        <ele>8</ele>
        <time>2021-06-21T06:02:28.540Z</time>
      </trkpt>
      <trkpt lat="43.35123" lon="-1.62303">
        <ele>8</ele>
        <time>2021-06-21T06:02:29.518Z</time>
      </trkpt>
      <trkpt lat="43.35117" lon="-1.62315">
        <ele>7</ele>
        <time>2021-06-21T06:02:30.525Z</time>
      </trkpt>
      <trkpt lat="43.35117" lon="-1.62315">
        <ele>7</ele>
        <time>2021-06-21T06:02:31.541Z</time>
      </trkpt>
      <trkpt lat="43.35112" lon="-1.62328">
        <ele>7</ele>
        <time>2021-06-21T06:02:32.514Z</time>
      </trkpt>
      <trkpt lat="43.35111" lon="-1.62335">
        <ele>7</ele>
        <time>2021-06-21T06:02:33.550Z</time>
      </trkpt>
      <trkpt lat="43.35111" lon="-1.62335">
        <ele>7</ele>
        <time>2021-06-21T06:02:34.528Z</time>
      </trkpt>
      <trkpt lat="43.35108" lon="-1.62348">
        <ele>7</ele>
        <time>2021-06-21T06:02:35.545Z</time>
      </trkpt>
      <trkpt lat="43.35108" lon="-1.62355">
        <ele>7</ele>
        <time>2021-06-21T06:02:36.528Z</time>
      </trkpt>
      <trkpt lat="43.35108" lon="-1.62355">
        <ele>7</ele>
        <time>2021-06-21T06:02:37.539Z</time>
      </trkpt>
      <trkpt lat="43.35106" lon="-1.62369">
        <ele>6</ele>
        <time>2021-06-21T06:02:38.548Z</time>
      </trkpt>
      <trkpt lat="43.35105" lon="-1.62375">
        <ele>6</ele>
        <time>2021-06-21T06:02:39.529Z</time>
      </trkpt>
      <trkpt lat="43.35105" lon="-1.62375">
        <ele>6</ele>
        <time>2021-06-21T06:02:40.540Z</time>
      </trkpt>
      <trkpt lat="43.35104" lon="-1.62389">
        <ele>6</ele>
        <time>2021-06-21T06:02:41.551Z</time>
      </trkpt>
      <trkpt lat="43.35104" lon="-1.62396">
        <ele>6</ele>
        <time>2021-06-21T06:02:42.554Z</time>
      </trkpt>
      <trkpt lat="43.35104" lon="-1.62396">
        <ele>6</ele>
        <time>2021-06-21T06:02:43.524Z</time>
      </trkpt>
      <trkpt lat="43.35103" lon="-1.6241">
        <ele>6</ele>
        <time>2021-06-21T06:02:44.537Z</time>
      </trkpt>
      <trkpt lat="43.35103" lon="-1.6241">
        <ele>6</ele>
        <time>2021-06-21T06:02:45.548Z</time>
      </trkpt>
      <trkpt lat="43.35102" lon="-1.62424">
        <ele>5</ele>
        <time>2021-06-21T06:02:46.517Z</time>
      </trkpt>
      <trkpt lat="43.35102" lon="-1.62424">
        <ele>5</ele>
        <time>2021-06-21T06:02:47.537Z</time>
      </trkpt>
      <trkpt lat="43.35103" lon="-1.62437">
        <ele>5</ele>
        <time>2021-06-21T06:02:48.544Z</time>
      </trkpt>
      <trkpt lat="43.35103" lon="-1.62437">
        <ele>5</ele>
        <time>2021-06-21T06:02:49.525Z</time>
      </trkpt>
      <trkpt lat="43.35104" lon="-1.6245">
        <ele>5</ele>
        <time>2021-06-21T06:02:50.535Z</time>
      </trkpt>
      <trkpt lat="43.35104" lon="-1.6245">
        <ele>5</ele>
        <time>2021-06-21T06:02:51.510Z</time>
      </trkpt>
      <trkpt lat="43.35104" lon="-1.62463">
        <ele>5</ele>
        <time>2021-06-21T06:02:52.684Z</time>
      </trkpt>
      <trkpt lat="43.35104" lon="-1.62463">
        <ele>5</ele>
        <time>2021-06-21T06:02:53.541Z</time>
      </trkpt>
      <trkpt lat="43.35106" lon="-1.62476">
        <ele>5</ele>
        <time>2021-06-21T06:02:54.548Z</time>
      </trkpt>
      <trkpt lat="43.35106" lon="-1.62476">
        <ele>5</ele>
        <time>2021-06-21T06:02:55.523Z</time>
      </trkpt>
      <trkpt lat="43.35108" lon="-1.62487">
        <ele>5</ele>
        <time>2021-06-21T06:02:56.530Z</time>
      </trkpt>
      <trkpt lat="43.35108" lon="-1.62487">
        <ele>5</ele>
        <time>2021-06-21T06:02:57.543Z</time>
      </trkpt>
      <trkpt lat="43.35109" lon="-1.62496">
        <ele>5</ele>
        <time>2021-06-21T06:02:58.513Z</time>
      </trkpt>
      <trkpt lat="43.35109" lon="-1.62496">
        <ele>5</ele>
        <time>2021-06-21T06:02:59.527Z</time>
      </trkpt>
      <trkpt lat="43.3511" lon="-1.62501">
        <ele>5</ele>
        <time>2021-06-21T06:03:00.550Z</time>
      </trkpt>
      <trkpt lat="43.3511" lon="-1.62501">
        <ele>5</ele>
        <time>2021-06-21T06:03:01.516Z</time>
      </trkpt>
      <trkpt lat="43.35111" lon="-1.62502">
        <ele>6</ele>
        <time>2021-06-21T06:03:02.523Z</time>
      </trkpt>
      <trkpt lat="43.35111" lon="-1.62502">
        <ele>6</ele>
        <time>2021-06-21T06:03:03.510Z</time>
      </trkpt>
      <trkpt lat="43.35111" lon="-1.62502">
        <ele>6</ele>
        <time>2021-06-21T06:03:04.516Z</time>
      </trkpt>
      <trkpt lat="43.35111" lon="-1.62502">
        <ele>6</ele>
        <time>2021-06-21T06:03:05.532Z</time>
      </trkpt>
      <trkpt lat="43.35111" lon="-1.62502">
        <ele>6</ele>
        <time>2021-06-21T06:03:06.538Z</time>
      </trkpt>
      <trkpt lat="43.35111" lon="-1.62502">
        <ele>6</ele>
        <time>2021-06-21T06:03:07.510Z</time>
      </trkpt>
      <trkpt lat="43.35111" lon="-1.62502">
        <ele>6</ele>
        <time>2021-06-21T06:03:08.535Z</time>
      </trkpt>
      <trkpt lat="43.35111" lon="-1.62502">
        <ele>6</ele>
        <time>2021-06-21T06:03:09.510Z</time>
      </trkpt>
      <trkpt lat="43.35111" lon="-1.62502">
        <ele>6</ele>
        <time>2021-06-21T06:03:10.535Z</time>
      </trkpt>
      <trkpt lat="43.35111" lon="-1.62502">
        <ele>6</ele>
        <time>2021-06-21T06:03:11.512Z</time>
      </trkpt>
      <trkpt lat="43.35111" lon="-1.62502">
        <ele>6</ele>
        <time>2021-06-21T06:03:12.536Z</time>
      </trkpt>
      <trkpt lat="43.35111" lon="-1.62502">
        <ele>6</ele>
        <time>2021-06-21T06:03:13.530Z</time>
      </trkpt>
      <trkpt lat="43.35111" lon="-1.62502">
        <ele>6</ele>
        <time>2021-06-21T06:03:14.546Z</time>
      </trkpt>
      <trkpt lat="43.35111" lon="-1.62502">
        <ele>6</ele>
        <time>2021-06-21T06:03:15.530Z</time>
      </trkpt>
      <trkpt lat="43.35111" lon="-1.62502">
        <ele>6</ele>
        <time>2021-06-21T06:03:16.546Z</time>
      </trkpt>
      <trkpt lat="43.35111" lon="-1.62502">
        <ele>6</ele>
        <time>2021-06-21T06:03:17.533Z</time>
      </trkpt>
      <trkpt lat="43.35111" lon="-1.62502">
        <ele>6</ele>
        <time>2021-06-21T06:03:18.510Z</time>
      </trkpt>
      <trkpt lat="43.35111" lon="-1.62502">
        <ele>6</ele>
        <time>2021-06-21T06:03:19.531Z</time>
      </trkpt>
      <trkpt lat="43.35111" lon="-1.62502">
        <ele>6</ele>
        <time>2021-06-21T06:03:20.547Z</time>
      </trkpt>
      <trkpt lat="43.35111" lon="-1.62502">
        <ele>6</ele>
        <time>2021-06-21T06:03:21.530Z</time>
      </trkpt>
      <trkpt lat="43.35111" lon="-1.62502">
        <ele>6</ele>
        <time>2021-06-21T06:03:22.536Z</time>
      </trkpt>
      <trkpt lat="43.35111" lon="-1.62502">
        <ele>6</ele>
        <time>2021-06-21T06:03:23.535Z</time>
      </trkpt>
      <trkpt lat="43.35111" lon="-1.62502">
        <ele>6</ele>
        <time>2021-06-21T06:03:24.511Z</time>
      </trkpt>
      <trkpt lat="43.35111" lon="-1.62502">
        <ele>6</ele>
        <time>2021-06-21T06:03:25.520Z</time>
      </trkpt>
      <trkpt lat="43.35111" lon="-1.62502">
        <ele>6</ele>
        <time>2021-06-21T06:03:26.537Z</time>
      </trkpt>
      <trkpt lat="43.35111" lon="-1.62502">
        <ele>6</ele>
        <time>2021-06-21T06:03:27.535Z</time>
      </trkpt>
      <trkpt lat="43.35111" lon="-1.62502">
        <ele>6</ele>
        <time>2021-06-21T06:03:28.530Z</time>
      </trkpt>
      <trkpt lat="43.35111" lon="-1.62502">
        <ele>6</ele>
        <time>2021-06-21T06:03:29.548Z</time>
      </trkpt>
      <trkpt lat="43.35111" lon="-1.62502">
        <ele>6</ele>
        <time>2021-06-21T06:03:30.537Z</time>
      </trkpt>
      <trkpt lat="43.35111" lon="-1.62502">
        <ele>6</ele>
        <time>2021-06-21T06:03:31.516Z</time>
      </trkpt>
      <trkpt lat="43.35111" lon="-1.62502">
        <ele>6</ele>
        <time>2021-06-21T06:03:32.540Z</time>
      </trkpt>
      <trkpt lat="43.35111" lon="-1.62502">
        <ele>6</ele>
        <time>2021-06-21T06:03:33.534Z</time>
      </trkpt>
      <trkpt lat="43.35111" lon="-1.62502">
        <ele>6</ele>
        <time>2021-06-21T06:03:34.510Z</time>
      </trkpt>
      <trkpt lat="43.35111" lon="-1.62502">
        <ele>6</ele>
        <time>2021-06-21T06:03:35.530Z</time>
      </trkpt>
      <trkpt lat="43.35111" lon="-1.62502">
        <ele>6</ele>
        <time>2021-06-21T06:03:36.546Z</time>
      </trkpt>
      <trkpt lat="43.35111" lon="-1.62502">
        <ele>6</ele>
        <time>2021-06-21T06:03:37.531Z</time>
      </trkpt>
      <trkpt lat="43.35111" lon="-1.62502">
        <ele>6</ele>
        <time>2021-06-21T06:03:38.547Z</time>
      </trkpt>
      <trkpt lat="43.35111" lon="-1.62502">
        <ele>6</ele>
        <time>2021-06-21T06:03:39.534Z</time>
      </trkpt>
      <trkpt lat="43.35111" lon="-1.62502">
        <ele>6</ele>
        <time>2021-06-21T06:03:40.509Z</time>
      </trkpt>
      <trkpt lat="43.35111" lon="-1.62502">
        <ele>6</ele>
        <time>2021-06-21T06:03:41.531Z</time>
      </trkpt>
      <trkpt lat="43.35111" lon="-1.62502">
        <ele>6</ele>
        <time>2021-06-21T06:03:42.561Z</time>
      </trkpt>
      <trkpt lat="43.35111" lon="-1.62502">
        <ele>6</ele>
        <time>2021-06-21T06:03:43.546Z</time>
      </trkpt>
      <trkpt lat="43.35111" lon="-1.62502">
        <ele>6</ele>
        <time>2021-06-21T06:03:44.536Z</time>
      </trkpt>
      <trkpt lat="43.35111" lon="-1.62502">
        <ele>6</ele>
        <time>2021-06-21T06:03:45.515Z</time>
      </trkpt>
      <trkpt lat="43.35111" lon="-1.62502">
        <ele>6</ele>
        <time>2021-06-21T06:03:46.536Z</time>
      </trkpt>
      <trkpt lat="43.35111" lon="-1.62502">
        <ele>6</ele>
        <time>2021-06-21T06:03:47.512Z</time>
      </trkpt>
      <trkpt lat="43.35111" lon="-1.62502">
        <ele>6</ele>
        <time>2021-06-21T06:03:48.537Z</time>
      </trkpt>
      <trkpt lat="43.35111" lon="-1.62502">
        <ele>6</ele>
        <time>2021-06-21T06:03:49.513Z</time>
      </trkpt>
      <trkpt lat="43.35111" lon="-1.62502">
        <ele>6</ele>
        <time>2021-06-21T06:03:50.536Z</time>
      </trkpt>
      <trkpt lat="43.35111" lon="-1.62502">
        <ele>6</ele>
        <time>2021-06-21T06:03:51.516Z</time>
      </trkpt>
      <trkpt lat="43.35111" lon="-1.62502">
        <ele>6</ele>
        <time>2021-06-21T06:03:52.531Z</time>
      </trkpt>
      <trkpt lat="43.35111" lon="-1.62502">
        <ele>6</ele>
        <time>2021-06-21T06:03:53.547Z</time>
      </trkpt>
      <trkpt lat="43.35111" lon="-1.62502">
        <ele>6</ele>
        <time>2021-06-21T06:03:54.537Z</time>
      </trkpt>
      <trkpt lat="43.35111" lon="-1.62502">
        <ele>6</ele>
        <time>2021-06-21T06:03:55.513Z</time>
      </trkpt>
      <trkpt lat="43.35111" lon="-1.62502">
        <ele>6</ele>
        <time>2021-06-21T06:03:56.531Z</time>
      </trkpt>
      <trkpt lat="43.35111" lon="-1.62502">
        <ele>6</ele>
        <time>2021-06-21T06:03:57.547Z</time>
      </trkpt>
      <trkpt lat="43.35111" lon="-1.62502">
        <ele>6</ele>
        <time>2021-06-21T06:03:58.531Z</time>
      </trkpt>
      <trkpt lat="43.35111" lon="-1.62502">
        <ele>6</ele>
        <time>2021-06-21T06:03:59.547Z</time>
      </trkpt>
      <trkpt lat="43.35111" lon="-1.62502">
        <ele>6</ele>
        <time>2021-06-21T06:04:00.543Z</time>
      </trkpt>
      <trkpt lat="43.35111" lon="-1.62502">
        <ele>6</ele>
        <time>2021-06-21T06:04:01.536Z</time>
      </trkpt>
      <trkpt lat="43.35111" lon="-1.62502">
        <ele>6</ele>
        <time>2021-06-21T06:04:02.517Z</time>
      </trkpt>
      <trkpt lat="43.35111" lon="-1.62502">
        <ele>6</ele>
        <time>2021-06-21T06:04:03.533Z</time>
      </trkpt>
      <trkpt lat="43.35111" lon="-1.62502">
        <ele>6</ele>
        <time>2021-06-21T06:04:04.509Z</time>
      </trkpt>
      <trkpt lat="43.35111" lon="-1.62502">
        <ele>6</ele>
        <time>2021-06-21T06:04:05.531Z</time>
      </trkpt>
      <trkpt lat="43.35111" lon="-1.62502">
        <ele>6</ele>
        <time>2021-06-21T06:04:06.547Z</time>
      </trkpt>
      <trkpt lat="43.35111" lon="-1.62502">
        <ele>6</ele>
        <time>2021-06-21T06:04:07.530Z</time>
      </trkpt>
      <trkpt lat="43.35111" lon="-1.62502">
        <ele>6</ele>
        <time>2021-06-21T06:04:08.512Z</time>
      </trkpt>
      <trkpt lat="43.35111" lon="-1.62502">
        <ele>6</ele>
        <time>2021-06-21T06:04:09.531Z</time>
      </trkpt>
      <trkpt lat="43.35111" lon="-1.62502">
        <ele>6</ele>
        <time>2021-06-21T06:04:10.547Z</time>
      </trkpt>
      <trkpt lat="43.35111" lon="-1.62502">
        <ele>6</ele>
        <time>2021-06-21T06:04:11.535Z</time>
      </trkpt>
      <trkpt lat="43.35111" lon="-1.62502">
        <ele>6</ele>
        <time>2021-06-21T06:04:12.511Z</time>
      </trkpt>
      <trkpt lat="43.35111" lon="-1.62502">
        <ele>6</ele>
        <time>2021-06-21T06:04:13.547Z</time>
      </trkpt>
      <trkpt lat="43.35112" lon="-1.62508">
        <ele>2</ele>
        <time>2021-06-21T06:04:14.536Z</time>
      </trkpt>
      <trkpt lat="43.35112" lon="-1.62508">
        <ele>2</ele>
        <time>2021-06-21T06:04:15.512Z</time>
      </trkpt>
      <trkpt lat="43.35112" lon="-1.62516">
        <ele>2</ele>
        <time>2021-06-21T06:04:16.536Z</time>
      </trkpt>
      <trkpt lat="43.35112" lon="-1.62516">
        <ele>2</ele>
        <time>2021-06-21T06:04:17.512Z</time>
      </trkpt>
      <trkpt lat="43.3511" lon="-1.62524">
        <ele>2</ele>
        <time>2021-06-21T06:04:18.541Z</time>
      </trkpt>
      <trkpt lat="43.3511" lon="-1.62524">
        <ele>2</ele>
        <time>2021-06-21T06:04:19.515Z</time>
      </trkpt>
      <trkpt lat="43.35104" lon="-1.6253">
        <ele>2</ele>
        <time>2021-06-21T06:04:20.537Z</time>
      </trkpt>
      <trkpt lat="43.35104" lon="-1.6253">
        <ele>2</ele>
        <time>2021-06-21T06:04:21.542Z</time>
      </trkpt>
      <trkpt lat="43.35098" lon="-1.62533">
        <ele>3</ele>
        <time>2021-06-21T06:04:22.526Z</time>
      </trkpt>
      <trkpt lat="43.35098" lon="-1.62533">
        <ele>3</ele>
        <time>2021-06-21T06:04:23.544Z</time>
      </trkpt>
      <trkpt lat="43.3509" lon="-1.62534">
        <ele>3</ele>
        <time>2021-06-21T06:04:24.512Z</time>
      </trkpt>
      <trkpt lat="43.3509" lon="-1.62534">
        <ele>3</ele>
        <time>2021-06-21T06:04:25.537Z</time>
      </trkpt>
      <trkpt lat="43.35081" lon="-1.62536">
        <ele>3</ele>
        <time>2021-06-21T06:04:26.545Z</time>
      </trkpt>
      <trkpt lat="43.35081" lon="-1.62536">
        <ele>3</ele>
        <time>2021-06-21T06:04:27.517Z</time>
      </trkpt>
      <trkpt lat="43.35072" lon="-1.62537">
        <ele>3</ele>
        <time>2021-06-21T06:04:28.530Z</time>
      </trkpt>
      <trkpt lat="43.35072" lon="-1.62537">
        <ele>3</ele>
        <time>2021-06-21T06:04:29.537Z</time>
      </trkpt>
      <trkpt lat="43.35061" lon="-1.62538">
        <ele>2</ele>
        <time>2021-06-21T06:04:30.550Z</time>
      </trkpt>
      <trkpt lat="43.35061" lon="-1.62538">
        <ele>2</ele>
        <time>2021-06-21T06:04:31.528Z</time>
      </trkpt>
      <trkpt lat="43.35051" lon="-1.62539">
        <ele>2</ele>
        <time>2021-06-21T06:04:32.538Z</time>
      </trkpt>
      <trkpt lat="43.35046" lon="-1.62539">
        <ele>2</ele>
        <time>2021-06-21T06:04:33.513Z</time>
      </trkpt>
      <trkpt lat="43.35046" lon="-1.62539">
        <ele>2</ele>
        <time>2021-06-21T06:04:34.527Z</time>
      </trkpt>
      <trkpt lat="43.35036" lon="-1.62538">
        <ele>1</ele>
        <time>2021-06-21T06:04:35.543Z</time>
      </trkpt>
      <trkpt lat="43.35036" lon="-1.62538">
        <ele>1</ele>
        <time>2021-06-21T06:04:36.528Z</time>
      </trkpt>
      <trkpt lat="43.35025" lon="-1.62537">
        <ele>1</ele>
        <time>2021-06-21T06:04:37.539Z</time>
      </trkpt>
      <trkpt lat="43.35025" lon="-1.62537">
        <ele>1</ele>
        <time>2021-06-21T06:04:38.516Z</time>
      </trkpt>
      <trkpt lat="43.35015" lon="-1.62535">
        <ele>3</ele>
        <time>2021-06-21T06:04:39.549Z</time>
      </trkpt>
      <trkpt lat="43.35015" lon="-1.62535">
        <ele>3</ele>
        <time>2021-06-21T06:04:40.521Z</time>
      </trkpt>
      <trkpt lat="43.35004" lon="-1.62533">
        <ele>-1</ele>
        <time>2021-06-21T06:04:41.529Z</time>
      </trkpt>
      <trkpt lat="43.35" lon="-1.62533">
        <ele>-1</ele>
        <time>2021-06-21T06:04:42.576Z</time>
      </trkpt>
      <trkpt lat="43.35" lon="-1.62533">
        <ele>-1</ele>
        <time>2021-06-21T06:04:43.525Z</time>
      </trkpt>
      <trkpt lat="43.3499" lon="-1.62531">
        <ele>-1</ele>
        <time>2021-06-21T06:04:44.532Z</time>
      </trkpt>
      <trkpt lat="43.3499" lon="-1.62531">
        <ele>-1</ele>
        <time>2021-06-21T06:04:45.540Z</time>
      </trkpt>
      <trkpt lat="43.3498" lon="-1.6253">
        <ele>-2</ele>
        <time>2021-06-21T06:04:46.510Z</time>
      </trkpt>
      <trkpt lat="43.3498" lon="-1.6253">
        <ele>-2</ele>
        <time>2021-06-21T06:04:47.532Z</time>
      </trkpt>
      <trkpt lat="43.34969" lon="-1.62527">
        <ele>-2</ele>
        <time>2021-06-21T06:04:48.550Z</time>
      </trkpt>
      <trkpt lat="43.34969" lon="-1.62527">
        <ele>-2</ele>
        <time>2021-06-21T06:04:49.541Z</time>
      </trkpt>
      <trkpt lat="43.34958" lon="-1.62525">
        <ele>-2</ele>
        <time>2021-06-21T06:04:50.550Z</time>
      </trkpt>
      <trkpt lat="43.34958" lon="-1.62525">
        <ele>-2</ele>
        <time>2021-06-21T06:04:51.529Z</time>
      </trkpt>
      <trkpt lat="43.34948" lon="-1.62523">
        <ele>-3</ele>
        <time>2021-06-21T06:04:52.540Z</time>
      </trkpt>
      <trkpt lat="43.34948" lon="-1.62523">
        <ele>-3</ele>
        <time>2021-06-21T06:04:53.516Z</time>
      </trkpt>
      <trkpt lat="43.34941" lon="-1.62521">
        <ele>-3</ele>
        <time>2021-06-21T06:04:54.532Z</time>
      </trkpt>
      <trkpt lat="43.34941" lon="-1.62521">
        <ele>-3</ele>
        <time>2021-06-21T06:04:55.513Z</time>
      </trkpt>
      <trkpt lat="43.34934" lon="-1.6252">
        <ele>-3</ele>
        <time>2021-06-21T06:04:56.519Z</time>
      </trkpt>
      <trkpt lat="43.34931" lon="-1.62519">
        <ele>-3</ele>
        <time>2021-06-21T06:04:57.533Z</time>
      </trkpt>
      <trkpt lat="43.34931" lon="-1.62519">
        <ele>-3</ele>
        <time>2021-06-21T06:04:58.543Z</time>
      </trkpt>
      <trkpt lat="43.34924" lon="-1.62518">
        <ele>-4</ele>
        <time>2021-06-21T06:04:59.509Z</time>
      </trkpt>
      <trkpt lat="43.34924" lon="-1.62518">
        <ele>-4</ele>
        <time>2021-06-21T06:05:00.520Z</time>
      </trkpt>
      <trkpt lat="43.34918" lon="-1.6252">
        <ele>-4</ele>
        <time>2021-06-21T06:05:01.523Z</time>
      </trkpt>
      <trkpt lat="43.34918" lon="-1.6252">
        <ele>-4</ele>
        <time>2021-06-21T06:05:02.529Z</time>
      </trkpt>
      <trkpt lat="43.34912" lon="-1.6252">
        <ele>-3</ele>
        <time>2021-06-21T06:05:03.539Z</time>
      </trkpt>
      <trkpt lat="43.34912" lon="-1.6252">
        <ele>-3</ele>
        <time>2021-06-21T06:05:04.520Z</time>
      </trkpt>
      <trkpt lat="43.34906" lon="-1.62516">
        <ele>-3</ele>
        <time>2021-06-21T06:05:05.532Z</time>
      </trkpt>
      <trkpt lat="43.34904" lon="-1.62512">
        <ele>-3</ele>
        <time>2021-06-21T06:05:06.544Z</time>
      </trkpt>
      <trkpt lat="43.34904" lon="-1.62512">
        <ele>-3</ele>
        <time>2021-06-21T06:05:07.517Z</time>
      </trkpt>
      <trkpt lat="43.349" lon="-1.62504">
        <ele>-4</ele>
        <time>2021-06-21T06:05:08.524Z</time>
      </trkpt>
      <trkpt lat="43.349" lon="-1.62504">
        <ele>-4</ele>
        <time>2021-06-21T06:05:09.510Z</time>
      </trkpt>
      <trkpt lat="43.34897" lon="-1.62494">
        <ele>-4</ele>
        <time>2021-06-21T06:05:10.521Z</time>
      </trkpt>
      <trkpt lat="43.34897" lon="-1.62494">
        <ele>-4</ele>
        <time>2021-06-21T06:05:11.536Z</time>
      </trkpt>
      <trkpt lat="43.34893" lon="-1.62484">
        <ele>-5</ele>
        <time>2021-06-21T06:05:12.526Z</time>
      </trkpt>
      <trkpt lat="43.34893" lon="-1.62484">
        <ele>-5</ele>
        <time>2021-06-21T06:05:13.525Z</time>
      </trkpt>
      <trkpt lat="43.3489" lon="-1.62474">
        <ele>-5</ele>
        <time>2021-06-21T06:05:14.540Z</time>
      </trkpt>
      <trkpt lat="43.3489" lon="-1.62474">
        <ele>-5</ele>
        <time>2021-06-21T06:05:15.517Z</time>
      </trkpt>
      <trkpt lat="43.34887" lon="-1.62464">
        <ele>-5</ele>
        <time>2021-06-21T06:05:16.531Z</time>
      </trkpt>
      <trkpt lat="43.34887" lon="-1.62464">
        <ele>-5</ele>
        <time>2021-06-21T06:05:17.538Z</time>
      </trkpt>
      <trkpt lat="43.34884" lon="-1.62454">
        <ele>-5</ele>
        <time>2021-06-21T06:05:18.536Z</time>
      </trkpt>
      <trkpt lat="43.34884" lon="-1.62454">
        <ele>-5</ele>
        <time>2021-06-21T06:05:19.536Z</time>
      </trkpt>
      <trkpt lat="43.3488" lon="-1.62445">
        <ele>-4</ele>
        <time>2021-06-21T06:05:20.549Z</time>
      </trkpt>
      <trkpt lat="43.3488" lon="-1.62445">
        <ele>-4</ele>
        <time>2021-06-21T06:05:21.529Z</time>
      </trkpt>
      <trkpt lat="43.34874" lon="-1.62435">
        <ele>-3</ele>
        <time>2021-06-21T06:05:22.548Z</time>
      </trkpt>
      <trkpt lat="43.34874" lon="-1.62435">
        <ele>-3</ele>
        <time>2021-06-21T06:05:23.532Z</time>
      </trkpt>
      <trkpt lat="43.34867" lon="-1.62426">
        <ele>-2</ele>
        <time>2021-06-21T06:05:24.540Z</time>
      </trkpt>
      <trkpt lat="43.34867" lon="-1.62426">
        <ele>-2</ele>
        <time>2021-06-21T06:05:25.536Z</time>
      </trkpt>
      <trkpt lat="43.34861" lon="-1.62416">
        <ele>-2</ele>
        <time>2021-06-21T06:05:26.548Z</time>
      </trkpt>
      <trkpt lat="43.34858" lon="-1.62411">
        <ele>-2</ele>
        <time>2021-06-21T06:05:27.525Z</time>
      </trkpt>
      <trkpt lat="43.34858" lon="-1.62411">
        <ele>-2</ele>
        <time>2021-06-21T06:05:28.525Z</time>
      </trkpt>
      <trkpt lat="43.34852" lon="-1.62402">
        <ele>-2</ele>
        <time>2021-06-21T06:05:29.533Z</time>
      </trkpt>
      <trkpt lat="43.34849" lon="-1.62398">
        <ele>-1</ele>
        <time>2021-06-21T06:05:30.547Z</time>
      </trkpt>
      <trkpt lat="43.34849" lon="-1.62398">
        <ele>-1</ele>
        <time>2021-06-21T06:05:31.515Z</time>
      </trkpt>
      <trkpt lat="43.34843" lon="-1.6239">
        <ele>-2</ele>
        <time>2021-06-21T06:05:32.523Z</time>
      </trkpt>
      <trkpt lat="43.34843" lon="-1.6239">
        <ele>-2</ele>
        <time>2021-06-21T06:05:33.512Z</time>
      </trkpt>
      <trkpt lat="43.34837" lon="-1.62383">
        <ele>-2</ele>
        <time>2021-06-21T06:05:34.522Z</time>
      </trkpt>
      <trkpt lat="43.34834" lon="-1.6238">
        <ele>-2</ele>
        <time>2021-06-21T06:05:35.547Z</time>
      </trkpt>
      <trkpt lat="43.34831" lon="-1.62376">
        <ele>-2</ele>
        <time>2021-06-21T06:05:36.521Z</time>
      </trkpt>
      <trkpt lat="43.34831" lon="-1.62376">
        <ele>-2</ele>
        <time>2021-06-21T06:05:37.544Z</time>
      </trkpt>
      <trkpt lat="43.34825" lon="-1.62369">
        <ele>-2</ele>
        <time>2021-06-21T06:05:38.511Z</time>
      </trkpt>
      <trkpt lat="43.34825" lon="-1.62369">
        <ele>-2</ele>
        <time>2021-06-21T06:05:39.529Z</time>
      </trkpt>
      <trkpt lat="43.34819" lon="-1.62361">
        <ele>-2</ele>
        <time>2021-06-21T06:05:40.536Z</time>
      </trkpt>
      <trkpt lat="43.34819" lon="-1.62361">
        <ele>-2</ele>
        <time>2021-06-21T06:05:41.510Z</time>
      </trkpt>
      <trkpt lat="43.34814" lon="-1.62353">
        <ele>-1</ele>
        <time>2021-06-21T06:05:42.521Z</time>
      </trkpt>
      <trkpt lat="43.34814" lon="-1.62353">
        <ele>-1</ele>
        <time>2021-06-21T06:05:43.521Z</time>
      </trkpt>
      <trkpt lat="43.34811" lon="-1.62344">
        <ele>-1</ele>
        <time>2021-06-21T06:05:44.530Z</time>
      </trkpt>
      <trkpt lat="43.34811" lon="-1.62344">
        <ele>-1</ele>
        <time>2021-06-21T06:05:45.541Z</time>
      </trkpt>
      <trkpt lat="43.34809" lon="-1.62336">
        <ele>8</ele>
        <time>2021-06-21T06:05:46.515Z</time>
      </trkpt>
      <trkpt lat="43.34809" lon="-1.62336">
        <ele>8</ele>
        <time>2021-06-21T06:05:47.525Z</time>
      </trkpt>
      <trkpt lat="43.34807" lon="-1.62328">
        <ele>8</ele>
        <time>2021-06-21T06:05:48.543Z</time>
      </trkpt>
      <trkpt lat="43.34807" lon="-1.62328">
        <ele>8</ele>
        <time>2021-06-21T06:05:49.513Z</time>
      </trkpt>
      <trkpt lat="43.34802" lon="-1.62322">
        <ele>1</ele>
        <time>2021-06-21T06:05:50.519Z</time>
      </trkpt>
      <trkpt lat="43.34802" lon="-1.62322">
        <ele>1</ele>
        <time>2021-06-21T06:05:51.543Z</time>
      </trkpt>
      <trkpt lat="43.34795" lon="-1.62317">
        <ele>1</ele>
        <time>2021-06-21T06:05:52.519Z</time>
      </trkpt>
      <trkpt lat="43.34795" lon="-1.62317">
        <ele>1</ele>
        <time>2021-06-21T06:05:53.534Z</time>
      </trkpt>
      <trkpt lat="43.34788" lon="-1.6231">
        <ele>2</ele>
        <time>2021-06-21T06:05:54.509Z</time>
      </trkpt>
      <trkpt lat="43.34788" lon="-1.6231">
        <ele>2</ele>
        <time>2021-06-21T06:05:55.531Z</time>
      </trkpt>
      <trkpt lat="43.3478" lon="-1.62304">
        <ele>2</ele>
        <time>2021-06-21T06:05:56.541Z</time>
      </trkpt>
      <trkpt lat="43.3478" lon="-1.62304">
        <ele>2</ele>
        <time>2021-06-21T06:05:57.533Z</time>
      </trkpt>
      <trkpt lat="43.34773" lon="-1.62299">
        <ele>1</ele>
        <time>2021-06-21T06:05:58.536Z</time>
      </trkpt>
      <trkpt lat="43.34773" lon="-1.62299">
        <ele>1</ele>
        <time>2021-06-21T06:05:59.525Z</time>
      </trkpt>
      <trkpt lat="43.34766" lon="-1.62293">
        <ele>1</ele>
        <time>2021-06-21T06:06:00.536Z</time>
      </trkpt>
      <trkpt lat="43.34766" lon="-1.62293">
        <ele>1</ele>
        <time>2021-06-21T06:06:01.513Z</time>
      </trkpt>
      <trkpt lat="43.34759" lon="-1.62287">
        <ele>1</ele>
        <time>2021-06-21T06:06:02.519Z</time>
      </trkpt>
      <trkpt lat="43.34759" lon="-1.62287">
        <ele>1</ele>
        <time>2021-06-21T06:06:03.532Z</time>
      </trkpt>
      <trkpt lat="43.34752" lon="-1.62282">
        <ele>2</ele>
        <time>2021-06-21T06:06:04.524Z</time>
      </trkpt>
      <trkpt lat="43.34752" lon="-1.62282">
        <ele>2</ele>
        <time>2021-06-21T06:06:05.533Z</time>
      </trkpt>
      <trkpt lat="43.34745" lon="-1.62276">
        <ele>2</ele>
        <time>2021-06-21T06:06:06.553Z</time>
      </trkpt>
      <trkpt lat="43.34742" lon="-1.62273">
        <ele>2</ele>
        <time>2021-06-21T06:06:07.545Z</time>
      </trkpt>
      <trkpt lat="43.34742" lon="-1.62273">
        <ele>2</ele>
        <time>2021-06-21T06:06:08.537Z</time>
      </trkpt>
      <trkpt lat="43.34735" lon="-1.62267">
        <ele>2</ele>
        <time>2021-06-21T06:06:09.545Z</time>
      </trkpt>
      <trkpt lat="43.34735" lon="-1.62267">
        <ele>2</ele>
        <time>2021-06-21T06:06:10.519Z</time>
      </trkpt>
      <trkpt lat="43.34728" lon="-1.62262">
        <ele>2</ele>
        <time>2021-06-21T06:06:11.527Z</time>
      </trkpt>
      <trkpt lat="43.34725" lon="-1.62259">
        <ele>2</ele>
        <time>2021-06-21T06:06:12.543Z</time>
      </trkpt>
      <trkpt lat="43.34725" lon="-1.62259">
        <ele>2</ele>
        <time>2021-06-21T06:06:13.526Z</time>
      </trkpt>
      <trkpt lat="43.34718" lon="-1.62254">
        <ele>3</ele>
        <time>2021-06-21T06:06:14.531Z</time>
      </trkpt>
      <trkpt lat="43.34718" lon="-1.62254">
        <ele>3</ele>
        <time>2021-06-21T06:06:15.517Z</time>
      </trkpt>
      <trkpt lat="43.34711" lon="-1.62249">
        <ele>3</ele>
        <time>2021-06-21T06:06:16.531Z</time>
      </trkpt>
      <trkpt lat="43.34707" lon="-1.62247">
        <ele>4</ele>
        <time>2021-06-21T06:06:17.525Z</time>
      </trkpt>
      <trkpt lat="43.34707" lon="-1.62247">
        <ele>4</ele>
        <time>2021-06-21T06:06:18.530Z</time>
      </trkpt>
      <trkpt lat="43.347" lon="-1.62243">
        <ele>4</ele>
        <time>2021-06-21T06:06:19.539Z</time>
      </trkpt>
      <trkpt lat="43.347" lon="-1.62243">
        <ele>4</ele>
        <time>2021-06-21T06:06:20.517Z</time>
      </trkpt>
      <trkpt lat="43.34692" lon="-1.62238">
        <ele>5</ele>
        <time>2021-06-21T06:06:21.534Z</time>
      </trkpt>
      <trkpt lat="43.34692" lon="-1.62238">
        <ele>5</ele>
        <time>2021-06-21T06:06:22.544Z</time>
      </trkpt>
      <trkpt lat="43.34686" lon="-1.62233">
        <ele>5</ele>
        <time>2021-06-21T06:06:23.511Z</time>
      </trkpt>
      <trkpt lat="43.34683" lon="-1.62231">
        <ele>5</ele>
        <time>2021-06-21T06:06:24.525Z</time>
      </trkpt>
      <trkpt lat="43.34683" lon="-1.62231">
        <ele>5</ele>
        <time>2021-06-21T06:06:25.510Z</time>
      </trkpt>
      <trkpt lat="43.34677" lon="-1.62226">
        <ele>6</ele>
        <time>2021-06-21T06:06:26.517Z</time>
      </trkpt>
      <trkpt lat="43.34677" lon="-1.62226">
        <ele>6</ele>
        <time>2021-06-21T06:06:27.526Z</time>
      </trkpt>
      <trkpt lat="43.3467" lon="-1.62221">
        <ele>6</ele>
        <time>2021-06-21T06:06:28.542Z</time>
      </trkpt>
      <trkpt lat="43.3467" lon="-1.62221">
        <ele>6</ele>
        <time>2021-06-21T06:06:29.531Z</time>
      </trkpt>
      <trkpt lat="43.34664" lon="-1.62216">
        <ele>6</ele>
        <time>2021-06-21T06:06:30.540Z</time>
      </trkpt>
      <trkpt lat="43.34664" lon="-1.62216">
        <ele>6</ele>
        <time>2021-06-21T06:06:31.513Z</time>
      </trkpt>
      <trkpt lat="43.34659" lon="-1.62209">
        <ele>7</ele>
        <time>2021-06-21T06:06:32.521Z</time>
      </trkpt>
      <trkpt lat="43.34657" lon="-1.62206">
        <ele>7</ele>
        <time>2021-06-21T06:06:33.534Z</time>
      </trkpt>
      <trkpt lat="43.34657" lon="-1.62206">
        <ele>7</ele>
        <time>2021-06-21T06:06:34.547Z</time>
      </trkpt>
      <trkpt lat="43.34652" lon="-1.62202">
        <ele>7</ele>
        <time>2021-06-21T06:06:35.518Z</time>
      </trkpt>
      <trkpt lat="43.3465" lon="-1.622">
        <ele>7</ele>
        <time>2021-06-21T06:06:36.534Z</time>
      </trkpt>
      <trkpt lat="43.3465" lon="-1.622">
        <ele>7</ele>
        <time>2021-06-21T06:06:37.544Z</time>
      </trkpt>
      <trkpt lat="43.34645" lon="-1.62195">
        <ele>7</ele>
        <time>2021-06-21T06:06:38.510Z</time>
      </trkpt>
      <trkpt lat="43.34645" lon="-1.62195">
        <ele>7</ele>
        <time>2021-06-21T06:06:39.522Z</time>
      </trkpt>
      <trkpt lat="43.34639" lon="-1.62191">
        <ele>7</ele>
        <time>2021-06-21T06:06:40.528Z</time>
      </trkpt>
      <trkpt lat="43.34636" lon="-1.6219">
        <ele>7</ele>
        <time>2021-06-21T06:06:41.547Z</time>
      </trkpt>
      <trkpt lat="43.34633" lon="-1.62189">
        <ele>8</ele>
        <time>2021-06-21T06:06:42.542Z</time>
      </trkpt>
      <trkpt lat="43.34633" lon="-1.62189">
        <ele>8</ele>
        <time>2021-06-21T06:06:43.513Z</time>
      </trkpt>
      <trkpt lat="43.34627" lon="-1.62189">
        <ele>8</ele>
        <time>2021-06-21T06:06:44.519Z</time>
      </trkpt>
      <trkpt lat="43.34627" lon="-1.62189">
        <ele>8</ele>
        <time>2021-06-21T06:06:45.543Z</time>
      </trkpt>
      <trkpt lat="43.34621" lon="-1.6219">
        <ele>8</ele>
        <time>2021-06-21T06:06:46.520Z</time>
      </trkpt>
      <trkpt lat="43.34618" lon="-1.62191">
        <ele>8</ele>
        <time>2021-06-21T06:06:47.532Z</time>
      </trkpt>
      <trkpt lat="43.34615" lon="-1.62191">
        <ele>9</ele>
        <time>2021-06-21T06:06:48.546Z</time>
      </trkpt>
      <trkpt lat="43.34615" lon="-1.62191">
        <ele>9</ele>
        <time>2021-06-21T06:06:49.529Z</time>
      </trkpt>
      <trkpt lat="43.34609" lon="-1.62191">
        <ele>9</ele>
        <time>2021-06-21T06:06:50.542Z</time>
      </trkpt>
      <trkpt lat="43.34606" lon="-1.62192">
        <ele>9</ele>
        <time>2021-06-21T06:06:51.512Z</time>
      </trkpt>
      <trkpt lat="43.34604" lon="-1.62192">
        <ele>9</ele>
        <time>2021-06-21T06:06:52.528Z</time>
      </trkpt>
      <trkpt lat="43.34604" lon="-1.62192">
        <ele>9</ele>
        <time>2021-06-21T06:06:53.544Z</time>
      </trkpt>
      <trkpt lat="43.34598" lon="-1.62192">
        <ele>9</ele>
        <time>2021-06-21T06:06:54.510Z</time>
      </trkpt>
      <trkpt lat="43.34598" lon="-1.62192">
        <ele>9</ele>
        <time>2021-06-21T06:06:55.526Z</time>
      </trkpt>
      <trkpt lat="43.34593" lon="-1.62191">
        <ele>9</ele>
        <time>2021-06-21T06:06:56.533Z</time>
      </trkpt>
      <trkpt lat="43.34593" lon="-1.62191">
        <ele>9</ele>
        <time>2021-06-21T06:06:57.533Z</time>
      </trkpt>
      <trkpt lat="43.34587" lon="-1.62191">
        <ele>8</ele>
        <time>2021-06-21T06:06:58.547Z</time>
      </trkpt>
      <trkpt lat="43.34587" lon="-1.62191">
        <ele>8</ele>
        <time>2021-06-21T06:06:59.516Z</time>
      </trkpt>
      <trkpt lat="43.34582" lon="-1.6219">
        <ele>8</ele>
        <time>2021-06-21T06:07:00.518Z</time>
      </trkpt>
      <trkpt lat="43.34582" lon="-1.6219">
        <ele>8</ele>
        <time>2021-06-21T06:07:01.527Z</time>
      </trkpt>
      <trkpt lat="43.34577" lon="-1.62189">
        <ele>8</ele>
        <time>2021-06-21T06:07:02.540Z</time>
      </trkpt>
      <trkpt lat="43.34577" lon="-1.62189">
        <ele>8</ele>
        <time>2021-06-21T06:07:03.537Z</time>
      </trkpt>
      <trkpt lat="43.34573" lon="-1.62189">
        <ele>8</ele>
        <time>2021-06-21T06:07:04.544Z</time>
      </trkpt>
      <trkpt lat="43.34573" lon="-1.62189">
        <ele>8</ele>
        <time>2021-06-21T06:07:05.520Z</time>
      </trkpt>
      <trkpt lat="43.34568" lon="-1.62189">
        <ele>9</ele>
        <time>2021-06-21T06:07:06.532Z</time>
      </trkpt>
      <trkpt lat="43.34568" lon="-1.62189">
        <ele>9</ele>
        <time>2021-06-21T06:07:07.516Z</time>
      </trkpt>
      <trkpt lat="43.34562" lon="-1.62188">
        <ele>9</ele>
        <time>2021-06-21T06:07:08.529Z</time>
      </trkpt>
      <trkpt lat="43.34562" lon="-1.62188">
        <ele>9</ele>
        <time>2021-06-21T06:07:09.529Z</time>
      </trkpt>
      <trkpt lat="43.34556" lon="-1.62188">
        <ele>10</ele>
        <time>2021-06-21T06:07:10.539Z</time>
      </trkpt>
      <trkpt lat="43.34556" lon="-1.62188">
        <ele>10</ele>
        <time>2021-06-21T06:07:11.518Z</time>
      </trkpt>
      <trkpt lat="43.34551" lon="-1.62188">
        <ele>11</ele>
        <time>2021-06-21T06:07:12.534Z</time>
      </trkpt>
      <trkpt lat="43.34551" lon="-1.62188">
        <ele>11</ele>
        <time>2021-06-21T06:07:13.548Z</time>
      </trkpt>
      <trkpt lat="43.34545" lon="-1.62188">
        <ele>11</ele>
        <time>2021-06-21T06:07:14.513Z</time>
      </trkpt>
      <trkpt lat="43.34545" lon="-1.62188">
        <ele>11</ele>
        <time>2021-06-21T06:07:15.524Z</time>
      </trkpt>
      <trkpt lat="43.3454" lon="-1.62188">
        <ele>12</ele>
        <time>2021-06-21T06:07:16.532Z</time>
      </trkpt>
      <trkpt lat="43.3454" lon="-1.62188">
        <ele>12</ele>
        <time>2021-06-21T06:07:17.548Z</time>
      </trkpt>
      <trkpt lat="43.34534" lon="-1.62188">
        <ele>13</ele>
        <time>2021-06-21T06:07:18.541Z</time>
      </trkpt>
      <trkpt lat="43.34534" lon="-1.62188">
        <ele>13</ele>
        <time>2021-06-21T06:07:19.535Z</time>
      </trkpt>
      <trkpt lat="43.34529" lon="-1.62188">
        <ele>13</ele>
        <time>2021-06-21T06:07:20.544Z</time>
      </trkpt>
      <trkpt lat="43.34526" lon="-1.62189">
        <ele>13</ele>
        <time>2021-06-21T06:07:21.514Z</time>
      </trkpt>
      <trkpt lat="43.34526" lon="-1.62189">
        <ele>13</ele>
        <time>2021-06-21T06:07:22.519Z</time>
      </trkpt>
      <trkpt lat="43.34521" lon="-1.62191">
        <ele>14</ele>
        <time>2021-06-21T06:07:23.526Z</time>
      </trkpt>
      <trkpt lat="43.34518" lon="-1.62192">
        <ele>14</ele>
        <time>2021-06-21T06:07:24.545Z</time>
      </trkpt>
      <trkpt lat="43.34518" lon="-1.62192">
        <ele>14</ele>
        <time>2021-06-21T06:07:25.525Z</time>
      </trkpt>
      <trkpt lat="43.34514" lon="-1.62197">
        <ele>14</ele>
        <time>2021-06-21T06:07:26.541Z</time>
      </trkpt>
      <trkpt lat="43.34514" lon="-1.62197">
        <ele>14</ele>
        <time>2021-06-21T06:07:27.520Z</time>
      </trkpt>
      <trkpt lat="43.3451" lon="-1.62201">
        <ele>15</ele>
        <time>2021-06-21T06:07:28.519Z</time>
      </trkpt>
      <trkpt lat="43.3451" lon="-1.62201">
        <ele>15</ele>
        <time>2021-06-21T06:07:29.538Z</time>
      </trkpt>
      <trkpt lat="43.34504" lon="-1.62202">
        <ele>15</ele>
        <time>2021-06-21T06:07:30.545Z</time>
      </trkpt>
      <trkpt lat="43.34504" lon="-1.62202">
        <ele>15</ele>
        <time>2021-06-21T06:07:31.516Z</time>
      </trkpt>
      <trkpt lat="43.34499" lon="-1.62203">
        <ele>15</ele>
        <time>2021-06-21T06:07:32.526Z</time>
      </trkpt>
      <trkpt lat="43.34499" lon="-1.62203">
        <ele>15</ele>
        <time>2021-06-21T06:07:33.541Z</time>
      </trkpt>
      <trkpt lat="43.34494" lon="-1.62204">
        <ele>16</ele>
        <time>2021-06-21T06:07:34.520Z</time>
      </trkpt>
      <trkpt lat="43.34494" lon="-1.62204">
        <ele>16</ele>
        <time>2021-06-21T06:07:35.532Z</time>
      </trkpt>
      <trkpt lat="43.34487" lon="-1.62206">
        <ele>16</ele>
        <time>2021-06-21T06:07:36.544Z</time>
      </trkpt>
      <trkpt lat="43.34487" lon="-1.62206">
        <ele>16</ele>
        <time>2021-06-21T06:07:37.534Z</time>
      </trkpt>
      <trkpt lat="43.34481" lon="-1.62208">
        <ele>16</ele>
        <time>2021-06-21T06:07:38.527Z</time>
      </trkpt>
      <trkpt lat="43.34481" lon="-1.62208">
        <ele>16</ele>
        <time>2021-06-21T06:07:39.533Z</time>
      </trkpt>
      <trkpt lat="43.34474" lon="-1.62211">
        <ele>16</ele>
        <time>2021-06-21T06:07:40.545Z</time>
      </trkpt>
      <trkpt lat="43.34474" lon="-1.62211">
        <ele>16</ele>
        <time>2021-06-21T06:07:41.523Z</time>
      </trkpt>
      <trkpt lat="43.34469" lon="-1.62213">
        <ele>17</ele>
        <time>2021-06-21T06:07:42.533Z</time>
      </trkpt>
      <trkpt lat="43.34469" lon="-1.62213">
        <ele>17</ele>
        <time>2021-06-21T06:07:43.542Z</time>
      </trkpt>
      <trkpt lat="43.34465" lon="-1.62216">
        <ele>17</ele>
        <time>2021-06-21T06:07:44.539Z</time>
      </trkpt>
      <trkpt lat="43.34465" lon="-1.62216">
        <ele>17</ele>
        <time>2021-06-21T06:07:45.544Z</time>
      </trkpt>
      <trkpt lat="43.34464" lon="-1.62217">
        <ele>17</ele>
        <time>2021-06-21T06:07:46.511Z</time>
      </trkpt>
      <trkpt lat="43.34464" lon="-1.62217">
        <ele>17</ele>
        <time>2021-06-21T06:07:47.520Z</time>
      </trkpt>
      <trkpt lat="43.34464" lon="-1.62217">
        <ele>17</ele>
        <time>2021-06-21T06:07:48.532Z</time>
      </trkpt>
      <trkpt lat="43.34464" lon="-1.62217">
        <ele>17</ele>
        <time>2021-06-21T06:07:49.544Z</time>
      </trkpt>
      <trkpt lat="43.34464" lon="-1.62217">
        <ele>17</ele>
        <time>2021-06-21T06:07:50.509Z</time>
      </trkpt>
      <trkpt lat="43.34464" lon="-1.62217">
        <ele>17</ele>
        <time>2021-06-21T06:07:51.542Z</time>
      </trkpt>
      <trkpt lat="43.34464" lon="-1.62217">
        <ele>17</ele>
        <time>2021-06-21T06:07:52.539Z</time>
      </trkpt>
      <trkpt lat="43.34464" lon="-1.62217">
        <ele>17</ele>
        <time>2021-06-21T06:07:53.535Z</time>
      </trkpt>
      <trkpt lat="43.34464" lon="-1.62217">
        <ele>17</ele>
        <time>2021-06-21T06:07:54.510Z</time>
      </trkpt>
      <trkpt lat="43.34464" lon="-1.62217">
        <ele>17</ele>
        <time>2021-06-21T06:07:55.534Z</time>
      </trkpt>
      <trkpt lat="43.34461" lon="-1.62222">
        <ele>18</ele>
        <time>2021-06-21T06:07:56.520Z</time>
      </trkpt>
      <trkpt lat="43.3446" lon="-1.62224">
        <ele>18</ele>
        <time>2021-06-21T06:07:57.539Z</time>
      </trkpt>
      <trkpt lat="43.3446" lon="-1.62224">
        <ele>18</ele>
        <time>2021-06-21T06:07:58.514Z</time>
      </trkpt>
      <trkpt lat="43.34456" lon="-1.6223">
        <ele>19</ele>
        <time>2021-06-21T06:07:59.540Z</time>
      </trkpt>
      <trkpt lat="43.34456" lon="-1.62233">
        <ele>19</ele>
        <time>2021-06-21T06:08:00.517Z</time>
      </trkpt>
      <trkpt lat="43.34456" lon="-1.62233">
        <ele>19</ele>
        <time>2021-06-21T06:08:01.534Z</time>
      </trkpt>
      <trkpt lat="43.34454" lon="-1.62242">
        <ele>19</ele>
        <time>2021-06-21T06:08:02.540Z</time>
      </trkpt>
      <trkpt lat="43.34454" lon="-1.62242">
        <ele>19</ele>
        <time>2021-06-21T06:08:03.529Z</time>
      </trkpt>
      <trkpt lat="43.34452" lon="-1.6225">
        <ele>19</ele>
        <time>2021-06-21T06:08:04.536Z</time>
      </trkpt>
      <trkpt lat="43.34452" lon="-1.6225">
        <ele>19</ele>
        <time>2021-06-21T06:08:05.514Z</time>
      </trkpt>
      <trkpt lat="43.3445" lon="-1.6226">
        <ele>19</ele>
        <time>2021-06-21T06:08:06.521Z</time>
      </trkpt>
      <trkpt lat="43.3445" lon="-1.6226">
        <ele>19</ele>
        <time>2021-06-21T06:08:07.538Z</time>
      </trkpt>
      <trkpt lat="43.34448" lon="-1.62271">
        <ele>19</ele>
        <time>2021-06-21T06:08:08.521Z</time>
      </trkpt>
      <trkpt lat="43.34448" lon="-1.62271">
        <ele>19</ele>
        <time>2021-06-21T06:08:09.515Z</time>
      </trkpt>
      <trkpt lat="43.34446" lon="-1.6228">
        <ele>19</ele>
        <time>2021-06-21T06:08:10.521Z</time>
      </trkpt>
      <trkpt lat="43.34445" lon="-1.62284">
        <ele>19</ele>
        <time>2021-06-21T06:08:11.536Z</time>
      </trkpt>
      <trkpt lat="43.34445" lon="-1.62288">
        <ele>19</ele>
        <time>2021-06-21T06:08:12.516Z</time>
      </trkpt>
      <trkpt lat="43.34445" lon="-1.62288">
        <ele>19</ele>
        <time>2021-06-21T06:08:13.535Z</time>
      </trkpt>
      <trkpt lat="43.34445" lon="-1.62297">
        <ele>19</ele>
        <time>2021-06-21T06:08:14.545Z</time>
      </trkpt>
      <trkpt lat="43.34445" lon="-1.62297">
        <ele>19</ele>
        <time>2021-06-21T06:08:15.518Z</time>
      </trkpt>
      <trkpt lat="43.34445" lon="-1.62307">
        <ele>18</ele>
        <time>2021-06-21T06:08:16.526Z</time>
      </trkpt>
      <trkpt lat="43.34446" lon="-1.62311">
        <ele>18</ele>
        <time>2021-06-21T06:08:17.535Z</time>
      </trkpt>
      <trkpt lat="43.34447" lon="-1.62317">
        <ele>18</ele>
        <time>2021-06-21T06:08:18.547Z</time>
      </trkpt>
      <trkpt lat="43.34447" lon="-1.62317">
        <ele>18</ele>
        <time>2021-06-21T06:08:19.521Z</time>
      </trkpt>
      <trkpt lat="43.34448" lon="-1.62327">
        <ele>18</ele>
        <time>2021-06-21T06:08:20.533Z</time>
      </trkpt>
      <trkpt lat="43.34448" lon="-1.62327">
        <ele>18</ele>
        <time>2021-06-21T06:08:21.541Z</time>
      </trkpt>
      <trkpt lat="43.34449" lon="-1.62336">
        <ele>18</ele>
        <time>2021-06-21T06:08:22.537Z</time>
      </trkpt>
      <trkpt lat="43.34449" lon="-1.62341">
        <ele>18</ele>
        <time>2021-06-21T06:08:23.539Z</time>
      </trkpt>
      <trkpt lat="43.3445" lon="-1.62345">
        <ele>18</ele>
        <time>2021-06-21T06:08:24.523Z</time>
      </trkpt>
      <trkpt lat="43.3445" lon="-1.62345">
        <ele>18</ele>
        <time>2021-06-21T06:08:25.535Z</time>
      </trkpt>
      <trkpt lat="43.3445" lon="-1.62353">
        <ele>19</ele>
        <time>2021-06-21T06:08:26.548Z</time>
      </trkpt>
      <trkpt lat="43.3445" lon="-1.62353">
        <ele>19</ele>
        <time>2021-06-21T06:08:27.537Z</time>
      </trkpt>
      <trkpt lat="43.3445" lon="-1.62363">
        <ele>19</ele>
        <time>2021-06-21T06:08:28.546Z</time>
      </trkpt>
      <trkpt lat="43.3445" lon="-1.62363">
        <ele>19</ele>
        <time>2021-06-21T06:08:29.528Z</time>
      </trkpt>
      <trkpt lat="43.34449" lon="-1.62372">
        <ele>20</ele>
        <time>2021-06-21T06:08:30.535Z</time>
      </trkpt>
      <trkpt lat="43.34449" lon="-1.62372">
        <ele>20</ele>
        <time>2021-06-21T06:08:31.510Z</time>
      </trkpt>
      <trkpt lat="43.34448" lon="-1.62382">
        <ele>19</ele>
        <time>2021-06-21T06:08:32.580Z</time>
      </trkpt>
      <trkpt lat="43.34448" lon="-1.62382">
        <ele>19</ele>
        <time>2021-06-21T06:08:33.527Z</time>
      </trkpt>
      <trkpt lat="43.34445" lon="-1.6239">
        <ele>19</ele>
        <time>2021-06-21T06:08:34.533Z</time>
      </trkpt>
      <trkpt lat="43.34445" lon="-1.6239">
        <ele>19</ele>
        <time>2021-06-21T06:08:35.544Z</time>
      </trkpt>
      <trkpt lat="43.3444" lon="-1.62397">
        <ele>19</ele>
        <time>2021-06-21T06:08:36.514Z</time>
      </trkpt>
      <trkpt lat="43.3444" lon="-1.62397">
        <ele>19</ele>
        <time>2021-06-21T06:08:37.542Z</time>
      </trkpt>
      <trkpt lat="43.34436" lon="-1.62404">
        <ele>20</ele>
        <time>2021-06-21T06:08:38.527Z</time>
      </trkpt>
      <trkpt lat="43.34436" lon="-1.62404">
        <ele>20</ele>
        <time>2021-06-21T06:08:39.522Z</time>
      </trkpt>
      <trkpt lat="43.34431" lon="-1.62411">
        <ele>20</ele>
        <time>2021-06-21T06:08:40.528Z</time>
      </trkpt>
      <trkpt lat="43.34431" lon="-1.62411">
        <ele>20</ele>
        <time>2021-06-21T06:08:41.545Z</time>
      </trkpt>
      <trkpt lat="43.34426" lon="-1.62417">
        <ele>21</ele>
        <time>2021-06-21T06:08:42.510Z</time>
      </trkpt>
      <trkpt lat="43.34426" lon="-1.62417">
        <ele>21</ele>
        <time>2021-06-21T06:08:43.524Z</time>
      </trkpt>
      <trkpt lat="43.34421" lon="-1.62423">
        <ele>21</ele>
        <time>2021-06-21T06:08:44.533Z</time>
      </trkpt>
      <trkpt lat="43.34421" lon="-1.62423">
        <ele>21</ele>
        <time>2021-06-21T06:08:45.509Z</time>
      </trkpt>
      <trkpt lat="43.34416" lon="-1.6243">
        <ele>21</ele>
        <time>2021-06-21T06:08:46.520Z</time>
      </trkpt>
      <trkpt lat="43.34416" lon="-1.6243">
        <ele>21</ele>
        <time>2021-06-21T06:08:47.542Z</time>
      </trkpt>
      <trkpt lat="43.34411" lon="-1.62438">
        <ele>21</ele>
        <time>2021-06-21T06:08:48.539Z</time>
      </trkpt>
      <trkpt lat="43.34411" lon="-1.62438">
        <ele>21</ele>
        <time>2021-06-21T06:08:49.519Z</time>
      </trkpt>
      <trkpt lat="43.34408" lon="-1.62447">
        <ele>20</ele>
        <time>2021-06-21T06:08:50.526Z</time>
      </trkpt>
      <trkpt lat="43.34408" lon="-1.62447">
        <ele>20</ele>
        <time>2021-06-21T06:08:51.533Z</time>
      </trkpt>
      <trkpt lat="43.34404" lon="-1.62458">
        <ele>19</ele>
        <time>2021-06-21T06:08:52.540Z</time>
      </trkpt>
      <trkpt lat="43.34403" lon="-1.62464">
        <ele>19</ele>
        <time>2021-06-21T06:08:53.518Z</time>
      </trkpt>
      <trkpt lat="43.344" lon="-1.6247">
        <ele>18</ele>
        <time>2021-06-21T06:08:54.538Z</time>
      </trkpt>
      <trkpt lat="43.344" lon="-1.6247">
        <ele>18</ele>
        <time>2021-06-21T06:08:55.513Z</time>
      </trkpt>
      <trkpt lat="43.34396" lon="-1.62483">
        <ele>18</ele>
        <time>2021-06-21T06:08:56.522Z</time>
      </trkpt>
      <trkpt lat="43.34393" lon="-1.62491">
        <ele>17</ele>
        <time>2021-06-21T06:08:57.534Z</time>
      </trkpt>
      <trkpt lat="43.34393" lon="-1.62491">
        <ele>17</ele>
        <time>2021-06-21T06:08:58.547Z</time>
      </trkpt>
      <trkpt lat="43.34388" lon="-1.62506">
        <ele>17</ele>
        <time>2021-06-21T06:08:59.515Z</time>
      </trkpt>
      <trkpt lat="43.34386" lon="-1.62514">
        <ele>17</ele>
        <time>2021-06-21T06:09:00.547Z</time>
      </trkpt>
      <trkpt lat="43.34386" lon="-1.62514">
        <ele>17</ele>
        <time>2021-06-21T06:09:01.515Z</time>
      </trkpt>
      <trkpt lat="43.34381" lon="-1.6253">
        <ele>16</ele>
        <time>2021-06-21T06:09:02.522Z</time>
      </trkpt>
      <trkpt lat="43.34379" lon="-1.62539">
        <ele>15</ele>
        <time>2021-06-21T06:09:03.539Z</time>
      </trkpt>
      <trkpt lat="43.34379" lon="-1.62539">
        <ele>15</ele>
        <time>2021-06-21T06:09:04.511Z</time>
      </trkpt>
      <trkpt lat="43.34373" lon="-1.62558">
        <ele>14</ele>
        <time>2021-06-21T06:09:05.519Z</time>
      </trkpt>
      <trkpt lat="43.34373" lon="-1.62558">
        <ele>14</ele>
        <time>2021-06-21T06:09:06.537Z</time>
      </trkpt>
      <trkpt lat="43.34368" lon="-1.62577">
        <ele>14</ele>
        <time>2021-06-21T06:09:07.519Z</time>
      </trkpt>
      <trkpt lat="43.34366" lon="-1.62587">
        <ele>13</ele>
        <time>2021-06-21T06:09:08.546Z</time>
      </trkpt>
      <trkpt lat="43.34366" lon="-1.62587">
        <ele>13</ele>
        <time>2021-06-21T06:09:09.519Z</time>
      </trkpt>
      <trkpt lat="43.34364" lon="-1.62608">
        <ele>12</ele>
        <time>2021-06-21T06:09:10.532Z</time>
      </trkpt>
      <trkpt lat="43.34364" lon="-1.62608">
        <ele>12</ele>
        <time>2021-06-21T06:09:11.509Z</time>
      </trkpt>
      <trkpt lat="43.34363" lon="-1.6263">
        <ele>11</ele>
        <time>2021-06-21T06:09:12.516Z</time>
      </trkpt>
      <trkpt lat="43.34363" lon="-1.6263">
        <ele>11</ele>
        <time>2021-06-21T06:09:13.532Z</time>
      </trkpt>
      <trkpt lat="43.34363" lon="-1.62653">
        <ele>10</ele>
        <time>2021-06-21T06:09:14.514Z</time>
      </trkpt>
      <trkpt lat="43.34363" lon="-1.62653">
        <ele>10</ele>
        <time>2021-06-21T06:09:15.529Z</time>
      </trkpt>
      <trkpt lat="43.34364" lon="-1.62677">
        <ele>10</ele>
        <time>2021-06-21T06:09:16.539Z</time>
      </trkpt>
      <trkpt lat="43.34364" lon="-1.62677">
        <ele>10</ele>
        <time>2021-06-21T06:09:17.525Z</time>
      </trkpt>
      <trkpt lat="43.34364" lon="-1.62702">
        <ele>9</ele>
        <time>2021-06-21T06:09:18.556Z</time>
      </trkpt>
      <trkpt lat="43.34364" lon="-1.62702">
        <ele>9</ele>
        <time>2021-06-21T06:09:19.516Z</time>
      </trkpt>
      <trkpt lat="43.34365" lon="-1.62727">
        <ele>8</ele>
        <time>2021-06-21T06:09:20.522Z</time>
      </trkpt>
      <trkpt lat="43.34365" lon="-1.62727">
        <ele>8</ele>
        <time>2021-06-21T06:09:21.535Z</time>
      </trkpt>
      <trkpt lat="43.34364" lon="-1.62751">
        <ele>7</ele>
        <time>2021-06-21T06:09:22.535Z</time>
      </trkpt>
      <trkpt lat="43.34364" lon="-1.62751">
        <ele>7</ele>
        <time>2021-06-21T06:09:23.509Z</time>
      </trkpt>
      <trkpt lat="43.34363" lon="-1.62776">
        <ele>6</ele>
        <time>2021-06-21T06:09:24.515Z</time>
      </trkpt>
      <trkpt lat="43.34363" lon="-1.62776">
        <ele>6</ele>
        <time>2021-06-21T06:09:25.527Z</time>
      </trkpt>
      <trkpt lat="43.34361" lon="-1.628">
        <ele>6</ele>
        <time>2021-06-21T06:09:26.534Z</time>
      </trkpt>
      <trkpt lat="43.34361" lon="-1.62812">
        <ele>6</ele>
        <time>2021-06-21T06:09:27.548Z</time>
      </trkpt>
      <trkpt lat="43.34361" lon="-1.62812">
        <ele>6</ele>
        <time>2021-06-21T06:09:28.511Z</time>
      </trkpt>
      <trkpt lat="43.34359" lon="-1.62835">
        <ele>5</ele>
        <time>2021-06-21T06:09:29.517Z</time>
      </trkpt>
      <trkpt lat="43.34358" lon="-1.62846">
        <ele>5</ele>
        <time>2021-06-21T06:09:30.525Z</time>
      </trkpt>
      <trkpt lat="43.34358" lon="-1.62846">
        <ele>5</ele>
        <time>2021-06-21T06:09:31.509Z</time>
      </trkpt>
      <trkpt lat="43.34356" lon="-1.62865">
        <ele>5</ele>
        <time>2021-06-21T06:09:32.515Z</time>
      </trkpt>
      <trkpt lat="43.34356" lon="-1.62865">
        <ele>5</ele>
        <time>2021-06-21T06:09:33.538Z</time>
      </trkpt>
      <trkpt lat="43.34355" lon="-1.62883">
        <ele>5</ele>
        <time>2021-06-21T06:09:34.546Z</time>
      </trkpt>
      <trkpt lat="43.34355" lon="-1.62883">
        <ele>5</ele>
        <time>2021-06-21T06:09:35.517Z</time>
      </trkpt>
      <trkpt lat="43.34353" lon="-1.629">
        <ele>6</ele>
        <time>2021-06-21T06:09:36.544Z</time>
      </trkpt>
      <trkpt lat="43.34353" lon="-1.629">
        <ele>6</ele>
        <time>2021-06-21T06:09:37.544Z</time>
      </trkpt>
      <trkpt lat="43.34351" lon="-1.62914">
        <ele>7</ele>
        <time>2021-06-21T06:09:38.512Z</time>
      </trkpt>
      <trkpt lat="43.34351" lon="-1.62914">
        <ele>7</ele>
        <time>2021-06-21T06:09:39.534Z</time>
      </trkpt>
      <trkpt lat="43.3435" lon="-1.62926">
        <ele>8</ele>
        <time>2021-06-21T06:09:40.528Z</time>
      </trkpt>
      <trkpt lat="43.3435" lon="-1.62926">
        <ele>8</ele>
        <time>2021-06-21T06:09:41.520Z</time>
      </trkpt>
      <trkpt lat="43.34349" lon="-1.62937">
        <ele>10</ele>
        <time>2021-06-21T06:09:42.534Z</time>
      </trkpt>
      <trkpt lat="43.34349" lon="-1.62937">
        <ele>10</ele>
        <time>2021-06-21T06:09:43.546Z</time>
      </trkpt>
      <trkpt lat="43.34347" lon="-1.62949">
        <ele>10</ele>
        <time>2021-06-21T06:09:44.530Z</time>
      </trkpt>
      <trkpt lat="43.34347" lon="-1.62954">
        <ele>10</ele>
        <time>2021-06-21T06:09:45.511Z</time>
      </trkpt>
      <trkpt lat="43.34347" lon="-1.62954">
        <ele>10</ele>
        <time>2021-06-21T06:09:46.532Z</time>
      </trkpt>
      <trkpt lat="43.34346" lon="-1.62963">
        <ele>11</ele>
        <time>2021-06-21T06:09:47.538Z</time>
      </trkpt>
      <trkpt lat="43.34345" lon="-1.62968">
        <ele>12</ele>
        <time>2021-06-21T06:09:48.515Z</time>
      </trkpt>
      <trkpt lat="43.34345" lon="-1.62968">
        <ele>12</ele>
        <time>2021-06-21T06:09:49.530Z</time>
      </trkpt>
      <trkpt lat="43.34344" lon="-1.62977">
        <ele>13</ele>
        <time>2021-06-21T06:09:50.544Z</time>
      </trkpt>
      <trkpt lat="43.34344" lon="-1.62977">
        <ele>13</ele>
        <time>2021-06-21T06:09:51.536Z</time>
      </trkpt>
      <trkpt lat="43.34343" lon="-1.62985">
        <ele>15</ele>
        <time>2021-06-21T06:09:52.570Z</time>
      </trkpt>
      <trkpt lat="43.34343" lon="-1.62989">
        <ele>15</ele>
        <time>2021-06-21T06:09:53.514Z</time>
      </trkpt>
      <trkpt lat="43.34342" lon="-1.62993">
        <ele>16</ele>
        <time>2021-06-21T06:09:54.540Z</time>
      </trkpt>
      <trkpt lat="43.34342" lon="-1.62993">
        <ele>16</ele>
        <time>2021-06-21T06:09:55.548Z</time>
      </trkpt>
      <trkpt lat="43.34341" lon="-1.63001">
        <ele>17</ele>
        <time>2021-06-21T06:09:56.516Z</time>
      </trkpt>
      <trkpt lat="43.34341" lon="-1.63001">
        <ele>17</ele>
        <time>2021-06-21T06:09:57.534Z</time>
      </trkpt>
      <trkpt lat="43.3434" lon="-1.6301">
        <ele>18</ele>
        <time>2021-06-21T06:09:58.545Z</time>
      </trkpt>
      <trkpt lat="43.3434" lon="-1.6301">
        <ele>18</ele>
        <time>2021-06-21T06:09:59.519Z</time>
      </trkpt>
      <trkpt lat="43.34339" lon="-1.63018">
        <ele>19</ele>
        <time>2021-06-21T06:10:00.550Z</time>
      </trkpt>
      <trkpt lat="43.34339" lon="-1.63018">
        <ele>19</ele>
        <time>2021-06-21T06:10:01.534Z</time>
      </trkpt>
      <trkpt lat="43.34338" lon="-1.63027">
        <ele>20</ele>
        <time>2021-06-21T06:10:02.544Z</time>
      </trkpt>
      <trkpt lat="43.34338" lon="-1.63027">
        <ele>20</ele>
        <time>2021-06-21T06:10:03.519Z</time>
      </trkpt>
      <trkpt lat="43.34336" lon="-1.63035">
        <ele>21</ele>
        <time>2021-06-21T06:10:04.527Z</time>
      </trkpt>
      <trkpt lat="43.34336" lon="-1.63035">
        <ele>21</ele>
        <time>2021-06-21T06:10:05.542Z</time>
      </trkpt>
      <trkpt lat="43.34334" lon="-1.63043">
        <ele>21</ele>
        <time>2021-06-21T06:10:06.510Z</time>
      </trkpt>
      <trkpt lat="43.34334" lon="-1.63043">
        <ele>21</ele>
        <time>2021-06-21T06:10:07.525Z</time>
      </trkpt>
      <trkpt lat="43.34332" lon="-1.6305">
        <ele>21</ele>
        <time>2021-06-21T06:10:08.530Z</time>
      </trkpt>
      <trkpt lat="43.34332" lon="-1.6305">
        <ele>21</ele>
        <time>2021-06-21T06:10:09.540Z</time>
      </trkpt>
      <trkpt lat="43.34331" lon="-1.63056">
        <ele>22</ele>
        <time>2021-06-21T06:10:10.547Z</time>
      </trkpt>
      <trkpt lat="43.34331" lon="-1.63056">
        <ele>22</ele>
        <time>2021-06-21T06:10:11.516Z</time>
      </trkpt>
      <trkpt lat="43.34329" lon="-1.63062">
        <ele>22</ele>
        <time>2021-06-21T06:10:12.527Z</time>
      </trkpt>
      <trkpt lat="43.34329" lon="-1.63062">
        <ele>22</ele>
        <time>2021-06-21T06:10:13.512Z</time>
      </trkpt>
      <trkpt lat="43.34328" lon="-1.63069">
        <ele>21</ele>
        <time>2021-06-21T06:10:14.521Z</time>
      </trkpt>
      <trkpt lat="43.34328" lon="-1.63069">
        <ele>21</ele>
        <time>2021-06-21T06:10:15.515Z</time>
      </trkpt>
      <trkpt lat="43.34327" lon="-1.63075">
        <ele>22</ele>
        <time>2021-06-21T06:10:16.521Z</time>
      </trkpt>
      <trkpt lat="43.34327" lon="-1.63075">
        <ele>22</ele>
        <time>2021-06-21T06:10:17.548Z</time>
      </trkpt>
      <trkpt lat="43.34325" lon="-1.63081">
        <ele>22</ele>
        <time>2021-06-21T06:10:18.538Z</time>
      </trkpt>
      <trkpt lat="43.34325" lon="-1.63081">
        <ele>22</ele>
        <time>2021-06-21T06:10:19.530Z</time>
      </trkpt>
      <trkpt lat="43.34323" lon="-1.63087">
        <ele>23</ele>
        <time>2021-06-21T06:10:20.545Z</time>
      </trkpt>
      <trkpt lat="43.34323" lon="-1.63087">
        <ele>23</ele>
        <time>2021-06-21T06:10:21.513Z</time>
      </trkpt>
      <trkpt lat="43.3432" lon="-1.63093">
        <ele>24</ele>
        <time>2021-06-21T06:10:22.532Z</time>
      </trkpt>
      <trkpt lat="43.3432" lon="-1.63093">
        <ele>24</ele>
        <time>2021-06-21T06:10:23.512Z</time>
      </trkpt>
      <trkpt lat="43.34318" lon="-1.631">
        <ele>24</ele>
        <time>2021-06-21T06:10:24.518Z</time>
      </trkpt>
      <trkpt lat="43.34318" lon="-1.631">
        <ele>24</ele>
        <time>2021-06-21T06:10:25.546Z</time>
      </trkpt>
      <trkpt lat="43.34316" lon="-1.63108">
        <ele>24</ele>
        <time>2021-06-21T06:10:26.528Z</time>
      </trkpt>
      <trkpt lat="43.34316" lon="-1.63108">
        <ele>24</ele>
        <time>2021-06-21T06:10:27.517Z</time>
      </trkpt>
      <trkpt lat="43.34314" lon="-1.63115">
        <ele>24</ele>
        <time>2021-06-21T06:10:28.531Z</time>
      </trkpt>
      <trkpt lat="43.34314" lon="-1.63115">
        <ele>24</ele>
        <time>2021-06-21T06:10:29.547Z</time>
      </trkpt>
      <trkpt lat="43.34312" lon="-1.63122">
        <ele>24</ele>
        <time>2021-06-21T06:10:30.515Z</time>
      </trkpt>
      <trkpt lat="43.34312" lon="-1.63122">
        <ele>24</ele>
        <time>2021-06-21T06:10:31.530Z</time>
      </trkpt>
      <trkpt lat="43.3431" lon="-1.63129">
        <ele>24</ele>
        <time>2021-06-21T06:10:32.537Z</time>
      </trkpt>
      <trkpt lat="43.3431" lon="-1.63129">
        <ele>24</ele>
        <time>2021-06-21T06:10:33.521Z</time>
      </trkpt>
      <trkpt lat="43.34309" lon="-1.63136">
        <ele>24</ele>
        <time>2021-06-21T06:10:34.539Z</time>
      </trkpt>
      <trkpt lat="43.34309" lon="-1.63136">
        <ele>24</ele>
        <time>2021-06-21T06:10:35.511Z</time>
      </trkpt>
      <trkpt lat="43.34308" lon="-1.63144">
        <ele>24</ele>
        <time>2021-06-21T06:10:36.527Z</time>
      </trkpt>
      <trkpt lat="43.34308" lon="-1.63144">
        <ele>24</ele>
        <time>2021-06-21T06:10:37.534Z</time>
      </trkpt>
      <trkpt lat="43.34307" lon="-1.6315">
        <ele>24</ele>
        <time>2021-06-21T06:10:38.545Z</time>
      </trkpt>
      <trkpt lat="43.34306" lon="-1.63154">
        <ele>24</ele>
        <time>2021-06-21T06:10:39.516Z</time>
      </trkpt>
      <trkpt lat="43.34305" lon="-1.63157">
        <ele>24</ele>
        <time>2021-06-21T06:10:40.539Z</time>
      </trkpt>
      <trkpt lat="43.34305" lon="-1.63157">
        <ele>24</ele>
        <time>2021-06-21T06:10:41.509Z</time>
      </trkpt>
      <trkpt lat="43.34303" lon="-1.63163">
        <ele>25</ele>
        <time>2021-06-21T06:10:42.520Z</time>
      </trkpt>
      <trkpt lat="43.34303" lon="-1.63163">
        <ele>25</ele>
        <time>2021-06-21T06:10:43.541Z</time>
      </trkpt>
      <trkpt lat="43.343" lon="-1.63169">
        <ele>25</ele>
        <time>2021-06-21T06:10:44.526Z</time>
      </trkpt>
      <trkpt lat="43.343" lon="-1.63169">
        <ele>25</ele>
        <time>2021-06-21T06:10:45.509Z</time>
      </trkpt>
      <trkpt lat="43.34298" lon="-1.63176">
        <ele>25</ele>
        <time>2021-06-21T06:10:46.515Z</time>
      </trkpt>
      <trkpt lat="43.34298" lon="-1.63176">
        <ele>25</ele>
        <time>2021-06-21T06:10:47.544Z</time>
      </trkpt>
      <trkpt lat="43.34296" lon="-1.63182">
        <ele>25</ele>
        <time>2021-06-21T06:10:48.515Z</time>
      </trkpt>
      <trkpt lat="43.34296" lon="-1.63182">
        <ele>25</ele>
        <time>2021-06-21T06:10:49.518Z</time>
      </trkpt>
      <trkpt lat="43.34294" lon="-1.63189">
        <ele>25</ele>
        <time>2021-06-21T06:10:50.533Z</time>
      </trkpt>
      <trkpt lat="43.34294" lon="-1.63189">
        <ele>25</ele>
        <time>2021-06-21T06:10:51.542Z</time>
      </trkpt>
      <trkpt lat="43.34292" lon="-1.63196">
        <ele>25</ele>
        <time>2021-06-21T06:10:52.511Z</time>
      </trkpt>
      <trkpt lat="43.34292" lon="-1.63196">
        <ele>25</ele>
        <time>2021-06-21T06:10:53.534Z</time>
      </trkpt>
      <trkpt lat="43.3429" lon="-1.63203">
        <ele>26</ele>
        <time>2021-06-21T06:10:54.544Z</time>
      </trkpt>
      <trkpt lat="43.3429" lon="-1.63203">
        <ele>26</ele>
        <time>2021-06-21T06:10:55.527Z</time>
      </trkpt>
      <trkpt lat="43.34287" lon="-1.63208">
        <ele>25</ele>
        <time>2021-06-21T06:10:56.534Z</time>
      </trkpt>
      <trkpt lat="43.34287" lon="-1.63208">
        <ele>25</ele>
        <time>2021-06-21T06:10:57.545Z</time>
      </trkpt>
      <trkpt lat="43.34284" lon="-1.63213">
        <ele>25</ele>
        <time>2021-06-21T06:10:58.514Z</time>
      </trkpt>
      <trkpt lat="43.34284" lon="-1.63213">
        <ele>25</ele>
        <time>2021-06-21T06:10:59.530Z</time>
      </trkpt>
      <trkpt lat="43.34282" lon="-1.63218">
        <ele>25</ele>
        <time>2021-06-21T06:11:00.536Z</time>
      </trkpt>
      <trkpt lat="43.34282" lon="-1.63218">
        <ele>25</ele>
        <time>2021-06-21T06:11:01.546Z</time>
      </trkpt>
      <trkpt lat="43.3428" lon="-1.63224">
        <ele>26</ele>
        <time>2021-06-21T06:11:02.517Z</time>
      </trkpt>
      <trkpt lat="43.3428" lon="-1.63224">
        <ele>26</ele>
        <time>2021-06-21T06:11:03.516Z</time>
      </trkpt>
      <trkpt lat="43.34277" lon="-1.6323">
        <ele>26</ele>
        <time>2021-06-21T06:11:04.524Z</time>
      </trkpt>
      <trkpt lat="43.34277" lon="-1.6323">
        <ele>26</ele>
        <time>2021-06-21T06:11:05.546Z</time>
      </trkpt>
      <trkpt lat="43.34275" lon="-1.63238">
        <ele>27</ele>
        <time>2021-06-21T06:11:06.517Z</time>
      </trkpt>
      <trkpt lat="43.34275" lon="-1.63238">
        <ele>27</ele>
        <time>2021-06-21T06:11:07.543Z</time>
      </trkpt>
      <trkpt lat="43.34271" lon="-1.63245">
        <ele>27</ele>
        <time>2021-06-21T06:11:08.515Z</time>
      </trkpt>
      <trkpt lat="43.3427" lon="-1.63249">
        <ele>27</ele>
        <time>2021-06-21T06:11:09.526Z</time>
      </trkpt>
      <trkpt lat="43.3427" lon="-1.63249">
        <ele>27</ele>
        <time>2021-06-21T06:11:10.538Z</time>
      </trkpt>
      <trkpt lat="43.34267" lon="-1.63255">
        <ele>28</ele>
        <time>2021-06-21T06:11:11.548Z</time>
      </trkpt>
      <trkpt lat="43.34265" lon="-1.63258">
        <ele>28</ele>
        <time>2021-06-21T06:11:12.509Z</time>
      </trkpt>
      <trkpt lat="43.34265" lon="-1.63258">
        <ele>28</ele>
        <time>2021-06-21T06:11:13.530Z</time>
      </trkpt>
      <trkpt lat="43.34262" lon="-1.63265">
        <ele>28</ele>
        <time>2021-06-21T06:11:14.539Z</time>
      </trkpt>
      <trkpt lat="43.34262" lon="-1.63265">
        <ele>28</ele>
        <time>2021-06-21T06:11:15.516Z</time>
      </trkpt>
      <trkpt lat="43.3426" lon="-1.63271">
        <ele>28</ele>
        <time>2021-06-21T06:11:16.529Z</time>
      </trkpt>
      <trkpt lat="43.3426" lon="-1.63271">
        <ele>28</ele>
        <time>2021-06-21T06:11:17.543Z</time>
      </trkpt>
      <trkpt lat="43.34257" lon="-1.63277">
        <ele>29</ele>
        <time>2021-06-21T06:11:18.514Z</time>
      </trkpt>
      <trkpt lat="43.34257" lon="-1.63277">
        <ele>29</ele>
        <time>2021-06-21T06:11:19.539Z</time>
      </trkpt>
      <trkpt lat="43.34255" lon="-1.63284">
        <ele>29</ele>
        <time>2021-06-21T06:11:20.547Z</time>
      </trkpt>
      <trkpt lat="43.34253" lon="-1.63287">
        <ele>29</ele>
        <time>2021-06-21T06:11:21.524Z</time>
      </trkpt>
      <trkpt lat="43.34253" lon="-1.63287">
        <ele>29</ele>
        <time>2021-06-21T06:11:22.510Z</time>
      </trkpt>
      <trkpt lat="43.3425" lon="-1.63293">
        <ele>29</ele>
        <time>2021-06-21T06:11:23.520Z</time>
      </trkpt>
      <trkpt lat="43.34249" lon="-1.63296">
        <ele>29</ele>
        <time>2021-06-21T06:11:24.535Z</time>
      </trkpt>
      <trkpt lat="43.34249" lon="-1.63296">
        <ele>29</ele>
        <time>2021-06-21T06:11:25.514Z</time>
      </trkpt>
      <trkpt lat="43.34246" lon="-1.63302">
        <ele>29</ele>
        <time>2021-06-21T06:11:26.527Z</time>
      </trkpt>
      <trkpt lat="43.34244" lon="-1.63305">
        <ele>29</ele>
        <time>2021-06-21T06:11:27.515Z</time>
      </trkpt>
      <trkpt lat="43.34244" lon="-1.63305">
        <ele>29</ele>
        <time>2021-06-21T06:11:28.531Z</time>
      </trkpt>
      <trkpt lat="43.34242" lon="-1.63312">
        <ele>29</ele>
        <time>2021-06-21T06:11:29.541Z</time>
      </trkpt>
      <trkpt lat="43.3424" lon="-1.63316">
        <ele>29</ele>
        <time>2021-06-21T06:11:30.519Z</time>
      </trkpt>
      <trkpt lat="43.34238" lon="-1.63319">
        <ele>29</ele>
        <time>2021-06-21T06:11:31.534Z</time>
      </trkpt>
      <trkpt lat="43.34238" lon="-1.63319">
        <ele>29</ele>
        <time>2021-06-21T06:11:32.516Z</time>
      </trkpt>
      <trkpt lat="43.34235" lon="-1.63325">
        <ele>30</ele>
        <time>2021-06-21T06:11:33.524Z</time>
      </trkpt>
      <trkpt lat="43.34234" lon="-1.63328">
        <ele>30</ele>
        <time>2021-06-21T06:11:34.539Z</time>
      </trkpt>
      <trkpt lat="43.34234" lon="-1.63328">
        <ele>30</ele>
        <time>2021-06-21T06:11:35.514Z</time>
      </trkpt>
      <trkpt lat="43.34233" lon="-1.63335">
        <ele>30</ele>
        <time>2021-06-21T06:11:36.524Z</time>
      </trkpt>
      <trkpt lat="43.34233" lon="-1.63335">
        <ele>30</ele>
        <time>2021-06-21T06:11:37.511Z</time>
      </trkpt>
      <trkpt lat="43.3423" lon="-1.63341">
        <ele>29</ele>
        <time>2021-06-21T06:11:38.518Z</time>
      </trkpt>
      <trkpt lat="43.34228" lon="-1.63344">
        <ele>29</ele>
        <time>2021-06-21T06:11:39.564Z</time>
      </trkpt>
      <trkpt lat="43.34228" lon="-1.63344">
        <ele>29</ele>
        <time>2021-06-21T06:11:40.539Z</time>
      </trkpt>
      <trkpt lat="43.34227" lon="-1.63351">
        <ele>30</ele>
        <time>2021-06-21T06:11:41.550Z</time>
      </trkpt>
      <trkpt lat="43.34226" lon="-1.63354">
        <ele>30</ele>
        <time>2021-06-21T06:11:42.509Z</time>
      </trkpt>
      <trkpt lat="43.34226" lon="-1.63354">
        <ele>30</ele>
        <time>2021-06-21T06:11:43.533Z</time>
      </trkpt>
      <trkpt lat="43.34224" lon="-1.63363">
        <ele>31</ele>
        <time>2021-06-21T06:11:44.539Z</time>
      </trkpt>
      <trkpt lat="43.34224" lon="-1.63363">
        <ele>31</ele>
        <time>2021-06-21T06:11:45.549Z</time>
      </trkpt>
      <trkpt lat="43.34224" lon="-1.63374">
        <ele>30</ele>
        <time>2021-06-21T06:11:46.540Z</time>
      </trkpt>
      <trkpt lat="43.34225" lon="-1.63379">
        <ele>30</ele>
        <time>2021-06-21T06:11:47.535Z</time>
      </trkpt>
      <trkpt lat="43.34226" lon="-1.63385">
        <ele>30</ele>
        <time>2021-06-21T06:11:48.509Z</time>
      </trkpt>
      <trkpt lat="43.34226" lon="-1.63385">
        <ele>30</ele>
        <time>2021-06-21T06:11:49.521Z</time>
      </trkpt>
      <trkpt lat="43.3423" lon="-1.63396">
        <ele>30</ele>
        <time>2021-06-21T06:11:50.536Z</time>
      </trkpt>
      <trkpt lat="43.34231" lon="-1.63401">
        <ele>30</ele>
        <time>2021-06-21T06:11:51.516Z</time>
      </trkpt>
      <trkpt lat="43.34231" lon="-1.63401">
        <ele>30</ele>
        <time>2021-06-21T06:11:52.537Z</time>
      </trkpt>
      <trkpt lat="43.34236" lon="-1.63412">
        <ele>31</ele>
        <time>2021-06-21T06:11:53.516Z</time>
      </trkpt>
      <trkpt lat="43.34238" lon="-1.63417">
        <ele>31</ele>
        <time>2021-06-21T06:11:54.533Z</time>
      </trkpt>
      <trkpt lat="43.34238" lon="-1.63417">
        <ele>31</ele>
        <time>2021-06-21T06:11:55.510Z</time>
      </trkpt>
      <trkpt lat="43.34242" lon="-1.63427">
        <ele>31</ele>
        <time>2021-06-21T06:11:56.517Z</time>
      </trkpt>
      <trkpt lat="43.34242" lon="-1.63427">
        <ele>31</ele>
        <time>2021-06-21T06:11:57.527Z</time>
      </trkpt>
      <trkpt lat="43.34245" lon="-1.63436">
        <ele>31</ele>
        <time>2021-06-21T06:11:58.529Z</time>
      </trkpt>
      <trkpt lat="43.34245" lon="-1.63436">
        <ele>31</ele>
        <time>2021-06-21T06:11:59.541Z</time>
      </trkpt>
      <trkpt lat="43.34249" lon="-1.63446">
        <ele>31</ele>
        <time>2021-06-21T06:12:00.511Z</time>
      </trkpt>
      <trkpt lat="43.34249" lon="-1.63446">
        <ele>31</ele>
        <time>2021-06-21T06:12:01.525Z</time>
      </trkpt>
      <trkpt lat="43.34252" lon="-1.63455">
        <ele>31</ele>
        <time>2021-06-21T06:12:02.534Z</time>
      </trkpt>
      <trkpt lat="43.34252" lon="-1.63455">
        <ele>31</ele>
        <time>2021-06-21T06:12:03.546Z</time>
      </trkpt>
      <trkpt lat="43.34255" lon="-1.63464">
        <ele>31</ele>
        <time>2021-06-21T06:12:04.514Z</time>
      </trkpt>
      <trkpt lat="43.34255" lon="-1.63464">
        <ele>31</ele>
        <time>2021-06-21T06:12:05.513Z</time>
      </trkpt>
      <trkpt lat="43.34258" lon="-1.63473">
        <ele>32</ele>
        <time>2021-06-21T06:12:06.544Z</time>
      </trkpt>
      <trkpt lat="43.34258" lon="-1.63473">
        <ele>32</ele>
        <time>2021-06-21T06:12:07.544Z</time>
      </trkpt>
      <trkpt lat="43.3426" lon="-1.63481">
        <ele>32</ele>
        <time>2021-06-21T06:12:08.511Z</time>
      </trkpt>
      <trkpt lat="43.3426" lon="-1.63481">
        <ele>32</ele>
        <time>2021-06-21T06:12:09.523Z</time>
      </trkpt>
      <trkpt lat="43.34261" lon="-1.63488">
        <ele>32</ele>
        <time>2021-06-21T06:12:10.531Z</time>
      </trkpt>
      <trkpt lat="43.34261" lon="-1.63488">
        <ele>32</ele>
        <time>2021-06-21T06:12:11.541Z</time>
      </trkpt>
      <trkpt lat="43.34262" lon="-1.63495">
        <ele>33</ele>
        <time>2021-06-21T06:12:12.544Z</time>
      </trkpt>
      <trkpt lat="43.34262" lon="-1.63495">
        <ele>33</ele>
        <time>2021-06-21T06:12:13.509Z</time>
      </trkpt>
      <trkpt lat="43.34263" lon="-1.63502">
        <ele>33</ele>
        <time>2021-06-21T06:12:14.518Z</time>
      </trkpt>
      <trkpt lat="43.34263" lon="-1.63502">
        <ele>33</ele>
        <time>2021-06-21T06:12:15.534Z</time>
      </trkpt>
      <trkpt lat="43.34263" lon="-1.63509">
        <ele>34</ele>
        <time>2021-06-21T06:12:16.548Z</time>
      </trkpt>
      <trkpt lat="43.34263" lon="-1.63509">
        <ele>34</ele>
        <time>2021-06-21T06:12:17.520Z</time>
      </trkpt>
      <trkpt lat="43.34262" lon="-1.63516">
        <ele>34</ele>
        <time>2021-06-21T06:12:18.535Z</time>
      </trkpt>
      <trkpt lat="43.34262" lon="-1.63516">
        <ele>34</ele>
        <time>2021-06-21T06:12:19.531Z</time>
      </trkpt>
      <trkpt lat="43.34262" lon="-1.63522">
        <ele>34</ele>
        <time>2021-06-21T06:12:20.544Z</time>
      </trkpt>
      <trkpt lat="43.34262" lon="-1.63522">
        <ele>34</ele>
        <time>2021-06-21T06:12:21.512Z</time>
      </trkpt>
      <trkpt lat="43.34262" lon="-1.63528">
        <ele>34</ele>
        <time>2021-06-21T06:12:22.531Z</time>
      </trkpt>
      <trkpt lat="43.34262" lon="-1.63528">
        <ele>34</ele>
        <time>2021-06-21T06:12:23.524Z</time>
      </trkpt>
      <trkpt lat="43.34261" lon="-1.63535">
        <ele>34</ele>
        <time>2021-06-21T06:12:24.533Z</time>
      </trkpt>
      <trkpt lat="43.34261" lon="-1.63535">
        <ele>34</ele>
        <time>2021-06-21T06:12:25.545Z</time>
      </trkpt>
      <trkpt lat="43.3426" lon="-1.6354">
        <ele>34</ele>
        <time>2021-06-21T06:12:26.524Z</time>
      </trkpt>
      <trkpt lat="43.3426" lon="-1.6354">
        <ele>34</ele>
        <time>2021-06-21T06:12:27.531Z</time>
      </trkpt>
      <trkpt lat="43.34259" lon="-1.63545">
        <ele>34</ele>
        <time>2021-06-21T06:12:28.546Z</time>
      </trkpt>
      <trkpt lat="43.34259" lon="-1.63545">
        <ele>34</ele>
        <time>2021-06-21T06:12:29.517Z</time>
      </trkpt>
      <trkpt lat="43.34259" lon="-1.63551">
        <ele>35</ele>
        <time>2021-06-21T06:12:30.523Z</time>
      </trkpt>
      <trkpt lat="43.34259" lon="-1.63551">
        <ele>35</ele>
        <time>2021-06-21T06:12:31.533Z</time>
      </trkpt>
      <trkpt lat="43.34258" lon="-1.63556">
        <ele>35</ele>
        <time>2021-06-21T06:12:32.524Z</time>
      </trkpt>
      <trkpt lat="43.34258" lon="-1.63556">
        <ele>35</ele>
        <time>2021-06-21T06:12:33.511Z</time>
      </trkpt>
      <trkpt lat="43.34257" lon="-1.63563">
        <ele>36</ele>
        <time>2021-06-21T06:12:34.524Z</time>
      </trkpt>
      <trkpt lat="43.34257" lon="-1.63563">
        <ele>36</ele>
        <time>2021-06-21T06:12:35.511Z</time>
      </trkpt>
      <trkpt lat="43.34255" lon="-1.63568">
        <ele>36</ele>
        <time>2021-06-21T06:12:36.518Z</time>
      </trkpt>
      <trkpt lat="43.34255" lon="-1.63568">
        <ele>36</ele>
        <time>2021-06-21T06:12:37.509Z</time>
      </trkpt>
      <trkpt lat="43.34253" lon="-1.63575">
        <ele>37</ele>
        <time>2021-06-21T06:12:38.581Z</time>
      </trkpt>
      <trkpt lat="43.34253" lon="-1.63575">
        <ele>37</ele>
        <time>2021-06-21T06:12:39.542Z</time>
      </trkpt>
      <trkpt lat="43.34251" lon="-1.6358">
        <ele>37</ele>
        <time>2021-06-21T06:12:40.510Z</time>
      </trkpt>
      <trkpt lat="43.34251" lon="-1.6358">
        <ele>37</ele>
        <time>2021-06-21T06:12:41.534Z</time>
      </trkpt>
      <trkpt lat="43.34249" lon="-1.63586">
        <ele>37</ele>
        <time>2021-06-21T06:12:42.540Z</time>
      </trkpt>
      <trkpt lat="43.34249" lon="-1.63586">
        <ele>37</ele>
        <time>2021-06-21T06:12:43.518Z</time>
      </trkpt>
      <trkpt lat="43.34247" lon="-1.6359">
        <ele>37</ele>
        <time>2021-06-21T06:12:44.528Z</time>
      </trkpt>
      <trkpt lat="43.34247" lon="-1.6359">
        <ele>37</ele>
        <time>2021-06-21T06:12:45.545Z</time>
      </trkpt>
      <trkpt lat="43.34245" lon="-1.63595">
        <ele>38</ele>
        <time>2021-06-21T06:12:46.513Z</time>
      </trkpt>
      <trkpt lat="43.34245" lon="-1.63595">
        <ele>38</ele>
        <time>2021-06-21T06:12:47.538Z</time>
      </trkpt>
      <trkpt lat="43.34243" lon="-1.636">
        <ele>38</ele>
        <time>2021-06-21T06:12:48.574Z</time>
      </trkpt>
      <trkpt lat="43.34243" lon="-1.636">
        <ele>38</ele>
        <time>2021-06-21T06:12:49.516Z</time>
      </trkpt>
      <trkpt lat="43.34241" lon="-1.63605">
        <ele>39</ele>
        <time>2021-06-21T06:12:50.531Z</time>
      </trkpt>
      <trkpt lat="43.34241" lon="-1.63605">
        <ele>39</ele>
        <time>2021-06-21T06:12:51.548Z</time>
      </trkpt>
      <trkpt lat="43.34239" lon="-1.6361">
        <ele>39</ele>
        <time>2021-06-21T06:12:52.518Z</time>
      </trkpt>
      <trkpt lat="43.34239" lon="-1.6361">
        <ele>39</ele>
        <time>2021-06-21T06:12:53.534Z</time>
      </trkpt>
      <trkpt lat="43.34237" lon="-1.63615">
        <ele>40</ele>
        <time>2021-06-21T06:12:54.541Z</time>
      </trkpt>
      <trkpt lat="43.34237" lon="-1.63615">
        <ele>40</ele>
        <time>2021-06-21T06:12:55.540Z</time>
      </trkpt>
      <trkpt lat="43.34235" lon="-1.6362">
        <ele>40</ele>
        <time>2021-06-21T06:12:56.551Z</time>
      </trkpt>
      <trkpt lat="43.34235" lon="-1.6362">
        <ele>40</ele>
        <time>2021-06-21T06:12:57.519Z</time>
      </trkpt>
      <trkpt lat="43.34232" lon="-1.63625">
        <ele>40</ele>
        <time>2021-06-21T06:12:58.526Z</time>
      </trkpt>
      <trkpt lat="43.34232" lon="-1.63625">
        <ele>40</ele>
        <time>2021-06-21T06:12:59.544Z</time>
      </trkpt>
      <trkpt lat="43.3423" lon="-1.63629">
        <ele>41</ele>
        <time>2021-06-21T06:13:00.511Z</time>
      </trkpt>
      <trkpt lat="43.3423" lon="-1.63629">
        <ele>41</ele>
        <time>2021-06-21T06:13:01.548Z</time>
      </trkpt>
      <trkpt lat="43.34228" lon="-1.63634">
        <ele>41</ele>
        <time>2021-06-21T06:13:02.545Z</time>
      </trkpt>
      <trkpt lat="43.34228" lon="-1.63634">
        <ele>41</ele>
        <time>2021-06-21T06:13:03.541Z</time>
      </trkpt>
      <trkpt lat="43.34225" lon="-1.63639">
        <ele>42</ele>
        <time>2021-06-21T06:13:04.509Z</time>
      </trkpt>
      <trkpt lat="43.34225" lon="-1.63639">
        <ele>42</ele>
        <time>2021-06-21T06:13:05.518Z</time>
      </trkpt>
      <trkpt lat="43.34223" lon="-1.63644">
        <ele>43</ele>
        <time>2021-06-21T06:13:06.529Z</time>
      </trkpt>
      <trkpt lat="43.34223" lon="-1.63644">
        <ele>43</ele>
        <time>2021-06-21T06:13:07.519Z</time>
      </trkpt>
      <trkpt lat="43.34222" lon="-1.63649">
        <ele>43</ele>
        <time>2021-06-21T06:13:08.522Z</time>
      </trkpt>
      <trkpt lat="43.34222" lon="-1.63649">
        <ele>43</ele>
        <time>2021-06-21T06:13:09.536Z</time>
      </trkpt>
      <trkpt lat="43.34219" lon="-1.63654">
        <ele>44</ele>
        <time>2021-06-21T06:13:10.548Z</time>
      </trkpt>
      <trkpt lat="43.34219" lon="-1.63654">
        <ele>44</ele>
        <time>2021-06-21T06:13:11.516Z</time>
      </trkpt>
      <trkpt lat="43.34217" lon="-1.6366">
        <ele>44</ele>
        <time>2021-06-21T06:13:12.537Z</time>
      </trkpt>
      <trkpt lat="43.34217" lon="-1.6366">
        <ele>44</ele>
        <time>2021-06-21T06:13:13.513Z</time>
      </trkpt>
      <trkpt lat="43.34216" lon="-1.63666">
        <ele>44</ele>
        <time>2021-06-21T06:13:14.519Z</time>
      </trkpt>
      <trkpt lat="43.34216" lon="-1.63666">
        <ele>44</ele>
        <time>2021-06-21T06:13:15.539Z</time>
      </trkpt>
      <trkpt lat="43.34214" lon="-1.63672">
        <ele>45</ele>
        <time>2021-06-21T06:13:16.521Z</time>
      </trkpt>
      <trkpt lat="43.34214" lon="-1.63672">
        <ele>45</ele>
        <time>2021-06-21T06:13:17.515Z</time>
      </trkpt>
      <trkpt lat="43.34213" lon="-1.63678">
        <ele>46</ele>
        <time>2021-06-21T06:13:18.523Z</time>
      </trkpt>
      <trkpt lat="43.34213" lon="-1.63678">
        <ele>46</ele>
        <time>2021-06-21T06:13:19.515Z</time>
      </trkpt>
      <trkpt lat="43.34211" lon="-1.63683">
        <ele>46</ele>
        <time>2021-06-21T06:13:20.521Z</time>
      </trkpt>
      <trkpt lat="43.34211" lon="-1.63683">
        <ele>46</ele>
        <time>2021-06-21T06:13:21.538Z</time>
      </trkpt>
      <trkpt lat="43.3421" lon="-1.6369">
        <ele>47</ele>
        <time>2021-06-21T06:13:22.541Z</time>
      </trkpt>
      <trkpt lat="43.3421" lon="-1.6369">
        <ele>47</ele>
        <time>2021-06-21T06:13:23.532Z</time>
      </trkpt>
      <trkpt lat="43.3421" lon="-1.63696">
        <ele>47</ele>
        <time>2021-06-21T06:13:24.509Z</time>
      </trkpt>
      <trkpt lat="43.3421" lon="-1.63696">
        <ele>47</ele>
        <time>2021-06-21T06:13:25.526Z</time>
      </trkpt>
      <trkpt lat="43.34209" lon="-1.63703">
        <ele>47</ele>
        <time>2021-06-21T06:13:26.532Z</time>
      </trkpt>
      <trkpt lat="43.34209" lon="-1.63703">
        <ele>47</ele>
        <time>2021-06-21T06:13:27.547Z</time>
      </trkpt>
      <trkpt lat="43.34209" lon="-1.6371">
        <ele>47</ele>
        <time>2021-06-21T06:13:28.550Z</time>
      </trkpt>
      <trkpt lat="43.34209" lon="-1.6371">
        <ele>47</ele>
        <time>2021-06-21T06:13:29.536Z</time>
      </trkpt>
      <trkpt lat="43.34209" lon="-1.63716">
        <ele>48</ele>
        <time>2021-06-21T06:13:30.542Z</time>
      </trkpt>
      <trkpt lat="43.34209" lon="-1.63716">
        <ele>48</ele>
        <time>2021-06-21T06:13:31.516Z</time>
      </trkpt>
      <trkpt lat="43.34209" lon="-1.63723">
        <ele>48</ele>
        <time>2021-06-21T06:13:32.522Z</time>
      </trkpt>
      <trkpt lat="43.34209" lon="-1.63723">
        <ele>48</ele>
        <time>2021-06-21T06:13:33.532Z</time>
      </trkpt>
      <trkpt lat="43.3421" lon="-1.63729">
        <ele>48</ele>
        <time>2021-06-21T06:13:34.522Z</time>
      </trkpt>
      <trkpt lat="43.3421" lon="-1.63729">
        <ele>48</ele>
        <time>2021-06-21T06:13:35.547Z</time>
      </trkpt>
      <trkpt lat="43.34211" lon="-1.63736">
        <ele>49</ele>
        <time>2021-06-21T06:13:36.515Z</time>
      </trkpt>
      <trkpt lat="43.34211" lon="-1.63736">
        <ele>49</ele>
        <time>2021-06-21T06:13:37.546Z</time>
      </trkpt>
      <trkpt lat="43.34213" lon="-1.63743">
        <ele>49</ele>
        <time>2021-06-21T06:13:38.515Z</time>
      </trkpt>
      <trkpt lat="43.34213" lon="-1.63743">
        <ele>49</ele>
        <time>2021-06-21T06:13:39.536Z</time>
      </trkpt>
      <trkpt lat="43.34216" lon="-1.63751">
        <ele>49</ele>
        <time>2021-06-21T06:13:40.541Z</time>
      </trkpt>
      <trkpt lat="43.34216" lon="-1.63751">
        <ele>49</ele>
        <time>2021-06-21T06:13:41.520Z</time>
      </trkpt>
      <trkpt lat="43.34218" lon="-1.63758">
        <ele>49</ele>
        <time>2021-06-21T06:13:42.511Z</time>
      </trkpt>
      <trkpt lat="43.34218" lon="-1.63758">
        <ele>49</ele>
        <time>2021-06-21T06:13:43.547Z</time>
      </trkpt>
      <trkpt lat="43.34221" lon="-1.63766">
        <ele>49</ele>
        <time>2021-06-21T06:13:44.518Z</time>
      </trkpt>
      <trkpt lat="43.34221" lon="-1.63766">
        <ele>49</ele>
        <time>2021-06-21T06:13:45.535Z</time>
      </trkpt>
      <trkpt lat="43.34223" lon="-1.63775">
        <ele>48</ele>
        <time>2021-06-21T06:13:46.542Z</time>
      </trkpt>
      <trkpt lat="43.34223" lon="-1.63775">
        <ele>48</ele>
        <time>2021-06-21T06:13:47.516Z</time>
      </trkpt>
      <trkpt lat="43.34225" lon="-1.63785">
        <ele>48</ele>
        <time>2021-06-21T06:13:48.664Z</time>
      </trkpt>
      <trkpt lat="43.34225" lon="-1.63785">
        <ele>48</ele>
        <time>2021-06-21T06:13:49.547Z</time>
      </trkpt>
      <trkpt lat="43.34227" lon="-1.63796">
        <ele>48</ele>
        <time>2021-06-21T06:13:50.514Z</time>
      </trkpt>
      <trkpt lat="43.34227" lon="-1.63796">
        <ele>48</ele>
        <time>2021-06-21T06:13:51.525Z</time>
      </trkpt>
      <trkpt lat="43.34229" lon="-1.63807">
        <ele>48</ele>
        <time>2021-06-21T06:13:52.533Z</time>
      </trkpt>
      <trkpt lat="43.34229" lon="-1.63807">
        <ele>48</ele>
        <time>2021-06-21T06:13:53.546Z</time>
      </trkpt>
      <trkpt lat="43.34231" lon="-1.63819">
        <ele>47</ele>
        <time>2021-06-21T06:13:54.513Z</time>
      </trkpt>
      <trkpt lat="43.34231" lon="-1.63819">
        <ele>47</ele>
        <time>2021-06-21T06:13:55.525Z</time>
      </trkpt>
      <trkpt lat="43.34232" lon="-1.63832">
        <ele>47</ele>
        <time>2021-06-21T06:13:56.538Z</time>
      </trkpt>
      <trkpt lat="43.34232" lon="-1.63832">
        <ele>47</ele>
        <time>2021-06-21T06:13:57.539Z</time>
      </trkpt>
      <trkpt lat="43.34232" lon="-1.63846">
        <ele>47</ele>
        <time>2021-06-21T06:13:58.547Z</time>
      </trkpt>
      <trkpt lat="43.34232" lon="-1.63846">
        <ele>47</ele>
        <time>2021-06-21T06:13:59.541Z</time>
      </trkpt>
      <trkpt lat="43.34232" lon="-1.63861">
        <ele>47</ele>
        <time>2021-06-21T06:14:00.547Z</time>
      </trkpt>
      <trkpt lat="43.34232" lon="-1.63861">
        <ele>47</ele>
        <time>2021-06-21T06:14:01.533Z</time>
      </trkpt>
      <trkpt lat="43.34229" lon="-1.63878">
        <ele>47</ele>
        <time>2021-06-21T06:14:02.540Z</time>
      </trkpt>
      <trkpt lat="43.34229" lon="-1.63878">
        <ele>47</ele>
        <time>2021-06-21T06:14:03.511Z</time>
      </trkpt>
      <trkpt lat="43.34226" lon="-1.63895">
        <ele>47</ele>
        <time>2021-06-21T06:14:04.528Z</time>
      </trkpt>
      <trkpt lat="43.34226" lon="-1.63895">
        <ele>47</ele>
        <time>2021-06-21T06:14:05.537Z</time>
      </trkpt>
      <trkpt lat="43.34221" lon="-1.63912">
        <ele>47</ele>
        <time>2021-06-21T06:14:06.543Z</time>
      </trkpt>
      <trkpt lat="43.34221" lon="-1.63912">
        <ele>47</ele>
        <time>2021-06-21T06:14:07.518Z</time>
      </trkpt>
      <trkpt lat="43.34215" lon="-1.6393">
        <ele>46</ele>
        <time>2021-06-21T06:14:08.523Z</time>
      </trkpt>
      <trkpt lat="43.34215" lon="-1.6393">
        <ele>46</ele>
        <time>2021-06-21T06:14:09.545Z</time>
      </trkpt>
      <trkpt lat="43.34208" lon="-1.63947">
        <ele>46</ele>
        <time>2021-06-21T06:14:10.521Z</time>
      </trkpt>
      <trkpt lat="43.34204" lon="-1.63956">
        <ele>46</ele>
        <time>2021-06-21T06:14:11.539Z</time>
      </trkpt>
      <trkpt lat="43.34201" lon="-1.63965">
        <ele>46</ele>
        <time>2021-06-21T06:14:12.516Z</time>
      </trkpt>
      <trkpt lat="43.34201" lon="-1.63965">
        <ele>46</ele>
        <time>2021-06-21T06:14:13.526Z</time>
      </trkpt>
      <trkpt lat="43.34193" lon="-1.63984">
        <ele>45</ele>
        <time>2021-06-21T06:14:14.534Z</time>
      </trkpt>
      <trkpt lat="43.34193" lon="-1.63984">
        <ele>45</ele>
        <time>2021-06-21T06:14:15.509Z</time>
      </trkpt>
      <trkpt lat="43.34186" lon="-1.64001">
        <ele>45</ele>
        <time>2021-06-21T06:14:16.527Z</time>
      </trkpt>
      <trkpt lat="43.34182" lon="-1.64009">
        <ele>45</ele>
        <time>2021-06-21T06:14:17.543Z</time>
      </trkpt>
      <trkpt lat="43.34178" lon="-1.64018">
        <ele>44</ele>
        <time>2021-06-21T06:14:18.529Z</time>
      </trkpt>
      <trkpt lat="43.34178" lon="-1.64018">
        <ele>44</ele>
        <time>2021-06-21T06:14:19.545Z</time>
      </trkpt>
      <trkpt lat="43.34166" lon="-1.64033">
        <ele>44</ele>
        <time>2021-06-21T06:14:20.510Z</time>
      </trkpt>
      <trkpt lat="43.34166" lon="-1.64033">
        <ele>44</ele>
        <time>2021-06-21T06:14:21.525Z</time>
      </trkpt>
      <trkpt lat="43.34152" lon="-1.64047">
        <ele>43</ele>
        <time>2021-06-21T06:14:22.547Z</time>
      </trkpt>
      <trkpt lat="43.34152" lon="-1.64047">
        <ele>43</ele>
        <time>2021-06-21T06:14:23.513Z</time>
      </trkpt>
      <trkpt lat="43.34135" lon="-1.64057">
        <ele>42</ele>
        <time>2021-06-21T06:14:24.519Z</time>
      </trkpt>
      <trkpt lat="43.34135" lon="-1.64057">
        <ele>42</ele>
        <time>2021-06-21T06:14:25.538Z</time>
      </trkpt>
      <trkpt lat="43.34117" lon="-1.64066">
        <ele>41</ele>
        <time>2021-06-21T06:14:26.545Z</time>
      </trkpt>
      <trkpt lat="43.34117" lon="-1.64066">
        <ele>41</ele>
        <time>2021-06-21T06:14:27.543Z</time>
      </trkpt>
      <trkpt lat="43.34099" lon="-1.64076">
        <ele>39</ele>
        <time>2021-06-21T06:14:28.532Z</time>
      </trkpt>
      <trkpt lat="43.34099" lon="-1.64076">
        <ele>39</ele>
        <time>2021-06-21T06:14:29.540Z</time>
      </trkpt>
      <trkpt lat="43.34082" lon="-1.64085">
        <ele>38</ele>
        <time>2021-06-21T06:14:30.510Z</time>
      </trkpt>
      <trkpt lat="43.34082" lon="-1.64085">
        <ele>38</ele>
        <time>2021-06-21T06:14:31.525Z</time>
      </trkpt>
      <trkpt lat="43.34066" lon="-1.64095">
        <ele>36</ele>
        <time>2021-06-21T06:14:32.531Z</time>
      </trkpt>
      <trkpt lat="43.34066" lon="-1.64095">
        <ele>36</ele>
        <time>2021-06-21T06:14:33.512Z</time>
      </trkpt>
      <trkpt lat="43.34052" lon="-1.64109">
        <ele>35</ele>
        <time>2021-06-21T06:14:34.519Z</time>
      </trkpt>
      <trkpt lat="43.34052" lon="-1.64109">
        <ele>35</ele>
        <time>2021-06-21T06:14:35.535Z</time>
      </trkpt>
      <trkpt lat="43.34039" lon="-1.64127">
        <ele>34</ele>
        <time>2021-06-21T06:14:36.535Z</time>
      </trkpt>
      <trkpt lat="43.34039" lon="-1.64127">
        <ele>34</ele>
        <time>2021-06-21T06:14:37.513Z</time>
      </trkpt>
      <trkpt lat="43.3403" lon="-1.64148">
        <ele>33</ele>
        <time>2021-06-21T06:14:38.520Z</time>
      </trkpt>
      <trkpt lat="43.3403" lon="-1.64148">
        <ele>33</ele>
        <time>2021-06-21T06:14:39.510Z</time>
      </trkpt>
      <trkpt lat="43.34025" lon="-1.64171">
        <ele>32</ele>
        <time>2021-06-21T06:14:40.518Z</time>
      </trkpt>
      <trkpt lat="43.34025" lon="-1.64171">
        <ele>32</ele>
        <time>2021-06-21T06:14:41.542Z</time>
      </trkpt>
      <trkpt lat="43.34023" lon="-1.64194">
        <ele>32</ele>
        <time>2021-06-21T06:14:42.524Z</time>
      </trkpt>
      <trkpt lat="43.34023" lon="-1.64194">
        <ele>32</ele>
        <time>2021-06-21T06:14:43.517Z</time>
      </trkpt>
      <trkpt lat="43.34024" lon="-1.64216">
        <ele>32</ele>
        <time>2021-06-21T06:14:44.524Z</time>
      </trkpt>
      <trkpt lat="43.34024" lon="-1.64216">
        <ele>32</ele>
        <time>2021-06-21T06:14:45.548Z</time>
      </trkpt>
      <trkpt lat="43.34026" lon="-1.64236">
        <ele>32</ele>
        <time>2021-06-21T06:14:46.541Z</time>
      </trkpt>
      <trkpt lat="43.34026" lon="-1.64236">
        <ele>32</ele>
        <time>2021-06-21T06:14:47.517Z</time>
      </trkpt>
      <trkpt lat="43.34027" lon="-1.64255">
        <ele>31</ele>
        <time>2021-06-21T06:14:48.548Z</time>
      </trkpt>
      <trkpt lat="43.34027" lon="-1.64255">
        <ele>31</ele>
        <time>2021-06-21T06:14:49.516Z</time>
      </trkpt>
      <trkpt lat="43.34026" lon="-1.64274">
        <ele>31</ele>
        <time>2021-06-21T06:14:50.522Z</time>
      </trkpt>
      <trkpt lat="43.34026" lon="-1.64274">
        <ele>31</ele>
        <time>2021-06-21T06:14:51.546Z</time>
      </trkpt>
      <trkpt lat="43.34024" lon="-1.64291">
        <ele>31</ele>
        <time>2021-06-21T06:14:52.535Z</time>
      </trkpt>
      <trkpt lat="43.34024" lon="-1.64291">
        <ele>31</ele>
        <time>2021-06-21T06:14:53.548Z</time>
      </trkpt>
      <trkpt lat="43.34022" lon="-1.64307">
        <ele>31</ele>
        <time>2021-06-21T06:14:54.518Z</time>
      </trkpt>
      <trkpt lat="43.34022" lon="-1.64307">
        <ele>31</ele>
        <time>2021-06-21T06:14:55.525Z</time>
      </trkpt>
      <trkpt lat="43.34019" lon="-1.64321">
        <ele>31</ele>
        <time>2021-06-21T06:14:56.531Z</time>
      </trkpt>
      <trkpt lat="43.34019" lon="-1.64321">
        <ele>31</ele>
        <time>2021-06-21T06:14:57.545Z</time>
      </trkpt>
      <trkpt lat="43.34017" lon="-1.64335">
        <ele>32</ele>
        <time>2021-06-21T06:14:58.524Z</time>
      </trkpt>
      <trkpt lat="43.34017" lon="-1.64335">
        <ele>32</ele>
        <time>2021-06-21T06:14:59.509Z</time>
      </trkpt>
      <trkpt lat="43.34014" lon="-1.64349">
        <ele>32</ele>
        <time>2021-06-21T06:15:00.516Z</time>
      </trkpt>
      <trkpt lat="43.34014" lon="-1.64349">
        <ele>32</ele>
        <time>2021-06-21T06:15:01.543Z</time>
      </trkpt>
      <trkpt lat="43.34012" lon="-1.64361">
        <ele>32</ele>
        <time>2021-06-21T06:15:02.512Z</time>
      </trkpt>
      <trkpt lat="43.34012" lon="-1.64361">
        <ele>32</ele>
        <time>2021-06-21T06:15:03.542Z</time>
      </trkpt>
      <trkpt lat="43.34009" lon="-1.64374">
        <ele>32</ele>
        <time>2021-06-21T06:15:04.544Z</time>
      </trkpt>
      <trkpt lat="43.34009" lon="-1.64374">
        <ele>32</ele>
        <time>2021-06-21T06:15:05.535Z</time>
      </trkpt>
      <trkpt lat="43.34007" lon="-1.64386">
        <ele>32</ele>
        <time>2021-06-21T06:15:06.544Z</time>
      </trkpt>
      <trkpt lat="43.34007" lon="-1.64386">
        <ele>32</ele>
        <time>2021-06-21T06:15:07.520Z</time>
      </trkpt>
      <trkpt lat="43.34005" lon="-1.64399">
        <ele>33</ele>
        <time>2021-06-21T06:15:08.541Z</time>
      </trkpt>
      <trkpt lat="43.34005" lon="-1.64399">
        <ele>33</ele>
        <time>2021-06-21T06:15:09.527Z</time>
      </trkpt>
      <trkpt lat="43.34002" lon="-1.64411">
        <ele>33</ele>
        <time>2021-06-21T06:15:10.538Z</time>
      </trkpt>
      <trkpt lat="43.34002" lon="-1.64411">
        <ele>33</ele>
        <time>2021-06-21T06:15:11.514Z</time>
      </trkpt>
      <trkpt lat="43.34" lon="-1.64423">
        <ele>33</ele>
        <time>2021-06-21T06:15:12.521Z</time>
      </trkpt>
      <trkpt lat="43.34" lon="-1.64423">
        <ele>33</ele>
        <time>2021-06-21T06:15:13.512Z</time>
      </trkpt>
      <trkpt lat="43.33997" lon="-1.64434">
        <ele>33</ele>
        <time>2021-06-21T06:15:14.519Z</time>
      </trkpt>
      <trkpt lat="43.33997" lon="-1.64434">
        <ele>33</ele>
        <time>2021-06-21T06:15:15.535Z</time>
      </trkpt>
      <trkpt lat="43.33995" lon="-1.64446">
        <ele>33</ele>
        <time>2021-06-21T06:15:16.535Z</time>
      </trkpt>
      <trkpt lat="43.33995" lon="-1.64446">
        <ele>33</ele>
        <time>2021-06-21T06:15:17.538Z</time>
      </trkpt>
      <trkpt lat="43.33992" lon="-1.64458">
        <ele>33</ele>
        <time>2021-06-21T06:15:18.518Z</time>
      </trkpt>
      <trkpt lat="43.33992" lon="-1.64458">
        <ele>33</ele>
        <time>2021-06-21T06:15:19.536Z</time>
      </trkpt>
      <trkpt lat="43.3399" lon="-1.6447">
        <ele>33</ele>
        <time>2021-06-21T06:15:20.543Z</time>
      </trkpt>
      <trkpt lat="43.33988" lon="-1.64476">
        <ele>33</ele>
        <time>2021-06-21T06:15:21.518Z</time>
      </trkpt>
      <trkpt lat="43.33988" lon="-1.64476">
        <ele>33</ele>
        <time>2021-06-21T06:15:22.545Z</time>
      </trkpt>
      <trkpt lat="43.33986" lon="-1.64488">
        <ele>33</ele>
        <time>2021-06-21T06:15:23.549Z</time>
      </trkpt>
      <trkpt lat="43.33984" lon="-1.64494">
        <ele>33</ele>
        <time>2021-06-21T06:15:24.522Z</time>
      </trkpt>
      <trkpt lat="43.33984" lon="-1.64494">
        <ele>33</ele>
        <time>2021-06-21T06:15:25.537Z</time>
      </trkpt>
      <trkpt lat="43.33982" lon="-1.64505">
        <ele>34</ele>
        <time>2021-06-21T06:15:26.548Z</time>
      </trkpt>
      <trkpt lat="43.33981" lon="-1.64511">
        <ele>34</ele>
        <time>2021-06-21T06:15:27.531Z</time>
      </trkpt>
      <trkpt lat="43.33981" lon="-1.64511">
        <ele>34</ele>
        <time>2021-06-21T06:15:28.543Z</time>
      </trkpt>
      <trkpt lat="43.33978" lon="-1.64522">
        <ele>34</ele>
        <time>2021-06-21T06:15:29.510Z</time>
      </trkpt>
      <trkpt lat="43.33977" lon="-1.64527">
        <ele>34</ele>
        <time>2021-06-21T06:15:30.523Z</time>
      </trkpt>
      <trkpt lat="43.33977" lon="-1.64527">
        <ele>34</ele>
        <time>2021-06-21T06:15:31.539Z</time>
      </trkpt>
      <trkpt lat="43.33973" lon="-1.64538">
        <ele>34</ele>
        <time>2021-06-21T06:15:32.547Z</time>
      </trkpt>
      <trkpt lat="43.33973" lon="-1.64538">
        <ele>34</ele>
        <time>2021-06-21T06:15:33.536Z</time>
      </trkpt>
      <trkpt lat="43.33971" lon="-1.64548">
        <ele>34</ele>
        <time>2021-06-21T06:15:34.546Z</time>
      </trkpt>
      <trkpt lat="43.3397" lon="-1.64553">
        <ele>34</ele>
        <time>2021-06-21T06:15:35.530Z</time>
      </trkpt>
      <trkpt lat="43.33968" lon="-1.64558">
        <ele>33</ele>
        <time>2021-06-21T06:15:36.542Z</time>
      </trkpt>
      <trkpt lat="43.33968" lon="-1.64558">
        <ele>33</ele>
        <time>2021-06-21T06:15:37.518Z</time>
      </trkpt>
      <trkpt lat="43.33966" lon="-1.64568">
        <ele>34</ele>
        <time>2021-06-21T06:15:38.529Z</time>
      </trkpt>
      <trkpt lat="43.33966" lon="-1.64568">
        <ele>34</ele>
        <time>2021-06-21T06:15:39.511Z</time>
      </trkpt>
      <trkpt lat="43.33964" lon="-1.64579">
        <ele>34</ele>
        <time>2021-06-21T06:15:40.516Z</time>
      </trkpt>
      <trkpt lat="43.33963" lon="-1.64584">
        <ele>34</ele>
        <time>2021-06-21T06:15:41.540Z</time>
      </trkpt>
      <trkpt lat="43.33962" lon="-1.64589">
        <ele>34</ele>
        <time>2021-06-21T06:15:42.511Z</time>
      </trkpt>
      <trkpt lat="43.33962" lon="-1.64589">
        <ele>34</ele>
        <time>2021-06-21T06:15:43.534Z</time>
      </trkpt>
      <trkpt lat="43.3396" lon="-1.646">
        <ele>35</ele>
        <time>2021-06-21T06:15:44.540Z</time>
      </trkpt>
      <trkpt lat="43.3396" lon="-1.646">
        <ele>35</ele>
        <time>2021-06-21T06:15:45.534Z</time>
      </trkpt>
      <trkpt lat="43.33958" lon="-1.64611">
        <ele>35</ele>
        <time>2021-06-21T06:15:46.540Z</time>
      </trkpt>
      <trkpt lat="43.33958" lon="-1.64611">
        <ele>35</ele>
        <time>2021-06-21T06:15:47.510Z</time>
      </trkpt>
      <trkpt lat="43.33956" lon="-1.64621">
        <ele>36</ele>
        <time>2021-06-21T06:15:48.528Z</time>
      </trkpt>
      <trkpt lat="43.33956" lon="-1.64621">
        <ele>36</ele>
        <time>2021-06-21T06:15:49.536Z</time>
      </trkpt>
      <trkpt lat="43.33954" lon="-1.64632">
        <ele>37</ele>
        <time>2021-06-21T06:15:50.541Z</time>
      </trkpt>
      <trkpt lat="43.33953" lon="-1.64637">
        <ele>37</ele>
        <time>2021-06-21T06:15:51.523Z</time>
      </trkpt>
      <trkpt lat="43.33953" lon="-1.64637">
        <ele>37</ele>
        <time>2021-06-21T06:15:52.541Z</time>
      </trkpt>
      <trkpt lat="43.33951" lon="-1.64646">
        <ele>37</ele>
        <time>2021-06-21T06:15:53.511Z</time>
      </trkpt>
      <trkpt lat="43.3395" lon="-1.64651">
        <ele>37</ele>
        <time>2021-06-21T06:15:54.526Z</time>
      </trkpt>
      <trkpt lat="43.3395" lon="-1.64651">
        <ele>37</ele>
        <time>2021-06-21T06:15:55.534Z</time>
      </trkpt>
      <trkpt lat="43.33948" lon="-1.6466">
        <ele>38</ele>
        <time>2021-06-21T06:15:56.540Z</time>
      </trkpt>
      <trkpt lat="43.33948" lon="-1.6466">
        <ele>38</ele>
        <time>2021-06-21T06:15:57.509Z</time>
      </trkpt>
      <trkpt lat="43.33946" lon="-1.64668">
        <ele>38</ele>
        <time>2021-06-21T06:15:58.518Z</time>
      </trkpt>
      <trkpt lat="43.33946" lon="-1.64668">
        <ele>38</ele>
        <time>2021-06-21T06:15:59.534Z</time>
      </trkpt>
      <trkpt lat="43.33944" lon="-1.64676">
        <ele>39</ele>
        <time>2021-06-21T06:16:00.510Z</time>
      </trkpt>
      <trkpt lat="43.33944" lon="-1.64676">
        <ele>39</ele>
        <time>2021-06-21T06:16:01.521Z</time>
      </trkpt>
      <trkpt lat="43.33942" lon="-1.64682">
        <ele>39</ele>
        <time>2021-06-21T06:16:02.529Z</time>
      </trkpt>
      <trkpt lat="43.33941" lon="-1.64686">
        <ele>39</ele>
        <time>2021-06-21T06:16:03.516Z</time>
      </trkpt>
      <trkpt lat="43.33941" lon="-1.64686">
        <ele>39</ele>
        <time>2021-06-21T06:16:04.534Z</time>
      </trkpt>
      <trkpt lat="43.3394" lon="-1.64693">
        <ele>39</ele>
        <time>2021-06-21T06:16:05.541Z</time>
      </trkpt>
      <trkpt lat="43.33939" lon="-1.64695">
        <ele>40</ele>
        <time>2021-06-21T06:16:06.529Z</time>
      </trkpt>
      <trkpt lat="43.33939" lon="-1.64695">
        <ele>40</ele>
        <time>2021-06-21T06:16:07.546Z</time>
      </trkpt>
      <trkpt lat="43.33937" lon="-1.64703">
        <ele>40</ele>
        <time>2021-06-21T06:16:08.512Z</time>
      </trkpt>
      <trkpt lat="43.33937" lon="-1.64703">
        <ele>40</ele>
        <time>2021-06-21T06:16:09.531Z</time>
      </trkpt>
      <trkpt lat="43.33935" lon="-1.64709">
        <ele>40</ele>
        <time>2021-06-21T06:16:10.623Z</time>
      </trkpt>
      <trkpt lat="43.33935" lon="-1.64709">
        <ele>40</ele>
        <time>2021-06-21T06:16:11.515Z</time>
      </trkpt>
      <trkpt lat="43.33933" lon="-1.64716">
        <ele>40</ele>
        <time>2021-06-21T06:16:12.522Z</time>
      </trkpt>
      <trkpt lat="43.33933" lon="-1.64716">
        <ele>40</ele>
        <time>2021-06-21T06:16:13.534Z</time>
      </trkpt>
      <trkpt lat="43.33931" lon="-1.64724">
        <ele>40</ele>
        <time>2021-06-21T06:16:14.540Z</time>
      </trkpt>
      <trkpt lat="43.33931" lon="-1.64724">
        <ele>40</ele>
        <time>2021-06-21T06:16:15.527Z</time>
      </trkpt>
      <trkpt lat="43.33929" lon="-1.64731">
        <ele>41</ele>
        <time>2021-06-21T06:16:16.550Z</time>
      </trkpt>
      <trkpt lat="43.33929" lon="-1.64731">
        <ele>41</ele>
        <time>2021-06-21T06:16:17.520Z</time>
      </trkpt>
      <trkpt lat="43.33928" lon="-1.64738">
        <ele>41</ele>
        <time>2021-06-21T06:16:18.527Z</time>
      </trkpt>
      <trkpt lat="43.33928" lon="-1.64738">
        <ele>41</ele>
        <time>2021-06-21T06:16:19.538Z</time>
      </trkpt>
      <trkpt lat="43.33926" lon="-1.64746">
        <ele>41</ele>
        <time>2021-06-21T06:16:20.515Z</time>
      </trkpt>
      <trkpt lat="43.33926" lon="-1.64746">
        <ele>41</ele>
        <time>2021-06-21T06:16:21.512Z</time>
      </trkpt>
      <trkpt lat="43.33925" lon="-1.64754">
        <ele>40</ele>
        <time>2021-06-21T06:16:22.529Z</time>
      </trkpt>
      <trkpt lat="43.33925" lon="-1.64754">
        <ele>40</ele>
        <time>2021-06-21T06:16:23.534Z</time>
      </trkpt>
      <trkpt lat="43.33924" lon="-1.64763">
        <ele>41</ele>
        <time>2021-06-21T06:16:24.541Z</time>
      </trkpt>
      <trkpt lat="43.33924" lon="-1.64763">
        <ele>41</ele>
        <time>2021-06-21T06:16:25.511Z</time>
      </trkpt>
      <trkpt lat="43.33923" lon="-1.64771">
        <ele>41</ele>
        <time>2021-06-21T06:16:26.529Z</time>
      </trkpt>
      <trkpt lat="43.33923" lon="-1.64771">
        <ele>41</ele>
        <time>2021-06-21T06:16:27.516Z</time>
      </trkpt>
      <trkpt lat="43.33921" lon="-1.64778">
        <ele>40</ele>
        <time>2021-06-21T06:16:28.522Z</time>
      </trkpt>
      <trkpt lat="43.33921" lon="-1.64782">
        <ele>41</ele>
        <time>2021-06-21T06:16:29.538Z</time>
      </trkpt>
      <trkpt lat="43.33919" lon="-1.64785">
        <ele>41</ele>
        <time>2021-06-21T06:16:30.517Z</time>
      </trkpt>
      <trkpt lat="43.33919" lon="-1.64785">
        <ele>41</ele>
        <time>2021-06-21T06:16:31.537Z</time>
      </trkpt>
      <trkpt lat="43.33918" lon="-1.64793">
        <ele>41</ele>
        <time>2021-06-21T06:16:32.547Z</time>
      </trkpt>
      <trkpt lat="43.33917" lon="-1.64796">
        <ele>41</ele>
        <time>2021-06-21T06:16:33.509Z</time>
      </trkpt>
      <trkpt lat="43.33917" lon="-1.64796">
        <ele>41</ele>
        <time>2021-06-21T06:16:34.517Z</time>
      </trkpt>
      <trkpt lat="43.33915" lon="-1.64803">
        <ele>41</ele>
        <time>2021-06-21T06:16:35.528Z</time>
      </trkpt>
      <trkpt lat="43.33914" lon="-1.64807">
        <ele>41</ele>
        <time>2021-06-21T06:16:36.540Z</time>
      </trkpt>
      <trkpt lat="43.33914" lon="-1.64807">
        <ele>41</ele>
        <time>2021-06-21T06:16:37.547Z</time>
      </trkpt>
      <trkpt lat="43.33913" lon="-1.64816">
        <ele>42</ele>
        <time>2021-06-21T06:16:38.513Z</time>
      </trkpt>
      <trkpt lat="43.33913" lon="-1.64816">
        <ele>42</ele>
        <time>2021-06-21T06:16:39.525Z</time>
      </trkpt>
      <trkpt lat="43.33912" lon="-1.64824">
        <ele>42</ele>
        <time>2021-06-21T06:16:40.536Z</time>
      </trkpt>
      <trkpt lat="43.33912" lon="-1.64824">
        <ele>42</ele>
        <time>2021-06-21T06:16:41.537Z</time>
      </trkpt>
      <trkpt lat="43.33911" lon="-1.64832">
        <ele>43</ele>
        <time>2021-06-21T06:16:42.510Z</time>
      </trkpt>
      <trkpt lat="43.33911" lon="-1.64832">
        <ele>43</ele>
        <time>2021-06-21T06:16:43.548Z</time>
      </trkpt>
      <trkpt lat="43.33909" lon="-1.6484">
        <ele>44</ele>
        <time>2021-06-21T06:16:44.519Z</time>
      </trkpt>
      <trkpt lat="43.33909" lon="-1.6484">
        <ele>44</ele>
        <time>2021-06-21T06:16:45.538Z</time>
      </trkpt>
      <trkpt lat="43.33907" lon="-1.64847">
        <ele>44</ele>
        <time>2021-06-21T06:16:46.535Z</time>
      </trkpt>
      <trkpt lat="43.33907" lon="-1.64847">
        <ele>44</ele>
        <time>2021-06-21T06:16:47.540Z</time>
      </trkpt>
      <trkpt lat="43.33906" lon="-1.64855">
        <ele>45</ele>
        <time>2021-06-21T06:16:48.511Z</time>
      </trkpt>
      <trkpt lat="43.33906" lon="-1.64855">
        <ele>45</ele>
        <time>2021-06-21T06:16:49.520Z</time>
      </trkpt>
      <trkpt lat="43.33904" lon="-1.64862">
        <ele>45</ele>
        <time>2021-06-21T06:16:50.528Z</time>
      </trkpt>
      <trkpt lat="43.33904" lon="-1.64862">
        <ele>45</ele>
        <time>2021-06-21T06:16:51.516Z</time>
      </trkpt>
      <trkpt lat="43.33902" lon="-1.64869">
        <ele>45</ele>
        <time>2021-06-21T06:16:52.523Z</time>
      </trkpt>
      <trkpt lat="43.33902" lon="-1.64869">
        <ele>45</ele>
        <time>2021-06-21T06:16:53.519Z</time>
      </trkpt>
      <trkpt lat="43.33901" lon="-1.64877">
        <ele>45</ele>
        <time>2021-06-21T06:16:54.525Z</time>
      </trkpt>
      <trkpt lat="43.33901" lon="-1.64877">
        <ele>45</ele>
        <time>2021-06-21T06:16:55.539Z</time>
      </trkpt>
      <trkpt lat="43.33899" lon="-1.64884">
        <ele>46</ele>
        <time>2021-06-21T06:16:56.509Z</time>
      </trkpt>
      <trkpt lat="43.33899" lon="-1.64884">
        <ele>46</ele>
        <time>2021-06-21T06:16:57.528Z</time>
      </trkpt>
      <trkpt lat="43.33899" lon="-1.64891">
        <ele>47</ele>
        <time>2021-06-21T06:16:58.525Z</time>
      </trkpt>
      <trkpt lat="43.33899" lon="-1.64891">
        <ele>47</ele>
        <time>2021-06-21T06:16:59.515Z</time>
      </trkpt>
      <trkpt lat="43.33897" lon="-1.64899">
        <ele>47</ele>
        <time>2021-06-21T06:17:00.524Z</time>
      </trkpt>
      <trkpt lat="43.33897" lon="-1.64899">
        <ele>47</ele>
        <time>2021-06-21T06:17:01.534Z</time>
      </trkpt>
      <trkpt lat="43.33896" lon="-1.64906">
        <ele>47</ele>
        <time>2021-06-21T06:17:02.541Z</time>
      </trkpt>
      <trkpt lat="43.33896" lon="-1.64906">
        <ele>47</ele>
        <time>2021-06-21T06:17:03.509Z</time>
      </trkpt>
      <trkpt lat="43.33895" lon="-1.64913">
        <ele>47</ele>
        <time>2021-06-21T06:17:04.538Z</time>
      </trkpt>
      <trkpt lat="43.33895" lon="-1.64913">
        <ele>47</ele>
        <time>2021-06-21T06:17:05.547Z</time>
      </trkpt>
      <trkpt lat="43.33894" lon="-1.64921">
        <ele>47</ele>
        <time>2021-06-21T06:17:06.518Z</time>
      </trkpt>
      <trkpt lat="43.33894" lon="-1.64921">
        <ele>47</ele>
        <time>2021-06-21T06:17:07.518Z</time>
      </trkpt>
      <trkpt lat="43.33892" lon="-1.64929">
        <ele>48</ele>
        <time>2021-06-21T06:17:08.572Z</time>
      </trkpt>
      <trkpt lat="43.33892" lon="-1.64929">
        <ele>48</ele>
        <time>2021-06-21T06:17:09.534Z</time>
      </trkpt>
      <trkpt lat="43.33891" lon="-1.64937">
        <ele>48</ele>
        <time>2021-06-21T06:17:10.543Z</time>
      </trkpt>
      <trkpt lat="43.33891" lon="-1.64937">
        <ele>48</ele>
        <time>2021-06-21T06:17:11.518Z</time>
      </trkpt>
      <trkpt lat="43.3389" lon="-1.64943">
        <ele>49</ele>
        <time>2021-06-21T06:17:12.526Z</time>
      </trkpt>
      <trkpt lat="43.3389" lon="-1.64943">
        <ele>49</ele>
        <time>2021-06-21T06:17:13.543Z</time>
      </trkpt>
      <trkpt lat="43.33888" lon="-1.6495">
        <ele>49</ele>
        <time>2021-06-21T06:17:14.531Z</time>
      </trkpt>
      <trkpt lat="43.33888" lon="-1.6495">
        <ele>49</ele>
        <time>2021-06-21T06:17:15.521Z</time>
      </trkpt>
      <trkpt lat="43.33887" lon="-1.64957">
        <ele>49</ele>
        <time>2021-06-21T06:17:16.536Z</time>
      </trkpt>
      <trkpt lat="43.33887" lon="-1.64957">
        <ele>49</ele>
        <time>2021-06-21T06:17:17.529Z</time>
      </trkpt>
      <trkpt lat="43.33885" lon="-1.64964">
        <ele>49</ele>
        <time>2021-06-21T06:17:18.537Z</time>
      </trkpt>
      <trkpt lat="43.33885" lon="-1.64964">
        <ele>49</ele>
        <time>2021-06-21T06:17:19.543Z</time>
      </trkpt>
      <trkpt lat="43.33883" lon="-1.64971">
        <ele>49</ele>
        <time>2021-06-21T06:17:20.557Z</time>
      </trkpt>
      <trkpt lat="43.33883" lon="-1.64971">
        <ele>49</ele>
        <time>2021-06-21T06:17:21.543Z</time>
      </trkpt>
      <trkpt lat="43.33882" lon="-1.64978">
        <ele>49</ele>
        <time>2021-06-21T06:17:22.519Z</time>
      </trkpt>
      <trkpt lat="43.33882" lon="-1.64978">
        <ele>49</ele>
        <time>2021-06-21T06:17:23.536Z</time>
      </trkpt>
      <trkpt lat="43.3388" lon="-1.64985">
        <ele>49</ele>
        <time>2021-06-21T06:17:24.516Z</time>
      </trkpt>
      <trkpt lat="43.3388" lon="-1.64985">
        <ele>49</ele>
        <time>2021-06-21T06:17:25.536Z</time>
      </trkpt>
      <trkpt lat="43.33878" lon="-1.64992">
        <ele>49</ele>
        <time>2021-06-21T06:17:26.567Z</time>
      </trkpt>
      <trkpt lat="43.33878" lon="-1.64992">
        <ele>49</ele>
        <time>2021-06-21T06:17:27.524Z</time>
      </trkpt>
      <trkpt lat="43.33876" lon="-1.64999">
        <ele>49</ele>
        <time>2021-06-21T06:17:28.530Z</time>
      </trkpt>
      <trkpt lat="43.33876" lon="-1.64999">
        <ele>49</ele>
        <time>2021-06-21T06:17:29.519Z</time>
      </trkpt>
      <trkpt lat="43.33875" lon="-1.65006">
        <ele>49</ele>
        <time>2021-06-21T06:17:30.525Z</time>
      </trkpt>
      <trkpt lat="43.33875" lon="-1.65006">
        <ele>49</ele>
        <time>2021-06-21T06:17:31.540Z</time>
      </trkpt>
      <trkpt lat="43.33873" lon="-1.65012">
        <ele>49</ele>
        <time>2021-06-21T06:17:32.531Z</time>
      </trkpt>
      <trkpt lat="43.33873" lon="-1.65012">
        <ele>49</ele>
        <time>2021-06-21T06:17:33.536Z</time>
      </trkpt>
      <trkpt lat="43.33871" lon="-1.6502">
        <ele>49</ele>
        <time>2021-06-21T06:17:34.543Z</time>
      </trkpt>
      <trkpt lat="43.33871" lon="-1.6502">
        <ele>49</ele>
        <time>2021-06-21T06:17:35.515Z</time>
      </trkpt>
      <trkpt lat="43.3387" lon="-1.65028">
        <ele>50</ele>
        <time>2021-06-21T06:17:36.545Z</time>
      </trkpt>
      <trkpt lat="43.3387" lon="-1.65028">
        <ele>50</ele>
        <time>2021-06-21T06:17:37.510Z</time>
      </trkpt>
      <trkpt lat="43.33868" lon="-1.65036">
        <ele>50</ele>
        <time>2021-06-21T06:17:38.516Z</time>
      </trkpt>
      <trkpt lat="43.33868" lon="-1.65036">
        <ele>50</ele>
        <time>2021-06-21T06:17:39.548Z</time>
      </trkpt>
      <trkpt lat="43.33866" lon="-1.65043">
        <ele>51</ele>
        <time>2021-06-21T06:17:40.514Z</time>
      </trkpt>
      <trkpt lat="43.33866" lon="-1.65043">
        <ele>51</ele>
        <time>2021-06-21T06:17:41.527Z</time>
      </trkpt>
      <trkpt lat="43.33865" lon="-1.6505">
        <ele>51</ele>
        <time>2021-06-21T06:17:42.514Z</time>
      </trkpt>
      <trkpt lat="43.33865" lon="-1.6505">
        <ele>51</ele>
        <time>2021-06-21T06:17:43.528Z</time>
      </trkpt>
      <trkpt lat="43.33863" lon="-1.65057">
        <ele>52</ele>
        <time>2021-06-21T06:17:44.539Z</time>
      </trkpt>
      <trkpt lat="43.33863" lon="-1.65057">
        <ele>52</ele>
        <time>2021-06-21T06:17:45.520Z</time>
      </trkpt>
      <trkpt lat="43.33862" lon="-1.65063">
        <ele>52</ele>
        <time>2021-06-21T06:17:46.526Z</time>
      </trkpt>
      <trkpt lat="43.33862" lon="-1.65063">
        <ele>52</ele>
        <time>2021-06-21T06:17:47.542Z</time>
      </trkpt>
      <trkpt lat="43.3386" lon="-1.6507">
        <ele>52</ele>
        <time>2021-06-21T06:17:48.529Z</time>
      </trkpt>
      <trkpt lat="43.3386" lon="-1.6507">
        <ele>52</ele>
        <time>2021-06-21T06:17:49.547Z</time>
      </trkpt>
      <trkpt lat="43.33858" lon="-1.65077">
        <ele>52</ele>
        <time>2021-06-21T06:17:50.513Z</time>
      </trkpt>
      <trkpt lat="43.33858" lon="-1.65077">
        <ele>52</ele>
        <time>2021-06-21T06:17:51.546Z</time>
      </trkpt>
      <trkpt lat="43.33857" lon="-1.65084">
        <ele>53</ele>
        <time>2021-06-21T06:17:52.512Z</time>
      </trkpt>
      <trkpt lat="43.33857" lon="-1.65084">
        <ele>53</ele>
        <time>2021-06-21T06:17:53.526Z</time>
      </trkpt>
      <trkpt lat="43.33856" lon="-1.65092">
        <ele>53</ele>
        <time>2021-06-21T06:17:54.539Z</time>
      </trkpt>
      <trkpt lat="43.33856" lon="-1.65092">
        <ele>53</ele>
        <time>2021-06-21T06:17:55.546Z</time>
      </trkpt>
      <trkpt lat="43.33854" lon="-1.65099">
        <ele>54</ele>
        <time>2021-06-21T06:17:56.513Z</time>
      </trkpt>
      <trkpt lat="43.33853" lon="-1.65103">
        <ele>54</ele>
        <time>2021-06-21T06:17:57.524Z</time>
      </trkpt>
      <trkpt lat="43.33853" lon="-1.65103">
        <ele>54</ele>
        <time>2021-06-21T06:17:58.525Z</time>
      </trkpt>
      <trkpt lat="43.33852" lon="-1.6511">
        <ele>53</ele>
        <time>2021-06-21T06:17:59.535Z</time>
      </trkpt>
      <trkpt lat="43.33851" lon="-1.65114">
        <ele>53</ele>
        <time>2021-06-21T06:18:00.513Z</time>
      </trkpt>
      <trkpt lat="43.33851" lon="-1.65114">
        <ele>53</ele>
        <time>2021-06-21T06:18:01.531Z</time>
      </trkpt>
      <trkpt lat="43.3385" lon="-1.65121">
        <ele>53</ele>
        <time>2021-06-21T06:18:02.541Z</time>
      </trkpt>
      <trkpt lat="43.3385" lon="-1.65121">
        <ele>53</ele>
        <time>2021-06-21T06:18:03.516Z</time>
      </trkpt>
      <trkpt lat="43.33848" lon="-1.65128">
        <ele>53</ele>
        <time>2021-06-21T06:18:04.523Z</time>
      </trkpt>
      <trkpt lat="43.33848" lon="-1.65128">
        <ele>53</ele>
        <time>2021-06-21T06:18:05.542Z</time>
      </trkpt>
      <trkpt lat="43.33847" lon="-1.65136">
        <ele>53</ele>
        <time>2021-06-21T06:18:06.549Z</time>
      </trkpt>
      <trkpt lat="43.33847" lon="-1.65136">
        <ele>53</ele>
        <time>2021-06-21T06:18:07.529Z</time>
      </trkpt>
      <trkpt lat="43.33845" lon="-1.65143">
        <ele>53</ele>
        <time>2021-06-21T06:18:08.537Z</time>
      </trkpt>
      <trkpt lat="43.33845" lon="-1.65143">
        <ele>53</ele>
        <time>2021-06-21T06:18:09.512Z</time>
      </trkpt>
      <trkpt lat="43.33844" lon="-1.6515">
        <ele>53</ele>
        <time>2021-06-21T06:18:10.524Z</time>
      </trkpt>
      <trkpt lat="43.33844" lon="-1.6515">
        <ele>53</ele>
        <time>2021-06-21T06:18:11.537Z</time>
      </trkpt>
      <trkpt lat="43.33842" lon="-1.65158">
        <ele>53</ele>
        <time>2021-06-21T06:18:12.546Z</time>
      </trkpt>
      <trkpt lat="43.33842" lon="-1.65158">
        <ele>53</ele>
        <time>2021-06-21T06:18:13.518Z</time>
      </trkpt>
      <trkpt lat="43.3384" lon="-1.65166">
        <ele>54</ele>
        <time>2021-06-21T06:18:14.539Z</time>
      </trkpt>
      <trkpt lat="43.3384" lon="-1.65166">
        <ele>54</ele>
        <time>2021-06-21T06:18:15.513Z</time>
      </trkpt>
      <trkpt lat="43.33839" lon="-1.65173">
        <ele>54</ele>
        <time>2021-06-21T06:18:16.523Z</time>
      </trkpt>
      <trkpt lat="43.33838" lon="-1.65177">
        <ele>54</ele>
        <time>2021-06-21T06:18:17.579Z</time>
      </trkpt>
      <trkpt lat="43.33837" lon="-1.6518">
        <ele>54</ele>
        <time>2021-06-21T06:18:18.529Z</time>
      </trkpt>
      <trkpt lat="43.33837" lon="-1.6518">
        <ele>54</ele>
        <time>2021-06-21T06:18:19.549Z</time>
      </trkpt>
      <trkpt lat="43.33836" lon="-1.65188">
        <ele>54</ele>
        <time>2021-06-21T06:18:20.516Z</time>
      </trkpt>
      <trkpt lat="43.33836" lon="-1.65188">
        <ele>54</ele>
        <time>2021-06-21T06:18:21.532Z</time>
      </trkpt>
      <trkpt lat="43.33834" lon="-1.65196">
        <ele>54</ele>
        <time>2021-06-21T06:18:22.516Z</time>
      </trkpt>
      <trkpt lat="43.33834" lon="-1.65196">
        <ele>54</ele>
        <time>2021-06-21T06:18:23.535Z</time>
      </trkpt>
      <trkpt lat="43.33833" lon="-1.65203">
        <ele>54</ele>
        <time>2021-06-21T06:18:24.544Z</time>
      </trkpt>
      <trkpt lat="43.33833" lon="-1.65203">
        <ele>54</ele>
        <time>2021-06-21T06:18:25.520Z</time>
      </trkpt>
      <trkpt lat="43.33831" lon="-1.65211">
        <ele>54</ele>
        <time>2021-06-21T06:18:26.534Z</time>
      </trkpt>
      <trkpt lat="43.33831" lon="-1.65211">
        <ele>54</ele>
        <time>2021-06-21T06:18:27.529Z</time>
      </trkpt>
      <trkpt lat="43.3383" lon="-1.65219">
        <ele>54</ele>
        <time>2021-06-21T06:18:28.542Z</time>
      </trkpt>
      <trkpt lat="43.3383" lon="-1.65219">
        <ele>54</ele>
        <time>2021-06-21T06:18:29.513Z</time>
      </trkpt>
      <trkpt lat="43.33828" lon="-1.65226">
        <ele>54</ele>
        <time>2021-06-21T06:18:30.521Z</time>
      </trkpt>
      <trkpt lat="43.33828" lon="-1.65226">
        <ele>54</ele>
        <time>2021-06-21T06:18:31.537Z</time>
      </trkpt>
      <trkpt lat="43.33827" lon="-1.65234">
        <ele>55</ele>
        <time>2021-06-21T06:18:32.562Z</time>
      </trkpt>
      <trkpt lat="43.33827" lon="-1.65234">
        <ele>55</ele>
        <time>2021-06-21T06:18:33.544Z</time>
      </trkpt>
      <trkpt lat="43.33825" lon="-1.65241">
        <ele>55</ele>
        <time>2021-06-21T06:18:34.510Z</time>
      </trkpt>
      <trkpt lat="43.33825" lon="-1.65241">
        <ele>55</ele>
        <time>2021-06-21T06:18:35.525Z</time>
      </trkpt>
      <trkpt lat="43.33823" lon="-1.65248">
        <ele>55</ele>
        <time>2021-06-21T06:18:36.531Z</time>
      </trkpt>
      <trkpt lat="43.33823" lon="-1.65248">
        <ele>55</ele>
        <time>2021-06-21T06:18:37.512Z</time>
      </trkpt>
      <trkpt lat="43.33822" lon="-1.65255">
        <ele>56</ele>
        <time>2021-06-21T06:18:38.520Z</time>
      </trkpt>
      <trkpt lat="43.33822" lon="-1.65255">
        <ele>56</ele>
        <time>2021-06-21T06:18:39.537Z</time>
      </trkpt>
      <trkpt lat="43.3382" lon="-1.65262">
        <ele>56</ele>
        <time>2021-06-21T06:18:40.510Z</time>
      </trkpt>
      <trkpt lat="43.3382" lon="-1.65262">
        <ele>56</ele>
        <time>2021-06-21T06:18:41.530Z</time>
      </trkpt>
      <trkpt lat="43.33818" lon="-1.65268">
        <ele>56</ele>
        <time>2021-06-21T06:18:42.531Z</time>
      </trkpt>
      <trkpt lat="43.33818" lon="-1.65268">
        <ele>56</ele>
        <time>2021-06-21T06:18:43.518Z</time>
      </trkpt>
      <trkpt lat="43.33816" lon="-1.65275">
        <ele>56</ele>
        <time>2021-06-21T06:18:44.525Z</time>
      </trkpt>
      <trkpt lat="43.33816" lon="-1.65275">
        <ele>56</ele>
        <time>2021-06-21T06:18:45.540Z</time>
      </trkpt>
      <trkpt lat="43.33815" lon="-1.65282">
        <ele>55</ele>
        <time>2021-06-21T06:18:46.523Z</time>
      </trkpt>
      <trkpt lat="43.33814" lon="-1.65286">
        <ele>55</ele>
        <time>2021-06-21T06:18:47.528Z</time>
      </trkpt>
      <trkpt lat="43.33814" lon="-1.65286">
        <ele>55</ele>
        <time>2021-06-21T06:18:48.519Z</time>
      </trkpt>
      <trkpt lat="43.33812" lon="-1.65293">
        <ele>55</ele>
        <time>2021-06-21T06:18:49.552Z</time>
      </trkpt>
      <trkpt lat="43.33812" lon="-1.65293">
        <ele>55</ele>
        <time>2021-06-21T06:18:50.537Z</time>
      </trkpt>
      <trkpt lat="43.3381" lon="-1.653">
        <ele>56</ele>
        <time>2021-06-21T06:18:51.510Z</time>
      </trkpt>
      <trkpt lat="43.3381" lon="-1.653">
        <ele>56</ele>
        <time>2021-06-21T06:18:52.531Z</time>
      </trkpt>
      <trkpt lat="43.33808" lon="-1.65307">
        <ele>56</ele>
        <time>2021-06-21T06:18:53.528Z</time>
      </trkpt>
      <trkpt lat="43.33807" lon="-1.6531">
        <ele>56</ele>
        <time>2021-06-21T06:18:54.515Z</time>
      </trkpt>
      <trkpt lat="43.33807" lon="-1.6531">
        <ele>56</ele>
        <time>2021-06-21T06:18:55.537Z</time>
      </trkpt>
      <trkpt lat="43.33806" lon="-1.65318">
        <ele>56</ele>
        <time>2021-06-21T06:18:56.548Z</time>
      </trkpt>
      <trkpt lat="43.33806" lon="-1.65318">
        <ele>56</ele>
        <time>2021-06-21T06:18:57.533Z</time>
      </trkpt>
      <trkpt lat="43.33804" lon="-1.65326">
        <ele>56</ele>
        <time>2021-06-21T06:18:58.548Z</time>
      </trkpt>
      <trkpt lat="43.33804" lon="-1.65326">
        <ele>56</ele>
        <time>2021-06-21T06:18:59.537Z</time>
      </trkpt>
      <trkpt lat="43.33802" lon="-1.65334">
        <ele>57</ele>
        <time>2021-06-21T06:19:00.545Z</time>
      </trkpt>
      <trkpt lat="43.33802" lon="-1.65334">
        <ele>57</ele>
        <time>2021-06-21T06:19:01.517Z</time>
      </trkpt>
      <trkpt lat="43.338" lon="-1.65341">
        <ele>57</ele>
        <time>2021-06-21T06:19:02.523Z</time>
      </trkpt>
      <trkpt lat="43.338" lon="-1.65341">
        <ele>57</ele>
        <time>2021-06-21T06:19:03.544Z</time>
      </trkpt>
      <trkpt lat="43.33798" lon="-1.65349">
        <ele>58</ele>
        <time>2021-06-21T06:19:04.544Z</time>
      </trkpt>
      <trkpt lat="43.33798" lon="-1.65349">
        <ele>58</ele>
        <time>2021-06-21T06:19:05.523Z</time>
      </trkpt>
      <trkpt lat="43.33796" lon="-1.65356">
        <ele>57</ele>
        <time>2021-06-21T06:19:06.529Z</time>
      </trkpt>
      <trkpt lat="43.33796" lon="-1.65356">
        <ele>57</ele>
        <time>2021-06-21T06:19:07.516Z</time>
      </trkpt>
      <trkpt lat="43.33795" lon="-1.65364">
        <ele>58</ele>
        <time>2021-06-21T06:19:08.521Z</time>
      </trkpt>
      <trkpt lat="43.33795" lon="-1.65364">
        <ele>58</ele>
        <time>2021-06-21T06:19:09.533Z</time>
      </trkpt>
      <trkpt lat="43.33793" lon="-1.6537">
        <ele>58</ele>
        <time>2021-06-21T06:19:10.544Z</time>
      </trkpt>
      <trkpt lat="43.33793" lon="-1.6537">
        <ele>58</ele>
        <time>2021-06-21T06:19:11.515Z</time>
      </trkpt>
      <trkpt lat="43.33791" lon="-1.65378">
        <ele>57</ele>
        <time>2021-06-21T06:19:12.524Z</time>
      </trkpt>
      <trkpt lat="43.33791" lon="-1.65378">
        <ele>57</ele>
        <time>2021-06-21T06:19:13.547Z</time>
      </trkpt>
      <trkpt lat="43.3379" lon="-1.65386">
        <ele>58</ele>
        <time>2021-06-21T06:19:14.530Z</time>
      </trkpt>
      <trkpt lat="43.3379" lon="-1.65386">
        <ele>58</ele>
        <time>2021-06-21T06:19:15.515Z</time>
      </trkpt>
      <trkpt lat="43.33789" lon="-1.65393">
        <ele>57</ele>
        <time>2021-06-21T06:19:16.521Z</time>
      </trkpt>
      <trkpt lat="43.33789" lon="-1.65393">
        <ele>57</ele>
        <time>2021-06-21T06:19:17.537Z</time>
      </trkpt>
      <trkpt lat="43.33787" lon="-1.65401">
        <ele>57</ele>
        <time>2021-06-21T06:19:18.547Z</time>
      </trkpt>
      <trkpt lat="43.33787" lon="-1.65401">
        <ele>57</ele>
        <time>2021-06-21T06:19:19.522Z</time>
      </trkpt>
      <trkpt lat="43.33786" lon="-1.65409">
        <ele>58</ele>
        <time>2021-06-21T06:19:20.529Z</time>
      </trkpt>
      <trkpt lat="43.33786" lon="-1.65409">
        <ele>58</ele>
        <time>2021-06-21T06:19:21.522Z</time>
      </trkpt>
      <trkpt lat="43.33784" lon="-1.65416">
        <ele>58</ele>
        <time>2021-06-21T06:19:22.540Z</time>
      </trkpt>
      <trkpt lat="43.33784" lon="-1.65416">
        <ele>58</ele>
        <time>2021-06-21T06:19:23.541Z</time>
      </trkpt>
      <trkpt lat="43.33782" lon="-1.65424">
        <ele>58</ele>
        <time>2021-06-21T06:19:24.549Z</time>
      </trkpt>
      <trkpt lat="43.33782" lon="-1.65424">
        <ele>58</ele>
        <time>2021-06-21T06:19:25.522Z</time>
      </trkpt>
      <trkpt lat="43.33781" lon="-1.65431">
        <ele>59</ele>
        <time>2021-06-21T06:19:26.509Z</time>
      </trkpt>
      <trkpt lat="43.33781" lon="-1.65431">
        <ele>59</ele>
        <time>2021-06-21T06:19:27.524Z</time>
      </trkpt>
      <trkpt lat="43.3378" lon="-1.65439">
        <ele>59</ele>
        <time>2021-06-21T06:19:28.530Z</time>
      </trkpt>
      <trkpt lat="43.3378" lon="-1.65439">
        <ele>59</ele>
        <time>2021-06-21T06:19:29.541Z</time>
      </trkpt>
      <trkpt lat="43.33778" lon="-1.65447">
        <ele>59</ele>
        <time>2021-06-21T06:19:30.510Z</time>
      </trkpt>
      <trkpt lat="43.33778" lon="-1.65447">
        <ele>59</ele>
        <time>2021-06-21T06:19:31.527Z</time>
      </trkpt>
      <trkpt lat="43.33776" lon="-1.65455">
        <ele>60</ele>
        <time>2021-06-21T06:19:32.528Z</time>
      </trkpt>
      <trkpt lat="43.33776" lon="-1.65455">
        <ele>60</ele>
        <time>2021-06-21T06:19:33.521Z</time>
      </trkpt>
      <trkpt lat="43.33774" lon="-1.65462">
        <ele>60</ele>
        <time>2021-06-21T06:19:34.527Z</time>
      </trkpt>
      <trkpt lat="43.33774" lon="-1.65462">
        <ele>60</ele>
        <time>2021-06-21T06:19:35.545Z</time>
      </trkpt>
      <trkpt lat="43.33772" lon="-1.65471">
        <ele>60</ele>
        <time>2021-06-21T06:19:36.511Z</time>
      </trkpt>
      <trkpt lat="43.33772" lon="-1.65471">
        <ele>60</ele>
        <time>2021-06-21T06:19:37.530Z</time>
      </trkpt>
      <trkpt lat="43.3377" lon="-1.65479">
        <ele>61</ele>
        <time>2021-06-21T06:19:38.527Z</time>
      </trkpt>
      <trkpt lat="43.3377" lon="-1.65479">
        <ele>61</ele>
        <time>2021-06-21T06:19:39.531Z</time>
      </trkpt>
      <trkpt lat="43.33769" lon="-1.65487">
        <ele>61</ele>
        <time>2021-06-21T06:19:40.536Z</time>
      </trkpt>
      <trkpt lat="43.33769" lon="-1.65487">
        <ele>61</ele>
        <time>2021-06-21T06:19:41.510Z</time>
      </trkpt>
      <trkpt lat="43.33767" lon="-1.65495">
        <ele>61</ele>
        <time>2021-06-21T06:19:42.522Z</time>
      </trkpt>
      <trkpt lat="43.33767" lon="-1.65495">
        <ele>61</ele>
        <time>2021-06-21T06:19:43.540Z</time>
      </trkpt>
      <trkpt lat="43.33766" lon="-1.65504">
        <ele>61</ele>
        <time>2021-06-21T06:19:44.512Z</time>
      </trkpt>
      <trkpt lat="43.33765" lon="-1.65508">
        <ele>61</ele>
        <time>2021-06-21T06:19:45.517Z</time>
      </trkpt>
      <trkpt lat="43.33765" lon="-1.65508">
        <ele>61</ele>
        <time>2021-06-21T06:19:46.542Z</time>
      </trkpt>
      <trkpt lat="43.33764" lon="-1.65516">
        <ele>62</ele>
        <time>2021-06-21T06:19:47.522Z</time>
      </trkpt>
      <trkpt lat="43.33763" lon="-1.6552">
        <ele>62</ele>
        <time>2021-06-21T06:19:48.535Z</time>
      </trkpt>
      <trkpt lat="43.33763" lon="-1.6552">
        <ele>62</ele>
        <time>2021-06-21T06:19:49.543Z</time>
      </trkpt>
      <trkpt lat="43.33762" lon="-1.65528">
        <ele>62</ele>
        <time>2021-06-21T06:19:50.512Z</time>
      </trkpt>
      <trkpt lat="43.33762" lon="-1.65528">
        <ele>62</ele>
        <time>2021-06-21T06:19:51.525Z</time>
      </trkpt>
      <trkpt lat="43.3376" lon="-1.65536">
        <ele>63</ele>
        <time>2021-06-21T06:19:52.532Z</time>
      </trkpt>
      <trkpt lat="43.3376" lon="-1.65536">
        <ele>63</ele>
        <time>2021-06-21T06:19:53.546Z</time>
      </trkpt>
      <trkpt lat="43.33759" lon="-1.65544">
        <ele>63</ele>
        <time>2021-06-21T06:19:54.543Z</time>
      </trkpt>
      <trkpt lat="43.33759" lon="-1.65544">
        <ele>63</ele>
        <time>2021-06-21T06:19:55.537Z</time>
      </trkpt>
      <trkpt lat="43.33757" lon="-1.65552">
        <ele>64</ele>
        <time>2021-06-21T06:19:56.544Z</time>
      </trkpt>
      <trkpt lat="43.33757" lon="-1.65552">
        <ele>64</ele>
        <time>2021-06-21T06:19:57.524Z</time>
      </trkpt>
      <trkpt lat="43.33755" lon="-1.6556">
        <ele>64</ele>
        <time>2021-06-21T06:19:58.537Z</time>
      </trkpt>
      <trkpt lat="43.33755" lon="-1.6556">
        <ele>64</ele>
        <time>2021-06-21T06:19:59.528Z</time>
      </trkpt>
      <trkpt lat="43.33754" lon="-1.65568">
        <ele>64</ele>
        <time>2021-06-21T06:20:00.542Z</time>
      </trkpt>
      <trkpt lat="43.33754" lon="-1.65568">
        <ele>64</ele>
        <time>2021-06-21T06:20:01.521Z</time>
      </trkpt>
      <trkpt lat="43.33752" lon="-1.65576">
        <ele>64</ele>
        <time>2021-06-21T06:20:02.529Z</time>
      </trkpt>
      <trkpt lat="43.33752" lon="-1.65576">
        <ele>64</ele>
        <time>2021-06-21T06:20:03.538Z</time>
      </trkpt>
      <trkpt lat="43.3375" lon="-1.65584">
        <ele>64</ele>
        <time>2021-06-21T06:20:04.546Z</time>
      </trkpt>
      <trkpt lat="43.3375" lon="-1.65584">
        <ele>64</ele>
        <time>2021-06-21T06:20:05.521Z</time>
      </trkpt>
      <trkpt lat="43.33748" lon="-1.65593">
        <ele>65</ele>
        <time>2021-06-21T06:20:06.541Z</time>
      </trkpt>
      <trkpt lat="43.33748" lon="-1.65593">
        <ele>65</ele>
        <time>2021-06-21T06:20:07.539Z</time>
      </trkpt>
      <trkpt lat="43.33747" lon="-1.65601">
        <ele>65</ele>
        <time>2021-06-21T06:20:08.517Z</time>
      </trkpt>
      <trkpt lat="43.33747" lon="-1.65601">
        <ele>65</ele>
        <time>2021-06-21T06:20:09.543Z</time>
      </trkpt>
      <trkpt lat="43.33745" lon="-1.65609">
        <ele>66</ele>
        <time>2021-06-21T06:20:10.511Z</time>
      </trkpt>
      <trkpt lat="43.33745" lon="-1.65609">
        <ele>66</ele>
        <time>2021-06-21T06:20:11.540Z</time>
      </trkpt>
      <trkpt lat="43.33743" lon="-1.65617">
        <ele>66</ele>
        <time>2021-06-21T06:20:12.712Z</time>
      </trkpt>
      <trkpt lat="43.33743" lon="-1.65617">
        <ele>66</ele>
        <time>2021-06-21T06:20:13.513Z</time>
      </trkpt>
      <trkpt lat="43.33741" lon="-1.65626">
        <ele>66</ele>
        <time>2021-06-21T06:20:14.525Z</time>
      </trkpt>
      <trkpt lat="43.33741" lon="-1.65626">
        <ele>66</ele>
        <time>2021-06-21T06:20:15.538Z</time>
      </trkpt>
      <trkpt lat="43.33739" lon="-1.65635">
        <ele>66</ele>
        <time>2021-06-21T06:20:16.545Z</time>
      </trkpt>
      <trkpt lat="43.33739" lon="-1.65635">
        <ele>66</ele>
        <time>2021-06-21T06:20:17.546Z</time>
      </trkpt>
      <trkpt lat="43.33737" lon="-1.65644">
        <ele>66</ele>
        <time>2021-06-21T06:20:18.527Z</time>
      </trkpt>
      <trkpt lat="43.33737" lon="-1.65644">
        <ele>66</ele>
        <time>2021-06-21T06:20:19.516Z</time>
      </trkpt>
      <trkpt lat="43.33736" lon="-1.65654">
        <ele>66</ele>
        <time>2021-06-21T06:20:20.522Z</time>
      </trkpt>
      <trkpt lat="43.33736" lon="-1.65654">
        <ele>66</ele>
        <time>2021-06-21T06:20:21.540Z</time>
      </trkpt>
      <trkpt lat="43.33734" lon="-1.65664">
        <ele>66</ele>
        <time>2021-06-21T06:20:22.523Z</time>
      </trkpt>
      <trkpt lat="43.33734" lon="-1.65664">
        <ele>66</ele>
        <time>2021-06-21T06:20:23.538Z</time>
      </trkpt>
      <trkpt lat="43.33732" lon="-1.65673">
        <ele>66</ele>
        <time>2021-06-21T06:20:24.544Z</time>
      </trkpt>
      <trkpt lat="43.33732" lon="-1.65673">
        <ele>66</ele>
        <time>2021-06-21T06:20:25.515Z</time>
      </trkpt>
      <trkpt lat="43.3373" lon="-1.65682">
        <ele>66</ele>
        <time>2021-06-21T06:20:26.523Z</time>
      </trkpt>
      <trkpt lat="43.3373" lon="-1.65682">
        <ele>66</ele>
        <time>2021-06-21T06:20:27.539Z</time>
      </trkpt>
      <trkpt lat="43.33728" lon="-1.65692">
        <ele>66</ele>
        <time>2021-06-21T06:20:28.516Z</time>
      </trkpt>
      <trkpt lat="43.33728" lon="-1.65692">
        <ele>66</ele>
        <time>2021-06-21T06:20:29.528Z</time>
      </trkpt>
      <trkpt lat="43.33726" lon="-1.65701">
        <ele>66</ele>
        <time>2021-06-21T06:20:30.537Z</time>
      </trkpt>
      <trkpt lat="43.33726" lon="-1.65701">
        <ele>66</ele>
        <time>2021-06-21T06:20:31.512Z</time>
      </trkpt>
      <trkpt lat="43.33724" lon="-1.6571">
        <ele>66</ele>
        <time>2021-06-21T06:20:32.518Z</time>
      </trkpt>
      <trkpt lat="43.33724" lon="-1.6571">
        <ele>66</ele>
        <time>2021-06-21T06:20:33.513Z</time>
      </trkpt>
      <trkpt lat="43.33722" lon="-1.65719">
        <ele>66</ele>
        <time>2021-06-21T06:20:34.530Z</time>
      </trkpt>
      <trkpt lat="43.33722" lon="-1.65719">
        <ele>66</ele>
        <time>2021-06-21T06:20:35.519Z</time>
      </trkpt>
      <trkpt lat="43.3372" lon="-1.65728">
        <ele>66</ele>
        <time>2021-06-21T06:20:36.528Z</time>
      </trkpt>
      <trkpt lat="43.3372" lon="-1.65728">
        <ele>66</ele>
        <time>2021-06-21T06:20:37.521Z</time>
      </trkpt>
      <trkpt lat="43.33719" lon="-1.65738">
        <ele>66</ele>
        <time>2021-06-21T06:20:38.527Z</time>
      </trkpt>
      <trkpt lat="43.33719" lon="-1.65738">
        <ele>66</ele>
        <time>2021-06-21T06:20:39.548Z</time>
      </trkpt>
      <trkpt lat="43.33718" lon="-1.65749">
        <ele>66</ele>
        <time>2021-06-21T06:20:40.514Z</time>
      </trkpt>
      <trkpt lat="43.33718" lon="-1.65749">
        <ele>66</ele>
        <time>2021-06-21T06:20:41.542Z</time>
      </trkpt>
      <trkpt lat="43.33716" lon="-1.65759">
        <ele>67</ele>
        <time>2021-06-21T06:20:42.516Z</time>
      </trkpt>
      <trkpt lat="43.33716" lon="-1.65759">
        <ele>67</ele>
        <time>2021-06-21T06:20:43.540Z</time>
      </trkpt>
      <trkpt lat="43.33715" lon="-1.65769">
        <ele>67</ele>
        <time>2021-06-21T06:20:44.511Z</time>
      </trkpt>
      <trkpt lat="43.33715" lon="-1.65769">
        <ele>67</ele>
        <time>2021-06-21T06:20:45.524Z</time>
      </trkpt>
      <trkpt lat="43.33714" lon="-1.65779">
        <ele>66</ele>
        <time>2021-06-21T06:20:46.525Z</time>
      </trkpt>
      <trkpt lat="43.33714" lon="-1.65779">
        <ele>66</ele>
        <time>2021-06-21T06:20:47.548Z</time>
      </trkpt>
      <trkpt lat="43.33712" lon="-1.65788">
        <ele>67</ele>
        <time>2021-06-21T06:20:48.526Z</time>
      </trkpt>
      <trkpt lat="43.33712" lon="-1.65788">
        <ele>67</ele>
        <time>2021-06-21T06:20:49.546Z</time>
      </trkpt>
      <trkpt lat="43.33711" lon="-1.65798">
        <ele>67</ele>
        <time>2021-06-21T06:20:50.515Z</time>
      </trkpt>
      <trkpt lat="43.33711" lon="-1.65798">
        <ele>67</ele>
        <time>2021-06-21T06:20:51.530Z</time>
      </trkpt>
      <trkpt lat="43.3371" lon="-1.65809">
        <ele>67</ele>
        <time>2021-06-21T06:20:52.543Z</time>
      </trkpt>
      <trkpt lat="43.3371" lon="-1.65809">
        <ele>67</ele>
        <time>2021-06-21T06:20:53.539Z</time>
      </trkpt>
      <trkpt lat="43.33709" lon="-1.65819">
        <ele>67</ele>
        <time>2021-06-21T06:20:54.513Z</time>
      </trkpt>
      <trkpt lat="43.33709" lon="-1.65819">
        <ele>67</ele>
        <time>2021-06-21T06:20:55.531Z</time>
      </trkpt>
      <trkpt lat="43.33708" lon="-1.65829">
        <ele>67</ele>
        <time>2021-06-21T06:20:56.541Z</time>
      </trkpt>
      <trkpt lat="43.33708" lon="-1.65834">
        <ele>68</ele>
        <time>2021-06-21T06:20:57.547Z</time>
      </trkpt>
      <trkpt lat="43.33708" lon="-1.65834">
        <ele>68</ele>
        <time>2021-06-21T06:20:58.539Z</time>
      </trkpt>
      <trkpt lat="43.33707" lon="-1.65844">
        <ele>68</ele>
        <time>2021-06-21T06:20:59.550Z</time>
      </trkpt>
      <trkpt lat="43.33706" lon="-1.6585">
        <ele>68</ele>
        <time>2021-06-21T06:21:00.538Z</time>
      </trkpt>
      <trkpt lat="43.33706" lon="-1.6585">
        <ele>68</ele>
        <time>2021-06-21T06:21:01.547Z</time>
      </trkpt>
      <trkpt lat="43.33705" lon="-1.6586">
        <ele>67</ele>
        <time>2021-06-21T06:21:02.518Z</time>
      </trkpt>
      <trkpt lat="43.33705" lon="-1.6586">
        <ele>67</ele>
        <time>2021-06-21T06:21:03.526Z</time>
      </trkpt>
      <trkpt lat="43.33704" lon="-1.65871">
        <ele>68</ele>
        <time>2021-06-21T06:21:04.532Z</time>
      </trkpt>
      <trkpt lat="43.33704" lon="-1.65871">
        <ele>68</ele>
        <time>2021-06-21T06:21:05.544Z</time>
      </trkpt>
      <trkpt lat="43.33703" lon="-1.65881">
        <ele>68</ele>
        <time>2021-06-21T06:21:06.572Z</time>
      </trkpt>
      <trkpt lat="43.33703" lon="-1.65881">
        <ele>68</ele>
        <time>2021-06-21T06:21:07.540Z</time>
      </trkpt>
      <trkpt lat="43.33702" lon="-1.65892">
        <ele>68</ele>
        <time>2021-06-21T06:21:08.547Z</time>
      </trkpt>
      <trkpt lat="43.33702" lon="-1.65892">
        <ele>68</ele>
        <time>2021-06-21T06:21:09.520Z</time>
      </trkpt>
      <trkpt lat="43.33701" lon="-1.65903">
        <ele>67</ele>
        <time>2021-06-21T06:21:10.527Z</time>
      </trkpt>
      <trkpt lat="43.33701" lon="-1.65903">
        <ele>67</ele>
        <time>2021-06-21T06:21:11.517Z</time>
      </trkpt>
      <trkpt lat="43.337" lon="-1.65914">
        <ele>67</ele>
        <time>2021-06-21T06:21:12.541Z</time>
      </trkpt>
      <trkpt lat="43.337" lon="-1.65914">
        <ele>67</ele>
        <time>2021-06-21T06:21:13.521Z</time>
      </trkpt>
      <trkpt lat="43.33698" lon="-1.65925">
        <ele>67</ele>
        <time>2021-06-21T06:21:14.527Z</time>
      </trkpt>
      <trkpt lat="43.33697" lon="-1.6593">
        <ele>67</ele>
        <time>2021-06-21T06:21:15.540Z</time>
      </trkpt>
      <trkpt lat="43.33697" lon="-1.6593">
        <ele>67</ele>
        <time>2021-06-21T06:21:16.541Z</time>
      </trkpt>
      <trkpt lat="43.33694" lon="-1.65941">
        <ele>66</ele>
        <time>2021-06-21T06:21:17.549Z</time>
      </trkpt>
      <trkpt lat="43.33693" lon="-1.65947">
        <ele>66</ele>
        <time>2021-06-21T06:21:18.526Z</time>
      </trkpt>
      <trkpt lat="43.33693" lon="-1.65947">
        <ele>66</ele>
        <time>2021-06-21T06:21:19.516Z</time>
      </trkpt>
      <trkpt lat="43.33691" lon="-1.65958">
        <ele>66</ele>
        <time>2021-06-21T06:21:20.524Z</time>
      </trkpt>
      <trkpt lat="43.33691" lon="-1.65958">
        <ele>66</ele>
        <time>2021-06-21T06:21:21.547Z</time>
      </trkpt>
      <trkpt lat="43.33689" lon="-1.6597">
        <ele>66</ele>
        <time>2021-06-21T06:21:22.542Z</time>
      </trkpt>
      <trkpt lat="43.33689" lon="-1.6597">
        <ele>66</ele>
        <time>2021-06-21T06:21:23.545Z</time>
      </trkpt>
      <trkpt lat="43.33687" lon="-1.65982">
        <ele>66</ele>
        <time>2021-06-21T06:21:24.511Z</time>
      </trkpt>
      <trkpt lat="43.33687" lon="-1.65982">
        <ele>66</ele>
        <time>2021-06-21T06:21:25.531Z</time>
      </trkpt>
      <trkpt lat="43.33685" lon="-1.65993">
        <ele>66</ele>
        <time>2021-06-21T06:21:26.539Z</time>
      </trkpt>
      <trkpt lat="43.33685" lon="-1.65993">
        <ele>66</ele>
        <time>2021-06-21T06:21:27.523Z</time>
      </trkpt>
      <trkpt lat="43.33683" lon="-1.66004">
        <ele>66</ele>
        <time>2021-06-21T06:21:28.542Z</time>
      </trkpt>
      <trkpt lat="43.33681" lon="-1.6601">
        <ele>66</ele>
        <time>2021-06-21T06:21:29.516Z</time>
      </trkpt>
      <trkpt lat="43.3368" lon="-1.66016">
        <ele>67</ele>
        <time>2021-06-21T06:21:30.533Z</time>
      </trkpt>
      <trkpt lat="43.3368" lon="-1.66016">
        <ele>67</ele>
        <time>2021-06-21T06:21:31.547Z</time>
      </trkpt>
      <trkpt lat="43.33677" lon="-1.66029">
        <ele>68</ele>
        <time>2021-06-21T06:21:32.515Z</time>
      </trkpt>
      <trkpt lat="43.33677" lon="-1.66029">
        <ele>68</ele>
        <time>2021-06-21T06:21:33.529Z</time>
      </trkpt>
      <trkpt lat="43.33675" lon="-1.66043">
        <ele>67</ele>
        <time>2021-06-21T06:21:34.547Z</time>
      </trkpt>
      <trkpt lat="43.33675" lon="-1.66043">
        <ele>67</ele>
        <time>2021-06-21T06:21:35.524Z</time>
      </trkpt>
      <trkpt lat="43.33672" lon="-1.66057">
        <ele>68</ele>
        <time>2021-06-21T06:21:36.537Z</time>
      </trkpt>
      <trkpt lat="43.33672" lon="-1.66057">
        <ele>68</ele>
        <time>2021-06-21T06:21:37.540Z</time>
      </trkpt>
      <trkpt lat="43.33669" lon="-1.66073">
        <ele>67</ele>
        <time>2021-06-21T06:21:38.547Z</time>
      </trkpt>
      <trkpt lat="43.33669" lon="-1.66073">
        <ele>67</ele>
        <time>2021-06-21T06:21:39.515Z</time>
      </trkpt>
      <trkpt lat="43.33666" lon="-1.6609">
        <ele>66</ele>
        <time>2021-06-21T06:21:40.523Z</time>
      </trkpt>
      <trkpt lat="43.33666" lon="-1.6609">
        <ele>66</ele>
        <time>2021-06-21T06:21:41.532Z</time>
      </trkpt>
      <trkpt lat="43.33662" lon="-1.66108">
        <ele>65</ele>
        <time>2021-06-21T06:21:42.539Z</time>
      </trkpt>
      <trkpt lat="43.33662" lon="-1.66108">
        <ele>65</ele>
        <time>2021-06-21T06:21:43.526Z</time>
      </trkpt>
      <trkpt lat="43.33658" lon="-1.66128">
        <ele>64</ele>
        <time>2021-06-21T06:21:44.534Z</time>
      </trkpt>
      <trkpt lat="43.33656" lon="-1.66138">
        <ele>63</ele>
        <time>2021-06-21T06:21:45.514Z</time>
      </trkpt>
      <trkpt lat="43.33656" lon="-1.66138">
        <ele>63</ele>
        <time>2021-06-21T06:21:46.532Z</time>
      </trkpt>
      <trkpt lat="43.33651" lon="-1.6616">
        <ele>61</ele>
        <time>2021-06-21T06:21:47.542Z</time>
      </trkpt>
      <trkpt lat="43.33648" lon="-1.66171">
        <ele>61</ele>
        <time>2021-06-21T06:21:48.519Z</time>
      </trkpt>
      <trkpt lat="43.33648" lon="-1.66171">
        <ele>61</ele>
        <time>2021-06-21T06:21:49.539Z</time>
      </trkpt>
      <trkpt lat="43.33641" lon="-1.66192">
        <ele>60</ele>
        <time>2021-06-21T06:21:50.546Z</time>
      </trkpt>
      <trkpt lat="43.33641" lon="-1.66192">
        <ele>60</ele>
        <time>2021-06-21T06:21:51.517Z</time>
      </trkpt>
      <trkpt lat="43.33632" lon="-1.66214">
        <ele>58</ele>
        <time>2021-06-21T06:21:52.515Z</time>
      </trkpt>
      <trkpt lat="43.33627" lon="-1.66225">
        <ele>57</ele>
        <time>2021-06-21T06:21:53.521Z</time>
      </trkpt>
      <trkpt lat="43.33623" lon="-1.66236">
        <ele>56</ele>
        <time>2021-06-21T06:21:54.546Z</time>
      </trkpt>
      <trkpt lat="43.33623" lon="-1.66236">
        <ele>56</ele>
        <time>2021-06-21T06:21:55.523Z</time>
      </trkpt>
      <trkpt lat="43.33615" lon="-1.6626">
        <ele>54</ele>
        <time>2021-06-21T06:21:56.528Z</time>
      </trkpt>
      <trkpt lat="43.33615" lon="-1.6626">
        <ele>54</ele>
        <time>2021-06-21T06:21:57.548Z</time>
      </trkpt>
      <trkpt lat="43.33611" lon="-1.66286">
        <ele>52</ele>
        <time>2021-06-21T06:21:58.519Z</time>
      </trkpt>
      <trkpt lat="43.33611" lon="-1.66286">
        <ele>52</ele>
        <time>2021-06-21T06:21:59.532Z</time>
      </trkpt>
      <trkpt lat="43.3361" lon="-1.66313">
        <ele>51</ele>
        <time>2021-06-21T06:22:00.510Z</time>
      </trkpt>
      <trkpt lat="43.3361" lon="-1.66313">
        <ele>51</ele>
        <time>2021-06-21T06:22:01.533Z</time>
      </trkpt>
      <trkpt lat="43.33609" lon="-1.66341">
        <ele>50</ele>
        <time>2021-06-21T06:22:02.529Z</time>
      </trkpt>
      <trkpt lat="43.33609" lon="-1.66341">
        <ele>50</ele>
        <time>2021-06-21T06:22:03.526Z</time>
      </trkpt>
      <trkpt lat="43.33609" lon="-1.66367">
        <ele>49</ele>
        <time>2021-06-21T06:22:04.532Z</time>
      </trkpt>
      <trkpt lat="43.33609" lon="-1.66367">
        <ele>49</ele>
        <time>2021-06-21T06:22:05.519Z</time>
      </trkpt>
      <trkpt lat="43.33612" lon="-1.66393">
        <ele>48</ele>
        <time>2021-06-21T06:22:06.532Z</time>
      </trkpt>
      <trkpt lat="43.33612" lon="-1.66393">
        <ele>48</ele>
        <time>2021-06-21T06:22:07.509Z</time>
      </trkpt>
      <trkpt lat="43.33618" lon="-1.66418">
        <ele>46</ele>
        <time>2021-06-21T06:22:08.531Z</time>
      </trkpt>
      <trkpt lat="43.33618" lon="-1.66418">
        <ele>46</ele>
        <time>2021-06-21T06:22:09.516Z</time>
      </trkpt>
      <trkpt lat="43.33626" lon="-1.66444">
        <ele>45</ele>
        <time>2021-06-21T06:22:10.530Z</time>
      </trkpt>
      <trkpt lat="43.33626" lon="-1.66444">
        <ele>45</ele>
        <time>2021-06-21T06:22:11.540Z</time>
      </trkpt>
      <trkpt lat="43.33635" lon="-1.66469">
        <ele>44</ele>
        <time>2021-06-21T06:22:12.518Z</time>
      </trkpt>
      <trkpt lat="43.33635" lon="-1.66469">
        <ele>44</ele>
        <time>2021-06-21T06:22:13.528Z</time>
      </trkpt>
      <trkpt lat="43.33645" lon="-1.66493">
        <ele>43</ele>
        <time>2021-06-21T06:22:14.523Z</time>
      </trkpt>
      <trkpt lat="43.33645" lon="-1.66493">
        <ele>43</ele>
        <time>2021-06-21T06:22:15.543Z</time>
      </trkpt>
      <trkpt lat="43.33654" lon="-1.66517">
        <ele>41</ele>
        <time>2021-06-21T06:22:16.515Z</time>
      </trkpt>
      <trkpt lat="43.33654" lon="-1.66517">
        <ele>41</ele>
        <time>2021-06-21T06:22:17.530Z</time>
      </trkpt>
      <trkpt lat="43.33663" lon="-1.66541">
        <ele>41</ele>
        <time>2021-06-21T06:22:18.537Z</time>
      </trkpt>
      <trkpt lat="43.33663" lon="-1.66541">
        <ele>41</ele>
        <time>2021-06-21T06:22:19.512Z</time>
      </trkpt>
      <trkpt lat="43.33668" lon="-1.66566">
        <ele>40</ele>
        <time>2021-06-21T06:22:20.521Z</time>
      </trkpt>
      <trkpt lat="43.33668" lon="-1.66566">
        <ele>40</ele>
        <time>2021-06-21T06:22:21.537Z</time>
      </trkpt>
      <trkpt lat="43.33671" lon="-1.66592">
        <ele>40</ele>
        <time>2021-06-21T06:22:22.556Z</time>
      </trkpt>
      <trkpt lat="43.33671" lon="-1.66592">
        <ele>40</ele>
        <time>2021-06-21T06:22:23.541Z</time>
      </trkpt>
      <trkpt lat="43.33673" lon="-1.66618">
        <ele>38</ele>
        <time>2021-06-21T06:22:24.517Z</time>
      </trkpt>
      <trkpt lat="43.33673" lon="-1.66618">
        <ele>38</ele>
        <time>2021-06-21T06:22:25.530Z</time>
      </trkpt>
      <trkpt lat="43.3367" lon="-1.66641">
        <ele>38</ele>
        <time>2021-06-21T06:22:26.543Z</time>
      </trkpt>
      <trkpt lat="43.3367" lon="-1.66641">
        <ele>38</ele>
        <time>2021-06-21T06:22:27.529Z</time>
      </trkpt>
      <trkpt lat="43.33666" lon="-1.66662">
        <ele>37</ele>
        <time>2021-06-21T06:22:28.534Z</time>
      </trkpt>
      <trkpt lat="43.33666" lon="-1.66662">
        <ele>37</ele>
        <time>2021-06-21T06:22:29.533Z</time>
      </trkpt>
      <trkpt lat="43.33663" lon="-1.66683">
        <ele>36</ele>
        <time>2021-06-21T06:22:30.542Z</time>
      </trkpt>
      <trkpt lat="43.33663" lon="-1.66683">
        <ele>36</ele>
        <time>2021-06-21T06:22:31.518Z</time>
      </trkpt>
      <trkpt lat="43.33658" lon="-1.66703">
        <ele>35</ele>
        <time>2021-06-21T06:22:32.524Z</time>
      </trkpt>
      <trkpt lat="43.33658" lon="-1.66703">
        <ele>35</ele>
        <time>2021-06-21T06:22:33.537Z</time>
      </trkpt>
      <trkpt lat="43.33653" lon="-1.66722">
        <ele>34</ele>
        <time>2021-06-21T06:22:34.563Z</time>
      </trkpt>
      <trkpt lat="43.33653" lon="-1.66722">
        <ele>34</ele>
        <time>2021-06-21T06:22:35.518Z</time>
      </trkpt>
      <trkpt lat="43.33646" lon="-1.66742">
        <ele>34</ele>
        <time>2021-06-21T06:22:36.527Z</time>
      </trkpt>
      <trkpt lat="43.33646" lon="-1.66742">
        <ele>34</ele>
        <time>2021-06-21T06:22:37.520Z</time>
      </trkpt>
      <trkpt lat="43.33637" lon="-1.66759">
        <ele>33</ele>
        <time>2021-06-21T06:22:38.526Z</time>
      </trkpt>
      <trkpt lat="43.33637" lon="-1.66759">
        <ele>33</ele>
        <time>2021-06-21T06:22:39.541Z</time>
      </trkpt>
      <trkpt lat="43.33627" lon="-1.66774">
        <ele>33</ele>
        <time>2021-06-21T06:22:40.532Z</time>
      </trkpt>
      <trkpt lat="43.33627" lon="-1.66774">
        <ele>33</ele>
        <time>2021-06-21T06:22:41.545Z</time>
      </trkpt>
      <trkpt lat="43.33617" lon="-1.66785">
        <ele>33</ele>
        <time>2021-06-21T06:22:42.511Z</time>
      </trkpt>
      <trkpt lat="43.33617" lon="-1.66785">
        <ele>33</ele>
        <time>2021-06-21T06:22:43.527Z</time>
      </trkpt>
      <trkpt lat="43.33608" lon="-1.66793">
        <ele>33</ele>
        <time>2021-06-21T06:22:44.541Z</time>
      </trkpt>
      <trkpt lat="43.33604" lon="-1.66795">
        <ele>33</ele>
        <time>2021-06-21T06:22:45.510Z</time>
      </trkpt>
      <trkpt lat="43.33604" lon="-1.66795">
        <ele>33</ele>
        <time>2021-06-21T06:22:46.509Z</time>
      </trkpt>
      <trkpt lat="43.33595" lon="-1.66797">
        <ele>33</ele>
        <time>2021-06-21T06:22:47.519Z</time>
      </trkpt>
      <trkpt lat="43.33591" lon="-1.66798">
        <ele>33</ele>
        <time>2021-06-21T06:22:48.545Z</time>
      </trkpt>
      <trkpt lat="43.33591" lon="-1.66798">
        <ele>33</ele>
        <time>2021-06-21T06:22:49.520Z</time>
      </trkpt>
      <trkpt lat="43.33583" lon="-1.66799">
        <ele>34</ele>
        <time>2021-06-21T06:22:50.526Z</time>
      </trkpt>
      <trkpt lat="43.33583" lon="-1.66799">
        <ele>34</ele>
        <time>2021-06-21T06:22:51.542Z</time>
      </trkpt>
      <trkpt lat="43.33575" lon="-1.66801">
        <ele>35</ele>
        <time>2021-06-21T06:22:52.509Z</time>
      </trkpt>
      <trkpt lat="43.33575" lon="-1.66801">
        <ele>35</ele>
        <time>2021-06-21T06:22:53.523Z</time>
      </trkpt>
      <trkpt lat="43.33567" lon="-1.66803">
        <ele>35</ele>
        <time>2021-06-21T06:22:54.532Z</time>
      </trkpt>
      <trkpt lat="43.33567" lon="-1.66803">
        <ele>35</ele>
        <time>2021-06-21T06:22:55.512Z</time>
      </trkpt>
      <trkpt lat="43.3356" lon="-1.66805">
        <ele>35</ele>
        <time>2021-06-21T06:22:56.523Z</time>
      </trkpt>
      <trkpt lat="43.3356" lon="-1.66805">
        <ele>35</ele>
        <time>2021-06-21T06:22:57.512Z</time>
      </trkpt>
      <trkpt lat="43.33552" lon="-1.66807">
        <ele>36</ele>
        <time>2021-06-21T06:22:58.519Z</time>
      </trkpt>
      <trkpt lat="43.33552" lon="-1.66807">
        <ele>36</ele>
        <time>2021-06-21T06:22:59.531Z</time>
      </trkpt>
      <trkpt lat="43.33544" lon="-1.66811">
        <ele>36</ele>
        <time>2021-06-21T06:23:00.538Z</time>
      </trkpt>
      <trkpt lat="43.33544" lon="-1.66811">
        <ele>36</ele>
        <time>2021-06-21T06:23:01.521Z</time>
      </trkpt>
      <trkpt lat="43.33536" lon="-1.66817">
        <ele>37</ele>
        <time>2021-06-21T06:23:02.531Z</time>
      </trkpt>
      <trkpt lat="43.33536" lon="-1.66817">
        <ele>37</ele>
        <time>2021-06-21T06:23:03.527Z</time>
      </trkpt>
      <trkpt lat="43.33529" lon="-1.66824">
        <ele>38</ele>
        <time>2021-06-21T06:23:04.535Z</time>
      </trkpt>
      <trkpt lat="43.33529" lon="-1.66824">
        <ele>38</ele>
        <time>2021-06-21T06:23:05.545Z</time>
      </trkpt>
      <trkpt lat="43.33523" lon="-1.66832">
        <ele>39</ele>
        <time>2021-06-21T06:23:06.515Z</time>
      </trkpt>
      <trkpt lat="43.33523" lon="-1.66832">
        <ele>39</ele>
        <time>2021-06-21T06:23:07.509Z</time>
      </trkpt>
      <trkpt lat="43.33518" lon="-1.66839">
        <ele>39</ele>
        <time>2021-06-21T06:23:08.535Z</time>
      </trkpt>
      <trkpt lat="43.33518" lon="-1.66839">
        <ele>39</ele>
        <time>2021-06-21T06:23:09.522Z</time>
      </trkpt>
      <trkpt lat="43.33513" lon="-1.66847">
        <ele>40</ele>
        <time>2021-06-21T06:23:10.532Z</time>
      </trkpt>
      <trkpt lat="43.33513" lon="-1.66847">
        <ele>40</ele>
        <time>2021-06-21T06:23:11.511Z</time>
      </trkpt>
      <trkpt lat="43.33508" lon="-1.66854">
        <ele>41</ele>
        <time>2021-06-21T06:23:12.519Z</time>
      </trkpt>
      <trkpt lat="43.33508" lon="-1.66854">
        <ele>41</ele>
        <time>2021-06-21T06:23:13.533Z</time>
      </trkpt>
      <trkpt lat="43.33502" lon="-1.66861">
        <ele>41</ele>
        <time>2021-06-21T06:23:14.524Z</time>
      </trkpt>
      <trkpt lat="43.33502" lon="-1.66861">
        <ele>41</ele>
        <time>2021-06-21T06:23:15.529Z</time>
      </trkpt>
      <trkpt lat="43.33497" lon="-1.66868">
        <ele>41</ele>
        <time>2021-06-21T06:23:16.526Z</time>
      </trkpt>
      <trkpt lat="43.33497" lon="-1.66868">
        <ele>41</ele>
        <time>2021-06-21T06:23:17.510Z</time>
      </trkpt>
      <trkpt lat="43.33492" lon="-1.66875">
        <ele>42</ele>
        <time>2021-06-21T06:23:18.517Z</time>
      </trkpt>
      <trkpt lat="43.33492" lon="-1.66875">
        <ele>42</ele>
        <time>2021-06-21T06:23:19.531Z</time>
      </trkpt>
      <trkpt lat="43.33487" lon="-1.66882">
        <ele>42</ele>
        <time>2021-06-21T06:23:20.547Z</time>
      </trkpt>
      <trkpt lat="43.33487" lon="-1.66882">
        <ele>42</ele>
        <time>2021-06-21T06:23:21.527Z</time>
      </trkpt>
      <trkpt lat="43.33482" lon="-1.66889">
        <ele>42</ele>
        <time>2021-06-21T06:23:22.517Z</time>
      </trkpt>
      <trkpt lat="43.33482" lon="-1.66889">
        <ele>42</ele>
        <time>2021-06-21T06:23:23.509Z</time>
      </trkpt>
      <trkpt lat="43.33477" lon="-1.66896">
        <ele>42</ele>
        <time>2021-06-21T06:23:24.516Z</time>
      </trkpt>
      <trkpt lat="43.33477" lon="-1.66896">
        <ele>42</ele>
        <time>2021-06-21T06:23:25.538Z</time>
      </trkpt>
      <trkpt lat="43.33472" lon="-1.66903">
        <ele>43</ele>
        <time>2021-06-21T06:23:26.548Z</time>
      </trkpt>
      <trkpt lat="43.33472" lon="-1.66903">
        <ele>43</ele>
        <time>2021-06-21T06:23:27.545Z</time>
      </trkpt>
      <trkpt lat="43.33468" lon="-1.66911">
        <ele>43</ele>
        <time>2021-06-21T06:23:28.518Z</time>
      </trkpt>
      <trkpt lat="43.33466" lon="-1.66915">
        <ele>43</ele>
        <time>2021-06-21T06:23:29.538Z</time>
      </trkpt>
      <trkpt lat="43.33464" lon="-1.66919">
        <ele>43</ele>
        <time>2021-06-21T06:23:30.518Z</time>
      </trkpt>
      <trkpt lat="43.33464" lon="-1.66919">
        <ele>43</ele>
        <time>2021-06-21T06:23:31.546Z</time>
      </trkpt>
      <trkpt lat="43.3346" lon="-1.66927">
        <ele>43</ele>
        <time>2021-06-21T06:23:32.514Z</time>
      </trkpt>
      <trkpt lat="43.3346" lon="-1.66927">
        <ele>43</ele>
        <time>2021-06-21T06:23:33.524Z</time>
      </trkpt>
      <trkpt lat="43.33457" lon="-1.66936">
        <ele>44</ele>
        <time>2021-06-21T06:23:34.535Z</time>
      </trkpt>
      <trkpt lat="43.33457" lon="-1.66936">
        <ele>44</ele>
        <time>2021-06-21T06:23:35.547Z</time>
      </trkpt>
      <trkpt lat="43.33454" lon="-1.66945">
        <ele>44</ele>
        <time>2021-06-21T06:23:36.536Z</time>
      </trkpt>
      <trkpt lat="43.33454" lon="-1.66945">
        <ele>44</ele>
        <time>2021-06-21T06:23:37.509Z</time>
      </trkpt>
      <trkpt lat="43.33452" lon="-1.66954">
        <ele>45</ele>
        <time>2021-06-21T06:23:38.529Z</time>
      </trkpt>
      <trkpt lat="43.33452" lon="-1.66954">
        <ele>45</ele>
        <time>2021-06-21T06:23:39.513Z</time>
      </trkpt>
      <trkpt lat="43.3345" lon="-1.66964">
        <ele>44</ele>
        <time>2021-06-21T06:23:40.523Z</time>
      </trkpt>
      <trkpt lat="43.3345" lon="-1.66964">
        <ele>44</ele>
        <time>2021-06-21T06:23:41.538Z</time>
      </trkpt>
      <trkpt lat="43.3345" lon="-1.66975">
        <ele>45</ele>
        <time>2021-06-21T06:23:42.545Z</time>
      </trkpt>
      <trkpt lat="43.3345" lon="-1.66975">
        <ele>45</ele>
        <time>2021-06-21T06:23:43.531Z</time>
      </trkpt>
      <trkpt lat="43.33449" lon="-1.66984">
        <ele>45</ele>
        <time>2021-06-21T06:23:44.573Z</time>
      </trkpt>
      <trkpt lat="43.33449" lon="-1.66984">
        <ele>45</ele>
        <time>2021-06-21T06:23:45.517Z</time>
      </trkpt>
      <trkpt lat="43.33448" lon="-1.66994">
        <ele>45</ele>
        <time>2021-06-21T06:23:46.527Z</time>
      </trkpt>
      <trkpt lat="43.33448" lon="-1.66994">
        <ele>45</ele>
        <time>2021-06-21T06:23:47.509Z</time>
      </trkpt>
      <trkpt lat="43.33448" lon="-1.67004">
        <ele>45</ele>
        <time>2021-06-21T06:23:48.541Z</time>
      </trkpt>
      <trkpt lat="43.33448" lon="-1.67004">
        <ele>45</ele>
        <time>2021-06-21T06:23:49.518Z</time>
      </trkpt>
      <trkpt lat="43.33447" lon="-1.67016">
        <ele>45</ele>
        <time>2021-06-21T06:23:50.524Z</time>
      </trkpt>
      <trkpt lat="43.33447" lon="-1.67016">
        <ele>45</ele>
        <time>2021-06-21T06:23:51.543Z</time>
      </trkpt>
      <trkpt lat="43.33446" lon="-1.67029">
        <ele>45</ele>
        <time>2021-06-21T06:23:52.511Z</time>
      </trkpt>
      <trkpt lat="43.33446" lon="-1.67029">
        <ele>45</ele>
        <time>2021-06-21T06:23:53.511Z</time>
      </trkpt>
      <trkpt lat="43.33446" lon="-1.67043">
        <ele>45</ele>
        <time>2021-06-21T06:23:54.532Z</time>
      </trkpt>
      <trkpt lat="43.33446" lon="-1.67043">
        <ele>45</ele>
        <time>2021-06-21T06:23:55.547Z</time>
      </trkpt>
      <trkpt lat="43.33445" lon="-1.67059">
        <ele>45</ele>
        <time>2021-06-21T06:23:56.545Z</time>
      </trkpt>
      <trkpt lat="43.33445" lon="-1.67059">
        <ele>45</ele>
        <time>2021-06-21T06:23:57.534Z</time>
      </trkpt>
      <trkpt lat="43.33444" lon="-1.67075">
        <ele>44</ele>
        <time>2021-06-21T06:23:58.513Z</time>
      </trkpt>
      <trkpt lat="43.33444" lon="-1.67075">
        <ele>44</ele>
        <time>2021-06-21T06:23:59.521Z</time>
      </trkpt>
      <trkpt lat="43.33442" lon="-1.67092">
        <ele>43</ele>
        <time>2021-06-21T06:24:00.533Z</time>
      </trkpt>
      <trkpt lat="43.33442" lon="-1.67092">
        <ele>43</ele>
        <time>2021-06-21T06:24:01.547Z</time>
      </trkpt>
      <trkpt lat="43.3344" lon="-1.6711">
        <ele>43</ele>
        <time>2021-06-21T06:24:02.541Z</time>
      </trkpt>
      <trkpt lat="43.3344" lon="-1.6711">
        <ele>43</ele>
        <time>2021-06-21T06:24:03.531Z</time>
      </trkpt>
      <trkpt lat="43.33439" lon="-1.67128">
        <ele>43</ele>
        <time>2021-06-21T06:24:04.537Z</time>
      </trkpt>
      <trkpt lat="43.33439" lon="-1.67128">
        <ele>43</ele>
        <time>2021-06-21T06:24:05.513Z</time>
      </trkpt>
      <trkpt lat="43.33438" lon="-1.67146">
        <ele>43</ele>
        <time>2021-06-21T06:24:06.519Z</time>
      </trkpt>
      <trkpt lat="43.33438" lon="-1.67146">
        <ele>43</ele>
        <time>2021-06-21T06:24:07.533Z</time>
      </trkpt>
      <trkpt lat="43.33438" lon="-1.67164">
        <ele>42</ele>
        <time>2021-06-21T06:24:08.539Z</time>
      </trkpt>
      <trkpt lat="43.33438" lon="-1.67164">
        <ele>42</ele>
        <time>2021-06-21T06:24:09.509Z</time>
      </trkpt>
      <trkpt lat="43.33439" lon="-1.67182">
        <ele>42</ele>
        <time>2021-06-21T06:24:10.521Z</time>
      </trkpt>
      <trkpt lat="43.33439" lon="-1.67182">
        <ele>42</ele>
        <time>2021-06-21T06:24:11.542Z</time>
      </trkpt>
      <trkpt lat="43.3344" lon="-1.67198">
        <ele>42</ele>
        <time>2021-06-21T06:24:12.512Z</time>
      </trkpt>
      <trkpt lat="43.3344" lon="-1.67198">
        <ele>42</ele>
        <time>2021-06-21T06:24:13.537Z</time>
      </trkpt>
      <trkpt lat="43.33442" lon="-1.67214">
        <ele>41</ele>
        <time>2021-06-21T06:24:14.515Z</time>
      </trkpt>
      <trkpt lat="43.33442" lon="-1.67214">
        <ele>41</ele>
        <time>2021-06-21T06:24:15.521Z</time>
      </trkpt>
      <trkpt lat="43.33445" lon="-1.67227">
        <ele>41</ele>
        <time>2021-06-21T06:24:16.528Z</time>
      </trkpt>
      <trkpt lat="43.33445" lon="-1.67227">
        <ele>41</ele>
        <time>2021-06-21T06:24:17.518Z</time>
      </trkpt>
      <trkpt lat="43.33448" lon="-1.67241">
        <ele>41</ele>
        <time>2021-06-21T06:24:18.524Z</time>
      </trkpt>
      <trkpt lat="43.33448" lon="-1.67241">
        <ele>41</ele>
        <time>2021-06-21T06:24:19.543Z</time>
      </trkpt>
      <trkpt lat="43.33451" lon="-1.67255">
        <ele>41</ele>
        <time>2021-06-21T06:24:20.549Z</time>
      </trkpt>
      <trkpt lat="43.33451" lon="-1.67255">
        <ele>41</ele>
        <time>2021-06-21T06:24:21.545Z</time>
      </trkpt>
      <trkpt lat="43.33452" lon="-1.67266">
        <ele>40</ele>
        <time>2021-06-21T06:24:22.530Z</time>
      </trkpt>
      <trkpt lat="43.33452" lon="-1.67266">
        <ele>40</ele>
        <time>2021-06-21T06:24:23.522Z</time>
      </trkpt>
      <trkpt lat="43.33455" lon="-1.67278">
        <ele>40</ele>
        <time>2021-06-21T06:24:24.530Z</time>
      </trkpt>
      <trkpt lat="43.33455" lon="-1.67278">
        <ele>40</ele>
        <time>2021-06-21T06:24:25.519Z</time>
      </trkpt>
      <trkpt lat="43.33458" lon="-1.6729">
        <ele>40</ele>
        <time>2021-06-21T06:24:26.530Z</time>
      </trkpt>
      <trkpt lat="43.33458" lon="-1.6729">
        <ele>40</ele>
        <time>2021-06-21T06:24:27.517Z</time>
      </trkpt>
      <trkpt lat="43.3346" lon="-1.67302">
        <ele>40</ele>
        <time>2021-06-21T06:24:28.523Z</time>
      </trkpt>
      <trkpt lat="43.33461" lon="-1.67309">
        <ele>40</ele>
        <time>2021-06-21T06:24:29.547Z</time>
      </trkpt>
      <trkpt lat="43.33462" lon="-1.67314">
        <ele>39</ele>
        <time>2021-06-21T06:24:30.519Z</time>
      </trkpt>
      <trkpt lat="43.33462" lon="-1.67314">
        <ele>39</ele>
        <time>2021-06-21T06:24:31.541Z</time>
      </trkpt>
      <trkpt lat="43.33465" lon="-1.67326">
        <ele>39</ele>
        <time>2021-06-21T06:24:32.511Z</time>
      </trkpt>
      <trkpt lat="43.33465" lon="-1.67326">
        <ele>39</ele>
        <time>2021-06-21T06:24:33.532Z</time>
      </trkpt>
      <trkpt lat="43.33466" lon="-1.67337">
        <ele>39</ele>
        <time>2021-06-21T06:24:34.548Z</time>
      </trkpt>
      <trkpt lat="43.33466" lon="-1.67337">
        <ele>39</ele>
        <time>2021-06-21T06:24:35.524Z</time>
      </trkpt>
      <trkpt lat="43.33468" lon="-1.67348">
        <ele>39</ele>
        <time>2021-06-21T06:24:36.533Z</time>
      </trkpt>
      <trkpt lat="43.33468" lon="-1.67348">
        <ele>39</ele>
        <time>2021-06-21T06:24:37.511Z</time>
      </trkpt>
      <trkpt lat="43.33468" lon="-1.67358">
        <ele>39</ele>
        <time>2021-06-21T06:24:38.550Z</time>
      </trkpt>
      <trkpt lat="43.33468" lon="-1.67358">
        <ele>39</ele>
        <time>2021-06-21T06:24:39.520Z</time>
      </trkpt>
      <trkpt lat="43.33469" lon="-1.67368">
        <ele>39</ele>
        <time>2021-06-21T06:24:40.533Z</time>
      </trkpt>
      <trkpt lat="43.33469" lon="-1.67368">
        <ele>39</ele>
        <time>2021-06-21T06:24:41.512Z</time>
      </trkpt>
      <trkpt lat="43.3347" lon="-1.67379">
        <ele>38</ele>
        <time>2021-06-21T06:24:42.527Z</time>
      </trkpt>
      <trkpt lat="43.3347" lon="-1.67379">
        <ele>38</ele>
        <time>2021-06-21T06:24:43.547Z</time>
      </trkpt>
      <trkpt lat="43.33469" lon="-1.6739">
        <ele>39</ele>
        <time>2021-06-21T06:24:44.546Z</time>
      </trkpt>
      <trkpt lat="43.33469" lon="-1.6739">
        <ele>39</ele>
        <time>2021-06-21T06:24:45.530Z</time>
      </trkpt>
      <trkpt lat="43.33469" lon="-1.67401">
        <ele>40</ele>
        <time>2021-06-21T06:24:46.537Z</time>
      </trkpt>
      <trkpt lat="43.33469" lon="-1.67401">
        <ele>40</ele>
        <time>2021-06-21T06:24:47.544Z</time>
      </trkpt>
      <trkpt lat="43.33468" lon="-1.6741">
        <ele>39</ele>
        <time>2021-06-21T06:24:48.521Z</time>
      </trkpt>
      <trkpt lat="43.33468" lon="-1.6741">
        <ele>39</ele>
        <time>2021-06-21T06:24:49.534Z</time>
      </trkpt>
      <trkpt lat="43.33468" lon="-1.6742">
        <ele>39</ele>
        <time>2021-06-21T06:24:50.572Z</time>
      </trkpt>
      <trkpt lat="43.33468" lon="-1.6742">
        <ele>39</ele>
        <time>2021-06-21T06:24:51.534Z</time>
      </trkpt>
      <trkpt lat="43.33469" lon="-1.67429">
        <ele>39</ele>
        <time>2021-06-21T06:24:52.541Z</time>
      </trkpt>
      <trkpt lat="43.33469" lon="-1.67429">
        <ele>39</ele>
        <time>2021-06-21T06:24:53.521Z</time>
      </trkpt>
      <trkpt lat="43.3347" lon="-1.67439">
        <ele>39</ele>
        <time>2021-06-21T06:24:54.528Z</time>
      </trkpt>
      <trkpt lat="43.3347" lon="-1.67439">
        <ele>39</ele>
        <time>2021-06-21T06:24:55.547Z</time>
      </trkpt>
      <trkpt lat="43.3347" lon="-1.67448">
        <ele>38</ele>
        <time>2021-06-21T06:24:56.512Z</time>
      </trkpt>
      <trkpt lat="43.3347" lon="-1.67448">
        <ele>38</ele>
        <time>2021-06-21T06:24:57.531Z</time>
      </trkpt>
      <trkpt lat="43.33469" lon="-1.67456">
        <ele>38</ele>
        <time>2021-06-21T06:24:58.537Z</time>
      </trkpt>
      <trkpt lat="43.33469" lon="-1.67456">
        <ele>38</ele>
        <time>2021-06-21T06:24:59.511Z</time>
      </trkpt>
      <trkpt lat="43.33469" lon="-1.67465">
        <ele>37</ele>
        <time>2021-06-21T06:25:00.535Z</time>
      </trkpt>
      <trkpt lat="43.33469" lon="-1.67465">
        <ele>37</ele>
        <time>2021-06-21T06:25:01.546Z</time>
      </trkpt>
      <trkpt lat="43.33468" lon="-1.67474">
        <ele>37</ele>
        <time>2021-06-21T06:25:02.514Z</time>
      </trkpt>
      <trkpt lat="43.33468" lon="-1.67474">
        <ele>37</ele>
        <time>2021-06-21T06:25:03.529Z</time>
      </trkpt>
      <trkpt lat="43.33468" lon="-1.67483">
        <ele>36</ele>
        <time>2021-06-21T06:25:04.537Z</time>
      </trkpt>
      <trkpt lat="43.33468" lon="-1.67483">
        <ele>36</ele>
        <time>2021-06-21T06:25:05.509Z</time>
      </trkpt>
      <trkpt lat="43.33466" lon="-1.67492">
        <ele>36</ele>
        <time>2021-06-21T06:25:06.529Z</time>
      </trkpt>
      <trkpt lat="43.33466" lon="-1.67492">
        <ele>36</ele>
        <time>2021-06-21T06:25:07.526Z</time>
      </trkpt>
      <trkpt lat="43.33465" lon="-1.67501">
        <ele>36</ele>
        <time>2021-06-21T06:25:08.533Z</time>
      </trkpt>
      <trkpt lat="43.33465" lon="-1.67501">
        <ele>36</ele>
        <time>2021-06-21T06:25:09.543Z</time>
      </trkpt>
      <trkpt lat="43.33464" lon="-1.6751">
        <ele>35</ele>
        <time>2021-06-21T06:25:10.511Z</time>
      </trkpt>
      <trkpt lat="43.33464" lon="-1.6751">
        <ele>35</ele>
        <time>2021-06-21T06:25:11.532Z</time>
      </trkpt>
      <trkpt lat="43.33464" lon="-1.67518">
        <ele>34</ele>
        <time>2021-06-21T06:25:12.540Z</time>
      </trkpt>
      <trkpt lat="43.33464" lon="-1.67518">
        <ele>34</ele>
        <time>2021-06-21T06:25:13.515Z</time>
      </trkpt>
      <trkpt lat="43.33463" lon="-1.67527">
        <ele>34</ele>
        <time>2021-06-21T06:25:14.537Z</time>
      </trkpt>
      <trkpt lat="43.33463" lon="-1.67527">
        <ele>34</ele>
        <time>2021-06-21T06:25:15.509Z</time>
      </trkpt>
      <trkpt lat="43.33462" lon="-1.67536">
        <ele>33</ele>
        <time>2021-06-21T06:25:16.518Z</time>
      </trkpt>
      <trkpt lat="43.33462" lon="-1.67536">
        <ele>33</ele>
        <time>2021-06-21T06:25:17.530Z</time>
      </trkpt>
      <trkpt lat="43.3346" lon="-1.67545">
        <ele>33</ele>
        <time>2021-06-21T06:25:18.535Z</time>
      </trkpt>
      <trkpt lat="43.3346" lon="-1.67545">
        <ele>33</ele>
        <time>2021-06-21T06:25:19.545Z</time>
      </trkpt>
      <trkpt lat="43.33457" lon="-1.67554">
        <ele>34</ele>
        <time>2021-06-21T06:25:20.517Z</time>
      </trkpt>
      <trkpt lat="43.33457" lon="-1.67559">
        <ele>34</ele>
        <time>2021-06-21T06:25:21.527Z</time>
      </trkpt>
      <trkpt lat="43.33457" lon="-1.67559">
        <ele>34</ele>
        <time>2021-06-21T06:25:22.521Z</time>
      </trkpt>
      <trkpt lat="43.33455" lon="-1.6757">
        <ele>34</ele>
        <time>2021-06-21T06:25:23.521Z</time>
      </trkpt>
      <trkpt lat="43.33454" lon="-1.67575">
        <ele>34</ele>
        <time>2021-06-21T06:25:24.545Z</time>
      </trkpt>
      <trkpt lat="43.33454" lon="-1.67575">
        <ele>34</ele>
        <time>2021-06-21T06:25:25.522Z</time>
      </trkpt>
      <trkpt lat="43.33453" lon="-1.67583">
        <ele>34</ele>
        <time>2021-06-21T06:25:26.543Z</time>
      </trkpt>
      <trkpt lat="43.33453" lon="-1.67583">
        <ele>34</ele>
        <time>2021-06-21T06:25:27.526Z</time>
      </trkpt>
      <trkpt lat="43.33452" lon="-1.67592">
        <ele>33</ele>
        <time>2021-06-21T06:25:28.531Z</time>
      </trkpt>
      <trkpt lat="43.33451" lon="-1.67597">
        <ele>33</ele>
        <time>2021-06-21T06:25:29.545Z</time>
      </trkpt>
      <trkpt lat="43.33451" lon="-1.67601">
        <ele>33</ele>
        <time>2021-06-21T06:25:30.519Z</time>
      </trkpt>
      <trkpt lat="43.33451" lon="-1.67601">
        <ele>33</ele>
        <time>2021-06-21T06:25:31.538Z</time>
      </trkpt>
      <trkpt lat="43.33449" lon="-1.67609">
        <ele>32</ele>
        <time>2021-06-21T06:25:32.544Z</time>
      </trkpt>
      <trkpt lat="43.33449" lon="-1.67609">
        <ele>32</ele>
        <time>2021-06-21T06:25:33.537Z</time>
      </trkpt>
      <trkpt lat="43.33447" lon="-1.67618">
        <ele>32</ele>
        <time>2021-06-21T06:25:34.534Z</time>
      </trkpt>
      <trkpt lat="43.33447" lon="-1.67618">
        <ele>32</ele>
        <time>2021-06-21T06:25:35.543Z</time>
      </trkpt>
      <trkpt lat="43.33445" lon="-1.67627">
        <ele>32</ele>
        <time>2021-06-21T06:25:36.511Z</time>
      </trkpt>
      <trkpt lat="43.33445" lon="-1.67627">
        <ele>32</ele>
        <time>2021-06-21T06:25:37.535Z</time>
      </trkpt>
      <trkpt lat="43.33444" lon="-1.67635">
        <ele>32</ele>
        <time>2021-06-21T06:25:38.548Z</time>
      </trkpt>
      <trkpt lat="43.33444" lon="-1.67635">
        <ele>32</ele>
        <time>2021-06-21T06:25:39.523Z</time>
      </trkpt>
      <trkpt lat="43.33442" lon="-1.67643">
        <ele>31</ele>
        <time>2021-06-21T06:25:40.526Z</time>
      </trkpt>
      <trkpt lat="43.33442" lon="-1.67643">
        <ele>31</ele>
        <time>2021-06-21T06:25:41.536Z</time>
      </trkpt>
      <trkpt lat="43.33439" lon="-1.67651">
        <ele>31</ele>
        <time>2021-06-21T06:25:42.547Z</time>
      </trkpt>
      <trkpt lat="43.33439" lon="-1.67651">
        <ele>31</ele>
        <time>2021-06-21T06:25:43.544Z</time>
      </trkpt>
      <trkpt lat="43.33437" lon="-1.67661">
        <ele>32</ele>
        <time>2021-06-21T06:25:44.509Z</time>
      </trkpt>
      <trkpt lat="43.33437" lon="-1.67661">
        <ele>32</ele>
        <time>2021-06-21T06:25:45.529Z</time>
      </trkpt>
      <trkpt lat="43.33436" lon="-1.67669">
        <ele>31</ele>
        <time>2021-06-21T06:25:46.538Z</time>
      </trkpt>
      <trkpt lat="43.33436" lon="-1.67669">
        <ele>31</ele>
        <time>2021-06-21T06:25:47.513Z</time>
      </trkpt>
      <trkpt lat="43.33435" lon="-1.67678">
        <ele>31</ele>
        <time>2021-06-21T06:25:48.521Z</time>
      </trkpt>
      <trkpt lat="43.33435" lon="-1.67678">
        <ele>31</ele>
        <time>2021-06-21T06:25:49.535Z</time>
      </trkpt>
      <trkpt lat="43.33434" lon="-1.67686">
        <ele>31</ele>
        <time>2021-06-21T06:25:50.513Z</time>
      </trkpt>
      <trkpt lat="43.33434" lon="-1.67686">
        <ele>31</ele>
        <time>2021-06-21T06:25:51.544Z</time>
      </trkpt>
      <trkpt lat="43.33432" lon="-1.67695">
        <ele>31</ele>
        <time>2021-06-21T06:25:52.515Z</time>
      </trkpt>
      <trkpt lat="43.33432" lon="-1.67695">
        <ele>31</ele>
        <time>2021-06-21T06:25:53.530Z</time>
      </trkpt>
      <trkpt lat="43.33432" lon="-1.67702">
        <ele>30</ele>
        <time>2021-06-21T06:25:54.582Z</time>
      </trkpt>
      <trkpt lat="43.33432" lon="-1.67702">
        <ele>30</ele>
        <time>2021-06-21T06:25:55.534Z</time>
      </trkpt>
      <trkpt lat="43.33429" lon="-1.67709">
        <ele>30</ele>
        <time>2021-06-21T06:25:56.548Z</time>
      </trkpt>
      <trkpt lat="43.33429" lon="-1.67709">
        <ele>30</ele>
        <time>2021-06-21T06:25:57.547Z</time>
      </trkpt>
      <trkpt lat="43.33425" lon="-1.67716">
        <ele>30</ele>
        <time>2021-06-21T06:25:58.514Z</time>
      </trkpt>
      <trkpt lat="43.33425" lon="-1.67716">
        <ele>30</ele>
        <time>2021-06-21T06:25:59.530Z</time>
      </trkpt>
      <trkpt lat="43.33423" lon="-1.67727">
        <ele>30</ele>
        <time>2021-06-21T06:26:00.537Z</time>
      </trkpt>
      <trkpt lat="43.33423" lon="-1.67727">
        <ele>30</ele>
        <time>2021-06-21T06:26:01.530Z</time>
      </trkpt>
      <trkpt lat="43.33422" lon="-1.67737">
        <ele>30</ele>
        <time>2021-06-21T06:26:02.535Z</time>
      </trkpt>
      <trkpt lat="43.33422" lon="-1.67737">
        <ele>30</ele>
        <time>2021-06-21T06:26:03.513Z</time>
      </trkpt>
      <trkpt lat="43.33422" lon="-1.67747">
        <ele>31</ele>
        <time>2021-06-21T06:26:04.521Z</time>
      </trkpt>
      <trkpt lat="43.33422" lon="-1.67747">
        <ele>31</ele>
        <time>2021-06-21T06:26:05.536Z</time>
      </trkpt>
      <trkpt lat="43.33422" lon="-1.67756">
        <ele>31</ele>
        <time>2021-06-21T06:26:06.514Z</time>
      </trkpt>
      <trkpt lat="43.33422" lon="-1.67756">
        <ele>31</ele>
        <time>2021-06-21T06:26:07.533Z</time>
      </trkpt>
      <trkpt lat="43.3342" lon="-1.67766">
        <ele>33</ele>
        <time>2021-06-21T06:26:08.539Z</time>
      </trkpt>
      <trkpt lat="43.3342" lon="-1.67766">
        <ele>33</ele>
        <time>2021-06-21T06:26:09.533Z</time>
      </trkpt>
      <trkpt lat="43.3342" lon="-1.67776">
        <ele>34</ele>
        <time>2021-06-21T06:26:10.543Z</time>
      </trkpt>
      <trkpt lat="43.3342" lon="-1.67776">
        <ele>34</ele>
        <time>2021-06-21T06:26:11.517Z</time>
      </trkpt>
      <trkpt lat="43.3342" lon="-1.67785">
        <ele>36</ele>
        <time>2021-06-21T06:26:12.523Z</time>
      </trkpt>
      <trkpt lat="43.3342" lon="-1.67785">
        <ele>36</ele>
        <time>2021-06-21T06:26:13.509Z</time>
      </trkpt>
      <trkpt lat="43.33421" lon="-1.67794">
        <ele>37</ele>
        <time>2021-06-21T06:26:14.531Z</time>
      </trkpt>
      <trkpt lat="43.33421" lon="-1.67794">
        <ele>37</ele>
        <time>2021-06-21T06:26:15.532Z</time>
      </trkpt>
      <trkpt lat="43.33422" lon="-1.67803">
        <ele>39</ele>
        <time>2021-06-21T06:26:16.511Z</time>
      </trkpt>
      <trkpt lat="43.33422" lon="-1.67803">
        <ele>39</ele>
        <time>2021-06-21T06:26:17.525Z</time>
      </trkpt>
      <trkpt lat="43.33422" lon="-1.67812">
        <ele>42</ele>
        <time>2021-06-21T06:26:18.536Z</time>
      </trkpt>
      <trkpt lat="43.33422" lon="-1.67812">
        <ele>42</ele>
        <time>2021-06-21T06:26:19.510Z</time>
      </trkpt>
      <trkpt lat="43.33422" lon="-1.67821">
        <ele>44</ele>
        <time>2021-06-21T06:26:20.519Z</time>
      </trkpt>
      <trkpt lat="43.33422" lon="-1.67821">
        <ele>44</ele>
        <time>2021-06-21T06:26:21.544Z</time>
      </trkpt>
      <trkpt lat="43.33421" lon="-1.67829">
        <ele>45</ele>
        <time>2021-06-21T06:26:22.536Z</time>
      </trkpt>
      <trkpt lat="43.33421" lon="-1.67829">
        <ele>45</ele>
        <time>2021-06-21T06:26:23.516Z</time>
      </trkpt>
      <trkpt lat="43.33421" lon="-1.67837">
        <ele>46</ele>
        <time>2021-06-21T06:26:24.523Z</time>
      </trkpt>
      <trkpt lat="43.33421" lon="-1.67837">
        <ele>46</ele>
        <time>2021-06-21T06:26:25.537Z</time>
      </trkpt>
      <trkpt lat="43.33421" lon="-1.67846">
        <ele>46</ele>
        <time>2021-06-21T06:26:26.514Z</time>
      </trkpt>
      <trkpt lat="43.33421" lon="-1.67846">
        <ele>46</ele>
        <time>2021-06-21T06:26:27.529Z</time>
      </trkpt>
      <trkpt lat="43.33421" lon="-1.67854">
        <ele>47</ele>
        <time>2021-06-21T06:26:28.537Z</time>
      </trkpt>
      <trkpt lat="43.33421" lon="-1.67854">
        <ele>47</ele>
        <time>2021-06-21T06:26:29.512Z</time>
      </trkpt>
      <trkpt lat="43.33422" lon="-1.67862">
        <ele>48</ele>
        <time>2021-06-21T06:26:30.521Z</time>
      </trkpt>
      <trkpt lat="43.33422" lon="-1.67862">
        <ele>48</ele>
        <time>2021-06-21T06:26:31.536Z</time>
      </trkpt>
      <trkpt lat="43.33422" lon="-1.67869">
        <ele>49</ele>
        <time>2021-06-21T06:26:32.546Z</time>
      </trkpt>
      <trkpt lat="43.33422" lon="-1.67869">
        <ele>49</ele>
        <time>2021-06-21T06:26:33.537Z</time>
      </trkpt>
      <trkpt lat="43.33421" lon="-1.67876">
        <ele>49</ele>
        <time>2021-06-21T06:26:34.545Z</time>
      </trkpt>
      <trkpt lat="43.33421" lon="-1.67876">
        <ele>49</ele>
        <time>2021-06-21T06:26:35.527Z</time>
      </trkpt>
      <trkpt lat="43.33421" lon="-1.67883">
        <ele>50</ele>
        <time>2021-06-21T06:26:36.536Z</time>
      </trkpt>
      <trkpt lat="43.33421" lon="-1.67883">
        <ele>50</ele>
        <time>2021-06-21T06:26:37.521Z</time>
      </trkpt>
      <trkpt lat="43.33421" lon="-1.6789">
        <ele>51</ele>
        <time>2021-06-21T06:26:38.512Z</time>
      </trkpt>
      <trkpt lat="43.33421" lon="-1.6789">
        <ele>51</ele>
        <time>2021-06-21T06:26:39.544Z</time>
      </trkpt>
      <trkpt lat="43.33422" lon="-1.67897">
        <ele>52</ele>
        <time>2021-06-21T06:26:40.511Z</time>
      </trkpt>
      <trkpt lat="43.33422" lon="-1.67897">
        <ele>52</ele>
        <time>2021-06-21T06:26:41.521Z</time>
      </trkpt>
      <trkpt lat="43.33422" lon="-1.67904">
        <ele>52</ele>
        <time>2021-06-21T06:26:42.527Z</time>
      </trkpt>
      <trkpt lat="43.33422" lon="-1.67904">
        <ele>52</ele>
        <time>2021-06-21T06:26:43.511Z</time>
      </trkpt>
      <trkpt lat="43.33422" lon="-1.67911">
        <ele>53</ele>
        <time>2021-06-21T06:26:44.536Z</time>
      </trkpt>
      <trkpt lat="43.33422" lon="-1.67911">
        <ele>53</ele>
        <time>2021-06-21T06:26:45.522Z</time>
      </trkpt>
      <trkpt lat="43.33422" lon="-1.67918">
        <ele>54</ele>
        <time>2021-06-21T06:26:46.528Z</time>
      </trkpt>
      <trkpt lat="43.33422" lon="-1.67918">
        <ele>54</ele>
        <time>2021-06-21T06:26:47.512Z</time>
      </trkpt>
      <trkpt lat="43.33422" lon="-1.67925">
        <ele>54</ele>
        <time>2021-06-21T06:26:48.535Z</time>
      </trkpt>
      <trkpt lat="43.33422" lon="-1.67925">
        <ele>54</ele>
        <time>2021-06-21T06:26:49.544Z</time>
      </trkpt>
      <trkpt lat="43.33422" lon="-1.67931">
        <ele>54</ele>
        <time>2021-06-21T06:26:50.512Z</time>
      </trkpt>
      <trkpt lat="43.33422" lon="-1.67931">
        <ele>54</ele>
        <time>2021-06-21T06:26:51.528Z</time>
      </trkpt>
      <trkpt lat="43.33422" lon="-1.67938">
        <ele>55</ele>
        <time>2021-06-21T06:26:52.536Z</time>
      </trkpt>
      <trkpt lat="43.33422" lon="-1.67938">
        <ele>55</ele>
        <time>2021-06-21T06:26:53.510Z</time>
      </trkpt>
      <trkpt lat="43.33422" lon="-1.67945">
        <ele>55</ele>
        <time>2021-06-21T06:26:54.519Z</time>
      </trkpt>
      <trkpt lat="43.33422" lon="-1.67945">
        <ele>55</ele>
        <time>2021-06-21T06:26:55.544Z</time>
      </trkpt>
      <trkpt lat="43.33421" lon="-1.67952">
        <ele>56</ele>
        <time>2021-06-21T06:26:56.511Z</time>
      </trkpt>
      <trkpt lat="43.33421" lon="-1.67952">
        <ele>56</ele>
        <time>2021-06-21T06:26:57.529Z</time>
      </trkpt>
      <trkpt lat="43.33421" lon="-1.67958">
        <ele>56</ele>
        <time>2021-06-21T06:26:58.536Z</time>
      </trkpt>
      <trkpt lat="43.33421" lon="-1.67958">
        <ele>56</ele>
        <time>2021-06-21T06:26:59.514Z</time>
      </trkpt>
      <trkpt lat="43.3342" lon="-1.67965">
        <ele>56</ele>
        <time>2021-06-21T06:27:00.521Z</time>
      </trkpt>
      <trkpt lat="43.3342" lon="-1.67965">
        <ele>56</ele>
        <time>2021-06-21T06:27:01.536Z</time>
      </trkpt>
      <trkpt lat="43.3342" lon="-1.67971">
        <ele>57</ele>
        <time>2021-06-21T06:27:02.524Z</time>
      </trkpt>
      <trkpt lat="43.3342" lon="-1.67971">
        <ele>57</ele>
        <time>2021-06-21T06:27:03.548Z</time>
      </trkpt>
      <trkpt lat="43.3342" lon="-1.67978">
        <ele>57</ele>
        <time>2021-06-21T06:27:04.517Z</time>
      </trkpt>
      <trkpt lat="43.3342" lon="-1.67978">
        <ele>57</ele>
        <time>2021-06-21T06:27:05.529Z</time>
      </trkpt>
      <trkpt lat="43.3342" lon="-1.67984">
        <ele>58</ele>
        <time>2021-06-21T06:27:06.536Z</time>
      </trkpt>
      <trkpt lat="43.3342" lon="-1.67987">
        <ele>58</ele>
        <time>2021-06-21T06:27:07.530Z</time>
      </trkpt>
      <trkpt lat="43.3342" lon="-1.67987">
        <ele>58</ele>
        <time>2021-06-21T06:27:08.521Z</time>
      </trkpt>
      <trkpt lat="43.3342" lon="-1.67994">
        <ele>58</ele>
        <time>2021-06-21T06:27:09.530Z</time>
      </trkpt>
      <trkpt lat="43.3342" lon="-1.67994">
        <ele>58</ele>
        <time>2021-06-21T06:27:10.546Z</time>
      </trkpt>
      <trkpt lat="43.33419" lon="-1.68">
        <ele>58</ele>
        <time>2021-06-21T06:27:11.512Z</time>
      </trkpt>
      <trkpt lat="43.33419" lon="-1.68">
        <ele>58</ele>
        <time>2021-06-21T06:27:12.514Z</time>
      </trkpt>
      <trkpt lat="43.33419" lon="-1.68007">
        <ele>59</ele>
        <time>2021-06-21T06:27:13.552Z</time>
      </trkpt>
      <trkpt lat="43.33419" lon="-1.68007">
        <ele>59</ele>
        <time>2021-06-21T06:27:14.526Z</time>
      </trkpt>
      <trkpt lat="43.33419" lon="-1.68014">
        <ele>59</ele>
        <time>2021-06-21T06:27:15.536Z</time>
      </trkpt>
      <trkpt lat="43.33419" lon="-1.68014">
        <ele>59</ele>
        <time>2021-06-21T06:27:16.511Z</time>
      </trkpt>
      <trkpt lat="43.33419" lon="-1.6802">
        <ele>60</ele>
        <time>2021-06-21T06:27:17.531Z</time>
      </trkpt>
      <trkpt lat="43.33419" lon="-1.68024">
        <ele>60</ele>
        <time>2021-06-21T06:27:18.510Z</time>
      </trkpt>
      <trkpt lat="43.33419" lon="-1.68024">
        <ele>60</ele>
        <time>2021-06-21T06:27:19.526Z</time>
      </trkpt>
      <trkpt lat="43.33419" lon="-1.6803">
        <ele>60</ele>
        <time>2021-06-21T06:27:20.534Z</time>
      </trkpt>
      <trkpt lat="43.33419" lon="-1.6803">
        <ele>60</ele>
        <time>2021-06-21T06:27:21.548Z</time>
      </trkpt>
      <trkpt lat="43.33418" lon="-1.68037">
        <ele>60</ele>
        <time>2021-06-21T06:27:22.530Z</time>
      </trkpt>
      <trkpt lat="43.33418" lon="-1.68037">
        <ele>60</ele>
        <time>2021-06-21T06:27:23.515Z</time>
      </trkpt>
      <trkpt lat="43.33418" lon="-1.68044">
        <ele>61</ele>
        <time>2021-06-21T06:27:24.523Z</time>
      </trkpt>
      <trkpt lat="43.33418" lon="-1.68044">
        <ele>61</ele>
        <time>2021-06-21T06:27:25.537Z</time>
      </trkpt>
      <trkpt lat="43.33418" lon="-1.6805">
        <ele>61</ele>
        <time>2021-06-21T06:27:26.545Z</time>
      </trkpt>
      <trkpt lat="43.33418" lon="-1.6805">
        <ele>61</ele>
        <time>2021-06-21T06:27:27.516Z</time>
      </trkpt>
      <trkpt lat="43.33417" lon="-1.68055">
        <ele>61</ele>
        <time>2021-06-21T06:27:28.557Z</time>
      </trkpt>
      <trkpt lat="43.33417" lon="-1.68055">
        <ele>61</ele>
        <time>2021-06-21T06:27:29.549Z</time>
      </trkpt>
      <trkpt lat="43.33416" lon="-1.68061">
        <ele>61</ele>
        <time>2021-06-21T06:27:30.523Z</time>
      </trkpt>
      <trkpt lat="43.33416" lon="-1.68061">
        <ele>61</ele>
        <time>2021-06-21T06:27:31.539Z</time>
      </trkpt>
      <trkpt lat="43.33416" lon="-1.68068">
        <ele>61</ele>
        <time>2021-06-21T06:27:32.547Z</time>
      </trkpt>
      <trkpt lat="43.33416" lon="-1.68068">
        <ele>61</ele>
        <time>2021-06-21T06:27:33.520Z</time>
      </trkpt>
      <trkpt lat="43.33416" lon="-1.68075">
        <ele>61</ele>
        <time>2021-06-21T06:27:34.529Z</time>
      </trkpt>
      <trkpt lat="43.33416" lon="-1.68075">
        <ele>61</ele>
        <time>2021-06-21T06:27:35.539Z</time>
      </trkpt>
      <trkpt lat="43.33416" lon="-1.68082">
        <ele>61</ele>
        <time>2021-06-21T06:27:36.548Z</time>
      </trkpt>
      <trkpt lat="43.33416" lon="-1.68082">
        <ele>61</ele>
        <time>2021-06-21T06:27:37.530Z</time>
      </trkpt>
      <trkpt lat="43.33416" lon="-1.68089">
        <ele>61</ele>
        <time>2021-06-21T06:27:38.539Z</time>
      </trkpt>
      <trkpt lat="43.33416" lon="-1.68089">
        <ele>61</ele>
        <time>2021-06-21T06:27:39.517Z</time>
      </trkpt>
      <trkpt lat="43.33416" lon="-1.68096">
        <ele>61</ele>
        <time>2021-06-21T06:27:40.525Z</time>
      </trkpt>
      <trkpt lat="43.33416" lon="-1.68096">
        <ele>61</ele>
        <time>2021-06-21T06:27:41.535Z</time>
      </trkpt>
      <trkpt lat="43.33416" lon="-1.68103">
        <ele>61</ele>
        <time>2021-06-21T06:27:42.544Z</time>
      </trkpt>
      <trkpt lat="43.33416" lon="-1.68103">
        <ele>61</ele>
        <time>2021-06-21T06:27:43.533Z</time>
      </trkpt>
      <trkpt lat="43.33415" lon="-1.6811">
        <ele>62</ele>
        <time>2021-06-21T06:27:44.509Z</time>
      </trkpt>
      <trkpt lat="43.33415" lon="-1.6811">
        <ele>62</ele>
        <time>2021-06-21T06:27:45.537Z</time>
      </trkpt>
      <trkpt lat="43.33415" lon="-1.68117">
        <ele>62</ele>
        <time>2021-06-21T06:27:46.512Z</time>
      </trkpt>
      <trkpt lat="43.33415" lon="-1.68117">
        <ele>62</ele>
        <time>2021-06-21T06:27:47.516Z</time>
      </trkpt>
      <trkpt lat="43.33414" lon="-1.68124">
        <ele>62</ele>
        <time>2021-06-21T06:27:48.525Z</time>
      </trkpt>
      <trkpt lat="43.33414" lon="-1.68124">
        <ele>62</ele>
        <time>2021-06-21T06:27:49.542Z</time>
      </trkpt>
      <trkpt lat="43.33415" lon="-1.68131">
        <ele>62</ele>
        <time>2021-06-21T06:27:50.549Z</time>
      </trkpt>
      <trkpt lat="43.33415" lon="-1.68131">
        <ele>62</ele>
        <time>2021-06-21T06:27:51.513Z</time>
      </trkpt>
      <trkpt lat="43.33414" lon="-1.68138">
        <ele>62</ele>
        <time>2021-06-21T06:27:52.526Z</time>
      </trkpt>
      <trkpt lat="43.33414" lon="-1.68138">
        <ele>62</ele>
        <time>2021-06-21T06:27:53.542Z</time>
      </trkpt>
      <trkpt lat="43.33414" lon="-1.68145">
        <ele>62</ele>
        <time>2021-06-21T06:27:54.517Z</time>
      </trkpt>
      <trkpt lat="43.33414" lon="-1.68145">
        <ele>62</ele>
        <time>2021-06-21T06:27:55.531Z</time>
      </trkpt>
      <trkpt lat="43.33413" lon="-1.68152">
        <ele>63</ele>
        <time>2021-06-21T06:27:56.546Z</time>
      </trkpt>
      <trkpt lat="43.33413" lon="-1.68152">
        <ele>63</ele>
        <time>2021-06-21T06:27:57.516Z</time>
      </trkpt>
      <trkpt lat="43.33413" lon="-1.68159">
        <ele>63</ele>
        <time>2021-06-21T06:27:58.523Z</time>
      </trkpt>
      <trkpt lat="43.33413" lon="-1.68159">
        <ele>63</ele>
        <time>2021-06-21T06:27:59.541Z</time>
      </trkpt>
      <trkpt lat="43.33412" lon="-1.68165">
        <ele>64</ele>
        <time>2021-06-21T06:28:00.511Z</time>
      </trkpt>
      <trkpt lat="43.33412" lon="-1.68165">
        <ele>64</ele>
        <time>2021-06-21T06:28:01.531Z</time>
      </trkpt>
      <trkpt lat="43.33412" lon="-1.68173">
        <ele>65</ele>
        <time>2021-06-21T06:28:02.538Z</time>
      </trkpt>
      <trkpt lat="43.33412" lon="-1.68177">
        <ele>65</ele>
        <time>2021-06-21T06:28:03.525Z</time>
      </trkpt>
      <trkpt lat="43.33412" lon="-1.68177">
        <ele>65</ele>
        <time>2021-06-21T06:28:04.509Z</time>
      </trkpt>
      <trkpt lat="43.33412" lon="-1.68183">
        <ele>65</ele>
        <time>2021-06-21T06:28:05.515Z</time>
      </trkpt>
      <trkpt lat="43.33412" lon="-1.68186">
        <ele>65</ele>
        <time>2021-06-21T06:28:06.530Z</time>
      </trkpt>
      <trkpt lat="43.33412" lon="-1.68186">
        <ele>65</ele>
        <time>2021-06-21T06:28:07.545Z</time>
      </trkpt>
      <trkpt lat="43.33412" lon="-1.68192">
        <ele>64</ele>
        <time>2021-06-21T06:28:08.517Z</time>
      </trkpt>
      <trkpt lat="43.33412" lon="-1.68192">
        <ele>64</ele>
        <time>2021-06-21T06:28:09.532Z</time>
      </trkpt>
      <trkpt lat="43.33411" lon="-1.68199">
        <ele>64</ele>
        <time>2021-06-21T06:28:10.538Z</time>
      </trkpt>
      <trkpt lat="43.33411" lon="-1.68199">
        <ele>64</ele>
        <time>2021-06-21T06:28:11.548Z</time>
      </trkpt>
      <trkpt lat="43.33411" lon="-1.68205">
        <ele>64</ele>
        <time>2021-06-21T06:28:12.515Z</time>
      </trkpt>
      <trkpt lat="43.33411" lon="-1.68205">
        <ele>64</ele>
        <time>2021-06-21T06:28:13.529Z</time>
      </trkpt>
      <trkpt lat="43.33411" lon="-1.68211">
        <ele>64</ele>
        <time>2021-06-21T06:28:14.547Z</time>
      </trkpt>
      <trkpt lat="43.33411" lon="-1.68211">
        <ele>64</ele>
        <time>2021-06-21T06:28:15.512Z</time>
      </trkpt>
      <trkpt lat="43.3341" lon="-1.68217">
        <ele>64</ele>
        <time>2021-06-21T06:28:16.520Z</time>
      </trkpt>
      <trkpt lat="43.3341" lon="-1.6822">
        <ele>64</ele>
        <time>2021-06-21T06:28:17.532Z</time>
      </trkpt>
      <trkpt lat="43.3341" lon="-1.6822">
        <ele>64</ele>
        <time>2021-06-21T06:28:18.540Z</time>
      </trkpt>
      <trkpt lat="43.3341" lon="-1.68226">
        <ele>63</ele>
        <time>2021-06-21T06:28:19.511Z</time>
      </trkpt>
      <trkpt lat="43.3341" lon="-1.68226">
        <ele>63</ele>
        <time>2021-06-21T06:28:20.527Z</time>
      </trkpt>
      <trkpt lat="43.3341" lon="-1.68232">
        <ele>63</ele>
        <time>2021-06-21T06:28:21.534Z</time>
      </trkpt>
      <trkpt lat="43.3341" lon="-1.68232">
        <ele>63</ele>
        <time>2021-06-21T06:28:22.534Z</time>
      </trkpt>
      <trkpt lat="43.3341" lon="-1.68239">
        <ele>63</ele>
        <time>2021-06-21T06:28:23.522Z</time>
      </trkpt>
      <trkpt lat="43.3341" lon="-1.68242">
        <ele>63</ele>
        <time>2021-06-21T06:28:24.537Z</time>
      </trkpt>
      <trkpt lat="43.3341" lon="-1.68242">
        <ele>63</ele>
        <time>2021-06-21T06:28:25.516Z</time>
      </trkpt>
      <trkpt lat="43.33409" lon="-1.68249">
        <ele>63</ele>
        <time>2021-06-21T06:28:26.524Z</time>
      </trkpt>
      <trkpt lat="43.33409" lon="-1.68249">
        <ele>63</ele>
        <time>2021-06-21T06:28:27.514Z</time>
      </trkpt>
      <trkpt lat="43.33411" lon="-1.68255">
        <ele>62</ele>
        <time>2021-06-21T06:28:28.538Z</time>
      </trkpt>
      <trkpt lat="43.33411" lon="-1.68255">
        <ele>62</ele>
        <time>2021-06-21T06:28:29.536Z</time>
      </trkpt>
      <trkpt lat="43.33411" lon="-1.68261">
        <ele>62</ele>
        <time>2021-06-21T06:28:30.543Z</time>
      </trkpt>
      <trkpt lat="43.33411" lon="-1.68261">
        <ele>62</ele>
        <time>2021-06-21T06:28:31.513Z</time>
      </trkpt>
      <trkpt lat="43.3341" lon="-1.68267">
        <ele>62</ele>
        <time>2021-06-21T06:28:32.519Z</time>
      </trkpt>
      <trkpt lat="43.3341" lon="-1.68267">
        <ele>62</ele>
        <time>2021-06-21T06:28:33.535Z</time>
      </trkpt>
      <trkpt lat="43.33409" lon="-1.68274">
        <ele>61</ele>
        <time>2021-06-21T06:28:34.537Z</time>
      </trkpt>
      <trkpt lat="43.33409" lon="-1.68274">
        <ele>61</ele>
        <time>2021-06-21T06:28:35.521Z</time>
      </trkpt>
      <trkpt lat="43.33407" lon="-1.68281">
        <ele>61</ele>
        <time>2021-06-21T06:28:36.531Z</time>
      </trkpt>
      <trkpt lat="43.33407" lon="-1.68281">
        <ele>61</ele>
        <time>2021-06-21T06:28:37.515Z</time>
      </trkpt>
      <trkpt lat="43.33407" lon="-1.68287">
        <ele>61</ele>
        <time>2021-06-21T06:28:38.523Z</time>
      </trkpt>
      <trkpt lat="43.33407" lon="-1.68287">
        <ele>61</ele>
        <time>2021-06-21T06:28:39.547Z</time>
      </trkpt>
      <trkpt lat="43.33406" lon="-1.68293">
        <ele>61</ele>
        <time>2021-06-21T06:28:40.513Z</time>
      </trkpt>
      <trkpt lat="43.33406" lon="-1.68293">
        <ele>61</ele>
        <time>2021-06-21T06:28:41.524Z</time>
      </trkpt>
      <trkpt lat="43.33406" lon="-1.683">
        <ele>60</ele>
        <time>2021-06-21T06:28:42.571Z</time>
      </trkpt>
      <trkpt lat="43.33406" lon="-1.683">
        <ele>60</ele>
        <time>2021-06-21T06:28:43.514Z</time>
      </trkpt>
      <trkpt lat="43.33406" lon="-1.68307">
        <ele>59</ele>
        <time>2021-06-21T06:28:44.520Z</time>
      </trkpt>
      <trkpt lat="43.33406" lon="-1.68307">
        <ele>59</ele>
        <time>2021-06-21T06:28:45.533Z</time>
      </trkpt>
      <trkpt lat="43.33406" lon="-1.68314">
        <ele>59</ele>
        <time>2021-06-21T06:28:46.539Z</time>
      </trkpt>
      <trkpt lat="43.33406" lon="-1.68314">
        <ele>59</ele>
        <time>2021-06-21T06:28:47.514Z</time>
      </trkpt>
      <trkpt lat="43.33406" lon="-1.68322">
        <ele>58</ele>
        <time>2021-06-21T06:28:48.538Z</time>
      </trkpt>
      <trkpt lat="43.33406" lon="-1.68322">
        <ele>58</ele>
        <time>2021-06-21T06:28:49.539Z</time>
      </trkpt>
      <trkpt lat="43.33405" lon="-1.68329">
        <ele>58</ele>
        <time>2021-06-21T06:28:50.510Z</time>
      </trkpt>
      <trkpt lat="43.33405" lon="-1.68329">
        <ele>58</ele>
        <time>2021-06-21T06:28:51.534Z</time>
      </trkpt>
      <trkpt lat="43.33405" lon="-1.68336">
        <ele>58</ele>
        <time>2021-06-21T06:28:52.540Z</time>
      </trkpt>
      <trkpt lat="43.33405" lon="-1.68336">
        <ele>58</ele>
        <time>2021-06-21T06:28:53.547Z</time>
      </trkpt>
      <trkpt lat="43.33404" lon="-1.68344">
        <ele>58</ele>
        <time>2021-06-21T06:28:54.522Z</time>
      </trkpt>
      <trkpt lat="43.33404" lon="-1.68344">
        <ele>58</ele>
        <time>2021-06-21T06:28:55.523Z</time>
      </trkpt>
      <trkpt lat="43.33404" lon="-1.68352">
        <ele>59</ele>
        <time>2021-06-21T06:28:56.532Z</time>
      </trkpt>
      <trkpt lat="43.33404" lon="-1.68352">
        <ele>59</ele>
        <time>2021-06-21T06:28:57.511Z</time>
      </trkpt>
      <trkpt lat="43.33405" lon="-1.6836">
        <ele>59</ele>
        <time>2021-06-21T06:28:58.520Z</time>
      </trkpt>
      <trkpt lat="43.33405" lon="-1.6836">
        <ele>59</ele>
        <time>2021-06-21T06:28:59.535Z</time>
      </trkpt>
      <trkpt lat="43.33406" lon="-1.68371">
        <ele>60</ele>
        <time>2021-06-21T06:29:00.543Z</time>
      </trkpt>
      <trkpt lat="43.33406" lon="-1.68371">
        <ele>60</ele>
        <time>2021-06-21T06:29:01.519Z</time>
      </trkpt>
      <trkpt lat="43.33406" lon="-1.68379">
        <ele>62</ele>
        <time>2021-06-21T06:29:02.540Z</time>
      </trkpt>
      <trkpt lat="43.33406" lon="-1.68379">
        <ele>62</ele>
        <time>2021-06-21T06:29:03.527Z</time>
      </trkpt>
      <trkpt lat="43.33405" lon="-1.68389">
        <ele>64</ele>
        <time>2021-06-21T06:29:04.534Z</time>
      </trkpt>
      <trkpt lat="43.33405" lon="-1.68389">
        <ele>64</ele>
        <time>2021-06-21T06:29:05.510Z</time>
      </trkpt>
      <trkpt lat="43.33405" lon="-1.68397">
        <ele>67</ele>
        <time>2021-06-21T06:29:06.523Z</time>
      </trkpt>
      <trkpt lat="43.33405" lon="-1.68397">
        <ele>67</ele>
        <time>2021-06-21T06:29:07.535Z</time>
      </trkpt>
      <trkpt lat="43.33405" lon="-1.68404">
        <ele>68</ele>
        <time>2021-06-21T06:29:08.551Z</time>
      </trkpt>
      <trkpt lat="43.33405" lon="-1.68404">
        <ele>68</ele>
        <time>2021-06-21T06:29:09.510Z</time>
      </trkpt>
      <trkpt lat="43.33405" lon="-1.6841">
        <ele>69</ele>
        <time>2021-06-21T06:29:10.522Z</time>
      </trkpt>
      <trkpt lat="43.33405" lon="-1.6841">
        <ele>69</ele>
        <time>2021-06-21T06:29:11.509Z</time>
      </trkpt>
      <trkpt lat="43.33405" lon="-1.68417">
        <ele>70</ele>
        <time>2021-06-21T06:29:12.523Z</time>
      </trkpt>
      <trkpt lat="43.33405" lon="-1.68417">
        <ele>70</ele>
        <time>2021-06-21T06:29:13.541Z</time>
      </trkpt>
      <trkpt lat="43.33405" lon="-1.68424">
        <ele>70</ele>
        <time>2021-06-21T06:29:14.534Z</time>
      </trkpt>
      <trkpt lat="43.33405" lon="-1.68424">
        <ele>70</ele>
        <time>2021-06-21T06:29:15.517Z</time>
      </trkpt>
      <trkpt lat="43.33405" lon="-1.68431">
        <ele>71</ele>
        <time>2021-06-21T06:29:16.528Z</time>
      </trkpt>
      <trkpt lat="43.33405" lon="-1.68431">
        <ele>71</ele>
        <time>2021-06-21T06:29:17.509Z</time>
      </trkpt>
      <trkpt lat="43.33405" lon="-1.68438">
        <ele>71</ele>
        <time>2021-06-21T06:29:18.523Z</time>
      </trkpt>
      <trkpt lat="43.33405" lon="-1.68438">
        <ele>71</ele>
        <time>2021-06-21T06:29:19.545Z</time>
      </trkpt>
      <trkpt lat="43.33404" lon="-1.68445">
        <ele>72</ele>
        <time>2021-06-21T06:29:20.511Z</time>
      </trkpt>
      <trkpt lat="43.33404" lon="-1.68445">
        <ele>72</ele>
        <time>2021-06-21T06:29:21.525Z</time>
      </trkpt>
      <trkpt lat="43.33404" lon="-1.68451">
        <ele>72</ele>
        <time>2021-06-21T06:29:22.540Z</time>
      </trkpt>
      <trkpt lat="43.33404" lon="-1.68451">
        <ele>72</ele>
        <time>2021-06-21T06:29:23.534Z</time>
      </trkpt>
      <trkpt lat="43.33404" lon="-1.68459">
        <ele>73</ele>
        <time>2021-06-21T06:29:24.543Z</time>
      </trkpt>
      <trkpt lat="43.33404" lon="-1.68459">
        <ele>73</ele>
        <time>2021-06-21T06:29:25.530Z</time>
      </trkpt>
      <trkpt lat="43.33404" lon="-1.68466">
        <ele>73</ele>
        <time>2021-06-21T06:29:26.538Z</time>
      </trkpt>
      <trkpt lat="43.33404" lon="-1.68466">
        <ele>73</ele>
        <time>2021-06-21T06:29:27.521Z</time>
      </trkpt>
      <trkpt lat="43.33403" lon="-1.68473">
        <ele>74</ele>
        <time>2021-06-21T06:29:28.527Z</time>
      </trkpt>
      <trkpt lat="43.33403" lon="-1.68473">
        <ele>74</ele>
        <time>2021-06-21T06:29:29.537Z</time>
      </trkpt>
      <trkpt lat="43.33404" lon="-1.68479">
        <ele>75</ele>
        <time>2021-06-21T06:29:30.547Z</time>
      </trkpt>
      <trkpt lat="43.33404" lon="-1.68479">
        <ele>75</ele>
        <time>2021-06-21T06:29:31.520Z</time>
      </trkpt>
      <trkpt lat="43.33403" lon="-1.68486">
        <ele>75</ele>
        <time>2021-06-21T06:29:32.528Z</time>
      </trkpt>
      <trkpt lat="43.33403" lon="-1.68486">
        <ele>75</ele>
        <time>2021-06-21T06:29:33.546Z</time>
      </trkpt>
      <trkpt lat="43.33403" lon="-1.68492">
        <ele>75</ele>
        <time>2021-06-21T06:29:34.524Z</time>
      </trkpt>
      <trkpt lat="43.33403" lon="-1.68492">
        <ele>75</ele>
        <time>2021-06-21T06:29:35.524Z</time>
      </trkpt>
      <trkpt lat="43.33402" lon="-1.68499">
        <ele>76</ele>
        <time>2021-06-21T06:29:36.536Z</time>
      </trkpt>
      <trkpt lat="43.33402" lon="-1.68499">
        <ele>76</ele>
        <time>2021-06-21T06:29:37.522Z</time>
      </trkpt>
      <trkpt lat="43.33402" lon="-1.68507">
        <ele>77</ele>
        <time>2021-06-21T06:29:38.576Z</time>
      </trkpt>
      <trkpt lat="43.33402" lon="-1.68507">
        <ele>77</ele>
        <time>2021-06-21T06:29:39.547Z</time>
      </trkpt>
      <trkpt lat="43.33402" lon="-1.68515">
        <ele>78</ele>
        <time>2021-06-21T06:29:40.514Z</time>
      </trkpt>
      <trkpt lat="43.33402" lon="-1.68515">
        <ele>78</ele>
        <time>2021-06-21T06:29:41.530Z</time>
      </trkpt>
      <trkpt lat="43.33402" lon="-1.68522">
        <ele>78</ele>
        <time>2021-06-21T06:29:42.536Z</time>
      </trkpt>
      <trkpt lat="43.33402" lon="-1.68522">
        <ele>78</ele>
        <time>2021-06-21T06:29:43.512Z</time>
      </trkpt>
      <trkpt lat="43.33402" lon="-1.6853">
        <ele>79</ele>
        <time>2021-06-21T06:29:44.551Z</time>
      </trkpt>
      <trkpt lat="43.33402" lon="-1.6853">
        <ele>79</ele>
        <time>2021-06-21T06:29:45.539Z</time>
      </trkpt>
      <trkpt lat="43.33402" lon="-1.68537">
        <ele>79</ele>
        <time>2021-06-21T06:29:46.509Z</time>
      </trkpt>
      <trkpt lat="43.33402" lon="-1.68537">
        <ele>79</ele>
        <time>2021-06-21T06:29:47.527Z</time>
      </trkpt>
      <trkpt lat="43.334" lon="-1.68545">
        <ele>79</ele>
        <time>2021-06-21T06:29:48.533Z</time>
      </trkpt>
      <trkpt lat="43.334" lon="-1.68545">
        <ele>79</ele>
        <time>2021-06-21T06:29:49.527Z</time>
      </trkpt>
      <trkpt lat="43.33399" lon="-1.68552">
        <ele>80</ele>
        <time>2021-06-21T06:29:50.515Z</time>
      </trkpt>
      <trkpt lat="43.33399" lon="-1.68552">
        <ele>80</ele>
        <time>2021-06-21T06:29:51.533Z</time>
      </trkpt>
      <trkpt lat="43.33399" lon="-1.68559">
        <ele>80</ele>
        <time>2021-06-21T06:29:52.540Z</time>
      </trkpt>
      <trkpt lat="43.33399" lon="-1.68559">
        <ele>80</ele>
        <time>2021-06-21T06:29:53.514Z</time>
      </trkpt>
      <trkpt lat="43.33399" lon="-1.68566">
        <ele>80</ele>
        <time>2021-06-21T06:29:54.523Z</time>
      </trkpt>
      <trkpt lat="43.33399" lon="-1.68566">
        <ele>80</ele>
        <time>2021-06-21T06:29:55.542Z</time>
      </trkpt>
      <trkpt lat="43.33399" lon="-1.68573">
        <ele>81</ele>
        <time>2021-06-21T06:29:56.509Z</time>
      </trkpt>
      <trkpt lat="43.33399" lon="-1.68573">
        <ele>81</ele>
        <time>2021-06-21T06:29:57.523Z</time>
      </trkpt>
      <trkpt lat="43.33398" lon="-1.68581">
        <ele>81</ele>
        <time>2021-06-21T06:29:58.530Z</time>
      </trkpt>
      <trkpt lat="43.33398" lon="-1.68581">
        <ele>81</ele>
        <time>2021-06-21T06:29:59.510Z</time>
      </trkpt>
      <trkpt lat="43.33398" lon="-1.68587">
        <ele>81</ele>
        <time>2021-06-21T06:30:00.520Z</time>
      </trkpt>
      <trkpt lat="43.33398" lon="-1.68587">
        <ele>81</ele>
        <time>2021-06-21T06:30:01.537Z</time>
      </trkpt>
      <trkpt lat="43.33398" lon="-1.68594">
        <ele>82</ele>
        <time>2021-06-21T06:30:02.519Z</time>
      </trkpt>
      <trkpt lat="43.33398" lon="-1.68594">
        <ele>82</ele>
        <time>2021-06-21T06:30:03.533Z</time>
      </trkpt>
      <trkpt lat="43.33398" lon="-1.68602">
        <ele>82</ele>
        <time>2021-06-21T06:30:04.554Z</time>
      </trkpt>
      <trkpt lat="43.33398" lon="-1.68602">
        <ele>82</ele>
        <time>2021-06-21T06:30:05.515Z</time>
      </trkpt>
      <trkpt lat="43.33398" lon="-1.68609">
        <ele>83</ele>
        <time>2021-06-21T06:30:06.520Z</time>
      </trkpt>
      <trkpt lat="43.33398" lon="-1.68609">
        <ele>83</ele>
        <time>2021-06-21T06:30:07.538Z</time>
      </trkpt>
      <trkpt lat="43.33398" lon="-1.68616">
        <ele>83</ele>
        <time>2021-06-21T06:30:08.509Z</time>
      </trkpt>
      <trkpt lat="43.33398" lon="-1.68616">
        <ele>83</ele>
        <time>2021-06-21T06:30:09.526Z</time>
      </trkpt>
      <trkpt lat="43.33398" lon="-1.68623">
        <ele>83</ele>
        <time>2021-06-21T06:30:10.532Z</time>
      </trkpt>
      <trkpt lat="43.33398" lon="-1.68623">
        <ele>83</ele>
        <time>2021-06-21T06:30:11.511Z</time>
      </trkpt>
      <trkpt lat="43.33397" lon="-1.6863">
        <ele>83</ele>
        <time>2021-06-21T06:30:12.525Z</time>
      </trkpt>
      <trkpt lat="43.33397" lon="-1.6863">
        <ele>83</ele>
        <time>2021-06-21T06:30:13.528Z</time>
      </trkpt>
      <trkpt lat="43.33396" lon="-1.68637">
        <ele>83</ele>
        <time>2021-06-21T06:30:14.535Z</time>
      </trkpt>
      <trkpt lat="43.33396" lon="-1.68637">
        <ele>83</ele>
        <time>2021-06-21T06:30:15.532Z</time>
      </trkpt>
      <trkpt lat="43.33396" lon="-1.68645">
        <ele>83</ele>
        <time>2021-06-21T06:30:16.539Z</time>
      </trkpt>
      <trkpt lat="43.33396" lon="-1.68645">
        <ele>83</ele>
        <time>2021-06-21T06:30:17.510Z</time>
      </trkpt>
      <trkpt lat="43.33396" lon="-1.68653">
        <ele>83</ele>
        <time>2021-06-21T06:30:18.538Z</time>
      </trkpt>
      <trkpt lat="43.33396" lon="-1.68653">
        <ele>83</ele>
        <time>2021-06-21T06:30:19.533Z</time>
      </trkpt>
      <trkpt lat="43.33395" lon="-1.68661">
        <ele>84</ele>
        <time>2021-06-21T06:30:20.540Z</time>
      </trkpt>
      <trkpt lat="43.33395" lon="-1.68661">
        <ele>84</ele>
        <time>2021-06-21T06:30:21.514Z</time>
      </trkpt>
      <trkpt lat="43.33395" lon="-1.68668">
        <ele>84</ele>
        <time>2021-06-21T06:30:22.532Z</time>
      </trkpt>
      <trkpt lat="43.33395" lon="-1.68668">
        <ele>84</ele>
        <time>2021-06-21T06:30:23.537Z</time>
      </trkpt>
      <trkpt lat="43.33395" lon="-1.68676">
        <ele>84</ele>
        <time>2021-06-21T06:30:24.546Z</time>
      </trkpt>
      <trkpt lat="43.33395" lon="-1.68676">
        <ele>84</ele>
        <time>2021-06-21T06:30:25.535Z</time>
      </trkpt>
      <trkpt lat="43.33394" lon="-1.68684">
        <ele>85</ele>
        <time>2021-06-21T06:30:26.544Z</time>
      </trkpt>
      <trkpt lat="43.33394" lon="-1.68688">
        <ele>86</ele>
        <time>2021-06-21T06:30:27.562Z</time>
      </trkpt>
      <trkpt lat="43.33394" lon="-1.68688">
        <ele>86</ele>
        <time>2021-06-21T06:30:28.520Z</time>
      </trkpt>
      <trkpt lat="43.33393" lon="-1.68696">
        <ele>87</ele>
        <time>2021-06-21T06:30:29.526Z</time>
      </trkpt>
      <trkpt lat="43.33392" lon="-1.687">
        <ele>87</ele>
        <time>2021-06-21T06:30:30.541Z</time>
      </trkpt>
      <trkpt lat="43.33392" lon="-1.687">
        <ele>87</ele>
        <time>2021-06-21T06:30:31.510Z</time>
      </trkpt>
      <trkpt lat="43.33392" lon="-1.68709">
        <ele>87</ele>
        <time>2021-06-21T06:30:32.517Z</time>
      </trkpt>
      <trkpt lat="43.33392" lon="-1.68709">
        <ele>87</ele>
        <time>2021-06-21T06:30:33.533Z</time>
      </trkpt>
      <trkpt lat="43.33392" lon="-1.68716">
        <ele>88</ele>
        <time>2021-06-21T06:30:34.540Z</time>
      </trkpt>
      <trkpt lat="43.33393" lon="-1.68719">
        <ele>88</ele>
        <time>2021-06-21T06:30:35.528Z</time>
      </trkpt>
      <trkpt lat="43.33393" lon="-1.68722">
        <ele>88</ele>
        <time>2021-06-21T06:30:36.543Z</time>
      </trkpt>
      <trkpt lat="43.33393" lon="-1.68722">
        <ele>88</ele>
        <time>2021-06-21T06:30:37.514Z</time>
      </trkpt>
      <trkpt lat="43.33393" lon="-1.68728">
        <ele>89</ele>
        <time>2021-06-21T06:30:38.522Z</time>
      </trkpt>
      <trkpt lat="43.33393" lon="-1.68728">
        <ele>89</ele>
        <time>2021-06-21T06:30:39.540Z</time>
      </trkpt>
      <trkpt lat="43.33394" lon="-1.68733">
        <ele>89</ele>
        <time>2021-06-21T06:30:40.513Z</time>
      </trkpt>
      <trkpt lat="43.33394" lon="-1.68733">
        <ele>89</ele>
        <time>2021-06-21T06:30:41.526Z</time>
      </trkpt>
      <trkpt lat="43.33395" lon="-1.68738">
        <ele>89</ele>
        <time>2021-06-21T06:30:42.543Z</time>
      </trkpt>
      <trkpt lat="43.33395" lon="-1.68738">
        <ele>89</ele>
        <time>2021-06-21T06:30:43.517Z</time>
      </trkpt>
      <trkpt lat="43.33393" lon="-1.68743">
        <ele>89</ele>
        <time>2021-06-21T06:30:44.525Z</time>
      </trkpt>
      <trkpt lat="43.33393" lon="-1.68743">
        <ele>89</ele>
        <time>2021-06-21T06:30:45.548Z</time>
      </trkpt>
      <trkpt lat="43.33387" lon="-1.68745">
        <ele>89</ele>
        <time>2021-06-21T06:30:46.516Z</time>
      </trkpt>
      <trkpt lat="43.33387" lon="-1.68745">
        <ele>89</ele>
        <time>2021-06-21T06:30:47.537Z</time>
      </trkpt>
      <trkpt lat="43.33382" lon="-1.68744">
        <ele>89</ele>
        <time>2021-06-21T06:30:48.546Z</time>
      </trkpt>
      <trkpt lat="43.33382" lon="-1.68744">
        <ele>89</ele>
        <time>2021-06-21T06:30:49.520Z</time>
      </trkpt>
      <trkpt lat="43.33377" lon="-1.68744">
        <ele>89</ele>
        <time>2021-06-21T06:30:50.528Z</time>
      </trkpt>
      <trkpt lat="43.33377" lon="-1.68744">
        <ele>89</ele>
        <time>2021-06-21T06:30:51.509Z</time>
      </trkpt>
      <trkpt lat="43.33372" lon="-1.68744">
        <ele>89</ele>
        <time>2021-06-21T06:30:52.516Z</time>
      </trkpt>
      <trkpt lat="43.33372" lon="-1.68744">
        <ele>89</ele>
        <time>2021-06-21T06:30:53.528Z</time>
      </trkpt>
      <trkpt lat="43.33369" lon="-1.68746">
        <ele>89</ele>
        <time>2021-06-21T06:30:54.534Z</time>
      </trkpt>
      <trkpt lat="43.33369" lon="-1.68746">
        <ele>89</ele>
        <time>2021-06-21T06:30:55.522Z</time>
      </trkpt>
      <trkpt lat="43.33367" lon="-1.68747">
        <ele>89</ele>
        <time>2021-06-21T06:30:56.531Z</time>
      </trkpt>
      <trkpt lat="43.33367" lon="-1.68747">
        <ele>89</ele>
        <time>2021-06-21T06:30:57.531Z</time>
      </trkpt>
      <trkpt lat="43.33366" lon="-1.68747">
        <ele>89</ele>
        <time>2021-06-21T06:30:58.547Z</time>
      </trkpt>
      <trkpt lat="43.33366" lon="-1.68747">
        <ele>89</ele>
        <time>2021-06-21T06:30:59.530Z</time>
      </trkpt>
      <trkpt lat="43.33365" lon="-1.68747">
        <ele>89</ele>
        <time>2021-06-21T06:31:00.541Z</time>
      </trkpt>
      <trkpt lat="43.33365" lon="-1.68747">
        <ele>89</ele>
        <time>2021-06-21T06:31:01.519Z</time>
      </trkpt>
      <trkpt lat="43.33366" lon="-1.68746">
        <ele>89</ele>
        <time>2021-06-21T06:31:02.524Z</time>
      </trkpt>
      <trkpt lat="43.33366" lon="-1.68746">
        <ele>89</ele>
        <time>2021-06-21T06:31:03.530Z</time>
      </trkpt>
      <trkpt lat="43.33366" lon="-1.68746">
        <ele>89</ele>
        <time>2021-06-21T06:31:04.536Z</time>
      </trkpt>
      <trkpt lat="43.33366" lon="-1.68746">
        <ele>89</ele>
        <time>2021-06-21T06:31:05.517Z</time>
      </trkpt>
      <trkpt lat="43.33366" lon="-1.68746">
        <ele>89</ele>
        <time>2021-06-21T06:31:06.533Z</time>
      </trkpt>
      <trkpt lat="43.33366" lon="-1.68746">
        <ele>89</ele>
        <time>2021-06-21T06:31:07.517Z</time>
      </trkpt>
      <trkpt lat="43.33366" lon="-1.68746">
        <ele>89</ele>
        <time>2021-06-21T06:31:08.521Z</time>
      </trkpt>
      <trkpt lat="43.33366" lon="-1.68746">
        <ele>89</ele>
        <time>2021-06-21T06:31:09.538Z</time>
      </trkpt>
      <trkpt lat="43.33366" lon="-1.68746">
        <ele>89</ele>
        <time>2021-06-21T06:31:10.529Z</time>
      </trkpt>
      <trkpt lat="43.33366" lon="-1.68746">
        <ele>89</ele>
        <time>2021-06-21T06:31:11.522Z</time>
      </trkpt>
      <trkpt lat="43.33366" lon="-1.68746">
        <ele>89</ele>
        <time>2021-06-21T06:31:12.537Z</time>
      </trkpt>
      <trkpt lat="43.33366" lon="-1.68746">
        <ele>89</ele>
        <time>2021-06-21T06:31:13.517Z</time>
      </trkpt>
      <trkpt lat="43.33366" lon="-1.68746">
        <ele>89</ele>
        <time>2021-06-21T06:31:14.533Z</time>
      </trkpt>
      <trkpt lat="43.33366" lon="-1.68746">
        <ele>89</ele>
        <time>2021-06-21T06:31:15.518Z</time>
      </trkpt>
      <trkpt lat="43.33366" lon="-1.68746">
        <ele>89</ele>
        <time>2021-06-21T06:31:16.535Z</time>
      </trkpt>
      <trkpt lat="43.33366" lon="-1.68746">
        <ele>89</ele>
        <time>2021-06-21T06:31:17.517Z</time>
      </trkpt>
      <trkpt lat="43.33366" lon="-1.68746">
        <ele>89</ele>
        <time>2021-06-21T06:31:18.524Z</time>
      </trkpt>
      <trkpt lat="43.33366" lon="-1.68746">
        <ele>89</ele>
        <time>2021-06-21T06:31:19.538Z</time>
      </trkpt>
      <trkpt lat="43.33366" lon="-1.68746">
        <ele>89</ele>
        <time>2021-06-21T06:31:20.523Z</time>
      </trkpt>
      <trkpt lat="43.33366" lon="-1.68746">
        <ele>89</ele>
        <time>2021-06-21T06:31:21.541Z</time>
      </trkpt>
      <trkpt lat="43.33366" lon="-1.68746">
        <ele>89</ele>
        <time>2021-06-21T06:31:22.533Z</time>
      </trkpt>
      <trkpt lat="43.33366" lon="-1.68746">
        <ele>89</ele>
        <time>2021-06-21T06:31:23.517Z</time>
      </trkpt>
      <trkpt lat="43.33366" lon="-1.68746">
        <ele>89</ele>
        <time>2021-06-21T06:31:24.534Z</time>
      </trkpt>
      <trkpt lat="43.33366" lon="-1.68746">
        <ele>89</ele>
        <time>2021-06-21T06:31:25.517Z</time>
      </trkpt>
      <trkpt lat="43.33366" lon="-1.68746">
        <ele>89</ele>
        <time>2021-06-21T06:31:26.535Z</time>
      </trkpt>
      <trkpt lat="43.33366" lon="-1.68746">
        <ele>89</ele>
        <time>2021-06-21T06:31:27.517Z</time>
      </trkpt>
      <trkpt lat="43.33366" lon="-1.68746">
        <ele>89</ele>
        <time>2021-06-21T06:31:28.541Z</time>
      </trkpt>
      <trkpt lat="43.33366" lon="-1.68746">
        <ele>89</ele>
        <time>2021-06-21T06:31:29.524Z</time>
      </trkpt>
      <trkpt lat="43.33366" lon="-1.68746">
        <ele>89</ele>
        <time>2021-06-21T06:31:30.538Z</time>
      </trkpt>
      <trkpt lat="43.33366" lon="-1.68746">
        <ele>89</ele>
        <time>2021-06-21T06:31:31.517Z</time>
      </trkpt>
      <trkpt lat="43.33366" lon="-1.68746">
        <ele>89</ele>
        <time>2021-06-21T06:31:32.534Z</time>
      </trkpt>
      <trkpt lat="43.33366" lon="-1.68746">
        <ele>89</ele>
        <time>2021-06-21T06:31:33.536Z</time>
      </trkpt>
      <trkpt lat="43.33366" lon="-1.68746">
        <ele>89</ele>
        <time>2021-06-21T06:31:34.518Z</time>
      </trkpt>
      <trkpt lat="43.33366" lon="-1.68746">
        <ele>89</ele>
        <time>2021-06-21T06:31:35.535Z</time>
      </trkpt>
      <trkpt lat="43.33366" lon="-1.68746">
        <ele>89</ele>
        <time>2021-06-21T06:31:36.525Z</time>
      </trkpt>
      <trkpt lat="43.33366" lon="-1.68746">
        <ele>89</ele>
        <time>2021-06-21T06:31:37.517Z</time>
      </trkpt>
      <trkpt lat="43.33366" lon="-1.68746">
        <ele>89</ele>
        <time>2021-06-21T06:31:38.539Z</time>
      </trkpt>
      <trkpt lat="43.33366" lon="-1.68746">
        <ele>89</ele>
        <time>2021-06-21T06:31:39.517Z</time>
      </trkpt>
      <trkpt lat="43.33366" lon="-1.68746">
        <ele>89</ele>
        <time>2021-06-21T06:31:40.535Z</time>
      </trkpt>
      <trkpt lat="43.33366" lon="-1.68746">
        <ele>89</ele>
        <time>2021-06-21T06:31:41.517Z</time>
      </trkpt>
      <trkpt lat="43.33366" lon="-1.68746">
        <ele>89</ele>
        <time>2021-06-21T06:31:42.534Z</time>
      </trkpt>
      <trkpt lat="43.33366" lon="-1.68746">
        <ele>89</ele>
        <time>2021-06-21T06:31:43.521Z</time>
      </trkpt>
      <trkpt lat="43.33366" lon="-1.68746">
        <ele>89</ele>
        <time>2021-06-21T06:31:44.524Z</time>
      </trkpt>
      <trkpt lat="43.33366" lon="-1.68746">
        <ele>89</ele>
        <time>2021-06-21T06:31:45.537Z</time>
      </trkpt>
      <trkpt lat="43.33366" lon="-1.68746">
        <ele>89</ele>
        <time>2021-06-21T06:31:46.522Z</time>
      </trkpt>
      <trkpt lat="43.33366" lon="-1.68746">
        <ele>89</ele>
        <time>2021-06-21T06:31:47.535Z</time>
      </trkpt>
      <trkpt lat="43.3337" lon="-1.68741">
        <ele>87</ele>
        <time>2021-06-21T06:31:48.522Z</time>
      </trkpt>
      <trkpt lat="43.3337" lon="-1.68741">
        <ele>87</ele>
        <time>2021-06-21T06:31:49.529Z</time>
      </trkpt>
      <trkpt lat="43.33366" lon="-1.68741">
        <ele>86</ele>
        <time>2021-06-21T06:31:50.522Z</time>
      </trkpt>
      <trkpt lat="43.33366" lon="-1.68741">
        <ele>86</ele>
        <time>2021-06-21T06:31:51.536Z</time>
      </trkpt>
      <trkpt lat="43.3336" lon="-1.68742">
        <ele>86</ele>
        <time>2021-06-21T06:31:52.522Z</time>
      </trkpt>
      <trkpt lat="43.3336" lon="-1.68742">
        <ele>86</ele>
        <time>2021-06-21T06:31:53.535Z</time>
      </trkpt>
      <trkpt lat="43.33355" lon="-1.68742">
        <ele>87</ele>
        <time>2021-06-21T06:31:54.556Z</time>
      </trkpt>
      <trkpt lat="43.33355" lon="-1.68742">
        <ele>87</ele>
        <time>2021-06-21T06:31:55.510Z</time>
      </trkpt>
      <trkpt lat="43.3335" lon="-1.68742">
        <ele>87</ele>
        <time>2021-06-21T06:31:56.518Z</time>
      </trkpt>
      <trkpt lat="43.3335" lon="-1.68742">
        <ele>87</ele>
        <time>2021-06-21T06:31:57.518Z</time>
      </trkpt>
      <trkpt lat="43.33345" lon="-1.68741">
        <ele>87</ele>
        <time>2021-06-21T06:31:58.530Z</time>
      </trkpt>
      <trkpt lat="43.33345" lon="-1.68741">
        <ele>87</ele>
        <time>2021-06-21T06:31:59.535Z</time>
      </trkpt>
      <trkpt lat="43.33342" lon="-1.68742">
        <ele>87</ele>
        <time>2021-06-21T06:32:00.526Z</time>
      </trkpt>
      <trkpt lat="43.33342" lon="-1.68742">
        <ele>87</ele>
        <time>2021-06-21T06:32:01.518Z</time>
      </trkpt>
      <trkpt lat="43.33339" lon="-1.68743">
        <ele>87</ele>
        <time>2021-06-21T06:32:02.527Z</time>
      </trkpt>
      <trkpt lat="43.33337" lon="-1.68743">
        <ele>87</ele>
        <time>2021-06-21T06:32:03.515Z</time>
      </trkpt>
      <trkpt lat="43.33337" lon="-1.68743">
        <ele>87</ele>
        <time>2021-06-21T06:32:04.534Z</time>
      </trkpt>
      <trkpt lat="43.33332" lon="-1.68742">
        <ele>87</ele>
        <time>2021-06-21T06:32:05.542Z</time>
      </trkpt>
      <trkpt lat="43.33329" lon="-1.68742">
        <ele>87</ele>
        <time>2021-06-21T06:32:06.519Z</time>
      </trkpt>
      <trkpt lat="43.33329" lon="-1.68742">
        <ele>87</ele>
        <time>2021-06-21T06:32:07.544Z</time>
      </trkpt>
      <trkpt lat="43.33324" lon="-1.68742">
        <ele>87</ele>
        <time>2021-06-21T06:32:08.510Z</time>
      </trkpt>
      <trkpt lat="43.33324" lon="-1.68742">
        <ele>87</ele>
        <time>2021-06-21T06:32:09.521Z</time>
      </trkpt>
      <trkpt lat="43.3332" lon="-1.68741">
        <ele>87</ele>
        <time>2021-06-21T06:32:10.527Z</time>
      </trkpt>
      <trkpt lat="43.3332" lon="-1.68741">
        <ele>87</ele>
        <time>2021-06-21T06:32:11.511Z</time>
      </trkpt>
      <trkpt lat="43.33316" lon="-1.68741">
        <ele>87</ele>
        <time>2021-06-21T06:32:12.523Z</time>
      </trkpt>
      <trkpt lat="43.33316" lon="-1.68741">
        <ele>87</ele>
        <time>2021-06-21T06:32:13.523Z</time>
      </trkpt>
      <trkpt lat="43.33311" lon="-1.6874">
        <ele>87</ele>
        <time>2021-06-21T06:32:14.540Z</time>
      </trkpt>
      <trkpt lat="43.33311" lon="-1.6874">
        <ele>87</ele>
        <time>2021-06-21T06:32:15.515Z</time>
      </trkpt>
      <trkpt lat="43.33306" lon="-1.68741">
        <ele>87</ele>
        <time>2021-06-21T06:32:16.531Z</time>
      </trkpt>
      <trkpt lat="43.33306" lon="-1.68741">
        <ele>87</ele>
        <time>2021-06-21T06:32:17.544Z</time>
      </trkpt>
      <trkpt lat="43.33301" lon="-1.6874">
        <ele>88</ele>
        <time>2021-06-21T06:32:18.509Z</time>
      </trkpt>
      <trkpt lat="43.33301" lon="-1.6874">
        <ele>88</ele>
        <time>2021-06-21T06:32:19.510Z</time>
      </trkpt>
      <trkpt lat="43.33297" lon="-1.68739">
        <ele>88</ele>
        <time>2021-06-21T06:32:20.516Z</time>
      </trkpt>
      <trkpt lat="43.33297" lon="-1.68739">
        <ele>88</ele>
        <time>2021-06-21T06:32:21.546Z</time>
      </trkpt>
      <trkpt lat="43.33292" lon="-1.6874">
        <ele>89</ele>
        <time>2021-06-21T06:32:22.526Z</time>
      </trkpt>
      <trkpt lat="43.33292" lon="-1.6874">
        <ele>89</ele>
        <time>2021-06-21T06:32:23.542Z</time>
      </trkpt>
      <trkpt lat="43.33286" lon="-1.68739">
        <ele>89</ele>
        <time>2021-06-21T06:32:24.523Z</time>
      </trkpt>
      <trkpt lat="43.33286" lon="-1.68739">
        <ele>89</ele>
        <time>2021-06-21T06:32:25.548Z</time>
      </trkpt>
      <trkpt lat="43.33281" lon="-1.68737">
        <ele>90</ele>
        <time>2021-06-21T06:32:26.517Z</time>
      </trkpt>
      <trkpt lat="43.33281" lon="-1.68737">
        <ele>90</ele>
        <time>2021-06-21T06:32:27.537Z</time>
      </trkpt>
      <trkpt lat="43.33276" lon="-1.68736">
        <ele>90</ele>
        <time>2021-06-21T06:32:28.529Z</time>
      </trkpt>
      <trkpt lat="43.33274" lon="-1.68735">
        <ele>90</ele>
        <time>2021-06-21T06:32:29.541Z</time>
      </trkpt>
      <trkpt lat="43.33274" lon="-1.68735">
        <ele>90</ele>
        <time>2021-06-21T06:32:30.528Z</time>
      </trkpt>
      <trkpt lat="43.3327" lon="-1.68735">
        <ele>90</ele>
        <time>2021-06-21T06:32:31.542Z</time>
      </trkpt>
      <trkpt lat="43.33269" lon="-1.68734">
        <ele>90</ele>
        <time>2021-06-21T06:32:32.540Z</time>
      </trkpt>
      <trkpt lat="43.33269" lon="-1.68734">
        <ele>90</ele>
        <time>2021-06-21T06:32:33.536Z</time>
      </trkpt>
      <trkpt lat="43.33264" lon="-1.68733">
        <ele>90</ele>
        <time>2021-06-21T06:32:34.517Z</time>
      </trkpt>
      <trkpt lat="43.33264" lon="-1.68733">
        <ele>90</ele>
        <time>2021-06-21T06:32:35.513Z</time>
      </trkpt>
      <trkpt lat="43.3326" lon="-1.68732">
        <ele>91</ele>
        <time>2021-06-21T06:32:36.529Z</time>
      </trkpt>
      <trkpt lat="43.3326" lon="-1.68732">
        <ele>91</ele>
        <time>2021-06-21T06:32:37.540Z</time>
      </trkpt>
      <trkpt lat="43.33256" lon="-1.68732">
        <ele>91</ele>
        <time>2021-06-21T06:32:38.518Z</time>
      </trkpt>
      <trkpt lat="43.33256" lon="-1.68732">
        <ele>91</ele>
        <time>2021-06-21T06:32:39.539Z</time>
      </trkpt>
      <trkpt lat="43.33252" lon="-1.68732">
        <ele>91</ele>
        <time>2021-06-21T06:32:40.519Z</time>
      </trkpt>
      <trkpt lat="43.33252" lon="-1.68732">
        <ele>91</ele>
        <time>2021-06-21T06:32:41.539Z</time>
      </trkpt>
      <trkpt lat="43.33248" lon="-1.68731">
        <ele>91</ele>
        <time>2021-06-21T06:32:42.547Z</time>
      </trkpt>
      <trkpt lat="43.33248" lon="-1.68731">
        <ele>91</ele>
        <time>2021-06-21T06:32:43.539Z</time>
      </trkpt>
      <trkpt lat="43.33243" lon="-1.68731">
        <ele>91</ele>
        <time>2021-06-21T06:32:44.518Z</time>
      </trkpt>
      <trkpt lat="43.33243" lon="-1.68731">
        <ele>91</ele>
        <time>2021-06-21T06:32:45.533Z</time>
      </trkpt>
      <trkpt lat="43.33239" lon="-1.68731">
        <ele>91</ele>
        <time>2021-06-21T06:32:46.558Z</time>
      </trkpt>
      <trkpt lat="43.33239" lon="-1.68731">
        <ele>91</ele>
        <time>2021-06-21T06:32:47.543Z</time>
      </trkpt>
      <trkpt lat="43.33234" lon="-1.6873">
        <ele>91</ele>
        <time>2021-06-21T06:32:48.517Z</time>
      </trkpt>
      <trkpt lat="43.33234" lon="-1.6873">
        <ele>91</ele>
        <time>2021-06-21T06:32:49.513Z</time>
      </trkpt>
      <trkpt lat="43.33229" lon="-1.6873">
        <ele>91</ele>
        <time>2021-06-21T06:32:50.520Z</time>
      </trkpt>
      <trkpt lat="43.33229" lon="-1.6873">
        <ele>91</ele>
        <time>2021-06-21T06:32:51.512Z</time>
      </trkpt>
      <trkpt lat="43.33224" lon="-1.6873">
        <ele>91</ele>
        <time>2021-06-21T06:32:52.516Z</time>
      </trkpt>
      <trkpt lat="43.33224" lon="-1.6873">
        <ele>91</ele>
        <time>2021-06-21T06:32:53.538Z</time>
      </trkpt>
      <trkpt lat="43.33221" lon="-1.68729">
        <ele>92</ele>
        <time>2021-06-21T06:32:54.548Z</time>
      </trkpt>
      <trkpt lat="43.33221" lon="-1.68729">
        <ele>92</ele>
        <time>2021-06-21T06:32:55.548Z</time>
      </trkpt>
      <trkpt lat="43.33216" lon="-1.68728">
        <ele>92</ele>
        <time>2021-06-21T06:32:56.518Z</time>
      </trkpt>
      <trkpt lat="43.33216" lon="-1.68728">
        <ele>92</ele>
        <time>2021-06-21T06:32:57.509Z</time>
      </trkpt>
      <trkpt lat="43.33212" lon="-1.68726">
        <ele>92</ele>
        <time>2021-06-21T06:32:58.538Z</time>
      </trkpt>
      <trkpt lat="43.33212" lon="-1.68726">
        <ele>92</ele>
        <time>2021-06-21T06:32:59.536Z</time>
      </trkpt>
      <trkpt lat="43.33209" lon="-1.68723">
        <ele>92</ele>
        <time>2021-06-21T06:33:00.544Z</time>
      </trkpt>
      <trkpt lat="43.33209" lon="-1.68723">
        <ele>92</ele>
        <time>2021-06-21T06:33:01.543Z</time>
      </trkpt>
      <trkpt lat="43.33206" lon="-1.68719">
        <ele>92</ele>
        <time>2021-06-21T06:33:02.515Z</time>
      </trkpt>
      <trkpt lat="43.33206" lon="-1.68719">
        <ele>92</ele>
        <time>2021-06-21T06:33:03.539Z</time>
      </trkpt>
      <trkpt lat="43.33204" lon="-1.68715">
        <ele>92</ele>
        <time>2021-06-21T06:33:04.514Z</time>
      </trkpt>
      <trkpt lat="43.33204" lon="-1.68715">
        <ele>92</ele>
        <time>2021-06-21T06:33:05.536Z</time>
      </trkpt>
      <trkpt lat="43.33201" lon="-1.6871">
        <ele>92</ele>
        <time>2021-06-21T06:33:06.543Z</time>
      </trkpt>
      <trkpt lat="43.33201" lon="-1.6871">
        <ele>92</ele>
        <time>2021-06-21T06:33:07.532Z</time>
      </trkpt>
      <trkpt lat="43.33199" lon="-1.68705">
        <ele>92</ele>
        <time>2021-06-21T06:33:08.512Z</time>
      </trkpt>
      <trkpt lat="43.33199" lon="-1.68705">
        <ele>92</ele>
        <time>2021-06-21T06:33:09.513Z</time>
      </trkpt>
      <trkpt lat="43.33197" lon="-1.68701">
        <ele>92</ele>
        <time>2021-06-21T06:33:10.522Z</time>
      </trkpt>
      <trkpt lat="43.33197" lon="-1.68701">
        <ele>92</ele>
        <time>2021-06-21T06:33:11.511Z</time>
      </trkpt>
      <trkpt lat="43.33195" lon="-1.68697">
        <ele>93</ele>
        <time>2021-06-21T06:33:12.521Z</time>
      </trkpt>
      <trkpt lat="43.33195" lon="-1.68697">
        <ele>93</ele>
        <time>2021-06-21T06:33:13.537Z</time>
      </trkpt>
      <trkpt lat="43.33193" lon="-1.68692">
        <ele>94</ele>
        <time>2021-06-21T06:33:14.545Z</time>
      </trkpt>
      <trkpt lat="43.33193" lon="-1.68692">
        <ele>94</ele>
        <time>2021-06-21T06:33:15.525Z</time>
      </trkpt>
      <trkpt lat="43.33191" lon="-1.68686">
        <ele>95</ele>
        <time>2021-06-21T06:33:16.542Z</time>
      </trkpt>
      <trkpt lat="43.33189" lon="-1.68684">
        <ele>95</ele>
        <time>2021-06-21T06:33:17.541Z</time>
      </trkpt>
      <trkpt lat="43.33188" lon="-1.68681">
        <ele>95</ele>
        <time>2021-06-21T06:33:18.549Z</time>
      </trkpt>
      <trkpt lat="43.33188" lon="-1.68681">
        <ele>95</ele>
        <time>2021-06-21T06:33:19.531Z</time>
      </trkpt>
      <trkpt lat="43.33185" lon="-1.68675">
        <ele>96</ele>
        <time>2021-06-21T06:33:20.540Z</time>
      </trkpt>
      <trkpt lat="43.33185" lon="-1.68675">
        <ele>96</ele>
        <time>2021-06-21T06:33:21.522Z</time>
      </trkpt>
      <trkpt lat="43.33182" lon="-1.6867">
        <ele>96</ele>
        <time>2021-06-21T06:33:22.518Z</time>
      </trkpt>
      <trkpt lat="43.33182" lon="-1.6867">
        <ele>96</ele>
        <time>2021-06-21T06:33:23.519Z</time>
      </trkpt>
      <trkpt lat="43.3318" lon="-1.68664">
        <ele>96</ele>
        <time>2021-06-21T06:33:24.527Z</time>
      </trkpt>
      <trkpt lat="43.3318" lon="-1.68664">
        <ele>96</ele>
        <time>2021-06-21T06:33:25.541Z</time>
      </trkpt>
      <trkpt lat="43.33179" lon="-1.68657">
        <ele>96</ele>
        <time>2021-06-21T06:33:26.548Z</time>
      </trkpt>
      <trkpt lat="43.33179" lon="-1.68657">
        <ele>96</ele>
        <time>2021-06-21T06:33:27.532Z</time>
      </trkpt>
      <trkpt lat="43.33178" lon="-1.68651">
        <ele>97</ele>
        <time>2021-06-21T06:33:28.551Z</time>
      </trkpt>
      <trkpt lat="43.33177" lon="-1.68648">
        <ele>97</ele>
        <time>2021-06-21T06:33:29.545Z</time>
      </trkpt>
      <trkpt lat="43.33177" lon="-1.68645">
        <ele>97</ele>
        <time>2021-06-21T06:33:30.534Z</time>
      </trkpt>
      <trkpt lat="43.33177" lon="-1.68645">
        <ele>97</ele>
        <time>2021-06-21T06:33:31.511Z</time>
      </trkpt>
      <trkpt lat="43.33176" lon="-1.68639">
        <ele>97</ele>
        <time>2021-06-21T06:33:32.520Z</time>
      </trkpt>
      <trkpt lat="43.33176" lon="-1.68639">
        <ele>97</ele>
        <time>2021-06-21T06:33:33.539Z</time>
      </trkpt>
      <trkpt lat="43.33176" lon="-1.68633">
        <ele>97</ele>
        <time>2021-06-21T06:33:34.511Z</time>
      </trkpt>
      <trkpt lat="43.33176" lon="-1.68633">
        <ele>97</ele>
        <time>2021-06-21T06:33:35.539Z</time>
      </trkpt>
      <trkpt lat="43.33176" lon="-1.68627">
        <ele>97</ele>
        <time>2021-06-21T06:33:36.514Z</time>
      </trkpt>
      <trkpt lat="43.33176" lon="-1.68627">
        <ele>97</ele>
        <time>2021-06-21T06:33:37.514Z</time>
      </trkpt>
      <trkpt lat="43.33176" lon="-1.68621">
        <ele>97</ele>
        <time>2021-06-21T06:33:38.529Z</time>
      </trkpt>
      <trkpt lat="43.33176" lon="-1.68618">
        <ele>97</ele>
        <time>2021-06-21T06:33:39.515Z</time>
      </trkpt>
      <trkpt lat="43.33176" lon="-1.68618">
        <ele>97</ele>
        <time>2021-06-21T06:33:40.527Z</time>
      </trkpt>
      <trkpt lat="43.33176" lon="-1.68612">
        <ele>97</ele>
        <time>2021-06-21T06:33:41.538Z</time>
      </trkpt>
      <trkpt lat="43.33176" lon="-1.68609">
        <ele>97</ele>
        <time>2021-06-21T06:33:42.524Z</time>
      </trkpt>
      <trkpt lat="43.33176" lon="-1.68609">
        <ele>97</ele>
        <time>2021-06-21T06:33:43.540Z</time>
      </trkpt>
      <trkpt lat="43.33175" lon="-1.68603">
        <ele>97</ele>
        <time>2021-06-21T06:33:44.510Z</time>
      </trkpt>
      <trkpt lat="43.33175" lon="-1.68603">
        <ele>97</ele>
        <time>2021-06-21T06:33:45.533Z</time>
      </trkpt>
      <trkpt lat="43.33173" lon="-1.68597">
        <ele>97</ele>
        <time>2021-06-21T06:33:46.541Z</time>
      </trkpt>
      <trkpt lat="43.33172" lon="-1.68596">
        <ele>98</ele>
        <time>2021-06-21T06:33:47.542Z</time>
      </trkpt>
      <trkpt lat="43.3317" lon="-1.68594">
        <ele>98</ele>
        <time>2021-06-21T06:33:48.533Z</time>
      </trkpt>
      <trkpt lat="43.3317" lon="-1.68594">
        <ele>98</ele>
        <time>2021-06-21T06:33:49.513Z</time>
      </trkpt>
      <trkpt lat="43.33167" lon="-1.68591">
        <ele>99</ele>
        <time>2021-06-21T06:33:50.537Z</time>
      </trkpt>
      <trkpt lat="43.33167" lon="-1.68591">
        <ele>99</ele>
        <time>2021-06-21T06:33:51.515Z</time>
      </trkpt>
      <trkpt lat="43.33162" lon="-1.68589">
        <ele>99</ele>
        <time>2021-06-21T06:33:52.523Z</time>
      </trkpt>
      <trkpt lat="43.33162" lon="-1.68589">
        <ele>99</ele>
        <time>2021-06-21T06:33:53.533Z</time>
      </trkpt>
      <trkpt lat="43.33158" lon="-1.68588">
        <ele>99</ele>
        <time>2021-06-21T06:33:54.539Z</time>
      </trkpt>
      <trkpt lat="43.33158" lon="-1.68588">
        <ele>99</ele>
        <time>2021-06-21T06:33:55.517Z</time>
      </trkpt>
      <trkpt lat="43.33154" lon="-1.68587">
        <ele>99</ele>
        <time>2021-06-21T06:33:56.525Z</time>
      </trkpt>
      <trkpt lat="43.33154" lon="-1.68587">
        <ele>99</ele>
        <time>2021-06-21T06:33:57.514Z</time>
      </trkpt>
      <trkpt lat="43.33148" lon="-1.68586">
        <ele>99</ele>
        <time>2021-06-21T06:33:58.526Z</time>
      </trkpt>
      <trkpt lat="43.33148" lon="-1.68586">
        <ele>99</ele>
        <time>2021-06-21T06:33:59.512Z</time>
      </trkpt>
      <trkpt lat="43.33143" lon="-1.68584">
        <ele>100</ele>
        <time>2021-06-21T06:34:00.520Z</time>
      </trkpt>
      <trkpt lat="43.33143" lon="-1.68584">
        <ele>100</ele>
        <time>2021-06-21T06:34:01.548Z</time>
      </trkpt>
      <trkpt lat="43.33138" lon="-1.68583">
        <ele>100</ele>
        <time>2021-06-21T06:34:02.522Z</time>
      </trkpt>
      <trkpt lat="43.33138" lon="-1.68583">
        <ele>100</ele>
        <time>2021-06-21T06:34:03.545Z</time>
      </trkpt>
      <trkpt lat="43.33134" lon="-1.68581">
        <ele>101</ele>
        <time>2021-06-21T06:34:04.513Z</time>
      </trkpt>
      <trkpt lat="43.33134" lon="-1.68581">
        <ele>101</ele>
        <time>2021-06-21T06:34:05.546Z</time>
      </trkpt>
      <trkpt lat="43.3313" lon="-1.68578">
        <ele>102</ele>
        <time>2021-06-21T06:34:06.512Z</time>
      </trkpt>
      <trkpt lat="43.3313" lon="-1.68578">
        <ele>102</ele>
        <time>2021-06-21T06:34:07.509Z</time>
      </trkpt>
      <trkpt lat="43.33126" lon="-1.68575">
        <ele>102</ele>
        <time>2021-06-21T06:34:08.539Z</time>
      </trkpt>
      <trkpt lat="43.33126" lon="-1.68575">
        <ele>102</ele>
        <time>2021-06-21T06:34:09.520Z</time>
      </trkpt>
      <trkpt lat="43.33123" lon="-1.68572">
        <ele>102</ele>
        <time>2021-06-21T06:34:10.536Z</time>
      </trkpt>
      <trkpt lat="43.33121" lon="-1.6857">
        <ele>102</ele>
        <time>2021-06-21T06:34:11.514Z</time>
      </trkpt>
      <trkpt lat="43.3312" lon="-1.68569">
        <ele>102</ele>
        <time>2021-06-21T06:34:12.535Z</time>
      </trkpt>
      <trkpt lat="43.3312" lon="-1.68569">
        <ele>102</ele>
        <time>2021-06-21T06:34:13.512Z</time>
      </trkpt>
      <trkpt lat="43.33117" lon="-1.68565">
        <ele>103</ele>
        <time>2021-06-21T06:34:14.526Z</time>
      </trkpt>
      <trkpt lat="43.33117" lon="-1.68565">
        <ele>103</ele>
        <time>2021-06-21T06:34:15.540Z</time>
      </trkpt>
      <trkpt lat="43.33114" lon="-1.68562">
        <ele>103</ele>
        <time>2021-06-21T06:34:16.517Z</time>
      </trkpt>
      <trkpt lat="43.33114" lon="-1.68562">
        <ele>103</ele>
        <time>2021-06-21T06:34:17.532Z</time>
      </trkpt>
      <trkpt lat="43.33111" lon="-1.68558">
        <ele>104</ele>
        <time>2021-06-21T06:34:18.555Z</time>
      </trkpt>
      <trkpt lat="43.33111" lon="-1.68558">
        <ele>104</ele>
        <time>2021-06-21T06:34:19.515Z</time>
      </trkpt>
      <trkpt lat="43.33108" lon="-1.68554">
        <ele>104</ele>
        <time>2021-06-21T06:34:20.522Z</time>
      </trkpt>
      <trkpt lat="43.33107" lon="-1.68552">
        <ele>105</ele>
        <time>2021-06-21T06:34:21.542Z</time>
      </trkpt>
      <trkpt lat="43.33107" lon="-1.68552">
        <ele>105</ele>
        <time>2021-06-21T06:34:22.529Z</time>
      </trkpt>
      <trkpt lat="43.33107" lon="-1.68552">
        <ele>105</ele>
        <time>2021-06-21T06:34:23.547Z</time>
      </trkpt>
      <trkpt lat="43.33104" lon="-1.68546">
        <ele>106</ele>
        <time>2021-06-21T06:34:24.531Z</time>
      </trkpt>
      <trkpt lat="43.33104" lon="-1.68546">
        <ele>106</ele>
        <time>2021-06-21T06:34:25.513Z</time>
      </trkpt>
      <trkpt lat="43.33101" lon="-1.68542">
        <ele>106</ele>
        <time>2021-06-21T06:34:26.525Z</time>
      </trkpt>
      <trkpt lat="43.33101" lon="-1.68542">
        <ele>106</ele>
        <time>2021-06-21T06:34:27.523Z</time>
      </trkpt>
      <trkpt lat="43.33099" lon="-1.68537">
        <ele>107</ele>
        <time>2021-06-21T06:34:28.541Z</time>
      </trkpt>
      <trkpt lat="43.33099" lon="-1.68537">
        <ele>107</ele>
        <time>2021-06-21T06:34:29.513Z</time>
      </trkpt>
      <trkpt lat="43.33097" lon="-1.68532">
        <ele>107</ele>
        <time>2021-06-21T06:34:30.520Z</time>
      </trkpt>
      <trkpt lat="43.33097" lon="-1.68532">
        <ele>107</ele>
        <time>2021-06-21T06:34:31.536Z</time>
      </trkpt>
      <trkpt lat="43.33095" lon="-1.68527">
        <ele>108</ele>
        <time>2021-06-21T06:34:32.548Z</time>
      </trkpt>
      <trkpt lat="43.33095" lon="-1.68527">
        <ele>108</ele>
        <time>2021-06-21T06:34:33.536Z</time>
      </trkpt>
      <trkpt lat="43.33094" lon="-1.68523">
        <ele>108</ele>
        <time>2021-06-21T06:34:34.515Z</time>
      </trkpt>
      <trkpt lat="43.33094" lon="-1.68523">
        <ele>108</ele>
        <time>2021-06-21T06:34:35.516Z</time>
      </trkpt>
      <trkpt lat="43.33092" lon="-1.68519">
        <ele>109</ele>
        <time>2021-06-21T06:34:36.524Z</time>
      </trkpt>
      <trkpt lat="43.33092" lon="-1.68519">
        <ele>109</ele>
        <time>2021-06-21T06:34:37.538Z</time>
      </trkpt>
      <trkpt lat="43.33089" lon="-1.68515">
        <ele>109</ele>
        <time>2021-06-21T06:34:38.520Z</time>
      </trkpt>
      <trkpt lat="43.33089" lon="-1.68515">
        <ele>109</ele>
        <time>2021-06-21T06:34:39.522Z</time>
      </trkpt>
      <trkpt lat="43.33087" lon="-1.68511">
        <ele>109</ele>
        <time>2021-06-21T06:34:40.529Z</time>
      </trkpt>
      <trkpt lat="43.33087" lon="-1.68511">
        <ele>109</ele>
        <time>2021-06-21T06:34:41.512Z</time>
      </trkpt>
      <trkpt lat="43.33085" lon="-1.68507">
        <ele>109</ele>
        <time>2021-06-21T06:34:42.533Z</time>
      </trkpt>
      <trkpt lat="43.33085" lon="-1.68507">
        <ele>109</ele>
        <time>2021-06-21T06:34:43.522Z</time>
      </trkpt>
      <trkpt lat="43.33083" lon="-1.68504">
        <ele>110</ele>
        <time>2021-06-21T06:34:44.537Z</time>
      </trkpt>
      <trkpt lat="43.33083" lon="-1.68504">
        <ele>110</ele>
        <time>2021-06-21T06:34:45.511Z</time>
      </trkpt>
      <trkpt lat="43.3308" lon="-1.685">
        <ele>110</ele>
        <time>2021-06-21T06:34:46.533Z</time>
      </trkpt>
      <trkpt lat="43.3308" lon="-1.685">
        <ele>110</ele>
        <time>2021-06-21T06:34:47.516Z</time>
      </trkpt>
      <trkpt lat="43.33077" lon="-1.68496">
        <ele>110</ele>
        <time>2021-06-21T06:34:48.540Z</time>
      </trkpt>
      <trkpt lat="43.33077" lon="-1.68496">
        <ele>110</ele>
        <time>2021-06-21T06:34:49.515Z</time>
      </trkpt>
      <trkpt lat="43.33074" lon="-1.68491">
        <ele>110</ele>
        <time>2021-06-21T06:34:50.522Z</time>
      </trkpt>
      <trkpt lat="43.33074" lon="-1.68491">
        <ele>110</ele>
        <time>2021-06-21T06:34:51.513Z</time>
      </trkpt>
      <trkpt lat="43.33071" lon="-1.68485">
        <ele>110</ele>
        <time>2021-06-21T06:34:52.523Z</time>
      </trkpt>
      <trkpt lat="43.33071" lon="-1.68485">
        <ele>110</ele>
        <time>2021-06-21T06:34:53.533Z</time>
      </trkpt>
      <trkpt lat="43.33069" lon="-1.6848">
        <ele>111</ele>
        <time>2021-06-21T06:34:54.544Z</time>
      </trkpt>
      <trkpt lat="43.33069" lon="-1.6848">
        <ele>111</ele>
        <time>2021-06-21T06:34:55.519Z</time>
      </trkpt>
      <trkpt lat="43.33066" lon="-1.68475">
        <ele>111</ele>
        <time>2021-06-21T06:34:56.528Z</time>
      </trkpt>
      <trkpt lat="43.33066" lon="-1.68475">
        <ele>111</ele>
        <time>2021-06-21T06:34:57.540Z</time>
      </trkpt>
      <trkpt lat="43.33063" lon="-1.68469">
        <ele>111</ele>
        <time>2021-06-21T06:34:58.550Z</time>
      </trkpt>
      <trkpt lat="43.33063" lon="-1.68469">
        <ele>111</ele>
        <time>2021-06-21T06:34:59.523Z</time>
      </trkpt>
      <trkpt lat="43.33061" lon="-1.68464">
        <ele>112</ele>
        <time>2021-06-21T06:35:00.532Z</time>
      </trkpt>
      <trkpt lat="43.33061" lon="-1.68464">
        <ele>112</ele>
        <time>2021-06-21T06:35:01.513Z</time>
      </trkpt>
      <trkpt lat="43.33058" lon="-1.6846">
        <ele>112</ele>
        <time>2021-06-21T06:35:02.521Z</time>
      </trkpt>
      <trkpt lat="43.33058" lon="-1.6846">
        <ele>112</ele>
        <time>2021-06-21T06:35:03.534Z</time>
      </trkpt>
      <trkpt lat="43.33055" lon="-1.68455">
        <ele>112</ele>
        <time>2021-06-21T06:35:04.546Z</time>
      </trkpt>
      <trkpt lat="43.33055" lon="-1.68455">
        <ele>112</ele>
        <time>2021-06-21T06:35:05.538Z</time>
      </trkpt>
      <trkpt lat="43.33052" lon="-1.68451">
        <ele>112</ele>
        <time>2021-06-21T06:35:06.545Z</time>
      </trkpt>
      <trkpt lat="43.33052" lon="-1.68451">
        <ele>112</ele>
        <time>2021-06-21T06:35:07.533Z</time>
      </trkpt>
      <trkpt lat="43.33049" lon="-1.68447">
        <ele>112</ele>
        <time>2021-06-21T06:35:08.541Z</time>
      </trkpt>
      <trkpt lat="43.33049" lon="-1.68447">
        <ele>112</ele>
        <time>2021-06-21T06:35:09.527Z</time>
      </trkpt>
      <trkpt lat="43.33046" lon="-1.68443">
        <ele>112</ele>
        <time>2021-06-21T06:35:10.535Z</time>
      </trkpt>
      <trkpt lat="43.33044" lon="-1.68441">
        <ele>113</ele>
        <time>2021-06-21T06:35:11.519Z</time>
      </trkpt>
      <trkpt lat="43.33043" lon="-1.6844">
        <ele>113</ele>
        <time>2021-06-21T06:35:12.515Z</time>
      </trkpt>
      <trkpt lat="43.33043" lon="-1.6844">
        <ele>113</ele>
        <time>2021-06-21T06:35:13.530Z</time>
      </trkpt>
      <trkpt lat="43.3304" lon="-1.68436">
        <ele>113</ele>
        <time>2021-06-21T06:35:14.540Z</time>
      </trkpt>
      <trkpt lat="43.3304" lon="-1.68436">
        <ele>113</ele>
        <time>2021-06-21T06:35:15.519Z</time>
      </trkpt>
      <trkpt lat="43.33037" lon="-1.68433">
        <ele>113</ele>
        <time>2021-06-21T06:35:16.547Z</time>
      </trkpt>
      <trkpt lat="43.33037" lon="-1.68433">
        <ele>113</ele>
        <time>2021-06-21T06:35:17.518Z</time>
      </trkpt>
      <trkpt lat="43.33034" lon="-1.68429">
        <ele>113</ele>
        <time>2021-06-21T06:35:18.537Z</time>
      </trkpt>
      <trkpt lat="43.33034" lon="-1.68429">
        <ele>113</ele>
        <time>2021-06-21T06:35:19.515Z</time>
      </trkpt>
      <trkpt lat="43.3303" lon="-1.68426">
        <ele>113</ele>
        <time>2021-06-21T06:35:20.530Z</time>
      </trkpt>
      <trkpt lat="43.33029" lon="-1.68424">
        <ele>113</ele>
        <time>2021-06-21T06:35:21.529Z</time>
      </trkpt>
      <trkpt lat="43.33029" lon="-1.68424">
        <ele>113</ele>
        <time>2021-06-21T06:35:22.523Z</time>
      </trkpt>
      <trkpt lat="43.33025" lon="-1.68422">
        <ele>114</ele>
        <time>2021-06-21T06:35:23.510Z</time>
      </trkpt>
      <trkpt lat="43.33023" lon="-1.68421">
        <ele>115</ele>
        <time>2021-06-21T06:35:24.538Z</time>
      </trkpt>
      <trkpt lat="43.33023" lon="-1.68421">
        <ele>115</ele>
        <time>2021-06-21T06:35:25.516Z</time>
      </trkpt>
      <trkpt lat="43.33019" lon="-1.68419">
        <ele>115</ele>
        <time>2021-06-21T06:35:26.524Z</time>
      </trkpt>
      <trkpt lat="43.33019" lon="-1.68419">
        <ele>115</ele>
        <time>2021-06-21T06:35:27.540Z</time>
      </trkpt>
      <trkpt lat="43.33015" lon="-1.68419">
        <ele>115</ele>
        <time>2021-06-21T06:35:28.536Z</time>
      </trkpt>
      <trkpt lat="43.33015" lon="-1.68419">
        <ele>115</ele>
        <time>2021-06-21T06:35:29.535Z</time>
      </trkpt>
      <trkpt lat="43.3301" lon="-1.68419">
        <ele>115</ele>
        <time>2021-06-21T06:35:30.545Z</time>
      </trkpt>
      <trkpt lat="43.3301" lon="-1.68419">
        <ele>115</ele>
        <time>2021-06-21T06:35:31.518Z</time>
      </trkpt>
      <trkpt lat="43.33005" lon="-1.68419">
        <ele>116</ele>
        <time>2021-06-21T06:35:32.531Z</time>
      </trkpt>
      <trkpt lat="43.33005" lon="-1.68419">
        <ele>116</ele>
        <time>2021-06-21T06:35:33.518Z</time>
      </trkpt>
      <trkpt lat="43.33002" lon="-1.6842">
        <ele>116</ele>
        <time>2021-06-21T06:35:34.550Z</time>
      </trkpt>
      <trkpt lat="43.33002" lon="-1.6842">
        <ele>116</ele>
        <time>2021-06-21T06:35:35.544Z</time>
      </trkpt>
      <trkpt lat="43.32998" lon="-1.68422">
        <ele>117</ele>
        <time>2021-06-21T06:35:36.521Z</time>
      </trkpt>
      <trkpt lat="43.32998" lon="-1.68422">
        <ele>117</ele>
        <time>2021-06-21T06:35:37.541Z</time>
      </trkpt>
      <trkpt lat="43.32994" lon="-1.68423">
        <ele>118</ele>
        <time>2021-06-21T06:35:38.556Z</time>
      </trkpt>
      <trkpt lat="43.32994" lon="-1.68423">
        <ele>118</ele>
        <time>2021-06-21T06:35:39.545Z</time>
      </trkpt>
      <trkpt lat="43.3299" lon="-1.68425">
        <ele>118</ele>
        <time>2021-06-21T06:35:40.521Z</time>
      </trkpt>
      <trkpt lat="43.3299" lon="-1.68425">
        <ele>118</ele>
        <time>2021-06-21T06:35:41.521Z</time>
      </trkpt>
      <trkpt lat="43.32987" lon="-1.68425">
        <ele>119</ele>
        <time>2021-06-21T06:35:42.532Z</time>
      </trkpt>
      <trkpt lat="43.32987" lon="-1.68425">
        <ele>119</ele>
        <time>2021-06-21T06:35:43.516Z</time>
      </trkpt>
      <trkpt lat="43.32982" lon="-1.68425">
        <ele>119</ele>
        <time>2021-06-21T06:35:44.529Z</time>
      </trkpt>
      <trkpt lat="43.32982" lon="-1.68425">
        <ele>119</ele>
        <time>2021-06-21T06:35:45.517Z</time>
      </trkpt>
      <trkpt lat="43.32978" lon="-1.68423">
        <ele>120</ele>
        <time>2021-06-21T06:35:46.527Z</time>
      </trkpt>
      <trkpt lat="43.32978" lon="-1.68423">
        <ele>120</ele>
        <time>2021-06-21T06:35:47.510Z</time>
      </trkpt>
      <trkpt lat="43.32975" lon="-1.6842">
        <ele>121</ele>
        <time>2021-06-21T06:35:48.520Z</time>
      </trkpt>
      <trkpt lat="43.32975" lon="-1.6842">
        <ele>121</ele>
        <time>2021-06-21T06:35:49.536Z</time>
      </trkpt>
      <trkpt lat="43.32972" lon="-1.68417">
        <ele>121</ele>
        <time>2021-06-21T06:35:50.577Z</time>
      </trkpt>
      <trkpt lat="43.32972" lon="-1.68417">
        <ele>121</ele>
        <time>2021-06-21T06:35:51.522Z</time>
      </trkpt>
      <trkpt lat="43.3297" lon="-1.68412">
        <ele>121</ele>
        <time>2021-06-21T06:35:52.532Z</time>
      </trkpt>
      <trkpt lat="43.3297" lon="-1.68412">
        <ele>121</ele>
        <time>2021-06-21T06:35:53.545Z</time>
      </trkpt>
      <trkpt lat="43.32969" lon="-1.68406">
        <ele>122</ele>
        <time>2021-06-21T06:35:54.513Z</time>
      </trkpt>
      <trkpt lat="43.32969" lon="-1.68406">
        <ele>122</ele>
        <time>2021-06-21T06:35:55.527Z</time>
      </trkpt>
      <trkpt lat="43.3297" lon="-1.684">
        <ele>123</ele>
        <time>2021-06-21T06:35:56.539Z</time>
      </trkpt>
      <trkpt lat="43.3297" lon="-1.684">
        <ele>123</ele>
        <time>2021-06-21T06:35:57.523Z</time>
      </trkpt>
      <trkpt lat="43.32972" lon="-1.68394">
        <ele>124</ele>
        <time>2021-06-21T06:35:58.535Z</time>
      </trkpt>
      <trkpt lat="43.32972" lon="-1.68394">
        <ele>124</ele>
        <time>2021-06-21T06:35:59.519Z</time>
      </trkpt>
      <trkpt lat="43.32972" lon="-1.68388">
        <ele>125</ele>
        <time>2021-06-21T06:36:00.528Z</time>
      </trkpt>
      <trkpt lat="43.32972" lon="-1.68388">
        <ele>125</ele>
        <time>2021-06-21T06:36:01.543Z</time>
      </trkpt>
      <trkpt lat="43.32974" lon="-1.68383">
        <ele>126</ele>
        <time>2021-06-21T06:36:02.520Z</time>
      </trkpt>
      <trkpt lat="43.32974" lon="-1.68383">
        <ele>126</ele>
        <time>2021-06-21T06:36:03.540Z</time>
      </trkpt>
      <trkpt lat="43.32976" lon="-1.68379">
        <ele>126</ele>
        <time>2021-06-21T06:36:04.549Z</time>
      </trkpt>
      <trkpt lat="43.32976" lon="-1.68379">
        <ele>126</ele>
        <time>2021-06-21T06:36:05.530Z</time>
      </trkpt>
      <trkpt lat="43.32979" lon="-1.68375">
        <ele>127</ele>
        <time>2021-06-21T06:36:06.545Z</time>
      </trkpt>
      <trkpt lat="43.32979" lon="-1.68375">
        <ele>127</ele>
        <time>2021-06-21T06:36:07.514Z</time>
      </trkpt>
      <trkpt lat="43.32982" lon="-1.6837">
        <ele>128</ele>
        <time>2021-06-21T06:36:08.529Z</time>
      </trkpt>
      <trkpt lat="43.32982" lon="-1.6837">
        <ele>128</ele>
        <time>2021-06-21T06:36:09.521Z</time>
      </trkpt>
      <trkpt lat="43.32982" lon="-1.68365">
        <ele>128</ele>
        <time>2021-06-21T06:36:10.530Z</time>
      </trkpt>
      <trkpt lat="43.32982" lon="-1.68365">
        <ele>128</ele>
        <time>2021-06-21T06:36:11.544Z</time>
      </trkpt>
      <trkpt lat="43.32982" lon="-1.68358">
        <ele>128</ele>
        <time>2021-06-21T06:36:12.510Z</time>
      </trkpt>
      <trkpt lat="43.32982" lon="-1.68358">
        <ele>128</ele>
        <time>2021-06-21T06:36:13.524Z</time>
      </trkpt>
      <trkpt lat="43.32981" lon="-1.68353">
        <ele>128</ele>
        <time>2021-06-21T06:36:14.531Z</time>
      </trkpt>
      <trkpt lat="43.32981" lon="-1.68353">
        <ele>128</ele>
        <time>2021-06-21T06:36:15.531Z</time>
      </trkpt>
      <trkpt lat="43.32979" lon="-1.68347">
        <ele>128</ele>
        <time>2021-06-21T06:36:16.539Z</time>
      </trkpt>
      <trkpt lat="43.32979" lon="-1.68347">
        <ele>128</ele>
        <time>2021-06-21T06:36:17.513Z</time>
      </trkpt>
      <trkpt lat="43.32978" lon="-1.68342">
        <ele>128</ele>
        <time>2021-06-21T06:36:18.523Z</time>
      </trkpt>
      <trkpt lat="43.32978" lon="-1.68342">
        <ele>128</ele>
        <time>2021-06-21T06:36:19.546Z</time>
      </trkpt>
      <trkpt lat="43.32976" lon="-1.68337">
        <ele>129</ele>
        <time>2021-06-21T06:36:20.513Z</time>
      </trkpt>
      <trkpt lat="43.32976" lon="-1.68337">
        <ele>129</ele>
        <time>2021-06-21T06:36:21.533Z</time>
      </trkpt>
      <trkpt lat="43.32974" lon="-1.68333">
        <ele>129</ele>
        <time>2021-06-21T06:36:22.519Z</time>
      </trkpt>
      <trkpt lat="43.32974" lon="-1.68333">
        <ele>129</ele>
        <time>2021-06-21T06:36:23.531Z</time>
      </trkpt>
      <trkpt lat="43.32971" lon="-1.68329">
        <ele>129</ele>
        <time>2021-06-21T06:36:24.542Z</time>
      </trkpt>
      <trkpt lat="43.32971" lon="-1.68329">
        <ele>129</ele>
        <time>2021-06-21T06:36:25.512Z</time>
      </trkpt>
      <trkpt lat="43.32969" lon="-1.68324">
        <ele>130</ele>
        <time>2021-06-21T06:36:26.539Z</time>
      </trkpt>
      <trkpt lat="43.32969" lon="-1.68324">
        <ele>130</ele>
        <time>2021-06-21T06:36:27.519Z</time>
      </trkpt>
      <trkpt lat="43.32967" lon="-1.6832">
        <ele>130</ele>
        <time>2021-06-21T06:36:28.529Z</time>
      </trkpt>
      <trkpt lat="43.32967" lon="-1.6832">
        <ele>130</ele>
        <time>2021-06-21T06:36:29.540Z</time>
      </trkpt>
      <trkpt lat="43.32964" lon="-1.68316">
        <ele>130</ele>
        <time>2021-06-21T06:36:30.511Z</time>
      </trkpt>
      <trkpt lat="43.32964" lon="-1.68316">
        <ele>130</ele>
        <time>2021-06-21T06:36:31.540Z</time>
      </trkpt>
      <trkpt lat="43.3296" lon="-1.68313">
        <ele>130</ele>
        <time>2021-06-21T06:36:32.546Z</time>
      </trkpt>
      <trkpt lat="43.3296" lon="-1.68313">
        <ele>130</ele>
        <time>2021-06-21T06:36:33.531Z</time>
      </trkpt>
      <trkpt lat="43.32957" lon="-1.6831">
        <ele>130</ele>
        <time>2021-06-21T06:36:34.539Z</time>
      </trkpt>
      <trkpt lat="43.32957" lon="-1.6831">
        <ele>130</ele>
        <time>2021-06-21T06:36:35.514Z</time>
      </trkpt>
      <trkpt lat="43.32953" lon="-1.68309">
        <ele>130</ele>
        <time>2021-06-21T06:36:36.524Z</time>
      </trkpt>
      <trkpt lat="43.32953" lon="-1.68309">
        <ele>130</ele>
        <time>2021-06-21T06:36:37.536Z</time>
      </trkpt>
      <trkpt lat="43.32949" lon="-1.68308">
        <ele>131</ele>
        <time>2021-06-21T06:36:38.545Z</time>
      </trkpt>
      <trkpt lat="43.32949" lon="-1.68308">
        <ele>131</ele>
        <time>2021-06-21T06:36:39.515Z</time>
      </trkpt>
      <trkpt lat="43.32945" lon="-1.68308">
        <ele>131</ele>
        <time>2021-06-21T06:36:40.521Z</time>
      </trkpt>
      <trkpt lat="43.32945" lon="-1.68308">
        <ele>131</ele>
        <time>2021-06-21T06:36:41.521Z</time>
      </trkpt>
      <trkpt lat="43.32941" lon="-1.68309">
        <ele>131</ele>
        <time>2021-06-21T06:36:42.529Z</time>
      </trkpt>
      <trkpt lat="43.32941" lon="-1.68309">
        <ele>131</ele>
        <time>2021-06-21T06:36:43.540Z</time>
      </trkpt>
      <trkpt lat="43.32936" lon="-1.68309">
        <ele>131</ele>
        <time>2021-06-21T06:36:44.546Z</time>
      </trkpt>
      <trkpt lat="43.32936" lon="-1.68309">
        <ele>131</ele>
        <time>2021-06-21T06:36:45.519Z</time>
      </trkpt>
      <trkpt lat="43.32933" lon="-1.68309">
        <ele>131</ele>
        <time>2021-06-21T06:36:46.529Z</time>
      </trkpt>
      <trkpt lat="43.32933" lon="-1.68309">
        <ele>131</ele>
        <time>2021-06-21T06:36:47.547Z</time>
      </trkpt>
      <trkpt lat="43.32929" lon="-1.68309">
        <ele>132</ele>
        <time>2021-06-21T06:36:48.514Z</time>
      </trkpt>
      <trkpt lat="43.32929" lon="-1.68309">
        <ele>132</ele>
        <time>2021-06-21T06:36:49.538Z</time>
      </trkpt>
      <trkpt lat="43.32927" lon="-1.68307">
        <ele>132</ele>
        <time>2021-06-21T06:36:50.547Z</time>
      </trkpt>
      <trkpt lat="43.32927" lon="-1.68307">
        <ele>132</ele>
        <time>2021-06-21T06:36:51.523Z</time>
      </trkpt>
      <trkpt lat="43.32925" lon="-1.68305">
        <ele>132</ele>
        <time>2021-06-21T06:36:52.529Z</time>
      </trkpt>
      <trkpt lat="43.32925" lon="-1.68305">
        <ele>132</ele>
        <time>2021-06-21T06:36:53.545Z</time>
      </trkpt>
      <trkpt lat="43.32924" lon="-1.68302">
        <ele>132</ele>
        <time>2021-06-21T06:36:54.511Z</time>
      </trkpt>
      <trkpt lat="43.32924" lon="-1.68302">
        <ele>132</ele>
        <time>2021-06-21T06:36:55.530Z</time>
      </trkpt>
      <trkpt lat="43.32922" lon="-1.68298">
        <ele>132</ele>
        <time>2021-06-21T06:36:56.545Z</time>
      </trkpt>
      <trkpt lat="43.32922" lon="-1.68298">
        <ele>132</ele>
        <time>2021-06-21T06:36:57.545Z</time>
      </trkpt>
      <trkpt lat="43.32922" lon="-1.68293">
        <ele>133</ele>
        <time>2021-06-21T06:36:58.522Z</time>
      </trkpt>
      <trkpt lat="43.32922" lon="-1.68293">
        <ele>133</ele>
        <time>2021-06-21T06:36:59.539Z</time>
      </trkpt>
      <trkpt lat="43.32922" lon="-1.68289">
        <ele>133</ele>
        <time>2021-06-21T06:37:00.547Z</time>
      </trkpt>
      <trkpt lat="43.32922" lon="-1.68289">
        <ele>133</ele>
        <time>2021-06-21T06:37:01.532Z</time>
      </trkpt>
      <trkpt lat="43.32919" lon="-1.68284">
        <ele>134</ele>
        <time>2021-06-21T06:37:02.542Z</time>
      </trkpt>
      <trkpt lat="43.32919" lon="-1.68284">
        <ele>134</ele>
        <time>2021-06-21T06:37:03.519Z</time>
      </trkpt>
      <trkpt lat="43.32919" lon="-1.68279">
        <ele>134</ele>
        <time>2021-06-21T06:37:04.527Z</time>
      </trkpt>
      <trkpt lat="43.32919" lon="-1.68279">
        <ele>134</ele>
        <time>2021-06-21T06:37:05.544Z</time>
      </trkpt>
      <trkpt lat="43.32918" lon="-1.68274">
        <ele>135</ele>
        <time>2021-06-21T06:37:06.514Z</time>
      </trkpt>
      <trkpt lat="43.32918" lon="-1.68274">
        <ele>135</ele>
        <time>2021-06-21T06:37:07.536Z</time>
      </trkpt>
      <trkpt lat="43.32917" lon="-1.68269">
        <ele>135</ele>
        <time>2021-06-21T06:37:08.544Z</time>
      </trkpt>
      <trkpt lat="43.32917" lon="-1.68269">
        <ele>135</ele>
        <time>2021-06-21T06:37:09.525Z</time>
      </trkpt>
      <trkpt lat="43.32917" lon="-1.68264">
        <ele>136</ele>
        <time>2021-06-21T06:37:10.533Z</time>
      </trkpt>
      <trkpt lat="43.32917" lon="-1.68264">
        <ele>136</ele>
        <time>2021-06-21T06:37:11.522Z</time>
      </trkpt>
      <trkpt lat="43.32917" lon="-1.68259">
        <ele>137</ele>
        <time>2021-06-21T06:37:12.535Z</time>
      </trkpt>
      <trkpt lat="43.32917" lon="-1.68259">
        <ele>137</ele>
        <time>2021-06-21T06:37:13.511Z</time>
      </trkpt>
      <trkpt lat="43.32917" lon="-1.68253">
        <ele>137</ele>
        <time>2021-06-21T06:37:14.518Z</time>
      </trkpt>
      <trkpt lat="43.32917" lon="-1.68253">
        <ele>137</ele>
        <time>2021-06-21T06:37:15.516Z</time>
      </trkpt>
      <trkpt lat="43.32917" lon="-1.68247">
        <ele>138</ele>
        <time>2021-06-21T06:37:16.529Z</time>
      </trkpt>
      <trkpt lat="43.32917" lon="-1.68247">
        <ele>138</ele>
        <time>2021-06-21T06:37:17.545Z</time>
      </trkpt>
      <trkpt lat="43.32917" lon="-1.68241">
        <ele>138</ele>
        <time>2021-06-21T06:37:18.521Z</time>
      </trkpt>
      <trkpt lat="43.32917" lon="-1.68241">
        <ele>138</ele>
        <time>2021-06-21T06:37:19.515Z</time>
      </trkpt>
      <trkpt lat="43.32916" lon="-1.68235">
        <ele>139</ele>
        <time>2021-06-21T06:37:20.524Z</time>
      </trkpt>
      <trkpt lat="43.32916" lon="-1.68235">
        <ele>139</ele>
        <time>2021-06-21T06:37:21.535Z</time>
      </trkpt>
      <trkpt lat="43.32916" lon="-1.6823">
        <ele>139</ele>
        <time>2021-06-21T06:37:22.517Z</time>
      </trkpt>
      <trkpt lat="43.32916" lon="-1.6823">
        <ele>139</ele>
        <time>2021-06-21T06:37:23.519Z</time>
      </trkpt>
      <trkpt lat="43.32915" lon="-1.68225">
        <ele>139</ele>
        <time>2021-06-21T06:37:24.525Z</time>
      </trkpt>
      <trkpt lat="43.32915" lon="-1.68225">
        <ele>139</ele>
        <time>2021-06-21T06:37:25.538Z</time>
      </trkpt>
      <trkpt lat="43.32914" lon="-1.68221">
        <ele>139</ele>
        <time>2021-06-21T06:37:26.518Z</time>
      </trkpt>
      <trkpt lat="43.32914" lon="-1.68221">
        <ele>139</ele>
        <time>2021-06-21T06:37:27.534Z</time>
      </trkpt>
      <trkpt lat="43.32913" lon="-1.68217">
        <ele>139</ele>
        <time>2021-06-21T06:37:28.539Z</time>
      </trkpt>
      <trkpt lat="43.32913" lon="-1.68217">
        <ele>139</ele>
        <time>2021-06-21T06:37:29.512Z</time>
      </trkpt>
      <trkpt lat="43.32912" lon="-1.68213">
        <ele>139</ele>
        <time>2021-06-21T06:37:30.523Z</time>
      </trkpt>
      <trkpt lat="43.32912" lon="-1.68213">
        <ele>139</ele>
        <time>2021-06-21T06:37:31.512Z</time>
      </trkpt>
      <trkpt lat="43.32911" lon="-1.6821">
        <ele>140</ele>
        <time>2021-06-21T06:37:32.521Z</time>
      </trkpt>
      <trkpt lat="43.32911" lon="-1.6821">
        <ele>140</ele>
        <time>2021-06-21T06:37:33.548Z</time>
      </trkpt>
      <trkpt lat="43.3291" lon="-1.68204">
        <ele>141</ele>
        <time>2021-06-21T06:37:34.517Z</time>
      </trkpt>
      <trkpt lat="43.3291" lon="-1.68204">
        <ele>141</ele>
        <time>2021-06-21T06:37:35.528Z</time>
      </trkpt>
      <trkpt lat="43.32908" lon="-1.682">
        <ele>141</ele>
        <time>2021-06-21T06:37:36.535Z</time>
      </trkpt>
      <trkpt lat="43.32908" lon="-1.682">
        <ele>141</ele>
        <time>2021-06-21T06:37:37.540Z</time>
      </trkpt>
      <trkpt lat="43.32905" lon="-1.68195">
        <ele>141</ele>
        <time>2021-06-21T06:37:38.548Z</time>
      </trkpt>
      <trkpt lat="43.32905" lon="-1.68195">
        <ele>141</ele>
        <time>2021-06-21T06:37:39.521Z</time>
      </trkpt>
      <trkpt lat="43.32902" lon="-1.68191">
        <ele>141</ele>
        <time>2021-06-21T06:37:40.532Z</time>
      </trkpt>
      <trkpt lat="43.32901" lon="-1.6819">
        <ele>141</ele>
        <time>2021-06-21T06:37:41.518Z</time>
      </trkpt>
      <trkpt lat="43.32901" lon="-1.6819">
        <ele>141</ele>
        <time>2021-06-21T06:37:42.533Z</time>
      </trkpt>
      <trkpt lat="43.32898" lon="-1.68187">
        <ele>141</ele>
        <time>2021-06-21T06:37:43.546Z</time>
      </trkpt>
      <trkpt lat="43.32896" lon="-1.68185">
        <ele>141</ele>
        <time>2021-06-21T06:37:44.545Z</time>
      </trkpt>
      <trkpt lat="43.32896" lon="-1.68185">
        <ele>141</ele>
        <time>2021-06-21T06:37:45.522Z</time>
      </trkpt>
      <trkpt lat="43.32893" lon="-1.68182">
        <ele>141</ele>
        <time>2021-06-21T06:37:46.542Z</time>
      </trkpt>
      <trkpt lat="43.32892" lon="-1.6818">
        <ele>141</ele>
        <time>2021-06-21T06:37:47.537Z</time>
      </trkpt>
      <trkpt lat="43.3289" lon="-1.68179">
        <ele>141</ele>
        <time>2021-06-21T06:37:48.539Z</time>
      </trkpt>
      <trkpt lat="43.3289" lon="-1.68179">
        <ele>141</ele>
        <time>2021-06-21T06:37:49.509Z</time>
      </trkpt>
      <trkpt lat="43.32888" lon="-1.68176">
        <ele>141</ele>
        <time>2021-06-21T06:37:50.518Z</time>
      </trkpt>
      <trkpt lat="43.32886" lon="-1.68174">
        <ele>141</ele>
        <time>2021-06-21T06:37:51.519Z</time>
      </trkpt>
      <trkpt lat="43.32886" lon="-1.68174">
        <ele>141</ele>
        <time>2021-06-21T06:37:52.536Z</time>
      </trkpt>
      <trkpt lat="43.32883" lon="-1.68171">
        <ele>141</ele>
        <time>2021-06-21T06:37:53.543Z</time>
      </trkpt>
      <trkpt lat="43.32881" lon="-1.68169">
        <ele>141</ele>
        <time>2021-06-21T06:37:54.520Z</time>
      </trkpt>
      <trkpt lat="43.32881" lon="-1.68169">
        <ele>141</ele>
        <time>2021-06-21T06:37:55.535Z</time>
      </trkpt>
      <trkpt lat="43.32878" lon="-1.68165">
        <ele>141</ele>
        <time>2021-06-21T06:37:56.544Z</time>
      </trkpt>
      <trkpt lat="43.32878" lon="-1.68165">
        <ele>141</ele>
        <time>2021-06-21T06:37:57.518Z</time>
      </trkpt>
      <trkpt lat="43.32874" lon="-1.6816">
        <ele>142</ele>
        <time>2021-06-21T06:37:58.526Z</time>
      </trkpt>
      <trkpt lat="43.32874" lon="-1.6816">
        <ele>142</ele>
        <time>2021-06-21T06:37:59.540Z</time>
      </trkpt>
      <trkpt lat="43.32871" lon="-1.68156">
        <ele>142</ele>
        <time>2021-06-21T06:38:00.513Z</time>
      </trkpt>
      <trkpt lat="43.32871" lon="-1.68156">
        <ele>142</ele>
        <time>2021-06-21T06:38:01.529Z</time>
      </trkpt>
      <trkpt lat="43.32867" lon="-1.68154">
        <ele>142</ele>
        <time>2021-06-21T06:38:02.542Z</time>
      </trkpt>
      <trkpt lat="43.32867" lon="-1.68154">
        <ele>142</ele>
        <time>2021-06-21T06:38:03.526Z</time>
      </trkpt>
      <trkpt lat="43.32863" lon="-1.68152">
        <ele>142</ele>
        <time>2021-06-21T06:38:04.536Z</time>
      </trkpt>
      <trkpt lat="43.32863" lon="-1.68152">
        <ele>142</ele>
        <time>2021-06-21T06:38:05.518Z</time>
      </trkpt>
      <trkpt lat="43.32859" lon="-1.68153">
        <ele>142</ele>
        <time>2021-06-21T06:38:06.531Z</time>
      </trkpt>
      <trkpt lat="43.32859" lon="-1.68153">
        <ele>142</ele>
        <time>2021-06-21T06:38:07.512Z</time>
      </trkpt>
      <trkpt lat="43.32857" lon="-1.68158">
        <ele>142</ele>
        <time>2021-06-21T06:38:08.521Z</time>
      </trkpt>
      <trkpt lat="43.32857" lon="-1.68158">
        <ele>142</ele>
        <time>2021-06-21T06:38:09.539Z</time>
      </trkpt>
      <trkpt lat="43.32859" lon="-1.68163">
        <ele>142</ele>
        <time>2021-06-21T06:38:10.546Z</time>
      </trkpt>
      <trkpt lat="43.32859" lon="-1.68163">
        <ele>142</ele>
        <time>2021-06-21T06:38:11.530Z</time>
      </trkpt>
      <trkpt lat="43.32862" lon="-1.68166">
        <ele>143</ele>
        <time>2021-06-21T06:38:12.538Z</time>
      </trkpt>
      <trkpt lat="43.32862" lon="-1.68166">
        <ele>143</ele>
        <time>2021-06-21T06:38:13.518Z</time>
      </trkpt>
      <trkpt lat="43.32865" lon="-1.6817">
        <ele>142</ele>
        <time>2021-06-21T06:38:14.528Z</time>
      </trkpt>
      <trkpt lat="43.32865" lon="-1.6817">
        <ele>142</ele>
        <time>2021-06-21T06:38:15.548Z</time>
      </trkpt>
      <trkpt lat="43.32868" lon="-1.68173">
        <ele>142</ele>
        <time>2021-06-21T06:38:16.518Z</time>
      </trkpt>
      <trkpt lat="43.32868" lon="-1.68173">
        <ele>142</ele>
        <time>2021-06-21T06:38:17.533Z</time>
      </trkpt>
      <trkpt lat="43.32872" lon="-1.68177">
        <ele>142</ele>
        <time>2021-06-21T06:38:18.539Z</time>
      </trkpt>
      <trkpt lat="43.32872" lon="-1.68177">
        <ele>142</ele>
        <time>2021-06-21T06:38:19.522Z</time>
      </trkpt>
      <trkpt lat="43.32874" lon="-1.68182">
        <ele>142</ele>
        <time>2021-06-21T06:38:20.540Z</time>
      </trkpt>
      <trkpt lat="43.32874" lon="-1.68182">
        <ele>142</ele>
        <time>2021-06-21T06:38:21.528Z</time>
      </trkpt>
      <trkpt lat="43.32876" lon="-1.68186">
        <ele>142</ele>
        <time>2021-06-21T06:38:22.511Z</time>
      </trkpt>
      <trkpt lat="43.32876" lon="-1.68186">
        <ele>142</ele>
        <time>2021-06-21T06:38:23.547Z</time>
      </trkpt>
      <trkpt lat="43.32879" lon="-1.6819">
        <ele>142</ele>
        <time>2021-06-21T06:38:24.521Z</time>
      </trkpt>
      <trkpt lat="43.32879" lon="-1.6819">
        <ele>142</ele>
        <time>2021-06-21T06:38:25.518Z</time>
      </trkpt>
      <trkpt lat="43.32881" lon="-1.68194">
        <ele>142</ele>
        <time>2021-06-21T06:38:26.526Z</time>
      </trkpt>
      <trkpt lat="43.32881" lon="-1.68194">
        <ele>142</ele>
        <time>2021-06-21T06:38:27.515Z</time>
      </trkpt>
      <trkpt lat="43.32882" lon="-1.682">
        <ele>142</ele>
        <time>2021-06-21T06:38:28.545Z</time>
      </trkpt>
      <trkpt lat="43.32882" lon="-1.682">
        <ele>142</ele>
        <time>2021-06-21T06:38:29.513Z</time>
      </trkpt>
      <trkpt lat="43.32884" lon="-1.68205">
        <ele>142</ele>
        <time>2021-06-21T06:38:30.523Z</time>
      </trkpt>
      <trkpt lat="43.32885" lon="-1.68208">
        <ele>143</ele>
        <time>2021-06-21T06:38:31.558Z</time>
      </trkpt>
      <trkpt lat="43.32885" lon="-1.68208">
        <ele>143</ele>
        <time>2021-06-21T06:38:32.526Z</time>
      </trkpt>
      <trkpt lat="43.32886" lon="-1.68213">
        <ele>143</ele>
        <time>2021-06-21T06:38:33.535Z</time>
      </trkpt>
      <trkpt lat="43.32886" lon="-1.68213">
        <ele>143</ele>
        <time>2021-06-21T06:38:34.516Z</time>
      </trkpt>
      <trkpt lat="43.32888" lon="-1.68219">
        <ele>143</ele>
        <time>2021-06-21T06:38:35.522Z</time>
      </trkpt>
      <trkpt lat="43.32889" lon="-1.68221">
        <ele>143</ele>
        <time>2021-06-21T06:38:36.511Z</time>
      </trkpt>
      <trkpt lat="43.32889" lon="-1.68221">
        <ele>143</ele>
        <time>2021-06-21T06:38:37.524Z</time>
      </trkpt>
      <trkpt lat="43.3289" lon="-1.68225">
        <ele>144</ele>
        <time>2021-06-21T06:38:38.531Z</time>
      </trkpt>
      <trkpt lat="43.3289" lon="-1.68225">
        <ele>144</ele>
        <time>2021-06-21T06:38:39.518Z</time>
      </trkpt>
      <trkpt lat="43.32891" lon="-1.6823">
        <ele>144</ele>
        <time>2021-06-21T06:38:40.533Z</time>
      </trkpt>
      <trkpt lat="43.32891" lon="-1.6823">
        <ele>144</ele>
        <time>2021-06-21T06:38:41.512Z</time>
      </trkpt>
      <trkpt lat="43.32892" lon="-1.68235">
        <ele>145</ele>
        <time>2021-06-21T06:38:42.541Z</time>
      </trkpt>
      <trkpt lat="43.32892" lon="-1.68237">
        <ele>145</ele>
        <time>2021-06-21T06:38:43.520Z</time>
      </trkpt>
      <trkpt lat="43.32892" lon="-1.68237">
        <ele>145</ele>
        <time>2021-06-21T06:38:44.536Z</time>
      </trkpt>
      <trkpt lat="43.32892" lon="-1.68242">
        <ele>145</ele>
        <time>2021-06-21T06:38:45.543Z</time>
      </trkpt>
      <trkpt lat="43.32892" lon="-1.68242">
        <ele>145</ele>
        <time>2021-06-21T06:38:46.533Z</time>
      </trkpt>
      <trkpt lat="43.32893" lon="-1.68247">
        <ele>145</ele>
        <time>2021-06-21T06:38:47.542Z</time>
      </trkpt>
      <trkpt lat="43.32893" lon="-1.6825">
        <ele>146</ele>
        <time>2021-06-21T06:38:48.524Z</time>
      </trkpt>
      <trkpt lat="43.32893" lon="-1.6825">
        <ele>146</ele>
        <time>2021-06-21T06:38:49.517Z</time>
      </trkpt>
      <trkpt lat="43.32893" lon="-1.68255">
        <ele>146</ele>
        <time>2021-06-21T06:38:50.541Z</time>
      </trkpt>
      <trkpt lat="43.32893" lon="-1.68255">
        <ele>146</ele>
        <time>2021-06-21T06:38:51.518Z</time>
      </trkpt>
      <trkpt lat="43.32893" lon="-1.6826">
        <ele>146</ele>
        <time>2021-06-21T06:38:52.529Z</time>
      </trkpt>
      <trkpt lat="43.32893" lon="-1.6826">
        <ele>146</ele>
        <time>2021-06-21T06:38:53.525Z</time>
      </trkpt>
      <trkpt lat="43.32892" lon="-1.68265">
        <ele>146</ele>
        <time>2021-06-21T06:38:54.537Z</time>
      </trkpt>
      <trkpt lat="43.32892" lon="-1.68265">
        <ele>146</ele>
        <time>2021-06-21T06:38:55.519Z</time>
      </trkpt>
      <trkpt lat="43.32891" lon="-1.6827">
        <ele>146</ele>
        <time>2021-06-21T06:38:56.526Z</time>
      </trkpt>
      <trkpt lat="43.3289" lon="-1.68273">
        <ele>146</ele>
        <time>2021-06-21T06:38:57.512Z</time>
      </trkpt>
      <trkpt lat="43.3289" lon="-1.68273">
        <ele>146</ele>
        <time>2021-06-21T06:38:58.531Z</time>
      </trkpt>
      <trkpt lat="43.32888" lon="-1.68277">
        <ele>146</ele>
        <time>2021-06-21T06:38:59.537Z</time>
      </trkpt>
      <trkpt lat="43.32887" lon="-1.68279">
        <ele>146</ele>
        <time>2021-06-21T06:39:00.516Z</time>
      </trkpt>
      <trkpt lat="43.32887" lon="-1.68279">
        <ele>146</ele>
        <time>2021-06-21T06:39:01.533Z</time>
      </trkpt>
      <trkpt lat="43.32886" lon="-1.68284">
        <ele>147</ele>
        <time>2021-06-21T06:39:02.541Z</time>
      </trkpt>
      <trkpt lat="43.32886" lon="-1.68284">
        <ele>147</ele>
        <time>2021-06-21T06:39:03.523Z</time>
      </trkpt>
      <trkpt lat="43.32884" lon="-1.68289">
        <ele>147</ele>
        <time>2021-06-21T06:39:04.528Z</time>
      </trkpt>
      <trkpt lat="43.32884" lon="-1.68289">
        <ele>147</ele>
        <time>2021-06-21T06:39:05.510Z</time>
      </trkpt>
      <trkpt lat="43.32882" lon="-1.68293">
        <ele>146</ele>
        <time>2021-06-21T06:39:06.524Z</time>
      </trkpt>
      <trkpt lat="43.32882" lon="-1.68293">
        <ele>146</ele>
        <time>2021-06-21T06:39:07.536Z</time>
      </trkpt>
      <trkpt lat="43.32881" lon="-1.68298">
        <ele>146</ele>
        <time>2021-06-21T06:39:08.543Z</time>
      </trkpt>
      <trkpt lat="43.32881" lon="-1.68298">
        <ele>146</ele>
        <time>2021-06-21T06:39:09.520Z</time>
      </trkpt>
      <trkpt lat="43.32881" lon="-1.68304">
        <ele>146</ele>
        <time>2021-06-21T06:39:10.528Z</time>
      </trkpt>
      <trkpt lat="43.32881" lon="-1.68304">
        <ele>146</ele>
        <time>2021-06-21T06:39:11.510Z</time>
      </trkpt>
      <trkpt lat="43.32882" lon="-1.6831">
        <ele>146</ele>
        <time>2021-06-21T06:39:12.521Z</time>
      </trkpt>
      <trkpt lat="43.32882" lon="-1.6831">
        <ele>146</ele>
        <time>2021-06-21T06:39:13.546Z</time>
      </trkpt>
      <trkpt lat="43.32883" lon="-1.68314">
        <ele>146</ele>
        <time>2021-06-21T06:39:14.516Z</time>
      </trkpt>
      <trkpt lat="43.32883" lon="-1.68314">
        <ele>146</ele>
        <time>2021-06-21T06:39:15.532Z</time>
      </trkpt>
      <trkpt lat="43.32884" lon="-1.68318">
        <ele>147</ele>
        <time>2021-06-21T06:39:16.541Z</time>
      </trkpt>
      <trkpt lat="43.32884" lon="-1.68318">
        <ele>147</ele>
        <time>2021-06-21T06:39:17.521Z</time>
      </trkpt>
      <trkpt lat="43.32886" lon="-1.68322">
        <ele>147</ele>
        <time>2021-06-21T06:39:18.527Z</time>
      </trkpt>
      <trkpt lat="43.32886" lon="-1.68322">
        <ele>147</ele>
        <time>2021-06-21T06:39:19.545Z</time>
      </trkpt>
      <trkpt lat="43.32888" lon="-1.68327">
        <ele>147</ele>
        <time>2021-06-21T06:39:20.512Z</time>
      </trkpt>
      <trkpt lat="43.32888" lon="-1.68327">
        <ele>147</ele>
        <time>2021-06-21T06:39:21.526Z</time>
      </trkpt>
      <trkpt lat="43.32889" lon="-1.68332">
        <ele>147</ele>
        <time>2021-06-21T06:39:22.545Z</time>
      </trkpt>
      <trkpt lat="43.3289" lon="-1.68335">
        <ele>147</ele>
        <time>2021-06-21T06:39:23.533Z</time>
      </trkpt>
      <trkpt lat="43.3289" lon="-1.68338">
        <ele>147</ele>
        <time>2021-06-21T06:39:24.546Z</time>
      </trkpt>
      <trkpt lat="43.3289" lon="-1.68338">
        <ele>147</ele>
        <time>2021-06-21T06:39:25.518Z</time>
      </trkpt>
      <trkpt lat="43.32892" lon="-1.68344">
        <ele>147</ele>
        <time>2021-06-21T06:39:26.526Z</time>
      </trkpt>
      <trkpt lat="43.32892" lon="-1.68344">
        <ele>147</ele>
        <time>2021-06-21T06:39:27.534Z</time>
      </trkpt>
      <trkpt lat="43.32892" lon="-1.68349">
        <ele>147</ele>
        <time>2021-06-21T06:39:28.542Z</time>
      </trkpt>
      <trkpt lat="43.32892" lon="-1.68349">
        <ele>147</ele>
        <time>2021-06-21T06:39:29.523Z</time>
      </trkpt>
      <trkpt lat="43.32892" lon="-1.68354">
        <ele>147</ele>
        <time>2021-06-21T06:39:30.537Z</time>
      </trkpt>
      <trkpt lat="43.32892" lon="-1.68354">
        <ele>147</ele>
        <time>2021-06-21T06:39:31.513Z</time>
      </trkpt>
      <trkpt lat="43.32891" lon="-1.68359">
        <ele>147</ele>
        <time>2021-06-21T06:39:32.530Z</time>
      </trkpt>
      <trkpt lat="43.32891" lon="-1.68359">
        <ele>147</ele>
        <time>2021-06-21T06:39:33.509Z</time>
      </trkpt>
      <trkpt lat="43.3289" lon="-1.68364">
        <ele>147</ele>
        <time>2021-06-21T06:39:34.519Z</time>
      </trkpt>
      <trkpt lat="43.3289" lon="-1.68364">
        <ele>147</ele>
        <time>2021-06-21T06:39:35.509Z</time>
      </trkpt>
      <trkpt lat="43.32888" lon="-1.68368">
        <ele>147</ele>
        <time>2021-06-21T06:39:36.540Z</time>
      </trkpt>
      <trkpt lat="43.32888" lon="-1.68368">
        <ele>147</ele>
        <time>2021-06-21T06:39:37.540Z</time>
      </trkpt>
      <trkpt lat="43.32886" lon="-1.68373">
        <ele>147</ele>
        <time>2021-06-21T06:39:38.546Z</time>
      </trkpt>
      <trkpt lat="43.32886" lon="-1.68373">
        <ele>147</ele>
        <time>2021-06-21T06:39:39.529Z</time>
      </trkpt>
      <trkpt lat="43.32884" lon="-1.68378">
        <ele>147</ele>
        <time>2021-06-21T06:39:40.541Z</time>
      </trkpt>
      <trkpt lat="43.32884" lon="-1.68378">
        <ele>147</ele>
        <time>2021-06-21T06:39:41.521Z</time>
      </trkpt>
      <trkpt lat="43.32882" lon="-1.68383">
        <ele>147</ele>
        <time>2021-06-21T06:39:42.532Z</time>
      </trkpt>
      <trkpt lat="43.32882" lon="-1.68383">
        <ele>147</ele>
        <time>2021-06-21T06:39:43.547Z</time>
      </trkpt>
      <trkpt lat="43.3288" lon="-1.68388">
        <ele>148</ele>
        <time>2021-06-21T06:39:44.516Z</time>
      </trkpt>
      <trkpt lat="43.3288" lon="-1.68388">
        <ele>148</ele>
        <time>2021-06-21T06:39:45.548Z</time>
      </trkpt>
      <trkpt lat="43.32878" lon="-1.68393">
        <ele>148</ele>
        <time>2021-06-21T06:39:46.517Z</time>
      </trkpt>
      <trkpt lat="43.32877" lon="-1.68395">
        <ele>148</ele>
        <time>2021-06-21T06:39:47.550Z</time>
      </trkpt>
      <trkpt lat="43.32876" lon="-1.68397">
        <ele>148</ele>
        <time>2021-06-21T06:39:48.533Z</time>
      </trkpt>
      <trkpt lat="43.32876" lon="-1.68397">
        <ele>148</ele>
        <time>2021-06-21T06:39:49.546Z</time>
      </trkpt>
      <trkpt lat="43.32874" lon="-1.68402">
        <ele>148</ele>
        <time>2021-06-21T06:39:50.519Z</time>
      </trkpt>
      <trkpt lat="43.32874" lon="-1.68402">
        <ele>148</ele>
        <time>2021-06-21T06:39:51.509Z</time>
      </trkpt>
      <trkpt lat="43.32872" lon="-1.68407">
        <ele>148</ele>
        <time>2021-06-21T06:39:52.517Z</time>
      </trkpt>
      <trkpt lat="43.32872" lon="-1.68407">
        <ele>148</ele>
        <time>2021-06-21T06:39:53.538Z</time>
      </trkpt>
      <trkpt lat="43.32871" lon="-1.68411">
        <ele>148</ele>
        <time>2021-06-21T06:39:54.548Z</time>
      </trkpt>
      <trkpt lat="43.32871" lon="-1.68411">
        <ele>148</ele>
        <time>2021-06-21T06:39:55.524Z</time>
      </trkpt>
      <trkpt lat="43.32869" lon="-1.68417">
        <ele>149</ele>
        <time>2021-06-21T06:39:56.534Z</time>
      </trkpt>
      <trkpt lat="43.32869" lon="-1.6842">
        <ele>149</ele>
        <time>2021-06-21T06:39:57.535Z</time>
      </trkpt>
      <trkpt lat="43.32869" lon="-1.6842">
        <ele>149</ele>
        <time>2021-06-21T06:39:58.541Z</time>
      </trkpt>
      <trkpt lat="43.32869" lon="-1.68426">
        <ele>149</ele>
        <time>2021-06-21T06:39:59.548Z</time>
      </trkpt>
      <trkpt lat="43.32869" lon="-1.68429">
        <ele>149</ele>
        <time>2021-06-21T06:40:00.529Z</time>
      </trkpt>
      <trkpt lat="43.32869" lon="-1.68429">
        <ele>149</ele>
        <time>2021-06-21T06:40:01.518Z</time>
      </trkpt>
      <trkpt lat="43.3287" lon="-1.68436">
        <ele>149</ele>
        <time>2021-06-21T06:40:02.537Z</time>
      </trkpt>
      <trkpt lat="43.3287" lon="-1.68436">
        <ele>149</ele>
        <time>2021-06-21T06:40:03.533Z</time>
      </trkpt>
      <trkpt lat="43.32871" lon="-1.68442">
        <ele>149</ele>
        <time>2021-06-21T06:40:04.541Z</time>
      </trkpt>
      <trkpt lat="43.32871" lon="-1.68442">
        <ele>149</ele>
        <time>2021-06-21T06:40:05.518Z</time>
      </trkpt>
      <trkpt lat="43.32873" lon="-1.68447">
        <ele>150</ele>
        <time>2021-06-21T06:40:06.524Z</time>
      </trkpt>
      <trkpt lat="43.32873" lon="-1.68447">
        <ele>150</ele>
        <time>2021-06-21T06:40:07.538Z</time>
      </trkpt>
      <trkpt lat="43.32876" lon="-1.68453">
        <ele>150</ele>
        <time>2021-06-21T06:40:08.544Z</time>
      </trkpt>
      <trkpt lat="43.32876" lon="-1.68453">
        <ele>150</ele>
        <time>2021-06-21T06:40:09.546Z</time>
      </trkpt>
      <trkpt lat="43.32878" lon="-1.68458">
        <ele>150</ele>
        <time>2021-06-21T06:40:10.515Z</time>
      </trkpt>
      <trkpt lat="43.32879" lon="-1.6846">
        <ele>151</ele>
        <time>2021-06-21T06:40:11.533Z</time>
      </trkpt>
      <trkpt lat="43.3288" lon="-1.68463">
        <ele>151</ele>
        <time>2021-06-21T06:40:12.546Z</time>
      </trkpt>
      <trkpt lat="43.3288" lon="-1.68463">
        <ele>151</ele>
        <time>2021-06-21T06:40:13.525Z</time>
      </trkpt>
      <trkpt lat="43.32882" lon="-1.68467">
        <ele>152</ele>
        <time>2021-06-21T06:40:14.537Z</time>
      </trkpt>
      <trkpt lat="43.32882" lon="-1.68467">
        <ele>152</ele>
        <time>2021-06-21T06:40:15.515Z</time>
      </trkpt>
      <trkpt lat="43.32884" lon="-1.68472">
        <ele>152</ele>
        <time>2021-06-21T06:40:16.542Z</time>
      </trkpt>
      <trkpt lat="43.32884" lon="-1.68472">
        <ele>152</ele>
        <time>2021-06-21T06:40:17.527Z</time>
      </trkpt>
      <trkpt lat="43.32887" lon="-1.68477">
        <ele>152</ele>
        <time>2021-06-21T06:40:18.539Z</time>
      </trkpt>
      <trkpt lat="43.32887" lon="-1.68477">
        <ele>152</ele>
        <time>2021-06-21T06:40:19.547Z</time>
      </trkpt>
      <trkpt lat="43.32889" lon="-1.68482">
        <ele>153</ele>
        <time>2021-06-21T06:40:20.517Z</time>
      </trkpt>
      <trkpt lat="43.32889" lon="-1.68482">
        <ele>153</ele>
        <time>2021-06-21T06:40:21.540Z</time>
      </trkpt>
      <trkpt lat="43.32891" lon="-1.68487">
        <ele>153</ele>
        <time>2021-06-21T06:40:22.522Z</time>
      </trkpt>
      <trkpt lat="43.32891" lon="-1.68487">
        <ele>153</ele>
        <time>2021-06-21T06:40:23.522Z</time>
      </trkpt>
      <trkpt lat="43.32893" lon="-1.68491">
        <ele>153</ele>
        <time>2021-06-21T06:40:24.529Z</time>
      </trkpt>
      <trkpt lat="43.32893" lon="-1.68491">
        <ele>153</ele>
        <time>2021-06-21T06:40:25.510Z</time>
      </trkpt>
      <trkpt lat="43.32897" lon="-1.68496">
        <ele>153</ele>
        <time>2021-06-21T06:40:26.552Z</time>
      </trkpt>
      <trkpt lat="43.32899" lon="-1.68498">
        <ele>154</ele>
        <time>2021-06-21T06:40:27.512Z</time>
      </trkpt>
      <trkpt lat="43.32901" lon="-1.685">
        <ele>154</ele>
        <time>2021-06-21T06:40:28.533Z</time>
      </trkpt>
      <trkpt lat="43.32901" lon="-1.685">
        <ele>154</ele>
        <time>2021-06-21T06:40:29.548Z</time>
      </trkpt>
      <trkpt lat="43.32905" lon="-1.68504">
        <ele>154</ele>
        <time>2021-06-21T06:40:30.517Z</time>
      </trkpt>
      <trkpt lat="43.32905" lon="-1.68504">
        <ele>154</ele>
        <time>2021-06-21T06:40:31.540Z</time>
      </trkpt>
      <trkpt lat="43.32908" lon="-1.68509">
        <ele>154</ele>
        <time>2021-06-21T06:40:32.547Z</time>
      </trkpt>
      <trkpt lat="43.32908" lon="-1.68509">
        <ele>154</ele>
        <time>2021-06-21T06:40:33.537Z</time>
      </trkpt>
      <trkpt lat="43.32912" lon="-1.68513">
        <ele>154</ele>
        <time>2021-06-21T06:40:34.544Z</time>
      </trkpt>
      <trkpt lat="43.32912" lon="-1.68513">
        <ele>154</ele>
        <time>2021-06-21T06:40:35.525Z</time>
      </trkpt>
      <trkpt lat="43.32915" lon="-1.68517">
        <ele>154</ele>
        <time>2021-06-21T06:40:36.534Z</time>
      </trkpt>
      <trkpt lat="43.32915" lon="-1.68517">
        <ele>154</ele>
        <time>2021-06-21T06:40:37.529Z</time>
      </trkpt>
      <trkpt lat="43.32917" lon="-1.6852">
        <ele>155</ele>
        <time>2021-06-21T06:40:38.555Z</time>
      </trkpt>
      <trkpt lat="43.32917" lon="-1.6852">
        <ele>155</ele>
        <time>2021-06-21T06:40:39.518Z</time>
      </trkpt>
      <trkpt lat="43.32918" lon="-1.68523">
        <ele>156</ele>
        <time>2021-06-21T06:40:40.527Z</time>
      </trkpt>
      <trkpt lat="43.32918" lon="-1.68523">
        <ele>156</ele>
        <time>2021-06-21T06:40:41.518Z</time>
      </trkpt>
      <trkpt lat="43.32919" lon="-1.68527">
        <ele>156</ele>
        <time>2021-06-21T06:40:42.525Z</time>
      </trkpt>
      <trkpt lat="43.32919" lon="-1.68527">
        <ele>156</ele>
        <time>2021-06-21T06:40:43.509Z</time>
      </trkpt>
      <trkpt lat="43.3292" lon="-1.68531">
        <ele>157</ele>
        <time>2021-06-21T06:40:44.519Z</time>
      </trkpt>
      <trkpt lat="43.3292" lon="-1.68531">
        <ele>157</ele>
        <time>2021-06-21T06:40:45.530Z</time>
      </trkpt>
      <trkpt lat="43.32921" lon="-1.68536">
        <ele>157</ele>
        <time>2021-06-21T06:40:46.536Z</time>
      </trkpt>
      <trkpt lat="43.32921" lon="-1.68536">
        <ele>157</ele>
        <time>2021-06-21T06:40:47.530Z</time>
      </trkpt>
      <trkpt lat="43.32923" lon="-1.68541">
        <ele>157</ele>
        <time>2021-06-21T06:40:48.537Z</time>
      </trkpt>
      <trkpt lat="43.32923" lon="-1.68541">
        <ele>157</ele>
        <time>2021-06-21T06:40:49.522Z</time>
      </trkpt>
      <trkpt lat="43.32923" lon="-1.68546">
        <ele>158</ele>
        <time>2021-06-21T06:40:50.528Z</time>
      </trkpt>
      <trkpt lat="43.32923" lon="-1.68546">
        <ele>158</ele>
        <time>2021-06-21T06:40:51.511Z</time>
      </trkpt>
      <trkpt lat="43.32926" lon="-1.68552">
        <ele>159</ele>
        <time>2021-06-21T06:40:52.523Z</time>
      </trkpt>
      <trkpt lat="43.32926" lon="-1.68552">
        <ele>159</ele>
        <time>2021-06-21T06:40:53.511Z</time>
      </trkpt>
      <trkpt lat="43.32927" lon="-1.68557">
        <ele>159</ele>
        <time>2021-06-21T06:40:54.524Z</time>
      </trkpt>
      <trkpt lat="43.32927" lon="-1.68557">
        <ele>159</ele>
        <time>2021-06-21T06:40:55.540Z</time>
      </trkpt>
      <trkpt lat="43.3293" lon="-1.68563">
        <ele>161</ele>
        <time>2021-06-21T06:40:56.547Z</time>
      </trkpt>
      <trkpt lat="43.3293" lon="-1.68563">
        <ele>161</ele>
        <time>2021-06-21T06:40:57.535Z</time>
      </trkpt>
      <trkpt lat="43.32932" lon="-1.68569">
        <ele>161</ele>
        <time>2021-06-21T06:40:58.546Z</time>
      </trkpt>
      <trkpt lat="43.32932" lon="-1.68569">
        <ele>161</ele>
        <time>2021-06-21T06:40:59.520Z</time>
      </trkpt>
      <trkpt lat="43.32933" lon="-1.68574">
        <ele>162</ele>
        <time>2021-06-21T06:41:00.529Z</time>
      </trkpt>
      <trkpt lat="43.32933" lon="-1.68574">
        <ele>162</ele>
        <time>2021-06-21T06:41:01.541Z</time>
      </trkpt>
      <trkpt lat="43.32935" lon="-1.6858">
        <ele>163</ele>
        <time>2021-06-21T06:41:02.511Z</time>
      </trkpt>
      <trkpt lat="43.32935" lon="-1.6858">
        <ele>163</ele>
        <time>2021-06-21T06:41:03.530Z</time>
      </trkpt>
      <trkpt lat="43.32936" lon="-1.68585">
        <ele>163</ele>
        <time>2021-06-21T06:41:04.539Z</time>
      </trkpt>
      <trkpt lat="43.32936" lon="-1.68585">
        <ele>163</ele>
        <time>2021-06-21T06:41:05.512Z</time>
      </trkpt>
      <trkpt lat="43.32937" lon="-1.6859">
        <ele>163</ele>
        <time>2021-06-21T06:41:06.519Z</time>
      </trkpt>
      <trkpt lat="43.32937" lon="-1.6859">
        <ele>163</ele>
        <time>2021-06-21T06:41:07.509Z</time>
      </trkpt>
      <trkpt lat="43.32938" lon="-1.68595">
        <ele>163</ele>
        <time>2021-06-21T06:41:08.522Z</time>
      </trkpt>
      <trkpt lat="43.32938" lon="-1.68595">
        <ele>163</ele>
        <time>2021-06-21T06:41:09.547Z</time>
      </trkpt>
      <trkpt lat="43.32941" lon="-1.68602">
        <ele>163</ele>
        <time>2021-06-21T06:41:10.513Z</time>
      </trkpt>
      <trkpt lat="43.32941" lon="-1.68602">
        <ele>163</ele>
        <time>2021-06-21T06:41:11.540Z</time>
      </trkpt>
      <trkpt lat="43.32942" lon="-1.68608">
        <ele>163</ele>
        <time>2021-06-21T06:41:12.547Z</time>
      </trkpt>
      <trkpt lat="43.32942" lon="-1.68608">
        <ele>163</ele>
        <time>2021-06-21T06:41:13.540Z</time>
      </trkpt>
      <trkpt lat="43.32944" lon="-1.68614">
        <ele>164</ele>
        <time>2021-06-21T06:41:14.528Z</time>
      </trkpt>
      <trkpt lat="43.32944" lon="-1.68614">
        <ele>164</ele>
        <time>2021-06-21T06:41:15.511Z</time>
      </trkpt>
      <trkpt lat="43.32945" lon="-1.6862">
        <ele>164</ele>
        <time>2021-06-21T06:41:16.519Z</time>
      </trkpt>
      <trkpt lat="43.32945" lon="-1.68622">
        <ele>164</ele>
        <time>2021-06-21T06:41:17.537Z</time>
      </trkpt>
      <trkpt lat="43.32946" lon="-1.68625">
        <ele>164</ele>
        <time>2021-06-21T06:41:18.509Z</time>
      </trkpt>
      <trkpt lat="43.32946" lon="-1.68625">
        <ele>164</ele>
        <time>2021-06-21T06:41:19.532Z</time>
      </trkpt>
      <trkpt lat="43.32946" lon="-1.68631">
        <ele>165</ele>
        <time>2021-06-21T06:41:20.545Z</time>
      </trkpt>
      <trkpt lat="43.32946" lon="-1.68631">
        <ele>165</ele>
        <time>2021-06-21T06:41:21.525Z</time>
      </trkpt>
      <trkpt lat="43.32945" lon="-1.68636">
        <ele>166</ele>
        <time>2021-06-21T06:41:22.545Z</time>
      </trkpt>
      <trkpt lat="43.32945" lon="-1.68636">
        <ele>166</ele>
        <time>2021-06-21T06:41:23.514Z</time>
      </trkpt>
      <trkpt lat="43.32943" lon="-1.68642">
        <ele>167</ele>
        <time>2021-06-21T06:41:24.520Z</time>
      </trkpt>
      <trkpt lat="43.32943" lon="-1.68642">
        <ele>167</ele>
        <time>2021-06-21T06:41:25.540Z</time>
      </trkpt>
      <trkpt lat="43.32941" lon="-1.68647">
        <ele>167</ele>
        <time>2021-06-21T06:41:26.549Z</time>
      </trkpt>
      <trkpt lat="43.32941" lon="-1.68647">
        <ele>167</ele>
        <time>2021-06-21T06:41:27.532Z</time>
      </trkpt>
      <trkpt lat="43.32938" lon="-1.68651">
        <ele>168</ele>
        <time>2021-06-21T06:41:28.541Z</time>
      </trkpt>
      <trkpt lat="43.32938" lon="-1.68651">
        <ele>168</ele>
        <time>2021-06-21T06:41:29.528Z</time>
      </trkpt>
      <trkpt lat="43.32936" lon="-1.68655">
        <ele>168</ele>
        <time>2021-06-21T06:41:30.536Z</time>
      </trkpt>
      <trkpt lat="43.32936" lon="-1.68655">
        <ele>168</ele>
        <time>2021-06-21T06:41:31.513Z</time>
      </trkpt>
      <trkpt lat="43.32933" lon="-1.68659">
        <ele>168</ele>
        <time>2021-06-21T06:41:32.522Z</time>
      </trkpt>
      <trkpt lat="43.32933" lon="-1.68659">
        <ele>168</ele>
        <time>2021-06-21T06:41:33.539Z</time>
      </trkpt>
      <trkpt lat="43.3293" lon="-1.68663">
        <ele>168</ele>
        <time>2021-06-21T06:41:34.524Z</time>
      </trkpt>
      <trkpt lat="43.3293" lon="-1.68663">
        <ele>168</ele>
        <time>2021-06-21T06:41:35.542Z</time>
      </trkpt>
      <trkpt lat="43.32927" lon="-1.68666">
        <ele>168</ele>
        <time>2021-06-21T06:41:36.510Z</time>
      </trkpt>
      <trkpt lat="43.32927" lon="-1.68666">
        <ele>168</ele>
        <time>2021-06-21T06:41:37.532Z</time>
      </trkpt>
      <trkpt lat="43.32924" lon="-1.68668">
        <ele>169</ele>
        <time>2021-06-21T06:41:38.538Z</time>
      </trkpt>
      <trkpt lat="43.32924" lon="-1.68668">
        <ele>169</ele>
        <time>2021-06-21T06:41:39.520Z</time>
      </trkpt>
      <trkpt lat="43.32921" lon="-1.68672">
        <ele>169</ele>
        <time>2021-06-21T06:41:40.526Z</time>
      </trkpt>
      <trkpt lat="43.32921" lon="-1.68672">
        <ele>169</ele>
        <time>2021-06-21T06:41:41.509Z</time>
      </trkpt>
      <trkpt lat="43.32918" lon="-1.68674">
        <ele>169</ele>
        <time>2021-06-21T06:41:42.526Z</time>
      </trkpt>
      <trkpt lat="43.32918" lon="-1.68674">
        <ele>169</ele>
        <time>2021-06-21T06:41:43.523Z</time>
      </trkpt>
      <trkpt lat="43.32915" lon="-1.68677">
        <ele>169</ele>
        <time>2021-06-21T06:41:44.586Z</time>
      </trkpt>
      <trkpt lat="43.32913" lon="-1.68678">
        <ele>169</ele>
        <time>2021-06-21T06:41:45.527Z</time>
      </trkpt>
      <trkpt lat="43.32912" lon="-1.6868">
        <ele>169</ele>
        <time>2021-06-21T06:41:46.514Z</time>
      </trkpt>
      <trkpt lat="43.32912" lon="-1.6868">
        <ele>169</ele>
        <time>2021-06-21T06:41:47.530Z</time>
      </trkpt>
      <trkpt lat="43.32908" lon="-1.68682">
        <ele>169</ele>
        <time>2021-06-21T06:41:48.540Z</time>
      </trkpt>
      <trkpt lat="43.32908" lon="-1.68682">
        <ele>169</ele>
        <time>2021-06-21T06:41:49.522Z</time>
      </trkpt>
      <trkpt lat="43.32905" lon="-1.68684">
        <ele>169</ele>
        <time>2021-06-21T06:41:50.533Z</time>
      </trkpt>
      <trkpt lat="43.32905" lon="-1.68684">
        <ele>169</ele>
        <time>2021-06-21T06:41:51.521Z</time>
      </trkpt>
      <trkpt lat="43.32901" lon="-1.68686">
        <ele>169</ele>
        <time>2021-06-21T06:41:52.529Z</time>
      </trkpt>
      <trkpt lat="43.32899" lon="-1.68687">
        <ele>169</ele>
        <time>2021-06-21T06:41:53.546Z</time>
      </trkpt>
      <trkpt lat="43.32897" lon="-1.68688">
        <ele>170</ele>
        <time>2021-06-21T06:41:54.530Z</time>
      </trkpt>
      <trkpt lat="43.32897" lon="-1.68688">
        <ele>170</ele>
        <time>2021-06-21T06:41:55.544Z</time>
      </trkpt>
      <trkpt lat="43.32894" lon="-1.6869">
        <ele>170</ele>
        <time>2021-06-21T06:41:56.510Z</time>
      </trkpt>
      <trkpt lat="43.32894" lon="-1.6869">
        <ele>170</ele>
        <time>2021-06-21T06:41:57.515Z</time>
      </trkpt>
      <trkpt lat="43.32892" lon="-1.68692">
        <ele>171</ele>
        <time>2021-06-21T06:41:58.553Z</time>
      </trkpt>
      <trkpt lat="43.32892" lon="-1.68692">
        <ele>171</ele>
        <time>2021-06-21T06:41:59.545Z</time>
      </trkpt>
      <trkpt lat="43.32889" lon="-1.68694">
        <ele>172</ele>
        <time>2021-06-21T06:42:00.512Z</time>
      </trkpt>
      <trkpt lat="43.32889" lon="-1.68694">
        <ele>172</ele>
        <time>2021-06-21T06:42:01.539Z</time>
      </trkpt>
      <trkpt lat="43.32886" lon="-1.68696">
        <ele>172</ele>
        <time>2021-06-21T06:42:02.546Z</time>
      </trkpt>
      <trkpt lat="43.32886" lon="-1.68696">
        <ele>172</ele>
        <time>2021-06-21T06:42:03.529Z</time>
      </trkpt>
      <trkpt lat="43.32883" lon="-1.68698">
        <ele>173</ele>
        <time>2021-06-21T06:42:04.537Z</time>
      </trkpt>
      <trkpt lat="43.32881" lon="-1.68699">
        <ele>174</ele>
        <time>2021-06-21T06:42:05.521Z</time>
      </trkpt>
      <trkpt lat="43.3288" lon="-1.687">
        <ele>174</ele>
        <time>2021-06-21T06:42:06.517Z</time>
      </trkpt>
      <trkpt lat="43.3288" lon="-1.687">
        <ele>174</ele>
        <time>2021-06-21T06:42:07.539Z</time>
      </trkpt>
      <trkpt lat="43.32877" lon="-1.68701">
        <ele>175</ele>
        <time>2021-06-21T06:42:08.546Z</time>
      </trkpt>
      <trkpt lat="43.32877" lon="-1.68701">
        <ele>175</ele>
        <time>2021-06-21T06:42:09.522Z</time>
      </trkpt>
      <trkpt lat="43.32873" lon="-1.68702">
        <ele>175</ele>
        <time>2021-06-21T06:42:10.531Z</time>
      </trkpt>
      <trkpt lat="43.32873" lon="-1.68702">
        <ele>175</ele>
        <time>2021-06-21T06:42:11.515Z</time>
      </trkpt>
      <trkpt lat="43.32868" lon="-1.68704">
        <ele>175</ele>
        <time>2021-06-21T06:42:12.522Z</time>
      </trkpt>
      <trkpt lat="43.32868" lon="-1.68704">
        <ele>175</ele>
        <time>2021-06-21T06:42:13.541Z</time>
      </trkpt>
      <trkpt lat="43.32865" lon="-1.68705">
        <ele>176</ele>
        <time>2021-06-21T06:42:14.509Z</time>
      </trkpt>
      <trkpt lat="43.32865" lon="-1.68705">
        <ele>176</ele>
        <time>2021-06-21T06:42:15.532Z</time>
      </trkpt>
      <trkpt lat="43.32862" lon="-1.68707">
        <ele>176</ele>
        <time>2021-06-21T06:42:16.541Z</time>
      </trkpt>
      <trkpt lat="43.32862" lon="-1.68707">
        <ele>176</ele>
        <time>2021-06-21T06:42:17.530Z</time>
      </trkpt>
      <trkpt lat="43.32859" lon="-1.6871">
        <ele>177</ele>
        <time>2021-06-21T06:42:18.519Z</time>
      </trkpt>
      <trkpt lat="43.32859" lon="-1.6871">
        <ele>177</ele>
        <time>2021-06-21T06:42:19.516Z</time>
      </trkpt>
      <trkpt lat="43.32855" lon="-1.68712">
        <ele>177</ele>
        <time>2021-06-21T06:42:20.523Z</time>
      </trkpt>
      <trkpt lat="43.32855" lon="-1.68712">
        <ele>177</ele>
        <time>2021-06-21T06:42:21.545Z</time>
      </trkpt>
      <trkpt lat="43.32852" lon="-1.68714">
        <ele>177</ele>
        <time>2021-06-21T06:42:22.524Z</time>
      </trkpt>
      <trkpt lat="43.32852" lon="-1.68714">
        <ele>177</ele>
        <time>2021-06-21T06:42:23.520Z</time>
      </trkpt>
      <trkpt lat="43.32848" lon="-1.68716">
        <ele>177</ele>
        <time>2021-06-21T06:42:24.527Z</time>
      </trkpt>
      <trkpt lat="43.32848" lon="-1.68716">
        <ele>177</ele>
        <time>2021-06-21T06:42:25.548Z</time>
      </trkpt>
      <trkpt lat="43.32844" lon="-1.68718">
        <ele>177</ele>
        <time>2021-06-21T06:42:26.514Z</time>
      </trkpt>
      <trkpt lat="43.32844" lon="-1.68718">
        <ele>177</ele>
        <time>2021-06-21T06:42:27.529Z</time>
      </trkpt>
      <trkpt lat="43.32839" lon="-1.6872">
        <ele>177</ele>
        <time>2021-06-21T06:42:28.537Z</time>
      </trkpt>
      <trkpt lat="43.32839" lon="-1.6872">
        <ele>177</ele>
        <time>2021-06-21T06:42:29.518Z</time>
      </trkpt>
      <trkpt lat="43.32835" lon="-1.68721">
        <ele>177</ele>
        <time>2021-06-21T06:42:30.529Z</time>
      </trkpt>
      <trkpt lat="43.32835" lon="-1.68721">
        <ele>177</ele>
        <time>2021-06-21T06:42:31.546Z</time>
      </trkpt>
      <trkpt lat="43.32831" lon="-1.68721">
        <ele>177</ele>
        <time>2021-06-21T06:42:32.514Z</time>
      </trkpt>
      <trkpt lat="43.32831" lon="-1.68721">
        <ele>177</ele>
        <time>2021-06-21T06:42:33.512Z</time>
      </trkpt>
      <trkpt lat="43.32827" lon="-1.68722">
        <ele>177</ele>
        <time>2021-06-21T06:42:34.526Z</time>
      </trkpt>
      <trkpt lat="43.32827" lon="-1.68722">
        <ele>177</ele>
        <time>2021-06-21T06:42:35.539Z</time>
      </trkpt>
      <trkpt lat="43.32823" lon="-1.68722">
        <ele>177</ele>
        <time>2021-06-21T06:42:36.547Z</time>
      </trkpt>
      <trkpt lat="43.32823" lon="-1.68722">
        <ele>177</ele>
        <time>2021-06-21T06:42:37.535Z</time>
      </trkpt>
      <trkpt lat="43.32819" lon="-1.68722">
        <ele>177</ele>
        <time>2021-06-21T06:42:38.529Z</time>
      </trkpt>
      <trkpt lat="43.32819" lon="-1.68722">
        <ele>177</ele>
        <time>2021-06-21T06:42:39.542Z</time>
      </trkpt>
      <trkpt lat="43.32815" lon="-1.68722">
        <ele>177</ele>
        <time>2021-06-21T06:42:40.509Z</time>
      </trkpt>
      <trkpt lat="43.32815" lon="-1.68722">
        <ele>177</ele>
        <time>2021-06-21T06:42:41.529Z</time>
      </trkpt>
      <trkpt lat="43.32811" lon="-1.68722">
        <ele>177</ele>
        <time>2021-06-21T06:42:42.536Z</time>
      </trkpt>
      <trkpt lat="43.32811" lon="-1.68722">
        <ele>177</ele>
        <time>2021-06-21T06:42:43.512Z</time>
      </trkpt>
      <trkpt lat="43.32806" lon="-1.68721">
        <ele>178</ele>
        <time>2021-06-21T06:42:44.553Z</time>
      </trkpt>
      <trkpt lat="43.32804" lon="-1.68721">
        <ele>178</ele>
        <time>2021-06-21T06:42:45.532Z</time>
      </trkpt>
      <trkpt lat="43.32804" lon="-1.68721">
        <ele>178</ele>
        <time>2021-06-21T06:42:46.547Z</time>
      </trkpt>
      <trkpt lat="43.32801" lon="-1.68721">
        <ele>178</ele>
        <time>2021-06-21T06:42:47.513Z</time>
      </trkpt>
      <trkpt lat="43.32799" lon="-1.68721">
        <ele>178</ele>
        <time>2021-06-21T06:42:48.540Z</time>
      </trkpt>
      <trkpt lat="43.32799" lon="-1.68721">
        <ele>178</ele>
        <time>2021-06-21T06:42:49.536Z</time>
      </trkpt>
      <trkpt lat="43.32796" lon="-1.68721">
        <ele>179</ele>
        <time>2021-06-21T06:42:50.543Z</time>
      </trkpt>
      <trkpt lat="43.32796" lon="-1.68721">
        <ele>179</ele>
        <time>2021-06-21T06:42:51.525Z</time>
      </trkpt>
      <trkpt lat="43.32792" lon="-1.68721">
        <ele>179</ele>
        <time>2021-06-21T06:42:52.522Z</time>
      </trkpt>
      <trkpt lat="43.3279" lon="-1.68721">
        <ele>179</ele>
        <time>2021-06-21T06:42:53.524Z</time>
      </trkpt>
      <trkpt lat="43.32788" lon="-1.68721">
        <ele>179</ele>
        <time>2021-06-21T06:42:54.549Z</time>
      </trkpt>
      <trkpt lat="43.32788" lon="-1.68721">
        <ele>179</ele>
        <time>2021-06-21T06:42:55.535Z</time>
      </trkpt>
      <trkpt lat="43.32784" lon="-1.68721">
        <ele>179</ele>
        <time>2021-06-21T06:42:56.545Z</time>
      </trkpt>
      <trkpt lat="43.32784" lon="-1.68721">
        <ele>179</ele>
        <time>2021-06-21T06:42:57.523Z</time>
      </trkpt>
      <trkpt lat="43.3278" lon="-1.68721">
        <ele>179</ele>
        <time>2021-06-21T06:42:58.529Z</time>
      </trkpt>
      <trkpt lat="43.3278" lon="-1.68721">
        <ele>179</ele>
        <time>2021-06-21T06:42:59.545Z</time>
      </trkpt>
      <trkpt lat="43.32777" lon="-1.68721">
        <ele>179</ele>
        <time>2021-06-21T06:43:00.511Z</time>
      </trkpt>
      <trkpt lat="43.32777" lon="-1.68721">
        <ele>179</ele>
        <time>2021-06-21T06:43:01.532Z</time>
      </trkpt>
      <trkpt lat="43.32773" lon="-1.68721">
        <ele>179</ele>
        <time>2021-06-21T06:43:02.540Z</time>
      </trkpt>
      <trkpt lat="43.32773" lon="-1.68721">
        <ele>179</ele>
        <time>2021-06-21T06:43:03.528Z</time>
      </trkpt>
      <trkpt lat="43.32769" lon="-1.68721">
        <ele>179</ele>
        <time>2021-06-21T06:43:04.554Z</time>
      </trkpt>
      <trkpt lat="43.32769" lon="-1.68721">
        <ele>179</ele>
        <time>2021-06-21T06:43:05.539Z</time>
      </trkpt>
      <trkpt lat="43.32766" lon="-1.6872">
        <ele>179</ele>
        <time>2021-06-21T06:43:06.546Z</time>
      </trkpt>
      <trkpt lat="43.32766" lon="-1.6872">
        <ele>179</ele>
        <time>2021-06-21T06:43:07.523Z</time>
      </trkpt>
      <trkpt lat="43.32762" lon="-1.68719">
        <ele>179</ele>
        <time>2021-06-21T06:43:08.530Z</time>
      </trkpt>
      <trkpt lat="43.32762" lon="-1.68719">
        <ele>179</ele>
        <time>2021-06-21T06:43:09.544Z</time>
      </trkpt>
      <trkpt lat="43.32759" lon="-1.68718">
        <ele>179</ele>
        <time>2021-06-21T06:43:10.511Z</time>
      </trkpt>
      <trkpt lat="43.32759" lon="-1.68718">
        <ele>179</ele>
        <time>2021-06-21T06:43:11.527Z</time>
      </trkpt>
      <trkpt lat="43.32755" lon="-1.68717">
        <ele>179</ele>
        <time>2021-06-21T06:43:12.528Z</time>
      </trkpt>
      <trkpt lat="43.32755" lon="-1.68717">
        <ele>179</ele>
        <time>2021-06-21T06:43:13.544Z</time>
      </trkpt>
      <trkpt lat="43.3275" lon="-1.68715">
        <ele>179</ele>
        <time>2021-06-21T06:43:14.510Z</time>
      </trkpt>
      <trkpt lat="43.32748" lon="-1.68715">
        <ele>179</ele>
        <time>2021-06-21T06:43:15.525Z</time>
      </trkpt>
      <trkpt lat="43.32747" lon="-1.68714">
        <ele>179</ele>
        <time>2021-06-21T06:43:16.544Z</time>
      </trkpt>
      <trkpt lat="43.32747" lon="-1.68714">
        <ele>179</ele>
        <time>2021-06-21T06:43:17.548Z</time>
      </trkpt>
      <trkpt lat="43.32743" lon="-1.68712">
        <ele>179</ele>
        <time>2021-06-21T06:43:18.516Z</time>
      </trkpt>
      <trkpt lat="43.32743" lon="-1.68712">
        <ele>179</ele>
        <time>2021-06-21T06:43:19.543Z</time>
      </trkpt>
      <trkpt lat="43.32739" lon="-1.6871">
        <ele>179</ele>
        <time>2021-06-21T06:43:20.509Z</time>
      </trkpt>
      <trkpt lat="43.32739" lon="-1.6871">
        <ele>179</ele>
        <time>2021-06-21T06:43:21.527Z</time>
      </trkpt>
      <trkpt lat="43.32736" lon="-1.68709">
        <ele>179</ele>
        <time>2021-06-21T06:43:22.545Z</time>
      </trkpt>
      <trkpt lat="43.32736" lon="-1.68709">
        <ele>179</ele>
        <time>2021-06-21T06:43:23.544Z</time>
      </trkpt>
      <trkpt lat="43.32732" lon="-1.68707">
        <ele>180</ele>
        <time>2021-06-21T06:43:24.510Z</time>
      </trkpt>
      <trkpt lat="43.3273" lon="-1.68706">
        <ele>180</ele>
        <time>2021-06-21T06:43:25.529Z</time>
      </trkpt>
      <trkpt lat="43.3273" lon="-1.68706">
        <ele>180</ele>
        <time>2021-06-21T06:43:26.523Z</time>
      </trkpt>
      <trkpt lat="43.32726" lon="-1.68704">
        <ele>180</ele>
        <time>2021-06-21T06:43:27.528Z</time>
      </trkpt>
      <trkpt lat="43.32724" lon="-1.68703">
        <ele>180</ele>
        <time>2021-06-21T06:43:28.528Z</time>
      </trkpt>
      <trkpt lat="43.32724" lon="-1.68703">
        <ele>180</ele>
        <time>2021-06-21T06:43:29.542Z</time>
      </trkpt>
      <trkpt lat="43.3272" lon="-1.68701">
        <ele>180</ele>
        <time>2021-06-21T06:43:30.548Z</time>
      </trkpt>
      <trkpt lat="43.3272" lon="-1.68701">
        <ele>180</ele>
        <time>2021-06-21T06:43:31.525Z</time>
      </trkpt>
      <trkpt lat="43.32716" lon="-1.687">
        <ele>180</ele>
        <time>2021-06-21T06:43:32.545Z</time>
      </trkpt>
      <trkpt lat="43.32716" lon="-1.687">
        <ele>180</ele>
        <time>2021-06-21T06:43:33.523Z</time>
      </trkpt>
      <trkpt lat="43.32714" lon="-1.687">
        <ele>180</ele>
        <time>2021-06-21T06:43:34.531Z</time>
      </trkpt>
      <trkpt lat="43.32714" lon="-1.687">
        <ele>180</ele>
        <time>2021-06-21T06:43:35.525Z</time>
      </trkpt>
      <trkpt lat="43.32714" lon="-1.68699">
        <ele>180</ele>
        <time>2021-06-21T06:43:36.543Z</time>
      </trkpt>
      <trkpt lat="43.32714" lon="-1.68699">
        <ele>180</ele>
        <time>2021-06-21T06:43:37.539Z</time>
      </trkpt>
      <trkpt lat="43.32714" lon="-1.68699">
        <ele>180</ele>
        <time>2021-06-21T06:43:38.525Z</time>
      </trkpt>
      <trkpt lat="43.32714" lon="-1.68699">
        <ele>180</ele>
        <time>2021-06-21T06:43:39.532Z</time>
      </trkpt>
      <trkpt lat="43.32714" lon="-1.68699">
        <ele>180</ele>
        <time>2021-06-21T06:43:40.521Z</time>
      </trkpt>
      <trkpt lat="43.32714" lon="-1.68699">
        <ele>180</ele>
        <time>2021-06-21T06:43:41.528Z</time>
      </trkpt>
      <trkpt lat="43.32714" lon="-1.68699">
        <ele>180</ele>
        <time>2021-06-21T06:43:42.534Z</time>
      </trkpt>
      <trkpt lat="43.32714" lon="-1.68699">
        <ele>180</ele>
        <time>2021-06-21T06:43:43.529Z</time>
      </trkpt>
      <trkpt lat="43.32714" lon="-1.68699">
        <ele>180</ele>
        <time>2021-06-21T06:43:44.547Z</time>
      </trkpt>
      <trkpt lat="43.32714" lon="-1.68699">
        <ele>180</ele>
        <time>2021-06-21T06:43:45.531Z</time>
      </trkpt>
      <trkpt lat="43.32714" lon="-1.68699">
        <ele>180</ele>
        <time>2021-06-21T06:43:46.548Z</time>
      </trkpt>
      <trkpt lat="43.32714" lon="-1.68699">
        <ele>180</ele>
        <time>2021-06-21T06:43:47.529Z</time>
      </trkpt>
      <trkpt lat="43.32714" lon="-1.68699">
        <ele>180</ele>
        <time>2021-06-21T06:43:48.544Z</time>
      </trkpt>
      <trkpt lat="43.32714" lon="-1.68699">
        <ele>180</ele>
        <time>2021-06-21T06:43:49.529Z</time>
      </trkpt>
      <trkpt lat="43.32714" lon="-1.68699">
        <ele>180</ele>
        <time>2021-06-21T06:43:50.545Z</time>
      </trkpt>
      <trkpt lat="43.32714" lon="-1.68699">
        <ele>180</ele>
        <time>2021-06-21T06:43:51.529Z</time>
      </trkpt>
      <trkpt lat="43.32714" lon="-1.68699">
        <ele>180</ele>
        <time>2021-06-21T06:43:52.544Z</time>
      </trkpt>
      <trkpt lat="43.32714" lon="-1.68699">
        <ele>180</ele>
        <time>2021-06-21T06:43:53.529Z</time>
      </trkpt>
      <trkpt lat="43.32714" lon="-1.68699">
        <ele>180</ele>
        <time>2021-06-21T06:43:54.545Z</time>
      </trkpt>
      <trkpt lat="43.32714" lon="-1.68699">
        <ele>180</ele>
        <time>2021-06-21T06:43:55.529Z</time>
      </trkpt>
      <trkpt lat="43.32714" lon="-1.68699">
        <ele>180</ele>
        <time>2021-06-21T06:43:56.542Z</time>
      </trkpt>
      <trkpt lat="43.32714" lon="-1.68699">
        <ele>180</ele>
        <time>2021-06-21T06:43:57.529Z</time>
      </trkpt>
      <trkpt lat="43.32714" lon="-1.68699">
        <ele>180</ele>
        <time>2021-06-21T06:43:58.544Z</time>
      </trkpt>
      <trkpt lat="43.32714" lon="-1.68699">
        <ele>180</ele>
        <time>2021-06-21T06:43:59.529Z</time>
      </trkpt>
      <trkpt lat="43.32714" lon="-1.68699">
        <ele>180</ele>
        <time>2021-06-21T06:44:00.510Z</time>
      </trkpt>
      <trkpt lat="43.32714" lon="-1.68699">
        <ele>180</ele>
        <time>2021-06-21T06:44:01.534Z</time>
      </trkpt>
      <trkpt lat="43.32714" lon="-1.68699">
        <ele>180</ele>
        <time>2021-06-21T06:44:02.510Z</time>
      </trkpt>
      <trkpt lat="43.32714" lon="-1.68699">
        <ele>180</ele>
        <time>2021-06-21T06:44:03.529Z</time>
      </trkpt>
      <trkpt lat="43.32714" lon="-1.68699">
        <ele>180</ele>
        <time>2021-06-21T06:44:04.510Z</time>
      </trkpt>
      <trkpt lat="43.32714" lon="-1.68699">
        <ele>180</ele>
        <time>2021-06-21T06:44:05.530Z</time>
      </trkpt>
      <trkpt lat="43.32714" lon="-1.68699">
        <ele>180</ele>
        <time>2021-06-21T06:44:06.547Z</time>
      </trkpt>
      <trkpt lat="43.32714" lon="-1.68699">
        <ele>180</ele>
        <time>2021-06-21T06:44:07.529Z</time>
      </trkpt>
      <trkpt lat="43.32714" lon="-1.68699">
        <ele>180</ele>
        <time>2021-06-21T06:44:08.546Z</time>
      </trkpt>
      <trkpt lat="43.32714" lon="-1.68699">
        <ele>180</ele>
        <time>2021-06-21T06:44:09.530Z</time>
      </trkpt>
      <trkpt lat="43.32714" lon="-1.68699">
        <ele>180</ele>
        <time>2021-06-21T06:44:10.546Z</time>
      </trkpt>
      <trkpt lat="43.32714" lon="-1.68699">
        <ele>180</ele>
        <time>2021-06-21T06:44:11.534Z</time>
      </trkpt>
      <trkpt lat="43.32714" lon="-1.68699">
        <ele>180</ele>
        <time>2021-06-21T06:44:12.511Z</time>
      </trkpt>
      <trkpt lat="43.32714" lon="-1.68699">
        <ele>180</ele>
        <time>2021-06-21T06:44:13.529Z</time>
      </trkpt>
      <trkpt lat="43.32714" lon="-1.68699">
        <ele>180</ele>
        <time>2021-06-21T06:44:14.546Z</time>
      </trkpt>
      <trkpt lat="43.32714" lon="-1.68699">
        <ele>180</ele>
        <time>2021-06-21T06:44:15.526Z</time>
      </trkpt>
      <trkpt lat="43.32714" lon="-1.68699">
        <ele>180</ele>
        <time>2021-06-21T06:44:16.543Z</time>
      </trkpt>
      <trkpt lat="43.32714" lon="-1.68699">
        <ele>180</ele>
        <time>2021-06-21T06:44:17.535Z</time>
      </trkpt>
      <trkpt lat="43.32714" lon="-1.68699">
        <ele>180</ele>
        <time>2021-06-21T06:44:18.536Z</time>
      </trkpt>
      <trkpt lat="43.32714" lon="-1.68699">
        <ele>180</ele>
        <time>2021-06-21T06:44:19.511Z</time>
      </trkpt>
      <trkpt lat="43.32714" lon="-1.68699">
        <ele>180</ele>
        <time>2021-06-21T06:44:20.535Z</time>
      </trkpt>
      <trkpt lat="43.32714" lon="-1.68699">
        <ele>180</ele>
        <time>2021-06-21T06:44:21.511Z</time>
      </trkpt>
      <trkpt lat="43.32714" lon="-1.68699">
        <ele>180</ele>
        <time>2021-06-21T06:44:22.534Z</time>
      </trkpt>
      <trkpt lat="43.32714" lon="-1.68699">
        <ele>180</ele>
        <time>2021-06-21T06:44:23.531Z</time>
      </trkpt>
      <trkpt lat="43.32714" lon="-1.68699">
        <ele>180</ele>
        <time>2021-06-21T06:44:24.509Z</time>
      </trkpt>
      <trkpt lat="43.32714" lon="-1.68699">
        <ele>180</ele>
        <time>2021-06-21T06:44:25.529Z</time>
      </trkpt>
      <trkpt lat="43.32714" lon="-1.68699">
        <ele>180</ele>
        <time>2021-06-21T06:44:26.546Z</time>
      </trkpt>
      <trkpt lat="43.32714" lon="-1.68699">
        <ele>180</ele>
        <time>2021-06-21T06:44:27.530Z</time>
      </trkpt>
      <trkpt lat="43.32714" lon="-1.68699">
        <ele>180</ele>
        <time>2021-06-21T06:44:28.547Z</time>
      </trkpt>
      <trkpt lat="43.32714" lon="-1.68699">
        <ele>180</ele>
        <time>2021-06-21T06:44:29.530Z</time>
      </trkpt>
      <trkpt lat="43.32714" lon="-1.68699">
        <ele>180</ele>
        <time>2021-06-21T06:44:30.546Z</time>
      </trkpt>
      <trkpt lat="43.32714" lon="-1.68699">
        <ele>180</ele>
        <time>2021-06-21T06:44:31.529Z</time>
      </trkpt>
      <trkpt lat="43.32714" lon="-1.68699">
        <ele>180</ele>
        <time>2021-06-21T06:44:32.546Z</time>
      </trkpt>
      <trkpt lat="43.32714" lon="-1.68699">
        <ele>180</ele>
        <time>2021-06-21T06:44:33.541Z</time>
      </trkpt>
      <trkpt lat="43.32714" lon="-1.68699">
        <ele>180</ele>
        <time>2021-06-21T06:44:34.530Z</time>
      </trkpt>
      <trkpt lat="43.32714" lon="-1.68699">
        <ele>180</ele>
        <time>2021-06-21T06:44:35.546Z</time>
      </trkpt>
      <trkpt lat="43.32714" lon="-1.68699">
        <ele>180</ele>
        <time>2021-06-21T06:44:36.537Z</time>
      </trkpt>
      <trkpt lat="43.32714" lon="-1.68699">
        <ele>180</ele>
        <time>2021-06-21T06:44:37.530Z</time>
      </trkpt>
      <trkpt lat="43.32714" lon="-1.68699">
        <ele>180</ele>
        <time>2021-06-21T06:44:38.547Z</time>
      </trkpt>
      <trkpt lat="43.32714" lon="-1.68699">
        <ele>180</ele>
        <time>2021-06-21T06:44:39.530Z</time>
      </trkpt>
      <trkpt lat="43.32714" lon="-1.68699">
        <ele>180</ele>
        <time>2021-06-21T06:44:40.548Z</time>
      </trkpt>
      <trkpt lat="43.32714" lon="-1.68699">
        <ele>180</ele>
        <time>2021-06-21T06:44:41.529Z</time>
      </trkpt>
      <trkpt lat="43.32714" lon="-1.68699">
        <ele>180</ele>
        <time>2021-06-21T06:44:42.547Z</time>
      </trkpt>
      <trkpt lat="43.32714" lon="-1.68699">
        <ele>180</ele>
        <time>2021-06-21T06:44:43.530Z</time>
      </trkpt>
      <trkpt lat="43.32714" lon="-1.68699">
        <ele>180</ele>
        <time>2021-06-21T06:44:44.546Z</time>
      </trkpt>
      <trkpt lat="43.32714" lon="-1.68699">
        <ele>180</ele>
        <time>2021-06-21T06:44:45.527Z</time>
      </trkpt>
      <trkpt lat="43.32714" lon="-1.68699">
        <ele>180</ele>
        <time>2021-06-21T06:44:46.545Z</time>
      </trkpt>
      <trkpt lat="43.32714" lon="-1.68699">
        <ele>180</ele>
        <time>2021-06-21T06:44:47.530Z</time>
      </trkpt>
      <trkpt lat="43.32714" lon="-1.68699">
        <ele>180</ele>
        <time>2021-06-21T06:44:48.546Z</time>
      </trkpt>
      <trkpt lat="43.32714" lon="-1.68699">
        <ele>180</ele>
        <time>2021-06-21T06:44:49.530Z</time>
      </trkpt>
      <trkpt lat="43.32714" lon="-1.68699">
        <ele>180</ele>
        <time>2021-06-21T06:44:50.546Z</time>
      </trkpt>
      <trkpt lat="43.32714" lon="-1.68699">
        <ele>180</ele>
        <time>2021-06-21T06:44:51.530Z</time>
      </trkpt>
      <trkpt lat="43.32714" lon="-1.68699">
        <ele>180</ele>
        <time>2021-06-21T06:44:52.546Z</time>
      </trkpt>
      <trkpt lat="43.32714" lon="-1.68699">
        <ele>180</ele>
        <time>2021-06-21T06:44:53.530Z</time>
      </trkpt>
      <trkpt lat="43.32714" lon="-1.68699">
        <ele>180</ele>
        <time>2021-06-21T06:44:54.546Z</time>
      </trkpt>
      <trkpt lat="43.32714" lon="-1.68699">
        <ele>180</ele>
        <time>2021-06-21T06:44:55.528Z</time>
      </trkpt>
      <trkpt lat="43.32714" lon="-1.68699">
        <ele>180</ele>
        <time>2021-06-21T06:44:56.544Z</time>
      </trkpt>
      <trkpt lat="43.32714" lon="-1.68699">
        <ele>180</ele>
        <time>2021-06-21T06:44:57.530Z</time>
      </trkpt>
      <trkpt lat="43.32714" lon="-1.68699">
        <ele>180</ele>
        <time>2021-06-21T06:44:58.546Z</time>
      </trkpt>
      <trkpt lat="43.32714" lon="-1.68699">
        <ele>180</ele>
        <time>2021-06-21T06:44:59.530Z</time>
      </trkpt>
      <trkpt lat="43.32714" lon="-1.68699">
        <ele>180</ele>
        <time>2021-06-21T06:45:00.547Z</time>
      </trkpt>
      <trkpt lat="43.32714" lon="-1.68699">
        <ele>180</ele>
        <time>2021-06-21T06:45:01.530Z</time>
      </trkpt>
      <trkpt lat="43.32714" lon="-1.68699">
        <ele>180</ele>
        <time>2021-06-21T06:45:02.547Z</time>
      </trkpt>
      <trkpt lat="43.32714" lon="-1.68699">
        <ele>180</ele>
        <time>2021-06-21T06:45:03.536Z</time>
      </trkpt>
      <trkpt lat="43.32714" lon="-1.68699">
        <ele>180</ele>
        <time>2021-06-21T06:45:04.510Z</time>
      </trkpt>
      <trkpt lat="43.32714" lon="-1.68699">
        <ele>180</ele>
        <time>2021-06-21T06:45:05.537Z</time>
      </trkpt>
      <trkpt lat="43.32714" lon="-1.68699">
        <ele>180</ele>
        <time>2021-06-21T06:45:06.513Z</time>
      </trkpt>
      <trkpt lat="43.32714" lon="-1.68699">
        <ele>180</ele>
        <time>2021-06-21T06:45:07.530Z</time>
      </trkpt>
      <trkpt lat="43.3271" lon="-1.68695">
        <ele>178</ele>
        <time>2021-06-21T06:45:08.546Z</time>
      </trkpt>
      <trkpt lat="43.3271" lon="-1.68695">
        <ele>178</ele>
        <time>2021-06-21T06:45:09.530Z</time>
      </trkpt>
      <trkpt lat="43.32709" lon="-1.68693">
        <ele>178</ele>
        <time>2021-06-21T06:45:10.546Z</time>
      </trkpt>
      <trkpt lat="43.32708" lon="-1.68692">
        <ele>178</ele>
        <time>2021-06-21T06:45:11.535Z</time>
      </trkpt>
      <trkpt lat="43.32707" lon="-1.68692">
        <ele>178</ele>
        <time>2021-06-21T06:45:12.548Z</time>
      </trkpt>
      <trkpt lat="43.32707" lon="-1.68692">
        <ele>178</ele>
        <time>2021-06-21T06:45:13.516Z</time>
      </trkpt>
      <trkpt lat="43.32704" lon="-1.68691">
        <ele>178</ele>
        <time>2021-06-21T06:45:14.522Z</time>
      </trkpt>
      <trkpt lat="43.32704" lon="-1.68691">
        <ele>178</ele>
        <time>2021-06-21T06:45:15.539Z</time>
      </trkpt>
      <trkpt lat="43.32701" lon="-1.6869">
        <ele>178</ele>
        <time>2021-06-21T06:45:16.549Z</time>
      </trkpt>
      <trkpt lat="43.32701" lon="-1.6869">
        <ele>178</ele>
        <time>2021-06-21T06:45:17.528Z</time>
      </trkpt>
      <trkpt lat="43.32698" lon="-1.68689">
        <ele>178</ele>
        <time>2021-06-21T06:45:18.595Z</time>
      </trkpt>
      <trkpt lat="43.32698" lon="-1.68689">
        <ele>178</ele>
        <time>2021-06-21T06:45:19.514Z</time>
      </trkpt>
      <trkpt lat="43.32694" lon="-1.68688">
        <ele>178</ele>
        <time>2021-06-21T06:45:20.524Z</time>
      </trkpt>
      <trkpt lat="43.32694" lon="-1.68688">
        <ele>178</ele>
        <time>2021-06-21T06:45:21.545Z</time>
      </trkpt>
      <trkpt lat="43.32691" lon="-1.68686">
        <ele>178</ele>
        <time>2021-06-21T06:45:22.527Z</time>
      </trkpt>
      <trkpt lat="43.32691" lon="-1.68686">
        <ele>178</ele>
        <time>2021-06-21T06:45:23.522Z</time>
      </trkpt>
      <trkpt lat="43.32688" lon="-1.68685">
        <ele>178</ele>
        <time>2021-06-21T06:45:24.531Z</time>
      </trkpt>
      <trkpt lat="43.32688" lon="-1.68685">
        <ele>178</ele>
        <time>2021-06-21T06:45:25.519Z</time>
      </trkpt>
      <trkpt lat="43.32684" lon="-1.68683">
        <ele>178</ele>
        <time>2021-06-21T06:45:26.525Z</time>
      </trkpt>
      <trkpt lat="43.32683" lon="-1.68683">
        <ele>178</ele>
        <time>2021-06-21T06:45:27.512Z</time>
      </trkpt>
      <trkpt lat="43.32683" lon="-1.68683">
        <ele>178</ele>
        <time>2021-06-21T06:45:28.536Z</time>
      </trkpt>
      <trkpt lat="43.3268" lon="-1.68683">
        <ele>178</ele>
        <time>2021-06-21T06:45:29.544Z</time>
      </trkpt>
      <trkpt lat="43.32678" lon="-1.68683">
        <ele>178</ele>
        <time>2021-06-21T06:45:30.518Z</time>
      </trkpt>
      <trkpt lat="43.32678" lon="-1.68683">
        <ele>178</ele>
        <time>2021-06-21T06:45:31.531Z</time>
      </trkpt>
      <trkpt lat="43.32675" lon="-1.68681">
        <ele>178</ele>
        <time>2021-06-21T06:45:32.542Z</time>
      </trkpt>
      <trkpt lat="43.32675" lon="-1.68681">
        <ele>178</ele>
        <time>2021-06-21T06:45:33.514Z</time>
      </trkpt>
      <trkpt lat="43.32671" lon="-1.68681">
        <ele>179</ele>
        <time>2021-06-21T06:45:34.530Z</time>
      </trkpt>
      <trkpt lat="43.32671" lon="-1.68681">
        <ele>179</ele>
        <time>2021-06-21T06:45:35.511Z</time>
      </trkpt>
      <trkpt lat="43.32668" lon="-1.68681">
        <ele>179</ele>
        <time>2021-06-21T06:45:36.516Z</time>
      </trkpt>
      <trkpt lat="43.32668" lon="-1.68681">
        <ele>179</ele>
        <time>2021-06-21T06:45:37.512Z</time>
      </trkpt>
      <trkpt lat="43.32665" lon="-1.6868">
        <ele>179</ele>
        <time>2021-06-21T06:45:38.524Z</time>
      </trkpt>
      <trkpt lat="43.32665" lon="-1.6868">
        <ele>179</ele>
        <time>2021-06-21T06:45:39.545Z</time>
      </trkpt>
      <trkpt lat="43.32662" lon="-1.68679">
        <ele>180</ele>
        <time>2021-06-21T06:45:40.513Z</time>
      </trkpt>
      <trkpt lat="43.32662" lon="-1.68679">
        <ele>180</ele>
        <time>2021-06-21T06:45:41.533Z</time>
      </trkpt>
      <trkpt lat="43.32658" lon="-1.6868">
        <ele>180</ele>
        <time>2021-06-21T06:45:42.545Z</time>
      </trkpt>
      <trkpt lat="43.32658" lon="-1.6868">
        <ele>180</ele>
        <time>2021-06-21T06:45:43.523Z</time>
      </trkpt>
      <trkpt lat="43.32655" lon="-1.6868">
        <ele>180</ele>
        <time>2021-06-21T06:45:44.533Z</time>
      </trkpt>
      <trkpt lat="43.32655" lon="-1.6868">
        <ele>180</ele>
        <time>2021-06-21T06:45:45.547Z</time>
      </trkpt>
      <trkpt lat="43.32651" lon="-1.68679">
        <ele>181</ele>
        <time>2021-06-21T06:45:46.528Z</time>
      </trkpt>
      <trkpt lat="43.3265" lon="-1.68678">
        <ele>181</ele>
        <time>2021-06-21T06:45:47.605Z</time>
      </trkpt>
      <trkpt lat="43.32648" lon="-1.68678">
        <ele>181</ele>
        <time>2021-06-21T06:45:48.545Z</time>
      </trkpt>
      <trkpt lat="43.32648" lon="-1.68678">
        <ele>181</ele>
        <time>2021-06-21T06:45:49.536Z</time>
      </trkpt>
      <trkpt lat="43.32645" lon="-1.68676">
        <ele>181</ele>
        <time>2021-06-21T06:45:50.510Z</time>
      </trkpt>
      <trkpt lat="43.32645" lon="-1.68676">
        <ele>181</ele>
        <time>2021-06-21T06:45:51.532Z</time>
      </trkpt>
      <trkpt lat="43.32642" lon="-1.68676">
        <ele>181</ele>
        <time>2021-06-21T06:45:52.551Z</time>
      </trkpt>
      <trkpt lat="43.32642" lon="-1.68676">
        <ele>181</ele>
        <time>2021-06-21T06:45:53.513Z</time>
      </trkpt>
      <trkpt lat="43.32639" lon="-1.68674">
        <ele>181</ele>
        <time>2021-06-21T06:45:54.519Z</time>
      </trkpt>
      <trkpt lat="43.32639" lon="-1.68674">
        <ele>181</ele>
        <time>2021-06-21T06:45:55.538Z</time>
      </trkpt>
      <trkpt lat="43.32636" lon="-1.68673">
        <ele>181</ele>
        <time>2021-06-21T06:45:56.545Z</time>
      </trkpt>
      <trkpt lat="43.32636" lon="-1.68673">
        <ele>181</ele>
        <time>2021-06-21T06:45:57.516Z</time>
      </trkpt>
      <trkpt lat="43.32633" lon="-1.68672">
        <ele>182</ele>
        <time>2021-06-21T06:45:58.543Z</time>
      </trkpt>
      <trkpt lat="43.32633" lon="-1.68672">
        <ele>182</ele>
        <time>2021-06-21T06:45:59.526Z</time>
      </trkpt>
      <trkpt lat="43.32629" lon="-1.68671">
        <ele>182</ele>
        <time>2021-06-21T06:46:00.536Z</time>
      </trkpt>
      <trkpt lat="43.32629" lon="-1.68671">
        <ele>182</ele>
        <time>2021-06-21T06:46:01.547Z</time>
      </trkpt>
      <trkpt lat="43.32626" lon="-1.6867">
        <ele>182</ele>
        <time>2021-06-21T06:46:02.514Z</time>
      </trkpt>
      <trkpt lat="43.32626" lon="-1.6867">
        <ele>182</ele>
        <time>2021-06-21T06:46:03.536Z</time>
      </trkpt>
      <trkpt lat="43.32623" lon="-1.68668">
        <ele>182</ele>
        <time>2021-06-21T06:46:04.555Z</time>
      </trkpt>
      <trkpt lat="43.32623" lon="-1.68668">
        <ele>182</ele>
        <time>2021-06-21T06:46:05.516Z</time>
      </trkpt>
      <trkpt lat="43.32619" lon="-1.68667">
        <ele>183</ele>
        <time>2021-06-21T06:46:06.523Z</time>
      </trkpt>
      <trkpt lat="43.32619" lon="-1.68667">
        <ele>183</ele>
        <time>2021-06-21T06:46:07.540Z</time>
      </trkpt>
      <trkpt lat="43.32615" lon="-1.68666">
        <ele>183</ele>
        <time>2021-06-21T06:46:08.511Z</time>
      </trkpt>
      <trkpt lat="43.32615" lon="-1.68666">
        <ele>183</ele>
        <time>2021-06-21T06:46:09.522Z</time>
      </trkpt>
      <trkpt lat="43.32611" lon="-1.68666">
        <ele>183</ele>
        <time>2021-06-21T06:46:10.527Z</time>
      </trkpt>
      <trkpt lat="43.32611" lon="-1.68666">
        <ele>183</ele>
        <time>2021-06-21T06:46:11.548Z</time>
      </trkpt>
      <trkpt lat="43.32606" lon="-1.68667">
        <ele>183</ele>
        <time>2021-06-21T06:46:12.556Z</time>
      </trkpt>
      <trkpt lat="43.32606" lon="-1.68667">
        <ele>183</ele>
        <time>2021-06-21T06:46:13.532Z</time>
      </trkpt>
      <trkpt lat="43.32603" lon="-1.68668">
        <ele>184</ele>
        <time>2021-06-21T06:46:14.537Z</time>
      </trkpt>
      <trkpt lat="43.32603" lon="-1.68668">
        <ele>184</ele>
        <time>2021-06-21T06:46:15.511Z</time>
      </trkpt>
      <trkpt lat="43.326" lon="-1.68669">
        <ele>184</ele>
        <time>2021-06-21T06:46:16.521Z</time>
      </trkpt>
      <trkpt lat="43.326" lon="-1.68669">
        <ele>184</ele>
        <time>2021-06-21T06:46:17.544Z</time>
      </trkpt>
      <trkpt lat="43.32596" lon="-1.68672">
        <ele>185</ele>
        <time>2021-06-21T06:46:18.509Z</time>
      </trkpt>
      <trkpt lat="43.32596" lon="-1.68672">
        <ele>185</ele>
        <time>2021-06-21T06:46:19.535Z</time>
      </trkpt>
      <trkpt lat="43.32592" lon="-1.68674">
        <ele>186</ele>
        <time>2021-06-21T06:46:20.541Z</time>
      </trkpt>
      <trkpt lat="43.32592" lon="-1.68674">
        <ele>186</ele>
        <time>2021-06-21T06:46:21.519Z</time>
      </trkpt>
      <trkpt lat="43.32589" lon="-1.68677">
        <ele>186</ele>
        <time>2021-06-21T06:46:22.537Z</time>
      </trkpt>
      <trkpt lat="43.32589" lon="-1.68677">
        <ele>186</ele>
        <time>2021-06-21T06:46:23.529Z</time>
      </trkpt>
      <trkpt lat="43.32585" lon="-1.68679">
        <ele>187</ele>
        <time>2021-06-21T06:46:24.539Z</time>
      </trkpt>
      <trkpt lat="43.32585" lon="-1.68679">
        <ele>187</ele>
        <time>2021-06-21T06:46:25.526Z</time>
      </trkpt>
      <trkpt lat="43.32581" lon="-1.6868">
        <ele>187</ele>
        <time>2021-06-21T06:46:26.535Z</time>
      </trkpt>
      <trkpt lat="43.32579" lon="-1.6868">
        <ele>187</ele>
        <time>2021-06-21T06:46:27.556Z</time>
      </trkpt>
      <trkpt lat="43.32579" lon="-1.6868">
        <ele>187</ele>
        <time>2021-06-21T06:46:28.513Z</time>
      </trkpt>
      <trkpt lat="43.32575" lon="-1.6868">
        <ele>188</ele>
        <time>2021-06-21T06:46:29.519Z</time>
      </trkpt>
      <trkpt lat="43.32573" lon="-1.6868">
        <ele>188</ele>
        <time>2021-06-21T06:46:30.545Z</time>
      </trkpt>
      <trkpt lat="43.32573" lon="-1.6868">
        <ele>188</ele>
        <time>2021-06-21T06:46:31.520Z</time>
      </trkpt>
      <trkpt lat="43.32569" lon="-1.68681">
        <ele>188</ele>
        <time>2021-06-21T06:46:32.528Z</time>
      </trkpt>
      <trkpt lat="43.32569" lon="-1.68681">
        <ele>188</ele>
        <time>2021-06-21T06:46:33.510Z</time>
      </trkpt>
      <trkpt lat="43.32564" lon="-1.68682">
        <ele>189</ele>
        <time>2021-06-21T06:46:34.516Z</time>
      </trkpt>
      <trkpt lat="43.32562" lon="-1.68683">
        <ele>189</ele>
        <time>2021-06-21T06:46:35.509Z</time>
      </trkpt>
      <trkpt lat="43.3256" lon="-1.68684">
        <ele>189</ele>
        <time>2021-06-21T06:46:36.541Z</time>
      </trkpt>
      <trkpt lat="43.3256" lon="-1.68684">
        <ele>189</ele>
        <time>2021-06-21T06:46:37.532Z</time>
      </trkpt>
      <trkpt lat="43.32556" lon="-1.68685">
        <ele>190</ele>
        <time>2021-06-21T06:46:38.541Z</time>
      </trkpt>
      <trkpt lat="43.32556" lon="-1.68685">
        <ele>190</ele>
        <time>2021-06-21T06:46:39.515Z</time>
      </trkpt>
      <trkpt lat="43.32553" lon="-1.68687">
        <ele>190</ele>
        <time>2021-06-21T06:46:40.525Z</time>
      </trkpt>
      <trkpt lat="43.32553" lon="-1.68687">
        <ele>190</ele>
        <time>2021-06-21T06:46:41.541Z</time>
      </trkpt>
      <trkpt lat="43.32549" lon="-1.68688">
        <ele>191</ele>
        <time>2021-06-21T06:46:42.564Z</time>
      </trkpt>
      <trkpt lat="43.32549" lon="-1.68688">
        <ele>191</ele>
        <time>2021-06-21T06:46:43.513Z</time>
      </trkpt>
      <trkpt lat="43.32545" lon="-1.68689">
        <ele>191</ele>
        <time>2021-06-21T06:46:44.532Z</time>
      </trkpt>
      <trkpt lat="43.32545" lon="-1.68689">
        <ele>191</ele>
        <time>2021-06-21T06:46:45.546Z</time>
      </trkpt>
      <trkpt lat="43.32542" lon="-1.68692">
        <ele>191</ele>
        <time>2021-06-21T06:46:46.514Z</time>
      </trkpt>
      <trkpt lat="43.3254" lon="-1.68692">
        <ele>192</ele>
        <time>2021-06-21T06:46:47.535Z</time>
      </trkpt>
      <trkpt lat="43.32538" lon="-1.68692">
        <ele>192</ele>
        <time>2021-06-21T06:46:48.512Z</time>
      </trkpt>
      <trkpt lat="43.32538" lon="-1.68692">
        <ele>192</ele>
        <time>2021-06-21T06:46:49.524Z</time>
      </trkpt>
      <trkpt lat="43.32534" lon="-1.68692">
        <ele>192</ele>
        <time>2021-06-21T06:46:50.530Z</time>
      </trkpt>
      <trkpt lat="43.32534" lon="-1.68692">
        <ele>192</ele>
        <time>2021-06-21T06:46:51.524Z</time>
      </trkpt>
      <trkpt lat="43.3253" lon="-1.68692">
        <ele>193</ele>
        <time>2021-06-21T06:46:52.546Z</time>
      </trkpt>
      <trkpt lat="43.3253" lon="-1.68692">
        <ele>193</ele>
        <time>2021-06-21T06:46:53.544Z</time>
      </trkpt>
      <trkpt lat="43.32527" lon="-1.68691">
        <ele>193</ele>
        <time>2021-06-21T06:46:54.509Z</time>
      </trkpt>
      <trkpt lat="43.32527" lon="-1.68691">
        <ele>193</ele>
        <time>2021-06-21T06:46:55.534Z</time>
      </trkpt>
      <trkpt lat="43.32523" lon="-1.68689">
        <ele>194</ele>
        <time>2021-06-21T06:46:56.547Z</time>
      </trkpt>
      <trkpt lat="43.32523" lon="-1.68689">
        <ele>194</ele>
        <time>2021-06-21T06:46:57.524Z</time>
      </trkpt>
      <trkpt lat="43.3252" lon="-1.68686">
        <ele>194</ele>
        <time>2021-06-21T06:46:58.530Z</time>
      </trkpt>
      <trkpt lat="43.3252" lon="-1.68686">
        <ele>194</ele>
        <time>2021-06-21T06:46:59.546Z</time>
      </trkpt>
      <trkpt lat="43.32517" lon="-1.68683">
        <ele>194</ele>
        <time>2021-06-21T06:47:00.595Z</time>
      </trkpt>
      <trkpt lat="43.32517" lon="-1.68683">
        <ele>194</ele>
        <time>2021-06-21T06:47:01.532Z</time>
      </trkpt>
      <trkpt lat="43.32514" lon="-1.6868">
        <ele>194</ele>
        <time>2021-06-21T06:47:02.544Z</time>
      </trkpt>
      <trkpt lat="43.32514" lon="-1.6868">
        <ele>194</ele>
        <time>2021-06-21T06:47:03.518Z</time>
      </trkpt>
      <trkpt lat="43.32512" lon="-1.68677">
        <ele>195</ele>
        <time>2021-06-21T06:47:04.532Z</time>
      </trkpt>
      <trkpt lat="43.32512" lon="-1.68677">
        <ele>195</ele>
        <time>2021-06-21T06:47:05.511Z</time>
      </trkpt>
      <trkpt lat="43.32508" lon="-1.68673">
        <ele>195</ele>
        <time>2021-06-21T06:47:06.546Z</time>
      </trkpt>
      <trkpt lat="43.32508" lon="-1.68673">
        <ele>195</ele>
        <time>2021-06-21T06:47:07.528Z</time>
      </trkpt>
      <trkpt lat="43.32506" lon="-1.68671">
        <ele>196</ele>
        <time>2021-06-21T06:47:08.542Z</time>
      </trkpt>
      <trkpt lat="43.32506" lon="-1.68671">
        <ele>196</ele>
        <time>2021-06-21T06:47:09.520Z</time>
      </trkpt>
      <trkpt lat="43.32503" lon="-1.68668">
        <ele>196</ele>
        <time>2021-06-21T06:47:10.531Z</time>
      </trkpt>
      <trkpt lat="43.32503" lon="-1.68668">
        <ele>196</ele>
        <time>2021-06-21T06:47:11.540Z</time>
      </trkpt>
      <trkpt lat="43.325" lon="-1.68666">
        <ele>197</ele>
        <time>2021-06-21T06:47:12.510Z</time>
      </trkpt>
      <trkpt lat="43.325" lon="-1.68666">
        <ele>197</ele>
        <time>2021-06-21T06:47:13.527Z</time>
      </trkpt>
      <trkpt lat="43.32496" lon="-1.68664">
        <ele>197</ele>
        <time>2021-06-21T06:47:14.543Z</time>
      </trkpt>
      <trkpt lat="43.32496" lon="-1.68664">
        <ele>197</ele>
        <time>2021-06-21T06:47:15.522Z</time>
      </trkpt>
      <trkpt lat="43.32492" lon="-1.68661">
        <ele>197</ele>
        <time>2021-06-21T06:47:16.530Z</time>
      </trkpt>
      <trkpt lat="43.32492" lon="-1.68661">
        <ele>197</ele>
        <time>2021-06-21T06:47:17.520Z</time>
      </trkpt>
      <trkpt lat="43.32489" lon="-1.68658">
        <ele>198</ele>
        <time>2021-06-21T06:47:18.529Z</time>
      </trkpt>
      <trkpt lat="43.32489" lon="-1.68658">
        <ele>198</ele>
        <time>2021-06-21T06:47:19.541Z</time>
      </trkpt>
      <trkpt lat="43.32486" lon="-1.68655">
        <ele>199</ele>
        <time>2021-06-21T06:47:20.547Z</time>
      </trkpt>
      <trkpt lat="43.32486" lon="-1.68655">
        <ele>199</ele>
        <time>2021-06-21T06:47:21.526Z</time>
      </trkpt>
      <trkpt lat="43.32483" lon="-1.68651">
        <ele>199</ele>
        <time>2021-06-21T06:47:22.548Z</time>
      </trkpt>
      <trkpt lat="43.32483" lon="-1.68651">
        <ele>199</ele>
        <time>2021-06-21T06:47:23.511Z</time>
      </trkpt>
      <trkpt lat="43.32479" lon="-1.68648">
        <ele>200</ele>
        <time>2021-06-21T06:47:24.521Z</time>
      </trkpt>
      <trkpt lat="43.32479" lon="-1.68648">
        <ele>200</ele>
        <time>2021-06-21T06:47:25.511Z</time>
      </trkpt>
      <trkpt lat="43.32476" lon="-1.68646">
        <ele>200</ele>
        <time>2021-06-21T06:47:26.523Z</time>
      </trkpt>
      <trkpt lat="43.32475" lon="-1.68644">
        <ele>201</ele>
        <time>2021-06-21T06:47:27.546Z</time>
      </trkpt>
      <trkpt lat="43.32475" lon="-1.68644">
        <ele>201</ele>
        <time>2021-06-21T06:47:28.521Z</time>
      </trkpt>
      <trkpt lat="43.32471" lon="-1.68643">
        <ele>201</ele>
        <time>2021-06-21T06:47:29.528Z</time>
      </trkpt>
      <trkpt lat="43.32469" lon="-1.68642">
        <ele>201</ele>
        <time>2021-06-21T06:47:30.543Z</time>
      </trkpt>
      <trkpt lat="43.32469" lon="-1.68642">
        <ele>201</ele>
        <time>2021-06-21T06:47:31.522Z</time>
      </trkpt>
      <trkpt lat="43.32466" lon="-1.68641">
        <ele>202</ele>
        <time>2021-06-21T06:47:32.529Z</time>
      </trkpt>
      <trkpt lat="43.32466" lon="-1.68641">
        <ele>202</ele>
        <time>2021-06-21T06:47:33.531Z</time>
      </trkpt>
      <trkpt lat="43.32463" lon="-1.6864">
        <ele>203</ele>
        <time>2021-06-21T06:47:34.547Z</time>
      </trkpt>
      <trkpt lat="43.32463" lon="-1.6864">
        <ele>203</ele>
        <time>2021-06-21T06:47:35.525Z</time>
      </trkpt>
      <trkpt lat="43.3246" lon="-1.68639">
        <ele>203</ele>
        <time>2021-06-21T06:47:36.570Z</time>
      </trkpt>
      <trkpt lat="43.3246" lon="-1.68639">
        <ele>203</ele>
        <time>2021-06-21T06:47:37.538Z</time>
      </trkpt>
      <trkpt lat="43.32457" lon="-1.68637">
        <ele>204</ele>
        <time>2021-06-21T06:47:38.546Z</time>
      </trkpt>
      <trkpt lat="43.32457" lon="-1.68637">
        <ele>204</ele>
        <time>2021-06-21T06:47:39.525Z</time>
      </trkpt>
      <trkpt lat="43.32453" lon="-1.68637">
        <ele>205</ele>
        <time>2021-06-21T06:47:40.539Z</time>
      </trkpt>
      <trkpt lat="43.32451" lon="-1.68636">
        <ele>205</ele>
        <time>2021-06-21T06:47:41.558Z</time>
      </trkpt>
      <trkpt lat="43.3245" lon="-1.68635">
        <ele>206</ele>
        <time>2021-06-21T06:47:42.511Z</time>
      </trkpt>
      <trkpt lat="43.3245" lon="-1.68635">
        <ele>206</ele>
        <time>2021-06-21T06:47:43.525Z</time>
      </trkpt>
      <trkpt lat="43.32446" lon="-1.68634">
        <ele>206</ele>
        <time>2021-06-21T06:47:44.531Z</time>
      </trkpt>
      <trkpt lat="43.32446" lon="-1.68634">
        <ele>206</ele>
        <time>2021-06-21T06:47:45.514Z</time>
      </trkpt>
      <trkpt lat="43.32442" lon="-1.68633">
        <ele>207</ele>
        <time>2021-06-21T06:47:46.558Z</time>
      </trkpt>
      <trkpt lat="43.32442" lon="-1.68633">
        <ele>207</ele>
        <time>2021-06-21T06:47:47.521Z</time>
      </trkpt>
      <trkpt lat="43.32438" lon="-1.68634">
        <ele>208</ele>
        <time>2021-06-21T06:47:48.534Z</time>
      </trkpt>
      <trkpt lat="43.32438" lon="-1.68634">
        <ele>208</ele>
        <time>2021-06-21T06:47:49.521Z</time>
      </trkpt>
      <trkpt lat="43.32435" lon="-1.68634">
        <ele>208</ele>
        <time>2021-06-21T06:47:50.512Z</time>
      </trkpt>
      <trkpt lat="43.32435" lon="-1.68634">
        <ele>208</ele>
        <time>2021-06-21T06:47:51.527Z</time>
      </trkpt>
      <trkpt lat="43.32431" lon="-1.68634">
        <ele>209</ele>
        <time>2021-06-21T06:47:52.539Z</time>
      </trkpt>
      <trkpt lat="43.32431" lon="-1.68634">
        <ele>209</ele>
        <time>2021-06-21T06:47:53.518Z</time>
      </trkpt>
      <trkpt lat="43.32427" lon="-1.68635">
        <ele>210</ele>
        <time>2021-06-21T06:47:54.533Z</time>
      </trkpt>
      <trkpt lat="43.32427" lon="-1.68635">
        <ele>210</ele>
        <time>2021-06-21T06:47:55.511Z</time>
      </trkpt>
      <trkpt lat="43.32423" lon="-1.68637">
        <ele>210</ele>
        <time>2021-06-21T06:47:56.518Z</time>
      </trkpt>
      <trkpt lat="43.32423" lon="-1.68637">
        <ele>210</ele>
        <time>2021-06-21T06:47:57.538Z</time>
      </trkpt>
      <trkpt lat="43.32419" lon="-1.68638">
        <ele>211</ele>
        <time>2021-06-21T06:47:58.546Z</time>
      </trkpt>
      <trkpt lat="43.32419" lon="-1.68638">
        <ele>211</ele>
        <time>2021-06-21T06:47:59.525Z</time>
      </trkpt>
      <trkpt lat="43.32415" lon="-1.68639">
        <ele>212</ele>
        <time>2021-06-21T06:48:00.537Z</time>
      </trkpt>
      <trkpt lat="43.32415" lon="-1.68639">
        <ele>212</ele>
        <time>2021-06-21T06:48:01.532Z</time>
      </trkpt>
      <trkpt lat="43.32412" lon="-1.68641">
        <ele>212</ele>
        <time>2021-06-21T06:48:02.540Z</time>
      </trkpt>
      <trkpt lat="43.32412" lon="-1.68641">
        <ele>212</ele>
        <time>2021-06-21T06:48:03.517Z</time>
      </trkpt>
      <trkpt lat="43.32408" lon="-1.68644">
        <ele>213</ele>
        <time>2021-06-21T06:48:04.527Z</time>
      </trkpt>
      <trkpt lat="43.32408" lon="-1.68644">
        <ele>213</ele>
        <time>2021-06-21T06:48:05.527Z</time>
      </trkpt>
      <trkpt lat="43.32405" lon="-1.68646">
        <ele>213</ele>
        <time>2021-06-21T06:48:06.540Z</time>
      </trkpt>
      <trkpt lat="43.32405" lon="-1.68646">
        <ele>213</ele>
        <time>2021-06-21T06:48:07.515Z</time>
      </trkpt>
      <trkpt lat="43.32402" lon="-1.68648">
        <ele>213</ele>
        <time>2021-06-21T06:48:08.524Z</time>
      </trkpt>
      <trkpt lat="43.32402" lon="-1.68648">
        <ele>213</ele>
        <time>2021-06-21T06:48:09.536Z</time>
      </trkpt>
      <trkpt lat="43.32402" lon="-1.68648">
        <ele>213</ele>
        <time>2021-06-21T06:48:10.564Z</time>
      </trkpt>
      <trkpt lat="43.32398" lon="-1.68651">
        <ele>214</ele>
        <time>2021-06-21T06:48:11.529Z</time>
      </trkpt>
      <trkpt lat="43.32396" lon="-1.68652">
        <ele>214</ele>
        <time>2021-06-21T06:48:12.515Z</time>
      </trkpt>
      <trkpt lat="43.32396" lon="-1.68652">
        <ele>214</ele>
        <time>2021-06-21T06:48:13.538Z</time>
      </trkpt>
      <trkpt lat="43.32392" lon="-1.68655">
        <ele>214</ele>
        <time>2021-06-21T06:48:14.550Z</time>
      </trkpt>
      <trkpt lat="43.32392" lon="-1.68655">
        <ele>214</ele>
        <time>2021-06-21T06:48:15.521Z</time>
      </trkpt>
      <trkpt lat="43.32389" lon="-1.68656">
        <ele>214</ele>
        <time>2021-06-21T06:48:16.527Z</time>
      </trkpt>
      <trkpt lat="43.32389" lon="-1.68656">
        <ele>214</ele>
        <time>2021-06-21T06:48:17.549Z</time>
      </trkpt>
      <trkpt lat="43.32386" lon="-1.68657">
        <ele>214</ele>
        <time>2021-06-21T06:48:18.517Z</time>
      </trkpt>
      <trkpt lat="43.32386" lon="-1.68657">
        <ele>214</ele>
        <time>2021-06-21T06:48:19.509Z</time>
      </trkpt>
      <trkpt lat="43.32382" lon="-1.68659">
        <ele>214</ele>
        <time>2021-06-21T06:48:20.517Z</time>
      </trkpt>
      <trkpt lat="43.32382" lon="-1.68659">
        <ele>214</ele>
        <time>2021-06-21T06:48:21.538Z</time>
      </trkpt>
      <trkpt lat="43.32379" lon="-1.6866">
        <ele>213</ele>
        <time>2021-06-21T06:48:22.517Z</time>
      </trkpt>
      <trkpt lat="43.32379" lon="-1.6866">
        <ele>213</ele>
        <time>2021-06-21T06:48:23.519Z</time>
      </trkpt>
      <trkpt lat="43.32376" lon="-1.68662">
        <ele>213</ele>
        <time>2021-06-21T06:48:24.530Z</time>
      </trkpt>
      <trkpt lat="43.32376" lon="-1.68662">
        <ele>213</ele>
        <time>2021-06-21T06:48:25.512Z</time>
      </trkpt>
      <trkpt lat="43.32372" lon="-1.68663">
        <ele>213</ele>
        <time>2021-06-21T06:48:26.518Z</time>
      </trkpt>
      <trkpt lat="43.32372" lon="-1.68663">
        <ele>213</ele>
        <time>2021-06-21T06:48:27.535Z</time>
      </trkpt>
      <trkpt lat="43.32368" lon="-1.68664">
        <ele>213</ele>
        <time>2021-06-21T06:48:28.543Z</time>
      </trkpt>
      <trkpt lat="43.32368" lon="-1.68664">
        <ele>213</ele>
        <time>2021-06-21T06:48:29.530Z</time>
      </trkpt>
      <trkpt lat="43.32365" lon="-1.68665">
        <ele>213</ele>
        <time>2021-06-21T06:48:30.557Z</time>
      </trkpt>
      <trkpt lat="43.32365" lon="-1.68665">
        <ele>213</ele>
        <time>2021-06-21T06:48:31.515Z</time>
      </trkpt>
      <trkpt lat="43.32362" lon="-1.68666">
        <ele>213</ele>
        <time>2021-06-21T06:48:32.526Z</time>
      </trkpt>
      <trkpt lat="43.32362" lon="-1.68666">
        <ele>213</ele>
        <time>2021-06-21T06:48:33.542Z</time>
      </trkpt>
      <trkpt lat="43.32358" lon="-1.68665">
        <ele>213</ele>
        <time>2021-06-21T06:48:34.510Z</time>
      </trkpt>
      <trkpt lat="43.32358" lon="-1.68665">
        <ele>213</ele>
        <time>2021-06-21T06:48:35.533Z</time>
      </trkpt>
      <trkpt lat="43.32355" lon="-1.68665">
        <ele>213</ele>
        <time>2021-06-21T06:48:36.519Z</time>
      </trkpt>
      <trkpt lat="43.32355" lon="-1.68665">
        <ele>213</ele>
        <time>2021-06-21T06:48:37.543Z</time>
      </trkpt>
      <trkpt lat="43.32351" lon="-1.68663">
        <ele>213</ele>
        <time>2021-06-21T06:48:38.556Z</time>
      </trkpt>
      <trkpt lat="43.32351" lon="-1.68663">
        <ele>213</ele>
        <time>2021-06-21T06:48:39.515Z</time>
      </trkpt>
      <trkpt lat="43.32348" lon="-1.68662">
        <ele>213</ele>
        <time>2021-06-21T06:48:40.523Z</time>
      </trkpt>
      <trkpt lat="43.32348" lon="-1.68662">
        <ele>213</ele>
        <time>2021-06-21T06:48:41.538Z</time>
      </trkpt>
      <trkpt lat="43.32345" lon="-1.68659">
        <ele>212</ele>
        <time>2021-06-21T06:48:42.510Z</time>
      </trkpt>
      <trkpt lat="43.32345" lon="-1.68659">
        <ele>212</ele>
        <time>2021-06-21T06:48:43.533Z</time>
      </trkpt>
      <trkpt lat="43.32342" lon="-1.68656">
        <ele>212</ele>
        <time>2021-06-21T06:48:44.553Z</time>
      </trkpt>
      <trkpt lat="43.32342" lon="-1.68656">
        <ele>212</ele>
        <time>2021-06-21T06:48:45.529Z</time>
      </trkpt>
      <trkpt lat="43.32339" lon="-1.68653">
        <ele>212</ele>
        <time>2021-06-21T06:48:46.536Z</time>
      </trkpt>
      <trkpt lat="43.32338" lon="-1.68651">
        <ele>213</ele>
        <time>2021-06-21T06:48:47.551Z</time>
      </trkpt>
      <trkpt lat="43.32338" lon="-1.68651">
        <ele>213</ele>
        <time>2021-06-21T06:48:48.534Z</time>
      </trkpt>
      <trkpt lat="43.32335" lon="-1.6865">
        <ele>212</ele>
        <time>2021-06-21T06:48:49.542Z</time>
      </trkpt>
      <trkpt lat="43.32335" lon="-1.6865">
        <ele>212</ele>
        <time>2021-06-21T06:48:50.516Z</time>
      </trkpt>
      <trkpt lat="43.32332" lon="-1.68648">
        <ele>212</ele>
        <time>2021-06-21T06:48:51.565Z</time>
      </trkpt>
      <trkpt lat="43.32332" lon="-1.68648">
        <ele>212</ele>
        <time>2021-06-21T06:48:52.537Z</time>
      </trkpt>
      <trkpt lat="43.32329" lon="-1.68646">
        <ele>213</ele>
        <time>2021-06-21T06:48:53.543Z</time>
      </trkpt>
      <trkpt lat="43.32328" lon="-1.68645">
        <ele>213</ele>
        <time>2021-06-21T06:48:54.548Z</time>
      </trkpt>
      <trkpt lat="43.32328" lon="-1.68645">
        <ele>213</ele>
        <time>2021-06-21T06:48:55.529Z</time>
      </trkpt>
      <trkpt lat="43.32324" lon="-1.68643">
        <ele>213</ele>
        <time>2021-06-21T06:48:56.542Z</time>
      </trkpt>
      <trkpt lat="43.32324" lon="-1.68643">
        <ele>213</ele>
        <time>2021-06-21T06:48:57.525Z</time>
      </trkpt>
      <trkpt lat="43.3232" lon="-1.68642">
        <ele>213</ele>
        <time>2021-06-21T06:48:58.532Z</time>
      </trkpt>
      <trkpt lat="43.32318" lon="-1.68642">
        <ele>213</ele>
        <time>2021-06-21T06:48:59.511Z</time>
      </trkpt>
      <trkpt lat="43.32317" lon="-1.68642">
        <ele>213</ele>
        <time>2021-06-21T06:49:00.533Z</time>
      </trkpt>
      <trkpt lat="43.32317" lon="-1.68642">
        <ele>213</ele>
        <time>2021-06-21T06:49:01.522Z</time>
      </trkpt>
      <trkpt lat="43.32313" lon="-1.68641">
        <ele>214</ele>
        <time>2021-06-21T06:49:02.533Z</time>
      </trkpt>
      <trkpt lat="43.32313" lon="-1.68641">
        <ele>214</ele>
        <time>2021-06-21T06:49:03.533Z</time>
      </trkpt>
      <trkpt lat="43.3231" lon="-1.6864">
        <ele>214</ele>
        <time>2021-06-21T06:49:04.542Z</time>
      </trkpt>
      <trkpt lat="43.3231" lon="-1.6864">
        <ele>214</ele>
        <time>2021-06-21T06:49:05.536Z</time>
      </trkpt>
      <trkpt lat="43.32307" lon="-1.68639">
        <ele>214</ele>
        <time>2021-06-21T06:49:06.557Z</time>
      </trkpt>
      <trkpt lat="43.32307" lon="-1.68639">
        <ele>214</ele>
        <time>2021-06-21T06:49:07.517Z</time>
      </trkpt>
      <trkpt lat="43.32303" lon="-1.68638">
        <ele>215</ele>
        <time>2021-06-21T06:49:08.525Z</time>
      </trkpt>
      <trkpt lat="43.32303" lon="-1.68638">
        <ele>215</ele>
        <time>2021-06-21T06:49:09.546Z</time>
      </trkpt>
      <trkpt lat="43.323" lon="-1.68638">
        <ele>215</ele>
        <time>2021-06-21T06:49:10.521Z</time>
      </trkpt>
      <trkpt lat="43.323" lon="-1.68638">
        <ele>215</ele>
        <time>2021-06-21T06:49:11.539Z</time>
      </trkpt>
      <trkpt lat="43.32297" lon="-1.68637">
        <ele>215</ele>
        <time>2021-06-21T06:49:12.551Z</time>
      </trkpt>
      <trkpt lat="43.32297" lon="-1.68637">
        <ele>215</ele>
        <time>2021-06-21T06:49:13.519Z</time>
      </trkpt>
      <trkpt lat="43.32294" lon="-1.68635">
        <ele>216</ele>
        <time>2021-06-21T06:49:14.533Z</time>
      </trkpt>
      <trkpt lat="43.32292" lon="-1.68634">
        <ele>216</ele>
        <time>2021-06-21T06:49:15.533Z</time>
      </trkpt>
      <trkpt lat="43.32292" lon="-1.68634">
        <ele>216</ele>
        <time>2021-06-21T06:49:16.512Z</time>
      </trkpt>
      <trkpt lat="43.32288" lon="-1.68633">
        <ele>216</ele>
        <time>2021-06-21T06:49:17.560Z</time>
      </trkpt>
      <trkpt lat="43.32286" lon="-1.68632">
        <ele>216</ele>
        <time>2021-06-21T06:49:18.572Z</time>
      </trkpt>
      <trkpt lat="43.32286" lon="-1.68632">
        <ele>216</ele>
        <time>2021-06-21T06:49:19.522Z</time>
      </trkpt>
      <trkpt lat="43.32283" lon="-1.68629">
        <ele>217</ele>
        <time>2021-06-21T06:49:20.530Z</time>
      </trkpt>
      <trkpt lat="43.32283" lon="-1.68629">
        <ele>217</ele>
        <time>2021-06-21T06:49:21.543Z</time>
      </trkpt>
      <trkpt lat="43.32279" lon="-1.68627">
        <ele>217</ele>
        <time>2021-06-21T06:49:22.520Z</time>
      </trkpt>
      <trkpt lat="43.32279" lon="-1.68627">
        <ele>217</ele>
        <time>2021-06-21T06:49:23.515Z</time>
      </trkpt>
      <trkpt lat="43.32276" lon="-1.68625">
        <ele>218</ele>
        <time>2021-06-21T06:49:24.521Z</time>
      </trkpt>
      <trkpt lat="43.32276" lon="-1.68625">
        <ele>218</ele>
        <time>2021-06-21T06:49:25.532Z</time>
      </trkpt>
      <trkpt lat="43.32272" lon="-1.68624">
        <ele>218</ele>
        <time>2021-06-21T06:49:26.539Z</time>
      </trkpt>
      <trkpt lat="43.32272" lon="-1.68624">
        <ele>218</ele>
        <time>2021-06-21T06:49:27.529Z</time>
      </trkpt>
      <trkpt lat="43.32269" lon="-1.68622">
        <ele>219</ele>
        <time>2021-06-21T06:49:28.539Z</time>
      </trkpt>
      <trkpt lat="43.32269" lon="-1.68622">
        <ele>219</ele>
        <time>2021-06-21T06:49:29.534Z</time>
      </trkpt>
      <trkpt lat="43.32266" lon="-1.68621">
        <ele>219</ele>
        <time>2021-06-21T06:49:30.541Z</time>
      </trkpt>
      <trkpt lat="43.32266" lon="-1.68621">
        <ele>219</ele>
        <time>2021-06-21T06:49:31.514Z</time>
      </trkpt>
      <trkpt lat="43.32262" lon="-1.68619">
        <ele>219</ele>
        <time>2021-06-21T06:49:32.553Z</time>
      </trkpt>
      <trkpt lat="43.32262" lon="-1.68619">
        <ele>219</ele>
        <time>2021-06-21T06:49:33.533Z</time>
      </trkpt>
      <trkpt lat="43.32259" lon="-1.68618">
        <ele>220</ele>
        <time>2021-06-21T06:49:34.541Z</time>
      </trkpt>
      <trkpt lat="43.32259" lon="-1.68618">
        <ele>220</ele>
        <time>2021-06-21T06:49:35.518Z</time>
      </trkpt>
      <trkpt lat="43.32256" lon="-1.68616">
        <ele>221</ele>
        <time>2021-06-21T06:49:36.534Z</time>
      </trkpt>
      <trkpt lat="43.32256" lon="-1.68616">
        <ele>221</ele>
        <time>2021-06-21T06:49:37.520Z</time>
      </trkpt>
      <trkpt lat="43.32252" lon="-1.68615">
        <ele>221</ele>
        <time>2021-06-21T06:49:38.572Z</time>
      </trkpt>
      <trkpt lat="43.32252" lon="-1.68615">
        <ele>221</ele>
        <time>2021-06-21T06:49:39.510Z</time>
      </trkpt>
      <trkpt lat="43.32249" lon="-1.68613">
        <ele>222</ele>
        <time>2021-06-21T06:49:40.516Z</time>
      </trkpt>
      <trkpt lat="43.32249" lon="-1.68613">
        <ele>222</ele>
        <time>2021-06-21T06:49:41.544Z</time>
      </trkpt>
      <trkpt lat="43.32247" lon="-1.68611">
        <ele>222</ele>
        <time>2021-06-21T06:49:42.512Z</time>
      </trkpt>
      <trkpt lat="43.32247" lon="-1.68611">
        <ele>222</ele>
        <time>2021-06-21T06:49:43.510Z</time>
      </trkpt>
      <trkpt lat="43.32243" lon="-1.68609">
        <ele>223</ele>
        <time>2021-06-21T06:49:44.516Z</time>
      </trkpt>
      <trkpt lat="43.32243" lon="-1.68609">
        <ele>223</ele>
        <time>2021-06-21T06:49:45.531Z</time>
      </trkpt>
      <trkpt lat="43.3224" lon="-1.68607">
        <ele>223</ele>
        <time>2021-06-21T06:49:46.539Z</time>
      </trkpt>
      <trkpt lat="43.32238" lon="-1.68606">
        <ele>224</ele>
        <time>2021-06-21T06:49:47.551Z</time>
      </trkpt>
      <trkpt lat="43.32237" lon="-1.68605">
        <ele>224</ele>
        <time>2021-06-21T06:49:48.540Z</time>
      </trkpt>
      <trkpt lat="43.32237" lon="-1.68605">
        <ele>224</ele>
        <time>2021-06-21T06:49:49.516Z</time>
      </trkpt>
      <trkpt lat="43.32233" lon="-1.68603">
        <ele>225</ele>
        <time>2021-06-21T06:49:50.531Z</time>
      </trkpt>
      <trkpt lat="43.32233" lon="-1.68603">
        <ele>225</ele>
        <time>2021-06-21T06:49:51.510Z</time>
      </trkpt>
      <trkpt lat="43.32229" lon="-1.68602">
        <ele>225</ele>
        <time>2021-06-21T06:49:52.518Z</time>
      </trkpt>
      <trkpt lat="43.32229" lon="-1.68602">
        <ele>225</ele>
        <time>2021-06-21T06:49:53.540Z</time>
      </trkpt>
      <trkpt lat="43.32225" lon="-1.68602">
        <ele>226</ele>
        <time>2021-06-21T06:49:54.511Z</time>
      </trkpt>
      <trkpt lat="43.32225" lon="-1.68602">
        <ele>226</ele>
        <time>2021-06-21T06:49:55.529Z</time>
      </trkpt>
      <trkpt lat="43.32221" lon="-1.68601">
        <ele>226</ele>
        <time>2021-06-21T06:49:56.550Z</time>
      </trkpt>
      <trkpt lat="43.32221" lon="-1.68601">
        <ele>226</ele>
        <time>2021-06-21T06:49:57.541Z</time>
      </trkpt>
      <trkpt lat="43.32217" lon="-1.68601">
        <ele>227</ele>
        <time>2021-06-21T06:49:58.510Z</time>
      </trkpt>
      <trkpt lat="43.32215" lon="-1.68601">
        <ele>227</ele>
        <time>2021-06-21T06:49:59.532Z</time>
      </trkpt>
      <trkpt lat="43.32213" lon="-1.686">
        <ele>227</ele>
        <time>2021-06-21T06:50:00.548Z</time>
      </trkpt>
      <trkpt lat="43.32213" lon="-1.686">
        <ele>227</ele>
        <time>2021-06-21T06:50:01.526Z</time>
      </trkpt>
      <trkpt lat="43.3221" lon="-1.686">
        <ele>227</ele>
        <time>2021-06-21T06:50:02.542Z</time>
      </trkpt>
      <trkpt lat="43.3221" lon="-1.686">
        <ele>227</ele>
        <time>2021-06-21T06:50:03.534Z</time>
      </trkpt>
      <trkpt lat="43.32206" lon="-1.68598">
        <ele>227</ele>
        <time>2021-06-21T06:50:04.560Z</time>
      </trkpt>
      <trkpt lat="43.32206" lon="-1.68598">
        <ele>227</ele>
        <time>2021-06-21T06:50:05.509Z</time>
      </trkpt>
      <trkpt lat="43.32202" lon="-1.68597">
        <ele>226</ele>
        <time>2021-06-21T06:50:06.515Z</time>
      </trkpt>
      <trkpt lat="43.32202" lon="-1.68597">
        <ele>226</ele>
        <time>2021-06-21T06:50:07.534Z</time>
      </trkpt>
      <trkpt lat="43.32198" lon="-1.68597">
        <ele>226</ele>
        <time>2021-06-21T06:50:08.546Z</time>
      </trkpt>
      <trkpt lat="43.32198" lon="-1.68597">
        <ele>226</ele>
        <time>2021-06-21T06:50:09.523Z</time>
      </trkpt>
      <trkpt lat="43.32194" lon="-1.68596">
        <ele>227</ele>
        <time>2021-06-21T06:50:10.533Z</time>
      </trkpt>
      <trkpt lat="43.32192" lon="-1.68595">
        <ele>227</ele>
        <time>2021-06-21T06:50:11.551Z</time>
      </trkpt>
      <trkpt lat="43.32192" lon="-1.68595">
        <ele>227</ele>
        <time>2021-06-21T06:50:12.529Z</time>
      </trkpt>
      <trkpt lat="43.32188" lon="-1.68595">
        <ele>227</ele>
        <time>2021-06-21T06:50:13.511Z</time>
      </trkpt>
      <trkpt lat="43.32188" lon="-1.68595">
        <ele>227</ele>
        <time>2021-06-21T06:50:14.527Z</time>
      </trkpt>
      <trkpt lat="43.32184" lon="-1.68595">
        <ele>227</ele>
        <time>2021-06-21T06:50:15.533Z</time>
      </trkpt>
      <trkpt lat="43.32184" lon="-1.68595">
        <ele>227</ele>
        <time>2021-06-21T06:50:16.516Z</time>
      </trkpt>
      <trkpt lat="43.32181" lon="-1.68595">
        <ele>228</ele>
        <time>2021-06-21T06:50:17.524Z</time>
      </trkpt>
      <trkpt lat="43.32179" lon="-1.68595">
        <ele>228</ele>
        <time>2021-06-21T06:50:18.545Z</time>
      </trkpt>
      <trkpt lat="43.32179" lon="-1.68595">
        <ele>228</ele>
        <time>2021-06-21T06:50:19.515Z</time>
      </trkpt>
      <trkpt lat="43.32174" lon="-1.68594">
        <ele>228</ele>
        <time>2021-06-21T06:50:20.521Z</time>
      </trkpt>
      <trkpt lat="43.32174" lon="-1.68594">
        <ele>228</ele>
        <time>2021-06-21T06:50:21.540Z</time>
      </trkpt>
      <trkpt lat="43.32171" lon="-1.68594">
        <ele>228</ele>
        <time>2021-06-21T06:50:22.517Z</time>
      </trkpt>
      <trkpt lat="43.32171" lon="-1.68594">
        <ele>228</ele>
        <time>2021-06-21T06:50:23.529Z</time>
      </trkpt>
      <trkpt lat="43.32167" lon="-1.68594">
        <ele>228</ele>
        <time>2021-06-21T06:50:24.539Z</time>
      </trkpt>
      <trkpt lat="43.32167" lon="-1.68594">
        <ele>228</ele>
        <time>2021-06-21T06:50:25.528Z</time>
      </trkpt>
      <trkpt lat="43.32164" lon="-1.68594">
        <ele>228</ele>
        <time>2021-06-21T06:50:26.534Z</time>
      </trkpt>
      <trkpt lat="43.32164" lon="-1.68594">
        <ele>228</ele>
        <time>2021-06-21T06:50:27.509Z</time>
      </trkpt>
      <trkpt lat="43.32161" lon="-1.68594">
        <ele>228</ele>
        <time>2021-06-21T06:50:28.515Z</time>
      </trkpt>
      <trkpt lat="43.32161" lon="-1.68594">
        <ele>228</ele>
        <time>2021-06-21T06:50:29.519Z</time>
      </trkpt>
      <trkpt lat="43.32158" lon="-1.68592">
        <ele>229</ele>
        <time>2021-06-21T06:50:30.531Z</time>
      </trkpt>
      <trkpt lat="43.32158" lon="-1.68592">
        <ele>229</ele>
        <time>2021-06-21T06:50:31.509Z</time>
      </trkpt>
      <trkpt lat="43.32154" lon="-1.68591">
        <ele>229</ele>
        <time>2021-06-21T06:50:32.516Z</time>
      </trkpt>
      <trkpt lat="43.32154" lon="-1.68591">
        <ele>229</ele>
        <time>2021-06-21T06:50:33.531Z</time>
      </trkpt>
      <trkpt lat="43.32151" lon="-1.68589">
        <ele>229</ele>
        <time>2021-06-21T06:50:34.538Z</time>
      </trkpt>
      <trkpt lat="43.32151" lon="-1.68589">
        <ele>229</ele>
        <time>2021-06-21T06:50:35.513Z</time>
      </trkpt>
      <trkpt lat="43.32147" lon="-1.68586">
        <ele>229</ele>
        <time>2021-06-21T06:50:36.521Z</time>
      </trkpt>
      <trkpt lat="43.32147" lon="-1.68586">
        <ele>229</ele>
        <time>2021-06-21T06:50:37.535Z</time>
      </trkpt>
      <trkpt lat="43.32144" lon="-1.68583">
        <ele>230</ele>
        <time>2021-06-21T06:50:38.542Z</time>
      </trkpt>
      <trkpt lat="43.32144" lon="-1.68583">
        <ele>230</ele>
        <time>2021-06-21T06:50:39.524Z</time>
      </trkpt>
      <trkpt lat="43.32141" lon="-1.68579">
        <ele>230</ele>
        <time>2021-06-21T06:50:40.538Z</time>
      </trkpt>
      <trkpt lat="43.32141" lon="-1.68579">
        <ele>230</ele>
        <time>2021-06-21T06:50:41.513Z</time>
      </trkpt>
      <trkpt lat="43.32139" lon="-1.68575">
        <ele>230</ele>
        <time>2021-06-21T06:50:42.520Z</time>
      </trkpt>
      <trkpt lat="43.32139" lon="-1.68575">
        <ele>230</ele>
        <time>2021-06-21T06:50:43.544Z</time>
      </trkpt>
      <trkpt lat="43.32137" lon="-1.68571">
        <ele>230</ele>
        <time>2021-06-21T06:50:44.524Z</time>
      </trkpt>
      <trkpt lat="43.32137" lon="-1.68571">
        <ele>230</ele>
        <time>2021-06-21T06:50:45.524Z</time>
      </trkpt>
      <trkpt lat="43.32135" lon="-1.68566">
        <ele>231</ele>
        <time>2021-06-21T06:50:46.530Z</time>
      </trkpt>
      <trkpt lat="43.32134" lon="-1.68564">
        <ele>231</ele>
        <time>2021-06-21T06:50:47.532Z</time>
      </trkpt>
      <trkpt lat="43.32134" lon="-1.68562">
        <ele>231</ele>
        <time>2021-06-21T06:50:48.518Z</time>
      </trkpt>
      <trkpt lat="43.32134" lon="-1.68562">
        <ele>231</ele>
        <time>2021-06-21T06:50:49.514Z</time>
      </trkpt>
      <trkpt lat="43.32133" lon="-1.68557">
        <ele>232</ele>
        <time>2021-06-21T06:50:50.523Z</time>
      </trkpt>
      <trkpt lat="43.32133" lon="-1.68555">
        <ele>232</ele>
        <time>2021-06-21T06:50:51.521Z</time>
      </trkpt>
      <trkpt lat="43.32133" lon="-1.68555">
        <ele>232</ele>
        <time>2021-06-21T06:50:52.543Z</time>
      </trkpt>
      <trkpt lat="43.32132" lon="-1.68549">
        <ele>232</ele>
        <time>2021-06-21T06:50:53.552Z</time>
      </trkpt>
      <trkpt lat="43.32132" lon="-1.68547">
        <ele>232</ele>
        <time>2021-06-21T06:50:54.517Z</time>
      </trkpt>
      <trkpt lat="43.32132" lon="-1.68547">
        <ele>232</ele>
        <time>2021-06-21T06:50:55.540Z</time>
      </trkpt>
      <trkpt lat="43.32132" lon="-1.68542">
        <ele>232</ele>
        <time>2021-06-21T06:50:56.546Z</time>
      </trkpt>
      <trkpt lat="43.32132" lon="-1.68542">
        <ele>232</ele>
        <time>2021-06-21T06:50:57.527Z</time>
      </trkpt>
      <trkpt lat="43.32131" lon="-1.68537">
        <ele>232</ele>
        <time>2021-06-21T06:50:58.535Z</time>
      </trkpt>
      <trkpt lat="43.32131" lon="-1.68537">
        <ele>232</ele>
        <time>2021-06-21T06:50:59.520Z</time>
      </trkpt>
      <trkpt lat="43.32132" lon="-1.68532">
        <ele>232</ele>
        <time>2021-06-21T06:51:00.526Z</time>
      </trkpt>
      <trkpt lat="43.32132" lon="-1.68532">
        <ele>232</ele>
        <time>2021-06-21T06:51:01.514Z</time>
      </trkpt>
      <trkpt lat="43.32132" lon="-1.68527">
        <ele>233</ele>
        <time>2021-06-21T06:51:02.520Z</time>
      </trkpt>
      <trkpt lat="43.32132" lon="-1.68527">
        <ele>233</ele>
        <time>2021-06-21T06:51:03.538Z</time>
      </trkpt>
      <trkpt lat="43.32131" lon="-1.68523">
        <ele>233</ele>
        <time>2021-06-21T06:51:04.547Z</time>
      </trkpt>
      <trkpt lat="43.32131" lon="-1.68523">
        <ele>233</ele>
        <time>2021-06-21T06:51:05.528Z</time>
      </trkpt>
      <trkpt lat="43.3213" lon="-1.68518">
        <ele>233</ele>
        <time>2021-06-21T06:51:06.535Z</time>
      </trkpt>
      <trkpt lat="43.3213" lon="-1.68518">
        <ele>233</ele>
        <time>2021-06-21T06:51:07.522Z</time>
      </trkpt>
      <trkpt lat="43.32128" lon="-1.68513">
        <ele>233</ele>
        <time>2021-06-21T06:51:08.529Z</time>
      </trkpt>
      <trkpt lat="43.32128" lon="-1.6851">
        <ele>233</ele>
        <time>2021-06-21T06:51:09.532Z</time>
      </trkpt>
      <trkpt lat="43.32128" lon="-1.6851">
        <ele>233</ele>
        <time>2021-06-21T06:51:10.547Z</time>
      </trkpt>
      <trkpt lat="43.32126" lon="-1.68505">
        <ele>233</ele>
        <time>2021-06-21T06:51:11.515Z</time>
      </trkpt>
      <trkpt lat="43.32124" lon="-1.68503">
        <ele>233</ele>
        <time>2021-06-21T06:51:12.510Z</time>
      </trkpt>
      <trkpt lat="43.32124" lon="-1.68503">
        <ele>233</ele>
        <time>2021-06-21T06:51:13.539Z</time>
      </trkpt>
      <trkpt lat="43.32121" lon="-1.68498">
        <ele>233</ele>
        <time>2021-06-21T06:51:14.546Z</time>
      </trkpt>
      <trkpt lat="43.32121" lon="-1.68498">
        <ele>233</ele>
        <time>2021-06-21T06:51:15.525Z</time>
      </trkpt>
      <trkpt lat="43.32118" lon="-1.68495">
        <ele>233</ele>
        <time>2021-06-21T06:51:16.558Z</time>
      </trkpt>
      <trkpt lat="43.32118" lon="-1.68495">
        <ele>233</ele>
        <time>2021-06-21T06:51:17.543Z</time>
      </trkpt>
      <trkpt lat="43.32115" lon="-1.68492">
        <ele>234</ele>
        <time>2021-06-21T06:51:18.521Z</time>
      </trkpt>
      <trkpt lat="43.32115" lon="-1.68492">
        <ele>234</ele>
        <time>2021-06-21T06:51:19.509Z</time>
      </trkpt>
      <trkpt lat="43.32113" lon="-1.68489">
        <ele>235</ele>
        <time>2021-06-21T06:51:20.517Z</time>
      </trkpt>
      <trkpt lat="43.32113" lon="-1.68489">
        <ele>235</ele>
        <time>2021-06-21T06:51:21.540Z</time>
      </trkpt>
      <trkpt lat="43.3211" lon="-1.68485">
        <ele>235</ele>
        <time>2021-06-21T06:51:22.517Z</time>
      </trkpt>
      <trkpt lat="43.3211" lon="-1.68485">
        <ele>235</ele>
        <time>2021-06-21T06:51:23.509Z</time>
      </trkpt>
      <trkpt lat="43.32107" lon="-1.68482">
        <ele>235</ele>
        <time>2021-06-21T06:51:24.516Z</time>
      </trkpt>
      <trkpt lat="43.32107" lon="-1.68482">
        <ele>235</ele>
        <time>2021-06-21T06:51:25.538Z</time>
      </trkpt>
      <trkpt lat="43.32104" lon="-1.68477">
        <ele>236</ele>
        <time>2021-06-21T06:51:26.561Z</time>
      </trkpt>
      <trkpt lat="43.32104" lon="-1.68477">
        <ele>236</ele>
        <time>2021-06-21T06:51:27.516Z</time>
      </trkpt>
      <trkpt lat="43.32102" lon="-1.68473">
        <ele>236</ele>
        <time>2021-06-21T06:51:28.521Z</time>
      </trkpt>
      <trkpt lat="43.32101" lon="-1.68471">
        <ele>236</ele>
        <time>2021-06-21T06:51:29.517Z</time>
      </trkpt>
      <trkpt lat="43.32101" lon="-1.68468">
        <ele>237</ele>
        <time>2021-06-21T06:51:30.531Z</time>
      </trkpt>
      <trkpt lat="43.32101" lon="-1.68468">
        <ele>237</ele>
        <time>2021-06-21T06:51:31.514Z</time>
      </trkpt>
      <trkpt lat="43.32099" lon="-1.68463">
        <ele>237</ele>
        <time>2021-06-21T06:51:32.521Z</time>
      </trkpt>
      <trkpt lat="43.32099" lon="-1.68463">
        <ele>237</ele>
        <time>2021-06-21T06:51:33.537Z</time>
      </trkpt>
      <trkpt lat="43.32098" lon="-1.68459">
        <ele>238</ele>
        <time>2021-06-21T06:51:34.543Z</time>
      </trkpt>
      <trkpt lat="43.32098" lon="-1.68459">
        <ele>238</ele>
        <time>2021-06-21T06:51:35.518Z</time>
      </trkpt>
      <trkpt lat="43.32097" lon="-1.68453">
        <ele>238</ele>
        <time>2021-06-21T06:51:36.558Z</time>
      </trkpt>
      <trkpt lat="43.32097" lon="-1.68453">
        <ele>238</ele>
        <time>2021-06-21T06:51:37.511Z</time>
      </trkpt>
      <trkpt lat="43.32095" lon="-1.68448">
        <ele>239</ele>
        <time>2021-06-21T06:51:38.517Z</time>
      </trkpt>
      <trkpt lat="43.32095" lon="-1.68448">
        <ele>239</ele>
        <time>2021-06-21T06:51:39.531Z</time>
      </trkpt>
      <trkpt lat="43.32093" lon="-1.68443">
        <ele>239</ele>
        <time>2021-06-21T06:51:40.539Z</time>
      </trkpt>
      <trkpt lat="43.32092" lon="-1.68441">
        <ele>239</ele>
        <time>2021-06-21T06:51:41.534Z</time>
      </trkpt>
      <trkpt lat="43.32091" lon="-1.68439">
        <ele>239</ele>
        <time>2021-06-21T06:51:42.521Z</time>
      </trkpt>
      <trkpt lat="43.32091" lon="-1.68439">
        <ele>239</ele>
        <time>2021-06-21T06:51:43.543Z</time>
      </trkpt>
      <trkpt lat="43.32087" lon="-1.68434">
        <ele>240</ele>
        <time>2021-06-21T06:51:44.509Z</time>
      </trkpt>
      <trkpt lat="43.32087" lon="-1.68434">
        <ele>240</ele>
        <time>2021-06-21T06:51:45.521Z</time>
      </trkpt>
      <trkpt lat="43.32083" lon="-1.68432">
        <ele>241</ele>
        <time>2021-06-21T06:51:46.591Z</time>
      </trkpt>
      <trkpt lat="43.32083" lon="-1.68432">
        <ele>241</ele>
        <time>2021-06-21T06:51:47.520Z</time>
      </trkpt>
      <trkpt lat="43.32079" lon="-1.68431">
        <ele>241</ele>
        <time>2021-06-21T06:51:48.527Z</time>
      </trkpt>
      <trkpt lat="43.32079" lon="-1.68431">
        <ele>241</ele>
        <time>2021-06-21T06:51:49.513Z</time>
      </trkpt>
      <trkpt lat="43.32075" lon="-1.68432">
        <ele>241</ele>
        <time>2021-06-21T06:51:50.518Z</time>
      </trkpt>
      <trkpt lat="43.32075" lon="-1.68432">
        <ele>241</ele>
        <time>2021-06-21T06:51:51.537Z</time>
      </trkpt>
      <trkpt lat="43.32071" lon="-1.68435">
        <ele>242</ele>
        <time>2021-06-21T06:51:52.540Z</time>
      </trkpt>
      <trkpt lat="43.32071" lon="-1.68435">
        <ele>242</ele>
        <time>2021-06-21T06:51:53.530Z</time>
      </trkpt>
      <trkpt lat="43.32067" lon="-1.68439">
        <ele>242</ele>
        <time>2021-06-21T06:51:54.537Z</time>
      </trkpt>
      <trkpt lat="43.32067" lon="-1.68439">
        <ele>242</ele>
        <time>2021-06-21T06:51:55.548Z</time>
      </trkpt>
      <trkpt lat="43.32063" lon="-1.68443">
        <ele>242</ele>
        <time>2021-06-21T06:51:56.514Z</time>
      </trkpt>
      <trkpt lat="43.32063" lon="-1.68443">
        <ele>242</ele>
        <time>2021-06-21T06:51:57.532Z</time>
      </trkpt>
      <trkpt lat="43.32061" lon="-1.68447">
        <ele>242</ele>
        <time>2021-06-21T06:51:58.540Z</time>
      </trkpt>
      <trkpt lat="43.32061" lon="-1.68447">
        <ele>242</ele>
        <time>2021-06-21T06:51:59.518Z</time>
      </trkpt>
      <trkpt lat="43.32059" lon="-1.68451">
        <ele>242</ele>
        <time>2021-06-21T06:52:00.526Z</time>
      </trkpt>
      <trkpt lat="43.32059" lon="-1.68451">
        <ele>242</ele>
        <time>2021-06-21T06:52:01.545Z</time>
      </trkpt>
      <trkpt lat="43.32057" lon="-1.68455">
        <ele>243</ele>
        <time>2021-06-21T06:52:02.540Z</time>
      </trkpt>
      <trkpt lat="43.32057" lon="-1.68455">
        <ele>243</ele>
        <time>2021-06-21T06:52:03.531Z</time>
      </trkpt>
      <trkpt lat="43.32055" lon="-1.6846">
        <ele>243</ele>
        <time>2021-06-21T06:52:04.538Z</time>
      </trkpt>
      <trkpt lat="43.32054" lon="-1.68463">
        <ele>243</ele>
        <time>2021-06-21T06:52:05.517Z</time>
      </trkpt>
      <trkpt lat="43.32054" lon="-1.68466">
        <ele>243</ele>
        <time>2021-06-21T06:52:06.542Z</time>
      </trkpt>
      <trkpt lat="43.32054" lon="-1.68466">
        <ele>243</ele>
        <time>2021-06-21T06:52:07.520Z</time>
      </trkpt>
      <trkpt lat="43.32052" lon="-1.68472">
        <ele>243</ele>
        <time>2021-06-21T06:52:08.531Z</time>
      </trkpt>
      <trkpt lat="43.32052" lon="-1.68472">
        <ele>243</ele>
        <time>2021-06-21T06:52:09.511Z</time>
      </trkpt>
      <trkpt lat="43.3205" lon="-1.68477">
        <ele>243</ele>
        <time>2021-06-21T06:52:10.517Z</time>
      </trkpt>
      <trkpt lat="43.3205" lon="-1.68477">
        <ele>243</ele>
        <time>2021-06-21T06:52:11.534Z</time>
      </trkpt>
      <trkpt lat="43.32048" lon="-1.68483">
        <ele>243</ele>
        <time>2021-06-21T06:52:12.568Z</time>
      </trkpt>
      <trkpt lat="43.32048" lon="-1.68483">
        <ele>243</ele>
        <time>2021-06-21T06:52:13.540Z</time>
      </trkpt>
      <trkpt lat="43.32046" lon="-1.68488">
        <ele>243</ele>
        <time>2021-06-21T06:52:14.548Z</time>
      </trkpt>
      <trkpt lat="43.32046" lon="-1.68488">
        <ele>243</ele>
        <time>2021-06-21T06:52:15.512Z</time>
      </trkpt>
      <trkpt lat="43.32044" lon="-1.68493">
        <ele>243</ele>
        <time>2021-06-21T06:52:16.518Z</time>
      </trkpt>
      <trkpt lat="43.32044" lon="-1.68493">
        <ele>243</ele>
        <time>2021-06-21T06:52:17.542Z</time>
      </trkpt>
      <trkpt lat="43.32041" lon="-1.68498">
        <ele>243</ele>
        <time>2021-06-21T06:52:18.571Z</time>
      </trkpt>
      <trkpt lat="43.32041" lon="-1.68498">
        <ele>243</ele>
        <time>2021-06-21T06:52:19.519Z</time>
      </trkpt>
      <trkpt lat="43.32039" lon="-1.68503">
        <ele>243</ele>
        <time>2021-06-21T06:52:20.535Z</time>
      </trkpt>
      <trkpt lat="43.32039" lon="-1.68503">
        <ele>243</ele>
        <time>2021-06-21T06:52:21.516Z</time>
      </trkpt>
      <trkpt lat="43.32036" lon="-1.68507">
        <ele>244</ele>
        <time>2021-06-21T06:52:22.538Z</time>
      </trkpt>
      <trkpt lat="43.32034" lon="-1.68509">
        <ele>243</ele>
        <time>2021-06-21T06:52:23.533Z</time>
      </trkpt>
      <trkpt lat="43.32033" lon="-1.6851">
        <ele>243</ele>
        <time>2021-06-21T06:52:24.549Z</time>
      </trkpt>
      <trkpt lat="43.32033" lon="-1.6851">
        <ele>243</ele>
        <time>2021-06-21T06:52:25.528Z</time>
      </trkpt>
      <trkpt lat="43.32029" lon="-1.68514">
        <ele>243</ele>
        <time>2021-06-21T06:52:26.537Z</time>
      </trkpt>
      <trkpt lat="43.32029" lon="-1.68514">
        <ele>243</ele>
        <time>2021-06-21T06:52:27.534Z</time>
      </trkpt>
      <trkpt lat="43.32025" lon="-1.68517">
        <ele>243</ele>
        <time>2021-06-21T06:52:28.544Z</time>
      </trkpt>
      <trkpt lat="43.32025" lon="-1.68517">
        <ele>243</ele>
        <time>2021-06-21T06:52:29.535Z</time>
      </trkpt>
      <trkpt lat="43.32021" lon="-1.68519">
        <ele>243</ele>
        <time>2021-06-21T06:52:30.541Z</time>
      </trkpt>
      <trkpt lat="43.32021" lon="-1.68519">
        <ele>243</ele>
        <time>2021-06-21T06:52:31.543Z</time>
      </trkpt>
      <trkpt lat="43.32016" lon="-1.68521">
        <ele>243</ele>
        <time>2021-06-21T06:52:32.556Z</time>
      </trkpt>
      <trkpt lat="43.32016" lon="-1.68521">
        <ele>243</ele>
        <time>2021-06-21T06:52:33.541Z</time>
      </trkpt>
      <trkpt lat="43.32012" lon="-1.68523">
        <ele>244</ele>
        <time>2021-06-21T06:52:34.547Z</time>
      </trkpt>
      <trkpt lat="43.32012" lon="-1.68523">
        <ele>244</ele>
        <time>2021-06-21T06:52:35.519Z</time>
      </trkpt>
      <trkpt lat="43.32008" lon="-1.68524">
        <ele>244</ele>
        <time>2021-06-21T06:52:36.525Z</time>
      </trkpt>
      <trkpt lat="43.32008" lon="-1.68524">
        <ele>244</ele>
        <time>2021-06-21T06:52:37.537Z</time>
      </trkpt>
      <trkpt lat="43.32004" lon="-1.68525">
        <ele>244</ele>
        <time>2021-06-21T06:52:38.562Z</time>
      </trkpt>
      <trkpt lat="43.32004" lon="-1.68525">
        <ele>244</ele>
        <time>2021-06-21T06:52:39.532Z</time>
      </trkpt>
      <trkpt lat="43.32" lon="-1.68524">
        <ele>244</ele>
        <time>2021-06-21T06:52:40.543Z</time>
      </trkpt>
      <trkpt lat="43.32" lon="-1.68524">
        <ele>244</ele>
        <time>2021-06-21T06:52:41.517Z</time>
      </trkpt>
      <trkpt lat="43.31996" lon="-1.68522">
        <ele>244</ele>
        <time>2021-06-21T06:52:42.523Z</time>
      </trkpt>
      <trkpt lat="43.31996" lon="-1.68522">
        <ele>244</ele>
        <time>2021-06-21T06:52:43.541Z</time>
      </trkpt>
      <trkpt lat="43.31992" lon="-1.68521">
        <ele>244</ele>
        <time>2021-06-21T06:52:44.537Z</time>
      </trkpt>
      <trkpt lat="43.31992" lon="-1.68521">
        <ele>244</ele>
        <time>2021-06-21T06:52:45.510Z</time>
      </trkpt>
      <trkpt lat="43.31989" lon="-1.6852">
        <ele>244</ele>
        <time>2021-06-21T06:52:46.516Z</time>
      </trkpt>
      <trkpt lat="43.31989" lon="-1.6852">
        <ele>244</ele>
        <time>2021-06-21T06:52:47.541Z</time>
      </trkpt>
      <trkpt lat="43.31985" lon="-1.6852">
        <ele>244</ele>
        <time>2021-06-21T06:52:48.558Z</time>
      </trkpt>
      <trkpt lat="43.31985" lon="-1.6852">
        <ele>244</ele>
        <time>2021-06-21T06:52:49.525Z</time>
      </trkpt>
      <trkpt lat="43.31981" lon="-1.6852">
        <ele>244</ele>
        <time>2021-06-21T06:52:50.541Z</time>
      </trkpt>
      <trkpt lat="43.31981" lon="-1.6852">
        <ele>244</ele>
        <time>2021-06-21T06:52:51.516Z</time>
      </trkpt>
      <trkpt lat="43.31977" lon="-1.68519">
        <ele>245</ele>
        <time>2021-06-21T06:52:52.521Z</time>
      </trkpt>
      <trkpt lat="43.31977" lon="-1.68519">
        <ele>245</ele>
        <time>2021-06-21T06:52:53.541Z</time>
      </trkpt>
      <trkpt lat="43.31974" lon="-1.68519">
        <ele>245</ele>
        <time>2021-06-21T06:52:54.547Z</time>
      </trkpt>
      <trkpt lat="43.31974" lon="-1.68519">
        <ele>245</ele>
        <time>2021-06-21T06:52:55.524Z</time>
      </trkpt>
      <trkpt lat="43.31974" lon="-1.68519">
        <ele>245</ele>
        <time>2021-06-21T06:52:56.513Z</time>
      </trkpt>
      <trkpt lat="43.3197" lon="-1.68518">
        <ele>245</ele>
        <time>2021-06-21T06:52:57.547Z</time>
      </trkpt>
      <trkpt lat="43.31966" lon="-1.68517">
        <ele>246</ele>
        <time>2021-06-21T06:52:58.517Z</time>
      </trkpt>
      <trkpt lat="43.31966" lon="-1.68517">
        <ele>246</ele>
        <time>2021-06-21T06:52:59.535Z</time>
      </trkpt>
      <trkpt lat="43.31962" lon="-1.68516">
        <ele>246</ele>
        <time>2021-06-21T06:53:00.548Z</time>
      </trkpt>
      <trkpt lat="43.31962" lon="-1.68516">
        <ele>246</ele>
        <time>2021-06-21T06:53:01.538Z</time>
      </trkpt>
      <trkpt lat="43.31958" lon="-1.68514">
        <ele>247</ele>
        <time>2021-06-21T06:53:02.544Z</time>
      </trkpt>
      <trkpt lat="43.31958" lon="-1.68514">
        <ele>247</ele>
        <time>2021-06-21T06:53:03.514Z</time>
      </trkpt>
      <trkpt lat="43.31955" lon="-1.68513">
        <ele>247</ele>
        <time>2021-06-21T06:53:04.567Z</time>
      </trkpt>
      <trkpt lat="43.31955" lon="-1.68513">
        <ele>247</ele>
        <time>2021-06-21T06:53:05.516Z</time>
      </trkpt>
      <trkpt lat="43.31951" lon="-1.68512">
        <ele>248</ele>
        <time>2021-06-21T06:53:06.523Z</time>
      </trkpt>
      <trkpt lat="43.31951" lon="-1.68512">
        <ele>248</ele>
        <time>2021-06-21T06:53:07.540Z</time>
      </trkpt>
      <trkpt lat="43.31948" lon="-1.68511">
        <ele>248</ele>
        <time>2021-06-21T06:53:08.546Z</time>
      </trkpt>
      <trkpt lat="43.31948" lon="-1.68511">
        <ele>248</ele>
        <time>2021-06-21T06:53:09.532Z</time>
      </trkpt>
      <trkpt lat="43.31944" lon="-1.6851">
        <ele>248</ele>
        <time>2021-06-21T06:53:10.551Z</time>
      </trkpt>
      <trkpt lat="43.31944" lon="-1.6851">
        <ele>248</ele>
        <time>2021-06-21T06:53:11.534Z</time>
      </trkpt>
      <trkpt lat="43.31944" lon="-1.6851">
        <ele>248</ele>
        <time>2021-06-21T06:53:12.511Z</time>
      </trkpt>
      <trkpt lat="43.3194" lon="-1.68509">
        <ele>249</ele>
        <time>2021-06-21T06:53:13.539Z</time>
      </trkpt>
      <trkpt lat="43.31936" lon="-1.68508">
        <ele>249</ele>
        <time>2021-06-21T06:53:14.509Z</time>
      </trkpt>
      <trkpt lat="43.31936" lon="-1.68508">
        <ele>249</ele>
        <time>2021-06-21T06:53:15.519Z</time>
      </trkpt>
      <trkpt lat="43.31933" lon="-1.68506">
        <ele>250</ele>
        <time>2021-06-21T06:53:16.534Z</time>
      </trkpt>
      <trkpt lat="43.31933" lon="-1.68506">
        <ele>250</ele>
        <time>2021-06-21T06:53:17.546Z</time>
      </trkpt>
      <trkpt lat="43.31929" lon="-1.68505">
        <ele>251</ele>
        <time>2021-06-21T06:53:18.522Z</time>
      </trkpt>
      <trkpt lat="43.31929" lon="-1.68505">
        <ele>251</ele>
        <time>2021-06-21T06:53:19.523Z</time>
      </trkpt>
      <trkpt lat="43.31925" lon="-1.68505">
        <ele>251</ele>
        <time>2021-06-21T06:53:20.538Z</time>
      </trkpt>
      <trkpt lat="43.31925" lon="-1.68505">
        <ele>251</ele>
        <time>2021-06-21T06:53:21.542Z</time>
      </trkpt>
      <trkpt lat="43.31921" lon="-1.68505">
        <ele>252</ele>
        <time>2021-06-21T06:53:22.526Z</time>
      </trkpt>
      <trkpt lat="43.31921" lon="-1.68505">
        <ele>252</ele>
        <time>2021-06-21T06:53:23.533Z</time>
      </trkpt>
      <trkpt lat="43.31917" lon="-1.68505">
        <ele>252</ele>
        <time>2021-06-21T06:53:24.541Z</time>
      </trkpt>
      <trkpt lat="43.31917" lon="-1.68505">
        <ele>252</ele>
        <time>2021-06-21T06:53:25.523Z</time>
      </trkpt>
      <trkpt lat="43.31914" lon="-1.68506">
        <ele>253</ele>
        <time>2021-06-21T06:53:26.533Z</time>
      </trkpt>
      <trkpt lat="43.31914" lon="-1.68506">
        <ele>253</ele>
        <time>2021-06-21T06:53:27.538Z</time>
      </trkpt>
      <trkpt lat="43.3191" lon="-1.68508">
        <ele>253</ele>
        <time>2021-06-21T06:53:28.552Z</time>
      </trkpt>
      <trkpt lat="43.3191" lon="-1.68508">
        <ele>253</ele>
        <time>2021-06-21T06:53:29.519Z</time>
      </trkpt>
      <trkpt lat="43.31906" lon="-1.68509">
        <ele>253</ele>
        <time>2021-06-21T06:53:30.525Z</time>
      </trkpt>
      <trkpt lat="43.31906" lon="-1.68509">
        <ele>253</ele>
        <time>2021-06-21T06:53:31.540Z</time>
      </trkpt>
      <trkpt lat="43.31902" lon="-1.68509">
        <ele>253</ele>
        <time>2021-06-21T06:53:32.512Z</time>
      </trkpt>
      <trkpt lat="43.31902" lon="-1.68509">
        <ele>253</ele>
        <time>2021-06-21T06:53:33.524Z</time>
      </trkpt>
      <trkpt lat="43.31898" lon="-1.68509">
        <ele>254</ele>
        <time>2021-06-21T06:53:34.561Z</time>
      </trkpt>
      <trkpt lat="43.31898" lon="-1.68509">
        <ele>254</ele>
        <time>2021-06-21T06:53:35.531Z</time>
      </trkpt>
      <trkpt lat="43.31895" lon="-1.68507">
        <ele>254</ele>
        <time>2021-06-21T06:53:36.544Z</time>
      </trkpt>
      <trkpt lat="43.31895" lon="-1.68507">
        <ele>254</ele>
        <time>2021-06-21T06:53:37.538Z</time>
      </trkpt>
      <trkpt lat="43.31892" lon="-1.68505">
        <ele>254</ele>
        <time>2021-06-21T06:53:38.558Z</time>
      </trkpt>
      <trkpt lat="43.31892" lon="-1.68505">
        <ele>254</ele>
        <time>2021-06-21T06:53:39.513Z</time>
      </trkpt>
      <trkpt lat="43.31888" lon="-1.68503">
        <ele>255</ele>
        <time>2021-06-21T06:53:40.518Z</time>
      </trkpt>
      <trkpt lat="43.31888" lon="-1.68503">
        <ele>255</ele>
        <time>2021-06-21T06:53:41.510Z</time>
      </trkpt>
      <trkpt lat="43.31884" lon="-1.68502">
        <ele>255</ele>
        <time>2021-06-21T06:53:42.518Z</time>
      </trkpt>
      <trkpt lat="43.31884" lon="-1.68502">
        <ele>255</ele>
        <time>2021-06-21T06:53:43.548Z</time>
      </trkpt>
      <trkpt lat="43.31879" lon="-1.68501">
        <ele>256</ele>
        <time>2021-06-21T06:53:44.514Z</time>
      </trkpt>
      <trkpt lat="43.31879" lon="-1.68501">
        <ele>256</ele>
        <time>2021-06-21T06:53:45.532Z</time>
      </trkpt>
      <trkpt lat="43.31876" lon="-1.68501">
        <ele>256</ele>
        <time>2021-06-21T06:53:46.567Z</time>
      </trkpt>
      <trkpt lat="43.31874" lon="-1.68501">
        <ele>257</ele>
        <time>2021-06-21T06:53:47.536Z</time>
      </trkpt>
      <trkpt lat="43.31874" lon="-1.68501">
        <ele>257</ele>
        <time>2021-06-21T06:53:48.523Z</time>
      </trkpt>
      <trkpt lat="43.3187" lon="-1.68501">
        <ele>257</ele>
        <time>2021-06-21T06:53:49.533Z</time>
      </trkpt>
      <trkpt lat="43.3187" lon="-1.68501">
        <ele>257</ele>
        <time>2021-06-21T06:53:50.533Z</time>
      </trkpt>
      <trkpt lat="43.31866" lon="-1.68502">
        <ele>257</ele>
        <time>2021-06-21T06:53:51.541Z</time>
      </trkpt>
      <trkpt lat="43.31865" lon="-1.68502">
        <ele>257</ele>
        <time>2021-06-21T06:53:52.541Z</time>
      </trkpt>
      <trkpt lat="43.31865" lon="-1.68502">
        <ele>257</ele>
        <time>2021-06-21T06:53:53.533Z</time>
      </trkpt>
      <trkpt lat="43.31861" lon="-1.68503">
        <ele>258</ele>
        <time>2021-06-21T06:53:54.517Z</time>
      </trkpt>
      <trkpt lat="43.31861" lon="-1.68503">
        <ele>258</ele>
        <time>2021-06-21T06:53:55.535Z</time>
      </trkpt>
      <trkpt lat="43.31857" lon="-1.68504">
        <ele>257</ele>
        <time>2021-06-21T06:53:56.541Z</time>
      </trkpt>
      <trkpt lat="43.31857" lon="-1.68504">
        <ele>257</ele>
        <time>2021-06-21T06:53:57.514Z</time>
      </trkpt>
      <trkpt lat="43.31853" lon="-1.68504">
        <ele>257</ele>
        <time>2021-06-21T06:53:58.521Z</time>
      </trkpt>
      <trkpt lat="43.31853" lon="-1.68504">
        <ele>257</ele>
        <time>2021-06-21T06:53:59.539Z</time>
      </trkpt>
      <trkpt lat="43.31848" lon="-1.68504">
        <ele>257</ele>
        <time>2021-06-21T06:54:00.546Z</time>
      </trkpt>
      <trkpt lat="43.31848" lon="-1.68504">
        <ele>257</ele>
        <time>2021-06-21T06:54:01.525Z</time>
      </trkpt>
      <trkpt lat="43.31844" lon="-1.68504">
        <ele>257</ele>
        <time>2021-06-21T06:54:02.531Z</time>
      </trkpt>
      <trkpt lat="43.31844" lon="-1.68504">
        <ele>257</ele>
        <time>2021-06-21T06:54:03.509Z</time>
      </trkpt>
      <trkpt lat="43.3184" lon="-1.68503">
        <ele>257</ele>
        <time>2021-06-21T06:54:04.517Z</time>
      </trkpt>
      <trkpt lat="43.3184" lon="-1.68503">
        <ele>257</ele>
        <time>2021-06-21T06:54:05.533Z</time>
      </trkpt>
      <trkpt lat="43.31836" lon="-1.68502">
        <ele>257</ele>
        <time>2021-06-21T06:54:06.526Z</time>
      </trkpt>
      <trkpt lat="43.31836" lon="-1.68502">
        <ele>257</ele>
        <time>2021-06-21T06:54:07.525Z</time>
      </trkpt>
      <trkpt lat="43.31832" lon="-1.68501">
        <ele>257</ele>
        <time>2021-06-21T06:54:08.533Z</time>
      </trkpt>
      <trkpt lat="43.31832" lon="-1.68501">
        <ele>257</ele>
        <time>2021-06-21T06:54:09.531Z</time>
      </trkpt>
      <trkpt lat="43.31828" lon="-1.68499">
        <ele>257</ele>
        <time>2021-06-21T06:54:10.536Z</time>
      </trkpt>
      <trkpt lat="43.31828" lon="-1.68499">
        <ele>257</ele>
        <time>2021-06-21T06:54:11.510Z</time>
      </trkpt>
      <trkpt lat="43.31825" lon="-1.68497">
        <ele>257</ele>
        <time>2021-06-21T06:54:12.517Z</time>
      </trkpt>
      <trkpt lat="43.31825" lon="-1.68497">
        <ele>257</ele>
        <time>2021-06-21T06:54:13.548Z</time>
      </trkpt>
      <trkpt lat="43.31821" lon="-1.68496">
        <ele>257</ele>
        <time>2021-06-21T06:54:14.518Z</time>
      </trkpt>
      <trkpt lat="43.31818" lon="-1.68496">
        <ele>257</ele>
        <time>2021-06-21T06:54:15.538Z</time>
      </trkpt>
      <trkpt lat="43.31818" lon="-1.68496">
        <ele>257</ele>
        <time>2021-06-21T06:54:16.531Z</time>
      </trkpt>
      <trkpt lat="43.31814" lon="-1.68496">
        <ele>257</ele>
        <time>2021-06-21T06:54:17.538Z</time>
      </trkpt>
      <trkpt lat="43.31812" lon="-1.68496">
        <ele>257</ele>
        <time>2021-06-21T06:54:18.514Z</time>
      </trkpt>
      <trkpt lat="43.31812" lon="-1.68496">
        <ele>257</ele>
        <time>2021-06-21T06:54:19.559Z</time>
      </trkpt>
      <trkpt lat="43.31808" lon="-1.68497">
        <ele>257</ele>
        <time>2021-06-21T06:54:20.519Z</time>
      </trkpt>
      <trkpt lat="43.31808" lon="-1.68497">
        <ele>257</ele>
        <time>2021-06-21T06:54:21.533Z</time>
      </trkpt>
      <trkpt lat="43.31804" lon="-1.68498">
        <ele>257</ele>
        <time>2021-06-21T06:54:22.513Z</time>
      </trkpt>
      <trkpt lat="43.31802" lon="-1.68499">
        <ele>257</ele>
        <time>2021-06-21T06:54:23.544Z</time>
      </trkpt>
      <trkpt lat="43.31802" lon="-1.68499">
        <ele>257</ele>
        <time>2021-06-21T06:54:24.512Z</time>
      </trkpt>
      <trkpt lat="43.318" lon="-1.685">
        <ele>257</ele>
        <time>2021-06-21T06:54:25.531Z</time>
      </trkpt>
      <trkpt lat="43.31796" lon="-1.68501">
        <ele>257</ele>
        <time>2021-06-21T06:54:26.550Z</time>
      </trkpt>
      <trkpt lat="43.31796" lon="-1.68501">
        <ele>257</ele>
        <time>2021-06-21T06:54:27.531Z</time>
      </trkpt>
      <trkpt lat="43.31792" lon="-1.68503">
        <ele>257</ele>
        <time>2021-06-21T06:54:28.541Z</time>
      </trkpt>
      <trkpt lat="43.31792" lon="-1.68503">
        <ele>257</ele>
        <time>2021-06-21T06:54:29.533Z</time>
      </trkpt>
      <trkpt lat="43.31787" lon="-1.68504">
        <ele>257</ele>
        <time>2021-06-21T06:54:30.509Z</time>
      </trkpt>
      <trkpt lat="43.31787" lon="-1.68504">
        <ele>257</ele>
        <time>2021-06-21T06:54:31.539Z</time>
      </trkpt>
      <trkpt lat="43.31782" lon="-1.68506">
        <ele>257</ele>
        <time>2021-06-21T06:54:32.548Z</time>
      </trkpt>
      <trkpt lat="43.31782" lon="-1.68506">
        <ele>257</ele>
        <time>2021-06-21T06:54:33.524Z</time>
      </trkpt>
      <trkpt lat="43.31778" lon="-1.68506">
        <ele>257</ele>
        <time>2021-06-21T06:54:34.562Z</time>
      </trkpt>
      <trkpt lat="43.31778" lon="-1.68506">
        <ele>257</ele>
        <time>2021-06-21T06:54:35.532Z</time>
      </trkpt>
      <trkpt lat="43.31775" lon="-1.68507">
        <ele>258</ele>
        <time>2021-06-21T06:54:36.539Z</time>
      </trkpt>
      <trkpt lat="43.31775" lon="-1.68507">
        <ele>258</ele>
        <time>2021-06-21T06:54:37.509Z</time>
      </trkpt>
      <trkpt lat="43.31771" lon="-1.68507">
        <ele>258</ele>
        <time>2021-06-21T06:54:38.541Z</time>
      </trkpt>
      <trkpt lat="43.31771" lon="-1.68507">
        <ele>258</ele>
        <time>2021-06-21T06:54:39.534Z</time>
      </trkpt>
      <trkpt lat="43.31767" lon="-1.68507">
        <ele>259</ele>
        <time>2021-06-21T06:54:40.542Z</time>
      </trkpt>
      <trkpt lat="43.31767" lon="-1.68507">
        <ele>259</ele>
        <time>2021-06-21T06:54:41.522Z</time>
      </trkpt>
      <trkpt lat="43.31763" lon="-1.68507">
        <ele>259</ele>
        <time>2021-06-21T06:54:42.534Z</time>
      </trkpt>
      <trkpt lat="43.31763" lon="-1.68507">
        <ele>259</ele>
        <time>2021-06-21T06:54:43.527Z</time>
      </trkpt>
      <trkpt lat="43.31759" lon="-1.68507">
        <ele>260</ele>
        <time>2021-06-21T06:54:44.540Z</time>
      </trkpt>
      <trkpt lat="43.31759" lon="-1.68507">
        <ele>260</ele>
        <time>2021-06-21T06:54:45.533Z</time>
      </trkpt>
      <trkpt lat="43.31755" lon="-1.68506">
        <ele>260</ele>
        <time>2021-06-21T06:54:46.539Z</time>
      </trkpt>
      <trkpt lat="43.31753" lon="-1.68506">
        <ele>260</ele>
        <time>2021-06-21T06:54:47.540Z</time>
      </trkpt>
      <trkpt lat="43.31751" lon="-1.68506">
        <ele>260</ele>
        <time>2021-06-21T06:54:48.531Z</time>
      </trkpt>
      <trkpt lat="43.31751" lon="-1.68506">
        <ele>260</ele>
        <time>2021-06-21T06:54:49.515Z</time>
      </trkpt>
      <trkpt lat="43.31748" lon="-1.68505">
        <ele>260</ele>
        <time>2021-06-21T06:54:50.526Z</time>
      </trkpt>
      <trkpt lat="43.31748" lon="-1.68505">
        <ele>260</ele>
        <time>2021-06-21T06:54:51.541Z</time>
      </trkpt>
      <trkpt lat="43.31744" lon="-1.68503">
        <ele>261</ele>
        <time>2021-06-21T06:54:52.515Z</time>
      </trkpt>
      <trkpt lat="43.31744" lon="-1.68503">
        <ele>261</ele>
        <time>2021-06-21T06:54:53.542Z</time>
      </trkpt>
      <trkpt lat="43.31739" lon="-1.68501">
        <ele>261</ele>
        <time>2021-06-21T06:54:54.522Z</time>
      </trkpt>
      <trkpt lat="43.31739" lon="-1.68501">
        <ele>261</ele>
        <time>2021-06-21T06:54:55.537Z</time>
      </trkpt>
      <trkpt lat="43.31735" lon="-1.68498">
        <ele>262</ele>
        <time>2021-06-21T06:54:56.546Z</time>
      </trkpt>
      <trkpt lat="43.31732" lon="-1.68499">
        <ele>262</ele>
        <time>2021-06-21T06:54:57.539Z</time>
      </trkpt>
      <trkpt lat="43.31732" lon="-1.68499">
        <ele>262</ele>
        <time>2021-06-21T06:54:58.531Z</time>
      </trkpt>
      <trkpt lat="43.31727" lon="-1.68499">
        <ele>262</ele>
        <time>2021-06-21T06:54:59.538Z</time>
      </trkpt>
      <trkpt lat="43.31726" lon="-1.68498">
        <ele>263</ele>
        <time>2021-06-21T06:55:00.521Z</time>
      </trkpt>
      <trkpt lat="43.31726" lon="-1.68498">
        <ele>263</ele>
        <time>2021-06-21T06:55:01.546Z</time>
      </trkpt>
      <trkpt lat="43.31722" lon="-1.68499">
        <ele>263</ele>
        <time>2021-06-21T06:55:02.512Z</time>
      </trkpt>
      <trkpt lat="43.31722" lon="-1.68499">
        <ele>263</ele>
        <time>2021-06-21T06:55:03.535Z</time>
      </trkpt>
      <trkpt lat="43.31719" lon="-1.68502">
        <ele>264</ele>
        <time>2021-06-21T06:55:04.543Z</time>
      </trkpt>
      <trkpt lat="43.31719" lon="-1.68502">
        <ele>264</ele>
        <time>2021-06-21T06:55:05.517Z</time>
      </trkpt>
      <trkpt lat="43.31715" lon="-1.68506">
        <ele>265</ele>
        <time>2021-06-21T06:55:06.525Z</time>
      </trkpt>
      <trkpt lat="43.31715" lon="-1.68506">
        <ele>265</ele>
        <time>2021-06-21T06:55:07.523Z</time>
      </trkpt>
      <trkpt lat="43.31712" lon="-1.68511">
        <ele>266</ele>
        <time>2021-06-21T06:55:08.539Z</time>
      </trkpt>
      <trkpt lat="43.31712" lon="-1.68511">
        <ele>266</ele>
        <time>2021-06-21T06:55:09.518Z</time>
      </trkpt>
      <trkpt lat="43.31708" lon="-1.68514">
        <ele>267</ele>
        <time>2021-06-21T06:55:10.539Z</time>
      </trkpt>
      <trkpt lat="43.31706" lon="-1.68515">
        <ele>267</ele>
        <time>2021-06-21T06:55:11.518Z</time>
      </trkpt>
      <trkpt lat="43.31704" lon="-1.68516">
        <ele>267</ele>
        <time>2021-06-21T06:55:12.519Z</time>
      </trkpt>
      <trkpt lat="43.31704" lon="-1.68516">
        <ele>267</ele>
        <time>2021-06-21T06:55:13.537Z</time>
      </trkpt>
      <trkpt lat="43.317" lon="-1.68518">
        <ele>267</ele>
        <time>2021-06-21T06:55:14.545Z</time>
      </trkpt>
      <trkpt lat="43.317" lon="-1.68518">
        <ele>267</ele>
        <time>2021-06-21T06:55:15.516Z</time>
      </trkpt>
      <trkpt lat="43.31696" lon="-1.68519">
        <ele>267</ele>
        <time>2021-06-21T06:55:16.555Z</time>
      </trkpt>
      <trkpt lat="43.31696" lon="-1.68519">
        <ele>267</ele>
        <time>2021-06-21T06:55:17.541Z</time>
      </trkpt>
      <trkpt lat="43.31693" lon="-1.6852">
        <ele>268</ele>
        <time>2021-06-21T06:55:18.509Z</time>
      </trkpt>
      <trkpt lat="43.31693" lon="-1.6852">
        <ele>268</ele>
        <time>2021-06-21T06:55:19.537Z</time>
      </trkpt>
      <trkpt lat="43.31689" lon="-1.68521">
        <ele>268</ele>
        <time>2021-06-21T06:55:20.512Z</time>
      </trkpt>
      <trkpt lat="43.31689" lon="-1.68521">
        <ele>268</ele>
        <time>2021-06-21T06:55:21.544Z</time>
      </trkpt>
      <trkpt lat="43.31685" lon="-1.68522">
        <ele>269</ele>
        <time>2021-06-21T06:55:22.521Z</time>
      </trkpt>
      <trkpt lat="43.31685" lon="-1.68522">
        <ele>269</ele>
        <time>2021-06-21T06:55:23.526Z</time>
      </trkpt>
      <trkpt lat="43.31681" lon="-1.68522">
        <ele>269</ele>
        <time>2021-06-21T06:55:24.532Z</time>
      </trkpt>
      <trkpt lat="43.31681" lon="-1.68522">
        <ele>269</ele>
        <time>2021-06-21T06:55:25.532Z</time>
      </trkpt>
      <trkpt lat="43.31677" lon="-1.68522">
        <ele>269</ele>
        <time>2021-06-21T06:55:26.510Z</time>
      </trkpt>
      <trkpt lat="43.31677" lon="-1.68522">
        <ele>269</ele>
        <time>2021-06-21T06:55:27.545Z</time>
      </trkpt>
      <trkpt lat="43.31673" lon="-1.68523">
        <ele>270</ele>
        <time>2021-06-21T06:55:28.511Z</time>
      </trkpt>
      <trkpt lat="43.31673" lon="-1.68523">
        <ele>270</ele>
        <time>2021-06-21T06:55:29.532Z</time>
      </trkpt>
      <trkpt lat="43.31669" lon="-1.68524">
        <ele>270</ele>
        <time>2021-06-21T06:55:30.540Z</time>
      </trkpt>
      <trkpt lat="43.31669" lon="-1.68524">
        <ele>270</ele>
        <time>2021-06-21T06:55:31.534Z</time>
      </trkpt>
      <trkpt lat="43.31665" lon="-1.68524">
        <ele>270</ele>
        <time>2021-06-21T06:55:32.540Z</time>
      </trkpt>
      <trkpt lat="43.31665" lon="-1.68524">
        <ele>270</ele>
        <time>2021-06-21T06:55:33.531Z</time>
      </trkpt>
      <trkpt lat="43.31661" lon="-1.68525">
        <ele>270</ele>
        <time>2021-06-21T06:55:34.549Z</time>
      </trkpt>
      <trkpt lat="43.31661" lon="-1.68525">
        <ele>270</ele>
        <time>2021-06-21T06:55:35.528Z</time>
      </trkpt>
      <trkpt lat="43.31657" lon="-1.68525">
        <ele>270</ele>
        <time>2021-06-21T06:55:36.545Z</time>
      </trkpt>
      <trkpt lat="43.31657" lon="-1.68525">
        <ele>270</ele>
        <time>2021-06-21T06:55:37.523Z</time>
      </trkpt>
      <trkpt lat="43.31653" lon="-1.68524">
        <ele>270</ele>
        <time>2021-06-21T06:55:38.534Z</time>
      </trkpt>
      <trkpt lat="43.31653" lon="-1.68524">
        <ele>270</ele>
        <time>2021-06-21T06:55:39.544Z</time>
      </trkpt>
      <trkpt lat="43.31648" lon="-1.68524">
        <ele>270</ele>
        <time>2021-06-21T06:55:40.510Z</time>
      </trkpt>
      <trkpt lat="43.31648" lon="-1.68524">
        <ele>270</ele>
        <time>2021-06-21T06:55:41.538Z</time>
      </trkpt>
      <trkpt lat="43.31644" lon="-1.68523">
        <ele>270</ele>
        <time>2021-06-21T06:55:42.547Z</time>
      </trkpt>
      <trkpt lat="43.31644" lon="-1.68523">
        <ele>270</ele>
        <time>2021-06-21T06:55:43.511Z</time>
      </trkpt>
      <trkpt lat="43.3164" lon="-1.68522">
        <ele>270</ele>
        <time>2021-06-21T06:55:44.562Z</time>
      </trkpt>
      <trkpt lat="43.3164" lon="-1.68522">
        <ele>270</ele>
        <time>2021-06-21T06:55:45.514Z</time>
      </trkpt>
      <trkpt lat="43.31635" lon="-1.68521">
        <ele>270</ele>
        <time>2021-06-21T06:55:46.520Z</time>
      </trkpt>
      <trkpt lat="43.31633" lon="-1.68521">
        <ele>270</ele>
        <time>2021-06-21T06:55:47.538Z</time>
      </trkpt>
      <trkpt lat="43.31631" lon="-1.6852">
        <ele>270</ele>
        <time>2021-06-21T06:55:48.517Z</time>
      </trkpt>
      <trkpt lat="43.31631" lon="-1.6852">
        <ele>270</ele>
        <time>2021-06-21T06:55:49.537Z</time>
      </trkpt>
      <trkpt lat="43.31627" lon="-1.68519">
        <ele>270</ele>
        <time>2021-06-21T06:55:50.543Z</time>
      </trkpt>
      <trkpt lat="43.31627" lon="-1.68519">
        <ele>270</ele>
        <time>2021-06-21T06:55:51.538Z</time>
      </trkpt>
      <trkpt lat="43.31623" lon="-1.68517">
        <ele>271</ele>
        <time>2021-06-21T06:55:52.545Z</time>
      </trkpt>
      <trkpt lat="43.31623" lon="-1.68517">
        <ele>271</ele>
        <time>2021-06-21T06:55:53.518Z</time>
      </trkpt>
      <trkpt lat="43.31619" lon="-1.68516">
        <ele>270</ele>
        <time>2021-06-21T06:55:54.525Z</time>
      </trkpt>
      <trkpt lat="43.31619" lon="-1.68516">
        <ele>270</ele>
        <time>2021-06-21T06:55:55.540Z</time>
      </trkpt>
      <trkpt lat="43.31615" lon="-1.68514">
        <ele>270</ele>
        <time>2021-06-21T06:55:56.531Z</time>
      </trkpt>
      <trkpt lat="43.31615" lon="-1.68514">
        <ele>270</ele>
        <time>2021-06-21T06:55:57.533Z</time>
      </trkpt>
      <trkpt lat="43.31611" lon="-1.68512">
        <ele>271</ele>
        <time>2021-06-21T06:55:58.539Z</time>
      </trkpt>
      <trkpt lat="43.31611" lon="-1.68512">
        <ele>271</ele>
        <time>2021-06-21T06:55:59.513Z</time>
      </trkpt>
      <trkpt lat="43.31607" lon="-1.68511">
        <ele>271</ele>
        <time>2021-06-21T06:56:00.521Z</time>
      </trkpt>
      <trkpt lat="43.31607" lon="-1.68511">
        <ele>271</ele>
        <time>2021-06-21T06:56:01.536Z</time>
      </trkpt>
      <trkpt lat="43.31603" lon="-1.68512">
        <ele>271</ele>
        <time>2021-06-21T06:56:02.543Z</time>
      </trkpt>
      <trkpt lat="43.31603" lon="-1.68512">
        <ele>271</ele>
        <time>2021-06-21T06:56:03.518Z</time>
      </trkpt>
      <trkpt lat="43.31599" lon="-1.68511">
        <ele>271</ele>
        <time>2021-06-21T06:56:04.525Z</time>
      </trkpt>
      <trkpt lat="43.31596" lon="-1.68511">
        <ele>271</ele>
        <time>2021-06-21T06:56:05.514Z</time>
      </trkpt>
      <trkpt lat="43.31594" lon="-1.6851">
        <ele>271</ele>
        <time>2021-06-21T06:56:06.549Z</time>
      </trkpt>
      <trkpt lat="43.31594" lon="-1.6851">
        <ele>271</ele>
        <time>2021-06-21T06:56:07.534Z</time>
      </trkpt>
      <trkpt lat="43.3159" lon="-1.68508">
        <ele>271</ele>
        <time>2021-06-21T06:56:08.545Z</time>
      </trkpt>
      <trkpt lat="43.3159" lon="-1.68508">
        <ele>271</ele>
        <time>2021-06-21T06:56:09.521Z</time>
      </trkpt>
      <trkpt lat="43.31587" lon="-1.68505">
        <ele>272</ele>
        <time>2021-06-21T06:56:10.527Z</time>
      </trkpt>
      <trkpt lat="43.31587" lon="-1.68505">
        <ele>272</ele>
        <time>2021-06-21T06:56:11.540Z</time>
      </trkpt>
      <trkpt lat="43.31583" lon="-1.68503">
        <ele>273</ele>
        <time>2021-06-21T06:56:12.509Z</time>
      </trkpt>
      <trkpt lat="43.31583" lon="-1.68503">
        <ele>273</ele>
        <time>2021-06-21T06:56:13.522Z</time>
      </trkpt>
      <trkpt lat="43.31578" lon="-1.68503">
        <ele>273</ele>
        <time>2021-06-21T06:56:14.533Z</time>
      </trkpt>
      <trkpt lat="43.31578" lon="-1.68503">
        <ele>273</ele>
        <time>2021-06-21T06:56:15.548Z</time>
      </trkpt>
      <trkpt lat="43.31574" lon="-1.68504">
        <ele>274</ele>
        <time>2021-06-21T06:56:16.513Z</time>
      </trkpt>
      <trkpt lat="43.31574" lon="-1.68504">
        <ele>274</ele>
        <time>2021-06-21T06:56:17.544Z</time>
      </trkpt>
      <trkpt lat="43.3157" lon="-1.68506">
        <ele>275</ele>
        <time>2021-06-21T06:56:18.578Z</time>
      </trkpt>
      <trkpt lat="43.3157" lon="-1.68506">
        <ele>275</ele>
        <time>2021-06-21T06:56:19.525Z</time>
      </trkpt>
      <trkpt lat="43.31566" lon="-1.68509">
        <ele>275</ele>
        <time>2021-06-21T06:56:20.539Z</time>
      </trkpt>
      <trkpt lat="43.31566" lon="-1.68509">
        <ele>275</ele>
        <time>2021-06-21T06:56:21.533Z</time>
      </trkpt>
      <trkpt lat="43.31562" lon="-1.68512">
        <ele>275</ele>
        <time>2021-06-21T06:56:22.525Z</time>
      </trkpt>
      <trkpt lat="43.31562" lon="-1.68512">
        <ele>275</ele>
        <time>2021-06-21T06:56:23.536Z</time>
      </trkpt>
      <trkpt lat="43.31557" lon="-1.68514">
        <ele>276</ele>
        <time>2021-06-21T06:56:24.543Z</time>
      </trkpt>
      <trkpt lat="43.31557" lon="-1.68514">
        <ele>276</ele>
        <time>2021-06-21T06:56:25.524Z</time>
      </trkpt>
      <trkpt lat="43.31553" lon="-1.68516">
        <ele>276</ele>
        <time>2021-06-21T06:56:26.540Z</time>
      </trkpt>
      <trkpt lat="43.31553" lon="-1.68516">
        <ele>276</ele>
        <time>2021-06-21T06:56:27.535Z</time>
      </trkpt>
      <trkpt lat="43.31548" lon="-1.68517">
        <ele>276</ele>
        <time>2021-06-21T06:56:28.542Z</time>
      </trkpt>
      <trkpt lat="43.31548" lon="-1.68517">
        <ele>276</ele>
        <time>2021-06-21T06:56:29.512Z</time>
      </trkpt>
      <trkpt lat="43.31543" lon="-1.68517">
        <ele>277</ele>
        <time>2021-06-21T06:56:30.523Z</time>
      </trkpt>
      <trkpt lat="43.31543" lon="-1.68517">
        <ele>277</ele>
        <time>2021-06-21T06:56:31.517Z</time>
      </trkpt>
      <trkpt lat="43.31538" lon="-1.68517">
        <ele>277</ele>
        <time>2021-06-21T06:56:32.525Z</time>
      </trkpt>
      <trkpt lat="43.31538" lon="-1.68517">
        <ele>277</ele>
        <time>2021-06-21T06:56:33.538Z</time>
      </trkpt>
      <trkpt lat="43.31533" lon="-1.68516">
        <ele>277</ele>
        <time>2021-06-21T06:56:34.547Z</time>
      </trkpt>
      <trkpt lat="43.31533" lon="-1.68516">
        <ele>277</ele>
        <time>2021-06-21T06:56:35.518Z</time>
      </trkpt>
      <trkpt lat="43.31529" lon="-1.68516">
        <ele>277</ele>
        <time>2021-06-21T06:56:36.524Z</time>
      </trkpt>
      <trkpt lat="43.31527" lon="-1.68514">
        <ele>277</ele>
        <time>2021-06-21T06:56:37.543Z</time>
      </trkpt>
      <trkpt lat="43.31527" lon="-1.68514">
        <ele>277</ele>
        <time>2021-06-21T06:56:38.522Z</time>
      </trkpt>
      <trkpt lat="43.31523" lon="-1.68514">
        <ele>277</ele>
        <time>2021-06-21T06:56:39.544Z</time>
      </trkpt>
      <trkpt lat="43.31523" lon="-1.68514">
        <ele>277</ele>
        <time>2021-06-21T06:56:40.518Z</time>
      </trkpt>
      <trkpt lat="43.31518" lon="-1.68513">
        <ele>277</ele>
        <time>2021-06-21T06:56:41.562Z</time>
      </trkpt>
      <trkpt lat="43.31516" lon="-1.68514">
        <ele>277</ele>
        <time>2021-06-21T06:56:42.524Z</time>
      </trkpt>
      <trkpt lat="43.31516" lon="-1.68514">
        <ele>277</ele>
        <time>2021-06-21T06:56:43.537Z</time>
      </trkpt>
      <trkpt lat="43.31511" lon="-1.68515">
        <ele>277</ele>
        <time>2021-06-21T06:56:44.543Z</time>
      </trkpt>
      <trkpt lat="43.31511" lon="-1.68515">
        <ele>277</ele>
        <time>2021-06-21T06:56:45.515Z</time>
      </trkpt>
      <trkpt lat="43.31507" lon="-1.68517">
        <ele>277</ele>
        <time>2021-06-21T06:56:46.523Z</time>
      </trkpt>
      <trkpt lat="43.31507" lon="-1.68517">
        <ele>277</ele>
        <time>2021-06-21T06:56:47.533Z</time>
      </trkpt>
      <trkpt lat="43.31503" lon="-1.68518">
        <ele>278</ele>
        <time>2021-06-21T06:56:48.543Z</time>
      </trkpt>
      <trkpt lat="43.31503" lon="-1.68518">
        <ele>278</ele>
        <time>2021-06-21T06:56:49.517Z</time>
      </trkpt>
      <trkpt lat="43.31499" lon="-1.68519">
        <ele>279</ele>
        <time>2021-06-21T06:56:50.543Z</time>
      </trkpt>
      <trkpt lat="43.31499" lon="-1.68519">
        <ele>279</ele>
        <time>2021-06-21T06:56:51.517Z</time>
      </trkpt>
      <trkpt lat="43.31495" lon="-1.68519">
        <ele>279</ele>
        <time>2021-06-21T06:56:52.524Z</time>
      </trkpt>
      <trkpt lat="43.31495" lon="-1.68519">
        <ele>279</ele>
        <time>2021-06-21T06:56:53.540Z</time>
      </trkpt>
      <trkpt lat="43.3149" lon="-1.68518">
        <ele>279</ele>
        <time>2021-06-21T06:56:54.531Z</time>
      </trkpt>
      <trkpt lat="43.3149" lon="-1.68518">
        <ele>279</ele>
        <time>2021-06-21T06:56:55.526Z</time>
      </trkpt>
      <trkpt lat="43.31487" lon="-1.68516">
        <ele>280</ele>
        <time>2021-06-21T06:56:56.535Z</time>
      </trkpt>
      <trkpt lat="43.31485" lon="-1.68516">
        <ele>280</ele>
        <time>2021-06-21T06:56:57.562Z</time>
      </trkpt>
      <trkpt lat="43.31485" lon="-1.68516">
        <ele>280</ele>
        <time>2021-06-21T06:56:58.523Z</time>
      </trkpt>
      <trkpt lat="43.31481" lon="-1.68514">
        <ele>280</ele>
        <time>2021-06-21T06:56:59.532Z</time>
      </trkpt>
      <trkpt lat="43.3148" lon="-1.68512">
        <ele>281</ele>
        <time>2021-06-21T06:57:00.511Z</time>
      </trkpt>
      <trkpt lat="43.3148" lon="-1.68512">
        <ele>281</ele>
        <time>2021-06-21T06:57:01.522Z</time>
      </trkpt>
      <trkpt lat="43.31477" lon="-1.68509">
        <ele>281</ele>
        <time>2021-06-21T06:57:02.528Z</time>
      </trkpt>
      <trkpt lat="43.31477" lon="-1.68509">
        <ele>281</ele>
        <time>2021-06-21T06:57:03.531Z</time>
      </trkpt>
      <trkpt lat="43.31473" lon="-1.68508">
        <ele>282</ele>
        <time>2021-06-21T06:57:04.538Z</time>
      </trkpt>
      <trkpt lat="43.31473" lon="-1.68508">
        <ele>282</ele>
        <time>2021-06-21T06:57:05.521Z</time>
      </trkpt>
      <trkpt lat="43.3147" lon="-1.68505">
        <ele>282</ele>
        <time>2021-06-21T06:57:06.527Z</time>
      </trkpt>
      <trkpt lat="43.3147" lon="-1.68505">
        <ele>282</ele>
        <time>2021-06-21T06:57:07.509Z</time>
      </trkpt>
      <trkpt lat="43.31466" lon="-1.68504">
        <ele>283</ele>
        <time>2021-06-21T06:57:08.519Z</time>
      </trkpt>
      <trkpt lat="43.31466" lon="-1.68504">
        <ele>283</ele>
        <time>2021-06-21T06:57:09.540Z</time>
      </trkpt>
      <trkpt lat="43.31462" lon="-1.68503">
        <ele>283</ele>
        <time>2021-06-21T06:57:10.511Z</time>
      </trkpt>
      <trkpt lat="43.31462" lon="-1.68503">
        <ele>283</ele>
        <time>2021-06-21T06:57:11.535Z</time>
      </trkpt>
      <trkpt lat="43.31458" lon="-1.68501">
        <ele>284</ele>
        <time>2021-06-21T06:57:12.542Z</time>
      </trkpt>
      <trkpt lat="43.31458" lon="-1.68501">
        <ele>284</ele>
        <time>2021-06-21T06:57:13.515Z</time>
      </trkpt>
      <trkpt lat="43.31454" lon="-1.685">
        <ele>285</ele>
        <time>2021-06-21T06:57:14.569Z</time>
      </trkpt>
      <trkpt lat="43.31454" lon="-1.685">
        <ele>285</ele>
        <time>2021-06-21T06:57:15.518Z</time>
      </trkpt>
      <trkpt lat="43.31449" lon="-1.68499">
        <ele>285</ele>
        <time>2021-06-21T06:57:16.524Z</time>
      </trkpt>
      <trkpt lat="43.31449" lon="-1.68499">
        <ele>285</ele>
        <time>2021-06-21T06:57:17.510Z</time>
      </trkpt>
      <trkpt lat="43.31444" lon="-1.685">
        <ele>286</ele>
        <time>2021-06-21T06:57:18.592Z</time>
      </trkpt>
      <trkpt lat="43.31444" lon="-1.685">
        <ele>286</ele>
        <time>2021-06-21T06:57:19.540Z</time>
      </trkpt>
      <trkpt lat="43.31441" lon="-1.685">
        <ele>287</ele>
        <time>2021-06-21T06:57:20.510Z</time>
      </trkpt>
      <trkpt lat="43.31441" lon="-1.685">
        <ele>287</ele>
        <time>2021-06-21T06:57:21.528Z</time>
      </trkpt>
      <trkpt lat="43.31438" lon="-1.685">
        <ele>289</ele>
        <time>2021-06-21T06:57:22.538Z</time>
      </trkpt>
      <trkpt lat="43.31438" lon="-1.685">
        <ele>289</ele>
        <time>2021-06-21T06:57:23.511Z</time>
      </trkpt>
      <trkpt lat="43.31434" lon="-1.68501">
        <ele>290</ele>
        <time>2021-06-21T06:57:24.523Z</time>
      </trkpt>
      <trkpt lat="43.31434" lon="-1.68501">
        <ele>290</ele>
        <time>2021-06-21T06:57:25.536Z</time>
      </trkpt>
      <trkpt lat="43.31431" lon="-1.68501">
        <ele>290</ele>
        <time>2021-06-21T06:57:26.563Z</time>
      </trkpt>
      <trkpt lat="43.31431" lon="-1.68501">
        <ele>290</ele>
        <time>2021-06-21T06:57:27.519Z</time>
      </trkpt>
      <trkpt lat="43.31427" lon="-1.685">
        <ele>291</ele>
        <time>2021-06-21T06:57:28.525Z</time>
      </trkpt>
      <trkpt lat="43.31427" lon="-1.685">
        <ele>291</ele>
        <time>2021-06-21T06:57:29.539Z</time>
      </trkpt>
      <trkpt lat="43.31423" lon="-1.685">
        <ele>291</ele>
        <time>2021-06-21T06:57:30.545Z</time>
      </trkpt>
      <trkpt lat="43.31422" lon="-1.685">
        <ele>292</ele>
        <time>2021-06-21T06:57:31.542Z</time>
      </trkpt>
      <trkpt lat="43.31422" lon="-1.685">
        <ele>292</ele>
        <time>2021-06-21T06:57:32.540Z</time>
      </trkpt>
      <trkpt lat="43.31417" lon="-1.685">
        <ele>293</ele>
        <time>2021-06-21T06:57:33.548Z</time>
      </trkpt>
      <trkpt lat="43.31416" lon="-1.685">
        <ele>293</ele>
        <time>2021-06-21T06:57:34.539Z</time>
      </trkpt>
      <trkpt lat="43.31416" lon="-1.685">
        <ele>293</ele>
        <time>2021-06-21T06:57:35.516Z</time>
      </trkpt>
      <trkpt lat="43.31411" lon="-1.68501">
        <ele>294</ele>
        <time>2021-06-21T06:57:36.575Z</time>
      </trkpt>
      <trkpt lat="43.31411" lon="-1.68501">
        <ele>294</ele>
        <time>2021-06-21T06:57:37.521Z</time>
      </trkpt>
      <trkpt lat="43.31406" lon="-1.68501">
        <ele>294</ele>
        <time>2021-06-21T06:57:38.529Z</time>
      </trkpt>
      <trkpt lat="43.31403" lon="-1.68501">
        <ele>294</ele>
        <time>2021-06-21T06:57:39.550Z</time>
      </trkpt>
      <trkpt lat="43.31403" lon="-1.68501">
        <ele>294</ele>
        <time>2021-06-21T06:57:40.537Z</time>
      </trkpt>
      <trkpt lat="43.31398" lon="-1.68502">
        <ele>295</ele>
        <time>2021-06-21T06:57:41.548Z</time>
      </trkpt>
      <trkpt lat="43.31396" lon="-1.68502">
        <ele>295</ele>
        <time>2021-06-21T06:57:42.524Z</time>
      </trkpt>
      <trkpt lat="43.31396" lon="-1.68502">
        <ele>295</ele>
        <time>2021-06-21T06:57:43.537Z</time>
      </trkpt>
      <trkpt lat="43.31391" lon="-1.68501">
        <ele>296</ele>
        <time>2021-06-21T06:57:44.548Z</time>
      </trkpt>
      <trkpt lat="43.31391" lon="-1.68501">
        <ele>296</ele>
        <time>2021-06-21T06:57:45.523Z</time>
      </trkpt>
      <trkpt lat="43.31387" lon="-1.68501">
        <ele>296</ele>
        <time>2021-06-21T06:57:46.530Z</time>
      </trkpt>
      <trkpt lat="43.31387" lon="-1.68501">
        <ele>296</ele>
        <time>2021-06-21T06:57:47.518Z</time>
      </trkpt>
      <trkpt lat="43.31382" lon="-1.68502">
        <ele>297</ele>
        <time>2021-06-21T06:57:48.525Z</time>
      </trkpt>
      <trkpt lat="43.31382" lon="-1.68502">
        <ele>297</ele>
        <time>2021-06-21T06:57:49.510Z</time>
      </trkpt>
      <trkpt lat="43.31379" lon="-1.68503">
        <ele>297</ele>
        <time>2021-06-21T06:57:50.518Z</time>
      </trkpt>
      <trkpt lat="43.31379" lon="-1.68503">
        <ele>297</ele>
        <time>2021-06-21T06:57:51.543Z</time>
      </trkpt>
      <trkpt lat="43.31375" lon="-1.68504">
        <ele>297</ele>
        <time>2021-06-21T06:57:52.514Z</time>
      </trkpt>
      <trkpt lat="43.31375" lon="-1.68504">
        <ele>297</ele>
        <time>2021-06-21T06:57:53.536Z</time>
      </trkpt>
      <trkpt lat="43.31371" lon="-1.68504">
        <ele>297</ele>
        <time>2021-06-21T06:57:54.542Z</time>
      </trkpt>
      <trkpt lat="43.31371" lon="-1.68504">
        <ele>297</ele>
        <time>2021-06-21T06:57:55.517Z</time>
      </trkpt>
      <trkpt lat="43.31368" lon="-1.68504">
        <ele>298</ele>
        <time>2021-06-21T06:57:56.522Z</time>
      </trkpt>
      <trkpt lat="43.31368" lon="-1.68504">
        <ele>298</ele>
        <time>2021-06-21T06:57:57.537Z</time>
      </trkpt>
      <trkpt lat="43.31364" lon="-1.68503">
        <ele>298</ele>
        <time>2021-06-21T06:57:58.518Z</time>
      </trkpt>
      <trkpt lat="43.31364" lon="-1.68503">
        <ele>298</ele>
        <time>2021-06-21T06:57:59.521Z</time>
      </trkpt>
      <trkpt lat="43.31361" lon="-1.68502">
        <ele>299</ele>
        <time>2021-06-21T06:58:00.527Z</time>
      </trkpt>
      <trkpt lat="43.31361" lon="-1.68502">
        <ele>299</ele>
        <time>2021-06-21T06:58:01.513Z</time>
      </trkpt>
      <trkpt lat="43.31358" lon="-1.685">
        <ele>300</ele>
        <time>2021-06-21T06:58:02.520Z</time>
      </trkpt>
      <trkpt lat="43.31358" lon="-1.685">
        <ele>300</ele>
        <time>2021-06-21T06:58:03.545Z</time>
      </trkpt>
      <trkpt lat="43.31354" lon="-1.68496">
        <ele>300</ele>
        <time>2021-06-21T06:58:04.512Z</time>
      </trkpt>
      <trkpt lat="43.31354" lon="-1.68496">
        <ele>300</ele>
        <time>2021-06-21T06:58:05.514Z</time>
      </trkpt>
      <trkpt lat="43.31351" lon="-1.68492">
        <ele>301</ele>
        <time>2021-06-21T06:58:06.522Z</time>
      </trkpt>
      <trkpt lat="43.31351" lon="-1.68492">
        <ele>301</ele>
        <time>2021-06-21T06:58:07.516Z</time>
      </trkpt>
      <trkpt lat="43.31347" lon="-1.6849">
        <ele>301</ele>
        <time>2021-06-21T06:58:08.572Z</time>
      </trkpt>
      <trkpt lat="43.31347" lon="-1.6849">
        <ele>301</ele>
        <time>2021-06-21T06:58:09.523Z</time>
      </trkpt>
      <trkpt lat="43.31344" lon="-1.68488">
        <ele>302</ele>
        <time>2021-06-21T06:58:10.530Z</time>
      </trkpt>
      <trkpt lat="43.31344" lon="-1.68488">
        <ele>302</ele>
        <time>2021-06-21T06:58:11.541Z</time>
      </trkpt>
      <trkpt lat="43.31339" lon="-1.68488">
        <ele>302</ele>
        <time>2021-06-21T06:58:12.509Z</time>
      </trkpt>
      <trkpt lat="43.31339" lon="-1.68488">
        <ele>302</ele>
        <time>2021-06-21T06:58:13.548Z</time>
      </trkpt>
      <trkpt lat="43.31335" lon="-1.68489">
        <ele>303</ele>
        <time>2021-06-21T06:58:14.515Z</time>
      </trkpt>
      <trkpt lat="43.31335" lon="-1.68489">
        <ele>303</ele>
        <time>2021-06-21T06:58:15.544Z</time>
      </trkpt>
      <trkpt lat="43.31331" lon="-1.68489">
        <ele>303</ele>
        <time>2021-06-21T06:58:16.513Z</time>
      </trkpt>
      <trkpt lat="43.31331" lon="-1.68489">
        <ele>303</ele>
        <time>2021-06-21T06:58:17.539Z</time>
      </trkpt>
      <trkpt lat="43.31328" lon="-1.6849">
        <ele>304</ele>
        <time>2021-06-21T06:58:18.559Z</time>
      </trkpt>
      <trkpt lat="43.31328" lon="-1.6849">
        <ele>304</ele>
        <time>2021-06-21T06:58:19.520Z</time>
      </trkpt>
      <trkpt lat="43.31324" lon="-1.6849">
        <ele>304</ele>
        <time>2021-06-21T06:58:20.526Z</time>
      </trkpt>
      <trkpt lat="43.31324" lon="-1.6849">
        <ele>304</ele>
        <time>2021-06-21T06:58:21.515Z</time>
      </trkpt>
      <trkpt lat="43.31321" lon="-1.68492">
        <ele>304</ele>
        <time>2021-06-21T06:58:22.537Z</time>
      </trkpt>
      <trkpt lat="43.31321" lon="-1.68492">
        <ele>304</ele>
        <time>2021-06-21T06:58:23.513Z</time>
      </trkpt>
      <trkpt lat="43.31316" lon="-1.68493">
        <ele>304</ele>
        <time>2021-06-21T06:58:24.520Z</time>
      </trkpt>
      <trkpt lat="43.31316" lon="-1.68493">
        <ele>304</ele>
        <time>2021-06-21T06:58:25.547Z</time>
      </trkpt>
      <trkpt lat="43.31312" lon="-1.68494">
        <ele>304</ele>
        <time>2021-06-21T06:58:26.515Z</time>
      </trkpt>
      <trkpt lat="43.31312" lon="-1.68494">
        <ele>304</ele>
        <time>2021-06-21T06:58:27.532Z</time>
      </trkpt>
      <trkpt lat="43.31309" lon="-1.68497">
        <ele>305</ele>
        <time>2021-06-21T06:58:28.559Z</time>
      </trkpt>
      <trkpt lat="43.31309" lon="-1.68497">
        <ele>305</ele>
        <time>2021-06-21T06:58:29.544Z</time>
      </trkpt>
      <trkpt lat="43.31305" lon="-1.68498">
        <ele>304</ele>
        <time>2021-06-21T06:58:30.511Z</time>
      </trkpt>
      <trkpt lat="43.31305" lon="-1.68498">
        <ele>304</ele>
        <time>2021-06-21T06:58:31.532Z</time>
      </trkpt>
      <trkpt lat="43.313" lon="-1.68499">
        <ele>304</ele>
        <time>2021-06-21T06:58:32.539Z</time>
      </trkpt>
      <trkpt lat="43.313" lon="-1.68499">
        <ele>304</ele>
        <time>2021-06-21T06:58:33.536Z</time>
      </trkpt>
      <trkpt lat="43.31296" lon="-1.685">
        <ele>304</ele>
        <time>2021-06-21T06:58:34.543Z</time>
      </trkpt>
      <trkpt lat="43.31296" lon="-1.685">
        <ele>304</ele>
        <time>2021-06-21T06:58:35.517Z</time>
      </trkpt>
      <trkpt lat="43.31292" lon="-1.68501">
        <ele>304</ele>
        <time>2021-06-21T06:58:36.552Z</time>
      </trkpt>
      <trkpt lat="43.31292" lon="-1.68501">
        <ele>304</ele>
        <time>2021-06-21T06:58:37.525Z</time>
      </trkpt>
      <trkpt lat="43.31289" lon="-1.68502">
        <ele>305</ele>
        <time>2021-06-21T06:58:38.532Z</time>
      </trkpt>
      <trkpt lat="43.31289" lon="-1.68502">
        <ele>305</ele>
        <time>2021-06-21T06:58:39.517Z</time>
      </trkpt>
      <trkpt lat="43.31285" lon="-1.68501">
        <ele>305</ele>
        <time>2021-06-21T06:58:40.523Z</time>
      </trkpt>
      <trkpt lat="43.31285" lon="-1.68501">
        <ele>305</ele>
        <time>2021-06-21T06:58:41.539Z</time>
      </trkpt>
      <trkpt lat="43.31281" lon="-1.68501">
        <ele>304</ele>
        <time>2021-06-21T06:58:42.548Z</time>
      </trkpt>
      <trkpt lat="43.31281" lon="-1.68501">
        <ele>304</ele>
        <time>2021-06-21T06:58:43.509Z</time>
      </trkpt>
      <trkpt lat="43.31277" lon="-1.68501">
        <ele>304</ele>
        <time>2021-06-21T06:58:44.517Z</time>
      </trkpt>
      <trkpt lat="43.31277" lon="-1.68501">
        <ele>304</ele>
        <time>2021-06-21T06:58:45.544Z</time>
      </trkpt>
      <trkpt lat="43.31274" lon="-1.685">
        <ele>304</ele>
        <time>2021-06-21T06:58:46.590Z</time>
      </trkpt>
      <trkpt lat="43.31274" lon="-1.685">
        <ele>304</ele>
        <time>2021-06-21T06:58:47.540Z</time>
      </trkpt>
      <trkpt lat="43.31271" lon="-1.68498">
        <ele>304</ele>
        <time>2021-06-21T06:58:48.511Z</time>
      </trkpt>
      <trkpt lat="43.31271" lon="-1.68498">
        <ele>304</ele>
        <time>2021-06-21T06:58:49.527Z</time>
      </trkpt>
      <trkpt lat="43.31268" lon="-1.68497">
        <ele>304</ele>
        <time>2021-06-21T06:58:50.534Z</time>
      </trkpt>
      <trkpt lat="43.31268" lon="-1.68497">
        <ele>304</ele>
        <time>2021-06-21T06:58:51.515Z</time>
      </trkpt>
      <trkpt lat="43.31263" lon="-1.68495">
        <ele>303</ele>
        <time>2021-06-21T06:58:52.514Z</time>
      </trkpt>
      <trkpt lat="43.31261" lon="-1.68495">
        <ele>303</ele>
        <time>2021-06-21T06:58:53.543Z</time>
      </trkpt>
      <trkpt lat="43.31261" lon="-1.68495">
        <ele>303</ele>
        <time>2021-06-21T06:58:54.523Z</time>
      </trkpt>
      <trkpt lat="43.31257" lon="-1.68493">
        <ele>303</ele>
        <time>2021-06-21T06:58:55.535Z</time>
      </trkpt>
      <trkpt lat="43.31257" lon="-1.68493">
        <ele>303</ele>
        <time>2021-06-21T06:58:56.544Z</time>
      </trkpt>
      <trkpt lat="43.31253" lon="-1.68492">
        <ele>304</ele>
        <time>2021-06-21T06:58:57.511Z</time>
      </trkpt>
      <trkpt lat="43.31251" lon="-1.68491">
        <ele>303</ele>
        <time>2021-06-21T06:58:58.530Z</time>
      </trkpt>
      <trkpt lat="43.31251" lon="-1.68491">
        <ele>303</ele>
        <time>2021-06-21T06:58:59.511Z</time>
      </trkpt>
      <trkpt lat="43.31247" lon="-1.6849">
        <ele>303</ele>
        <time>2021-06-21T06:59:00.517Z</time>
      </trkpt>
      <trkpt lat="43.31247" lon="-1.6849">
        <ele>303</ele>
        <time>2021-06-21T06:59:01.529Z</time>
      </trkpt>
      <trkpt lat="43.31243" lon="-1.68489">
        <ele>303</ele>
        <time>2021-06-21T06:59:02.545Z</time>
      </trkpt>
      <trkpt lat="43.31243" lon="-1.68489">
        <ele>303</ele>
        <time>2021-06-21T06:59:03.518Z</time>
      </trkpt>
      <trkpt lat="43.31239" lon="-1.68488">
        <ele>303</ele>
        <time>2021-06-21T06:59:04.524Z</time>
      </trkpt>
      <trkpt lat="43.31237" lon="-1.68487">
        <ele>303</ele>
        <time>2021-06-21T06:59:05.512Z</time>
      </trkpt>
      <trkpt lat="43.31235" lon="-1.68487">
        <ele>303</ele>
        <time>2021-06-21T06:59:06.528Z</time>
      </trkpt>
      <trkpt lat="43.31235" lon="-1.68487">
        <ele>303</ele>
        <time>2021-06-21T06:59:07.541Z</time>
      </trkpt>
      <trkpt lat="43.3123" lon="-1.68487">
        <ele>303</ele>
        <time>2021-06-21T06:59:08.548Z</time>
      </trkpt>
      <trkpt lat="43.3123" lon="-1.68487">
        <ele>303</ele>
        <time>2021-06-21T06:59:09.536Z</time>
      </trkpt>
      <trkpt lat="43.31225" lon="-1.68486">
        <ele>303</ele>
        <time>2021-06-21T06:59:10.590Z</time>
      </trkpt>
      <trkpt lat="43.31225" lon="-1.68486">
        <ele>303</ele>
        <time>2021-06-21T06:59:11.542Z</time>
      </trkpt>
      <trkpt lat="43.31225" lon="-1.68486">
        <ele>303</ele>
        <time>2021-06-21T06:59:12.584Z</time>
      </trkpt>
      <trkpt lat="43.31221" lon="-1.68484">
        <ele>303</ele>
        <time>2021-06-21T06:59:13.532Z</time>
      </trkpt>
      <trkpt lat="43.31216" lon="-1.68482">
        <ele>303</ele>
        <time>2021-06-21T06:59:14.511Z</time>
      </trkpt>
      <trkpt lat="43.31216" lon="-1.68482">
        <ele>303</ele>
        <time>2021-06-21T06:59:15.526Z</time>
      </trkpt>
      <trkpt lat="43.31213" lon="-1.68482">
        <ele>303</ele>
        <time>2021-06-21T06:59:16.548Z</time>
      </trkpt>
      <trkpt lat="43.31213" lon="-1.68482">
        <ele>303</ele>
        <time>2021-06-21T06:59:17.544Z</time>
      </trkpt>
      <trkpt lat="43.31209" lon="-1.68482">
        <ele>304</ele>
        <time>2021-06-21T06:59:18.561Z</time>
      </trkpt>
      <trkpt lat="43.31207" lon="-1.68483">
        <ele>304</ele>
        <time>2021-06-21T06:59:19.534Z</time>
      </trkpt>
      <trkpt lat="43.31207" lon="-1.68483">
        <ele>304</ele>
        <time>2021-06-21T06:59:20.517Z</time>
      </trkpt>
      <trkpt lat="43.31203" lon="-1.68485">
        <ele>304</ele>
        <time>2021-06-21T06:59:21.525Z</time>
      </trkpt>
      <trkpt lat="43.31203" lon="-1.68485">
        <ele>304</ele>
        <time>2021-06-21T06:59:22.538Z</time>
      </trkpt>
      <trkpt lat="43.31199" lon="-1.68487">
        <ele>304</ele>
        <time>2021-06-21T06:59:23.549Z</time>
      </trkpt>
      <trkpt lat="43.31197" lon="-1.68489">
        <ele>304</ele>
        <time>2021-06-21T06:59:24.549Z</time>
      </trkpt>
      <trkpt lat="43.31197" lon="-1.68489">
        <ele>304</ele>
        <time>2021-06-21T06:59:25.517Z</time>
      </trkpt>
      <trkpt lat="43.31194" lon="-1.68492">
        <ele>304</ele>
        <time>2021-06-21T06:59:26.525Z</time>
      </trkpt>
      <trkpt lat="43.31194" lon="-1.68492">
        <ele>304</ele>
        <time>2021-06-21T06:59:27.512Z</time>
      </trkpt>
      <trkpt lat="43.31189" lon="-1.68493">
        <ele>304</ele>
        <time>2021-06-21T06:59:28.520Z</time>
      </trkpt>
      <trkpt lat="43.31189" lon="-1.68493">
        <ele>304</ele>
        <time>2021-06-21T06:59:29.536Z</time>
      </trkpt>
      <trkpt lat="43.31185" lon="-1.68494">
        <ele>304</ele>
        <time>2021-06-21T06:59:30.545Z</time>
      </trkpt>
      <trkpt lat="43.31185" lon="-1.68494">
        <ele>304</ele>
        <time>2021-06-21T06:59:31.526Z</time>
      </trkpt>
      <trkpt lat="43.3118" lon="-1.68494">
        <ele>304</ele>
        <time>2021-06-21T06:59:32.534Z</time>
      </trkpt>
      <trkpt lat="43.3118" lon="-1.68494">
        <ele>304</ele>
        <time>2021-06-21T06:59:33.533Z</time>
      </trkpt>
      <trkpt lat="43.31177" lon="-1.68493">
        <ele>304</ele>
        <time>2021-06-21T06:59:34.540Z</time>
      </trkpt>
      <trkpt lat="43.31175" lon="-1.68492">
        <ele>304</ele>
        <time>2021-06-21T06:59:35.521Z</time>
      </trkpt>
      <trkpt lat="43.31173" lon="-1.68492">
        <ele>304</ele>
        <time>2021-06-21T06:59:36.540Z</time>
      </trkpt>
      <trkpt lat="43.31171" lon="-1.68492">
        <ele>304</ele>
        <time>2021-06-21T06:59:37.521Z</time>
      </trkpt>
      <trkpt lat="43.31171" lon="-1.68492">
        <ele>304</ele>
        <time>2021-06-21T06:59:38.512Z</time>
      </trkpt>
      <trkpt lat="43.31168" lon="-1.68493">
        <ele>304</ele>
        <time>2021-06-21T06:59:39.526Z</time>
      </trkpt>
      <trkpt lat="43.31168" lon="-1.68493">
        <ele>304</ele>
        <time>2021-06-21T06:59:40.537Z</time>
      </trkpt>
      <trkpt lat="43.31165" lon="-1.68492">
        <ele>304</ele>
        <time>2021-06-21T06:59:41.538Z</time>
      </trkpt>
      <trkpt lat="43.31163" lon="-1.68491">
        <ele>304</ele>
        <time>2021-06-21T06:59:42.514Z</time>
      </trkpt>
      <trkpt lat="43.31163" lon="-1.68491">
        <ele>304</ele>
        <time>2021-06-21T06:59:43.527Z</time>
      </trkpt>
      <trkpt lat="43.3116" lon="-1.6849">
        <ele>304</ele>
        <time>2021-06-21T06:59:44.536Z</time>
      </trkpt>
      <trkpt lat="43.3116" lon="-1.6849">
        <ele>304</ele>
        <time>2021-06-21T06:59:45.548Z</time>
      </trkpt>
      <trkpt lat="43.31156" lon="-1.68489">
        <ele>303</ele>
        <time>2021-06-21T06:59:46.517Z</time>
      </trkpt>
      <trkpt lat="43.31156" lon="-1.68489">
        <ele>303</ele>
        <time>2021-06-21T06:59:47.543Z</time>
      </trkpt>
      <trkpt lat="43.31156" lon="-1.68489">
        <ele>303</ele>
        <time>2021-06-21T06:59:48.578Z</time>
      </trkpt>
      <trkpt lat="43.31152" lon="-1.68489">
        <ele>304</ele>
        <time>2021-06-21T06:59:49.517Z</time>
      </trkpt>
      <trkpt lat="43.31148" lon="-1.68489">
        <ele>304</ele>
        <time>2021-06-21T06:59:50.529Z</time>
      </trkpt>
      <trkpt lat="43.31148" lon="-1.68489">
        <ele>304</ele>
        <time>2021-06-21T06:59:51.546Z</time>
      </trkpt>
      <trkpt lat="43.31143" lon="-1.68487">
        <ele>304</ele>
        <time>2021-06-21T06:59:52.512Z</time>
      </trkpt>
      <trkpt lat="43.31143" lon="-1.68487">
        <ele>304</ele>
        <time>2021-06-21T06:59:53.538Z</time>
      </trkpt>
      <trkpt lat="43.31138" lon="-1.68487">
        <ele>304</ele>
        <time>2021-06-21T06:59:54.571Z</time>
      </trkpt>
      <trkpt lat="43.31138" lon="-1.68487">
        <ele>304</ele>
        <time>2021-06-21T06:59:55.535Z</time>
      </trkpt>
      <trkpt lat="43.31134" lon="-1.68485">
        <ele>305</ele>
        <time>2021-06-21T06:59:56.542Z</time>
      </trkpt>
      <trkpt lat="43.31134" lon="-1.68485">
        <ele>305</ele>
        <time>2021-06-21T06:59:57.514Z</time>
      </trkpt>
      <trkpt lat="43.3113" lon="-1.68484">
        <ele>305</ele>
        <time>2021-06-21T06:59:58.514Z</time>
      </trkpt>
      <trkpt lat="43.3113" lon="-1.68484">
        <ele>305</ele>
        <time>2021-06-21T06:59:59.547Z</time>
      </trkpt>
      <trkpt lat="43.31127" lon="-1.68484">
        <ele>305</ele>
        <time>2021-06-21T07:00:00.513Z</time>
      </trkpt>
      <trkpt lat="43.31127" lon="-1.68484">
        <ele>305</ele>
        <time>2021-06-21T07:00:01.538Z</time>
      </trkpt>
      <trkpt lat="43.31122" lon="-1.68481">
        <ele>305</ele>
        <time>2021-06-21T07:00:02.546Z</time>
      </trkpt>
      <trkpt lat="43.31122" lon="-1.68481">
        <ele>305</ele>
        <time>2021-06-21T07:00:03.537Z</time>
      </trkpt>
      <trkpt lat="43.31117" lon="-1.68479">
        <ele>306</ele>
        <time>2021-06-21T07:00:04.544Z</time>
      </trkpt>
      <trkpt lat="43.31117" lon="-1.68479">
        <ele>306</ele>
        <time>2021-06-21T07:00:05.526Z</time>
      </trkpt>
      <trkpt lat="43.31113" lon="-1.68477">
        <ele>306</ele>
        <time>2021-06-21T07:00:06.569Z</time>
      </trkpt>
      <trkpt lat="43.31113" lon="-1.68477">
        <ele>306</ele>
        <time>2021-06-21T07:00:07.548Z</time>
      </trkpt>
      <trkpt lat="43.31108" lon="-1.68476">
        <ele>306</ele>
        <time>2021-06-21T07:00:08.515Z</time>
      </trkpt>
      <trkpt lat="43.31108" lon="-1.68476">
        <ele>306</ele>
        <time>2021-06-21T07:00:09.539Z</time>
      </trkpt>
      <trkpt lat="43.31104" lon="-1.68474">
        <ele>306</ele>
        <time>2021-06-21T07:00:10.547Z</time>
      </trkpt>
      <trkpt lat="43.31104" lon="-1.68474">
        <ele>306</ele>
        <time>2021-06-21T07:00:11.527Z</time>
      </trkpt>
      <trkpt lat="43.311" lon="-1.68473">
        <ele>306</ele>
        <time>2021-06-21T07:00:12.543Z</time>
      </trkpt>
      <trkpt lat="43.311" lon="-1.68473">
        <ele>306</ele>
        <time>2021-06-21T07:00:13.536Z</time>
      </trkpt>
      <trkpt lat="43.31096" lon="-1.68473">
        <ele>306</ele>
        <time>2021-06-21T07:00:14.545Z</time>
      </trkpt>
      <trkpt lat="43.31096" lon="-1.68473">
        <ele>306</ele>
        <time>2021-06-21T07:00:15.536Z</time>
      </trkpt>
      <trkpt lat="43.31093" lon="-1.68472">
        <ele>307</ele>
        <time>2021-06-21T07:00:16.543Z</time>
      </trkpt>
      <trkpt lat="43.31093" lon="-1.68472">
        <ele>307</ele>
        <time>2021-06-21T07:00:17.519Z</time>
      </trkpt>
      <trkpt lat="43.31089" lon="-1.68471">
        <ele>307</ele>
        <time>2021-06-21T07:00:18.525Z</time>
      </trkpt>
      <trkpt lat="43.31089" lon="-1.68471">
        <ele>307</ele>
        <time>2021-06-21T07:00:19.531Z</time>
      </trkpt>
      <trkpt lat="43.31085" lon="-1.6847">
        <ele>308</ele>
        <time>2021-06-21T07:00:20.544Z</time>
      </trkpt>
      <trkpt lat="43.31085" lon="-1.6847">
        <ele>308</ele>
        <time>2021-06-21T07:00:21.537Z</time>
      </trkpt>
      <trkpt lat="43.31081" lon="-1.6847">
        <ele>309</ele>
        <time>2021-06-21T07:00:22.516Z</time>
      </trkpt>
      <trkpt lat="43.31081" lon="-1.6847">
        <ele>309</ele>
        <time>2021-06-21T07:00:23.523Z</time>
      </trkpt>
      <trkpt lat="43.31077" lon="-1.68469">
        <ele>309</ele>
        <time>2021-06-21T07:00:24.541Z</time>
      </trkpt>
      <trkpt lat="43.31077" lon="-1.68469">
        <ele>309</ele>
        <time>2021-06-21T07:00:25.542Z</time>
      </trkpt>
      <trkpt lat="43.31073" lon="-1.68468">
        <ele>310</ele>
        <time>2021-06-21T07:00:26.513Z</time>
      </trkpt>
      <trkpt lat="43.31073" lon="-1.68468">
        <ele>310</ele>
        <time>2021-06-21T07:00:27.537Z</time>
      </trkpt>
      <trkpt lat="43.31069" lon="-1.68467">
        <ele>310</ele>
        <time>2021-06-21T07:00:28.565Z</time>
      </trkpt>
      <trkpt lat="43.31069" lon="-1.68467">
        <ele>310</ele>
        <time>2021-06-21T07:00:29.522Z</time>
      </trkpt>
      <trkpt lat="43.31065" lon="-1.68466">
        <ele>310</ele>
        <time>2021-06-21T07:00:30.529Z</time>
      </trkpt>
      <trkpt lat="43.31065" lon="-1.68466">
        <ele>310</ele>
        <time>2021-06-21T07:00:31.544Z</time>
      </trkpt>
      <trkpt lat="43.31061" lon="-1.68466">
        <ele>310</ele>
        <time>2021-06-21T07:00:32.519Z</time>
      </trkpt>
      <trkpt lat="43.31061" lon="-1.68466">
        <ele>310</ele>
        <time>2021-06-21T07:00:33.540Z</time>
      </trkpt>
      <trkpt lat="43.31058" lon="-1.68465">
        <ele>311</ele>
        <time>2021-06-21T07:00:34.548Z</time>
      </trkpt>
      <trkpt lat="43.31058" lon="-1.68465">
        <ele>311</ele>
        <time>2021-06-21T07:00:35.529Z</time>
      </trkpt>
      <trkpt lat="43.31056" lon="-1.68465">
        <ele>311</ele>
        <time>2021-06-21T07:00:36.541Z</time>
      </trkpt>
      <trkpt lat="43.31056" lon="-1.68465">
        <ele>311</ele>
        <time>2021-06-21T07:00:37.525Z</time>
      </trkpt>
      <trkpt lat="43.31055" lon="-1.68466">
        <ele>311</ele>
        <time>2021-06-21T07:00:38.533Z</time>
      </trkpt>
      <trkpt lat="43.31055" lon="-1.68466">
        <ele>311</ele>
        <time>2021-06-21T07:00:39.515Z</time>
      </trkpt>
      <trkpt lat="43.31055" lon="-1.68466">
        <ele>311</ele>
        <time>2021-06-21T07:00:40.522Z</time>
      </trkpt>
      <trkpt lat="43.31055" lon="-1.68466">
        <ele>311</ele>
        <time>2021-06-21T07:00:41.517Z</time>
      </trkpt>
      <trkpt lat="43.31055" lon="-1.68466">
        <ele>311</ele>
        <time>2021-06-21T07:00:42.523Z</time>
      </trkpt>
      <trkpt lat="43.31055" lon="-1.68466">
        <ele>311</ele>
        <time>2021-06-21T07:00:43.529Z</time>
      </trkpt>
      <trkpt lat="43.31055" lon="-1.68466">
        <ele>311</ele>
        <time>2021-06-21T07:00:44.510Z</time>
      </trkpt>
      <trkpt lat="43.31055" lon="-1.68466">
        <ele>311</ele>
        <time>2021-06-21T07:00:45.522Z</time>
      </trkpt>
      <trkpt lat="43.31055" lon="-1.68466">
        <ele>311</ele>
        <time>2021-06-21T07:00:46.510Z</time>
      </trkpt>
      <trkpt lat="43.31055" lon="-1.68466">
        <ele>311</ele>
        <time>2021-06-21T07:00:47.526Z</time>
      </trkpt>
      <trkpt lat="43.31055" lon="-1.68466">
        <ele>311</ele>
        <time>2021-06-21T07:00:48.513Z</time>
      </trkpt>
      <trkpt lat="43.31055" lon="-1.68466">
        <ele>311</ele>
        <time>2021-06-21T07:00:49.525Z</time>
      </trkpt>
      <trkpt lat="43.31055" lon="-1.68466">
        <ele>311</ele>
        <time>2021-06-21T07:00:50.510Z</time>
      </trkpt>
      <trkpt lat="43.31055" lon="-1.68466">
        <ele>311</ele>
        <time>2021-06-21T07:00:51.546Z</time>
      </trkpt>
      <trkpt lat="43.31055" lon="-1.68466">
        <ele>311</ele>
        <time>2021-06-21T07:00:52.522Z</time>
      </trkpt>
      <trkpt lat="43.31055" lon="-1.68466">
        <ele>311</ele>
        <time>2021-06-21T07:00:53.511Z</time>
      </trkpt>
      <trkpt lat="43.31055" lon="-1.68466">
        <ele>311</ele>
        <time>2021-06-21T07:00:54.523Z</time>
      </trkpt>
      <trkpt lat="43.31055" lon="-1.68466">
        <ele>311</ele>
        <time>2021-06-21T07:00:55.546Z</time>
      </trkpt>
      <trkpt lat="43.31055" lon="-1.68466">
        <ele>311</ele>
        <time>2021-06-21T07:00:56.521Z</time>
      </trkpt>
      <trkpt lat="43.31055" lon="-1.68466">
        <ele>311</ele>
        <time>2021-06-21T07:00:57.548Z</time>
      </trkpt>
      <trkpt lat="43.31055" lon="-1.68466">
        <ele>311</ele>
        <time>2021-06-21T07:00:58.524Z</time>
      </trkpt>
      <trkpt lat="43.31055" lon="-1.68466">
        <ele>311</ele>
        <time>2021-06-21T07:00:59.546Z</time>
      </trkpt>
      <trkpt lat="43.31055" lon="-1.68466">
        <ele>311</ele>
        <time>2021-06-21T07:01:00.512Z</time>
      </trkpt>
      <trkpt lat="43.31055" lon="-1.68466">
        <ele>311</ele>
        <time>2021-06-21T07:01:01.530Z</time>
      </trkpt>
      <trkpt lat="43.31055" lon="-1.68466">
        <ele>311</ele>
        <time>2021-06-21T07:01:02.510Z</time>
      </trkpt>
      <trkpt lat="43.31055" lon="-1.68466">
        <ele>311</ele>
        <time>2021-06-21T07:01:03.531Z</time>
      </trkpt>
      <trkpt lat="43.31055" lon="-1.68466">
        <ele>311</ele>
        <time>2021-06-21T07:01:04.542Z</time>
      </trkpt>
      <trkpt lat="43.31055" lon="-1.68466">
        <ele>311</ele>
        <time>2021-06-21T07:01:05.548Z</time>
      </trkpt>
      <trkpt lat="43.31055" lon="-1.68466">
        <ele>311</ele>
        <time>2021-06-21T07:01:06.515Z</time>
      </trkpt>
      <trkpt lat="43.31055" lon="-1.68466">
        <ele>311</ele>
        <time>2021-06-21T07:01:07.520Z</time>
      </trkpt>
      <trkpt lat="43.31055" lon="-1.68466">
        <ele>311</ele>
        <time>2021-06-21T07:01:08.511Z</time>
      </trkpt>
      <trkpt lat="43.31055" lon="-1.68466">
        <ele>311</ele>
        <time>2021-06-21T07:01:09.546Z</time>
      </trkpt>
      <trkpt lat="43.31055" lon="-1.68466">
        <ele>311</ele>
        <time>2021-06-21T07:01:10.519Z</time>
      </trkpt>
      <trkpt lat="43.31055" lon="-1.68466">
        <ele>311</ele>
        <time>2021-06-21T07:01:11.546Z</time>
      </trkpt>
      <trkpt lat="43.31055" lon="-1.68466">
        <ele>311</ele>
        <time>2021-06-21T07:01:12.523Z</time>
      </trkpt>
      <trkpt lat="43.31055" lon="-1.68466">
        <ele>311</ele>
        <time>2021-06-21T07:01:13.546Z</time>
      </trkpt>
      <trkpt lat="43.31055" lon="-1.68466">
        <ele>311</ele>
        <time>2021-06-21T07:01:14.523Z</time>
      </trkpt>
      <trkpt lat="43.31055" lon="-1.68466">
        <ele>311</ele>
        <time>2021-06-21T07:01:15.546Z</time>
      </trkpt>
      <trkpt lat="43.31055" lon="-1.68466">
        <ele>311</ele>
        <time>2021-06-21T07:01:16.523Z</time>
      </trkpt>
      <trkpt lat="43.31055" lon="-1.68466">
        <ele>311</ele>
        <time>2021-06-21T07:01:17.546Z</time>
      </trkpt>
      <trkpt lat="43.31055" lon="-1.68466">
        <ele>311</ele>
        <time>2021-06-21T07:01:18.522Z</time>
      </trkpt>
      <trkpt lat="43.31055" lon="-1.68466">
        <ele>311</ele>
        <time>2021-06-21T07:01:19.546Z</time>
      </trkpt>
      <trkpt lat="43.31055" lon="-1.68466">
        <ele>311</ele>
        <time>2021-06-21T07:01:20.522Z</time>
      </trkpt>
      <trkpt lat="43.31055" lon="-1.68466">
        <ele>311</ele>
        <time>2021-06-21T07:01:21.546Z</time>
      </trkpt>
      <trkpt lat="43.31055" lon="-1.68466">
        <ele>311</ele>
        <time>2021-06-21T07:01:22.511Z</time>
      </trkpt>
      <trkpt lat="43.31055" lon="-1.68466">
        <ele>311</ele>
        <time>2021-06-21T07:01:23.512Z</time>
      </trkpt>
      <trkpt lat="43.31055" lon="-1.68466">
        <ele>311</ele>
        <time>2021-06-21T07:01:24.525Z</time>
      </trkpt>
      <trkpt lat="43.31055" lon="-1.68466">
        <ele>311</ele>
        <time>2021-06-21T07:01:25.511Z</time>
      </trkpt>
      <trkpt lat="43.31055" lon="-1.68466">
        <ele>311</ele>
        <time>2021-06-21T07:01:26.531Z</time>
      </trkpt>
      <trkpt lat="43.31055" lon="-1.68466">
        <ele>311</ele>
        <time>2021-06-21T07:01:27.512Z</time>
      </trkpt>
      <trkpt lat="43.31055" lon="-1.68466">
        <ele>311</ele>
        <time>2021-06-21T07:01:28.525Z</time>
      </trkpt>
      <trkpt lat="43.31055" lon="-1.68466">
        <ele>311</ele>
        <time>2021-06-21T07:01:29.511Z</time>
      </trkpt>
      <trkpt lat="43.31055" lon="-1.68466">
        <ele>311</ele>
        <time>2021-06-21T07:01:30.527Z</time>
      </trkpt>
      <trkpt lat="43.31055" lon="-1.68466">
        <ele>311</ele>
        <time>2021-06-21T07:01:31.546Z</time>
      </trkpt>
      <trkpt lat="43.31055" lon="-1.68466">
        <ele>311</ele>
        <time>2021-06-21T07:01:32.522Z</time>
      </trkpt>
      <trkpt lat="43.31055" lon="-1.68466">
        <ele>311</ele>
        <time>2021-06-21T07:01:33.546Z</time>
      </trkpt>
      <trkpt lat="43.31055" lon="-1.68466">
        <ele>311</ele>
        <time>2021-06-21T07:01:34.522Z</time>
      </trkpt>
      <trkpt lat="43.31055" lon="-1.68466">
        <ele>311</ele>
        <time>2021-06-21T07:01:35.546Z</time>
      </trkpt>
      <trkpt lat="43.31055" lon="-1.68466">
        <ele>311</ele>
        <time>2021-06-21T07:01:36.523Z</time>
      </trkpt>
      <trkpt lat="43.31055" lon="-1.68466">
        <ele>311</ele>
        <time>2021-06-21T07:01:37.546Z</time>
      </trkpt>
      <trkpt lat="43.31055" lon="-1.68466">
        <ele>311</ele>
        <time>2021-06-21T07:01:38.523Z</time>
      </trkpt>
      <trkpt lat="43.31055" lon="-1.68466">
        <ele>311</ele>
        <time>2021-06-21T07:01:39.512Z</time>
      </trkpt>
      <trkpt lat="43.31055" lon="-1.68466">
        <ele>311</ele>
        <time>2021-06-21T07:01:40.525Z</time>
      </trkpt>
      <trkpt lat="43.31055" lon="-1.68466">
        <ele>311</ele>
        <time>2021-06-21T07:01:41.528Z</time>
      </trkpt>
      <trkpt lat="43.31055" lon="-1.68466">
        <ele>311</ele>
        <time>2021-06-21T07:01:42.513Z</time>
      </trkpt>
      <trkpt lat="43.31055" lon="-1.68466">
        <ele>311</ele>
        <time>2021-06-21T07:01:43.525Z</time>
      </trkpt>
      <trkpt lat="43.31055" lon="-1.68466">
        <ele>311</ele>
        <time>2021-06-21T07:01:44.512Z</time>
      </trkpt>
      <trkpt lat="43.31055" lon="-1.68466">
        <ele>311</ele>
        <time>2021-06-21T07:01:45.525Z</time>
      </trkpt>
      <trkpt lat="43.31055" lon="-1.68466">
        <ele>311</ele>
        <time>2021-06-21T07:01:46.546Z</time>
      </trkpt>
      <trkpt lat="43.31055" lon="-1.68466">
        <ele>311</ele>
        <time>2021-06-21T07:01:47.523Z</time>
      </trkpt>
      <trkpt lat="43.31055" lon="-1.68466">
        <ele>311</ele>
        <time>2021-06-21T07:01:48.513Z</time>
      </trkpt>
      <trkpt lat="43.31055" lon="-1.68466">
        <ele>311</ele>
        <time>2021-06-21T07:01:49.525Z</time>
      </trkpt>
      <trkpt lat="43.31055" lon="-1.68466">
        <ele>311</ele>
        <time>2021-06-21T07:01:50.511Z</time>
      </trkpt>
      <trkpt lat="43.31055" lon="-1.68466">
        <ele>311</ele>
        <time>2021-06-21T07:01:51.524Z</time>
      </trkpt>
      <trkpt lat="43.31055" lon="-1.68466">
        <ele>311</ele>
        <time>2021-06-21T07:01:52.511Z</time>
      </trkpt>
      <trkpt lat="43.31055" lon="-1.68466">
        <ele>311</ele>
        <time>2021-06-21T07:01:53.547Z</time>
      </trkpt>
      <trkpt lat="43.31055" lon="-1.68466">
        <ele>311</ele>
        <time>2021-06-21T07:01:54.523Z</time>
      </trkpt>
      <trkpt lat="43.31055" lon="-1.68466">
        <ele>311</ele>
        <time>2021-06-21T07:01:55.510Z</time>
      </trkpt>
      <trkpt lat="43.31055" lon="-1.68466">
        <ele>311</ele>
        <time>2021-06-21T07:01:56.527Z</time>
      </trkpt>
      <trkpt lat="43.31055" lon="-1.68466">
        <ele>311</ele>
        <time>2021-06-21T07:01:57.546Z</time>
      </trkpt>
      <trkpt lat="43.31055" lon="-1.68466">
        <ele>311</ele>
        <time>2021-06-21T07:01:58.522Z</time>
      </trkpt>
      <trkpt lat="43.31055" lon="-1.68466">
        <ele>311</ele>
        <time>2021-06-21T07:01:59.547Z</time>
      </trkpt>
      <trkpt lat="43.31055" lon="-1.68466">
        <ele>311</ele>
        <time>2021-06-21T07:02:00.515Z</time>
      </trkpt>
      <trkpt lat="43.31055" lon="-1.68466">
        <ele>311</ele>
        <time>2021-06-21T07:02:01.546Z</time>
      </trkpt>
      <trkpt lat="43.31055" lon="-1.68466">
        <ele>311</ele>
        <time>2021-06-21T07:02:02.519Z</time>
      </trkpt>
      <trkpt lat="43.31055" lon="-1.68466">
        <ele>311</ele>
        <time>2021-06-21T07:02:03.547Z</time>
      </trkpt>
      <trkpt lat="43.31055" lon="-1.68466">
        <ele>311</ele>
        <time>2021-06-21T07:02:04.523Z</time>
      </trkpt>
      <trkpt lat="43.31055" lon="-1.68466">
        <ele>311</ele>
        <time>2021-06-21T07:02:05.511Z</time>
      </trkpt>
      <trkpt lat="43.31055" lon="-1.68466">
        <ele>311</ele>
        <time>2021-06-21T07:02:06.514Z</time>
      </trkpt>
      <trkpt lat="43.31055" lon="-1.68466">
        <ele>311</ele>
        <time>2021-06-21T07:02:07.533Z</time>
      </trkpt>
      <trkpt lat="43.31055" lon="-1.68466">
        <ele>311</ele>
        <time>2021-06-21T07:02:08.513Z</time>
      </trkpt>
      <trkpt lat="43.31055" lon="-1.68466">
        <ele>311</ele>
        <time>2021-06-21T07:02:09.547Z</time>
      </trkpt>
      <trkpt lat="43.31055" lon="-1.68466">
        <ele>311</ele>
        <time>2021-06-21T07:02:10.523Z</time>
      </trkpt>
      <trkpt lat="43.31055" lon="-1.68466">
        <ele>311</ele>
        <time>2021-06-21T07:02:11.547Z</time>
      </trkpt>
      <trkpt lat="43.31055" lon="-1.68466">
        <ele>311</ele>
        <time>2021-06-21T07:02:12.523Z</time>
      </trkpt>
      <trkpt lat="43.31055" lon="-1.68466">
        <ele>311</ele>
        <time>2021-06-21T07:02:13.547Z</time>
      </trkpt>
      <trkpt lat="43.31055" lon="-1.68466">
        <ele>311</ele>
        <time>2021-06-21T07:02:14.523Z</time>
      </trkpt>
      <trkpt lat="43.31055" lon="-1.68466">
        <ele>311</ele>
        <time>2021-06-21T07:02:15.547Z</time>
      </trkpt>
      <trkpt lat="43.31055" lon="-1.68466">
        <ele>311</ele>
        <time>2021-06-21T07:02:16.523Z</time>
      </trkpt>
      <trkpt lat="43.31055" lon="-1.68466">
        <ele>311</ele>
        <time>2021-06-21T07:02:17.547Z</time>
      </trkpt>
      <trkpt lat="43.31055" lon="-1.68466">
        <ele>311</ele>
        <time>2021-06-21T07:02:18.522Z</time>
      </trkpt>
      <trkpt lat="43.31055" lon="-1.68466">
        <ele>311</ele>
        <time>2021-06-21T07:02:19.547Z</time>
      </trkpt>
      <trkpt lat="43.31055" lon="-1.68466">
        <ele>311</ele>
        <time>2021-06-21T07:02:20.523Z</time>
      </trkpt>
      <trkpt lat="43.31055" lon="-1.68466">
        <ele>311</ele>
        <time>2021-06-21T07:02:21.509Z</time>
      </trkpt>
      <trkpt lat="43.31055" lon="-1.68466">
        <ele>311</ele>
        <time>2021-06-21T07:02:22.521Z</time>
      </trkpt>
      <trkpt lat="43.31055" lon="-1.68466">
        <ele>311</ele>
        <time>2021-06-21T07:02:23.547Z</time>
      </trkpt>
      <trkpt lat="43.31055" lon="-1.68466">
        <ele>311</ele>
        <time>2021-06-21T07:02:24.523Z</time>
      </trkpt>
      <trkpt lat="43.31055" lon="-1.68466">
        <ele>311</ele>
        <time>2021-06-21T07:02:25.510Z</time>
      </trkpt>
      <trkpt lat="43.31055" lon="-1.68466">
        <ele>311</ele>
        <time>2021-06-21T07:02:26.527Z</time>
      </trkpt>
      <trkpt lat="43.31055" lon="-1.68466">
        <ele>311</ele>
        <time>2021-06-21T07:02:27.547Z</time>
      </trkpt>
      <trkpt lat="43.31055" lon="-1.68466">
        <ele>311</ele>
        <time>2021-06-21T07:02:28.524Z</time>
      </trkpt>
      <trkpt lat="43.31055" lon="-1.68466">
        <ele>311</ele>
        <time>2021-06-21T07:02:29.547Z</time>
      </trkpt>
      <trkpt lat="43.31055" lon="-1.68466">
        <ele>311</ele>
        <time>2021-06-21T07:02:30.526Z</time>
      </trkpt>
      <trkpt lat="43.31055" lon="-1.68466">
        <ele>311</ele>
        <time>2021-06-21T07:02:31.547Z</time>
      </trkpt>
      <trkpt lat="43.31055" lon="-1.68466">
        <ele>311</ele>
        <time>2021-06-21T07:02:32.519Z</time>
      </trkpt>
      <trkpt lat="43.31055" lon="-1.68466">
        <ele>311</ele>
        <time>2021-06-21T07:02:33.532Z</time>
      </trkpt>
      <trkpt lat="43.31055" lon="-1.68466">
        <ele>311</ele>
        <time>2021-06-21T07:02:34.510Z</time>
      </trkpt>
      <trkpt lat="43.31055" lon="-1.68466">
        <ele>311</ele>
        <time>2021-06-21T07:02:35.525Z</time>
      </trkpt>
      <trkpt lat="43.31055" lon="-1.68466">
        <ele>311</ele>
        <time>2021-06-21T07:02:36.513Z</time>
      </trkpt>
      <trkpt lat="43.31055" lon="-1.68466">
        <ele>311</ele>
        <time>2021-06-21T07:02:37.547Z</time>
      </trkpt>
      <trkpt lat="43.31055" lon="-1.68466">
        <ele>311</ele>
        <time>2021-06-21T07:02:38.523Z</time>
      </trkpt>
      <trkpt lat="43.31055" lon="-1.68466">
        <ele>311</ele>
        <time>2021-06-21T07:02:39.547Z</time>
      </trkpt>
      <trkpt lat="43.31055" lon="-1.68466">
        <ele>311</ele>
        <time>2021-06-21T07:02:40.523Z</time>
      </trkpt>
      <trkpt lat="43.31055" lon="-1.68466">
        <ele>311</ele>
        <time>2021-06-21T07:02:41.509Z</time>
      </trkpt>
      <trkpt lat="43.31048" lon="-1.68463">
        <ele>306</ele>
        <time>2021-06-21T07:02:42.526Z</time>
      </trkpt>
      <trkpt lat="43.31048" lon="-1.68463">
        <ele>306</ele>
        <time>2021-06-21T07:02:43.544Z</time>
      </trkpt>
      <trkpt lat="43.31043" lon="-1.68461">
        <ele>306</ele>
        <time>2021-06-21T07:02:44.556Z</time>
      </trkpt>
      <trkpt lat="43.31042" lon="-1.68462">
        <ele>306</ele>
        <time>2021-06-21T07:02:45.515Z</time>
      </trkpt>
      <trkpt lat="43.31042" lon="-1.68462">
        <ele>306</ele>
        <time>2021-06-21T07:02:46.535Z</time>
      </trkpt>
      <trkpt lat="43.31039" lon="-1.68461">
        <ele>306</ele>
        <time>2021-06-21T07:02:47.541Z</time>
      </trkpt>
      <trkpt lat="43.31037" lon="-1.6846">
        <ele>306</ele>
        <time>2021-06-21T07:02:48.514Z</time>
      </trkpt>
      <trkpt lat="43.31037" lon="-1.6846">
        <ele>306</ele>
        <time>2021-06-21T07:02:49.535Z</time>
      </trkpt>
      <trkpt lat="43.31034" lon="-1.68459">
        <ele>306</ele>
        <time>2021-06-21T07:02:50.541Z</time>
      </trkpt>
      <trkpt lat="43.31034" lon="-1.68459">
        <ele>306</ele>
        <time>2021-06-21T07:02:51.516Z</time>
      </trkpt>
      <trkpt lat="43.3103" lon="-1.68458">
        <ele>306</ele>
        <time>2021-06-21T07:02:52.529Z</time>
      </trkpt>
      <trkpt lat="43.3103" lon="-1.68458">
        <ele>306</ele>
        <time>2021-06-21T07:02:53.529Z</time>
      </trkpt>
      <trkpt lat="43.31026" lon="-1.68456">
        <ele>306</ele>
        <time>2021-06-21T07:02:54.542Z</time>
      </trkpt>
      <trkpt lat="43.31026" lon="-1.68456">
        <ele>306</ele>
        <time>2021-06-21T07:02:55.540Z</time>
      </trkpt>
      <trkpt lat="43.31022" lon="-1.68454">
        <ele>306</ele>
        <time>2021-06-21T07:02:56.509Z</time>
      </trkpt>
      <trkpt lat="43.31022" lon="-1.68454">
        <ele>306</ele>
        <time>2021-06-21T07:02:57.522Z</time>
      </trkpt>
      <trkpt lat="43.31018" lon="-1.68451">
        <ele>307</ele>
        <time>2021-06-21T07:02:58.600Z</time>
      </trkpt>
      <trkpt lat="43.31018" lon="-1.68451">
        <ele>307</ele>
        <time>2021-06-21T07:02:59.533Z</time>
      </trkpt>
      <trkpt lat="43.31014" lon="-1.6845">
        <ele>307</ele>
        <time>2021-06-21T07:03:00.510Z</time>
      </trkpt>
      <trkpt lat="43.31014" lon="-1.6845">
        <ele>307</ele>
        <time>2021-06-21T07:03:01.525Z</time>
      </trkpt>
      <trkpt lat="43.3101" lon="-1.68448">
        <ele>307</ele>
        <time>2021-06-21T07:03:02.531Z</time>
      </trkpt>
      <trkpt lat="43.31008" lon="-1.68447">
        <ele>307</ele>
        <time>2021-06-21T07:03:03.548Z</time>
      </trkpt>
      <trkpt lat="43.31008" lon="-1.68447">
        <ele>307</ele>
        <time>2021-06-21T07:03:04.527Z</time>
      </trkpt>
      <trkpt lat="43.31003" lon="-1.68445">
        <ele>308</ele>
        <time>2021-06-21T07:03:05.536Z</time>
      </trkpt>
      <trkpt lat="43.31001" lon="-1.68444">
        <ele>308</ele>
        <time>2021-06-21T07:03:06.525Z</time>
      </trkpt>
      <trkpt lat="43.31001" lon="-1.68444">
        <ele>308</ele>
        <time>2021-06-21T07:03:07.536Z</time>
      </trkpt>
      <trkpt lat="43.30997" lon="-1.68443">
        <ele>308</ele>
        <time>2021-06-21T07:03:08.543Z</time>
      </trkpt>
      <trkpt lat="43.30997" lon="-1.68443">
        <ele>308</ele>
        <time>2021-06-21T07:03:09.538Z</time>
      </trkpt>
      <trkpt lat="43.30992" lon="-1.68441">
        <ele>308</ele>
        <time>2021-06-21T07:03:10.544Z</time>
      </trkpt>
      <trkpt lat="43.3099" lon="-1.68441">
        <ele>308</ele>
        <time>2021-06-21T07:03:11.527Z</time>
      </trkpt>
      <trkpt lat="43.30988" lon="-1.6844">
        <ele>309</ele>
        <time>2021-06-21T07:03:12.549Z</time>
      </trkpt>
      <trkpt lat="43.30988" lon="-1.6844">
        <ele>309</ele>
        <time>2021-06-21T07:03:13.533Z</time>
      </trkpt>
      <trkpt lat="43.30983" lon="-1.68438">
        <ele>309</ele>
        <time>2021-06-21T07:03:14.542Z</time>
      </trkpt>
      <trkpt lat="43.30983" lon="-1.68438">
        <ele>309</ele>
        <time>2021-06-21T07:03:15.540Z</time>
      </trkpt>
      <trkpt lat="43.30979" lon="-1.68438">
        <ele>309</ele>
        <time>2021-06-21T07:03:16.513Z</time>
      </trkpt>
      <trkpt lat="43.30979" lon="-1.68438">
        <ele>309</ele>
        <time>2021-06-21T07:03:17.529Z</time>
      </trkpt>
      <trkpt lat="43.30975" lon="-1.6844">
        <ele>309</ele>
        <time>2021-06-21T07:03:18.539Z</time>
      </trkpt>
      <trkpt lat="43.30975" lon="-1.6844">
        <ele>309</ele>
        <time>2021-06-21T07:03:19.512Z</time>
      </trkpt>
      <trkpt lat="43.30971" lon="-1.68445">
        <ele>309</ele>
        <time>2021-06-21T07:03:20.525Z</time>
      </trkpt>
      <trkpt lat="43.30969" lon="-1.68448">
        <ele>309</ele>
        <time>2021-06-21T07:03:21.546Z</time>
      </trkpt>
      <trkpt lat="43.30969" lon="-1.68448">
        <ele>309</ele>
        <time>2021-06-21T07:03:22.530Z</time>
      </trkpt>
      <trkpt lat="43.30966" lon="-1.68453">
        <ele>310</ele>
        <time>2021-06-21T07:03:23.546Z</time>
      </trkpt>
      <trkpt lat="43.30965" lon="-1.68455">
        <ele>310</ele>
        <time>2021-06-21T07:03:24.530Z</time>
      </trkpt>
      <trkpt lat="43.30965" lon="-1.68455">
        <ele>310</ele>
        <time>2021-06-21T07:03:25.515Z</time>
      </trkpt>
      <trkpt lat="43.30962" lon="-1.68459">
        <ele>310</ele>
        <time>2021-06-21T07:03:26.525Z</time>
      </trkpt>
      <trkpt lat="43.30962" lon="-1.68459">
        <ele>310</ele>
        <time>2021-06-21T07:03:27.518Z</time>
      </trkpt>
      <trkpt lat="43.30961" lon="-1.68463">
        <ele>311</ele>
        <time>2021-06-21T07:03:28.524Z</time>
      </trkpt>
      <trkpt lat="43.30961" lon="-1.68463">
        <ele>311</ele>
        <time>2021-06-21T07:03:29.538Z</time>
      </trkpt>
      <trkpt lat="43.3096" lon="-1.68465">
        <ele>311</ele>
        <time>2021-06-21T07:03:30.547Z</time>
      </trkpt>
      <trkpt lat="43.3096" lon="-1.68465">
        <ele>311</ele>
        <time>2021-06-21T07:03:31.531Z</time>
      </trkpt>
      <trkpt lat="43.30961" lon="-1.68465">
        <ele>312</ele>
        <time>2021-06-21T07:03:32.542Z</time>
      </trkpt>
      <trkpt lat="43.30961" lon="-1.68465">
        <ele>312</ele>
        <time>2021-06-21T07:03:33.519Z</time>
      </trkpt>
      <trkpt lat="43.30961" lon="-1.68465">
        <ele>312</ele>
        <time>2021-06-21T07:03:34.525Z</time>
      </trkpt>
      <trkpt lat="43.30961" lon="-1.68465">
        <ele>312</ele>
        <time>2021-06-21T07:03:35.533Z</time>
      </trkpt>
      <trkpt lat="43.30961" lon="-1.68465">
        <ele>312</ele>
        <time>2021-06-21T07:03:36.515Z</time>
      </trkpt>
      <trkpt lat="43.30961" lon="-1.68465">
        <ele>312</ele>
        <time>2021-06-21T07:03:37.524Z</time>
      </trkpt>
      <trkpt lat="43.30961" lon="-1.68465">
        <ele>312</ele>
        <time>2021-06-21T07:03:38.548Z</time>
      </trkpt>
      <trkpt lat="43.30961" lon="-1.68465">
        <ele>312</ele>
        <time>2021-06-21T07:03:39.524Z</time>
      </trkpt>
      <trkpt lat="43.30961" lon="-1.68465">
        <ele>312</ele>
        <time>2021-06-21T07:03:40.548Z</time>
      </trkpt>
      <trkpt lat="43.30961" lon="-1.68465">
        <ele>312</ele>
        <time>2021-06-21T07:03:41.524Z</time>
      </trkpt>
      <trkpt lat="43.30961" lon="-1.68465">
        <ele>312</ele>
        <time>2021-06-21T07:03:42.515Z</time>
      </trkpt>
      <trkpt lat="43.30961" lon="-1.68465">
        <ele>312</ele>
        <time>2021-06-21T07:03:43.548Z</time>
      </trkpt>
      <trkpt lat="43.3096" lon="-1.68467">
        <ele>314</ele>
        <time>2021-06-21T07:03:44.524Z</time>
      </trkpt>
      <trkpt lat="43.3096" lon="-1.68467">
        <ele>314</ele>
        <time>2021-06-21T07:03:45.548Z</time>
      </trkpt>
      <trkpt lat="43.30961" lon="-1.68464">
        <ele>314</ele>
        <time>2021-06-21T07:03:46.524Z</time>
      </trkpt>
      <trkpt lat="43.30961" lon="-1.68464">
        <ele>314</ele>
        <time>2021-06-21T07:03:47.549Z</time>
      </trkpt>
      <trkpt lat="43.30962" lon="-1.68458">
        <ele>314</ele>
        <time>2021-06-21T07:03:48.524Z</time>
      </trkpt>
      <trkpt lat="43.30962" lon="-1.68458">
        <ele>314</ele>
        <time>2021-06-21T07:03:49.548Z</time>
      </trkpt>
      <trkpt lat="43.30964" lon="-1.68452">
        <ele>313</ele>
        <time>2021-06-21T07:03:50.524Z</time>
      </trkpt>
      <trkpt lat="43.30964" lon="-1.68448">
        <ele>313</ele>
        <time>2021-06-21T07:03:51.562Z</time>
      </trkpt>
      <trkpt lat="43.30964" lon="-1.68448">
        <ele>313</ele>
        <time>2021-06-21T07:03:52.547Z</time>
      </trkpt>
      <trkpt lat="43.30965" lon="-1.68441">
        <ele>313</ele>
        <time>2021-06-21T07:03:53.512Z</time>
      </trkpt>
      <trkpt lat="43.30965" lon="-1.68438">
        <ele>313</ele>
        <time>2021-06-21T07:03:54.531Z</time>
      </trkpt>
      <trkpt lat="43.30965" lon="-1.68438">
        <ele>313</ele>
        <time>2021-06-21T07:03:55.542Z</time>
      </trkpt>
      <trkpt lat="43.30962" lon="-1.68433">
        <ele>312</ele>
        <time>2021-06-21T07:03:56.515Z</time>
      </trkpt>
      <trkpt lat="43.30962" lon="-1.68433">
        <ele>312</ele>
        <time>2021-06-21T07:03:57.512Z</time>
      </trkpt>
      <trkpt lat="43.30957" lon="-1.68429">
        <ele>312</ele>
        <time>2021-06-21T07:03:58.518Z</time>
      </trkpt>
      <trkpt lat="43.30957" lon="-1.68429">
        <ele>312</ele>
        <time>2021-06-21T07:03:59.537Z</time>
      </trkpt>
      <trkpt lat="43.30951" lon="-1.68427">
        <ele>312</ele>
        <time>2021-06-21T07:04:00.545Z</time>
      </trkpt>
      <trkpt lat="43.30951" lon="-1.68427">
        <ele>312</ele>
        <time>2021-06-21T07:04:01.530Z</time>
      </trkpt>
      <trkpt lat="43.30944" lon="-1.68425">
        <ele>311</ele>
        <time>2021-06-21T07:04:02.545Z</time>
      </trkpt>
      <trkpt lat="43.30939" lon="-1.68424">
        <ele>311</ele>
        <time>2021-06-21T07:04:03.515Z</time>
      </trkpt>
      <trkpt lat="43.30939" lon="-1.68424">
        <ele>311</ele>
        <time>2021-06-21T07:04:04.537Z</time>
      </trkpt>
      <trkpt lat="43.30931" lon="-1.68424">
        <ele>311</ele>
        <time>2021-06-21T07:04:05.546Z</time>
      </trkpt>
      <trkpt lat="43.30927" lon="-1.68425">
        <ele>310</ele>
        <time>2021-06-21T07:04:06.536Z</time>
      </trkpt>
      <trkpt lat="43.30927" lon="-1.68425">
        <ele>310</ele>
        <time>2021-06-21T07:04:07.511Z</time>
      </trkpt>
      <trkpt lat="43.3092" lon="-1.68429">
        <ele>310</ele>
        <time>2021-06-21T07:04:08.518Z</time>
      </trkpt>
      <trkpt lat="43.3092" lon="-1.68429">
        <ele>310</ele>
        <time>2021-06-21T07:04:09.540Z</time>
      </trkpt>
      <trkpt lat="43.30914" lon="-1.68435">
        <ele>310</ele>
        <time>2021-06-21T07:04:10.549Z</time>
      </trkpt>
      <trkpt lat="43.30914" lon="-1.68435">
        <ele>310</ele>
        <time>2021-06-21T07:04:11.523Z</time>
      </trkpt>
      <trkpt lat="43.30909" lon="-1.68447">
        <ele>310</ele>
        <time>2021-06-21T07:04:12.534Z</time>
      </trkpt>
      <trkpt lat="43.30909" lon="-1.68447">
        <ele>310</ele>
        <time>2021-06-21T07:04:13.513Z</time>
      </trkpt>
      <trkpt lat="43.30903" lon="-1.68459">
        <ele>309</ele>
        <time>2021-06-21T07:04:14.520Z</time>
      </trkpt>
      <trkpt lat="43.30903" lon="-1.68459">
        <ele>309</ele>
        <time>2021-06-21T07:04:15.512Z</time>
      </trkpt>
      <trkpt lat="43.30898" lon="-1.6847">
        <ele>308</ele>
        <time>2021-06-21T07:04:16.518Z</time>
      </trkpt>
      <trkpt lat="43.30895" lon="-1.68475">
        <ele>308</ele>
        <time>2021-06-21T07:04:17.518Z</time>
      </trkpt>
      <trkpt lat="43.30892" lon="-1.68481">
        <ele>308</ele>
        <time>2021-06-21T07:04:18.532Z</time>
      </trkpt>
      <trkpt lat="43.30892" lon="-1.68481">
        <ele>308</ele>
        <time>2021-06-21T07:04:19.516Z</time>
      </trkpt>
      <trkpt lat="43.30884" lon="-1.6849">
        <ele>307</ele>
        <time>2021-06-21T07:04:20.527Z</time>
      </trkpt>
      <trkpt lat="43.30884" lon="-1.6849">
        <ele>307</ele>
        <time>2021-06-21T07:04:21.511Z</time>
      </trkpt>
      <trkpt lat="43.30877" lon="-1.68497">
        <ele>306</ele>
        <time>2021-06-21T07:04:22.543Z</time>
      </trkpt>
      <trkpt lat="43.30877" lon="-1.68497">
        <ele>306</ele>
        <time>2021-06-21T07:04:23.516Z</time>
      </trkpt>
      <trkpt lat="43.30871" lon="-1.68505">
        <ele>305</ele>
        <time>2021-06-21T07:04:24.526Z</time>
      </trkpt>
      <trkpt lat="43.30871" lon="-1.68505">
        <ele>305</ele>
        <time>2021-06-21T07:04:25.543Z</time>
      </trkpt>
      <trkpt lat="43.30866" lon="-1.68516">
        <ele>305</ele>
        <time>2021-06-21T07:04:26.511Z</time>
      </trkpt>
      <trkpt lat="43.30866" lon="-1.68516">
        <ele>305</ele>
        <time>2021-06-21T07:04:27.541Z</time>
      </trkpt>
      <trkpt lat="43.30863" lon="-1.68528">
        <ele>304</ele>
        <time>2021-06-21T07:04:28.511Z</time>
      </trkpt>
      <trkpt lat="43.30861" lon="-1.68534">
        <ele>304</ele>
        <time>2021-06-21T07:04:29.529Z</time>
      </trkpt>
      <trkpt lat="43.3086" lon="-1.68542">
        <ele>304</ele>
        <time>2021-06-21T07:04:30.521Z</time>
      </trkpt>
      <trkpt lat="43.3086" lon="-1.68542">
        <ele>304</ele>
        <time>2021-06-21T07:04:31.530Z</time>
      </trkpt>
      <trkpt lat="43.30859" lon="-1.68558">
        <ele>303</ele>
        <time>2021-06-21T07:04:32.541Z</time>
      </trkpt>
      <trkpt lat="43.30859" lon="-1.68565">
        <ele>303</ele>
        <time>2021-06-21T07:04:33.515Z</time>
      </trkpt>
      <trkpt lat="43.30859" lon="-1.68565">
        <ele>303</ele>
        <time>2021-06-21T07:04:34.526Z</time>
      </trkpt>
      <trkpt lat="43.3086" lon="-1.6858">
        <ele>302</ele>
        <time>2021-06-21T07:04:35.533Z</time>
      </trkpt>
      <trkpt lat="43.3086" lon="-1.68585">
        <ele>302</ele>
        <time>2021-06-21T07:04:36.512Z</time>
      </trkpt>
      <trkpt lat="43.3086" lon="-1.68585">
        <ele>302</ele>
        <time>2021-06-21T07:04:37.544Z</time>
      </trkpt>
      <trkpt lat="43.3086" lon="-1.68595">
        <ele>301</ele>
        <time>2021-06-21T07:04:38.510Z</time>
      </trkpt>
      <trkpt lat="43.3086" lon="-1.68595">
        <ele>301</ele>
        <time>2021-06-21T07:04:39.534Z</time>
      </trkpt>
      <trkpt lat="43.3086" lon="-1.68595">
        <ele>301</ele>
        <time>2021-06-21T07:04:40.577Z</time>
      </trkpt>
      <trkpt lat="43.30859" lon="-1.68605">
        <ele>300</ele>
        <time>2021-06-21T07:04:41.518Z</time>
      </trkpt>
      <trkpt lat="43.30855" lon="-1.68614">
        <ele>299</ele>
        <time>2021-06-21T07:04:42.527Z</time>
      </trkpt>
      <trkpt lat="43.30855" lon="-1.68614">
        <ele>299</ele>
        <time>2021-06-21T07:04:43.546Z</time>
      </trkpt>
      <trkpt lat="43.30849" lon="-1.6862">
        <ele>298</ele>
        <time>2021-06-21T07:04:44.514Z</time>
      </trkpt>
      <trkpt lat="43.30849" lon="-1.6862">
        <ele>298</ele>
        <time>2021-06-21T07:04:45.544Z</time>
      </trkpt>
      <trkpt lat="43.30841" lon="-1.68626">
        <ele>297</ele>
        <time>2021-06-21T07:04:46.511Z</time>
      </trkpt>
      <trkpt lat="43.30841" lon="-1.68626">
        <ele>297</ele>
        <time>2021-06-21T07:04:47.509Z</time>
      </trkpt>
      <trkpt lat="43.30831" lon="-1.68632">
        <ele>297</ele>
        <time>2021-06-21T07:04:48.519Z</time>
      </trkpt>
      <trkpt lat="43.30831" lon="-1.68632">
        <ele>297</ele>
        <time>2021-06-21T07:04:49.520Z</time>
      </trkpt>
      <trkpt lat="43.30821" lon="-1.68638">
        <ele>296</ele>
        <time>2021-06-21T07:04:50.528Z</time>
      </trkpt>
      <trkpt lat="43.30815" lon="-1.6864">
        <ele>296</ele>
        <time>2021-06-21T07:04:51.510Z</time>
      </trkpt>
      <trkpt lat="43.30815" lon="-1.6864">
        <ele>296</ele>
        <time>2021-06-21T07:04:52.541Z</time>
      </trkpt>
      <trkpt lat="43.30806" lon="-1.68642">
        <ele>295</ele>
        <time>2021-06-21T07:04:53.548Z</time>
      </trkpt>
      <trkpt lat="43.30801" lon="-1.68643">
        <ele>294</ele>
        <time>2021-06-21T07:04:54.525Z</time>
      </trkpt>
      <trkpt lat="43.30801" lon="-1.68643">
        <ele>294</ele>
        <time>2021-06-21T07:04:55.513Z</time>
      </trkpt>
      <trkpt lat="43.30798" lon="-1.68647">
        <ele>294</ele>
        <time>2021-06-21T07:04:56.525Z</time>
      </trkpt>
      <trkpt lat="43.30798" lon="-1.68647">
        <ele>294</ele>
        <time>2021-06-21T07:04:57.528Z</time>
      </trkpt>
      <trkpt lat="43.30791" lon="-1.68652">
        <ele>294</ele>
        <time>2021-06-21T07:04:58.542Z</time>
      </trkpt>
      <trkpt lat="43.30791" lon="-1.68652">
        <ele>294</ele>
        <time>2021-06-21T07:04:59.514Z</time>
      </trkpt>
      <trkpt lat="43.30785" lon="-1.6866">
        <ele>293</ele>
        <time>2021-06-21T07:05:00.586Z</time>
      </trkpt>
      <trkpt lat="43.30785" lon="-1.6866">
        <ele>293</ele>
        <time>2021-06-21T07:05:01.544Z</time>
      </trkpt>
      <trkpt lat="43.30778" lon="-1.68671">
        <ele>293</ele>
        <time>2021-06-21T07:05:02.511Z</time>
      </trkpt>
      <trkpt lat="43.30778" lon="-1.68671">
        <ele>293</ele>
        <time>2021-06-21T07:05:03.532Z</time>
      </trkpt>
      <trkpt lat="43.30774" lon="-1.68684">
        <ele>292</ele>
        <time>2021-06-21T07:05:04.547Z</time>
      </trkpt>
      <trkpt lat="43.30774" lon="-1.68684">
        <ele>292</ele>
        <time>2021-06-21T07:05:05.534Z</time>
      </trkpt>
      <trkpt lat="43.3077" lon="-1.68696">
        <ele>292</ele>
        <time>2021-06-21T07:05:06.545Z</time>
      </trkpt>
      <trkpt lat="43.3077" lon="-1.68696">
        <ele>292</ele>
        <time>2021-06-21T07:05:07.535Z</time>
      </trkpt>
      <trkpt lat="43.3077" lon="-1.68696">
        <ele>292</ele>
        <time>2021-06-21T07:05:08.546Z</time>
      </trkpt>
      <trkpt lat="43.30767" lon="-1.68713">
        <ele>291</ele>
        <time>2021-06-21T07:05:09.543Z</time>
      </trkpt>
      <trkpt lat="43.30767" lon="-1.68713">
        <ele>291</ele>
        <time>2021-06-21T07:05:10.527Z</time>
      </trkpt>
      <trkpt lat="43.30767" lon="-1.68726">
        <ele>290</ele>
        <time>2021-06-21T07:05:11.534Z</time>
      </trkpt>
      <trkpt lat="43.30766" lon="-1.68732">
        <ele>290</ele>
        <time>2021-06-21T07:05:12.512Z</time>
      </trkpt>
      <trkpt lat="43.30766" lon="-1.68732">
        <ele>290</ele>
        <time>2021-06-21T07:05:13.545Z</time>
      </trkpt>
      <trkpt lat="43.30767" lon="-1.68743">
        <ele>290</ele>
        <time>2021-06-21T07:05:14.527Z</time>
      </trkpt>
      <trkpt lat="43.30767" lon="-1.68743">
        <ele>290</ele>
        <time>2021-06-21T07:05:15.539Z</time>
      </trkpt>
      <trkpt lat="43.3077" lon="-1.68752">
        <ele>289</ele>
        <time>2021-06-21T07:05:16.517Z</time>
      </trkpt>
      <trkpt lat="43.3077" lon="-1.68752">
        <ele>289</ele>
        <time>2021-06-21T07:05:17.532Z</time>
      </trkpt>
      <trkpt lat="43.30775" lon="-1.6876">
        <ele>288</ele>
        <time>2021-06-21T07:05:18.537Z</time>
      </trkpt>
      <trkpt lat="43.30775" lon="-1.6876">
        <ele>288</ele>
        <time>2021-06-21T07:05:19.512Z</time>
      </trkpt>
      <trkpt lat="43.30782" lon="-1.68768">
        <ele>288</ele>
        <time>2021-06-21T07:05:20.519Z</time>
      </trkpt>
      <trkpt lat="43.30782" lon="-1.68768">
        <ele>288</ele>
        <time>2021-06-21T07:05:21.511Z</time>
      </trkpt>
      <trkpt lat="43.30789" lon="-1.68776">
        <ele>288</ele>
        <time>2021-06-21T07:05:22.553Z</time>
      </trkpt>
      <trkpt lat="43.30789" lon="-1.68776">
        <ele>288</ele>
        <time>2021-06-21T07:05:23.510Z</time>
      </trkpt>
      <trkpt lat="43.30796" lon="-1.68784">
        <ele>287</ele>
        <time>2021-06-21T07:05:24.516Z</time>
      </trkpt>
      <trkpt lat="43.30796" lon="-1.68784">
        <ele>287</ele>
        <time>2021-06-21T07:05:25.529Z</time>
      </trkpt>
      <trkpt lat="43.30802" lon="-1.6879">
        <ele>287</ele>
        <time>2021-06-21T07:05:26.537Z</time>
      </trkpt>
      <trkpt lat="43.30802" lon="-1.6879">
        <ele>287</ele>
        <time>2021-06-21T07:05:27.547Z</time>
      </trkpt>
      <trkpt lat="43.30808" lon="-1.68796">
        <ele>286</ele>
        <time>2021-06-21T07:05:28.515Z</time>
      </trkpt>
      <trkpt lat="43.30811" lon="-1.68798">
        <ele>286</ele>
        <time>2021-06-21T07:05:29.527Z</time>
      </trkpt>
      <trkpt lat="43.30814" lon="-1.68801">
        <ele>286</ele>
        <time>2021-06-21T07:05:30.509Z</time>
      </trkpt>
      <trkpt lat="43.30814" lon="-1.68801">
        <ele>286</ele>
        <time>2021-06-21T07:05:31.532Z</time>
      </trkpt>
      <trkpt lat="43.30821" lon="-1.68803">
        <ele>286</ele>
        <time>2021-06-21T07:05:32.509Z</time>
      </trkpt>
      <trkpt lat="43.30821" lon="-1.68803">
        <ele>286</ele>
        <time>2021-06-21T07:05:33.511Z</time>
      </trkpt>
      <trkpt lat="43.30827" lon="-1.68803">
        <ele>286</ele>
        <time>2021-06-21T07:05:34.559Z</time>
      </trkpt>
      <trkpt lat="43.30827" lon="-1.68803">
        <ele>286</ele>
        <time>2021-06-21T07:05:35.548Z</time>
      </trkpt>
      <trkpt lat="43.30834" lon="-1.68802">
        <ele>285</ele>
        <time>2021-06-21T07:05:36.515Z</time>
      </trkpt>
      <trkpt lat="43.30838" lon="-1.68801">
        <ele>285</ele>
        <time>2021-06-21T07:05:37.564Z</time>
      </trkpt>
      <trkpt lat="43.30838" lon="-1.68801">
        <ele>285</ele>
        <time>2021-06-21T07:05:38.536Z</time>
      </trkpt>
      <trkpt lat="43.30845" lon="-1.68802">
        <ele>285</ele>
        <time>2021-06-21T07:05:39.549Z</time>
      </trkpt>
      <trkpt lat="43.30845" lon="-1.68802">
        <ele>285</ele>
        <time>2021-06-21T07:05:40.524Z</time>
      </trkpt>
      <trkpt lat="43.30849" lon="-1.68806">
        <ele>285</ele>
        <time>2021-06-21T07:05:41.531Z</time>
      </trkpt>
      <trkpt lat="43.30851" lon="-1.68809">
        <ele>286</ele>
        <time>2021-06-21T07:05:42.548Z</time>
      </trkpt>
      <trkpt lat="43.30851" lon="-1.68809">
        <ele>286</ele>
        <time>2021-06-21T07:05:43.518Z</time>
      </trkpt>
      <trkpt lat="43.30853" lon="-1.68819">
        <ele>286</ele>
        <time>2021-06-21T07:05:44.525Z</time>
      </trkpt>
      <trkpt lat="43.30853" lon="-1.68819">
        <ele>286</ele>
        <time>2021-06-21T07:05:45.543Z</time>
      </trkpt>
      <trkpt lat="43.30853" lon="-1.68829">
        <ele>286</ele>
        <time>2021-06-21T07:05:46.511Z</time>
      </trkpt>
      <trkpt lat="43.30853" lon="-1.68829">
        <ele>286</ele>
        <time>2021-06-21T07:05:47.524Z</time>
      </trkpt>
      <trkpt lat="43.30854" lon="-1.68837">
        <ele>286</ele>
        <time>2021-06-21T07:05:48.530Z</time>
      </trkpt>
      <trkpt lat="43.30854" lon="-1.68837">
        <ele>286</ele>
        <time>2021-06-21T07:05:49.526Z</time>
      </trkpt>
      <trkpt lat="43.30858" lon="-1.68845">
        <ele>286</ele>
        <time>2021-06-21T07:05:50.532Z</time>
      </trkpt>
      <trkpt lat="43.30858" lon="-1.68845">
        <ele>286</ele>
        <time>2021-06-21T07:05:51.509Z</time>
      </trkpt>
      <trkpt lat="43.30862" lon="-1.68854">
        <ele>286</ele>
        <time>2021-06-21T07:05:52.541Z</time>
      </trkpt>
      <trkpt lat="43.30862" lon="-1.68854">
        <ele>286</ele>
        <time>2021-06-21T07:05:53.522Z</time>
      </trkpt>
      <trkpt lat="43.30868" lon="-1.68863">
        <ele>286</ele>
        <time>2021-06-21T07:05:54.529Z</time>
      </trkpt>
      <trkpt lat="43.30868" lon="-1.68863">
        <ele>286</ele>
        <time>2021-06-21T07:05:55.526Z</time>
      </trkpt>
      <trkpt lat="43.30872" lon="-1.68874">
        <ele>286</ele>
        <time>2021-06-21T07:05:56.533Z</time>
      </trkpt>
      <trkpt lat="43.30872" lon="-1.68874">
        <ele>286</ele>
        <time>2021-06-21T07:05:57.511Z</time>
      </trkpt>
      <trkpt lat="43.30879" lon="-1.68885">
        <ele>285</ele>
        <time>2021-06-21T07:05:58.518Z</time>
      </trkpt>
      <trkpt lat="43.30879" lon="-1.68885">
        <ele>285</ele>
        <time>2021-06-21T07:05:59.545Z</time>
      </trkpt>
      <trkpt lat="43.30884" lon="-1.68894">
        <ele>285</ele>
        <time>2021-06-21T07:06:00.511Z</time>
      </trkpt>
      <trkpt lat="43.30884" lon="-1.68894">
        <ele>285</ele>
        <time>2021-06-21T07:06:01.544Z</time>
      </trkpt>
      <trkpt lat="43.30887" lon="-1.68901">
        <ele>284</ele>
        <time>2021-06-21T07:06:02.509Z</time>
      </trkpt>
      <trkpt lat="43.30888" lon="-1.68906">
        <ele>284</ele>
        <time>2021-06-21T07:06:03.527Z</time>
      </trkpt>
      <trkpt lat="43.30888" lon="-1.68906">
        <ele>284</ele>
        <time>2021-06-21T07:06:04.542Z</time>
      </trkpt>
      <trkpt lat="43.3089" lon="-1.68912">
        <ele>284</ele>
        <time>2021-06-21T07:06:05.549Z</time>
      </trkpt>
      <trkpt lat="43.3089" lon="-1.68916">
        <ele>284</ele>
        <time>2021-06-21T07:06:06.529Z</time>
      </trkpt>
      <trkpt lat="43.3089" lon="-1.68916">
        <ele>284</ele>
        <time>2021-06-21T07:06:07.511Z</time>
      </trkpt>
      <trkpt lat="43.30889" lon="-1.68922">
        <ele>283</ele>
        <time>2021-06-21T07:06:08.530Z</time>
      </trkpt>
      <trkpt lat="43.30889" lon="-1.68922">
        <ele>283</ele>
        <time>2021-06-21T07:06:09.509Z</time>
      </trkpt>
      <trkpt lat="43.30885" lon="-1.68929">
        <ele>283</ele>
        <time>2021-06-21T07:06:10.535Z</time>
      </trkpt>
      <trkpt lat="43.30885" lon="-1.6893">
        <ele>283</ele>
        <time>2021-06-21T07:06:11.525Z</time>
      </trkpt>
      <trkpt lat="43.30884" lon="-1.68931">
        <ele>283</ele>
        <time>2021-06-21T07:06:12.538Z</time>
      </trkpt>
      <trkpt lat="43.30884" lon="-1.68931">
        <ele>283</ele>
        <time>2021-06-21T07:06:13.515Z</time>
      </trkpt>
      <trkpt lat="43.30884" lon="-1.68933">
        <ele>284</ele>
        <time>2021-06-21T07:06:14.521Z</time>
      </trkpt>
      <trkpt lat="43.30884" lon="-1.68933">
        <ele>284</ele>
        <time>2021-06-21T07:06:15.543Z</time>
      </trkpt>
      <trkpt lat="43.30884" lon="-1.68933">
        <ele>284</ele>
        <time>2021-06-21T07:06:16.509Z</time>
      </trkpt>
      <trkpt lat="43.30884" lon="-1.68933">
        <ele>284</ele>
        <time>2021-06-21T07:06:17.531Z</time>
      </trkpt>
      <trkpt lat="43.30884" lon="-1.68933">
        <ele>284</ele>
        <time>2021-06-21T07:06:18.518Z</time>
      </trkpt>
      <trkpt lat="43.30884" lon="-1.68933">
        <ele>284</ele>
        <time>2021-06-21T07:06:19.532Z</time>
      </trkpt>
      <trkpt lat="43.30884" lon="-1.68933">
        <ele>284</ele>
        <time>2021-06-21T07:06:20.517Z</time>
      </trkpt>
      <trkpt lat="43.30884" lon="-1.68933">
        <ele>284</ele>
        <time>2021-06-21T07:06:21.511Z</time>
      </trkpt>
      <trkpt lat="43.30884" lon="-1.68933">
        <ele>284</ele>
        <time>2021-06-21T07:06:22.516Z</time>
      </trkpt>
      <trkpt lat="43.30884" lon="-1.68933">
        <ele>284</ele>
        <time>2021-06-21T07:06:23.511Z</time>
      </trkpt>
      <trkpt lat="43.30884" lon="-1.68933">
        <ele>284</ele>
        <time>2021-06-21T07:06:24.518Z</time>
      </trkpt>
      <trkpt lat="43.30884" lon="-1.68933">
        <ele>284</ele>
        <time>2021-06-21T07:06:25.512Z</time>
      </trkpt>
      <trkpt lat="43.30884" lon="-1.68933">
        <ele>284</ele>
        <time>2021-06-21T07:06:26.531Z</time>
      </trkpt>
      <trkpt lat="43.30884" lon="-1.68933">
        <ele>284</ele>
        <time>2021-06-21T07:06:27.515Z</time>
      </trkpt>
      <trkpt lat="43.30884" lon="-1.68933">
        <ele>284</ele>
        <time>2021-06-21T07:06:28.528Z</time>
      </trkpt>
      <trkpt lat="43.30884" lon="-1.68933">
        <ele>284</ele>
        <time>2021-06-21T07:06:29.521Z</time>
      </trkpt>
      <trkpt lat="43.30884" lon="-1.68933">
        <ele>284</ele>
        <time>2021-06-21T07:06:30.534Z</time>
      </trkpt>
      <trkpt lat="43.30884" lon="-1.68933">
        <ele>284</ele>
        <time>2021-06-21T07:06:31.511Z</time>
      </trkpt>
      <trkpt lat="43.30884" lon="-1.68933">
        <ele>284</ele>
        <time>2021-06-21T07:06:32.524Z</time>
      </trkpt>
      <trkpt lat="43.30884" lon="-1.68933">
        <ele>284</ele>
        <time>2021-06-21T07:06:33.510Z</time>
      </trkpt>
      <trkpt lat="43.30884" lon="-1.68933">
        <ele>284</ele>
        <time>2021-06-21T07:06:34.527Z</time>
      </trkpt>
      <trkpt lat="43.30884" lon="-1.68933">
        <ele>284</ele>
        <time>2021-06-21T07:06:35.511Z</time>
      </trkpt>
      <trkpt lat="43.30884" lon="-1.68933">
        <ele>284</ele>
        <time>2021-06-21T07:06:36.532Z</time>
      </trkpt>
      <trkpt lat="43.30884" lon="-1.68933">
        <ele>284</ele>
        <time>2021-06-21T07:06:37.510Z</time>
      </trkpt>
      <trkpt lat="43.30884" lon="-1.68933">
        <ele>284</ele>
        <time>2021-06-21T07:06:38.527Z</time>
      </trkpt>
      <trkpt lat="43.30884" lon="-1.68933">
        <ele>284</ele>
        <time>2021-06-21T07:06:39.511Z</time>
      </trkpt>
      <trkpt lat="43.30884" lon="-1.68933">
        <ele>284</ele>
        <time>2021-06-21T07:06:40.527Z</time>
      </trkpt>
      <trkpt lat="43.30884" lon="-1.68933">
        <ele>284</ele>
        <time>2021-06-21T07:06:41.510Z</time>
      </trkpt>
      <trkpt lat="43.30884" lon="-1.68933">
        <ele>284</ele>
        <time>2021-06-21T07:06:42.527Z</time>
      </trkpt>
      <trkpt lat="43.30884" lon="-1.68933">
        <ele>284</ele>
        <time>2021-06-21T07:06:43.511Z</time>
      </trkpt>
      <trkpt lat="43.30884" lon="-1.68933">
        <ele>284</ele>
        <time>2021-06-21T07:06:44.524Z</time>
      </trkpt>
      <trkpt lat="43.30884" lon="-1.68933">
        <ele>284</ele>
        <time>2021-06-21T07:06:45.511Z</time>
      </trkpt>
      <trkpt lat="43.30884" lon="-1.68933">
        <ele>284</ele>
        <time>2021-06-21T07:06:46.558Z</time>
      </trkpt>
      <trkpt lat="43.30884" lon="-1.68933">
        <ele>284</ele>
        <time>2021-06-21T07:06:47.532Z</time>
      </trkpt>
      <trkpt lat="43.30879" lon="-1.68939">
        <ele>288</ele>
        <time>2021-06-21T07:06:48.519Z</time>
      </trkpt>
      <trkpt lat="43.30879" lon="-1.68939">
        <ele>288</ele>
        <time>2021-06-21T07:06:49.514Z</time>
      </trkpt>
      <trkpt lat="43.30875" lon="-1.68942">
        <ele>288</ele>
        <time>2021-06-21T07:06:50.530Z</time>
      </trkpt>
      <trkpt lat="43.30875" lon="-1.68942">
        <ele>288</ele>
        <time>2021-06-21T07:06:51.511Z</time>
      </trkpt>
      <trkpt lat="43.3087" lon="-1.68946">
        <ele>289</ele>
        <time>2021-06-21T07:06:52.576Z</time>
      </trkpt>
      <trkpt lat="43.3087" lon="-1.68946">
        <ele>289</ele>
        <time>2021-06-21T07:06:53.530Z</time>
      </trkpt>
      <trkpt lat="43.30866" lon="-1.68951">
        <ele>290</ele>
        <time>2021-06-21T07:06:54.539Z</time>
      </trkpt>
      <trkpt lat="43.30866" lon="-1.68951">
        <ele>290</ele>
        <time>2021-06-21T07:06:55.514Z</time>
      </trkpt>
      <trkpt lat="43.30862" lon="-1.68955">
        <ele>290</ele>
        <time>2021-06-21T07:06:56.520Z</time>
      </trkpt>
      <trkpt lat="43.30862" lon="-1.68955">
        <ele>290</ele>
        <time>2021-06-21T07:06:57.509Z</time>
      </trkpt>
      <trkpt lat="43.30856" lon="-1.68955">
        <ele>290</ele>
        <time>2021-06-21T07:06:58.570Z</time>
      </trkpt>
      <trkpt lat="43.30856" lon="-1.68955">
        <ele>290</ele>
        <time>2021-06-21T07:06:59.539Z</time>
      </trkpt>
      <trkpt lat="43.30851" lon="-1.68952">
        <ele>290</ele>
        <time>2021-06-21T07:07:00.547Z</time>
      </trkpt>
      <trkpt lat="43.30851" lon="-1.68952">
        <ele>290</ele>
        <time>2021-06-21T07:07:01.526Z</time>
      </trkpt>
      <trkpt lat="43.30845" lon="-1.68947">
        <ele>290</ele>
        <time>2021-06-21T07:07:02.531Z</time>
      </trkpt>
      <trkpt lat="43.30845" lon="-1.68947">
        <ele>290</ele>
        <time>2021-06-21T07:07:03.510Z</time>
      </trkpt>
      <trkpt lat="43.30841" lon="-1.68944">
        <ele>290</ele>
        <time>2021-06-21T07:07:04.518Z</time>
      </trkpt>
      <trkpt lat="43.30841" lon="-1.68944">
        <ele>290</ele>
        <time>2021-06-21T07:07:05.531Z</time>
      </trkpt>
      <trkpt lat="43.30834" lon="-1.68939">
        <ele>289</ele>
        <time>2021-06-21T07:07:06.558Z</time>
      </trkpt>
      <trkpt lat="43.30834" lon="-1.68939">
        <ele>289</ele>
        <time>2021-06-21T07:07:07.520Z</time>
      </trkpt>
      <trkpt lat="43.30825" lon="-1.68936">
        <ele>289</ele>
        <time>2021-06-21T07:07:08.529Z</time>
      </trkpt>
      <trkpt lat="43.30825" lon="-1.68936">
        <ele>289</ele>
        <time>2021-06-21T07:07:09.529Z</time>
      </trkpt>
      <trkpt lat="43.30816" lon="-1.68931">
        <ele>289</ele>
        <time>2021-06-21T07:07:10.535Z</time>
      </trkpt>
      <trkpt lat="43.30816" lon="-1.68931">
        <ele>289</ele>
        <time>2021-06-21T07:07:11.510Z</time>
      </trkpt>
      <trkpt lat="43.30808" lon="-1.68935">
        <ele>288</ele>
        <time>2021-06-21T07:07:12.552Z</time>
      </trkpt>
      <trkpt lat="43.30808" lon="-1.68935">
        <ele>288</ele>
        <time>2021-06-21T07:07:13.544Z</time>
      </trkpt>
      <trkpt lat="43.308" lon="-1.6894">
        <ele>287</ele>
        <time>2021-06-21T07:07:14.510Z</time>
      </trkpt>
      <trkpt lat="43.308" lon="-1.6894">
        <ele>287</ele>
        <time>2021-06-21T07:07:15.526Z</time>
      </trkpt>
      <trkpt lat="43.30794" lon="-1.6895">
        <ele>286</ele>
        <time>2021-06-21T07:07:16.531Z</time>
      </trkpt>
      <trkpt lat="43.30794" lon="-1.6895">
        <ele>286</ele>
        <time>2021-06-21T07:07:17.511Z</time>
      </trkpt>
      <trkpt lat="43.30791" lon="-1.6896">
        <ele>285</ele>
        <time>2021-06-21T07:07:18.517Z</time>
      </trkpt>
      <trkpt lat="43.30791" lon="-1.6896">
        <ele>285</ele>
        <time>2021-06-21T07:07:19.535Z</time>
      </trkpt>
      <trkpt lat="43.30788" lon="-1.68968">
        <ele>283</ele>
        <time>2021-06-21T07:07:20.581Z</time>
      </trkpt>
      <trkpt lat="43.30788" lon="-1.68968">
        <ele>283</ele>
        <time>2021-06-21T07:07:21.547Z</time>
      </trkpt>
      <trkpt lat="43.3078" lon="-1.68971">
        <ele>282</ele>
        <time>2021-06-21T07:07:22.528Z</time>
      </trkpt>
      <trkpt lat="43.30779" lon="-1.68973">
        <ele>282</ele>
        <time>2021-06-21T07:07:23.509Z</time>
      </trkpt>
      <trkpt lat="43.30776" lon="-1.68973">
        <ele>281</ele>
        <time>2021-06-21T07:07:24.527Z</time>
      </trkpt>
      <trkpt lat="43.30776" lon="-1.68973">
        <ele>281</ele>
        <time>2021-06-21T07:07:25.544Z</time>
      </trkpt>
      <trkpt lat="43.30768" lon="-1.6897">
        <ele>280</ele>
        <time>2021-06-21T07:07:26.520Z</time>
      </trkpt>
      <trkpt lat="43.30768" lon="-1.6897">
        <ele>280</ele>
        <time>2021-06-21T07:07:27.535Z</time>
      </trkpt>
      <trkpt lat="43.30761" lon="-1.68965">
        <ele>278</ele>
        <time>2021-06-21T07:07:28.542Z</time>
      </trkpt>
      <trkpt lat="43.30761" lon="-1.68965">
        <ele>278</ele>
        <time>2021-06-21T07:07:29.519Z</time>
      </trkpt>
      <trkpt lat="43.30753" lon="-1.68958">
        <ele>277</ele>
        <time>2021-06-21T07:07:30.525Z</time>
      </trkpt>
      <trkpt lat="43.30753" lon="-1.68958">
        <ele>277</ele>
        <time>2021-06-21T07:07:31.545Z</time>
      </trkpt>
      <trkpt lat="43.30747" lon="-1.68955">
        <ele>275</ele>
        <time>2021-06-21T07:07:32.511Z</time>
      </trkpt>
      <trkpt lat="43.30747" lon="-1.68955">
        <ele>275</ele>
        <time>2021-06-21T07:07:33.531Z</time>
      </trkpt>
      <trkpt lat="43.30738" lon="-1.68951">
        <ele>274</ele>
        <time>2021-06-21T07:07:34.536Z</time>
      </trkpt>
      <trkpt lat="43.30738" lon="-1.68951">
        <ele>274</ele>
        <time>2021-06-21T07:07:35.509Z</time>
      </trkpt>
      <trkpt lat="43.30727" lon="-1.68946">
        <ele>272</ele>
        <time>2021-06-21T07:07:36.520Z</time>
      </trkpt>
      <trkpt lat="43.30727" lon="-1.68946">
        <ele>272</ele>
        <time>2021-06-21T07:07:37.517Z</time>
      </trkpt>
      <trkpt lat="43.30717" lon="-1.68942">
        <ele>271</ele>
        <time>2021-06-21T07:07:38.531Z</time>
      </trkpt>
      <trkpt lat="43.30717" lon="-1.68942">
        <ele>271</ele>
        <time>2021-06-21T07:07:39.545Z</time>
      </trkpt>
      <trkpt lat="43.30706" lon="-1.68938">
        <ele>270</ele>
        <time>2021-06-21T07:07:40.511Z</time>
      </trkpt>
      <trkpt lat="43.30706" lon="-1.68938">
        <ele>270</ele>
        <time>2021-06-21T07:07:41.546Z</time>
      </trkpt>
      <trkpt lat="43.30696" lon="-1.68936">
        <ele>268</ele>
        <time>2021-06-21T07:07:42.539Z</time>
      </trkpt>
      <trkpt lat="43.30696" lon="-1.68936">
        <ele>268</ele>
        <time>2021-06-21T07:07:43.510Z</time>
      </trkpt>
      <trkpt lat="43.30687" lon="-1.68935">
        <ele>267</ele>
        <time>2021-06-21T07:07:44.519Z</time>
      </trkpt>
      <trkpt lat="43.30687" lon="-1.68935">
        <ele>267</ele>
        <time>2021-06-21T07:07:45.513Z</time>
      </trkpt>
      <trkpt lat="43.30679" lon="-1.68937">
        <ele>266</ele>
        <time>2021-06-21T07:07:46.520Z</time>
      </trkpt>
      <trkpt lat="43.30674" lon="-1.68939">
        <ele>266</ele>
        <time>2021-06-21T07:07:47.510Z</time>
      </trkpt>
      <trkpt lat="43.3067" lon="-1.68942">
        <ele>266</ele>
        <time>2021-06-21T07:07:48.521Z</time>
      </trkpt>
      <trkpt lat="43.3067" lon="-1.68942">
        <ele>266</ele>
        <time>2021-06-21T07:07:49.510Z</time>
      </trkpt>
      <trkpt lat="43.30661" lon="-1.68949">
        <ele>265</ele>
        <time>2021-06-21T07:07:50.518Z</time>
      </trkpt>
      <trkpt lat="43.30661" lon="-1.68949">
        <ele>265</ele>
        <time>2021-06-21T07:07:51.537Z</time>
      </trkpt>
      <trkpt lat="43.30654" lon="-1.68956">
        <ele>264</ele>
        <time>2021-06-21T07:07:52.544Z</time>
      </trkpt>
      <trkpt lat="43.30654" lon="-1.68956">
        <ele>264</ele>
        <time>2021-06-21T07:07:53.518Z</time>
      </trkpt>
      <trkpt lat="43.30646" lon="-1.68964">
        <ele>264</ele>
        <time>2021-06-21T07:07:54.518Z</time>
      </trkpt>
      <trkpt lat="43.30646" lon="-1.68964">
        <ele>264</ele>
        <time>2021-06-21T07:07:55.515Z</time>
      </trkpt>
      <trkpt lat="43.30639" lon="-1.68974">
        <ele>263</ele>
        <time>2021-06-21T07:07:56.523Z</time>
      </trkpt>
      <trkpt lat="43.30639" lon="-1.68974">
        <ele>263</ele>
        <time>2021-06-21T07:07:57.543Z</time>
      </trkpt>
      <trkpt lat="43.30632" lon="-1.68987">
        <ele>262</ele>
        <time>2021-06-21T07:07:58.517Z</time>
      </trkpt>
      <trkpt lat="43.30632" lon="-1.68987">
        <ele>262</ele>
        <time>2021-06-21T07:07:59.536Z</time>
      </trkpt>
      <trkpt lat="43.30626" lon="-1.69">
        <ele>262</ele>
        <time>2021-06-21T07:08:00.544Z</time>
      </trkpt>
      <trkpt lat="43.30626" lon="-1.69">
        <ele>262</ele>
        <time>2021-06-21T07:08:01.525Z</time>
      </trkpt>
      <trkpt lat="43.30623" lon="-1.69011">
        <ele>261</ele>
        <time>2021-06-21T07:08:02.530Z</time>
      </trkpt>
      <trkpt lat="43.30623" lon="-1.69011">
        <ele>261</ele>
        <time>2021-06-21T07:08:03.510Z</time>
      </trkpt>
      <trkpt lat="43.30618" lon="-1.6902">
        <ele>261</ele>
        <time>2021-06-21T07:08:04.517Z</time>
      </trkpt>
      <trkpt lat="43.30618" lon="-1.6902">
        <ele>261</ele>
        <time>2021-06-21T07:08:05.543Z</time>
      </trkpt>
      <trkpt lat="43.30611" lon="-1.69025">
        <ele>260</ele>
        <time>2021-06-21T07:08:06.511Z</time>
      </trkpt>
      <trkpt lat="43.30611" lon="-1.69025">
        <ele>260</ele>
        <time>2021-06-21T07:08:07.532Z</time>
      </trkpt>
      <trkpt lat="43.30604" lon="-1.69025">
        <ele>259</ele>
        <time>2021-06-21T07:08:08.541Z</time>
      </trkpt>
      <trkpt lat="43.30601" lon="-1.69023">
        <ele>259</ele>
        <time>2021-06-21T07:08:09.512Z</time>
      </trkpt>
      <trkpt lat="43.30601" lon="-1.69023">
        <ele>259</ele>
        <time>2021-06-21T07:08:10.528Z</time>
      </trkpt>
      <trkpt lat="43.30596" lon="-1.69017">
        <ele>257</ele>
        <time>2021-06-21T07:08:11.534Z</time>
      </trkpt>
      <trkpt lat="43.30594" lon="-1.69012">
        <ele>257</ele>
        <time>2021-06-21T07:08:12.547Z</time>
      </trkpt>
      <trkpt lat="43.30594" lon="-1.69012">
        <ele>257</ele>
        <time>2021-06-21T07:08:13.525Z</time>
      </trkpt>
      <trkpt lat="43.30589" lon="-1.69002">
        <ele>256</ele>
        <time>2021-06-21T07:08:14.532Z</time>
      </trkpt>
      <trkpt lat="43.30589" lon="-1.69002">
        <ele>256</ele>
        <time>2021-06-21T07:08:15.549Z</time>
      </trkpt>
      <trkpt lat="43.30585" lon="-1.6899">
        <ele>255</ele>
        <time>2021-06-21T07:08:16.579Z</time>
      </trkpt>
      <trkpt lat="43.30585" lon="-1.6899">
        <ele>255</ele>
        <time>2021-06-21T07:08:17.520Z</time>
      </trkpt>
      <trkpt lat="43.30581" lon="-1.68977">
        <ele>254</ele>
        <time>2021-06-21T07:08:18.527Z</time>
      </trkpt>
      <trkpt lat="43.30581" lon="-1.68977">
        <ele>254</ele>
        <time>2021-06-21T07:08:19.545Z</time>
      </trkpt>
      <trkpt lat="43.30576" lon="-1.68964">
        <ele>253</ele>
        <time>2021-06-21T07:08:20.511Z</time>
      </trkpt>
      <trkpt lat="43.30576" lon="-1.68964">
        <ele>253</ele>
        <time>2021-06-21T07:08:21.530Z</time>
      </trkpt>
      <trkpt lat="43.30572" lon="-1.68952">
        <ele>252</ele>
        <time>2021-06-21T07:08:22.551Z</time>
      </trkpt>
      <trkpt lat="43.30572" lon="-1.68952">
        <ele>252</ele>
        <time>2021-06-21T07:08:23.515Z</time>
      </trkpt>
      <trkpt lat="43.30567" lon="-1.68939">
        <ele>251</ele>
        <time>2021-06-21T07:08:24.530Z</time>
      </trkpt>
      <trkpt lat="43.30567" lon="-1.68939">
        <ele>251</ele>
        <time>2021-06-21T07:08:25.545Z</time>
      </trkpt>
      <trkpt lat="43.30562" lon="-1.68926">
        <ele>250</ele>
        <time>2021-06-21T07:08:26.571Z</time>
      </trkpt>
      <trkpt lat="43.30562" lon="-1.68926">
        <ele>250</ele>
        <time>2021-06-21T07:08:27.509Z</time>
      </trkpt>
      <trkpt lat="43.30558" lon="-1.68915">
        <ele>249</ele>
        <time>2021-06-21T07:08:28.520Z</time>
      </trkpt>
      <trkpt lat="43.30558" lon="-1.68915">
        <ele>249</ele>
        <time>2021-06-21T07:08:29.536Z</time>
      </trkpt>
      <trkpt lat="43.30552" lon="-1.68905">
        <ele>248</ele>
        <time>2021-06-21T07:08:30.551Z</time>
      </trkpt>
      <trkpt lat="43.30552" lon="-1.68905">
        <ele>248</ele>
        <time>2021-06-21T07:08:31.528Z</time>
      </trkpt>
      <trkpt lat="43.30545" lon="-1.68895">
        <ele>247</ele>
        <time>2021-06-21T07:08:32.557Z</time>
      </trkpt>
      <trkpt lat="43.30545" lon="-1.68895">
        <ele>247</ele>
        <time>2021-06-21T07:08:33.525Z</time>
      </trkpt>
      <trkpt lat="43.3054" lon="-1.68885">
        <ele>246</ele>
        <time>2021-06-21T07:08:34.531Z</time>
      </trkpt>
      <trkpt lat="43.3054" lon="-1.68885">
        <ele>246</ele>
        <time>2021-06-21T07:08:35.547Z</time>
      </trkpt>
      <trkpt lat="43.30535" lon="-1.68877">
        <ele>245</ele>
        <time>2021-06-21T07:08:36.513Z</time>
      </trkpt>
      <trkpt lat="43.30535" lon="-1.68877">
        <ele>245</ele>
        <time>2021-06-21T07:08:37.521Z</time>
      </trkpt>
      <trkpt lat="43.3053" lon="-1.68872">
        <ele>244</ele>
        <time>2021-06-21T07:08:38.571Z</time>
      </trkpt>
      <trkpt lat="43.3053" lon="-1.68872">
        <ele>244</ele>
        <time>2021-06-21T07:08:39.517Z</time>
      </trkpt>
      <trkpt lat="43.30524" lon="-1.68869">
        <ele>243</ele>
        <time>2021-06-21T07:08:40.525Z</time>
      </trkpt>
      <trkpt lat="43.30521" lon="-1.68868">
        <ele>242</ele>
        <time>2021-06-21T07:08:41.518Z</time>
      </trkpt>
      <trkpt lat="43.30517" lon="-1.68868">
        <ele>242</ele>
        <time>2021-06-21T07:08:42.539Z</time>
      </trkpt>
      <trkpt lat="43.30517" lon="-1.68868">
        <ele>242</ele>
        <time>2021-06-21T07:08:43.512Z</time>
      </trkpt>
      <trkpt lat="43.30511" lon="-1.68874">
        <ele>241</ele>
        <time>2021-06-21T07:08:44.521Z</time>
      </trkpt>
      <trkpt lat="43.30511" lon="-1.68874">
        <ele>241</ele>
        <time>2021-06-21T07:08:45.519Z</time>
      </trkpt>
      <trkpt lat="43.30504" lon="-1.68883">
        <ele>240</ele>
        <time>2021-06-21T07:08:46.528Z</time>
      </trkpt>
      <trkpt lat="43.30504" lon="-1.68883">
        <ele>240</ele>
        <time>2021-06-21T07:08:47.530Z</time>
      </trkpt>
      <trkpt lat="43.30496" lon="-1.68893">
        <ele>240</ele>
        <time>2021-06-21T07:08:48.536Z</time>
      </trkpt>
      <trkpt lat="43.30496" lon="-1.68893">
        <ele>240</ele>
        <time>2021-06-21T07:08:49.515Z</time>
      </trkpt>
      <trkpt lat="43.30487" lon="-1.68903">
        <ele>239</ele>
        <time>2021-06-21T07:08:50.574Z</time>
      </trkpt>
      <trkpt lat="43.30487" lon="-1.68903">
        <ele>239</ele>
        <time>2021-06-21T07:08:51.514Z</time>
      </trkpt>
      <trkpt lat="43.30477" lon="-1.6891">
        <ele>239</ele>
        <time>2021-06-21T07:08:52.539Z</time>
      </trkpt>
      <trkpt lat="43.30477" lon="-1.6891">
        <ele>239</ele>
        <time>2021-06-21T07:08:53.539Z</time>
      </trkpt>
      <trkpt lat="43.30466" lon="-1.68915">
        <ele>238</ele>
        <time>2021-06-21T07:08:54.510Z</time>
      </trkpt>
      <trkpt lat="43.30466" lon="-1.68915">
        <ele>238</ele>
        <time>2021-06-21T07:08:55.529Z</time>
      </trkpt>
      <trkpt lat="43.30455" lon="-1.68918">
        <ele>238</ele>
        <time>2021-06-21T07:08:56.535Z</time>
      </trkpt>
      <trkpt lat="43.30455" lon="-1.68918">
        <ele>238</ele>
        <time>2021-06-21T07:08:57.515Z</time>
      </trkpt>
      <trkpt lat="43.30444" lon="-1.6892">
        <ele>238</ele>
        <time>2021-06-21T07:08:58.523Z</time>
      </trkpt>
      <trkpt lat="43.30444" lon="-1.6892">
        <ele>238</ele>
        <time>2021-06-21T07:08:59.548Z</time>
      </trkpt>
      <trkpt lat="43.30436" lon="-1.68923">
        <ele>239</ele>
        <time>2021-06-21T07:09:00.514Z</time>
      </trkpt>
      <trkpt lat="43.30436" lon="-1.68923">
        <ele>239</ele>
        <time>2021-06-21T07:09:01.513Z</time>
      </trkpt>
      <trkpt lat="43.30428" lon="-1.68931">
        <ele>239</ele>
        <time>2021-06-21T07:09:02.519Z</time>
      </trkpt>
      <trkpt lat="43.30428" lon="-1.68931">
        <ele>239</ele>
        <time>2021-06-21T07:09:03.535Z</time>
      </trkpt>
      <trkpt lat="43.3042" lon="-1.68941">
        <ele>239</ele>
        <time>2021-06-21T07:09:04.541Z</time>
      </trkpt>
      <trkpt lat="43.3042" lon="-1.68941">
        <ele>239</ele>
        <time>2021-06-21T07:09:05.523Z</time>
      </trkpt>
      <trkpt lat="43.3041" lon="-1.68949">
        <ele>239</ele>
        <time>2021-06-21T07:09:06.532Z</time>
      </trkpt>
      <trkpt lat="43.3041" lon="-1.68949">
        <ele>239</ele>
        <time>2021-06-21T07:09:07.521Z</time>
      </trkpt>
      <trkpt lat="43.304" lon="-1.68956">
        <ele>239</ele>
        <time>2021-06-21T07:09:08.572Z</time>
      </trkpt>
      <trkpt lat="43.304" lon="-1.68956">
        <ele>239</ele>
        <time>2021-06-21T07:09:09.534Z</time>
      </trkpt>
      <trkpt lat="43.3039" lon="-1.68961">
        <ele>239</ele>
        <time>2021-06-21T07:09:10.543Z</time>
      </trkpt>
      <trkpt lat="43.3039" lon="-1.68961">
        <ele>239</ele>
        <time>2021-06-21T07:09:11.521Z</time>
      </trkpt>
      <trkpt lat="43.30379" lon="-1.68965">
        <ele>239</ele>
        <time>2021-06-21T07:09:12.563Z</time>
      </trkpt>
      <trkpt lat="43.30379" lon="-1.68965">
        <ele>239</ele>
        <time>2021-06-21T07:09:13.524Z</time>
      </trkpt>
      <trkpt lat="43.30367" lon="-1.68969">
        <ele>239</ele>
        <time>2021-06-21T07:09:14.532Z</time>
      </trkpt>
      <trkpt lat="43.30367" lon="-1.68969">
        <ele>239</ele>
        <time>2021-06-21T07:09:15.545Z</time>
      </trkpt>
      <trkpt lat="43.30357" lon="-1.68974">
        <ele>239</ele>
        <time>2021-06-21T07:09:16.514Z</time>
      </trkpt>
      <trkpt lat="43.30357" lon="-1.68974">
        <ele>239</ele>
        <time>2021-06-21T07:09:17.513Z</time>
      </trkpt>
      <trkpt lat="43.30346" lon="-1.68975">
        <ele>239</ele>
        <time>2021-06-21T07:09:18.531Z</time>
      </trkpt>
      <trkpt lat="43.30346" lon="-1.68975">
        <ele>239</ele>
        <time>2021-06-21T07:09:19.520Z</time>
      </trkpt>
      <trkpt lat="43.30334" lon="-1.68973">
        <ele>238</ele>
        <time>2021-06-21T07:09:20.526Z</time>
      </trkpt>
      <trkpt lat="43.30334" lon="-1.68973">
        <ele>238</ele>
        <time>2021-06-21T07:09:21.548Z</time>
      </trkpt>
      <trkpt lat="43.30322" lon="-1.68968">
        <ele>238</ele>
        <time>2021-06-21T07:09:22.529Z</time>
      </trkpt>
      <trkpt lat="43.30322" lon="-1.68968">
        <ele>238</ele>
        <time>2021-06-21T07:09:23.535Z</time>
      </trkpt>
      <trkpt lat="43.3031" lon="-1.68961">
        <ele>237</ele>
        <time>2021-06-21T07:09:24.547Z</time>
      </trkpt>
      <trkpt lat="43.3031" lon="-1.68961">
        <ele>237</ele>
        <time>2021-06-21T07:09:25.530Z</time>
      </trkpt>
      <trkpt lat="43.30299" lon="-1.68955">
        <ele>236</ele>
        <time>2021-06-21T07:09:26.538Z</time>
      </trkpt>
      <trkpt lat="43.30299" lon="-1.68955">
        <ele>236</ele>
        <time>2021-06-21T07:09:27.526Z</time>
      </trkpt>
      <trkpt lat="43.30288" lon="-1.6895">
        <ele>235</ele>
        <time>2021-06-21T07:09:28.532Z</time>
      </trkpt>
      <trkpt lat="43.30282" lon="-1.68948">
        <ele>235</ele>
        <time>2021-06-21T07:09:29.512Z</time>
      </trkpt>
      <trkpt lat="43.30276" lon="-1.68947">
        <ele>234</ele>
        <time>2021-06-21T07:09:30.514Z</time>
      </trkpt>
      <trkpt lat="43.30276" lon="-1.68947">
        <ele>234</ele>
        <time>2021-06-21T07:09:31.536Z</time>
      </trkpt>
      <trkpt lat="43.30263" lon="-1.68948">
        <ele>234</ele>
        <time>2021-06-21T07:09:32.548Z</time>
      </trkpt>
      <trkpt lat="43.30263" lon="-1.68948">
        <ele>234</ele>
        <time>2021-06-21T07:09:33.537Z</time>
      </trkpt>
      <trkpt lat="43.3025" lon="-1.68949">
        <ele>233</ele>
        <time>2021-06-21T07:09:34.509Z</time>
      </trkpt>
      <trkpt lat="43.3025" lon="-1.68949">
        <ele>233</ele>
        <time>2021-06-21T07:09:35.527Z</time>
      </trkpt>
      <trkpt lat="43.30238" lon="-1.68951">
        <ele>233</ele>
        <time>2021-06-21T07:09:36.535Z</time>
      </trkpt>
      <trkpt lat="43.30238" lon="-1.68951">
        <ele>233</ele>
        <time>2021-06-21T07:09:37.549Z</time>
      </trkpt>
      <trkpt lat="43.30224" lon="-1.68949">
        <ele>232</ele>
        <time>2021-06-21T07:09:38.581Z</time>
      </trkpt>
      <trkpt lat="43.30224" lon="-1.68949">
        <ele>232</ele>
        <time>2021-06-21T07:09:39.539Z</time>
      </trkpt>
      <trkpt lat="43.30211" lon="-1.68945">
        <ele>231</ele>
        <time>2021-06-21T07:09:40.546Z</time>
      </trkpt>
      <trkpt lat="43.30211" lon="-1.68945">
        <ele>231</ele>
        <time>2021-06-21T07:09:41.524Z</time>
      </trkpt>
      <trkpt lat="43.30199" lon="-1.6894">
        <ele>230</ele>
        <time>2021-06-21T07:09:42.536Z</time>
      </trkpt>
      <trkpt lat="43.30199" lon="-1.6894">
        <ele>230</ele>
        <time>2021-06-21T07:09:43.520Z</time>
      </trkpt>
      <trkpt lat="43.30188" lon="-1.68934">
        <ele>230</ele>
        <time>2021-06-21T07:09:44.559Z</time>
      </trkpt>
      <trkpt lat="43.30183" lon="-1.68931">
        <ele>229</ele>
        <time>2021-06-21T07:09:45.530Z</time>
      </trkpt>
      <trkpt lat="43.30183" lon="-1.68931">
        <ele>229</ele>
        <time>2021-06-21T07:09:46.515Z</time>
      </trkpt>
      <trkpt lat="43.30172" lon="-1.68927">
        <ele>229</ele>
        <time>2021-06-21T07:09:47.524Z</time>
      </trkpt>
      <trkpt lat="43.30167" lon="-1.68925">
        <ele>228</ele>
        <time>2021-06-21T07:09:48.510Z</time>
      </trkpt>
      <trkpt lat="43.30167" lon="-1.68925">
        <ele>228</ele>
        <time>2021-06-21T07:09:49.510Z</time>
      </trkpt>
      <trkpt lat="43.30156" lon="-1.68925">
        <ele>227</ele>
        <time>2021-06-21T07:09:50.519Z</time>
      </trkpt>
      <trkpt lat="43.30156" lon="-1.68925">
        <ele>227</ele>
        <time>2021-06-21T07:09:51.548Z</time>
      </trkpt>
      <trkpt lat="43.30145" lon="-1.68927">
        <ele>226</ele>
        <time>2021-06-21T07:09:52.516Z</time>
      </trkpt>
      <trkpt lat="43.30145" lon="-1.68927">
        <ele>226</ele>
        <time>2021-06-21T07:09:53.547Z</time>
      </trkpt>
      <trkpt lat="43.30133" lon="-1.6893">
        <ele>226</ele>
        <time>2021-06-21T07:09:54.516Z</time>
      </trkpt>
      <trkpt lat="43.30133" lon="-1.6893">
        <ele>226</ele>
        <time>2021-06-21T07:09:55.509Z</time>
      </trkpt>
      <trkpt lat="43.30122" lon="-1.68931">
        <ele>226</ele>
        <time>2021-06-21T07:09:56.516Z</time>
      </trkpt>
      <trkpt lat="43.30122" lon="-1.68931">
        <ele>226</ele>
        <time>2021-06-21T07:09:57.543Z</time>
      </trkpt>
      <trkpt lat="43.3011" lon="-1.6893">
        <ele>225</ele>
        <time>2021-06-21T07:09:58.509Z</time>
      </trkpt>
      <trkpt lat="43.3011" lon="-1.6893">
        <ele>225</ele>
        <time>2021-06-21T07:09:59.524Z</time>
      </trkpt>
      <trkpt lat="43.30101" lon="-1.68929">
        <ele>224</ele>
        <time>2021-06-21T07:10:00.538Z</time>
      </trkpt>
      <trkpt lat="43.30101" lon="-1.68929">
        <ele>224</ele>
        <time>2021-06-21T07:10:01.509Z</time>
      </trkpt>
      <trkpt lat="43.30092" lon="-1.68923">
        <ele>225</ele>
        <time>2021-06-21T07:10:02.520Z</time>
      </trkpt>
      <trkpt lat="43.30092" lon="-1.68923">
        <ele>225</ele>
        <time>2021-06-21T07:10:03.540Z</time>
      </trkpt>
      <trkpt lat="43.30083" lon="-1.68923">
        <ele>225</ele>
        <time>2021-06-21T07:10:04.510Z</time>
      </trkpt>
      <trkpt lat="43.30083" lon="-1.68923">
        <ele>225</ele>
        <time>2021-06-21T07:10:05.530Z</time>
      </trkpt>
      <trkpt lat="43.30072" lon="-1.68924">
        <ele>225</ele>
        <time>2021-06-21T07:10:06.544Z</time>
      </trkpt>
      <trkpt lat="43.30072" lon="-1.68924">
        <ele>225</ele>
        <time>2021-06-21T07:10:07.516Z</time>
      </trkpt>
      <trkpt lat="43.30062" lon="-1.68927">
        <ele>225</ele>
        <time>2021-06-21T07:10:08.573Z</time>
      </trkpt>
      <trkpt lat="43.30062" lon="-1.68927">
        <ele>225</ele>
        <time>2021-06-21T07:10:09.519Z</time>
      </trkpt>
      <trkpt lat="43.30053" lon="-1.68932">
        <ele>225</ele>
        <time>2021-06-21T07:10:10.529Z</time>
      </trkpt>
      <trkpt lat="43.30053" lon="-1.68932">
        <ele>225</ele>
        <time>2021-06-21T07:10:11.515Z</time>
      </trkpt>
      <trkpt lat="43.30044" lon="-1.68938">
        <ele>224</ele>
        <time>2021-06-21T07:10:12.525Z</time>
      </trkpt>
      <trkpt lat="43.30044" lon="-1.68938">
        <ele>224</ele>
        <time>2021-06-21T07:10:13.543Z</time>
      </trkpt>
      <trkpt lat="43.30036" lon="-1.68945">
        <ele>224</ele>
        <time>2021-06-21T07:10:14.573Z</time>
      </trkpt>
      <trkpt lat="43.30036" lon="-1.68945">
        <ele>224</ele>
        <time>2021-06-21T07:10:15.523Z</time>
      </trkpt>
      <trkpt lat="43.30031" lon="-1.68953">
        <ele>223</ele>
        <time>2021-06-21T07:10:16.535Z</time>
      </trkpt>
      <trkpt lat="43.30028" lon="-1.68958">
        <ele>222</ele>
        <time>2021-06-21T07:10:17.514Z</time>
      </trkpt>
      <trkpt lat="43.30028" lon="-1.68958">
        <ele>222</ele>
        <time>2021-06-21T07:10:18.548Z</time>
      </trkpt>
      <trkpt lat="43.30022" lon="-1.68971">
        <ele>222</ele>
        <time>2021-06-21T07:10:19.514Z</time>
      </trkpt>
      <trkpt lat="43.30022" lon="-1.68971">
        <ele>222</ele>
        <time>2021-06-21T07:10:20.533Z</time>
      </trkpt>
      <trkpt lat="43.30014" lon="-1.68986">
        <ele>222</ele>
        <time>2021-06-21T07:10:21.540Z</time>
      </trkpt>
      <trkpt lat="43.30014" lon="-1.68986">
        <ele>222</ele>
        <time>2021-06-21T07:10:22.509Z</time>
      </trkpt>
      <trkpt lat="43.30007" lon="-1.68999">
        <ele>221</ele>
        <time>2021-06-21T07:10:23.528Z</time>
      </trkpt>
      <trkpt lat="43.30003" lon="-1.69004">
        <ele>221</ele>
        <time>2021-06-21T07:10:24.541Z</time>
      </trkpt>
      <trkpt lat="43.30003" lon="-1.69004">
        <ele>221</ele>
        <time>2021-06-21T07:10:25.515Z</time>
      </trkpt>
      <trkpt lat="43.29997" lon="-1.69015">
        <ele>221</ele>
        <time>2021-06-21T07:10:26.521Z</time>
      </trkpt>
      <trkpt lat="43.29997" lon="-1.69015">
        <ele>221</ele>
        <time>2021-06-21T07:10:27.510Z</time>
      </trkpt>
      <trkpt lat="43.29991" lon="-1.69024">
        <ele>220</ele>
        <time>2021-06-21T07:10:28.531Z</time>
      </trkpt>
      <trkpt lat="43.29988" lon="-1.69028">
        <ele>220</ele>
        <time>2021-06-21T07:10:29.521Z</time>
      </trkpt>
      <trkpt lat="43.29984" lon="-1.69031">
        <ele>219</ele>
        <time>2021-06-21T07:10:30.541Z</time>
      </trkpt>
      <trkpt lat="43.29984" lon="-1.69031">
        <ele>219</ele>
        <time>2021-06-21T07:10:31.513Z</time>
      </trkpt>
      <trkpt lat="43.29976" lon="-1.69034">
        <ele>218</ele>
        <time>2021-06-21T07:10:32.525Z</time>
      </trkpt>
      <trkpt lat="43.29976" lon="-1.69034">
        <ele>218</ele>
        <time>2021-06-21T07:10:33.539Z</time>
      </trkpt>
      <trkpt lat="43.29963" lon="-1.69037">
        <ele>217</ele>
        <time>2021-06-21T07:10:34.509Z</time>
      </trkpt>
      <trkpt lat="43.29963" lon="-1.69037">
        <ele>217</ele>
        <time>2021-06-21T07:10:35.529Z</time>
      </trkpt>
      <trkpt lat="43.29956" lon="-1.69033">
        <ele>216</ele>
        <time>2021-06-21T07:10:36.538Z</time>
      </trkpt>
      <trkpt lat="43.29956" lon="-1.69033">
        <ele>216</ele>
        <time>2021-06-21T07:10:37.518Z</time>
      </trkpt>
      <trkpt lat="43.29956" lon="-1.69033">
        <ele>216</ele>
        <time>2021-06-21T07:10:38.516Z</time>
      </trkpt>
      <trkpt lat="43.29951" lon="-1.69024">
        <ele>216</ele>
        <time>2021-06-21T07:10:39.525Z</time>
      </trkpt>
      <trkpt lat="43.29945" lon="-1.69016">
        <ele>215</ele>
        <time>2021-06-21T07:10:40.538Z</time>
      </trkpt>
      <trkpt lat="43.29943" lon="-1.69011">
        <ele>215</ele>
        <time>2021-06-21T07:10:41.631Z</time>
      </trkpt>
      <trkpt lat="43.2994" lon="-1.69007">
        <ele>214</ele>
        <time>2021-06-21T07:10:42.530Z</time>
      </trkpt>
      <trkpt lat="43.2994" lon="-1.69007">
        <ele>214</ele>
        <time>2021-06-21T07:10:43.547Z</time>
      </trkpt>
      <trkpt lat="43.29935" lon="-1.69">
        <ele>214</ele>
        <time>2021-06-21T07:10:44.513Z</time>
      </trkpt>
      <trkpt lat="43.29935" lon="-1.69">
        <ele>214</ele>
        <time>2021-06-21T07:10:45.528Z</time>
      </trkpt>
      <trkpt lat="43.29928" lon="-1.68995">
        <ele>213</ele>
        <time>2021-06-21T07:10:46.575Z</time>
      </trkpt>
      <trkpt lat="43.29928" lon="-1.68995">
        <ele>213</ele>
        <time>2021-06-21T07:10:47.547Z</time>
      </trkpt>
      <trkpt lat="43.29919" lon="-1.6899">
        <ele>212</ele>
        <time>2021-06-21T07:10:48.513Z</time>
      </trkpt>
      <trkpt lat="43.29919" lon="-1.6899">
        <ele>212</ele>
        <time>2021-06-21T07:10:49.539Z</time>
      </trkpt>
      <trkpt lat="43.2991" lon="-1.68988">
        <ele>211</ele>
        <time>2021-06-21T07:10:50.512Z</time>
      </trkpt>
      <trkpt lat="43.2991" lon="-1.68988">
        <ele>211</ele>
        <time>2021-06-21T07:10:51.539Z</time>
      </trkpt>
      <trkpt lat="43.299" lon="-1.68983">
        <ele>210</ele>
        <time>2021-06-21T07:10:52.550Z</time>
      </trkpt>
      <trkpt lat="43.299" lon="-1.68983">
        <ele>210</ele>
        <time>2021-06-21T07:10:53.547Z</time>
      </trkpt>
      <trkpt lat="43.29893" lon="-1.68979">
        <ele>209</ele>
        <time>2021-06-21T07:10:54.514Z</time>
      </trkpt>
      <trkpt lat="43.29893" lon="-1.68979">
        <ele>209</ele>
        <time>2021-06-21T07:10:55.509Z</time>
      </trkpt>
      <trkpt lat="43.29887" lon="-1.68974">
        <ele>208</ele>
        <time>2021-06-21T07:10:56.523Z</time>
      </trkpt>
      <trkpt lat="43.29887" lon="-1.68974">
        <ele>208</ele>
        <time>2021-06-21T07:10:57.516Z</time>
      </trkpt>
      <trkpt lat="43.29882" lon="-1.68971">
        <ele>207</ele>
        <time>2021-06-21T07:10:58.524Z</time>
      </trkpt>
      <trkpt lat="43.29882" lon="-1.68971">
        <ele>207</ele>
        <time>2021-06-21T07:10:59.515Z</time>
      </trkpt>
      <trkpt lat="43.29877" lon="-1.68966">
        <ele>206</ele>
        <time>2021-06-21T07:11:00.524Z</time>
      </trkpt>
      <trkpt lat="43.29873" lon="-1.68963">
        <ele>206</ele>
        <time>2021-06-21T07:11:01.512Z</time>
      </trkpt>
      <trkpt lat="43.29873" lon="-1.68963">
        <ele>206</ele>
        <time>2021-06-21T07:11:02.533Z</time>
      </trkpt>
      <trkpt lat="43.29863" lon="-1.68959">
        <ele>205</ele>
        <time>2021-06-21T07:11:03.542Z</time>
      </trkpt>
      <trkpt lat="43.29863" lon="-1.68959">
        <ele>205</ele>
        <time>2021-06-21T07:11:04.512Z</time>
      </trkpt>
      <trkpt lat="43.29851" lon="-1.68959">
        <ele>204</ele>
        <time>2021-06-21T07:11:05.523Z</time>
      </trkpt>
      <trkpt lat="43.29847" lon="-1.68961">
        <ele>204</ele>
        <time>2021-06-21T07:11:06.592Z</time>
      </trkpt>
      <trkpt lat="43.29847" lon="-1.68961">
        <ele>204</ele>
        <time>2021-06-21T07:11:07.547Z</time>
      </trkpt>
      <trkpt lat="43.29837" lon="-1.68967">
        <ele>203</ele>
        <time>2021-06-21T07:11:08.514Z</time>
      </trkpt>
      <trkpt lat="43.29837" lon="-1.68967">
        <ele>203</ele>
        <time>2021-06-21T07:11:09.538Z</time>
      </trkpt>
      <trkpt lat="43.29827" lon="-1.68971">
        <ele>202</ele>
        <time>2021-06-21T07:11:10.511Z</time>
      </trkpt>
      <trkpt lat="43.29827" lon="-1.68971">
        <ele>202</ele>
        <time>2021-06-21T07:11:11.511Z</time>
      </trkpt>
      <trkpt lat="43.29817" lon="-1.68971">
        <ele>201</ele>
        <time>2021-06-21T07:11:12.521Z</time>
      </trkpt>
      <trkpt lat="43.29817" lon="-1.68971">
        <ele>201</ele>
        <time>2021-06-21T07:11:13.509Z</time>
      </trkpt>
      <trkpt lat="43.29806" lon="-1.68968">
        <ele>200</ele>
        <time>2021-06-21T07:11:14.518Z</time>
      </trkpt>
      <trkpt lat="43.29806" lon="-1.68968">
        <ele>200</ele>
        <time>2021-06-21T07:11:15.533Z</time>
      </trkpt>
      <trkpt lat="43.29795" lon="-1.68963">
        <ele>199</ele>
        <time>2021-06-21T07:11:16.539Z</time>
      </trkpt>
      <trkpt lat="43.2979" lon="-1.6896">
        <ele>199</ele>
        <time>2021-06-21T07:11:17.533Z</time>
      </trkpt>
      <trkpt lat="43.29784" lon="-1.68958">
        <ele>199</ele>
        <time>2021-06-21T07:11:18.548Z</time>
      </trkpt>
      <trkpt lat="43.29784" lon="-1.68958">
        <ele>199</ele>
        <time>2021-06-21T07:11:19.526Z</time>
      </trkpt>
      <trkpt lat="43.29774" lon="-1.68953">
        <ele>200</ele>
        <time>2021-06-21T07:11:20.532Z</time>
      </trkpt>
      <trkpt lat="43.29774" lon="-1.68953">
        <ele>200</ele>
        <time>2021-06-21T07:11:21.512Z</time>
      </trkpt>
      <trkpt lat="43.29763" lon="-1.68949">
        <ele>200</ele>
        <time>2021-06-21T07:11:22.535Z</time>
      </trkpt>
      <trkpt lat="43.29763" lon="-1.68949">
        <ele>200</ele>
        <time>2021-06-21T07:11:23.547Z</time>
      </trkpt>
      <trkpt lat="43.29749" lon="-1.6895">
        <ele>200</ele>
        <time>2021-06-21T07:11:24.515Z</time>
      </trkpt>
      <trkpt lat="43.29749" lon="-1.6895">
        <ele>200</ele>
        <time>2021-06-21T07:11:25.509Z</time>
      </trkpt>
      <trkpt lat="43.29737" lon="-1.68952">
        <ele>200</ele>
        <time>2021-06-21T07:11:26.573Z</time>
      </trkpt>
      <trkpt lat="43.29737" lon="-1.68952">
        <ele>200</ele>
        <time>2021-06-21T07:11:27.523Z</time>
      </trkpt>
      <trkpt lat="43.29726" lon="-1.68953">
        <ele>201</ele>
        <time>2021-06-21T07:11:28.529Z</time>
      </trkpt>
      <trkpt lat="43.29726" lon="-1.68953">
        <ele>201</ele>
        <time>2021-06-21T07:11:29.512Z</time>
      </trkpt>
      <trkpt lat="43.29716" lon="-1.68952">
        <ele>200</ele>
        <time>2021-06-21T07:11:30.518Z</time>
      </trkpt>
      <trkpt lat="43.29716" lon="-1.68952">
        <ele>200</ele>
        <time>2021-06-21T07:11:31.533Z</time>
      </trkpt>
      <trkpt lat="43.29707" lon="-1.68951">
        <ele>200</ele>
        <time>2021-06-21T07:11:32.577Z</time>
      </trkpt>
      <trkpt lat="43.29707" lon="-1.68951">
        <ele>200</ele>
        <time>2021-06-21T07:11:33.541Z</time>
      </trkpt>
      <trkpt lat="43.29699" lon="-1.68949">
        <ele>200</ele>
        <time>2021-06-21T07:11:34.512Z</time>
      </trkpt>
      <trkpt lat="43.29699" lon="-1.68949">
        <ele>200</ele>
        <time>2021-06-21T07:11:35.532Z</time>
      </trkpt>
      <trkpt lat="43.29695" lon="-1.68949">
        <ele>201</ele>
        <time>2021-06-21T07:11:36.537Z</time>
      </trkpt>
      <trkpt lat="43.29695" lon="-1.68949">
        <ele>201</ele>
        <time>2021-06-21T07:11:37.515Z</time>
      </trkpt>
      <trkpt lat="43.29687" lon="-1.68956">
        <ele>201</ele>
        <time>2021-06-21T07:11:38.523Z</time>
      </trkpt>
      <trkpt lat="43.29687" lon="-1.68956">
        <ele>201</ele>
        <time>2021-06-21T07:11:39.547Z</time>
      </trkpt>
      <trkpt lat="43.29683" lon="-1.68966">
        <ele>200</ele>
        <time>2021-06-21T07:11:40.515Z</time>
      </trkpt>
      <trkpt lat="43.29683" lon="-1.68966">
        <ele>200</ele>
        <time>2021-06-21T07:11:41.542Z</time>
      </trkpt>
      <trkpt lat="43.29681" lon="-1.68976">
        <ele>200</ele>
        <time>2021-06-21T07:11:42.511Z</time>
      </trkpt>
      <trkpt lat="43.29681" lon="-1.68976">
        <ele>200</ele>
        <time>2021-06-21T07:11:43.530Z</time>
      </trkpt>
      <trkpt lat="43.29675" lon="-1.68985">
        <ele>200</ele>
        <time>2021-06-21T07:11:44.535Z</time>
      </trkpt>
      <trkpt lat="43.29675" lon="-1.68985">
        <ele>200</ele>
        <time>2021-06-21T07:11:45.514Z</time>
      </trkpt>
      <trkpt lat="43.29672" lon="-1.68989">
        <ele>200</ele>
        <time>2021-06-21T07:11:46.510Z</time>
      </trkpt>
      <trkpt lat="43.29664" lon="-1.6899">
        <ele>200</ele>
        <time>2021-06-21T07:11:47.516Z</time>
      </trkpt>
      <trkpt lat="43.2966" lon="-1.6899">
        <ele>199</ele>
        <time>2021-06-21T07:11:48.539Z</time>
      </trkpt>
      <trkpt lat="43.2966" lon="-1.6899">
        <ele>199</ele>
        <time>2021-06-21T07:11:49.529Z</time>
      </trkpt>
      <trkpt lat="43.29651" lon="-1.6899">
        <ele>199</ele>
        <time>2021-06-21T07:11:50.535Z</time>
      </trkpt>
      <trkpt lat="43.29651" lon="-1.6899">
        <ele>199</ele>
        <time>2021-06-21T07:11:51.548Z</time>
      </trkpt>
      <trkpt lat="43.29641" lon="-1.68991">
        <ele>199</ele>
        <time>2021-06-21T07:11:52.516Z</time>
      </trkpt>
      <trkpt lat="43.29641" lon="-1.68991">
        <ele>199</ele>
        <time>2021-06-21T07:11:53.528Z</time>
      </trkpt>
      <trkpt lat="43.2963" lon="-1.68994">
        <ele>199</ele>
        <time>2021-06-21T07:11:54.536Z</time>
      </trkpt>
      <trkpt lat="43.2963" lon="-1.68994">
        <ele>199</ele>
        <time>2021-06-21T07:11:55.513Z</time>
      </trkpt>
      <trkpt lat="43.29618" lon="-1.69002">
        <ele>199</ele>
        <time>2021-06-21T07:11:56.571Z</time>
      </trkpt>
      <trkpt lat="43.29612" lon="-1.69006">
        <ele>200</ele>
        <time>2021-06-21T07:11:57.516Z</time>
      </trkpt>
      <trkpt lat="43.29612" lon="-1.69006">
        <ele>200</ele>
        <time>2021-06-21T07:11:58.534Z</time>
      </trkpt>
      <trkpt lat="43.29602" lon="-1.69013">
        <ele>199</ele>
        <time>2021-06-21T07:11:59.541Z</time>
      </trkpt>
      <trkpt lat="43.29598" lon="-1.69015">
        <ele>199</ele>
        <time>2021-06-21T07:12:00.530Z</time>
      </trkpt>
      <trkpt lat="43.29598" lon="-1.69015">
        <ele>199</ele>
        <time>2021-06-21T07:12:01.527Z</time>
      </trkpt>
      <trkpt lat="43.2959" lon="-1.69019">
        <ele>198</ele>
        <time>2021-06-21T07:12:02.532Z</time>
      </trkpt>
      <trkpt lat="43.2959" lon="-1.69019">
        <ele>198</ele>
        <time>2021-06-21T07:12:03.522Z</time>
      </trkpt>
      <trkpt lat="43.29581" lon="-1.69025">
        <ele>198</ele>
        <time>2021-06-21T07:12:04.551Z</time>
      </trkpt>
      <trkpt lat="43.29581" lon="-1.69025">
        <ele>198</ele>
        <time>2021-06-21T07:12:05.533Z</time>
      </trkpt>
      <trkpt lat="43.29574" lon="-1.69036">
        <ele>198</ele>
        <time>2021-06-21T07:12:06.539Z</time>
      </trkpt>
      <trkpt lat="43.29574" lon="-1.69036">
        <ele>198</ele>
        <time>2021-06-21T07:12:07.515Z</time>
      </trkpt>
      <trkpt lat="43.29569" lon="-1.69047">
        <ele>198</ele>
        <time>2021-06-21T07:12:08.522Z</time>
      </trkpt>
      <trkpt lat="43.29569" lon="-1.69047">
        <ele>198</ele>
        <time>2021-06-21T07:12:09.509Z</time>
      </trkpt>
      <trkpt lat="43.29564" lon="-1.6906">
        <ele>198</ele>
        <time>2021-06-21T07:12:10.520Z</time>
      </trkpt>
      <trkpt lat="43.29564" lon="-1.6906">
        <ele>198</ele>
        <time>2021-06-21T07:12:11.518Z</time>
      </trkpt>
      <trkpt lat="43.29562" lon="-1.69072">
        <ele>197</ele>
        <time>2021-06-21T07:12:12.671Z</time>
      </trkpt>
      <trkpt lat="43.29562" lon="-1.69072">
        <ele>197</ele>
        <time>2021-06-21T07:12:13.548Z</time>
      </trkpt>
      <trkpt lat="43.29562" lon="-1.69072">
        <ele>197</ele>
        <time>2021-06-21T07:12:14.516Z</time>
      </trkpt>
      <trkpt lat="43.2956" lon="-1.69084">
        <ele>197</ele>
        <time>2021-06-21T07:12:15.511Z</time>
      </trkpt>
      <trkpt lat="43.29559" lon="-1.69094">
        <ele>196</ele>
        <time>2021-06-21T07:12:16.523Z</time>
      </trkpt>
      <trkpt lat="43.29559" lon="-1.69094">
        <ele>196</ele>
        <time>2021-06-21T07:12:17.522Z</time>
      </trkpt>
      <trkpt lat="43.29555" lon="-1.69102">
        <ele>196</ele>
        <time>2021-06-21T07:12:18.533Z</time>
      </trkpt>
      <trkpt lat="43.29555" lon="-1.69102">
        <ele>196</ele>
        <time>2021-06-21T07:12:19.509Z</time>
      </trkpt>
      <trkpt lat="43.2955" lon="-1.69111">
        <ele>195</ele>
        <time>2021-06-21T07:12:20.516Z</time>
      </trkpt>
      <trkpt lat="43.2955" lon="-1.69111">
        <ele>195</ele>
        <time>2021-06-21T07:12:21.534Z</time>
      </trkpt>
      <trkpt lat="43.29541" lon="-1.69118">
        <ele>195</ele>
        <time>2021-06-21T07:12:22.517Z</time>
      </trkpt>
      <trkpt lat="43.29541" lon="-1.69118">
        <ele>195</ele>
        <time>2021-06-21T07:12:23.525Z</time>
      </trkpt>
      <trkpt lat="43.29535" lon="-1.69123">
        <ele>195</ele>
        <time>2021-06-21T07:12:24.535Z</time>
      </trkpt>
      <trkpt lat="43.29535" lon="-1.69123">
        <ele>195</ele>
        <time>2021-06-21T07:12:25.512Z</time>
      </trkpt>
      <trkpt lat="43.29526" lon="-1.69125">
        <ele>194</ele>
        <time>2021-06-21T07:12:26.588Z</time>
      </trkpt>
      <trkpt lat="43.29522" lon="-1.69125">
        <ele>194</ele>
        <time>2021-06-21T07:12:27.541Z</time>
      </trkpt>
      <trkpt lat="43.29522" lon="-1.69125">
        <ele>194</ele>
        <time>2021-06-21T07:12:28.514Z</time>
      </trkpt>
      <trkpt lat="43.29514" lon="-1.69122">
        <ele>193</ele>
        <time>2021-06-21T07:12:29.530Z</time>
      </trkpt>
      <trkpt lat="43.2951" lon="-1.6912">
        <ele>192</ele>
        <time>2021-06-21T07:12:30.509Z</time>
      </trkpt>
      <trkpt lat="43.2951" lon="-1.6912">
        <ele>192</ele>
        <time>2021-06-21T07:12:31.545Z</time>
      </trkpt>
      <trkpt lat="43.29504" lon="-1.69118">
        <ele>192</ele>
        <time>2021-06-21T07:12:32.512Z</time>
      </trkpt>
      <trkpt lat="43.29504" lon="-1.69118">
        <ele>192</ele>
        <time>2021-06-21T07:12:33.526Z</time>
      </trkpt>
      <trkpt lat="43.29499" lon="-1.69113">
        <ele>191</ele>
        <time>2021-06-21T07:12:34.532Z</time>
      </trkpt>
      <trkpt lat="43.29499" lon="-1.69113">
        <ele>191</ele>
        <time>2021-06-21T07:12:35.515Z</time>
      </trkpt>
      <trkpt lat="43.29495" lon="-1.69107">
        <ele>190</ele>
        <time>2021-06-21T07:12:36.576Z</time>
      </trkpt>
      <trkpt lat="43.29495" lon="-1.69107">
        <ele>190</ele>
        <time>2021-06-21T07:12:37.537Z</time>
      </trkpt>
      <trkpt lat="43.29491" lon="-1.69097">
        <ele>189</ele>
        <time>2021-06-21T07:12:38.513Z</time>
      </trkpt>
      <trkpt lat="43.29488" lon="-1.69092">
        <ele>189</ele>
        <time>2021-06-21T07:12:39.533Z</time>
      </trkpt>
      <trkpt lat="43.29488" lon="-1.69092">
        <ele>189</ele>
        <time>2021-06-21T07:12:40.512Z</time>
      </trkpt>
      <trkpt lat="43.29483" lon="-1.69081">
        <ele>188</ele>
        <time>2021-06-21T07:12:41.520Z</time>
      </trkpt>
      <trkpt lat="43.29481" lon="-1.69078">
        <ele>188</ele>
        <time>2021-06-21T07:12:42.530Z</time>
      </trkpt>
      <trkpt lat="43.29481" lon="-1.69078">
        <ele>188</ele>
        <time>2021-06-21T07:12:43.509Z</time>
      </trkpt>
      <trkpt lat="43.29475" lon="-1.69075">
        <ele>187</ele>
        <time>2021-06-21T07:12:44.517Z</time>
      </trkpt>
      <trkpt lat="43.29475" lon="-1.69075">
        <ele>187</ele>
        <time>2021-06-21T07:12:45.536Z</time>
      </trkpt>
      <trkpt lat="43.29475" lon="-1.69075">
        <ele>187</ele>
        <time>2021-06-21T07:12:46.591Z</time>
      </trkpt>
      <trkpt lat="43.29466" lon="-1.69079">
        <ele>186</ele>
        <time>2021-06-21T07:12:47.548Z</time>
      </trkpt>
      <trkpt lat="43.29462" lon="-1.69081">
        <ele>185</ele>
        <time>2021-06-21T07:12:48.525Z</time>
      </trkpt>
      <trkpt lat="43.29462" lon="-1.69081">
        <ele>185</ele>
        <time>2021-06-21T07:12:49.541Z</time>
      </trkpt>
      <trkpt lat="43.29454" lon="-1.69086">
        <ele>185</ele>
        <time>2021-06-21T07:12:50.510Z</time>
      </trkpt>
      <trkpt lat="43.29454" lon="-1.69086">
        <ele>185</ele>
        <time>2021-06-21T07:12:51.513Z</time>
      </trkpt>
      <trkpt lat="43.29448" lon="-1.69094">
        <ele>184</ele>
        <time>2021-06-21T07:12:52.527Z</time>
      </trkpt>
      <trkpt lat="43.29445" lon="-1.69096">
        <ele>183</ele>
        <time>2021-06-21T07:12:53.509Z</time>
      </trkpt>
      <trkpt lat="43.29444" lon="-1.69099">
        <ele>183</ele>
        <time>2021-06-21T07:12:54.525Z</time>
      </trkpt>
      <trkpt lat="43.29444" lon="-1.69099">
        <ele>183</ele>
        <time>2021-06-21T07:12:55.548Z</time>
      </trkpt>
      <trkpt lat="43.29439" lon="-1.69105">
        <ele>182</ele>
        <time>2021-06-21T07:12:56.514Z</time>
      </trkpt>
      <trkpt lat="43.29437" lon="-1.69109">
        <ele>182</ele>
        <time>2021-06-21T07:12:57.513Z</time>
      </trkpt>
      <trkpt lat="43.29437" lon="-1.69109">
        <ele>182</ele>
        <time>2021-06-21T07:12:58.536Z</time>
      </trkpt>
      <trkpt lat="43.29431" lon="-1.69111">
        <ele>181</ele>
        <time>2021-06-21T07:12:59.542Z</time>
      </trkpt>
      <trkpt lat="43.29429" lon="-1.69111">
        <ele>180</ele>
        <time>2021-06-21T07:13:00.536Z</time>
      </trkpt>
      <trkpt lat="43.29429" lon="-1.69111">
        <ele>180</ele>
        <time>2021-06-21T07:13:01.519Z</time>
      </trkpt>
      <trkpt lat="43.29423" lon="-1.69106">
        <ele>179</ele>
        <time>2021-06-21T07:13:02.527Z</time>
      </trkpt>
      <trkpt lat="43.29423" lon="-1.69106">
        <ele>179</ele>
        <time>2021-06-21T07:13:03.542Z</time>
      </trkpt>
      <trkpt lat="43.29417" lon="-1.69097">
        <ele>178</ele>
        <time>2021-06-21T07:13:04.571Z</time>
      </trkpt>
      <trkpt lat="43.29417" lon="-1.69097">
        <ele>178</ele>
        <time>2021-06-21T07:13:05.548Z</time>
      </trkpt>
      <trkpt lat="43.2941" lon="-1.69086">
        <ele>178</ele>
        <time>2021-06-21T07:13:06.519Z</time>
      </trkpt>
      <trkpt lat="43.2941" lon="-1.69086">
        <ele>178</ele>
        <time>2021-06-21T07:13:07.548Z</time>
      </trkpt>
      <trkpt lat="43.29406" lon="-1.69079">
        <ele>177</ele>
        <time>2021-06-21T07:13:08.517Z</time>
      </trkpt>
      <trkpt lat="43.29406" lon="-1.69079">
        <ele>177</ele>
        <time>2021-06-21T07:13:09.537Z</time>
      </trkpt>
      <trkpt lat="43.29401" lon="-1.69074">
        <ele>176</ele>
        <time>2021-06-21T07:13:10.543Z</time>
      </trkpt>
      <trkpt lat="43.29401" lon="-1.69074">
        <ele>176</ele>
        <time>2021-06-21T07:13:11.521Z</time>
      </trkpt>
      <trkpt lat="43.29401" lon="-1.69074">
        <ele>176</ele>
        <time>2021-06-21T07:13:12.586Z</time>
      </trkpt>
      <trkpt lat="43.29394" lon="-1.69074">
        <ele>176</ele>
        <time>2021-06-21T07:13:13.510Z</time>
      </trkpt>
      <trkpt lat="43.29387" lon="-1.69076">
        <ele>175</ele>
        <time>2021-06-21T07:13:14.521Z</time>
      </trkpt>
      <trkpt lat="43.29387" lon="-1.69076">
        <ele>175</ele>
        <time>2021-06-21T07:13:15.541Z</time>
      </trkpt>
      <trkpt lat="43.29378" lon="-1.69078">
        <ele>174</ele>
        <time>2021-06-21T07:13:16.577Z</time>
      </trkpt>
      <trkpt lat="43.29378" lon="-1.69078">
        <ele>174</ele>
        <time>2021-06-21T07:13:17.532Z</time>
      </trkpt>
      <trkpt lat="43.29371" lon="-1.69076">
        <ele>173</ele>
        <time>2021-06-21T07:13:18.540Z</time>
      </trkpt>
      <trkpt lat="43.29371" lon="-1.69076">
        <ele>173</ele>
        <time>2021-06-21T07:13:19.518Z</time>
      </trkpt>
      <trkpt lat="43.29366" lon="-1.69072">
        <ele>172</ele>
        <time>2021-06-21T07:13:20.526Z</time>
      </trkpt>
      <trkpt lat="43.29366" lon="-1.69072">
        <ele>172</ele>
        <time>2021-06-21T07:13:21.509Z</time>
      </trkpt>
      <trkpt lat="43.29362" lon="-1.69062">
        <ele>171</ele>
        <time>2021-06-21T07:13:22.515Z</time>
      </trkpt>
      <trkpt lat="43.29362" lon="-1.69062">
        <ele>171</ele>
        <time>2021-06-21T07:13:23.510Z</time>
      </trkpt>
      <trkpt lat="43.29358" lon="-1.69047">
        <ele>170</ele>
        <time>2021-06-21T07:13:24.517Z</time>
      </trkpt>
      <trkpt lat="43.29358" lon="-1.69047">
        <ele>170</ele>
        <time>2021-06-21T07:13:25.531Z</time>
      </trkpt>
      <trkpt lat="43.29354" lon="-1.69031">
        <ele>170</ele>
        <time>2021-06-21T07:13:26.540Z</time>
      </trkpt>
      <trkpt lat="43.29354" lon="-1.69031">
        <ele>170</ele>
        <time>2021-06-21T07:13:27.521Z</time>
      </trkpt>
      <trkpt lat="43.29352" lon="-1.69016">
        <ele>169</ele>
        <time>2021-06-21T07:13:28.533Z</time>
      </trkpt>
      <trkpt lat="43.2935" lon="-1.69009">
        <ele>169</ele>
        <time>2021-06-21T07:13:29.532Z</time>
      </trkpt>
      <trkpt lat="43.29348" lon="-1.69003">
        <ele>169</ele>
        <time>2021-06-21T07:13:30.515Z</time>
      </trkpt>
      <trkpt lat="43.29348" lon="-1.69003">
        <ele>169</ele>
        <time>2021-06-21T07:13:31.534Z</time>
      </trkpt>
      <trkpt lat="43.29344" lon="-1.68991">
        <ele>168</ele>
        <time>2021-06-21T07:13:32.540Z</time>
      </trkpt>
      <trkpt lat="43.29344" lon="-1.68991">
        <ele>168</ele>
        <time>2021-06-21T07:13:33.523Z</time>
      </trkpt>
      <trkpt lat="43.29338" lon="-1.68981">
        <ele>168</ele>
        <time>2021-06-21T07:13:34.535Z</time>
      </trkpt>
      <trkpt lat="43.29338" lon="-1.68981">
        <ele>168</ele>
        <time>2021-06-21T07:13:35.521Z</time>
      </trkpt>
      <trkpt lat="43.29333" lon="-1.68976">
        <ele>167</ele>
        <time>2021-06-21T07:13:36.535Z</time>
      </trkpt>
      <trkpt lat="43.29333" lon="-1.68976">
        <ele>167</ele>
        <time>2021-06-21T07:13:37.514Z</time>
      </trkpt>
      <trkpt lat="43.29326" lon="-1.68974">
        <ele>167</ele>
        <time>2021-06-21T07:13:38.525Z</time>
      </trkpt>
      <trkpt lat="43.29326" lon="-1.68974">
        <ele>167</ele>
        <time>2021-06-21T07:13:39.545Z</time>
      </trkpt>
      <trkpt lat="43.29317" lon="-1.68977">
        <ele>166</ele>
        <time>2021-06-21T07:13:40.582Z</time>
      </trkpt>
      <trkpt lat="43.29317" lon="-1.68977">
        <ele>166</ele>
        <time>2021-06-21T07:13:41.513Z</time>
      </trkpt>
      <trkpt lat="43.29309" lon="-1.68985">
        <ele>165</ele>
        <time>2021-06-21T07:13:42.521Z</time>
      </trkpt>
      <trkpt lat="43.29309" lon="-1.68985">
        <ele>165</ele>
        <time>2021-06-21T07:13:43.542Z</time>
      </trkpt>
      <trkpt lat="43.29301" lon="-1.68992">
        <ele>165</ele>
        <time>2021-06-21T07:13:44.514Z</time>
      </trkpt>
      <trkpt lat="43.29301" lon="-1.68992">
        <ele>165</ele>
        <time>2021-06-21T07:13:45.536Z</time>
      </trkpt>
      <trkpt lat="43.29292" lon="-1.68998">
        <ele>164</ele>
        <time>2021-06-21T07:13:46.515Z</time>
      </trkpt>
      <trkpt lat="43.29292" lon="-1.68998">
        <ele>164</ele>
        <time>2021-06-21T07:13:47.531Z</time>
      </trkpt>
      <trkpt lat="43.29283" lon="-1.69">
        <ele>163</ele>
        <time>2021-06-21T07:13:48.566Z</time>
      </trkpt>
      <trkpt lat="43.29279" lon="-1.69">
        <ele>163</ele>
        <time>2021-06-21T07:13:49.531Z</time>
      </trkpt>
      <trkpt lat="43.29279" lon="-1.69">
        <ele>163</ele>
        <time>2021-06-21T07:13:50.520Z</time>
      </trkpt>
      <trkpt lat="43.29273" lon="-1.68999">
        <ele>162</ele>
        <time>2021-06-21T07:13:51.528Z</time>
      </trkpt>
      <trkpt lat="43.29269" lon="-1.68996">
        <ele>161</ele>
        <time>2021-06-21T07:13:52.527Z</time>
      </trkpt>
      <trkpt lat="43.29269" lon="-1.68996">
        <ele>161</ele>
        <time>2021-06-21T07:13:53.543Z</time>
      </trkpt>
      <trkpt lat="43.29265" lon="-1.68991">
        <ele>161</ele>
        <time>2021-06-21T07:13:54.511Z</time>
      </trkpt>
      <trkpt lat="43.29265" lon="-1.68991">
        <ele>161</ele>
        <time>2021-06-21T07:13:55.529Z</time>
      </trkpt>
      <trkpt lat="43.29262" lon="-1.6898">
        <ele>160</ele>
        <time>2021-06-21T07:13:56.539Z</time>
      </trkpt>
      <trkpt lat="43.29262" lon="-1.6898">
        <ele>160</ele>
        <time>2021-06-21T07:13:57.522Z</time>
      </trkpt>
      <trkpt lat="43.29254" lon="-1.68964">
        <ele>159</ele>
        <time>2021-06-21T07:13:58.527Z</time>
      </trkpt>
      <trkpt lat="43.29254" lon="-1.68964">
        <ele>159</ele>
        <time>2021-06-21T07:13:59.539Z</time>
      </trkpt>
      <trkpt lat="43.29248" lon="-1.68948">
        <ele>159</ele>
        <time>2021-06-21T07:14:00.511Z</time>
      </trkpt>
      <trkpt lat="43.29248" lon="-1.68948">
        <ele>159</ele>
        <time>2021-06-21T07:14:01.522Z</time>
      </trkpt>
      <trkpt lat="43.29242" lon="-1.68934">
        <ele>158</ele>
        <time>2021-06-21T07:14:02.529Z</time>
      </trkpt>
      <trkpt lat="43.29242" lon="-1.68934">
        <ele>158</ele>
        <time>2021-06-21T07:14:03.537Z</time>
      </trkpt>
      <trkpt lat="43.29238" lon="-1.68922">
        <ele>158</ele>
        <time>2021-06-21T07:14:04.543Z</time>
      </trkpt>
      <trkpt lat="43.29235" lon="-1.68917">
        <ele>157</ele>
        <time>2021-06-21T07:14:05.528Z</time>
      </trkpt>
      <trkpt lat="43.29232" lon="-1.68912">
        <ele>157</ele>
        <time>2021-06-21T07:14:06.512Z</time>
      </trkpt>
      <trkpt lat="43.29232" lon="-1.68912">
        <ele>157</ele>
        <time>2021-06-21T07:14:07.509Z</time>
      </trkpt>
      <trkpt lat="43.29226" lon="-1.68904">
        <ele>157</ele>
        <time>2021-06-21T07:14:08.523Z</time>
      </trkpt>
      <trkpt lat="43.29226" lon="-1.68904">
        <ele>157</ele>
        <time>2021-06-21T07:14:09.510Z</time>
      </trkpt>
      <trkpt lat="43.2922" lon="-1.68901">
        <ele>156</ele>
        <time>2021-06-21T07:14:10.532Z</time>
      </trkpt>
      <trkpt lat="43.2922" lon="-1.68901">
        <ele>156</ele>
        <time>2021-06-21T07:14:11.513Z</time>
      </trkpt>
      <trkpt lat="43.29213" lon="-1.68897">
        <ele>155</ele>
        <time>2021-06-21T07:14:12.621Z</time>
      </trkpt>
      <trkpt lat="43.29213" lon="-1.68897">
        <ele>155</ele>
        <time>2021-06-21T07:14:13.517Z</time>
      </trkpt>
      <trkpt lat="43.29208" lon="-1.68892">
        <ele>154</ele>
        <time>2021-06-21T07:14:14.526Z</time>
      </trkpt>
      <trkpt lat="43.29208" lon="-1.68892">
        <ele>154</ele>
        <time>2021-06-21T07:14:15.509Z</time>
      </trkpt>
      <trkpt lat="43.29202" lon="-1.6888">
        <ele>154</ele>
        <time>2021-06-21T07:14:16.515Z</time>
      </trkpt>
      <trkpt lat="43.29202" lon="-1.6888">
        <ele>154</ele>
        <time>2021-06-21T07:14:17.535Z</time>
      </trkpt>
      <trkpt lat="43.29198" lon="-1.68866">
        <ele>154</ele>
        <time>2021-06-21T07:14:18.541Z</time>
      </trkpt>
      <trkpt lat="43.29198" lon="-1.68866">
        <ele>154</ele>
        <time>2021-06-21T07:14:19.512Z</time>
      </trkpt>
      <trkpt lat="43.29195" lon="-1.68851">
        <ele>153</ele>
        <time>2021-06-21T07:14:20.521Z</time>
      </trkpt>
      <trkpt lat="43.29195" lon="-1.68851">
        <ele>153</ele>
        <time>2021-06-21T07:14:21.518Z</time>
      </trkpt>
      <trkpt lat="43.29194" lon="-1.68838">
        <ele>153</ele>
        <time>2021-06-21T07:14:22.546Z</time>
      </trkpt>
      <trkpt lat="43.29194" lon="-1.68838">
        <ele>153</ele>
        <time>2021-06-21T07:14:23.535Z</time>
      </trkpt>
      <trkpt lat="43.2919" lon="-1.68825">
        <ele>152</ele>
        <time>2021-06-21T07:14:24.540Z</time>
      </trkpt>
      <trkpt lat="43.2919" lon="-1.68825">
        <ele>152</ele>
        <time>2021-06-21T07:14:25.538Z</time>
      </trkpt>
      <trkpt lat="43.29184" lon="-1.68813">
        <ele>152</ele>
        <time>2021-06-21T07:14:26.512Z</time>
      </trkpt>
      <trkpt lat="43.29184" lon="-1.68813">
        <ele>152</ele>
        <time>2021-06-21T07:14:27.512Z</time>
      </trkpt>
      <trkpt lat="43.29177" lon="-1.68805">
        <ele>151</ele>
        <time>2021-06-21T07:14:28.519Z</time>
      </trkpt>
      <trkpt lat="43.29177" lon="-1.68805">
        <ele>151</ele>
        <time>2021-06-21T07:14:29.536Z</time>
      </trkpt>
      <trkpt lat="43.29169" lon="-1.68801">
        <ele>151</ele>
        <time>2021-06-21T07:14:30.545Z</time>
      </trkpt>
      <trkpt lat="43.29163" lon="-1.68799">
        <ele>150</ele>
        <time>2021-06-21T07:14:31.526Z</time>
      </trkpt>
      <trkpt lat="43.29163" lon="-1.68799">
        <ele>150</ele>
        <time>2021-06-21T07:14:32.549Z</time>
      </trkpt>
      <trkpt lat="43.29154" lon="-1.68799">
        <ele>149</ele>
        <time>2021-06-21T07:14:33.514Z</time>
      </trkpt>
      <trkpt lat="43.29154" lon="-1.68799">
        <ele>149</ele>
        <time>2021-06-21T07:14:34.529Z</time>
      </trkpt>
      <trkpt lat="43.29144" lon="-1.68799">
        <ele>149</ele>
        <time>2021-06-21T07:14:35.539Z</time>
      </trkpt>
      <trkpt lat="43.29139" lon="-1.688">
        <ele>148</ele>
        <time>2021-06-21T07:14:36.520Z</time>
      </trkpt>
      <trkpt lat="43.29139" lon="-1.688">
        <ele>148</ele>
        <time>2021-06-21T07:14:37.548Z</time>
      </trkpt>
      <trkpt lat="43.2913" lon="-1.68802">
        <ele>148</ele>
        <time>2021-06-21T07:14:38.515Z</time>
      </trkpt>
      <trkpt lat="43.2913" lon="-1.68802">
        <ele>148</ele>
        <time>2021-06-21T07:14:39.542Z</time>
      </trkpt>
      <trkpt lat="43.2912" lon="-1.68803">
        <ele>147</ele>
        <time>2021-06-21T07:14:40.511Z</time>
      </trkpt>
      <trkpt lat="43.2912" lon="-1.68803">
        <ele>147</ele>
        <time>2021-06-21T07:14:41.538Z</time>
      </trkpt>
      <trkpt lat="43.29113" lon="-1.68806">
        <ele>147</ele>
        <time>2021-06-21T07:14:42.544Z</time>
      </trkpt>
      <trkpt lat="43.29113" lon="-1.68806">
        <ele>147</ele>
        <time>2021-06-21T07:14:43.527Z</time>
      </trkpt>
      <trkpt lat="43.29107" lon="-1.68809">
        <ele>146</ele>
        <time>2021-06-21T07:14:44.535Z</time>
      </trkpt>
      <trkpt lat="43.29107" lon="-1.68809">
        <ele>146</ele>
        <time>2021-06-21T07:14:45.509Z</time>
      </trkpt>
      <trkpt lat="43.29103" lon="-1.68813">
        <ele>145</ele>
        <time>2021-06-21T07:14:46.536Z</time>
      </trkpt>
      <trkpt lat="43.29099" lon="-1.68814">
        <ele>145</ele>
        <time>2021-06-21T07:14:47.614Z</time>
      </trkpt>
      <trkpt lat="43.29096" lon="-1.68814">
        <ele>144</ele>
        <time>2021-06-21T07:14:48.524Z</time>
      </trkpt>
      <trkpt lat="43.29096" lon="-1.68814">
        <ele>144</ele>
        <time>2021-06-21T07:14:49.539Z</time>
      </trkpt>
      <trkpt lat="43.29089" lon="-1.68813">
        <ele>143</ele>
        <time>2021-06-21T07:14:50.511Z</time>
      </trkpt>
      <trkpt lat="43.29089" lon="-1.68813">
        <ele>143</ele>
        <time>2021-06-21T07:14:51.524Z</time>
      </trkpt>
      <trkpt lat="43.29089" lon="-1.68813">
        <ele>143</ele>
        <time>2021-06-21T07:14:52.531Z</time>
      </trkpt>
      <trkpt lat="43.2908" lon="-1.68806">
        <ele>143</ele>
        <time>2021-06-21T07:14:53.517Z</time>
      </trkpt>
      <trkpt lat="43.29075" lon="-1.68799">
        <ele>142</ele>
        <time>2021-06-21T07:14:54.523Z</time>
      </trkpt>
      <trkpt lat="43.29075" lon="-1.68799">
        <ele>142</ele>
        <time>2021-06-21T07:14:55.512Z</time>
      </trkpt>
      <trkpt lat="43.29071" lon="-1.68786">
        <ele>142</ele>
        <time>2021-06-21T07:14:56.521Z</time>
      </trkpt>
      <trkpt lat="43.2907" lon="-1.6878">
        <ele>142</ele>
        <time>2021-06-21T07:14:57.510Z</time>
      </trkpt>
      <trkpt lat="43.2907" lon="-1.6878">
        <ele>142</ele>
        <time>2021-06-21T07:14:58.543Z</time>
      </trkpt>
      <trkpt lat="43.29067" lon="-1.68765">
        <ele>142</ele>
        <time>2021-06-21T07:14:59.514Z</time>
      </trkpt>
      <trkpt lat="43.29068" lon="-1.68758">
        <ele>142</ele>
        <time>2021-06-21T07:15:00.539Z</time>
      </trkpt>
      <trkpt lat="43.29068" lon="-1.68758">
        <ele>142</ele>
        <time>2021-06-21T07:15:01.513Z</time>
      </trkpt>
      <trkpt lat="43.29071" lon="-1.68746">
        <ele>142</ele>
        <time>2021-06-21T07:15:02.521Z</time>
      </trkpt>
      <trkpt lat="43.29071" lon="-1.68739">
        <ele>142</ele>
        <time>2021-06-21T07:15:03.541Z</time>
      </trkpt>
      <trkpt lat="43.29071" lon="-1.68739">
        <ele>142</ele>
        <time>2021-06-21T07:15:04.519Z</time>
      </trkpt>
      <trkpt lat="43.29071" lon="-1.68727">
        <ele>142</ele>
        <time>2021-06-21T07:15:05.526Z</time>
      </trkpt>
      <trkpt lat="43.29071" lon="-1.68721">
        <ele>142</ele>
        <time>2021-06-21T07:15:06.517Z</time>
      </trkpt>
      <trkpt lat="43.29071" lon="-1.68721">
        <ele>142</ele>
        <time>2021-06-21T07:15:07.527Z</time>
      </trkpt>
      <trkpt lat="43.29068" lon="-1.68708">
        <ele>141</ele>
        <time>2021-06-21T07:15:08.533Z</time>
      </trkpt>
      <trkpt lat="43.29068" lon="-1.68708">
        <ele>141</ele>
        <time>2021-06-21T07:15:09.518Z</time>
      </trkpt>
      <trkpt lat="43.29062" lon="-1.68698">
        <ele>141</ele>
        <time>2021-06-21T07:15:10.532Z</time>
      </trkpt>
      <trkpt lat="43.29059" lon="-1.68694">
        <ele>141</ele>
        <time>2021-06-21T07:15:11.522Z</time>
      </trkpt>
      <trkpt lat="43.29056" lon="-1.6869">
        <ele>141</ele>
        <time>2021-06-21T07:15:12.622Z</time>
      </trkpt>
      <trkpt lat="43.29056" lon="-1.6869">
        <ele>141</ele>
        <time>2021-06-21T07:15:13.537Z</time>
      </trkpt>
      <trkpt lat="43.2905" lon="-1.68685">
        <ele>141</ele>
        <time>2021-06-21T07:15:14.548Z</time>
      </trkpt>
      <trkpt lat="43.2905" lon="-1.68685">
        <ele>141</ele>
        <time>2021-06-21T07:15:15.522Z</time>
      </trkpt>
      <trkpt lat="43.29047" lon="-1.6868">
        <ele>140</ele>
        <time>2021-06-21T07:15:16.541Z</time>
      </trkpt>
      <trkpt lat="43.29047" lon="-1.6868">
        <ele>140</ele>
        <time>2021-06-21T07:15:17.524Z</time>
      </trkpt>
      <trkpt lat="43.29042" lon="-1.68669">
        <ele>140</ele>
        <time>2021-06-21T07:15:18.597Z</time>
      </trkpt>
      <trkpt lat="43.29042" lon="-1.68669">
        <ele>140</ele>
        <time>2021-06-21T07:15:19.539Z</time>
      </trkpt>
      <trkpt lat="43.2904" lon="-1.68657">
        <ele>140</ele>
        <time>2021-06-21T07:15:20.513Z</time>
      </trkpt>
      <trkpt lat="43.29041" lon="-1.68651">
        <ele>140</ele>
        <time>2021-06-21T07:15:21.538Z</time>
      </trkpt>
      <trkpt lat="43.29041" lon="-1.68651">
        <ele>140</ele>
        <time>2021-06-21T07:15:22.511Z</time>
      </trkpt>
      <trkpt lat="43.29044" lon="-1.68636">
        <ele>139</ele>
        <time>2021-06-21T07:15:23.541Z</time>
      </trkpt>
      <trkpt lat="43.29046" lon="-1.68629">
        <ele>139</ele>
        <time>2021-06-21T07:15:24.524Z</time>
      </trkpt>
      <trkpt lat="43.29046" lon="-1.68629">
        <ele>139</ele>
        <time>2021-06-21T07:15:25.543Z</time>
      </trkpt>
      <trkpt lat="43.2905" lon="-1.68613">
        <ele>138</ele>
        <time>2021-06-21T07:15:26.511Z</time>
      </trkpt>
      <trkpt lat="43.2905" lon="-1.68613">
        <ele>138</ele>
        <time>2021-06-21T07:15:27.536Z</time>
      </trkpt>
      <trkpt lat="43.29054" lon="-1.68599">
        <ele>138</ele>
        <time>2021-06-21T07:15:28.561Z</time>
      </trkpt>
      <trkpt lat="43.29054" lon="-1.68599">
        <ele>138</ele>
        <time>2021-06-21T07:15:29.536Z</time>
      </trkpt>
      <trkpt lat="43.29057" lon="-1.68587">
        <ele>137</ele>
        <time>2021-06-21T07:15:30.542Z</time>
      </trkpt>
      <trkpt lat="43.29057" lon="-1.68587">
        <ele>137</ele>
        <time>2021-06-21T07:15:31.518Z</time>
      </trkpt>
      <trkpt lat="43.29058" lon="-1.68575">
        <ele>137</ele>
        <time>2021-06-21T07:15:32.526Z</time>
      </trkpt>
      <trkpt lat="43.29058" lon="-1.68575">
        <ele>137</ele>
        <time>2021-06-21T07:15:33.517Z</time>
      </trkpt>
      <trkpt lat="43.29057" lon="-1.68565">
        <ele>136</ele>
        <time>2021-06-21T07:15:34.532Z</time>
      </trkpt>
      <trkpt lat="43.29057" lon="-1.68565">
        <ele>136</ele>
        <time>2021-06-21T07:15:35.514Z</time>
      </trkpt>
      <trkpt lat="43.29055" lon="-1.68557">
        <ele>135</ele>
        <time>2021-06-21T07:15:36.590Z</time>
      </trkpt>
      <trkpt lat="43.29055" lon="-1.68557">
        <ele>135</ele>
        <time>2021-06-21T07:15:37.543Z</time>
      </trkpt>
      <trkpt lat="43.29048" lon="-1.68553">
        <ele>135</ele>
        <time>2021-06-21T07:15:38.513Z</time>
      </trkpt>
      <trkpt lat="43.29048" lon="-1.68553">
        <ele>135</ele>
        <time>2021-06-21T07:15:39.512Z</time>
      </trkpt>
      <trkpt lat="43.29038" lon="-1.68552">
        <ele>135</ele>
        <time>2021-06-21T07:15:40.522Z</time>
      </trkpt>
      <trkpt lat="43.29038" lon="-1.68552">
        <ele>135</ele>
        <time>2021-06-21T07:15:41.515Z</time>
      </trkpt>
      <trkpt lat="43.2903" lon="-1.68556">
        <ele>134</ele>
        <time>2021-06-21T07:15:42.530Z</time>
      </trkpt>
      <trkpt lat="43.2903" lon="-1.68556">
        <ele>134</ele>
        <time>2021-06-21T07:15:43.512Z</time>
      </trkpt>
      <trkpt lat="43.29022" lon="-1.68563">
        <ele>134</ele>
        <time>2021-06-21T07:15:44.520Z</time>
      </trkpt>
      <trkpt lat="43.29022" lon="-1.68563">
        <ele>134</ele>
        <time>2021-06-21T07:15:45.511Z</time>
      </trkpt>
      <trkpt lat="43.29015" lon="-1.6857">
        <ele>133</ele>
        <time>2021-06-21T07:15:46.577Z</time>
      </trkpt>
      <trkpt lat="43.29015" lon="-1.6857">
        <ele>133</ele>
        <time>2021-06-21T07:15:47.545Z</time>
      </trkpt>
      <trkpt lat="43.29008" lon="-1.68575">
        <ele>133</ele>
        <time>2021-06-21T07:15:48.518Z</time>
      </trkpt>
      <trkpt lat="43.29008" lon="-1.68575">
        <ele>133</ele>
        <time>2021-06-21T07:15:49.543Z</time>
      </trkpt>
      <trkpt lat="43.28999" lon="-1.68574">
        <ele>132</ele>
        <time>2021-06-21T07:15:50.509Z</time>
      </trkpt>
      <trkpt lat="43.28999" lon="-1.68574">
        <ele>132</ele>
        <time>2021-06-21T07:15:51.533Z</time>
      </trkpt>
      <trkpt lat="43.28991" lon="-1.6857">
        <ele>132</ele>
        <time>2021-06-21T07:15:52.541Z</time>
      </trkpt>
      <trkpt lat="43.28991" lon="-1.6857">
        <ele>132</ele>
        <time>2021-06-21T07:15:53.530Z</time>
      </trkpt>
      <trkpt lat="43.28986" lon="-1.68566">
        <ele>131</ele>
        <time>2021-06-21T07:15:54.538Z</time>
      </trkpt>
      <trkpt lat="43.28986" lon="-1.68566">
        <ele>131</ele>
        <time>2021-06-21T07:15:55.522Z</time>
      </trkpt>
      <trkpt lat="43.28981" lon="-1.68562">
        <ele>131</ele>
        <time>2021-06-21T07:15:56.529Z</time>
      </trkpt>
      <trkpt lat="43.28981" lon="-1.68562">
        <ele>131</ele>
        <time>2021-06-21T07:15:57.514Z</time>
      </trkpt>
      <trkpt lat="43.28978" lon="-1.68557">
        <ele>131</ele>
        <time>2021-06-21T07:15:58.525Z</time>
      </trkpt>
      <trkpt lat="43.28978" lon="-1.68557">
        <ele>131</ele>
        <time>2021-06-21T07:15:59.544Z</time>
      </trkpt>
      <trkpt lat="43.28975" lon="-1.68552">
        <ele>130</ele>
        <time>2021-06-21T07:16:00.510Z</time>
      </trkpt>
      <trkpt lat="43.28975" lon="-1.68552">
        <ele>130</ele>
        <time>2021-06-21T07:16:01.533Z</time>
      </trkpt>
      <trkpt lat="43.28973" lon="-1.68546">
        <ele>130</ele>
        <time>2021-06-21T07:16:02.541Z</time>
      </trkpt>
      <trkpt lat="43.28973" lon="-1.68546">
        <ele>130</ele>
        <time>2021-06-21T07:16:03.521Z</time>
      </trkpt>
      <trkpt lat="43.28972" lon="-1.68544">
        <ele>130</ele>
        <time>2021-06-21T07:16:04.527Z</time>
      </trkpt>
      <trkpt lat="43.28971" lon="-1.68544">
        <ele>130</ele>
        <time>2021-06-21T07:16:05.528Z</time>
      </trkpt>
      <trkpt lat="43.28971" lon="-1.68544">
        <ele>130</ele>
        <time>2021-06-21T07:16:06.539Z</time>
      </trkpt>
      <trkpt lat="43.28971" lon="-1.68544">
        <ele>130</ele>
        <time>2021-06-21T07:16:07.511Z</time>
      </trkpt>
      <trkpt lat="43.28971" lon="-1.68544">
        <ele>130</ele>
        <time>2021-06-21T07:16:08.516Z</time>
      </trkpt>
      <trkpt lat="43.28971" lon="-1.68544">
        <ele>130</ele>
        <time>2021-06-21T07:16:09.525Z</time>
      </trkpt>
      <trkpt lat="43.28971" lon="-1.68544">
        <ele>130</ele>
        <time>2021-06-21T07:16:10.536Z</time>
      </trkpt>
      <trkpt lat="43.28971" lon="-1.68544">
        <ele>130</ele>
        <time>2021-06-21T07:16:11.516Z</time>
      </trkpt>
      <trkpt lat="43.28971" lon="-1.68544">
        <ele>130</ele>
        <time>2021-06-21T07:16:12.532Z</time>
      </trkpt>
      <trkpt lat="43.28971" lon="-1.68544">
        <ele>130</ele>
        <time>2021-06-21T07:16:13.519Z</time>
      </trkpt>
      <trkpt lat="43.28971" lon="-1.68544">
        <ele>130</ele>
        <time>2021-06-21T07:16:14.534Z</time>
      </trkpt>
      <trkpt lat="43.28971" lon="-1.68544">
        <ele>130</ele>
        <time>2021-06-21T07:16:15.521Z</time>
      </trkpt>
      <trkpt lat="43.28971" lon="-1.68544">
        <ele>130</ele>
        <time>2021-06-21T07:16:16.536Z</time>
      </trkpt>
      <trkpt lat="43.28971" lon="-1.68544">
        <ele>130</ele>
        <time>2021-06-21T07:16:17.519Z</time>
      </trkpt>
      <trkpt lat="43.28971" lon="-1.68544">
        <ele>130</ele>
        <time>2021-06-21T07:16:18.533Z</time>
      </trkpt>
      <trkpt lat="43.28971" lon="-1.68544">
        <ele>130</ele>
        <time>2021-06-21T07:16:19.519Z</time>
      </trkpt>
      <trkpt lat="43.28971" lon="-1.68544">
        <ele>130</ele>
        <time>2021-06-21T07:16:20.534Z</time>
      </trkpt>
      <trkpt lat="43.28971" lon="-1.68544">
        <ele>130</ele>
        <time>2021-06-21T07:16:21.518Z</time>
      </trkpt>
      <trkpt lat="43.28971" lon="-1.68541">
        <ele>130</ele>
        <time>2021-06-21T07:16:22.526Z</time>
      </trkpt>
      <trkpt lat="43.28972" lon="-1.6854">
        <ele>130</ele>
        <time>2021-06-21T07:16:23.527Z</time>
      </trkpt>
      <trkpt lat="43.28972" lon="-1.6854">
        <ele>130</ele>
        <time>2021-06-21T07:16:24.538Z</time>
      </trkpt>
      <trkpt lat="43.28979" lon="-1.68536">
        <ele>131</ele>
        <time>2021-06-21T07:16:25.525Z</time>
      </trkpt>
      <trkpt lat="43.28979" lon="-1.68536">
        <ele>131</ele>
        <time>2021-06-21T07:16:26.540Z</time>
      </trkpt>
      <trkpt lat="43.28979" lon="-1.68536">
        <ele>131</ele>
        <time>2021-06-21T07:16:27.542Z</time>
      </trkpt>
      <trkpt lat="43.28984" lon="-1.68533">
        <ele>131</ele>
        <time>2021-06-21T07:16:28.538Z</time>
      </trkpt>
      <trkpt lat="43.28991" lon="-1.68531">
        <ele>131</ele>
        <time>2021-06-21T07:16:29.546Z</time>
      </trkpt>
      <trkpt lat="43.28996" lon="-1.68531">
        <ele>131</ele>
        <time>2021-06-21T07:16:30.522Z</time>
      </trkpt>
      <trkpt lat="43.28996" lon="-1.68531">
        <ele>131</ele>
        <time>2021-06-21T07:16:31.541Z</time>
      </trkpt>
      <trkpt lat="43.29006" lon="-1.68529">
        <ele>131</ele>
        <time>2021-06-21T07:16:32.519Z</time>
      </trkpt>
      <trkpt lat="43.29006" lon="-1.68529">
        <ele>131</ele>
        <time>2021-06-21T07:16:33.539Z</time>
      </trkpt>
      <trkpt lat="43.29016" lon="-1.68527">
        <ele>131</ele>
        <time>2021-06-21T07:16:34.546Z</time>
      </trkpt>
      <trkpt lat="43.29016" lon="-1.68527">
        <ele>131</ele>
        <time>2021-06-21T07:16:35.529Z</time>
      </trkpt>
      <trkpt lat="43.29026" lon="-1.68528">
        <ele>131</ele>
        <time>2021-06-21T07:16:36.540Z</time>
      </trkpt>
      <trkpt lat="43.29026" lon="-1.68528">
        <ele>131</ele>
        <time>2021-06-21T07:16:37.520Z</time>
      </trkpt>
      <trkpt lat="43.29035" lon="-1.68527">
        <ele>131</ele>
        <time>2021-06-21T07:16:38.527Z</time>
      </trkpt>
      <trkpt lat="43.29035" lon="-1.68527">
        <ele>131</ele>
        <time>2021-06-21T07:16:39.514Z</time>
      </trkpt>
      <trkpt lat="43.29045" lon="-1.68526">
        <ele>131</ele>
        <time>2021-06-21T07:16:40.521Z</time>
      </trkpt>
      <trkpt lat="43.29049" lon="-1.68525">
        <ele>130</ele>
        <time>2021-06-21T07:16:41.548Z</time>
      </trkpt>
      <trkpt lat="43.29054" lon="-1.68524">
        <ele>130</ele>
        <time>2021-06-21T07:16:42.584Z</time>
      </trkpt>
      <trkpt lat="43.29054" lon="-1.68524">
        <ele>130</ele>
        <time>2021-06-21T07:16:43.520Z</time>
      </trkpt>
      <trkpt lat="43.29062" lon="-1.68523">
        <ele>130</ele>
        <time>2021-06-21T07:16:44.526Z</time>
      </trkpt>
      <trkpt lat="43.29062" lon="-1.68523">
        <ele>130</ele>
        <time>2021-06-21T07:16:45.546Z</time>
      </trkpt>
      <trkpt lat="43.29071" lon="-1.68526">
        <ele>129</ele>
        <time>2021-06-21T07:16:46.512Z</time>
      </trkpt>
      <trkpt lat="43.29071" lon="-1.68526">
        <ele>129</ele>
        <time>2021-06-21T07:16:47.537Z</time>
      </trkpt>
      <trkpt lat="43.2908" lon="-1.6853">
        <ele>129</ele>
        <time>2021-06-21T07:16:48.561Z</time>
      </trkpt>
      <trkpt lat="43.2908" lon="-1.6853">
        <ele>129</ele>
        <time>2021-06-21T07:16:49.522Z</time>
      </trkpt>
      <trkpt lat="43.29087" lon="-1.68535">
        <ele>128</ele>
        <time>2021-06-21T07:16:50.541Z</time>
      </trkpt>
      <trkpt lat="43.29087" lon="-1.68535">
        <ele>128</ele>
        <time>2021-06-21T07:16:51.516Z</time>
      </trkpt>
      <trkpt lat="43.29093" lon="-1.68541">
        <ele>128</ele>
        <time>2021-06-21T07:16:52.523Z</time>
      </trkpt>
      <trkpt lat="43.29093" lon="-1.68541">
        <ele>128</ele>
        <time>2021-06-21T07:16:53.540Z</time>
      </trkpt>
      <trkpt lat="43.29097" lon="-1.68547">
        <ele>128</ele>
        <time>2021-06-21T07:16:54.547Z</time>
      </trkpt>
      <trkpt lat="43.29097" lon="-1.68547">
        <ele>128</ele>
        <time>2021-06-21T07:16:55.521Z</time>
      </trkpt>
      <trkpt lat="43.291" lon="-1.68555">
        <ele>128</ele>
        <time>2021-06-21T07:16:56.527Z</time>
      </trkpt>
      <trkpt lat="43.291" lon="-1.68555">
        <ele>128</ele>
        <time>2021-06-21T07:16:57.517Z</time>
      </trkpt>
      <trkpt lat="43.291" lon="-1.68563">
        <ele>128</ele>
        <time>2021-06-21T07:16:58.524Z</time>
      </trkpt>
      <trkpt lat="43.291" lon="-1.68563">
        <ele>128</ele>
        <time>2021-06-21T07:16:59.518Z</time>
      </trkpt>
      <trkpt lat="43.29098" lon="-1.68574">
        <ele>127</ele>
        <time>2021-06-21T07:17:00.525Z</time>
      </trkpt>
      <trkpt lat="43.29098" lon="-1.68574">
        <ele>127</ele>
        <time>2021-06-21T07:17:01.538Z</time>
      </trkpt>
      <trkpt lat="43.29095" lon="-1.68586">
        <ele>126</ele>
        <time>2021-06-21T07:17:02.544Z</time>
      </trkpt>
      <trkpt lat="43.29095" lon="-1.68586">
        <ele>126</ele>
        <time>2021-06-21T07:17:03.516Z</time>
      </trkpt>
      <trkpt lat="43.29092" lon="-1.68598">
        <ele>126</ele>
        <time>2021-06-21T07:17:04.521Z</time>
      </trkpt>
      <trkpt lat="43.29092" lon="-1.68598">
        <ele>126</ele>
        <time>2021-06-21T07:17:05.536Z</time>
      </trkpt>
      <trkpt lat="43.2909" lon="-1.68609">
        <ele>125</ele>
        <time>2021-06-21T07:17:06.580Z</time>
      </trkpt>
      <trkpt lat="43.2909" lon="-1.68609">
        <ele>125</ele>
        <time>2021-06-21T07:17:07.517Z</time>
      </trkpt>
      <trkpt lat="43.2909" lon="-1.68622">
        <ele>125</ele>
        <time>2021-06-21T07:17:08.525Z</time>
      </trkpt>
      <trkpt lat="43.2909" lon="-1.68622">
        <ele>125</ele>
        <time>2021-06-21T07:17:09.512Z</time>
      </trkpt>
      <trkpt lat="43.29092" lon="-1.68635">
        <ele>124</ele>
        <time>2021-06-21T07:17:10.527Z</time>
      </trkpt>
      <trkpt lat="43.29092" lon="-1.68635">
        <ele>124</ele>
        <time>2021-06-21T07:17:11.513Z</time>
      </trkpt>
      <trkpt lat="43.29097" lon="-1.68648">
        <ele>123</ele>
        <time>2021-06-21T07:17:12.520Z</time>
      </trkpt>
      <trkpt lat="43.29097" lon="-1.68648">
        <ele>123</ele>
        <time>2021-06-21T07:17:13.521Z</time>
      </trkpt>
      <trkpt lat="43.29103" lon="-1.68661">
        <ele>123</ele>
        <time>2021-06-21T07:17:14.520Z</time>
      </trkpt>
      <trkpt lat="43.29103" lon="-1.68661">
        <ele>123</ele>
        <time>2021-06-21T07:17:15.533Z</time>
      </trkpt>
      <trkpt lat="43.29106" lon="-1.68671">
        <ele>122</ele>
        <time>2021-06-21T07:17:16.549Z</time>
      </trkpt>
      <trkpt lat="43.29106" lon="-1.68671">
        <ele>122</ele>
        <time>2021-06-21T07:17:17.527Z</time>
      </trkpt>
      <trkpt lat="43.2911" lon="-1.68681">
        <ele>122</ele>
        <time>2021-06-21T07:17:18.558Z</time>
      </trkpt>
      <trkpt lat="43.2911" lon="-1.68681">
        <ele>122</ele>
        <time>2021-06-21T07:17:19.514Z</time>
      </trkpt>
      <trkpt lat="43.29112" lon="-1.68692">
        <ele>121</ele>
        <time>2021-06-21T07:17:20.523Z</time>
      </trkpt>
      <trkpt lat="43.29112" lon="-1.68692">
        <ele>121</ele>
        <time>2021-06-21T07:17:21.534Z</time>
      </trkpt>
      <trkpt lat="43.29116" lon="-1.68701">
        <ele>120</ele>
        <time>2021-06-21T07:17:22.513Z</time>
      </trkpt>
      <trkpt lat="43.29116" lon="-1.68701">
        <ele>120</ele>
        <time>2021-06-21T07:17:23.530Z</time>
      </trkpt>
      <trkpt lat="43.29121" lon="-1.68708">
        <ele>120</ele>
        <time>2021-06-21T07:17:24.536Z</time>
      </trkpt>
      <trkpt lat="43.29121" lon="-1.68708">
        <ele>120</ele>
        <time>2021-06-21T07:17:25.515Z</time>
      </trkpt>
      <trkpt lat="43.29127" lon="-1.6871">
        <ele>119</ele>
        <time>2021-06-21T07:17:26.525Z</time>
      </trkpt>
      <trkpt lat="43.29129" lon="-1.6871">
        <ele>119</ele>
        <time>2021-06-21T07:17:27.541Z</time>
      </trkpt>
      <trkpt lat="43.29129" lon="-1.6871">
        <ele>119</ele>
        <time>2021-06-21T07:17:28.509Z</time>
      </trkpt>
      <trkpt lat="43.29135" lon="-1.68708">
        <ele>118</ele>
        <time>2021-06-21T07:17:29.516Z</time>
      </trkpt>
      <trkpt lat="43.29139" lon="-1.68706">
        <ele>118</ele>
        <time>2021-06-21T07:17:30.536Z</time>
      </trkpt>
      <trkpt lat="43.29139" lon="-1.68706">
        <ele>118</ele>
        <time>2021-06-21T07:17:31.513Z</time>
      </trkpt>
      <trkpt lat="43.29144" lon="-1.68702">
        <ele>117</ele>
        <time>2021-06-21T07:17:32.526Z</time>
      </trkpt>
      <trkpt lat="43.29146" lon="-1.68701">
        <ele>117</ele>
        <time>2021-06-21T07:17:33.544Z</time>
      </trkpt>
      <trkpt lat="43.29146" lon="-1.68701">
        <ele>117</ele>
        <time>2021-06-21T07:17:34.523Z</time>
      </trkpt>
      <trkpt lat="43.29151" lon="-1.68697">
        <ele>116</ele>
        <time>2021-06-21T07:17:35.537Z</time>
      </trkpt>
      <trkpt lat="43.29152" lon="-1.68696">
        <ele>116</ele>
        <time>2021-06-21T07:17:36.519Z</time>
      </trkpt>
      <trkpt lat="43.29152" lon="-1.68696">
        <ele>116</ele>
        <time>2021-06-21T07:17:37.524Z</time>
      </trkpt>
      <trkpt lat="43.29155" lon="-1.68692">
        <ele>116</ele>
        <time>2021-06-21T07:17:38.529Z</time>
      </trkpt>
      <trkpt lat="43.29155" lon="-1.68692">
        <ele>116</ele>
        <time>2021-06-21T07:17:39.534Z</time>
      </trkpt>
      <trkpt lat="43.29156" lon="-1.68686">
        <ele>115</ele>
        <time>2021-06-21T07:17:40.568Z</time>
      </trkpt>
      <trkpt lat="43.29156" lon="-1.68684">
        <ele>115</ele>
        <time>2021-06-21T07:17:41.548Z</time>
      </trkpt>
      <trkpt lat="43.29156" lon="-1.68682">
        <ele>114</ele>
        <time>2021-06-21T07:17:42.541Z</time>
      </trkpt>
      <trkpt lat="43.29156" lon="-1.68682">
        <ele>114</ele>
        <time>2021-06-21T07:17:43.520Z</time>
      </trkpt>
      <trkpt lat="43.29151" lon="-1.68679">
        <ele>114</ele>
        <time>2021-06-21T07:17:44.544Z</time>
      </trkpt>
      <trkpt lat="43.29149" lon="-1.68679">
        <ele>113</ele>
        <time>2021-06-21T07:17:45.539Z</time>
      </trkpt>
      <trkpt lat="43.29149" lon="-1.68679">
        <ele>113</ele>
        <time>2021-06-21T07:17:46.520Z</time>
      </trkpt>
      <trkpt lat="43.29149" lon="-1.68679">
        <ele>113</ele>
        <time>2021-06-21T07:17:47.512Z</time>
      </trkpt>
      <trkpt lat="43.2914" lon="-1.68685">
        <ele>112</ele>
        <time>2021-06-21T07:17:48.530Z</time>
      </trkpt>
      <trkpt lat="43.2914" lon="-1.68685">
        <ele>112</ele>
        <time>2021-06-21T07:17:49.543Z</time>
      </trkpt>
      <trkpt lat="43.29134" lon="-1.68688">
        <ele>112</ele>
        <time>2021-06-21T07:17:50.516Z</time>
      </trkpt>
      <trkpt lat="43.29134" lon="-1.68688">
        <ele>112</ele>
        <time>2021-06-21T07:17:51.533Z</time>
      </trkpt>
      <trkpt lat="43.29127" lon="-1.68688">
        <ele>111</ele>
        <time>2021-06-21T07:17:52.541Z</time>
      </trkpt>
      <trkpt lat="43.29127" lon="-1.68688">
        <ele>111</ele>
        <time>2021-06-21T07:17:53.538Z</time>
      </trkpt>
      <trkpt lat="43.29127" lon="-1.68688">
        <ele>111</ele>
        <time>2021-06-21T07:17:54.545Z</time>
      </trkpt>
      <trkpt lat="43.29122" lon="-1.68685">
        <ele>110</ele>
        <time>2021-06-21T07:17:55.538Z</time>
      </trkpt>
      <trkpt lat="43.29118" lon="-1.68679">
        <ele>110</ele>
        <time>2021-06-21T07:17:56.560Z</time>
      </trkpt>
      <trkpt lat="43.29118" lon="-1.68679">
        <ele>110</ele>
        <time>2021-06-21T07:17:57.525Z</time>
      </trkpt>
      <trkpt lat="43.29115" lon="-1.68668">
        <ele>109</ele>
        <time>2021-06-21T07:17:58.532Z</time>
      </trkpt>
      <trkpt lat="43.29115" lon="-1.68668">
        <ele>109</ele>
        <time>2021-06-21T07:17:59.529Z</time>
      </trkpt>
      <trkpt lat="43.29114" lon="-1.68655">
        <ele>109</ele>
        <time>2021-06-21T07:18:00.539Z</time>
      </trkpt>
      <trkpt lat="43.29114" lon="-1.68655">
        <ele>109</ele>
        <time>2021-06-21T07:18:01.515Z</time>
      </trkpt>
      <trkpt lat="43.29113" lon="-1.6864">
        <ele>108</ele>
        <time>2021-06-21T07:18:02.523Z</time>
      </trkpt>
      <trkpt lat="43.29113" lon="-1.6864">
        <ele>108</ele>
        <time>2021-06-21T07:18:03.536Z</time>
      </trkpt>
      <trkpt lat="43.2911" lon="-1.68627">
        <ele>107</ele>
        <time>2021-06-21T07:18:04.543Z</time>
      </trkpt>
      <trkpt lat="43.2911" lon="-1.68627">
        <ele>107</ele>
        <time>2021-06-21T07:18:05.517Z</time>
      </trkpt>
      <trkpt lat="43.29111" lon="-1.68613">
        <ele>107</ele>
        <time>2021-06-21T07:18:06.602Z</time>
      </trkpt>
      <trkpt lat="43.29111" lon="-1.68613">
        <ele>107</ele>
        <time>2021-06-21T07:18:07.529Z</time>
      </trkpt>
      <trkpt lat="43.29114" lon="-1.68601">
        <ele>106</ele>
        <time>2021-06-21T07:18:08.536Z</time>
      </trkpt>
      <trkpt lat="43.29114" lon="-1.68601">
        <ele>106</ele>
        <time>2021-06-21T07:18:09.522Z</time>
      </trkpt>
      <trkpt lat="43.29118" lon="-1.68591">
        <ele>106</ele>
        <time>2021-06-21T07:18:10.529Z</time>
      </trkpt>
      <trkpt lat="43.29118" lon="-1.68591">
        <ele>106</ele>
        <time>2021-06-21T07:18:11.516Z</time>
      </trkpt>
      <trkpt lat="43.29123" lon="-1.68584">
        <ele>106</ele>
        <time>2021-06-21T07:18:12.557Z</time>
      </trkpt>
      <trkpt lat="43.29123" lon="-1.68584">
        <ele>106</ele>
        <time>2021-06-21T07:18:13.522Z</time>
      </trkpt>
      <trkpt lat="43.2913" lon="-1.68578">
        <ele>106</ele>
        <time>2021-06-21T07:18:14.529Z</time>
      </trkpt>
      <trkpt lat="43.2913" lon="-1.68578">
        <ele>106</ele>
        <time>2021-06-21T07:18:15.518Z</time>
      </trkpt>
      <trkpt lat="43.29138" lon="-1.68574">
        <ele>105</ele>
        <time>2021-06-21T07:18:16.524Z</time>
      </trkpt>
      <trkpt lat="43.29143" lon="-1.68571">
        <ele>105</ele>
        <time>2021-06-21T07:18:17.547Z</time>
      </trkpt>
      <trkpt lat="43.29147" lon="-1.68567">
        <ele>105</ele>
        <time>2021-06-21T07:18:18.520Z</time>
      </trkpt>
      <trkpt lat="43.29147" lon="-1.68567">
        <ele>105</ele>
        <time>2021-06-21T07:18:19.513Z</time>
      </trkpt>
      <trkpt lat="43.29155" lon="-1.68559">
        <ele>105</ele>
        <time>2021-06-21T07:18:20.527Z</time>
      </trkpt>
      <trkpt lat="43.29155" lon="-1.68559">
        <ele>105</ele>
        <time>2021-06-21T07:18:21.541Z</time>
      </trkpt>
      <trkpt lat="43.29163" lon="-1.68551">
        <ele>106</ele>
        <time>2021-06-21T07:18:22.519Z</time>
      </trkpt>
      <trkpt lat="43.29163" lon="-1.68551">
        <ele>106</ele>
        <time>2021-06-21T07:18:23.509Z</time>
      </trkpt>
      <trkpt lat="43.29171" lon="-1.68541">
        <ele>109</ele>
        <time>2021-06-21T07:18:24.520Z</time>
      </trkpt>
      <trkpt lat="43.29171" lon="-1.68541">
        <ele>109</ele>
        <time>2021-06-21T07:18:25.541Z</time>
      </trkpt>
      <trkpt lat="43.29178" lon="-1.68532">
        <ele>111</ele>
        <time>2021-06-21T07:18:26.548Z</time>
      </trkpt>
      <trkpt lat="43.29178" lon="-1.68532">
        <ele>111</ele>
        <time>2021-06-21T07:18:27.531Z</time>
      </trkpt>
      <trkpt lat="43.29178" lon="-1.6852">
        <ele>110</ele>
        <time>2021-06-21T07:18:28.513Z</time>
      </trkpt>
      <trkpt lat="43.29178" lon="-1.6852">
        <ele>110</ele>
        <time>2021-06-21T07:18:29.539Z</time>
      </trkpt>
      <trkpt lat="43.29174" lon="-1.68509">
        <ele>110</ele>
        <time>2021-06-21T07:18:30.545Z</time>
      </trkpt>
      <trkpt lat="43.29174" lon="-1.68509">
        <ele>110</ele>
        <time>2021-06-21T07:18:31.524Z</time>
      </trkpt>
      <trkpt lat="43.29169" lon="-1.68501">
        <ele>109</ele>
        <time>2021-06-21T07:18:32.531Z</time>
      </trkpt>
      <trkpt lat="43.29165" lon="-1.68499">
        <ele>109</ele>
        <time>2021-06-21T07:18:33.519Z</time>
      </trkpt>
      <trkpt lat="43.29165" lon="-1.68499">
        <ele>109</ele>
        <time>2021-06-21T07:18:34.533Z</time>
      </trkpt>
      <trkpt lat="43.29156" lon="-1.68497">
        <ele>108</ele>
        <time>2021-06-21T07:18:35.541Z</time>
      </trkpt>
      <trkpt lat="43.2915" lon="-1.68497">
        <ele>108</ele>
        <time>2021-06-21T07:18:36.526Z</time>
      </trkpt>
      <trkpt lat="43.2915" lon="-1.68497">
        <ele>108</ele>
        <time>2021-06-21T07:18:37.544Z</time>
      </trkpt>
      <trkpt lat="43.29138" lon="-1.68495">
        <ele>107</ele>
        <time>2021-06-21T07:18:38.510Z</time>
      </trkpt>
      <trkpt lat="43.29138" lon="-1.68495">
        <ele>107</ele>
        <time>2021-06-21T07:18:39.528Z</time>
      </trkpt>
      <trkpt lat="43.29129" lon="-1.68491">
        <ele>105</ele>
        <time>2021-06-21T07:18:40.540Z</time>
      </trkpt>
      <trkpt lat="43.29129" lon="-1.68491">
        <ele>105</ele>
        <time>2021-06-21T07:18:41.518Z</time>
      </trkpt>
      <trkpt lat="43.2912" lon="-1.68485">
        <ele>104</ele>
        <time>2021-06-21T07:18:42.524Z</time>
      </trkpt>
      <trkpt lat="43.2912" lon="-1.68485">
        <ele>104</ele>
        <time>2021-06-21T07:18:43.530Z</time>
      </trkpt>
      <trkpt lat="43.29112" lon="-1.68477">
        <ele>103</ele>
        <time>2021-06-21T07:18:44.540Z</time>
      </trkpt>
      <trkpt lat="43.29112" lon="-1.68477">
        <ele>103</ele>
        <time>2021-06-21T07:18:45.523Z</time>
      </trkpt>
      <trkpt lat="43.29105" lon="-1.68467">
        <ele>102</ele>
        <time>2021-06-21T07:18:46.530Z</time>
      </trkpt>
      <trkpt lat="43.29105" lon="-1.68467">
        <ele>102</ele>
        <time>2021-06-21T07:18:47.522Z</time>
      </trkpt>
      <trkpt lat="43.29097" lon="-1.68455">
        <ele>101</ele>
        <time>2021-06-21T07:18:48.605Z</time>
      </trkpt>
      <trkpt lat="43.29097" lon="-1.68455">
        <ele>101</ele>
        <time>2021-06-21T07:18:49.539Z</time>
      </trkpt>
      <trkpt lat="43.29089" lon="-1.68444">
        <ele>100</ele>
        <time>2021-06-21T07:18:50.547Z</time>
      </trkpt>
      <trkpt lat="43.29089" lon="-1.68444">
        <ele>100</ele>
        <time>2021-06-21T07:18:51.536Z</time>
      </trkpt>
      <trkpt lat="43.29081" lon="-1.68432">
        <ele>99</ele>
        <time>2021-06-21T07:18:52.544Z</time>
      </trkpt>
      <trkpt lat="43.29077" lon="-1.68426">
        <ele>98</ele>
        <time>2021-06-21T07:18:53.553Z</time>
      </trkpt>
      <trkpt lat="43.29072" lon="-1.68422">
        <ele>98</ele>
        <time>2021-06-21T07:18:54.522Z</time>
      </trkpt>
      <trkpt lat="43.29072" lon="-1.68422">
        <ele>98</ele>
        <time>2021-06-21T07:18:55.538Z</time>
      </trkpt>
      <trkpt lat="43.29064" lon="-1.68414">
        <ele>96</ele>
        <time>2021-06-21T07:18:56.544Z</time>
      </trkpt>
      <trkpt lat="43.29064" lon="-1.68414">
        <ele>96</ele>
        <time>2021-06-21T07:18:57.523Z</time>
      </trkpt>
      <trkpt lat="43.29053" lon="-1.68407">
        <ele>95</ele>
        <time>2021-06-21T07:18:58.531Z</time>
      </trkpt>
      <trkpt lat="43.29053" lon="-1.68407">
        <ele>95</ele>
        <time>2021-06-21T07:18:59.524Z</time>
      </trkpt>
      <trkpt lat="43.2904" lon="-1.68401">
        <ele>94</ele>
        <time>2021-06-21T07:19:00.532Z</time>
      </trkpt>
      <trkpt lat="43.2904" lon="-1.68401">
        <ele>94</ele>
        <time>2021-06-21T07:19:01.522Z</time>
      </trkpt>
      <trkpt lat="43.29029" lon="-1.68396">
        <ele>93</ele>
        <time>2021-06-21T07:19:02.530Z</time>
      </trkpt>
      <trkpt lat="43.29029" lon="-1.68396">
        <ele>93</ele>
        <time>2021-06-21T07:19:03.515Z</time>
      </trkpt>
      <trkpt lat="43.2902" lon="-1.6839">
        <ele>92</ele>
        <time>2021-06-21T07:19:04.523Z</time>
      </trkpt>
      <trkpt lat="43.2902" lon="-1.6839">
        <ele>92</ele>
        <time>2021-06-21T07:19:05.543Z</time>
      </trkpt>
      <trkpt lat="43.29014" lon="-1.68383">
        <ele>91</ele>
        <time>2021-06-21T07:19:06.509Z</time>
      </trkpt>
      <trkpt lat="43.29014" lon="-1.68383">
        <ele>91</ele>
        <time>2021-06-21T07:19:07.514Z</time>
      </trkpt>
      <trkpt lat="43.29011" lon="-1.68376">
        <ele>90</ele>
        <time>2021-06-21T07:19:08.520Z</time>
      </trkpt>
      <trkpt lat="43.29011" lon="-1.68376">
        <ele>90</ele>
        <time>2021-06-21T07:19:09.536Z</time>
      </trkpt>
      <trkpt lat="43.29013" lon="-1.68366">
        <ele>89</ele>
        <time>2021-06-21T07:19:10.556Z</time>
      </trkpt>
      <trkpt lat="43.29013" lon="-1.68366">
        <ele>89</ele>
        <time>2021-06-21T07:19:11.537Z</time>
      </trkpt>
      <trkpt lat="43.29018" lon="-1.68354">
        <ele>89</ele>
        <time>2021-06-21T07:19:12.549Z</time>
      </trkpt>
      <trkpt lat="43.29018" lon="-1.68354">
        <ele>89</ele>
        <time>2021-06-21T07:19:13.522Z</time>
      </trkpt>
      <trkpt lat="43.29025" lon="-1.68342">
        <ele>88</ele>
        <time>2021-06-21T07:19:14.529Z</time>
      </trkpt>
      <trkpt lat="43.29025" lon="-1.68342">
        <ele>88</ele>
        <time>2021-06-21T07:19:15.517Z</time>
      </trkpt>
      <trkpt lat="43.2903" lon="-1.68331">
        <ele>87</ele>
        <time>2021-06-21T07:19:16.523Z</time>
      </trkpt>
      <trkpt lat="43.2903" lon="-1.68331">
        <ele>87</ele>
        <time>2021-06-21T07:19:17.538Z</time>
      </trkpt>
      <trkpt lat="43.29037" lon="-1.6832">
        <ele>87</ele>
        <time>2021-06-21T07:19:18.598Z</time>
      </trkpt>
      <trkpt lat="43.29037" lon="-1.6832">
        <ele>87</ele>
        <time>2021-06-21T07:19:19.537Z</time>
      </trkpt>
      <trkpt lat="43.29041" lon="-1.68308">
        <ele>86</ele>
        <time>2021-06-21T07:19:20.543Z</time>
      </trkpt>
      <trkpt lat="43.29043" lon="-1.68302">
        <ele>86</ele>
        <time>2021-06-21T07:19:21.516Z</time>
      </trkpt>
      <trkpt lat="43.29043" lon="-1.68302">
        <ele>86</ele>
        <time>2021-06-21T07:19:22.522Z</time>
      </trkpt>
      <trkpt lat="43.29046" lon="-1.68289">
        <ele>86</ele>
        <time>2021-06-21T07:19:23.532Z</time>
      </trkpt>
      <trkpt lat="43.29046" lon="-1.68282">
        <ele>85</ele>
        <time>2021-06-21T07:19:24.546Z</time>
      </trkpt>
      <trkpt lat="43.29046" lon="-1.68282">
        <ele>85</ele>
        <time>2021-06-21T07:19:25.520Z</time>
      </trkpt>
      <trkpt lat="43.29045" lon="-1.68267">
        <ele>84</ele>
        <time>2021-06-21T07:19:26.526Z</time>
      </trkpt>
      <trkpt lat="43.29045" lon="-1.68267">
        <ele>84</ele>
        <time>2021-06-21T07:19:27.540Z</time>
      </trkpt>
      <trkpt lat="43.29041" lon="-1.68251">
        <ele>83</ele>
        <time>2021-06-21T07:19:28.547Z</time>
      </trkpt>
      <trkpt lat="43.29041" lon="-1.68251">
        <ele>83</ele>
        <time>2021-06-21T07:19:29.521Z</time>
      </trkpt>
      <trkpt lat="43.29036" lon="-1.68235">
        <ele>82</ele>
        <time>2021-06-21T07:19:30.533Z</time>
      </trkpt>
      <trkpt lat="43.29036" lon="-1.68235">
        <ele>82</ele>
        <time>2021-06-21T07:19:31.515Z</time>
      </trkpt>
      <trkpt lat="43.29036" lon="-1.68235">
        <ele>82</ele>
        <time>2021-06-21T07:19:32.615Z</time>
      </trkpt>
      <trkpt lat="43.29031" lon="-1.68218">
        <ele>81</ele>
        <time>2021-06-21T07:19:33.538Z</time>
      </trkpt>
      <trkpt lat="43.29026" lon="-1.68203">
        <ele>80</ele>
        <time>2021-06-21T07:19:34.546Z</time>
      </trkpt>
      <trkpt lat="43.29026" lon="-1.68203">
        <ele>80</ele>
        <time>2021-06-21T07:19:35.534Z</time>
      </trkpt>
      <trkpt lat="43.29022" lon="-1.68187">
        <ele>79</ele>
        <time>2021-06-21T07:19:36.540Z</time>
      </trkpt>
      <trkpt lat="43.29022" lon="-1.68187">
        <ele>79</ele>
        <time>2021-06-21T07:19:37.515Z</time>
      </trkpt>
      <trkpt lat="43.29017" lon="-1.68171">
        <ele>78</ele>
        <time>2021-06-21T07:19:38.522Z</time>
      </trkpt>
      <trkpt lat="43.29017" lon="-1.68171">
        <ele>78</ele>
        <time>2021-06-21T07:19:39.539Z</time>
      </trkpt>
      <trkpt lat="43.29014" lon="-1.68155">
        <ele>77</ele>
        <time>2021-06-21T07:19:40.602Z</time>
      </trkpt>
      <trkpt lat="43.29014" lon="-1.68155">
        <ele>77</ele>
        <time>2021-06-21T07:19:41.515Z</time>
      </trkpt>
      <trkpt lat="43.29009" lon="-1.68139">
        <ele>76</ele>
        <time>2021-06-21T07:19:42.521Z</time>
      </trkpt>
      <trkpt lat="43.29009" lon="-1.68139">
        <ele>76</ele>
        <time>2021-06-21T07:19:43.537Z</time>
      </trkpt>
      <trkpt lat="43.29003" lon="-1.68123">
        <ele>75</ele>
        <time>2021-06-21T07:19:44.547Z</time>
      </trkpt>
      <trkpt lat="43.29003" lon="-1.68123">
        <ele>75</ele>
        <time>2021-06-21T07:19:45.518Z</time>
      </trkpt>
      <trkpt lat="43.28997" lon="-1.68109">
        <ele>74</ele>
        <time>2021-06-21T07:19:46.525Z</time>
      </trkpt>
      <trkpt lat="43.28995" lon="-1.68102">
        <ele>73</ele>
        <time>2021-06-21T07:19:47.522Z</time>
      </trkpt>
      <trkpt lat="43.28993" lon="-1.68096">
        <ele>73</ele>
        <time>2021-06-21T07:19:48.539Z</time>
      </trkpt>
      <trkpt lat="43.28993" lon="-1.68096">
        <ele>73</ele>
        <time>2021-06-21T07:19:49.514Z</time>
      </trkpt>
      <trkpt lat="43.28988" lon="-1.68083">
        <ele>72</ele>
        <time>2021-06-21T07:19:50.520Z</time>
      </trkpt>
      <trkpt lat="43.28988" lon="-1.68083">
        <ele>72</ele>
        <time>2021-06-21T07:19:51.539Z</time>
      </trkpt>
      <trkpt lat="43.28981" lon="-1.68072">
        <ele>71</ele>
        <time>2021-06-21T07:19:52.561Z</time>
      </trkpt>
      <trkpt lat="43.28977" lon="-1.68067">
        <ele>70</ele>
        <time>2021-06-21T07:19:53.548Z</time>
      </trkpt>
      <trkpt lat="43.28973" lon="-1.68063">
        <ele>70</ele>
        <time>2021-06-21T07:19:54.531Z</time>
      </trkpt>
      <trkpt lat="43.28973" lon="-1.68063">
        <ele>70</ele>
        <time>2021-06-21T07:19:55.516Z</time>
      </trkpt>
      <trkpt lat="43.28963" lon="-1.68056">
        <ele>68</ele>
        <time>2021-06-21T07:19:56.536Z</time>
      </trkpt>
      <trkpt lat="43.28963" lon="-1.68056">
        <ele>68</ele>
        <time>2021-06-21T07:19:57.511Z</time>
      </trkpt>
      <trkpt lat="43.28953" lon="-1.68051">
        <ele>67</ele>
        <time>2021-06-21T07:19:58.518Z</time>
      </trkpt>
      <trkpt lat="43.28953" lon="-1.68051">
        <ele>67</ele>
        <time>2021-06-21T07:19:59.539Z</time>
      </trkpt>
      <trkpt lat="43.28941" lon="-1.68049">
        <ele>66</ele>
        <time>2021-06-21T07:20:00.548Z</time>
      </trkpt>
      <trkpt lat="43.28941" lon="-1.68049">
        <ele>66</ele>
        <time>2021-06-21T07:20:01.533Z</time>
      </trkpt>
      <trkpt lat="43.28928" lon="-1.68049">
        <ele>65</ele>
        <time>2021-06-21T07:20:02.540Z</time>
      </trkpt>
      <trkpt lat="43.28928" lon="-1.68049">
        <ele>65</ele>
        <time>2021-06-21T07:20:03.517Z</time>
      </trkpt>
      <trkpt lat="43.28916" lon="-1.68049">
        <ele>64</ele>
        <time>2021-06-21T07:20:04.523Z</time>
      </trkpt>
      <trkpt lat="43.28916" lon="-1.68049">
        <ele>64</ele>
        <time>2021-06-21T07:20:05.547Z</time>
      </trkpt>
      <trkpt lat="43.28903" lon="-1.68048">
        <ele>63</ele>
        <time>2021-06-21T07:20:06.515Z</time>
      </trkpt>
      <trkpt lat="43.28903" lon="-1.68048">
        <ele>63</ele>
        <time>2021-06-21T07:20:07.529Z</time>
      </trkpt>
      <trkpt lat="43.28891" lon="-1.68047">
        <ele>62</ele>
        <time>2021-06-21T07:20:08.539Z</time>
      </trkpt>
      <trkpt lat="43.28891" lon="-1.68047">
        <ele>62</ele>
        <time>2021-06-21T07:20:09.511Z</time>
      </trkpt>
      <trkpt lat="43.28882" lon="-1.68044">
        <ele>61</ele>
        <time>2021-06-21T07:20:10.517Z</time>
      </trkpt>
      <trkpt lat="43.28882" lon="-1.68044">
        <ele>61</ele>
        <time>2021-06-21T07:20:11.528Z</time>
      </trkpt>
      <trkpt lat="43.28871" lon="-1.6804">
        <ele>60</ele>
        <time>2021-06-21T07:20:12.595Z</time>
      </trkpt>
      <trkpt lat="43.28871" lon="-1.6804">
        <ele>60</ele>
        <time>2021-06-21T07:20:13.524Z</time>
      </trkpt>
      <trkpt lat="43.28858" lon="-1.68034">
        <ele>59</ele>
        <time>2021-06-21T07:20:14.530Z</time>
      </trkpt>
      <trkpt lat="43.28858" lon="-1.68034">
        <ele>59</ele>
        <time>2021-06-21T07:20:15.546Z</time>
      </trkpt>
      <trkpt lat="43.28846" lon="-1.68028">
        <ele>58</ele>
        <time>2021-06-21T07:20:16.513Z</time>
      </trkpt>
      <trkpt lat="43.28842" lon="-1.68025">
        <ele>58</ele>
        <time>2021-06-21T07:20:17.538Z</time>
      </trkpt>
      <trkpt lat="43.28837" lon="-1.68022">
        <ele>57</ele>
        <time>2021-06-21T07:20:18.520Z</time>
      </trkpt>
      <trkpt lat="43.28837" lon="-1.68022">
        <ele>57</ele>
        <time>2021-06-21T07:20:19.533Z</time>
      </trkpt>
      <trkpt lat="43.28826" lon="-1.68017">
        <ele>56</ele>
        <time>2021-06-21T07:20:20.539Z</time>
      </trkpt>
      <trkpt lat="43.28826" lon="-1.68017">
        <ele>56</ele>
        <time>2021-06-21T07:20:21.533Z</time>
      </trkpt>
      <trkpt lat="43.28815" lon="-1.68012">
        <ele>56</ele>
        <time>2021-06-21T07:20:22.512Z</time>
      </trkpt>
      <trkpt lat="43.28815" lon="-1.68012">
        <ele>56</ele>
        <time>2021-06-21T07:20:23.532Z</time>
      </trkpt>
      <trkpt lat="43.28804" lon="-1.68007">
        <ele>54</ele>
        <time>2021-06-21T07:20:24.542Z</time>
      </trkpt>
      <trkpt lat="43.28804" lon="-1.68007">
        <ele>54</ele>
        <time>2021-06-21T07:20:25.520Z</time>
      </trkpt>
      <trkpt lat="43.28796" lon="-1.68004">
        <ele>54</ele>
        <time>2021-06-21T07:20:26.596Z</time>
      </trkpt>
      <trkpt lat="43.28796" lon="-1.68004">
        <ele>54</ele>
        <time>2021-06-21T07:20:27.535Z</time>
      </trkpt>
      <trkpt lat="43.28787" lon="-1.68">
        <ele>53</ele>
        <time>2021-06-21T07:20:28.546Z</time>
      </trkpt>
      <trkpt lat="43.28787" lon="-1.68">
        <ele>53</ele>
        <time>2021-06-21T07:20:29.520Z</time>
      </trkpt>
      <trkpt lat="43.28779" lon="-1.68">
        <ele>52</ele>
        <time>2021-06-21T07:20:30.526Z</time>
      </trkpt>
      <trkpt lat="43.28779" lon="-1.68">
        <ele>52</ele>
        <time>2021-06-21T07:20:31.544Z</time>
      </trkpt>
      <trkpt lat="43.28769" lon="-1.68002">
        <ele>51</ele>
        <time>2021-06-21T07:20:32.582Z</time>
      </trkpt>
      <trkpt lat="43.28769" lon="-1.68002">
        <ele>51</ele>
        <time>2021-06-21T07:20:33.531Z</time>
      </trkpt>
      <trkpt lat="43.28755" lon="-1.68003">
        <ele>51</ele>
        <time>2021-06-21T07:20:34.537Z</time>
      </trkpt>
      <trkpt lat="43.28755" lon="-1.68003">
        <ele>51</ele>
        <time>2021-06-21T07:20:35.524Z</time>
      </trkpt>
      <trkpt lat="43.28742" lon="-1.68007">
        <ele>50</ele>
        <time>2021-06-21T07:20:36.531Z</time>
      </trkpt>
      <trkpt lat="43.28736" lon="-1.68008">
        <ele>50</ele>
        <time>2021-06-21T07:20:37.575Z</time>
      </trkpt>
      <trkpt lat="43.28736" lon="-1.68008">
        <ele>50</ele>
        <time>2021-06-21T07:20:38.515Z</time>
      </trkpt>
      <trkpt lat="43.28723" lon="-1.68013">
        <ele>49</ele>
        <time>2021-06-21T07:20:39.521Z</time>
      </trkpt>
      <trkpt lat="43.28723" lon="-1.68013">
        <ele>49</ele>
        <time>2021-06-21T07:20:40.538Z</time>
      </trkpt>
      <trkpt lat="43.28711" lon="-1.68018">
        <ele>48</ele>
        <time>2021-06-21T07:20:41.544Z</time>
      </trkpt>
      <trkpt lat="43.28707" lon="-1.68022">
        <ele>47</ele>
        <time>2021-06-21T07:20:42.608Z</time>
      </trkpt>
      <trkpt lat="43.28707" lon="-1.68022">
        <ele>47</ele>
        <time>2021-06-21T07:20:43.516Z</time>
      </trkpt>
      <trkpt lat="43.28699" lon="-1.6803">
        <ele>46</ele>
        <time>2021-06-21T07:20:44.522Z</time>
      </trkpt>
      <trkpt lat="43.28699" lon="-1.6803">
        <ele>46</ele>
        <time>2021-06-21T07:20:45.509Z</time>
      </trkpt>
      <trkpt lat="43.28699" lon="-1.6803">
        <ele>46</ele>
        <time>2021-06-21T07:20:46.521Z</time>
      </trkpt>
      <trkpt lat="43.28683" lon="-1.68031">
        <ele>45</ele>
        <time>2021-06-21T07:20:47.627Z</time>
      </trkpt>
      <trkpt lat="43.28673" lon="-1.68028">
        <ele>45</ele>
        <time>2021-06-21T07:20:48.523Z</time>
      </trkpt>
      <trkpt lat="43.28662" lon="-1.6803">
        <ele>44</ele>
        <time>2021-06-21T07:20:49.529Z</time>
      </trkpt>
      <trkpt lat="43.28662" lon="-1.6803">
        <ele>44</ele>
        <time>2021-06-21T07:20:50.547Z</time>
      </trkpt>
      <trkpt lat="43.28652" lon="-1.68031">
        <ele>43</ele>
        <time>2021-06-21T07:20:51.514Z</time>
      </trkpt>
      <trkpt lat="43.28648" lon="-1.68031">
        <ele>42</ele>
        <time>2021-06-21T07:20:52.531Z</time>
      </trkpt>
      <trkpt lat="43.28648" lon="-1.68031">
        <ele>42</ele>
        <time>2021-06-21T07:20:53.528Z</time>
      </trkpt>
      <trkpt lat="43.2864" lon="-1.6803">
        <ele>42</ele>
        <time>2021-06-21T07:20:54.537Z</time>
      </trkpt>
      <trkpt lat="43.2864" lon="-1.6803">
        <ele>42</ele>
        <time>2021-06-21T07:20:55.521Z</time>
      </trkpt>
      <trkpt lat="43.28634" lon="-1.68027">
        <ele>41</ele>
        <time>2021-06-21T07:20:56.546Z</time>
      </trkpt>
      <trkpt lat="43.2863" lon="-1.68022">
        <ele>40</ele>
        <time>2021-06-21T07:20:57.536Z</time>
      </trkpt>
      <trkpt lat="43.2863" lon="-1.68022">
        <ele>40</ele>
        <time>2021-06-21T07:20:58.517Z</time>
      </trkpt>
      <trkpt lat="43.28623" lon="-1.68012">
        <ele>40</ele>
        <time>2021-06-21T07:20:59.528Z</time>
      </trkpt>
      <trkpt lat="43.28619" lon="-1.68008">
        <ele>39</ele>
        <time>2021-06-21T07:21:00.521Z</time>
      </trkpt>
      <trkpt lat="43.28619" lon="-1.68008">
        <ele>39</ele>
        <time>2021-06-21T07:21:01.535Z</time>
      </trkpt>
      <trkpt lat="43.28609" lon="-1.67997">
        <ele>38</ele>
        <time>2021-06-21T07:21:02.541Z</time>
      </trkpt>
      <trkpt lat="43.28609" lon="-1.67997">
        <ele>38</ele>
        <time>2021-06-21T07:21:03.523Z</time>
      </trkpt>
      <trkpt lat="43.28597" lon="-1.67983">
        <ele>38</ele>
        <time>2021-06-21T07:21:04.530Z</time>
      </trkpt>
      <trkpt lat="43.28591" lon="-1.67977">
        <ele>37</ele>
        <time>2021-06-21T07:21:05.512Z</time>
      </trkpt>
      <trkpt lat="43.28591" lon="-1.67977">
        <ele>37</ele>
        <time>2021-06-21T07:21:06.529Z</time>
      </trkpt>
      <trkpt lat="43.28582" lon="-1.67967">
        <ele>36</ele>
        <time>2021-06-21T07:21:07.540Z</time>
      </trkpt>
      <trkpt lat="43.28582" lon="-1.67967">
        <ele>36</ele>
        <time>2021-06-21T07:21:08.525Z</time>
      </trkpt>
      <trkpt lat="43.28572" lon="-1.67959">
        <ele>36</ele>
        <time>2021-06-21T07:21:09.530Z</time>
      </trkpt>
      <trkpt lat="43.28572" lon="-1.67959">
        <ele>36</ele>
        <time>2021-06-21T07:21:10.516Z</time>
      </trkpt>
      <trkpt lat="43.28561" lon="-1.67954">
        <ele>35</ele>
        <time>2021-06-21T07:21:11.533Z</time>
      </trkpt>
      <trkpt lat="43.28556" lon="-1.67954">
        <ele>34</ele>
        <time>2021-06-21T07:21:12.533Z</time>
      </trkpt>
      <trkpt lat="43.28556" lon="-1.67954">
        <ele>34</ele>
        <time>2021-06-21T07:21:13.509Z</time>
      </trkpt>
      <trkpt lat="43.28546" lon="-1.67955">
        <ele>34</ele>
        <time>2021-06-21T07:21:14.516Z</time>
      </trkpt>
      <trkpt lat="43.28546" lon="-1.67955">
        <ele>34</ele>
        <time>2021-06-21T07:21:15.534Z</time>
      </trkpt>
      <trkpt lat="43.28536" lon="-1.67962">
        <ele>33</ele>
        <time>2021-06-21T07:21:16.573Z</time>
      </trkpt>
      <trkpt lat="43.28536" lon="-1.67962">
        <ele>33</ele>
        <time>2021-06-21T07:21:17.523Z</time>
      </trkpt>
      <trkpt lat="43.28526" lon="-1.67968">
        <ele>32</ele>
        <time>2021-06-21T07:21:18.529Z</time>
      </trkpt>
      <trkpt lat="43.28526" lon="-1.67968">
        <ele>32</ele>
        <time>2021-06-21T07:21:19.547Z</time>
      </trkpt>
      <trkpt lat="43.28516" lon="-1.67972">
        <ele>31</ele>
        <time>2021-06-21T07:21:20.523Z</time>
      </trkpt>
      <trkpt lat="43.28516" lon="-1.67972">
        <ele>31</ele>
        <time>2021-06-21T07:21:21.542Z</time>
      </trkpt>
      <trkpt lat="43.28504" lon="-1.67974">
        <ele>31</ele>
        <time>2021-06-21T07:21:22.521Z</time>
      </trkpt>
      <trkpt lat="43.28504" lon="-1.67974">
        <ele>31</ele>
        <time>2021-06-21T07:21:23.540Z</time>
      </trkpt>
      <trkpt lat="43.28495" lon="-1.67977">
        <ele>30</ele>
        <time>2021-06-21T07:21:24.549Z</time>
      </trkpt>
      <trkpt lat="43.28495" lon="-1.67977">
        <ele>30</ele>
        <time>2021-06-21T07:21:25.544Z</time>
      </trkpt>
      <trkpt lat="43.28485" lon="-1.6798">
        <ele>29</ele>
        <time>2021-06-21T07:21:26.510Z</time>
      </trkpt>
      <trkpt lat="43.28485" lon="-1.6798">
        <ele>29</ele>
        <time>2021-06-21T07:21:27.539Z</time>
      </trkpt>
      <trkpt lat="43.28474" lon="-1.67983">
        <ele>29</ele>
        <time>2021-06-21T07:21:28.545Z</time>
      </trkpt>
      <trkpt lat="43.2847" lon="-1.67985">
        <ele>29</ele>
        <time>2021-06-21T07:21:29.520Z</time>
      </trkpt>
      <trkpt lat="43.28465" lon="-1.67987">
        <ele>29</ele>
        <time>2021-06-21T07:21:30.546Z</time>
      </trkpt>
      <trkpt lat="43.28465" lon="-1.67987">
        <ele>29</ele>
        <time>2021-06-21T07:21:31.533Z</time>
      </trkpt>
      <trkpt lat="43.28457" lon="-1.67987">
        <ele>28</ele>
        <time>2021-06-21T07:21:32.616Z</time>
      </trkpt>
      <trkpt lat="43.28457" lon="-1.67987">
        <ele>28</ele>
        <time>2021-06-21T07:21:33.512Z</time>
      </trkpt>
      <trkpt lat="43.28447" lon="-1.67986">
        <ele>27</ele>
        <time>2021-06-21T07:21:34.519Z</time>
      </trkpt>
      <trkpt lat="43.28447" lon="-1.67986">
        <ele>27</ele>
        <time>2021-06-21T07:21:35.531Z</time>
      </trkpt>
      <trkpt lat="43.28432" lon="-1.67978">
        <ele>26</ele>
        <time>2021-06-21T07:21:36.541Z</time>
      </trkpt>
      <trkpt lat="43.28432" lon="-1.67978">
        <ele>26</ele>
        <time>2021-06-21T07:21:37.527Z</time>
      </trkpt>
      <trkpt lat="43.28419" lon="-1.6797">
        <ele>25</ele>
        <time>2021-06-21T07:21:38.609Z</time>
      </trkpt>
      <trkpt lat="43.28419" lon="-1.6797">
        <ele>25</ele>
        <time>2021-06-21T07:21:39.533Z</time>
      </trkpt>
      <trkpt lat="43.28406" lon="-1.67963">
        <ele>23</ele>
        <time>2021-06-21T07:21:40.539Z</time>
      </trkpt>
      <trkpt lat="43.28406" lon="-1.67963">
        <ele>23</ele>
        <time>2021-06-21T07:21:41.530Z</time>
      </trkpt>
      <trkpt lat="43.28392" lon="-1.67958">
        <ele>22</ele>
        <time>2021-06-21T07:21:42.536Z</time>
      </trkpt>
      <trkpt lat="43.28392" lon="-1.67958">
        <ele>22</ele>
        <time>2021-06-21T07:21:43.519Z</time>
      </trkpt>
      <trkpt lat="43.28379" lon="-1.67955">
        <ele>21</ele>
        <time>2021-06-21T07:21:44.591Z</time>
      </trkpt>
      <trkpt lat="43.28379" lon="-1.67955">
        <ele>21</ele>
        <time>2021-06-21T07:21:45.536Z</time>
      </trkpt>
      <trkpt lat="43.28368" lon="-1.67952">
        <ele>20</ele>
        <time>2021-06-21T07:21:46.542Z</time>
      </trkpt>
      <trkpt lat="43.28368" lon="-1.67952">
        <ele>20</ele>
        <time>2021-06-21T07:21:47.529Z</time>
      </trkpt>
      <trkpt lat="43.28357" lon="-1.67949">
        <ele>19</ele>
        <time>2021-06-21T07:21:48.605Z</time>
      </trkpt>
      <trkpt lat="43.28357" lon="-1.67949">
        <ele>19</ele>
        <time>2021-06-21T07:21:49.536Z</time>
      </trkpt>
      <trkpt lat="43.28343" lon="-1.67941">
        <ele>19</ele>
        <time>2021-06-21T07:21:50.543Z</time>
      </trkpt>
      <trkpt lat="43.28343" lon="-1.67941">
        <ele>19</ele>
        <time>2021-06-21T07:21:51.523Z</time>
      </trkpt>
      <trkpt lat="43.28332" lon="-1.67936">
        <ele>17</ele>
        <time>2021-06-21T07:21:52.528Z</time>
      </trkpt>
      <trkpt lat="43.28332" lon="-1.67936">
        <ele>17</ele>
        <time>2021-06-21T07:21:53.510Z</time>
      </trkpt>
      <trkpt lat="43.28321" lon="-1.67929">
        <ele>17</ele>
        <time>2021-06-21T07:21:54.585Z</time>
      </trkpt>
      <trkpt lat="43.28321" lon="-1.67929">
        <ele>17</ele>
        <time>2021-06-21T07:21:55.518Z</time>
      </trkpt>
      <trkpt lat="43.28307" lon="-1.6792">
        <ele>16</ele>
        <time>2021-06-21T07:21:56.525Z</time>
      </trkpt>
      <trkpt lat="43.28307" lon="-1.6792">
        <ele>16</ele>
        <time>2021-06-21T07:21:57.522Z</time>
      </trkpt>
      <trkpt lat="43.28294" lon="-1.67912">
        <ele>16</ele>
        <time>2021-06-21T07:21:58.530Z</time>
      </trkpt>
      <trkpt lat="43.28294" lon="-1.67912">
        <ele>16</ele>
        <time>2021-06-21T07:21:59.518Z</time>
      </trkpt>
      <trkpt lat="43.28284" lon="-1.67905">
        <ele>16</ele>
        <time>2021-06-21T07:22:00.525Z</time>
      </trkpt>
      <trkpt lat="43.28278" lon="-1.67902">
        <ele>16</ele>
        <time>2021-06-21T07:22:01.547Z</time>
      </trkpt>
      <trkpt lat="43.28278" lon="-1.67902">
        <ele>16</ele>
        <time>2021-06-21T07:22:02.541Z</time>
      </trkpt>
      <trkpt lat="43.28265" lon="-1.67895">
        <ele>16</ele>
        <time>2021-06-21T07:22:03.549Z</time>
      </trkpt>
      <trkpt lat="43.28265" lon="-1.67895">
        <ele>16</ele>
        <time>2021-06-21T07:22:04.530Z</time>
      </trkpt>
      <trkpt lat="43.28257" lon="-1.6789">
        <ele>15</ele>
        <time>2021-06-21T07:22:05.535Z</time>
      </trkpt>
      <trkpt lat="43.28252" lon="-1.67886">
        <ele>15</ele>
        <time>2021-06-21T07:22:06.512Z</time>
      </trkpt>
      <trkpt lat="43.28252" lon="-1.67886">
        <ele>15</ele>
        <time>2021-06-21T07:22:07.532Z</time>
      </trkpt>
      <trkpt lat="43.28242" lon="-1.67882">
        <ele>14</ele>
        <time>2021-06-21T07:22:08.541Z</time>
      </trkpt>
      <trkpt lat="43.28242" lon="-1.67882">
        <ele>14</ele>
        <time>2021-06-21T07:22:09.519Z</time>
      </trkpt>
      <trkpt lat="43.28235" lon="-1.67878">
        <ele>14</ele>
        <time>2021-06-21T07:22:10.532Z</time>
      </trkpt>
      <trkpt lat="43.28235" lon="-1.67878">
        <ele>14</ele>
        <time>2021-06-21T07:22:11.520Z</time>
      </trkpt>
      <trkpt lat="43.28227" lon="-1.67873">
        <ele>13</ele>
        <time>2021-06-21T07:22:12.525Z</time>
      </trkpt>
      <trkpt lat="43.28227" lon="-1.67873">
        <ele>13</ele>
        <time>2021-06-21T07:22:13.517Z</time>
      </trkpt>
      <trkpt lat="43.28218" lon="-1.67867">
        <ele>12</ele>
        <time>2021-06-21T07:22:14.524Z</time>
      </trkpt>
      <trkpt lat="43.28218" lon="-1.67867">
        <ele>12</ele>
        <time>2021-06-21T07:22:15.540Z</time>
      </trkpt>
      <trkpt lat="43.28209" lon="-1.67861">
        <ele>12</ele>
        <time>2021-06-21T07:22:16.546Z</time>
      </trkpt>
      <trkpt lat="43.28204" lon="-1.67859">
        <ele>12</ele>
        <time>2021-06-21T07:22:17.581Z</time>
      </trkpt>
      <trkpt lat="43.28201" lon="-1.67858">
        <ele>12</ele>
        <time>2021-06-21T07:22:18.622Z</time>
      </trkpt>
      <trkpt lat="43.28201" lon="-1.67858">
        <ele>12</ele>
        <time>2021-06-21T07:22:19.527Z</time>
      </trkpt>
      <trkpt lat="43.28196" lon="-1.67859">
        <ele>13</ele>
        <time>2021-06-21T07:22:20.534Z</time>
      </trkpt>
      <trkpt lat="43.28196" lon="-1.67859">
        <ele>13</ele>
        <time>2021-06-21T07:22:21.514Z</time>
      </trkpt>
      <trkpt lat="43.28192" lon="-1.67861">
        <ele>14</ele>
        <time>2021-06-21T07:22:22.529Z</time>
      </trkpt>
      <trkpt lat="43.28192" lon="-1.67861">
        <ele>14</ele>
        <time>2021-06-21T07:22:23.534Z</time>
      </trkpt>
      <trkpt lat="43.28187" lon="-1.6786">
        <ele>14</ele>
        <time>2021-06-21T07:22:24.545Z</time>
      </trkpt>
      <trkpt lat="43.28187" lon="-1.6786">
        <ele>14</ele>
        <time>2021-06-21T07:22:25.517Z</time>
      </trkpt>
      <trkpt lat="43.28182" lon="-1.67859">
        <ele>13</ele>
        <time>2021-06-21T07:22:26.525Z</time>
      </trkpt>
      <trkpt lat="43.28182" lon="-1.67859">
        <ele>13</ele>
        <time>2021-06-21T07:22:27.547Z</time>
      </trkpt>
      <trkpt lat="43.28177" lon="-1.67857">
        <ele>13</ele>
        <time>2021-06-21T07:22:28.520Z</time>
      </trkpt>
      <trkpt lat="43.28177" lon="-1.67857">
        <ele>13</ele>
        <time>2021-06-21T07:22:29.531Z</time>
      </trkpt>
      <trkpt lat="43.28174" lon="-1.67857">
        <ele>12</ele>
        <time>2021-06-21T07:22:30.544Z</time>
      </trkpt>
      <trkpt lat="43.28174" lon="-1.67857">
        <ele>12</ele>
        <time>2021-06-21T07:22:31.541Z</time>
      </trkpt>
      <trkpt lat="43.2817" lon="-1.67854">
        <ele>12</ele>
        <time>2021-06-21T07:22:32.547Z</time>
      </trkpt>
      <trkpt lat="43.28169" lon="-1.67853">
        <ele>12</ele>
        <time>2021-06-21T07:22:33.532Z</time>
      </trkpt>
      <trkpt lat="43.28169" lon="-1.67853">
        <ele>12</ele>
        <time>2021-06-21T07:22:34.526Z</time>
      </trkpt>
      <trkpt lat="43.28164" lon="-1.67845">
        <ele>12</ele>
        <time>2021-06-21T07:22:35.532Z</time>
      </trkpt>
      <trkpt lat="43.28161" lon="-1.6784">
        <ele>12</ele>
        <time>2021-06-21T07:22:36.509Z</time>
      </trkpt>
      <trkpt lat="43.28161" lon="-1.6784">
        <ele>12</ele>
        <time>2021-06-21T07:22:37.534Z</time>
      </trkpt>
      <trkpt lat="43.28153" lon="-1.67833">
        <ele>13</ele>
        <time>2021-06-21T07:22:38.541Z</time>
      </trkpt>
      <trkpt lat="43.28153" lon="-1.67833">
        <ele>13</ele>
        <time>2021-06-21T07:22:39.521Z</time>
      </trkpt>
      <trkpt lat="43.28151" lon="-1.67827">
        <ele>13</ele>
        <time>2021-06-21T07:22:40.527Z</time>
      </trkpt>
      <trkpt lat="43.28151" lon="-1.67827">
        <ele>13</ele>
        <time>2021-06-21T07:22:41.532Z</time>
      </trkpt>
      <trkpt lat="43.28149" lon="-1.67821">
        <ele>14</ele>
        <time>2021-06-21T07:22:42.548Z</time>
      </trkpt>
      <trkpt lat="43.28149" lon="-1.67821">
        <ele>14</ele>
        <time>2021-06-21T07:22:43.525Z</time>
      </trkpt>
      <trkpt lat="43.28147" lon="-1.67814">
        <ele>14</ele>
        <time>2021-06-21T07:22:44.632Z</time>
      </trkpt>
      <trkpt lat="43.28147" lon="-1.67811">
        <ele>14</ele>
        <time>2021-06-21T07:22:45.539Z</time>
      </trkpt>
      <trkpt lat="43.28147" lon="-1.67811">
        <ele>14</ele>
        <time>2021-06-21T07:22:46.543Z</time>
      </trkpt>
      <trkpt lat="43.28147" lon="-1.67805">
        <ele>15</ele>
        <time>2021-06-21T07:22:47.547Z</time>
      </trkpt>
      <trkpt lat="43.28147" lon="-1.67801">
        <ele>15</ele>
        <time>2021-06-21T07:22:48.540Z</time>
      </trkpt>
      <trkpt lat="43.28147" lon="-1.67801">
        <ele>15</ele>
        <time>2021-06-21T07:22:49.544Z</time>
      </trkpt>
      <trkpt lat="43.28147" lon="-1.67801">
        <ele>15</ele>
        <time>2021-06-21T07:22:50.625Z</time>
      </trkpt>
      <trkpt lat="43.28146" lon="-1.67795">
        <ele>15</ele>
        <time>2021-06-21T07:22:51.526Z</time>
      </trkpt>
      <trkpt lat="43.28146" lon="-1.67795">
        <ele>15</ele>
        <time>2021-06-21T07:22:52.511Z</time>
      </trkpt>
      <trkpt lat="43.28146" lon="-1.67789">
        <ele>15</ele>
        <time>2021-06-21T07:22:53.528Z</time>
      </trkpt>
      <trkpt lat="43.28146" lon="-1.67789">
        <ele>15</ele>
        <time>2021-06-21T07:22:54.511Z</time>
      </trkpt>
      <trkpt lat="43.28144" lon="-1.67787">
        <ele>16</ele>
        <time>2021-06-21T07:22:55.525Z</time>
      </trkpt>
      <trkpt lat="43.28143" lon="-1.67787">
        <ele>16</ele>
        <time>2021-06-21T07:22:56.548Z</time>
      </trkpt>
      <trkpt lat="43.28143" lon="-1.67786">
        <ele>16</ele>
        <time>2021-06-21T07:22:57.530Z</time>
      </trkpt>
      <trkpt lat="43.28143" lon="-1.67786">
        <ele>16</ele>
        <time>2021-06-21T07:22:58.544Z</time>
      </trkpt>
      <trkpt lat="43.28143" lon="-1.67786">
        <ele>16</ele>
        <time>2021-06-21T07:22:59.530Z</time>
      </trkpt>
      <trkpt lat="43.28143" lon="-1.67786">
        <ele>16</ele>
        <time>2021-06-21T07:23:00.545Z</time>
      </trkpt>
      <trkpt lat="43.28143" lon="-1.67786">
        <ele>16</ele>
        <time>2021-06-21T07:23:01.525Z</time>
      </trkpt>
      <trkpt lat="43.28143" lon="-1.67786">
        <ele>16</ele>
        <time>2021-06-21T07:23:02.540Z</time>
      </trkpt>
      <trkpt lat="43.28143" lon="-1.67786">
        <ele>16</ele>
        <time>2021-06-21T07:23:03.527Z</time>
      </trkpt>
      <trkpt lat="43.28143" lon="-1.67786">
        <ele>16</ele>
        <time>2021-06-21T07:23:04.542Z</time>
      </trkpt>
      <trkpt lat="43.28143" lon="-1.67786">
        <ele>16</ele>
        <time>2021-06-21T07:23:05.539Z</time>
      </trkpt>
      <trkpt lat="43.28143" lon="-1.67786">
        <ele>16</ele>
        <time>2021-06-21T07:23:06.541Z</time>
      </trkpt>
      <trkpt lat="43.28143" lon="-1.67786">
        <ele>16</ele>
        <time>2021-06-21T07:23:07.525Z</time>
      </trkpt>
      <trkpt lat="43.28143" lon="-1.67786">
        <ele>16</ele>
        <time>2021-06-21T07:23:08.540Z</time>
      </trkpt>
      <trkpt lat="43.28143" lon="-1.67786">
        <ele>16</ele>
        <time>2021-06-21T07:23:09.525Z</time>
      </trkpt>
      <trkpt lat="43.28142" lon="-1.67782">
        <ele>19</ele>
        <time>2021-06-21T07:23:10.539Z</time>
      </trkpt>
      <trkpt lat="43.28142" lon="-1.67782">
        <ele>19</ele>
        <time>2021-06-21T07:23:11.525Z</time>
      </trkpt>
      <trkpt lat="43.28144" lon="-1.67778">
        <ele>19</ele>
        <time>2021-06-21T07:23:12.540Z</time>
      </trkpt>
      <trkpt lat="43.28145" lon="-1.67776">
        <ele>19</ele>
        <time>2021-06-21T07:23:13.528Z</time>
      </trkpt>
      <trkpt lat="43.28145" lon="-1.67776">
        <ele>19</ele>
        <time>2021-06-21T07:23:14.539Z</time>
      </trkpt>
      <trkpt lat="43.28144" lon="-1.67771">
        <ele>20</ele>
        <time>2021-06-21T07:23:15.530Z</time>
      </trkpt>
      <trkpt lat="43.28144" lon="-1.67771">
        <ele>20</ele>
        <time>2021-06-21T07:23:16.545Z</time>
      </trkpt>
      <trkpt lat="43.28144" lon="-1.67771">
        <ele>20</ele>
        <time>2021-06-21T07:23:17.519Z</time>
      </trkpt>
      <trkpt lat="43.28146" lon="-1.67762">
        <ele>21</ele>
        <time>2021-06-21T07:23:18.525Z</time>
      </trkpt>
      <trkpt lat="43.28146" lon="-1.67762">
        <ele>21</ele>
        <time>2021-06-21T07:23:19.541Z</time>
      </trkpt>
      <trkpt lat="43.28147" lon="-1.67756">
        <ele>21</ele>
        <time>2021-06-21T07:23:20.511Z</time>
      </trkpt>
      <trkpt lat="43.28147" lon="-1.67756">
        <ele>21</ele>
        <time>2021-06-21T07:23:21.526Z</time>
      </trkpt>
      <trkpt lat="43.28149" lon="-1.6775">
        <ele>23</ele>
        <time>2021-06-21T07:23:22.546Z</time>
      </trkpt>
      <trkpt lat="43.28149" lon="-1.6775">
        <ele>23</ele>
        <time>2021-06-21T07:23:23.514Z</time>
      </trkpt>
      <trkpt lat="43.28164" lon="-1.67738">
        <ele>31</ele>
        <time>2021-06-21T07:23:24.521Z</time>
      </trkpt>
      <trkpt lat="43.28164" lon="-1.67738">
        <ele>31</ele>
        <time>2021-06-21T07:23:25.538Z</time>
      </trkpt>
      <trkpt lat="43.28167" lon="-1.67732">
        <ele>33</ele>
        <time>2021-06-21T07:23:26.545Z</time>
      </trkpt>
      <trkpt lat="43.28167" lon="-1.67732">
        <ele>33</ele>
        <time>2021-06-21T07:23:27.523Z</time>
      </trkpt>
      <trkpt lat="43.28171" lon="-1.67725">
        <ele>35</ele>
        <time>2021-06-21T07:23:28.530Z</time>
      </trkpt>
      <trkpt lat="43.28171" lon="-1.67725">
        <ele>35</ele>
        <time>2021-06-21T07:23:29.520Z</time>
      </trkpt>
      <trkpt lat="43.28174" lon="-1.67717">
        <ele>36</ele>
        <time>2021-06-21T07:23:30.527Z</time>
      </trkpt>
      <trkpt lat="43.28174" lon="-1.67717">
        <ele>36</ele>
        <time>2021-06-21T07:23:31.528Z</time>
      </trkpt>
      <trkpt lat="43.28177" lon="-1.6771">
        <ele>38</ele>
        <time>2021-06-21T07:23:32.588Z</time>
      </trkpt>
      <trkpt lat="43.28177" lon="-1.6771">
        <ele>38</ele>
        <time>2021-06-21T07:23:33.510Z</time>
      </trkpt>
      <trkpt lat="43.28179" lon="-1.67702">
        <ele>40</ele>
        <time>2021-06-21T07:23:34.520Z</time>
      </trkpt>
      <trkpt lat="43.28179" lon="-1.67702">
        <ele>40</ele>
        <time>2021-06-21T07:23:35.545Z</time>
      </trkpt>
      <trkpt lat="43.28181" lon="-1.67694">
        <ele>40</ele>
        <time>2021-06-21T07:23:36.510Z</time>
      </trkpt>
      <trkpt lat="43.28181" lon="-1.67694">
        <ele>40</ele>
        <time>2021-06-21T07:23:37.522Z</time>
      </trkpt>
      <trkpt lat="43.28183" lon="-1.67686">
        <ele>41</ele>
        <time>2021-06-21T07:23:38.589Z</time>
      </trkpt>
      <trkpt lat="43.28183" lon="-1.67686">
        <ele>41</ele>
        <time>2021-06-21T07:23:39.547Z</time>
      </trkpt>
      <trkpt lat="43.28184" lon="-1.67679">
        <ele>42</ele>
        <time>2021-06-21T07:23:40.521Z</time>
      </trkpt>
      <trkpt lat="43.28184" lon="-1.67679">
        <ele>42</ele>
        <time>2021-06-21T07:23:41.542Z</time>
      </trkpt>
      <trkpt lat="43.28186" lon="-1.6767">
        <ele>42</ele>
        <time>2021-06-21T07:23:42.632Z</time>
      </trkpt>
      <trkpt lat="43.28186" lon="-1.6767">
        <ele>42</ele>
        <time>2021-06-21T07:23:43.519Z</time>
      </trkpt>
      <trkpt lat="43.28189" lon="-1.67663">
        <ele>42</ele>
        <time>2021-06-21T07:23:44.531Z</time>
      </trkpt>
      <trkpt lat="43.28189" lon="-1.67663">
        <ele>42</ele>
        <time>2021-06-21T07:23:45.519Z</time>
      </trkpt>
      <trkpt lat="43.28191" lon="-1.67656">
        <ele>43</ele>
        <time>2021-06-21T07:23:46.529Z</time>
      </trkpt>
      <trkpt lat="43.28191" lon="-1.67656">
        <ele>43</ele>
        <time>2021-06-21T07:23:47.528Z</time>
      </trkpt>
      <trkpt lat="43.28192" lon="-1.67648">
        <ele>43</ele>
        <time>2021-06-21T07:23:48.602Z</time>
      </trkpt>
      <trkpt lat="43.28192" lon="-1.67648">
        <ele>43</ele>
        <time>2021-06-21T07:23:49.519Z</time>
      </trkpt>
      <trkpt lat="43.28193" lon="-1.67641">
        <ele>43</ele>
        <time>2021-06-21T07:23:50.525Z</time>
      </trkpt>
      <trkpt lat="43.28193" lon="-1.67641">
        <ele>43</ele>
        <time>2021-06-21T07:23:51.511Z</time>
      </trkpt>
      <trkpt lat="43.28192" lon="-1.67634">
        <ele>44</ele>
        <time>2021-06-21T07:23:52.518Z</time>
      </trkpt>
      <trkpt lat="43.28191" lon="-1.67631">
        <ele>44</ele>
        <time>2021-06-21T07:23:53.535Z</time>
      </trkpt>
      <trkpt lat="43.2819" lon="-1.67627">
        <ele>45</ele>
        <time>2021-06-21T07:23:54.509Z</time>
      </trkpt>
      <trkpt lat="43.2819" lon="-1.67627">
        <ele>45</ele>
        <time>2021-06-21T07:23:55.529Z</time>
      </trkpt>
      <trkpt lat="43.28187" lon="-1.67619">
        <ele>45</ele>
        <time>2021-06-21T07:23:56.545Z</time>
      </trkpt>
      <trkpt lat="43.28187" lon="-1.67619">
        <ele>45</ele>
        <time>2021-06-21T07:23:57.525Z</time>
      </trkpt>
      <trkpt lat="43.28185" lon="-1.6761">
        <ele>45</ele>
        <time>2021-06-21T07:23:58.531Z</time>
      </trkpt>
      <trkpt lat="43.28185" lon="-1.6761">
        <ele>45</ele>
        <time>2021-06-21T07:23:59.546Z</time>
      </trkpt>
      <trkpt lat="43.28183" lon="-1.67601">
        <ele>46</ele>
        <time>2021-06-21T07:24:00.514Z</time>
      </trkpt>
      <trkpt lat="43.28183" lon="-1.67601">
        <ele>46</ele>
        <time>2021-06-21T07:24:01.533Z</time>
      </trkpt>
      <trkpt lat="43.28182" lon="-1.67593">
        <ele>46</ele>
        <time>2021-06-21T07:24:02.541Z</time>
      </trkpt>
      <trkpt lat="43.28183" lon="-1.67589">
        <ele>46</ele>
        <time>2021-06-21T07:24:03.531Z</time>
      </trkpt>
      <trkpt lat="43.28183" lon="-1.67589">
        <ele>46</ele>
        <time>2021-06-21T07:24:04.509Z</time>
      </trkpt>
      <trkpt lat="43.28183" lon="-1.67581">
        <ele>47</ele>
        <time>2021-06-21T07:24:05.517Z</time>
      </trkpt>
      <trkpt lat="43.28184" lon="-1.67577">
        <ele>47</ele>
        <time>2021-06-21T07:24:06.541Z</time>
      </trkpt>
      <trkpt lat="43.28184" lon="-1.67577">
        <ele>47</ele>
        <time>2021-06-21T07:24:07.523Z</time>
      </trkpt>
      <trkpt lat="43.28187" lon="-1.67571">
        <ele>47</ele>
        <time>2021-06-21T07:24:08.532Z</time>
      </trkpt>
      <trkpt lat="43.28188" lon="-1.67568">
        <ele>48</ele>
        <time>2021-06-21T07:24:09.520Z</time>
      </trkpt>
      <trkpt lat="43.28188" lon="-1.67568">
        <ele>48</ele>
        <time>2021-06-21T07:24:10.518Z</time>
      </trkpt>
      <trkpt lat="43.28192" lon="-1.67563">
        <ele>48</ele>
        <time>2021-06-21T07:24:11.570Z</time>
      </trkpt>
      <trkpt lat="43.28194" lon="-1.67561">
        <ele>48</ele>
        <time>2021-06-21T07:24:12.527Z</time>
      </trkpt>
      <trkpt lat="43.28194" lon="-1.67561">
        <ele>48</ele>
        <time>2021-06-21T07:24:13.545Z</time>
      </trkpt>
      <trkpt lat="43.28198" lon="-1.67557">
        <ele>49</ele>
        <time>2021-06-21T07:24:14.510Z</time>
      </trkpt>
      <trkpt lat="43.28198" lon="-1.67557">
        <ele>49</ele>
        <time>2021-06-21T07:24:15.529Z</time>
      </trkpt>
      <trkpt lat="43.282" lon="-1.67553">
        <ele>49</ele>
        <time>2021-06-21T07:24:16.539Z</time>
      </trkpt>
      <trkpt lat="43.28202" lon="-1.67551">
        <ele>50</ele>
        <time>2021-06-21T07:24:17.545Z</time>
      </trkpt>
      <trkpt lat="43.28203" lon="-1.67549">
        <ele>50</ele>
        <time>2021-06-21T07:24:18.613Z</time>
      </trkpt>
      <trkpt lat="43.28203" lon="-1.67549">
        <ele>50</ele>
        <time>2021-06-21T07:24:19.522Z</time>
      </trkpt>
      <trkpt lat="43.28206" lon="-1.67544">
        <ele>51</ele>
        <time>2021-06-21T07:24:20.528Z</time>
      </trkpt>
      <trkpt lat="43.28206" lon="-1.67544">
        <ele>51</ele>
        <time>2021-06-21T07:24:21.542Z</time>
      </trkpt>
      <trkpt lat="43.28209" lon="-1.67538">
        <ele>51</ele>
        <time>2021-06-21T07:24:22.520Z</time>
      </trkpt>
      <trkpt lat="43.28209" lon="-1.67538">
        <ele>51</ele>
        <time>2021-06-21T07:24:23.538Z</time>
      </trkpt>
      <trkpt lat="43.28211" lon="-1.67533">
        <ele>52</ele>
        <time>2021-06-21T07:24:24.545Z</time>
      </trkpt>
      <trkpt lat="43.28211" lon="-1.67533">
        <ele>52</ele>
        <time>2021-06-21T07:24:25.520Z</time>
      </trkpt>
      <trkpt lat="43.28214" lon="-1.67527">
        <ele>52</ele>
        <time>2021-06-21T07:24:26.526Z</time>
      </trkpt>
      <trkpt lat="43.28214" lon="-1.67527">
        <ele>52</ele>
        <time>2021-06-21T07:24:27.548Z</time>
      </trkpt>
      <trkpt lat="43.28216" lon="-1.67522">
        <ele>52</ele>
        <time>2021-06-21T07:24:28.523Z</time>
      </trkpt>
      <trkpt lat="43.28216" lon="-1.67522">
        <ele>52</ele>
        <time>2021-06-21T07:24:29.545Z</time>
      </trkpt>
      <trkpt lat="43.28219" lon="-1.67516">
        <ele>53</ele>
        <time>2021-06-21T07:24:30.512Z</time>
      </trkpt>
      <trkpt lat="43.28219" lon="-1.67516">
        <ele>53</ele>
        <time>2021-06-21T07:24:31.533Z</time>
      </trkpt>
      <trkpt lat="43.28221" lon="-1.6751">
        <ele>53</ele>
        <time>2021-06-21T07:24:32.540Z</time>
      </trkpt>
      <trkpt lat="43.28221" lon="-1.6751">
        <ele>53</ele>
        <time>2021-06-21T07:24:33.516Z</time>
      </trkpt>
      <trkpt lat="43.28223" lon="-1.67504">
        <ele>54</ele>
        <time>2021-06-21T07:24:34.596Z</time>
      </trkpt>
      <trkpt lat="43.28223" lon="-1.67504">
        <ele>54</ele>
        <time>2021-06-21T07:24:35.540Z</time>
      </trkpt>
      <trkpt lat="43.28223" lon="-1.67497">
        <ele>55</ele>
        <time>2021-06-21T07:24:36.548Z</time>
      </trkpt>
      <trkpt lat="43.28223" lon="-1.67497">
        <ele>55</ele>
        <time>2021-06-21T07:24:37.524Z</time>
      </trkpt>
      <trkpt lat="43.28224" lon="-1.67491">
        <ele>55</ele>
        <time>2021-06-21T07:24:38.532Z</time>
      </trkpt>
      <trkpt lat="43.28224" lon="-1.67491">
        <ele>55</ele>
        <time>2021-06-21T07:24:39.509Z</time>
      </trkpt>
      <trkpt lat="43.28224" lon="-1.67484">
        <ele>55</ele>
        <time>2021-06-21T07:24:40.521Z</time>
      </trkpt>
      <trkpt lat="43.28224" lon="-1.67481">
        <ele>56</ele>
        <time>2021-06-21T07:24:41.511Z</time>
      </trkpt>
      <trkpt lat="43.28224" lon="-1.67477">
        <ele>56</ele>
        <time>2021-06-21T07:24:42.544Z</time>
      </trkpt>
      <trkpt lat="43.28224" lon="-1.67477">
        <ele>56</ele>
        <time>2021-06-21T07:24:43.519Z</time>
      </trkpt>
      <trkpt lat="43.2822" lon="-1.67467">
        <ele>57</ele>
        <time>2021-06-21T07:24:44.525Z</time>
      </trkpt>
      <trkpt lat="43.2822" lon="-1.67463">
        <ele>57</ele>
        <time>2021-06-21T07:24:45.541Z</time>
      </trkpt>
      <trkpt lat="43.2822" lon="-1.67463">
        <ele>57</ele>
        <time>2021-06-21T07:24:46.535Z</time>
      </trkpt>
      <trkpt lat="43.28221" lon="-1.67456">
        <ele>58</ele>
        <time>2021-06-21T07:24:47.547Z</time>
      </trkpt>
      <trkpt lat="43.28222" lon="-1.67453">
        <ele>58</ele>
        <time>2021-06-21T07:24:48.541Z</time>
      </trkpt>
      <trkpt lat="43.28222" lon="-1.67453">
        <ele>58</ele>
        <time>2021-06-21T07:24:49.519Z</time>
      </trkpt>
      <trkpt lat="43.28223" lon="-1.67447">
        <ele>59</ele>
        <time>2021-06-21T07:24:50.535Z</time>
      </trkpt>
      <trkpt lat="43.28223" lon="-1.67447">
        <ele>59</ele>
        <time>2021-06-21T07:24:51.524Z</time>
      </trkpt>
      <trkpt lat="43.28225" lon="-1.67442">
        <ele>59</ele>
        <time>2021-06-21T07:24:52.541Z</time>
      </trkpt>
      <trkpt lat="43.28225" lon="-1.67442">
        <ele>59</ele>
        <time>2021-06-21T07:24:53.516Z</time>
      </trkpt>
      <trkpt lat="43.28227" lon="-1.67436">
        <ele>60</ele>
        <time>2021-06-21T07:24:54.524Z</time>
      </trkpt>
      <trkpt lat="43.28227" lon="-1.67436">
        <ele>60</ele>
        <time>2021-06-21T07:24:55.536Z</time>
      </trkpt>
      <trkpt lat="43.2823" lon="-1.6743">
        <ele>60</ele>
        <time>2021-06-21T07:24:56.543Z</time>
      </trkpt>
      <trkpt lat="43.2823" lon="-1.6743">
        <ele>60</ele>
        <time>2021-06-21T07:24:57.525Z</time>
      </trkpt>
      <trkpt lat="43.28233" lon="-1.67425">
        <ele>61</ele>
        <time>2021-06-21T07:24:58.533Z</time>
      </trkpt>
      <trkpt lat="43.28233" lon="-1.67425">
        <ele>61</ele>
        <time>2021-06-21T07:24:59.516Z</time>
      </trkpt>
      <trkpt lat="43.28237" lon="-1.6742">
        <ele>61</ele>
        <time>2021-06-21T07:25:00.525Z</time>
      </trkpt>
      <trkpt lat="43.28237" lon="-1.6742">
        <ele>61</ele>
        <time>2021-06-21T07:25:01.524Z</time>
      </trkpt>
      <trkpt lat="43.28241" lon="-1.67415">
        <ele>61</ele>
        <time>2021-06-21T07:25:02.535Z</time>
      </trkpt>
      <trkpt lat="43.28241" lon="-1.67415">
        <ele>61</ele>
        <time>2021-06-21T07:25:03.525Z</time>
      </trkpt>
      <trkpt lat="43.28244" lon="-1.67409">
        <ele>62</ele>
        <time>2021-06-21T07:25:04.532Z</time>
      </trkpt>
      <trkpt lat="43.28244" lon="-1.67409">
        <ele>62</ele>
        <time>2021-06-21T07:25:05.542Z</time>
      </trkpt>
      <trkpt lat="43.28248" lon="-1.67403">
        <ele>62</ele>
        <time>2021-06-21T07:25:06.512Z</time>
      </trkpt>
      <trkpt lat="43.28248" lon="-1.67403">
        <ele>62</ele>
        <time>2021-06-21T07:25:07.539Z</time>
      </trkpt>
      <trkpt lat="43.28251" lon="-1.67396">
        <ele>62</ele>
        <time>2021-06-21T07:25:08.547Z</time>
      </trkpt>
      <trkpt lat="43.28252" lon="-1.67392">
        <ele>62</ele>
        <time>2021-06-21T07:25:09.520Z</time>
      </trkpt>
      <trkpt lat="43.28252" lon="-1.67392">
        <ele>62</ele>
        <time>2021-06-21T07:25:10.547Z</time>
      </trkpt>
      <trkpt lat="43.28254" lon="-1.67384">
        <ele>63</ele>
        <time>2021-06-21T07:25:11.513Z</time>
      </trkpt>
      <trkpt lat="43.28254" lon="-1.67384">
        <ele>63</ele>
        <time>2021-06-21T07:25:12.528Z</time>
      </trkpt>
      <trkpt lat="43.28256" lon="-1.67377">
        <ele>63</ele>
        <time>2021-06-21T07:25:13.537Z</time>
      </trkpt>
      <trkpt lat="43.28257" lon="-1.67373">
        <ele>63</ele>
        <time>2021-06-21T07:25:14.513Z</time>
      </trkpt>
      <trkpt lat="43.28257" lon="-1.67373">
        <ele>63</ele>
        <time>2021-06-21T07:25:15.513Z</time>
      </trkpt>
      <trkpt lat="43.2826" lon="-1.67365">
        <ele>63</ele>
        <time>2021-06-21T07:25:16.520Z</time>
      </trkpt>
      <trkpt lat="43.2826" lon="-1.67365">
        <ele>63</ele>
        <time>2021-06-21T07:25:17.541Z</time>
      </trkpt>
      <trkpt lat="43.28262" lon="-1.67358">
        <ele>63</ele>
        <time>2021-06-21T07:25:18.548Z</time>
      </trkpt>
      <trkpt lat="43.28262" lon="-1.67358">
        <ele>63</ele>
        <time>2021-06-21T07:25:19.535Z</time>
      </trkpt>
      <trkpt lat="43.28264" lon="-1.6735">
        <ele>63</ele>
        <time>2021-06-21T07:25:20.542Z</time>
      </trkpt>
      <trkpt lat="43.28264" lon="-1.67346">
        <ele>63</ele>
        <time>2021-06-21T07:25:21.524Z</time>
      </trkpt>
      <trkpt lat="43.28264" lon="-1.67346">
        <ele>63</ele>
        <time>2021-06-21T07:25:22.509Z</time>
      </trkpt>
      <trkpt lat="43.28266" lon="-1.67339">
        <ele>63</ele>
        <time>2021-06-21T07:25:23.514Z</time>
      </trkpt>
      <trkpt lat="43.28267" lon="-1.67335">
        <ele>63</ele>
        <time>2021-06-21T07:25:24.541Z</time>
      </trkpt>
      <trkpt lat="43.28267" lon="-1.67335">
        <ele>63</ele>
        <time>2021-06-21T07:25:25.526Z</time>
      </trkpt>
      <trkpt lat="43.28268" lon="-1.67328">
        <ele>63</ele>
        <time>2021-06-21T07:25:26.535Z</time>
      </trkpt>
      <trkpt lat="43.28268" lon="-1.67328">
        <ele>63</ele>
        <time>2021-06-21T07:25:27.513Z</time>
      </trkpt>
      <trkpt lat="43.28268" lon="-1.6732">
        <ele>63</ele>
        <time>2021-06-21T07:25:28.529Z</time>
      </trkpt>
      <trkpt lat="43.28268" lon="-1.6732">
        <ele>63</ele>
        <time>2021-06-21T07:25:29.516Z</time>
      </trkpt>
      <trkpt lat="43.28268" lon="-1.67313">
        <ele>63</ele>
        <time>2021-06-21T07:25:30.536Z</time>
      </trkpt>
      <trkpt lat="43.28268" lon="-1.67313">
        <ele>63</ele>
        <time>2021-06-21T07:25:31.525Z</time>
      </trkpt>
      <trkpt lat="43.28269" lon="-1.67305">
        <ele>63</ele>
        <time>2021-06-21T07:25:32.531Z</time>
      </trkpt>
      <trkpt lat="43.28269" lon="-1.67302">
        <ele>63</ele>
        <time>2021-06-21T07:25:33.535Z</time>
      </trkpt>
      <trkpt lat="43.28269" lon="-1.67302">
        <ele>63</ele>
        <time>2021-06-21T07:25:34.520Z</time>
      </trkpt>
      <trkpt lat="43.2827" lon="-1.67294">
        <ele>63</ele>
        <time>2021-06-21T07:25:35.529Z</time>
      </trkpt>
      <trkpt lat="43.2827" lon="-1.67291">
        <ele>63</ele>
        <time>2021-06-21T07:25:36.513Z</time>
      </trkpt>
      <trkpt lat="43.2827" lon="-1.67291">
        <ele>63</ele>
        <time>2021-06-21T07:25:37.532Z</time>
      </trkpt>
      <trkpt lat="43.2827" lon="-1.67283">
        <ele>63</ele>
        <time>2021-06-21T07:25:38.541Z</time>
      </trkpt>
      <trkpt lat="43.2827" lon="-1.67283">
        <ele>63</ele>
        <time>2021-06-21T07:25:39.512Z</time>
      </trkpt>
      <trkpt lat="43.2827" lon="-1.67276">
        <ele>63</ele>
        <time>2021-06-21T07:25:40.524Z</time>
      </trkpt>
      <trkpt lat="43.2827" lon="-1.67276">
        <ele>63</ele>
        <time>2021-06-21T07:25:41.544Z</time>
      </trkpt>
      <trkpt lat="43.2827" lon="-1.67268">
        <ele>63</ele>
        <time>2021-06-21T07:25:42.510Z</time>
      </trkpt>
      <trkpt lat="43.2827" lon="-1.67268">
        <ele>63</ele>
        <time>2021-06-21T07:25:43.549Z</time>
      </trkpt>
      <trkpt lat="43.2827" lon="-1.67268">
        <ele>63</ele>
        <time>2021-06-21T07:25:44.599Z</time>
      </trkpt>
      <trkpt lat="43.28272" lon="-1.67257">
        <ele>62</ele>
        <time>2021-06-21T07:25:45.533Z</time>
      </trkpt>
      <trkpt lat="43.28272" lon="-1.67257">
        <ele>62</ele>
        <time>2021-06-21T07:25:46.522Z</time>
      </trkpt>
      <trkpt lat="43.28272" lon="-1.6725">
        <ele>62</ele>
        <time>2021-06-21T07:25:47.540Z</time>
      </trkpt>
      <trkpt lat="43.28273" lon="-1.67247">
        <ele>62</ele>
        <time>2021-06-21T07:25:48.529Z</time>
      </trkpt>
      <trkpt lat="43.28273" lon="-1.67247">
        <ele>62</ele>
        <time>2021-06-21T07:25:49.520Z</time>
      </trkpt>
      <trkpt lat="43.28275" lon="-1.6724">
        <ele>62</ele>
        <time>2021-06-21T07:25:50.526Z</time>
      </trkpt>
      <trkpt lat="43.28275" lon="-1.6724">
        <ele>62</ele>
        <time>2021-06-21T07:25:51.540Z</time>
      </trkpt>
      <trkpt lat="43.28275" lon="-1.67233">
        <ele>62</ele>
        <time>2021-06-21T07:25:52.546Z</time>
      </trkpt>
      <trkpt lat="43.28275" lon="-1.67233">
        <ele>62</ele>
        <time>2021-06-21T07:25:53.527Z</time>
      </trkpt>
      <trkpt lat="43.28275" lon="-1.67225">
        <ele>63</ele>
        <time>2021-06-21T07:25:54.599Z</time>
      </trkpt>
      <trkpt lat="43.28275" lon="-1.67225">
        <ele>63</ele>
        <time>2021-06-21T07:25:55.523Z</time>
      </trkpt>
      <trkpt lat="43.28274" lon="-1.67217">
        <ele>63</ele>
        <time>2021-06-21T07:25:56.529Z</time>
      </trkpt>
      <trkpt lat="43.28274" lon="-1.67212">
        <ele>63</ele>
        <time>2021-06-21T07:25:57.595Z</time>
      </trkpt>
      <trkpt lat="43.28274" lon="-1.67212">
        <ele>63</ele>
        <time>2021-06-21T07:25:58.520Z</time>
      </trkpt>
      <trkpt lat="43.28273" lon="-1.67204">
        <ele>64</ele>
        <time>2021-06-21T07:25:59.531Z</time>
      </trkpt>
      <trkpt lat="43.28273" lon="-1.672">
        <ele>64</ele>
        <time>2021-06-21T07:26:00.523Z</time>
      </trkpt>
      <trkpt lat="43.28273" lon="-1.672">
        <ele>64</ele>
        <time>2021-06-21T07:26:01.542Z</time>
      </trkpt>
      <trkpt lat="43.28272" lon="-1.67192">
        <ele>64</ele>
        <time>2021-06-21T07:26:02.547Z</time>
      </trkpt>
      <trkpt lat="43.28272" lon="-1.67192">
        <ele>64</ele>
        <time>2021-06-21T07:26:03.538Z</time>
      </trkpt>
      <trkpt lat="43.28271" lon="-1.67184">
        <ele>64</ele>
        <time>2021-06-21T07:26:04.544Z</time>
      </trkpt>
      <trkpt lat="43.28271" lon="-1.67184">
        <ele>64</ele>
        <time>2021-06-21T07:26:05.532Z</time>
      </trkpt>
      <trkpt lat="43.2827" lon="-1.67177">
        <ele>64</ele>
        <time>2021-06-21T07:26:06.538Z</time>
      </trkpt>
      <trkpt lat="43.2827" lon="-1.67177">
        <ele>64</ele>
        <time>2021-06-21T07:26:07.533Z</time>
      </trkpt>
      <trkpt lat="43.28269" lon="-1.67169">
        <ele>65</ele>
        <time>2021-06-21T07:26:08.560Z</time>
      </trkpt>
      <trkpt lat="43.28269" lon="-1.67169">
        <ele>65</ele>
        <time>2021-06-21T07:26:09.545Z</time>
      </trkpt>
      <trkpt lat="43.28269" lon="-1.67161">
        <ele>65</ele>
        <time>2021-06-21T07:26:10.613Z</time>
      </trkpt>
      <trkpt lat="43.28269" lon="-1.67161">
        <ele>65</ele>
        <time>2021-06-21T07:26:11.513Z</time>
      </trkpt>
      <trkpt lat="43.28268" lon="-1.67153">
        <ele>65</ele>
        <time>2021-06-21T07:26:12.525Z</time>
      </trkpt>
      <trkpt lat="43.28268" lon="-1.67153">
        <ele>65</ele>
        <time>2021-06-21T07:26:13.510Z</time>
      </trkpt>
      <trkpt lat="43.28268" lon="-1.67147">
        <ele>66</ele>
        <time>2021-06-21T07:26:14.592Z</time>
      </trkpt>
      <trkpt lat="43.28268" lon="-1.67147">
        <ele>66</ele>
        <time>2021-06-21T07:26:15.519Z</time>
      </trkpt>
      <trkpt lat="43.28267" lon="-1.67139">
        <ele>66</ele>
        <time>2021-06-21T07:26:16.528Z</time>
      </trkpt>
      <trkpt lat="43.28267" lon="-1.67136">
        <ele>66</ele>
        <time>2021-06-21T07:26:17.524Z</time>
      </trkpt>
      <trkpt lat="43.28267" lon="-1.67132">
        <ele>67</ele>
        <time>2021-06-21T07:26:18.550Z</time>
      </trkpt>
      <trkpt lat="43.28267" lon="-1.67132">
        <ele>67</ele>
        <time>2021-06-21T07:26:19.522Z</time>
      </trkpt>
      <trkpt lat="43.28266" lon="-1.67124">
        <ele>67</ele>
        <time>2021-06-21T07:26:20.530Z</time>
      </trkpt>
      <trkpt lat="43.28266" lon="-1.67124">
        <ele>67</ele>
        <time>2021-06-21T07:26:21.520Z</time>
      </trkpt>
      <trkpt lat="43.28266" lon="-1.67115">
        <ele>68</ele>
        <time>2021-06-21T07:26:22.539Z</time>
      </trkpt>
      <trkpt lat="43.28266" lon="-1.67115">
        <ele>68</ele>
        <time>2021-06-21T07:26:23.542Z</time>
      </trkpt>
      <trkpt lat="43.28266" lon="-1.67108">
        <ele>68</ele>
        <time>2021-06-21T07:26:24.548Z</time>
      </trkpt>
      <trkpt lat="43.28266" lon="-1.67108">
        <ele>68</ele>
        <time>2021-06-21T07:26:25.532Z</time>
      </trkpt>
      <trkpt lat="43.28265" lon="-1.671">
        <ele>68</ele>
        <time>2021-06-21T07:26:26.553Z</time>
      </trkpt>
      <trkpt lat="43.28265" lon="-1.67096">
        <ele>68</ele>
        <time>2021-06-21T07:26:27.522Z</time>
      </trkpt>
      <trkpt lat="43.28265" lon="-1.67092">
        <ele>68</ele>
        <time>2021-06-21T07:26:28.538Z</time>
      </trkpt>
      <trkpt lat="43.28265" lon="-1.67092">
        <ele>68</ele>
        <time>2021-06-21T07:26:29.513Z</time>
      </trkpt>
      <trkpt lat="43.28265" lon="-1.67083">
        <ele>68</ele>
        <time>2021-06-21T07:26:30.528Z</time>
      </trkpt>
      <trkpt lat="43.28265" lon="-1.67083">
        <ele>68</ele>
        <time>2021-06-21T07:26:31.520Z</time>
      </trkpt>
      <trkpt lat="43.28265" lon="-1.67075">
        <ele>68</ele>
        <time>2021-06-21T07:26:32.527Z</time>
      </trkpt>
      <trkpt lat="43.28265" lon="-1.67075">
        <ele>68</ele>
        <time>2021-06-21T07:26:33.523Z</time>
      </trkpt>
      <trkpt lat="43.28266" lon="-1.67067">
        <ele>68</ele>
        <time>2021-06-21T07:26:34.530Z</time>
      </trkpt>
      <trkpt lat="43.28266" lon="-1.67067">
        <ele>68</ele>
        <time>2021-06-21T07:26:35.516Z</time>
      </trkpt>
      <trkpt lat="43.28266" lon="-1.67059">
        <ele>68</ele>
        <time>2021-06-21T07:26:36.523Z</time>
      </trkpt>
      <trkpt lat="43.28266" lon="-1.67059">
        <ele>68</ele>
        <time>2021-06-21T07:26:37.537Z</time>
      </trkpt>
      <trkpt lat="43.28267" lon="-1.6705">
        <ele>68</ele>
        <time>2021-06-21T07:26:38.542Z</time>
      </trkpt>
      <trkpt lat="43.28267" lon="-1.6705">
        <ele>68</ele>
        <time>2021-06-21T07:26:39.522Z</time>
      </trkpt>
      <trkpt lat="43.28269" lon="-1.67042">
        <ele>68</ele>
        <time>2021-06-21T07:26:40.537Z</time>
      </trkpt>
      <trkpt lat="43.28269" lon="-1.67042">
        <ele>68</ele>
        <time>2021-06-21T07:26:41.523Z</time>
      </trkpt>
      <trkpt lat="43.2827" lon="-1.67034">
        <ele>68</ele>
        <time>2021-06-21T07:26:42.529Z</time>
      </trkpt>
      <trkpt lat="43.2827" lon="-1.67034">
        <ele>68</ele>
        <time>2021-06-21T07:26:43.523Z</time>
      </trkpt>
      <trkpt lat="43.28271" lon="-1.67026">
        <ele>68</ele>
        <time>2021-06-21T07:26:44.593Z</time>
      </trkpt>
      <trkpt lat="43.28271" lon="-1.67026">
        <ele>68</ele>
        <time>2021-06-21T07:26:45.513Z</time>
      </trkpt>
      <trkpt lat="43.28272" lon="-1.67018">
        <ele>68</ele>
        <time>2021-06-21T07:26:46.620Z</time>
      </trkpt>
      <trkpt lat="43.28272" lon="-1.67018">
        <ele>68</ele>
        <time>2021-06-21T07:26:47.541Z</time>
      </trkpt>
      <trkpt lat="43.28273" lon="-1.67011">
        <ele>68</ele>
        <time>2021-06-21T07:26:48.549Z</time>
      </trkpt>
      <trkpt lat="43.28273" lon="-1.67011">
        <ele>68</ele>
        <time>2021-06-21T07:26:49.530Z</time>
      </trkpt>
      <trkpt lat="43.28274" lon="-1.67003">
        <ele>68</ele>
        <time>2021-06-21T07:26:50.537Z</time>
      </trkpt>
      <trkpt lat="43.28274" lon="-1.67003">
        <ele>68</ele>
        <time>2021-06-21T07:26:51.510Z</time>
      </trkpt>
      <trkpt lat="43.28274" lon="-1.66994">
        <ele>69</ele>
        <time>2021-06-21T07:26:52.517Z</time>
      </trkpt>
      <trkpt lat="43.28274" lon="-1.66994">
        <ele>69</ele>
        <time>2021-06-21T07:26:53.534Z</time>
      </trkpt>
      <trkpt lat="43.28274" lon="-1.66986">
        <ele>69</ele>
        <time>2021-06-21T07:26:54.540Z</time>
      </trkpt>
      <trkpt lat="43.28274" lon="-1.66986">
        <ele>69</ele>
        <time>2021-06-21T07:26:55.528Z</time>
      </trkpt>
      <trkpt lat="43.28273" lon="-1.66977">
        <ele>69</ele>
        <time>2021-06-21T07:26:56.538Z</time>
      </trkpt>
      <trkpt lat="43.28273" lon="-1.66977">
        <ele>69</ele>
        <time>2021-06-21T07:26:57.533Z</time>
      </trkpt>
      <trkpt lat="43.28273" lon="-1.66968">
        <ele>70</ele>
        <time>2021-06-21T07:26:58.545Z</time>
      </trkpt>
      <trkpt lat="43.28273" lon="-1.66968">
        <ele>70</ele>
        <time>2021-06-21T07:26:59.523Z</time>
      </trkpt>
      <trkpt lat="43.28272" lon="-1.6696">
        <ele>70</ele>
        <time>2021-06-21T07:27:00.529Z</time>
      </trkpt>
      <trkpt lat="43.28272" lon="-1.6696">
        <ele>70</ele>
        <time>2021-06-21T07:27:01.524Z</time>
      </trkpt>
      <trkpt lat="43.28271" lon="-1.66951">
        <ele>70</ele>
        <time>2021-06-21T07:27:02.541Z</time>
      </trkpt>
      <trkpt lat="43.28271" lon="-1.66951">
        <ele>70</ele>
        <time>2021-06-21T07:27:03.536Z</time>
      </trkpt>
      <trkpt lat="43.2827" lon="-1.66943">
        <ele>70</ele>
        <time>2021-06-21T07:27:04.543Z</time>
      </trkpt>
      <trkpt lat="43.2827" lon="-1.66943">
        <ele>70</ele>
        <time>2021-06-21T07:27:05.517Z</time>
      </trkpt>
      <trkpt lat="43.28267" lon="-1.66934">
        <ele>70</ele>
        <time>2021-06-21T07:27:06.524Z</time>
      </trkpt>
      <trkpt lat="43.28267" lon="-1.66934">
        <ele>70</ele>
        <time>2021-06-21T07:27:07.512Z</time>
      </trkpt>
      <trkpt lat="43.28265" lon="-1.66924">
        <ele>70</ele>
        <time>2021-06-21T07:27:08.520Z</time>
      </trkpt>
      <trkpt lat="43.28265" lon="-1.66924">
        <ele>70</ele>
        <time>2021-06-21T07:27:09.521Z</time>
      </trkpt>
      <trkpt lat="43.28263" lon="-1.66916">
        <ele>70</ele>
        <time>2021-06-21T07:27:10.596Z</time>
      </trkpt>
      <trkpt lat="43.28263" lon="-1.66916">
        <ele>70</ele>
        <time>2021-06-21T07:27:11.534Z</time>
      </trkpt>
      <trkpt lat="43.28261" lon="-1.66907">
        <ele>71</ele>
        <time>2021-06-21T07:27:12.546Z</time>
      </trkpt>
      <trkpt lat="43.28261" lon="-1.66907">
        <ele>71</ele>
        <time>2021-06-21T07:27:13.518Z</time>
      </trkpt>
      <trkpt lat="43.2826" lon="-1.669">
        <ele>71</ele>
        <time>2021-06-21T07:27:14.525Z</time>
      </trkpt>
      <trkpt lat="43.2826" lon="-1.669">
        <ele>71</ele>
        <time>2021-06-21T07:27:15.542Z</time>
      </trkpt>
      <trkpt lat="43.28259" lon="-1.66893">
        <ele>71</ele>
        <time>2021-06-21T07:27:16.510Z</time>
      </trkpt>
      <trkpt lat="43.28259" lon="-1.6689">
        <ele>72</ele>
        <time>2021-06-21T07:27:17.592Z</time>
      </trkpt>
      <trkpt lat="43.28258" lon="-1.66886">
        <ele>72</ele>
        <time>2021-06-21T07:27:18.512Z</time>
      </trkpt>
      <trkpt lat="43.28258" lon="-1.66886">
        <ele>72</ele>
        <time>2021-06-21T07:27:19.511Z</time>
      </trkpt>
      <trkpt lat="43.28254" lon="-1.66879">
        <ele>72</ele>
        <time>2021-06-21T07:27:20.521Z</time>
      </trkpt>
      <trkpt lat="43.28253" lon="-1.66876">
        <ele>73</ele>
        <time>2021-06-21T07:27:21.535Z</time>
      </trkpt>
      <trkpt lat="43.28253" lon="-1.66876">
        <ele>73</ele>
        <time>2021-06-21T07:27:22.528Z</time>
      </trkpt>
      <trkpt lat="43.2825" lon="-1.66868">
        <ele>74</ele>
        <time>2021-06-21T07:27:23.537Z</time>
      </trkpt>
      <trkpt lat="43.2825" lon="-1.66865">
        <ele>74</ele>
        <time>2021-06-21T07:27:24.510Z</time>
      </trkpt>
      <trkpt lat="43.2825" lon="-1.66865">
        <ele>74</ele>
        <time>2021-06-21T07:27:25.533Z</time>
      </trkpt>
      <trkpt lat="43.28248" lon="-1.66857">
        <ele>74</ele>
        <time>2021-06-21T07:27:26.544Z</time>
      </trkpt>
      <trkpt lat="43.28248" lon="-1.66857">
        <ele>74</ele>
        <time>2021-06-21T07:27:27.529Z</time>
      </trkpt>
      <trkpt lat="43.28246" lon="-1.6685">
        <ele>74</ele>
        <time>2021-06-21T07:27:28.578Z</time>
      </trkpt>
      <trkpt lat="43.28246" lon="-1.6685">
        <ele>74</ele>
        <time>2021-06-21T07:27:29.546Z</time>
      </trkpt>
      <trkpt lat="43.28246" lon="-1.66843">
        <ele>75</ele>
        <time>2021-06-21T07:27:30.513Z</time>
      </trkpt>
      <trkpt lat="43.28246" lon="-1.66843">
        <ele>75</ele>
        <time>2021-06-21T07:27:31.532Z</time>
      </trkpt>
      <trkpt lat="43.28243" lon="-1.66836">
        <ele>75</ele>
        <time>2021-06-21T07:27:32.539Z</time>
      </trkpt>
      <trkpt lat="43.28243" lon="-1.66836">
        <ele>75</ele>
        <time>2021-06-21T07:27:33.517Z</time>
      </trkpt>
      <trkpt lat="43.28241" lon="-1.66829">
        <ele>75</ele>
        <time>2021-06-21T07:27:34.534Z</time>
      </trkpt>
      <trkpt lat="43.28241" lon="-1.66829">
        <ele>75</ele>
        <time>2021-06-21T07:27:35.543Z</time>
      </trkpt>
      <trkpt lat="43.2824" lon="-1.66822">
        <ele>76</ele>
        <time>2021-06-21T07:27:36.551Z</time>
      </trkpt>
      <trkpt lat="43.2824" lon="-1.66822">
        <ele>76</ele>
        <time>2021-06-21T07:27:37.545Z</time>
      </trkpt>
      <trkpt lat="43.28239" lon="-1.66815">
        <ele>77</ele>
        <time>2021-06-21T07:27:38.511Z</time>
      </trkpt>
      <trkpt lat="43.28239" lon="-1.66815">
        <ele>77</ele>
        <time>2021-06-21T07:27:39.540Z</time>
      </trkpt>
      <trkpt lat="43.28238" lon="-1.66809">
        <ele>77</ele>
        <time>2021-06-21T07:27:40.547Z</time>
      </trkpt>
      <trkpt lat="43.28238" lon="-1.66809">
        <ele>77</ele>
        <time>2021-06-21T07:27:41.528Z</time>
      </trkpt>
      <trkpt lat="43.28238" lon="-1.66809">
        <ele>77</ele>
        <time>2021-06-21T07:27:42.681Z</time>
      </trkpt>
      <trkpt lat="43.28236" lon="-1.66803">
        <ele>77</ele>
        <time>2021-06-21T07:27:43.524Z</time>
      </trkpt>
      <trkpt lat="43.28234" lon="-1.66796">
        <ele>78</ele>
        <time>2021-06-21T07:27:44.529Z</time>
      </trkpt>
      <trkpt lat="43.28234" lon="-1.66796">
        <ele>78</ele>
        <time>2021-06-21T07:27:45.540Z</time>
      </trkpt>
      <trkpt lat="43.28231" lon="-1.66789">
        <ele>79</ele>
        <time>2021-06-21T07:27:46.510Z</time>
      </trkpt>
      <trkpt lat="43.2823" lon="-1.66786">
        <ele>79</ele>
        <time>2021-06-21T07:27:47.568Z</time>
      </trkpt>
      <trkpt lat="43.2823" lon="-1.66784">
        <ele>79</ele>
        <time>2021-06-21T07:27:48.531Z</time>
      </trkpt>
      <trkpt lat="43.2823" lon="-1.66784">
        <ele>79</ele>
        <time>2021-06-21T07:27:49.544Z</time>
      </trkpt>
      <trkpt lat="43.28227" lon="-1.66779">
        <ele>80</ele>
        <time>2021-06-21T07:27:50.511Z</time>
      </trkpt>
      <trkpt lat="43.28227" lon="-1.66779">
        <ele>80</ele>
        <time>2021-06-21T07:27:51.529Z</time>
      </trkpt>
      <trkpt lat="43.28225" lon="-1.66773">
        <ele>80</ele>
        <time>2021-06-21T07:27:52.536Z</time>
      </trkpt>
      <trkpt lat="43.28225" lon="-1.66773">
        <ele>80</ele>
        <time>2021-06-21T07:27:53.521Z</time>
      </trkpt>
      <trkpt lat="43.28225" lon="-1.66766">
        <ele>80</ele>
        <time>2021-06-21T07:27:54.529Z</time>
      </trkpt>
      <trkpt lat="43.28225" lon="-1.66766">
        <ele>80</ele>
        <time>2021-06-21T07:27:55.539Z</time>
      </trkpt>
      <trkpt lat="43.28224" lon="-1.6676">
        <ele>81</ele>
        <time>2021-06-21T07:27:56.613Z</time>
      </trkpt>
      <trkpt lat="43.28224" lon="-1.6676">
        <ele>81</ele>
        <time>2021-06-21T07:27:57.518Z</time>
      </trkpt>
      <trkpt lat="43.28222" lon="-1.66754">
        <ele>81</ele>
        <time>2021-06-21T07:27:58.527Z</time>
      </trkpt>
      <trkpt lat="43.28222" lon="-1.66754">
        <ele>81</ele>
        <time>2021-06-21T07:27:59.549Z</time>
      </trkpt>
      <trkpt lat="43.28221" lon="-1.66748">
        <ele>81</ele>
        <time>2021-06-21T07:28:00.514Z</time>
      </trkpt>
      <trkpt lat="43.28221" lon="-1.66748">
        <ele>81</ele>
        <time>2021-06-21T07:28:01.542Z</time>
      </trkpt>
      <trkpt lat="43.2822" lon="-1.66742">
        <ele>81</ele>
        <time>2021-06-21T07:28:02.550Z</time>
      </trkpt>
      <trkpt lat="43.2822" lon="-1.66742">
        <ele>81</ele>
        <time>2021-06-21T07:28:03.529Z</time>
      </trkpt>
      <trkpt lat="43.28219" lon="-1.66735">
        <ele>81</ele>
        <time>2021-06-21T07:28:04.536Z</time>
      </trkpt>
      <trkpt lat="43.28219" lon="-1.66735">
        <ele>81</ele>
        <time>2021-06-21T07:28:05.510Z</time>
      </trkpt>
      <trkpt lat="43.28219" lon="-1.66729">
        <ele>81</ele>
        <time>2021-06-21T07:28:06.662Z</time>
      </trkpt>
      <trkpt lat="43.28219" lon="-1.66729">
        <ele>81</ele>
        <time>2021-06-21T07:28:07.518Z</time>
      </trkpt>
      <trkpt lat="43.28219" lon="-1.66722">
        <ele>81</ele>
        <time>2021-06-21T07:28:08.538Z</time>
      </trkpt>
      <trkpt lat="43.28219" lon="-1.66722">
        <ele>81</ele>
        <time>2021-06-21T07:28:09.524Z</time>
      </trkpt>
      <trkpt lat="43.28219" lon="-1.66715">
        <ele>81</ele>
        <time>2021-06-21T07:28:10.531Z</time>
      </trkpt>
      <trkpt lat="43.28219" lon="-1.66711">
        <ele>81</ele>
        <time>2021-06-21T07:28:11.549Z</time>
      </trkpt>
      <trkpt lat="43.28219" lon="-1.66708">
        <ele>81</ele>
        <time>2021-06-21T07:28:12.537Z</time>
      </trkpt>
      <trkpt lat="43.28219" lon="-1.66708">
        <ele>81</ele>
        <time>2021-06-21T07:28:13.546Z</time>
      </trkpt>
      <trkpt lat="43.28218" lon="-1.66701">
        <ele>81</ele>
        <time>2021-06-21T07:28:14.512Z</time>
      </trkpt>
      <trkpt lat="43.28218" lon="-1.66701">
        <ele>81</ele>
        <time>2021-06-21T07:28:15.510Z</time>
      </trkpt>
      <trkpt lat="43.28218" lon="-1.66694">
        <ele>81</ele>
        <time>2021-06-21T07:28:16.516Z</time>
      </trkpt>
      <trkpt lat="43.28218" lon="-1.66691">
        <ele>82</ele>
        <time>2021-06-21T07:28:17.529Z</time>
      </trkpt>
      <trkpt lat="43.28218" lon="-1.66691">
        <ele>82</ele>
        <time>2021-06-21T07:28:18.546Z</time>
      </trkpt>
      <trkpt lat="43.28218" lon="-1.66684">
        <ele>81</ele>
        <time>2021-06-21T07:28:19.512Z</time>
      </trkpt>
      <trkpt lat="43.28218" lon="-1.66684">
        <ele>81</ele>
        <time>2021-06-21T07:28:20.533Z</time>
      </trkpt>
      <trkpt lat="43.28219" lon="-1.66677">
        <ele>81</ele>
        <time>2021-06-21T07:28:21.510Z</time>
      </trkpt>
      <trkpt lat="43.28219" lon="-1.66677">
        <ele>81</ele>
        <time>2021-06-21T07:28:22.527Z</time>
      </trkpt>
      <trkpt lat="43.28218" lon="-1.6667">
        <ele>81</ele>
        <time>2021-06-21T07:28:23.543Z</time>
      </trkpt>
      <trkpt lat="43.28218" lon="-1.6667">
        <ele>81</ele>
        <time>2021-06-21T07:28:24.524Z</time>
      </trkpt>
      <trkpt lat="43.28218" lon="-1.66663">
        <ele>82</ele>
        <time>2021-06-21T07:28:25.531Z</time>
      </trkpt>
      <trkpt lat="43.28217" lon="-1.6666">
        <ele>82</ele>
        <time>2021-06-21T07:28:26.509Z</time>
      </trkpt>
      <trkpt lat="43.28217" lon="-1.6666">
        <ele>82</ele>
        <time>2021-06-21T07:28:27.519Z</time>
      </trkpt>
      <trkpt lat="43.28217" lon="-1.66654">
        <ele>81</ele>
        <time>2021-06-21T07:28:28.524Z</time>
      </trkpt>
      <trkpt lat="43.28216" lon="-1.6665">
        <ele>81</ele>
        <time>2021-06-21T07:28:29.541Z</time>
      </trkpt>
      <trkpt lat="43.28216" lon="-1.66647">
        <ele>81</ele>
        <time>2021-06-21T07:28:30.518Z</time>
      </trkpt>
      <trkpt lat="43.28216" lon="-1.66647">
        <ele>81</ele>
        <time>2021-06-21T07:28:31.533Z</time>
      </trkpt>
      <trkpt lat="43.28215" lon="-1.66639">
        <ele>81</ele>
        <time>2021-06-21T07:28:32.595Z</time>
      </trkpt>
      <trkpt lat="43.28215" lon="-1.66635">
        <ele>81</ele>
        <time>2021-06-21T07:28:33.546Z</time>
      </trkpt>
      <trkpt lat="43.28215" lon="-1.66635">
        <ele>81</ele>
        <time>2021-06-21T07:28:34.522Z</time>
      </trkpt>
      <trkpt lat="43.28216" lon="-1.66628">
        <ele>81</ele>
        <time>2021-06-21T07:28:35.529Z</time>
      </trkpt>
      <trkpt lat="43.28216" lon="-1.66625">
        <ele>81</ele>
        <time>2021-06-21T07:28:36.619Z</time>
      </trkpt>
      <trkpt lat="43.28216" lon="-1.66621">
        <ele>81</ele>
        <time>2021-06-21T07:28:37.534Z</time>
      </trkpt>
      <trkpt lat="43.28216" lon="-1.66621">
        <ele>81</ele>
        <time>2021-06-21T07:28:38.512Z</time>
      </trkpt>
      <trkpt lat="43.28216" lon="-1.66614">
        <ele>81</ele>
        <time>2021-06-21T07:28:39.526Z</time>
      </trkpt>
      <trkpt lat="43.28216" lon="-1.66614">
        <ele>81</ele>
        <time>2021-06-21T07:28:40.541Z</time>
      </trkpt>
      <trkpt lat="43.28215" lon="-1.66607">
        <ele>81</ele>
        <time>2021-06-21T07:28:41.617Z</time>
      </trkpt>
      <trkpt lat="43.28214" lon="-1.66604">
        <ele>81</ele>
        <time>2021-06-21T07:28:42.542Z</time>
      </trkpt>
      <trkpt lat="43.28214" lon="-1.66604">
        <ele>81</ele>
        <time>2021-06-21T07:28:43.522Z</time>
      </trkpt>
      <trkpt lat="43.28214" lon="-1.66597">
        <ele>81</ele>
        <time>2021-06-21T07:28:44.528Z</time>
      </trkpt>
      <trkpt lat="43.28214" lon="-1.66597">
        <ele>81</ele>
        <time>2021-06-21T07:28:45.541Z</time>
      </trkpt>
      <trkpt lat="43.28213" lon="-1.66591">
        <ele>82</ele>
        <time>2021-06-21T07:28:46.553Z</time>
      </trkpt>
      <trkpt lat="43.28213" lon="-1.66591">
        <ele>82</ele>
        <time>2021-06-21T07:28:47.530Z</time>
      </trkpt>
      <trkpt lat="43.28214" lon="-1.66585">
        <ele>82</ele>
        <time>2021-06-21T07:28:48.539Z</time>
      </trkpt>
      <trkpt lat="43.28214" lon="-1.66585">
        <ele>82</ele>
        <time>2021-06-21T07:28:49.518Z</time>
      </trkpt>
      <trkpt lat="43.28214" lon="-1.66579">
        <ele>82</ele>
        <time>2021-06-21T07:28:50.527Z</time>
      </trkpt>
      <trkpt lat="43.28214" lon="-1.66579">
        <ele>82</ele>
        <time>2021-06-21T07:28:51.511Z</time>
      </trkpt>
      <trkpt lat="43.28216" lon="-1.66573">
        <ele>82</ele>
        <time>2021-06-21T07:28:52.516Z</time>
      </trkpt>
      <trkpt lat="43.28216" lon="-1.66573">
        <ele>82</ele>
        <time>2021-06-21T07:28:53.535Z</time>
      </trkpt>
      <trkpt lat="43.28215" lon="-1.66567">
        <ele>82</ele>
        <time>2021-06-21T07:28:54.578Z</time>
      </trkpt>
      <trkpt lat="43.28215" lon="-1.66567">
        <ele>82</ele>
        <time>2021-06-21T07:28:55.542Z</time>
      </trkpt>
      <trkpt lat="43.28214" lon="-1.6656">
        <ele>83</ele>
        <time>2021-06-21T07:28:56.548Z</time>
      </trkpt>
      <trkpt lat="43.28213" lon="-1.66556">
        <ele>83</ele>
        <time>2021-06-21T07:28:57.528Z</time>
      </trkpt>
      <trkpt lat="43.28213" lon="-1.66556">
        <ele>83</ele>
        <time>2021-06-21T07:28:58.548Z</time>
      </trkpt>
      <trkpt lat="43.28213" lon="-1.66548">
        <ele>84</ele>
        <time>2021-06-21T07:28:59.514Z</time>
      </trkpt>
      <trkpt lat="43.28214" lon="-1.66545">
        <ele>84</ele>
        <time>2021-06-21T07:29:00.610Z</time>
      </trkpt>
      <trkpt lat="43.28214" lon="-1.66545">
        <ele>84</ele>
        <time>2021-06-21T07:29:01.509Z</time>
      </trkpt>
      <trkpt lat="43.28213" lon="-1.66539">
        <ele>84</ele>
        <time>2021-06-21T07:29:02.516Z</time>
      </trkpt>
      <trkpt lat="43.28213" lon="-1.66539">
        <ele>84</ele>
        <time>2021-06-21T07:29:03.532Z</time>
      </trkpt>
      <trkpt lat="43.28213" lon="-1.66539">
        <ele>84</ele>
        <time>2021-06-21T07:29:04.512Z</time>
      </trkpt>
      <trkpt lat="43.28212" lon="-1.66532">
        <ele>84</ele>
        <time>2021-06-21T07:29:05.515Z</time>
      </trkpt>
      <trkpt lat="43.28213" lon="-1.66527">
        <ele>85</ele>
        <time>2021-06-21T07:29:06.530Z</time>
      </trkpt>
      <trkpt lat="43.28213" lon="-1.66527">
        <ele>85</ele>
        <time>2021-06-21T07:29:07.527Z</time>
      </trkpt>
      <trkpt lat="43.28212" lon="-1.66521">
        <ele>85</ele>
        <time>2021-06-21T07:29:08.534Z</time>
      </trkpt>
      <trkpt lat="43.28212" lon="-1.66521">
        <ele>85</ele>
        <time>2021-06-21T07:29:09.546Z</time>
      </trkpt>
      <trkpt lat="43.2821" lon="-1.66514">
        <ele>86</ele>
        <time>2021-06-21T07:29:10.511Z</time>
      </trkpt>
      <trkpt lat="43.2821" lon="-1.66514">
        <ele>86</ele>
        <time>2021-06-21T07:29:11.544Z</time>
      </trkpt>
      <trkpt lat="43.28209" lon="-1.66506">
        <ele>87</ele>
        <time>2021-06-21T07:29:12.509Z</time>
      </trkpt>
      <trkpt lat="43.28209" lon="-1.66506">
        <ele>87</ele>
        <time>2021-06-21T07:29:13.527Z</time>
      </trkpt>
      <trkpt lat="43.28208" lon="-1.66498">
        <ele>87</ele>
        <time>2021-06-21T07:29:14.586Z</time>
      </trkpt>
      <trkpt lat="43.28208" lon="-1.66498">
        <ele>87</ele>
        <time>2021-06-21T07:29:15.512Z</time>
      </trkpt>
      <trkpt lat="43.28207" lon="-1.66491">
        <ele>87</ele>
        <time>2021-06-21T07:29:16.523Z</time>
      </trkpt>
      <trkpt lat="43.28207" lon="-1.66491">
        <ele>87</ele>
        <time>2021-06-21T07:29:17.536Z</time>
      </trkpt>
      <trkpt lat="43.28207" lon="-1.66484">
        <ele>87</ele>
        <time>2021-06-21T07:29:18.546Z</time>
      </trkpt>
      <trkpt lat="43.28207" lon="-1.66484">
        <ele>87</ele>
        <time>2021-06-21T07:29:19.525Z</time>
      </trkpt>
      <trkpt lat="43.28208" lon="-1.66477">
        <ele>87</ele>
        <time>2021-06-21T07:29:20.541Z</time>
      </trkpt>
      <trkpt lat="43.28208" lon="-1.66477">
        <ele>87</ele>
        <time>2021-06-21T07:29:21.523Z</time>
      </trkpt>
      <trkpt lat="43.28208" lon="-1.6647">
        <ele>86</ele>
        <time>2021-06-21T07:29:22.541Z</time>
      </trkpt>
      <trkpt lat="43.28208" lon="-1.6647">
        <ele>86</ele>
        <time>2021-06-21T07:29:23.545Z</time>
      </trkpt>
      <trkpt lat="43.2821" lon="-1.66464">
        <ele>86</ele>
        <time>2021-06-21T07:29:24.510Z</time>
      </trkpt>
      <trkpt lat="43.2821" lon="-1.66464">
        <ele>86</ele>
        <time>2021-06-21T07:29:25.543Z</time>
      </trkpt>
      <trkpt lat="43.28212" lon="-1.66457">
        <ele>86</ele>
        <time>2021-06-21T07:29:26.594Z</time>
      </trkpt>
      <trkpt lat="43.28212" lon="-1.66457">
        <ele>86</ele>
        <time>2021-06-21T07:29:27.538Z</time>
      </trkpt>
      <trkpt lat="43.28214" lon="-1.66451">
        <ele>87</ele>
        <time>2021-06-21T07:29:28.549Z</time>
      </trkpt>
      <trkpt lat="43.28214" lon="-1.66447">
        <ele>87</ele>
        <time>2021-06-21T07:29:29.527Z</time>
      </trkpt>
      <trkpt lat="43.28215" lon="-1.66444">
        <ele>87</ele>
        <time>2021-06-21T07:29:30.516Z</time>
      </trkpt>
      <trkpt lat="43.28215" lon="-1.66444">
        <ele>87</ele>
        <time>2021-06-21T07:29:31.530Z</time>
      </trkpt>
      <trkpt lat="43.28215" lon="-1.66437">
        <ele>88</ele>
        <time>2021-06-21T07:29:32.538Z</time>
      </trkpt>
      <trkpt lat="43.28215" lon="-1.66437">
        <ele>88</ele>
        <time>2021-06-21T07:29:33.512Z</time>
      </trkpt>
      <trkpt lat="43.28216" lon="-1.66431">
        <ele>88</ele>
        <time>2021-06-21T07:29:34.519Z</time>
      </trkpt>
      <trkpt lat="43.28216" lon="-1.66431">
        <ele>88</ele>
        <time>2021-06-21T07:29:35.532Z</time>
      </trkpt>
      <trkpt lat="43.28218" lon="-1.66425">
        <ele>89</ele>
        <time>2021-06-21T07:29:36.598Z</time>
      </trkpt>
      <trkpt lat="43.28218" lon="-1.66425">
        <ele>89</ele>
        <time>2021-06-21T07:29:37.515Z</time>
      </trkpt>
      <trkpt lat="43.28218" lon="-1.66425">
        <ele>89</ele>
        <time>2021-06-21T07:29:38.597Z</time>
      </trkpt>
      <trkpt lat="43.2822" lon="-1.66419">
        <ele>89</ele>
        <time>2021-06-21T07:29:39.540Z</time>
      </trkpt>
      <trkpt lat="43.28221" lon="-1.66413">
        <ele>90</ele>
        <time>2021-06-21T07:29:40.546Z</time>
      </trkpt>
      <trkpt lat="43.28222" lon="-1.6641">
        <ele>90</ele>
        <time>2021-06-21T07:29:41.613Z</time>
      </trkpt>
      <trkpt lat="43.28223" lon="-1.66406">
        <ele>90</ele>
        <time>2021-06-21T07:29:42.536Z</time>
      </trkpt>
      <trkpt lat="43.28223" lon="-1.66406">
        <ele>90</ele>
        <time>2021-06-21T07:29:43.526Z</time>
      </trkpt>
      <trkpt lat="43.28224" lon="-1.664">
        <ele>91</ele>
        <time>2021-06-21T07:29:44.533Z</time>
      </trkpt>
      <trkpt lat="43.28224" lon="-1.664">
        <ele>91</ele>
        <time>2021-06-21T07:29:45.509Z</time>
      </trkpt>
      <trkpt lat="43.28226" lon="-1.66393">
        <ele>91</ele>
        <time>2021-06-21T07:29:46.517Z</time>
      </trkpt>
      <trkpt lat="43.28226" lon="-1.66393">
        <ele>91</ele>
        <time>2021-06-21T07:29:47.539Z</time>
      </trkpt>
      <trkpt lat="43.28228" lon="-1.66387">
        <ele>91</ele>
        <time>2021-06-21T07:29:48.549Z</time>
      </trkpt>
      <trkpt lat="43.28228" lon="-1.66387">
        <ele>91</ele>
        <time>2021-06-21T07:29:49.529Z</time>
      </trkpt>
      <trkpt lat="43.2823" lon="-1.66381">
        <ele>92</ele>
        <time>2021-06-21T07:29:50.541Z</time>
      </trkpt>
      <trkpt lat="43.2823" lon="-1.66381">
        <ele>92</ele>
        <time>2021-06-21T07:29:51.540Z</time>
      </trkpt>
      <trkpt lat="43.28232" lon="-1.66375">
        <ele>92</ele>
        <time>2021-06-21T07:29:52.620Z</time>
      </trkpt>
      <trkpt lat="43.28232" lon="-1.66375">
        <ele>92</ele>
        <time>2021-06-21T07:29:53.548Z</time>
      </trkpt>
      <trkpt lat="43.28236" lon="-1.66367">
        <ele>92</ele>
        <time>2021-06-21T07:29:54.514Z</time>
      </trkpt>
      <trkpt lat="43.28236" lon="-1.66367">
        <ele>92</ele>
        <time>2021-06-21T07:29:55.535Z</time>
      </trkpt>
      <trkpt lat="43.28237" lon="-1.66362">
        <ele>93</ele>
        <time>2021-06-21T07:29:56.545Z</time>
      </trkpt>
      <trkpt lat="43.28237" lon="-1.66362">
        <ele>93</ele>
        <time>2021-06-21T07:29:57.531Z</time>
      </trkpt>
      <trkpt lat="43.28239" lon="-1.66356">
        <ele>93</ele>
        <time>2021-06-21T07:29:58.597Z</time>
      </trkpt>
      <trkpt lat="43.28239" lon="-1.66356">
        <ele>93</ele>
        <time>2021-06-21T07:29:59.538Z</time>
      </trkpt>
      <trkpt lat="43.2824" lon="-1.6635">
        <ele>94</ele>
        <time>2021-06-21T07:30:00.547Z</time>
      </trkpt>
      <trkpt lat="43.28241" lon="-1.66347">
        <ele>94</ele>
        <time>2021-06-21T07:30:01.626Z</time>
      </trkpt>
      <trkpt lat="43.28241" lon="-1.66347">
        <ele>94</ele>
        <time>2021-06-21T07:30:02.522Z</time>
      </trkpt>
      <trkpt lat="43.28242" lon="-1.6634">
        <ele>95</ele>
        <time>2021-06-21T07:30:03.528Z</time>
      </trkpt>
      <trkpt lat="43.28242" lon="-1.6634">
        <ele>95</ele>
        <time>2021-06-21T07:30:04.541Z</time>
      </trkpt>
      <trkpt lat="43.28242" lon="-1.66333">
        <ele>95</ele>
        <time>2021-06-21T07:30:05.547Z</time>
      </trkpt>
      <trkpt lat="43.28243" lon="-1.6633">
        <ele>95</ele>
        <time>2021-06-21T07:30:06.533Z</time>
      </trkpt>
      <trkpt lat="43.28243" lon="-1.6633">
        <ele>95</ele>
        <time>2021-06-21T07:30:07.524Z</time>
      </trkpt>
      <trkpt lat="43.28243" lon="-1.66323">
        <ele>96</ele>
        <time>2021-06-21T07:30:08.534Z</time>
      </trkpt>
      <trkpt lat="43.28243" lon="-1.66323">
        <ele>96</ele>
        <time>2021-06-21T07:30:09.534Z</time>
      </trkpt>
      <trkpt lat="43.28243" lon="-1.66315">
        <ele>97</ele>
        <time>2021-06-21T07:30:10.513Z</time>
      </trkpt>
      <trkpt lat="43.28243" lon="-1.66315">
        <ele>97</ele>
        <time>2021-06-21T07:30:11.541Z</time>
      </trkpt>
      <trkpt lat="43.28243" lon="-1.66308">
        <ele>98</ele>
        <time>2021-06-21T07:30:12.515Z</time>
      </trkpt>
      <trkpt lat="43.28243" lon="-1.66308">
        <ele>98</ele>
        <time>2021-06-21T07:30:13.533Z</time>
      </trkpt>
      <trkpt lat="43.28243" lon="-1.663">
        <ele>98</ele>
        <time>2021-06-21T07:30:14.546Z</time>
      </trkpt>
      <trkpt lat="43.28243" lon="-1.663">
        <ele>98</ele>
        <time>2021-06-21T07:30:15.540Z</time>
      </trkpt>
      <trkpt lat="43.28243" lon="-1.66293">
        <ele>99</ele>
        <time>2021-06-21T07:30:16.547Z</time>
      </trkpt>
      <trkpt lat="43.28243" lon="-1.66293">
        <ele>99</ele>
        <time>2021-06-21T07:30:17.524Z</time>
      </trkpt>
      <trkpt lat="43.28243" lon="-1.66285">
        <ele>99</ele>
        <time>2021-06-21T07:30:18.532Z</time>
      </trkpt>
      <trkpt lat="43.28243" lon="-1.66285">
        <ele>99</ele>
        <time>2021-06-21T07:30:19.510Z</time>
      </trkpt>
      <trkpt lat="43.28242" lon="-1.66277">
        <ele>99</ele>
        <time>2021-06-21T07:30:20.515Z</time>
      </trkpt>
      <trkpt lat="43.28242" lon="-1.66273">
        <ele>99</ele>
        <time>2021-06-21T07:30:21.528Z</time>
      </trkpt>
      <trkpt lat="43.28242" lon="-1.66273">
        <ele>99</ele>
        <time>2021-06-21T07:30:22.540Z</time>
      </trkpt>
      <trkpt lat="43.28242" lon="-1.66266">
        <ele>99</ele>
        <time>2021-06-21T07:30:23.535Z</time>
      </trkpt>
      <trkpt lat="43.28243" lon="-1.66262">
        <ele>99</ele>
        <time>2021-06-21T07:30:24.518Z</time>
      </trkpt>
      <trkpt lat="43.28243" lon="-1.66262">
        <ele>99</ele>
        <time>2021-06-21T07:30:25.534Z</time>
      </trkpt>
      <trkpt lat="43.28244" lon="-1.66256">
        <ele>98</ele>
        <time>2021-06-21T07:30:26.546Z</time>
      </trkpt>
      <trkpt lat="43.28244" lon="-1.66256">
        <ele>98</ele>
        <time>2021-06-21T07:30:27.524Z</time>
      </trkpt>
      <trkpt lat="43.28244" lon="-1.66248">
        <ele>98</ele>
        <time>2021-06-21T07:30:28.530Z</time>
      </trkpt>
      <trkpt lat="43.28245" lon="-1.66244">
        <ele>98</ele>
        <time>2021-06-21T07:30:29.531Z</time>
      </trkpt>
      <trkpt lat="43.28245" lon="-1.6624">
        <ele>97</ele>
        <time>2021-06-21T07:30:30.511Z</time>
      </trkpt>
      <trkpt lat="43.28245" lon="-1.6624">
        <ele>97</ele>
        <time>2021-06-21T07:30:31.531Z</time>
      </trkpt>
      <trkpt lat="43.28245" lon="-1.66231">
        <ele>98</ele>
        <time>2021-06-21T07:30:32.538Z</time>
      </trkpt>
      <trkpt lat="43.28245" lon="-1.66227">
        <ele>98</ele>
        <time>2021-06-21T07:30:33.511Z</time>
      </trkpt>
      <trkpt lat="43.28245" lon="-1.66227">
        <ele>98</ele>
        <time>2021-06-21T07:30:34.545Z</time>
      </trkpt>
      <trkpt lat="43.28245" lon="-1.66227">
        <ele>98</ele>
        <time>2021-06-21T07:30:35.510Z</time>
      </trkpt>
      <trkpt lat="43.28245" lon="-1.66213">
        <ele>98</ele>
        <time>2021-06-21T07:30:36.524Z</time>
      </trkpt>
      <trkpt lat="43.28245" lon="-1.66213">
        <ele>98</ele>
        <time>2021-06-21T07:30:37.543Z</time>
      </trkpt>
      <trkpt lat="43.28245" lon="-1.66204">
        <ele>98</ele>
        <time>2021-06-21T07:30:38.551Z</time>
      </trkpt>
      <trkpt lat="43.28246" lon="-1.66199">
        <ele>98</ele>
        <time>2021-06-21T07:30:39.543Z</time>
      </trkpt>
      <trkpt lat="43.28246" lon="-1.66199">
        <ele>98</ele>
        <time>2021-06-21T07:30:40.516Z</time>
      </trkpt>
      <trkpt lat="43.28248" lon="-1.66188">
        <ele>98</ele>
        <time>2021-06-21T07:30:41.525Z</time>
      </trkpt>
      <trkpt lat="43.28249" lon="-1.66183">
        <ele>98</ele>
        <time>2021-06-21T07:30:42.511Z</time>
      </trkpt>
      <trkpt lat="43.28249" lon="-1.66183">
        <ele>98</ele>
        <time>2021-06-21T07:30:43.528Z</time>
      </trkpt>
      <trkpt lat="43.28251" lon="-1.66172">
        <ele>98</ele>
        <time>2021-06-21T07:30:44.534Z</time>
      </trkpt>
      <trkpt lat="43.28251" lon="-1.66172">
        <ele>98</ele>
        <time>2021-06-21T07:30:45.547Z</time>
      </trkpt>
      <trkpt lat="43.28255" lon="-1.66161">
        <ele>97</ele>
        <time>2021-06-21T07:30:46.514Z</time>
      </trkpt>
      <trkpt lat="43.28255" lon="-1.66161">
        <ele>97</ele>
        <time>2021-06-21T07:30:47.539Z</time>
      </trkpt>
      <trkpt lat="43.28259" lon="-1.6615">
        <ele>98</ele>
        <time>2021-06-21T07:30:48.548Z</time>
      </trkpt>
      <trkpt lat="43.28259" lon="-1.6615">
        <ele>98</ele>
        <time>2021-06-21T07:30:49.513Z</time>
      </trkpt>
      <trkpt lat="43.28263" lon="-1.66137">
        <ele>98</ele>
        <time>2021-06-21T07:30:50.520Z</time>
      </trkpt>
      <trkpt lat="43.28263" lon="-1.66137">
        <ele>98</ele>
        <time>2021-06-21T07:30:51.536Z</time>
      </trkpt>
      <trkpt lat="43.28269" lon="-1.66123">
        <ele>98</ele>
        <time>2021-06-21T07:30:52.542Z</time>
      </trkpt>
      <trkpt lat="43.28269" lon="-1.66123">
        <ele>98</ele>
        <time>2021-06-21T07:30:53.526Z</time>
      </trkpt>
      <trkpt lat="43.28274" lon="-1.66108">
        <ele>98</ele>
        <time>2021-06-21T07:30:54.534Z</time>
      </trkpt>
      <trkpt lat="43.28274" lon="-1.66108">
        <ele>98</ele>
        <time>2021-06-21T07:30:55.517Z</time>
      </trkpt>
      <trkpt lat="43.28281" lon="-1.66092">
        <ele>97</ele>
        <time>2021-06-21T07:30:56.576Z</time>
      </trkpt>
      <trkpt lat="43.28281" lon="-1.66092">
        <ele>97</ele>
        <time>2021-06-21T07:30:57.536Z</time>
      </trkpt>
      <trkpt lat="43.28285" lon="-1.66077">
        <ele>97</ele>
        <time>2021-06-21T07:30:58.543Z</time>
      </trkpt>
      <trkpt lat="43.28285" lon="-1.66077">
        <ele>97</ele>
        <time>2021-06-21T07:30:59.535Z</time>
      </trkpt>
      <trkpt lat="43.28285" lon="-1.66077">
        <ele>97</ele>
        <time>2021-06-21T07:31:00.612Z</time>
      </trkpt>
      <trkpt lat="43.28285" lon="-1.66061">
        <ele>96</ele>
        <time>2021-06-21T07:31:01.542Z</time>
      </trkpt>
      <trkpt lat="43.28282" lon="-1.66049">
        <ele>96</ele>
        <time>2021-06-21T07:31:02.548Z</time>
      </trkpt>
      <trkpt lat="43.28282" lon="-1.66049">
        <ele>96</ele>
        <time>2021-06-21T07:31:03.528Z</time>
      </trkpt>
      <trkpt lat="43.28277" lon="-1.6604">
        <ele>96</ele>
        <time>2021-06-21T07:31:04.536Z</time>
      </trkpt>
      <trkpt lat="43.28273" lon="-1.66036">
        <ele>96</ele>
        <time>2021-06-21T07:31:05.530Z</time>
      </trkpt>
      <trkpt lat="43.28269" lon="-1.66032">
        <ele>96</ele>
        <time>2021-06-21T07:31:06.528Z</time>
      </trkpt>
      <trkpt lat="43.28269" lon="-1.66032">
        <ele>96</ele>
        <time>2021-06-21T07:31:07.511Z</time>
      </trkpt>
      <trkpt lat="43.28261" lon="-1.66029">
        <ele>96</ele>
        <time>2021-06-21T07:31:08.517Z</time>
      </trkpt>
      <trkpt lat="43.28261" lon="-1.66029">
        <ele>96</ele>
        <time>2021-06-21T07:31:09.527Z</time>
      </trkpt>
      <trkpt lat="43.28252" lon="-1.66024">
        <ele>96</ele>
        <time>2021-06-21T07:31:10.541Z</time>
      </trkpt>
      <trkpt lat="43.28252" lon="-1.66024">
        <ele>96</ele>
        <time>2021-06-21T07:31:11.519Z</time>
      </trkpt>
      <trkpt lat="43.28242" lon="-1.66018">
        <ele>96</ele>
        <time>2021-06-21T07:31:12.527Z</time>
      </trkpt>
      <trkpt lat="43.28242" lon="-1.66018">
        <ele>96</ele>
        <time>2021-06-21T07:31:13.527Z</time>
      </trkpt>
      <trkpt lat="43.28236" lon="-1.66012">
        <ele>96</ele>
        <time>2021-06-21T07:31:14.600Z</time>
      </trkpt>
      <trkpt lat="43.28236" lon="-1.66012">
        <ele>96</ele>
        <time>2021-06-21T07:31:15.509Z</time>
      </trkpt>
      <trkpt lat="43.28231" lon="-1.66006">
        <ele>97</ele>
        <time>2021-06-21T07:31:16.514Z</time>
      </trkpt>
      <trkpt lat="43.28231" lon="-1.66006">
        <ele>97</ele>
        <time>2021-06-21T07:31:17.513Z</time>
      </trkpt>
      <trkpt lat="43.28226" lon="-1.66">
        <ele>97</ele>
        <time>2021-06-21T07:31:18.528Z</time>
      </trkpt>
      <trkpt lat="43.28226" lon="-1.66">
        <ele>97</ele>
        <time>2021-06-21T07:31:19.548Z</time>
      </trkpt>
      <trkpt lat="43.28222" lon="-1.65993">
        <ele>97</ele>
        <time>2021-06-21T07:31:20.515Z</time>
      </trkpt>
      <trkpt lat="43.28222" lon="-1.65993">
        <ele>97</ele>
        <time>2021-06-21T07:31:21.538Z</time>
      </trkpt>
      <trkpt lat="43.28219" lon="-1.65986">
        <ele>98</ele>
        <time>2021-06-21T07:31:22.514Z</time>
      </trkpt>
      <trkpt lat="43.28219" lon="-1.65986">
        <ele>98</ele>
        <time>2021-06-21T07:31:23.519Z</time>
      </trkpt>
      <trkpt lat="43.28217" lon="-1.6598">
        <ele>98</ele>
        <time>2021-06-21T07:31:24.534Z</time>
      </trkpt>
      <trkpt lat="43.28217" lon="-1.6598">
        <ele>98</ele>
        <time>2021-06-21T07:31:25.528Z</time>
      </trkpt>
      <trkpt lat="43.28217" lon="-1.6598">
        <ele>98</ele>
        <time>2021-06-21T07:31:26.541Z</time>
      </trkpt>
      <trkpt lat="43.28217" lon="-1.65974">
        <ele>99</ele>
        <time>2021-06-21T07:31:27.532Z</time>
      </trkpt>
      <trkpt lat="43.28217" lon="-1.65967">
        <ele>99</ele>
        <time>2021-06-21T07:31:28.541Z</time>
      </trkpt>
      <trkpt lat="43.28217" lon="-1.65967">
        <ele>99</ele>
        <time>2021-06-21T07:31:29.517Z</time>
      </trkpt>
      <trkpt lat="43.28216" lon="-1.65962">
        <ele>100</ele>
        <time>2021-06-21T07:31:30.525Z</time>
      </trkpt>
      <trkpt lat="43.28216" lon="-1.65962">
        <ele>100</ele>
        <time>2021-06-21T07:31:31.547Z</time>
      </trkpt>
      <trkpt lat="43.28217" lon="-1.65956">
        <ele>100</ele>
        <time>2021-06-21T07:31:32.512Z</time>
      </trkpt>
      <trkpt lat="43.28217" lon="-1.65956">
        <ele>100</ele>
        <time>2021-06-21T07:31:33.522Z</time>
      </trkpt>
      <trkpt lat="43.28218" lon="-1.65949">
        <ele>100</ele>
        <time>2021-06-21T07:31:34.531Z</time>
      </trkpt>
      <trkpt lat="43.28218" lon="-1.65949">
        <ele>100</ele>
        <time>2021-06-21T07:31:35.514Z</time>
      </trkpt>
      <trkpt lat="43.2822" lon="-1.65941">
        <ele>100</ele>
        <time>2021-06-21T07:31:36.528Z</time>
      </trkpt>
      <trkpt lat="43.2822" lon="-1.65941">
        <ele>100</ele>
        <time>2021-06-21T07:31:37.544Z</time>
      </trkpt>
      <trkpt lat="43.28222" lon="-1.65933">
        <ele>101</ele>
        <time>2021-06-21T07:31:38.601Z</time>
      </trkpt>
      <trkpt lat="43.28222" lon="-1.65933">
        <ele>101</ele>
        <time>2021-06-21T07:31:39.544Z</time>
      </trkpt>
      <trkpt lat="43.28223" lon="-1.65926">
        <ele>101</ele>
        <time>2021-06-21T07:31:40.512Z</time>
      </trkpt>
      <trkpt lat="43.28223" lon="-1.65926">
        <ele>101</ele>
        <time>2021-06-21T07:31:41.531Z</time>
      </trkpt>
      <trkpt lat="43.28225" lon="-1.65914">
        <ele>101</ele>
        <time>2021-06-21T07:31:42.543Z</time>
      </trkpt>
      <trkpt lat="43.28225" lon="-1.65914">
        <ele>101</ele>
        <time>2021-06-21T07:31:43.518Z</time>
      </trkpt>
      <trkpt lat="43.28226" lon="-1.65906">
        <ele>102</ele>
        <time>2021-06-21T07:31:44.530Z</time>
      </trkpt>
      <trkpt lat="43.28226" lon="-1.65906">
        <ele>102</ele>
        <time>2021-06-21T07:31:45.517Z</time>
      </trkpt>
      <trkpt lat="43.28226" lon="-1.65906">
        <ele>102</ele>
        <time>2021-06-21T07:31:46.620Z</time>
      </trkpt>
      <trkpt lat="43.28228" lon="-1.65895">
        <ele>102</ele>
        <time>2021-06-21T07:31:47.535Z</time>
      </trkpt>
      <trkpt lat="43.28229" lon="-1.65892">
        <ele>102</ele>
        <time>2021-06-21T07:31:48.519Z</time>
      </trkpt>
      <trkpt lat="43.28229" lon="-1.65892">
        <ele>102</ele>
        <time>2021-06-21T07:31:49.539Z</time>
      </trkpt>
      <trkpt lat="43.28231" lon="-1.65886">
        <ele>102</ele>
        <time>2021-06-21T07:31:50.550Z</time>
      </trkpt>
      <trkpt lat="43.28231" lon="-1.65886">
        <ele>102</ele>
        <time>2021-06-21T07:31:51.534Z</time>
      </trkpt>
      <trkpt lat="43.28234" lon="-1.65882">
        <ele>103</ele>
        <time>2021-06-21T07:31:52.545Z</time>
      </trkpt>
      <trkpt lat="43.28234" lon="-1.65882">
        <ele>103</ele>
        <time>2021-06-21T07:31:53.521Z</time>
      </trkpt>
      <trkpt lat="43.28234" lon="-1.65877">
        <ele>103</ele>
        <time>2021-06-21T07:31:54.534Z</time>
      </trkpt>
      <trkpt lat="43.28234" lon="-1.65877">
        <ele>103</ele>
        <time>2021-06-21T07:31:55.528Z</time>
      </trkpt>
      <trkpt lat="43.28234" lon="-1.6587">
        <ele>104</ele>
        <time>2021-06-21T07:31:56.612Z</time>
      </trkpt>
      <trkpt lat="43.28234" lon="-1.6587">
        <ele>104</ele>
        <time>2021-06-21T07:31:57.547Z</time>
      </trkpt>
      <trkpt lat="43.28236" lon="-1.65863">
        <ele>105</ele>
        <time>2021-06-21T07:31:58.516Z</time>
      </trkpt>
      <trkpt lat="43.28237" lon="-1.65859">
        <ele>105</ele>
        <time>2021-06-21T07:31:59.530Z</time>
      </trkpt>
      <trkpt lat="43.28238" lon="-1.65856">
        <ele>105</ele>
        <time>2021-06-21T07:32:00.511Z</time>
      </trkpt>
      <trkpt lat="43.28238" lon="-1.65856">
        <ele>105</ele>
        <time>2021-06-21T07:32:01.533Z</time>
      </trkpt>
      <trkpt lat="43.2824" lon="-1.65849">
        <ele>105</ele>
        <time>2021-06-21T07:32:02.540Z</time>
      </trkpt>
      <trkpt lat="43.2824" lon="-1.65849">
        <ele>105</ele>
        <time>2021-06-21T07:32:03.532Z</time>
      </trkpt>
      <trkpt lat="43.28241" lon="-1.65842">
        <ele>106</ele>
        <time>2021-06-21T07:32:04.538Z</time>
      </trkpt>
      <trkpt lat="43.28241" lon="-1.65842">
        <ele>106</ele>
        <time>2021-06-21T07:32:05.517Z</time>
      </trkpt>
      <trkpt lat="43.28241" lon="-1.65835">
        <ele>106</ele>
        <time>2021-06-21T07:32:06.537Z</time>
      </trkpt>
      <trkpt lat="43.28241" lon="-1.65835">
        <ele>106</ele>
        <time>2021-06-21T07:32:07.526Z</time>
      </trkpt>
      <trkpt lat="43.28242" lon="-1.65829">
        <ele>105</ele>
        <time>2021-06-21T07:32:08.616Z</time>
      </trkpt>
      <trkpt lat="43.28243" lon="-1.65826">
        <ele>106</ele>
        <time>2021-06-21T07:32:09.511Z</time>
      </trkpt>
      <trkpt lat="43.28243" lon="-1.65826">
        <ele>106</ele>
        <time>2021-06-21T07:32:10.530Z</time>
      </trkpt>
      <trkpt lat="43.28243" lon="-1.65818">
        <ele>106</ele>
        <time>2021-06-21T07:32:11.630Z</time>
      </trkpt>
      <trkpt lat="43.28243" lon="-1.65813">
        <ele>106</ele>
        <time>2021-06-21T07:32:12.513Z</time>
      </trkpt>
      <trkpt lat="43.28243" lon="-1.65813">
        <ele>106</ele>
        <time>2021-06-21T07:32:13.542Z</time>
      </trkpt>
      <trkpt lat="43.28242" lon="-1.65804">
        <ele>106</ele>
        <time>2021-06-21T07:32:14.513Z</time>
      </trkpt>
      <trkpt lat="43.28242" lon="-1.65804">
        <ele>106</ele>
        <time>2021-06-21T07:32:15.540Z</time>
      </trkpt>
      <trkpt lat="43.28243" lon="-1.65796">
        <ele>106</ele>
        <time>2021-06-21T07:32:16.549Z</time>
      </trkpt>
      <trkpt lat="43.28243" lon="-1.65796">
        <ele>106</ele>
        <time>2021-06-21T07:32:17.536Z</time>
      </trkpt>
      <trkpt lat="43.28245" lon="-1.65788">
        <ele>107</ele>
        <time>2021-06-21T07:32:18.543Z</time>
      </trkpt>
      <trkpt lat="43.28245" lon="-1.65788">
        <ele>107</ele>
        <time>2021-06-21T07:32:19.529Z</time>
      </trkpt>
      <trkpt lat="43.28245" lon="-1.65779">
        <ele>107</ele>
        <time>2021-06-21T07:32:20.548Z</time>
      </trkpt>
      <trkpt lat="43.28245" lon="-1.65779">
        <ele>107</ele>
        <time>2021-06-21T07:32:21.536Z</time>
      </trkpt>
      <trkpt lat="43.28248" lon="-1.65771">
        <ele>106</ele>
        <time>2021-06-21T07:32:22.536Z</time>
      </trkpt>
      <trkpt lat="43.28248" lon="-1.65771">
        <ele>106</ele>
        <time>2021-06-21T07:32:23.547Z</time>
      </trkpt>
      <trkpt lat="43.28249" lon="-1.65762">
        <ele>106</ele>
        <time>2021-06-21T07:32:24.518Z</time>
      </trkpt>
      <trkpt lat="43.28249" lon="-1.65762">
        <ele>106</ele>
        <time>2021-06-21T07:32:25.515Z</time>
      </trkpt>
      <trkpt lat="43.2825" lon="-1.65752">
        <ele>106</ele>
        <time>2021-06-21T07:32:26.525Z</time>
      </trkpt>
      <trkpt lat="43.2825" lon="-1.65752">
        <ele>106</ele>
        <time>2021-06-21T07:32:27.514Z</time>
      </trkpt>
      <trkpt lat="43.28249" lon="-1.65741">
        <ele>106</ele>
        <time>2021-06-21T07:32:28.531Z</time>
      </trkpt>
      <trkpt lat="43.28249" lon="-1.65741">
        <ele>106</ele>
        <time>2021-06-21T07:32:29.513Z</time>
      </trkpt>
      <trkpt lat="43.28247" lon="-1.65732">
        <ele>106</ele>
        <time>2021-06-21T07:32:30.532Z</time>
      </trkpt>
      <trkpt lat="43.28247" lon="-1.65732">
        <ele>106</ele>
        <time>2021-06-21T07:32:31.543Z</time>
      </trkpt>
      <trkpt lat="43.28247" lon="-1.65724">
        <ele>106</ele>
        <time>2021-06-21T07:32:32.516Z</time>
      </trkpt>
      <trkpt lat="43.28247" lon="-1.65724">
        <ele>106</ele>
        <time>2021-06-21T07:32:33.541Z</time>
      </trkpt>
      <trkpt lat="43.28245" lon="-1.65715">
        <ele>106</ele>
        <time>2021-06-21T07:32:34.554Z</time>
      </trkpt>
      <trkpt lat="43.28245" lon="-1.65715">
        <ele>106</ele>
        <time>2021-06-21T07:32:35.541Z</time>
      </trkpt>
      <trkpt lat="43.28242" lon="-1.65705">
        <ele>105</ele>
        <time>2021-06-21T07:32:36.510Z</time>
      </trkpt>
      <trkpt lat="43.28242" lon="-1.65705">
        <ele>105</ele>
        <time>2021-06-21T07:32:37.542Z</time>
      </trkpt>
      <trkpt lat="43.28239" lon="-1.65694">
        <ele>105</ele>
        <time>2021-06-21T07:32:38.511Z</time>
      </trkpt>
      <trkpt lat="43.28239" lon="-1.65694">
        <ele>105</ele>
        <time>2021-06-21T07:32:39.526Z</time>
      </trkpt>
      <trkpt lat="43.28236" lon="-1.65684">
        <ele>105</ele>
        <time>2021-06-21T07:32:40.535Z</time>
      </trkpt>
      <trkpt lat="43.28235" lon="-1.65679">
        <ele>105</ele>
        <time>2021-06-21T07:32:41.543Z</time>
      </trkpt>
      <trkpt lat="43.28233" lon="-1.65674">
        <ele>105</ele>
        <time>2021-06-21T07:32:42.530Z</time>
      </trkpt>
      <trkpt lat="43.28233" lon="-1.65674">
        <ele>105</ele>
        <time>2021-06-21T07:32:43.535Z</time>
      </trkpt>
      <trkpt lat="43.2823" lon="-1.65663">
        <ele>105</ele>
        <time>2021-06-21T07:32:44.609Z</time>
      </trkpt>
      <trkpt lat="43.2823" lon="-1.65663">
        <ele>105</ele>
        <time>2021-06-21T07:32:45.511Z</time>
      </trkpt>
      <trkpt lat="43.28226" lon="-1.65653">
        <ele>105</ele>
        <time>2021-06-21T07:32:46.520Z</time>
      </trkpt>
      <trkpt lat="43.28226" lon="-1.65653">
        <ele>105</ele>
        <time>2021-06-21T07:32:47.540Z</time>
      </trkpt>
      <trkpt lat="43.28223" lon="-1.65643">
        <ele>105</ele>
        <time>2021-06-21T07:32:48.549Z</time>
      </trkpt>
      <trkpt lat="43.28223" lon="-1.65643">
        <ele>105</ele>
        <time>2021-06-21T07:32:49.543Z</time>
      </trkpt>
      <trkpt lat="43.28219" lon="-1.65633">
        <ele>104</ele>
        <time>2021-06-21T07:32:50.511Z</time>
      </trkpt>
      <trkpt lat="43.28219" lon="-1.65633">
        <ele>104</ele>
        <time>2021-06-21T07:32:51.538Z</time>
      </trkpt>
      <trkpt lat="43.28214" lon="-1.65623">
        <ele>105</ele>
        <time>2021-06-21T07:32:52.546Z</time>
      </trkpt>
      <trkpt lat="43.28212" lon="-1.65619">
        <ele>105</ele>
        <time>2021-06-21T07:32:53.543Z</time>
      </trkpt>
      <trkpt lat="43.28212" lon="-1.65619">
        <ele>105</ele>
        <time>2021-06-21T07:32:54.542Z</time>
      </trkpt>
      <trkpt lat="43.28207" lon="-1.6561">
        <ele>105</ele>
        <time>2021-06-21T07:32:55.511Z</time>
      </trkpt>
      <trkpt lat="43.28207" lon="-1.6561">
        <ele>105</ele>
        <time>2021-06-21T07:32:56.546Z</time>
      </trkpt>
      <trkpt lat="43.28202" lon="-1.65602">
        <ele>105</ele>
        <time>2021-06-21T07:32:57.513Z</time>
      </trkpt>
      <trkpt lat="43.28202" lon="-1.65602">
        <ele>105</ele>
        <time>2021-06-21T07:32:58.537Z</time>
      </trkpt>
      <trkpt lat="43.28198" lon="-1.65592">
        <ele>106</ele>
        <time>2021-06-21T07:32:59.544Z</time>
      </trkpt>
      <trkpt lat="43.28196" lon="-1.65589">
        <ele>106</ele>
        <time>2021-06-21T07:33:00.535Z</time>
      </trkpt>
      <trkpt lat="43.28196" lon="-1.65589">
        <ele>106</ele>
        <time>2021-06-21T07:33:01.537Z</time>
      </trkpt>
      <trkpt lat="43.28192" lon="-1.65581">
        <ele>106</ele>
        <time>2021-06-21T07:33:02.545Z</time>
      </trkpt>
      <trkpt lat="43.28192" lon="-1.65581">
        <ele>106</ele>
        <time>2021-06-21T07:33:03.527Z</time>
      </trkpt>
      <trkpt lat="43.28187" lon="-1.65573">
        <ele>106</ele>
        <time>2021-06-21T07:33:04.534Z</time>
      </trkpt>
      <trkpt lat="43.28187" lon="-1.65573">
        <ele>106</ele>
        <time>2021-06-21T07:33:05.527Z</time>
      </trkpt>
      <trkpt lat="43.28182" lon="-1.65565">
        <ele>106</ele>
        <time>2021-06-21T07:33:06.534Z</time>
      </trkpt>
      <trkpt lat="43.28182" lon="-1.65565">
        <ele>106</ele>
        <time>2021-06-21T07:33:07.532Z</time>
      </trkpt>
      <trkpt lat="43.28179" lon="-1.65557">
        <ele>106</ele>
        <time>2021-06-21T07:33:08.538Z</time>
      </trkpt>
      <trkpt lat="43.28179" lon="-1.65557">
        <ele>106</ele>
        <time>2021-06-21T07:33:09.529Z</time>
      </trkpt>
      <trkpt lat="43.28176" lon="-1.6555">
        <ele>106</ele>
        <time>2021-06-21T07:33:10.631Z</time>
      </trkpt>
      <trkpt lat="43.28175" lon="-1.65546">
        <ele>106</ele>
        <time>2021-06-21T07:33:11.521Z</time>
      </trkpt>
      <trkpt lat="43.28175" lon="-1.65546">
        <ele>106</ele>
        <time>2021-06-21T07:33:12.543Z</time>
      </trkpt>
      <trkpt lat="43.28171" lon="-1.65538">
        <ele>107</ele>
        <time>2021-06-21T07:33:13.513Z</time>
      </trkpt>
      <trkpt lat="43.28171" lon="-1.65538">
        <ele>107</ele>
        <time>2021-06-21T07:33:14.531Z</time>
      </trkpt>
      <trkpt lat="43.28167" lon="-1.65529">
        <ele>107</ele>
        <time>2021-06-21T07:33:15.541Z</time>
      </trkpt>
      <trkpt lat="43.28167" lon="-1.65529">
        <ele>107</ele>
        <time>2021-06-21T07:33:16.527Z</time>
      </trkpt>
      <trkpt lat="43.28163" lon="-1.6552">
        <ele>107</ele>
        <time>2021-06-21T07:33:17.533Z</time>
      </trkpt>
      <trkpt lat="43.28161" lon="-1.65516">
        <ele>107</ele>
        <time>2021-06-21T07:33:18.510Z</time>
      </trkpt>
      <trkpt lat="43.28161" lon="-1.65516">
        <ele>107</ele>
        <time>2021-06-21T07:33:19.535Z</time>
      </trkpt>
      <trkpt lat="43.2816" lon="-1.65508">
        <ele>107</ele>
        <time>2021-06-21T07:33:20.541Z</time>
      </trkpt>
      <trkpt lat="43.2816" lon="-1.65508">
        <ele>107</ele>
        <time>2021-06-21T07:33:21.523Z</time>
      </trkpt>
      <trkpt lat="43.28159" lon="-1.65498">
        <ele>107</ele>
        <time>2021-06-21T07:33:22.540Z</time>
      </trkpt>
      <trkpt lat="43.28159" lon="-1.65498">
        <ele>107</ele>
        <time>2021-06-21T07:33:23.511Z</time>
      </trkpt>
      <trkpt lat="43.28158" lon="-1.65487">
        <ele>107</ele>
        <time>2021-06-21T07:33:24.518Z</time>
      </trkpt>
      <trkpt lat="43.28158" lon="-1.65487">
        <ele>107</ele>
        <time>2021-06-21T07:33:25.534Z</time>
      </trkpt>
      <trkpt lat="43.28156" lon="-1.65475">
        <ele>107</ele>
        <time>2021-06-21T07:33:26.543Z</time>
      </trkpt>
      <trkpt lat="43.28156" lon="-1.65475">
        <ele>107</ele>
        <time>2021-06-21T07:33:27.547Z</time>
      </trkpt>
      <trkpt lat="43.28153" lon="-1.65461">
        <ele>106</ele>
        <time>2021-06-21T07:33:28.658Z</time>
      </trkpt>
      <trkpt lat="43.28153" lon="-1.65461">
        <ele>106</ele>
        <time>2021-06-21T07:33:29.514Z</time>
      </trkpt>
      <trkpt lat="43.2815" lon="-1.65444">
        <ele>104</ele>
        <time>2021-06-21T07:33:30.520Z</time>
      </trkpt>
      <trkpt lat="43.2815" lon="-1.65444">
        <ele>104</ele>
        <time>2021-06-21T07:33:31.514Z</time>
      </trkpt>
      <trkpt lat="43.28147" lon="-1.65425">
        <ele>103</ele>
        <time>2021-06-21T07:33:32.520Z</time>
      </trkpt>
      <trkpt lat="43.28147" lon="-1.65425">
        <ele>103</ele>
        <time>2021-06-21T07:33:33.520Z</time>
      </trkpt>
      <trkpt lat="43.28145" lon="-1.65406">
        <ele>102</ele>
        <time>2021-06-21T07:33:34.539Z</time>
      </trkpt>
      <trkpt lat="43.28145" lon="-1.65406">
        <ele>102</ele>
        <time>2021-06-21T07:33:35.529Z</time>
      </trkpt>
      <trkpt lat="43.28143" lon="-1.65385">
        <ele>101</ele>
        <time>2021-06-21T07:33:36.553Z</time>
      </trkpt>
      <trkpt lat="43.28143" lon="-1.65385">
        <ele>101</ele>
        <time>2021-06-21T07:33:37.547Z</time>
      </trkpt>
      <trkpt lat="43.28143" lon="-1.65365">
        <ele>101</ele>
        <time>2021-06-21T07:33:38.513Z</time>
      </trkpt>
      <trkpt lat="43.28143" lon="-1.65365">
        <ele>101</ele>
        <time>2021-06-21T07:33:39.536Z</time>
      </trkpt>
      <trkpt lat="43.28147" lon="-1.65346">
        <ele>100</ele>
        <time>2021-06-21T07:33:40.544Z</time>
      </trkpt>
      <trkpt lat="43.28147" lon="-1.65346">
        <ele>100</ele>
        <time>2021-06-21T07:33:41.516Z</time>
      </trkpt>
      <trkpt lat="43.28152" lon="-1.65329">
        <ele>101</ele>
        <time>2021-06-21T07:33:42.524Z</time>
      </trkpt>
      <trkpt lat="43.28152" lon="-1.65329">
        <ele>101</ele>
        <time>2021-06-21T07:33:43.525Z</time>
      </trkpt>
      <trkpt lat="43.28156" lon="-1.65314">
        <ele>101</ele>
        <time>2021-06-21T07:33:44.533Z</time>
      </trkpt>
      <trkpt lat="43.28156" lon="-1.65314">
        <ele>101</ele>
        <time>2021-06-21T07:33:45.616Z</time>
      </trkpt>
      <trkpt lat="43.28157" lon="-1.65306">
        <ele>101</ele>
        <time>2021-06-21T07:33:46.513Z</time>
      </trkpt>
      <trkpt lat="43.28162" lon="-1.65291">
        <ele>101</ele>
        <time>2021-06-21T07:33:47.520Z</time>
      </trkpt>
      <trkpt lat="43.28165" lon="-1.65284">
        <ele>101</ele>
        <time>2021-06-21T07:33:48.546Z</time>
      </trkpt>
      <trkpt lat="43.28165" lon="-1.65284">
        <ele>101</ele>
        <time>2021-06-21T07:33:49.533Z</time>
      </trkpt>
      <trkpt lat="43.28169" lon="-1.6527">
        <ele>101</ele>
        <time>2021-06-21T07:33:50.540Z</time>
      </trkpt>
      <trkpt lat="43.28171" lon="-1.65264">
        <ele>101</ele>
        <time>2021-06-21T07:33:51.535Z</time>
      </trkpt>
      <trkpt lat="43.28171" lon="-1.65264">
        <ele>101</ele>
        <time>2021-06-21T07:33:52.515Z</time>
      </trkpt>
      <trkpt lat="43.28176" lon="-1.65253">
        <ele>101</ele>
        <time>2021-06-21T07:33:53.522Z</time>
      </trkpt>
      <trkpt lat="43.28179" lon="-1.65248">
        <ele>101</ele>
        <time>2021-06-21T07:33:54.536Z</time>
      </trkpt>
      <trkpt lat="43.28179" lon="-1.65248">
        <ele>101</ele>
        <time>2021-06-21T07:33:55.544Z</time>
      </trkpt>
      <trkpt lat="43.28183" lon="-1.65239">
        <ele>102</ele>
        <time>2021-06-21T07:33:56.559Z</time>
      </trkpt>
      <trkpt lat="43.28183" lon="-1.65239">
        <ele>102</ele>
        <time>2021-06-21T07:33:57.533Z</time>
      </trkpt>
      <trkpt lat="43.28185" lon="-1.65231">
        <ele>102</ele>
        <time>2021-06-21T07:33:58.544Z</time>
      </trkpt>
      <trkpt lat="43.28185" lon="-1.65231">
        <ele>102</ele>
        <time>2021-06-21T07:33:59.519Z</time>
      </trkpt>
      <trkpt lat="43.28185" lon="-1.65223">
        <ele>103</ele>
        <time>2021-06-21T07:34:00.532Z</time>
      </trkpt>
      <trkpt lat="43.28185" lon="-1.65223">
        <ele>103</ele>
        <time>2021-06-21T07:34:01.512Z</time>
      </trkpt>
      <trkpt lat="43.28189" lon="-1.65214">
        <ele>104</ele>
        <time>2021-06-21T07:34:02.526Z</time>
      </trkpt>
      <trkpt lat="43.28189" lon="-1.65214">
        <ele>104</ele>
        <time>2021-06-21T07:34:03.509Z</time>
      </trkpt>
      <trkpt lat="43.28193" lon="-1.65205">
        <ele>104</ele>
        <time>2021-06-21T07:34:04.516Z</time>
      </trkpt>
      <trkpt lat="43.28193" lon="-1.65205">
        <ele>104</ele>
        <time>2021-06-21T07:34:05.545Z</time>
      </trkpt>
      <trkpt lat="43.28195" lon="-1.65196">
        <ele>105</ele>
        <time>2021-06-21T07:34:06.513Z</time>
      </trkpt>
      <trkpt lat="43.28195" lon="-1.65196">
        <ele>105</ele>
        <time>2021-06-21T07:34:07.545Z</time>
      </trkpt>
      <trkpt lat="43.28199" lon="-1.65188">
        <ele>105</ele>
        <time>2021-06-21T07:34:08.586Z</time>
      </trkpt>
      <trkpt lat="43.28199" lon="-1.65188">
        <ele>105</ele>
        <time>2021-06-21T07:34:09.519Z</time>
      </trkpt>
      <trkpt lat="43.28203" lon="-1.65177">
        <ele>105</ele>
        <time>2021-06-21T07:34:10.529Z</time>
      </trkpt>
      <trkpt lat="43.28205" lon="-1.65172">
        <ele>105</ele>
        <time>2021-06-21T07:34:11.542Z</time>
      </trkpt>
      <trkpt lat="43.28206" lon="-1.65166">
        <ele>106</ele>
        <time>2021-06-21T07:34:12.533Z</time>
      </trkpt>
      <trkpt lat="43.28206" lon="-1.65166">
        <ele>106</ele>
        <time>2021-06-21T07:34:13.521Z</time>
      </trkpt>
      <trkpt lat="43.28209" lon="-1.65156">
        <ele>106</ele>
        <time>2021-06-21T07:34:14.528Z</time>
      </trkpt>
      <trkpt lat="43.28209" lon="-1.65156">
        <ele>106</ele>
        <time>2021-06-21T07:34:15.520Z</time>
      </trkpt>
      <trkpt lat="43.28209" lon="-1.65147">
        <ele>106</ele>
        <time>2021-06-21T07:34:16.528Z</time>
      </trkpt>
      <trkpt lat="43.28208" lon="-1.65143">
        <ele>107</ele>
        <time>2021-06-21T07:34:17.548Z</time>
      </trkpt>
      <trkpt lat="43.28208" lon="-1.65138">
        <ele>107</ele>
        <time>2021-06-21T07:34:18.530Z</time>
      </trkpt>
      <trkpt lat="43.28208" lon="-1.65138">
        <ele>107</ele>
        <time>2021-06-21T07:34:19.531Z</time>
      </trkpt>
      <trkpt lat="43.28212" lon="-1.65127">
        <ele>107</ele>
        <time>2021-06-21T07:34:20.538Z</time>
      </trkpt>
      <trkpt lat="43.28213" lon="-1.65122">
        <ele>107</ele>
        <time>2021-06-21T07:34:21.522Z</time>
      </trkpt>
      <trkpt lat="43.28213" lon="-1.65122">
        <ele>107</ele>
        <time>2021-06-21T07:34:22.543Z</time>
      </trkpt>
      <trkpt lat="43.28213" lon="-1.65112">
        <ele>108</ele>
        <time>2021-06-21T07:34:23.512Z</time>
      </trkpt>
      <trkpt lat="43.28214" lon="-1.65107">
        <ele>108</ele>
        <time>2021-06-21T07:34:24.515Z</time>
      </trkpt>
      <trkpt lat="43.28214" lon="-1.65107">
        <ele>108</ele>
        <time>2021-06-21T07:34:25.510Z</time>
      </trkpt>
      <trkpt lat="43.28216" lon="-1.65097">
        <ele>108</ele>
        <time>2021-06-21T07:34:26.516Z</time>
      </trkpt>
      <trkpt lat="43.28216" lon="-1.65092">
        <ele>109</ele>
        <time>2021-06-21T07:34:27.536Z</time>
      </trkpt>
      <trkpt lat="43.28216" lon="-1.65092">
        <ele>109</ele>
        <time>2021-06-21T07:34:28.543Z</time>
      </trkpt>
      <trkpt lat="43.28211" lon="-1.65082">
        <ele>109</ele>
        <time>2021-06-21T07:34:29.510Z</time>
      </trkpt>
      <trkpt lat="43.28211" lon="-1.65082">
        <ele>109</ele>
        <time>2021-06-21T07:34:30.547Z</time>
      </trkpt>
      <trkpt lat="43.28211" lon="-1.65073">
        <ele>109</ele>
        <time>2021-06-21T07:34:31.513Z</time>
      </trkpt>
      <trkpt lat="43.28212" lon="-1.65067">
        <ele>108</ele>
        <time>2021-06-21T07:34:32.602Z</time>
      </trkpt>
      <trkpt lat="43.28212" lon="-1.65067">
        <ele>108</ele>
        <time>2021-06-21T07:34:33.537Z</time>
      </trkpt>
      <trkpt lat="43.28207" lon="-1.65059">
        <ele>108</ele>
        <time>2021-06-21T07:34:34.550Z</time>
      </trkpt>
      <trkpt lat="43.28207" lon="-1.65059">
        <ele>108</ele>
        <time>2021-06-21T07:34:35.532Z</time>
      </trkpt>
      <trkpt lat="43.28205" lon="-1.65051">
        <ele>108</ele>
        <time>2021-06-21T07:34:36.541Z</time>
      </trkpt>
      <trkpt lat="43.28205" lon="-1.65051">
        <ele>108</ele>
        <time>2021-06-21T07:34:37.517Z</time>
      </trkpt>
      <trkpt lat="43.28205" lon="-1.65042">
        <ele>108</ele>
        <time>2021-06-21T07:34:38.523Z</time>
      </trkpt>
      <trkpt lat="43.28205" lon="-1.65042">
        <ele>108</ele>
        <time>2021-06-21T07:34:39.541Z</time>
      </trkpt>
      <trkpt lat="43.28205" lon="-1.65042">
        <ele>108</ele>
        <time>2021-06-21T07:34:40.509Z</time>
      </trkpt>
      <trkpt lat="43.28206" lon="-1.65035">
        <ele>108</ele>
        <time>2021-06-21T07:34:41.531Z</time>
      </trkpt>
      <trkpt lat="43.28205" lon="-1.65027">
        <ele>107</ele>
        <time>2021-06-21T07:34:42.538Z</time>
      </trkpt>
      <trkpt lat="43.28205" lon="-1.65027">
        <ele>107</ele>
        <time>2021-06-21T07:34:43.526Z</time>
      </trkpt>
      <trkpt lat="43.28205" lon="-1.65027">
        <ele>107</ele>
        <time>2021-06-21T07:34:44.605Z</time>
      </trkpt>
      <trkpt lat="43.28205" lon="-1.6502">
        <ele>107</ele>
        <time>2021-06-21T07:34:45.520Z</time>
      </trkpt>
      <trkpt lat="43.28207" lon="-1.65014">
        <ele>106</ele>
        <time>2021-06-21T07:34:46.526Z</time>
      </trkpt>
      <trkpt lat="43.28207" lon="-1.65014">
        <ele>106</ele>
        <time>2021-06-21T07:34:47.509Z</time>
      </trkpt>
      <trkpt lat="43.28209" lon="-1.65009">
        <ele>106</ele>
        <time>2021-06-21T07:34:48.514Z</time>
      </trkpt>
      <trkpt lat="43.28209" lon="-1.65009">
        <ele>106</ele>
        <time>2021-06-21T07:34:49.546Z</time>
      </trkpt>
      <trkpt lat="43.28211" lon="-1.65003">
        <ele>106</ele>
        <time>2021-06-21T07:34:50.518Z</time>
      </trkpt>
      <trkpt lat="43.28211" lon="-1.65003">
        <ele>106</ele>
        <time>2021-06-21T07:34:51.516Z</time>
      </trkpt>
      <trkpt lat="43.28211" lon="-1.64996">
        <ele>106</ele>
        <time>2021-06-21T07:34:52.523Z</time>
      </trkpt>
      <trkpt lat="43.28211" lon="-1.64996">
        <ele>106</ele>
        <time>2021-06-21T07:34:53.537Z</time>
      </trkpt>
      <trkpt lat="43.28214" lon="-1.6499">
        <ele>105</ele>
        <time>2021-06-21T07:34:54.544Z</time>
      </trkpt>
      <trkpt lat="43.28214" lon="-1.6499">
        <ele>105</ele>
        <time>2021-06-21T07:34:55.530Z</time>
      </trkpt>
      <trkpt lat="43.28215" lon="-1.64984">
        <ele>105</ele>
        <time>2021-06-21T07:34:56.538Z</time>
      </trkpt>
      <trkpt lat="43.28215" lon="-1.64984">
        <ele>105</ele>
        <time>2021-06-21T07:34:57.515Z</time>
      </trkpt>
      <trkpt lat="43.28216" lon="-1.64977">
        <ele>104</ele>
        <time>2021-06-21T07:34:58.597Z</time>
      </trkpt>
      <trkpt lat="43.28217" lon="-1.64974">
        <ele>104</ele>
        <time>2021-06-21T07:34:59.521Z</time>
      </trkpt>
      <trkpt lat="43.28217" lon="-1.6497">
        <ele>104</ele>
        <time>2021-06-21T07:35:00.513Z</time>
      </trkpt>
      <trkpt lat="43.28217" lon="-1.6497">
        <ele>104</ele>
        <time>2021-06-21T07:35:01.538Z</time>
      </trkpt>
      <trkpt lat="43.2822" lon="-1.64964">
        <ele>104</ele>
        <time>2021-06-21T07:35:02.546Z</time>
      </trkpt>
      <trkpt lat="43.2822" lon="-1.64964">
        <ele>104</ele>
        <time>2021-06-21T07:35:03.529Z</time>
      </trkpt>
      <trkpt lat="43.28222" lon="-1.64959">
        <ele>104</ele>
        <time>2021-06-21T07:35:04.536Z</time>
      </trkpt>
      <trkpt lat="43.28222" lon="-1.64959">
        <ele>104</ele>
        <time>2021-06-21T07:35:05.513Z</time>
      </trkpt>
      <trkpt lat="43.28226" lon="-1.64953">
        <ele>104</ele>
        <time>2021-06-21T07:35:06.519Z</time>
      </trkpt>
      <trkpt lat="43.28226" lon="-1.64953">
        <ele>104</ele>
        <time>2021-06-21T07:35:07.546Z</time>
      </trkpt>
      <trkpt lat="43.28229" lon="-1.64947">
        <ele>104</ele>
        <time>2021-06-21T07:35:08.620Z</time>
      </trkpt>
      <trkpt lat="43.28229" lon="-1.64947">
        <ele>104</ele>
        <time>2021-06-21T07:35:09.518Z</time>
      </trkpt>
      <trkpt lat="43.28233" lon="-1.6494">
        <ele>105</ele>
        <time>2021-06-21T07:35:10.531Z</time>
      </trkpt>
      <trkpt lat="43.28234" lon="-1.64938">
        <ele>105</ele>
        <time>2021-06-21T07:35:11.518Z</time>
      </trkpt>
      <trkpt lat="43.2824" lon="-1.64934">
        <ele>106</ele>
        <time>2021-06-21T07:35:12.541Z</time>
      </trkpt>
      <trkpt lat="43.2824" lon="-1.64934">
        <ele>106</ele>
        <time>2021-06-21T07:35:13.545Z</time>
      </trkpt>
      <trkpt lat="43.28244" lon="-1.64927">
        <ele>107</ele>
        <time>2021-06-21T07:35:14.513Z</time>
      </trkpt>
      <trkpt lat="43.28244" lon="-1.64927">
        <ele>107</ele>
        <time>2021-06-21T07:35:15.543Z</time>
      </trkpt>
      <trkpt lat="43.28252" lon="-1.6492">
        <ele>108</ele>
        <time>2021-06-21T07:35:16.579Z</time>
      </trkpt>
      <trkpt lat="43.28255" lon="-1.64917">
        <ele>109</ele>
        <time>2021-06-21T07:35:17.513Z</time>
      </trkpt>
      <trkpt lat="43.28255" lon="-1.64915">
        <ele>109</ele>
        <time>2021-06-21T07:35:18.548Z</time>
      </trkpt>
      <trkpt lat="43.28255" lon="-1.64915">
        <ele>109</ele>
        <time>2021-06-21T07:35:19.539Z</time>
      </trkpt>
      <trkpt lat="43.28257" lon="-1.6491">
        <ele>109</ele>
        <time>2021-06-21T07:35:20.547Z</time>
      </trkpt>
      <trkpt lat="43.28257" lon="-1.64907">
        <ele>109</ele>
        <time>2021-06-21T07:35:21.525Z</time>
      </trkpt>
      <trkpt lat="43.28257" lon="-1.64907">
        <ele>109</ele>
        <time>2021-06-21T07:35:22.517Z</time>
      </trkpt>
      <trkpt lat="43.28259" lon="-1.64902">
        <ele>110</ele>
        <time>2021-06-21T07:35:23.517Z</time>
      </trkpt>
      <trkpt lat="43.2826" lon="-1.649">
        <ele>110</ele>
        <time>2021-06-21T07:35:24.546Z</time>
      </trkpt>
      <trkpt lat="43.2826" lon="-1.649">
        <ele>110</ele>
        <time>2021-06-21T07:35:25.515Z</time>
      </trkpt>
      <trkpt lat="43.28261" lon="-1.64896">
        <ele>112</ele>
        <time>2021-06-21T07:35:26.522Z</time>
      </trkpt>
      <trkpt lat="43.28262" lon="-1.64894">
        <ele>112</ele>
        <time>2021-06-21T07:35:27.540Z</time>
      </trkpt>
      <trkpt lat="43.28262" lon="-1.64894">
        <ele>112</ele>
        <time>2021-06-21T07:35:28.512Z</time>
      </trkpt>
      <trkpt lat="43.28263" lon="-1.6489">
        <ele>113</ele>
        <time>2021-06-21T07:35:29.567Z</time>
      </trkpt>
      <trkpt lat="43.28264" lon="-1.64887">
        <ele>113</ele>
        <time>2021-06-21T07:35:30.525Z</time>
      </trkpt>
      <trkpt lat="43.28264" lon="-1.64887">
        <ele>113</ele>
        <time>2021-06-21T07:35:31.537Z</time>
      </trkpt>
      <trkpt lat="43.28266" lon="-1.64882">
        <ele>114</ele>
        <time>2021-06-21T07:35:32.542Z</time>
      </trkpt>
      <trkpt lat="43.28266" lon="-1.64882">
        <ele>114</ele>
        <time>2021-06-21T07:35:33.523Z</time>
      </trkpt>
      <trkpt lat="43.28268" lon="-1.64878">
        <ele>114</ele>
        <time>2021-06-21T07:35:34.532Z</time>
      </trkpt>
      <trkpt lat="43.28268" lon="-1.64878">
        <ele>114</ele>
        <time>2021-06-21T07:35:35.514Z</time>
      </trkpt>
      <trkpt lat="43.28271" lon="-1.64874">
        <ele>114</ele>
        <time>2021-06-21T07:35:36.520Z</time>
      </trkpt>
      <trkpt lat="43.28271" lon="-1.64874">
        <ele>114</ele>
        <time>2021-06-21T07:35:37.509Z</time>
      </trkpt>
      <trkpt lat="43.28274" lon="-1.64871">
        <ele>114</ele>
        <time>2021-06-21T07:35:38.516Z</time>
      </trkpt>
      <trkpt lat="43.28274" lon="-1.64871">
        <ele>114</ele>
        <time>2021-06-21T07:35:39.533Z</time>
      </trkpt>
      <trkpt lat="43.28276" lon="-1.64868">
        <ele>114</ele>
        <time>2021-06-21T07:35:40.544Z</time>
      </trkpt>
      <trkpt lat="43.28276" lon="-1.64868">
        <ele>114</ele>
        <time>2021-06-21T07:35:41.531Z</time>
      </trkpt>
      <trkpt lat="43.28278" lon="-1.64866">
        <ele>115</ele>
        <time>2021-06-21T07:35:42.538Z</time>
      </trkpt>
      <trkpt lat="43.28278" lon="-1.64866">
        <ele>115</ele>
        <time>2021-06-21T07:35:43.521Z</time>
      </trkpt>
      <trkpt lat="43.28278" lon="-1.64866">
        <ele>115</ele>
        <time>2021-06-21T07:35:44.622Z</time>
      </trkpt>
      <trkpt lat="43.28281" lon="-1.64864">
        <ele>115</ele>
        <time>2021-06-21T07:35:45.517Z</time>
      </trkpt>
      <trkpt lat="43.28283" lon="-1.64861">
        <ele>115</ele>
        <time>2021-06-21T07:35:46.531Z</time>
      </trkpt>
      <trkpt lat="43.28283" lon="-1.64861">
        <ele>115</ele>
        <time>2021-06-21T07:35:47.511Z</time>
      </trkpt>
      <trkpt lat="43.28285" lon="-1.6486">
        <ele>115</ele>
        <time>2021-06-21T07:35:48.520Z</time>
      </trkpt>
      <trkpt lat="43.28285" lon="-1.6486">
        <ele>115</ele>
        <time>2021-06-21T07:35:49.513Z</time>
      </trkpt>
      <trkpt lat="43.28288" lon="-1.64859">
        <ele>116</ele>
        <time>2021-06-21T07:35:50.519Z</time>
      </trkpt>
      <trkpt lat="43.28288" lon="-1.64859">
        <ele>116</ele>
        <time>2021-06-21T07:35:51.519Z</time>
      </trkpt>
      <trkpt lat="43.28292" lon="-1.64857">
        <ele>117</ele>
        <time>2021-06-21T07:35:52.529Z</time>
      </trkpt>
      <trkpt lat="43.28293" lon="-1.64857">
        <ele>117</ele>
        <time>2021-06-21T07:35:53.519Z</time>
      </trkpt>
      <trkpt lat="43.28294" lon="-1.64857">
        <ele>117</ele>
        <time>2021-06-21T07:35:54.517Z</time>
      </trkpt>
      <trkpt lat="43.28294" lon="-1.64857">
        <ele>117</ele>
        <time>2021-06-21T07:35:55.537Z</time>
      </trkpt>
      <trkpt lat="43.28296" lon="-1.64857">
        <ele>118</ele>
        <time>2021-06-21T07:35:56.545Z</time>
      </trkpt>
      <trkpt lat="43.28296" lon="-1.64857">
        <ele>118</ele>
        <time>2021-06-21T07:35:57.536Z</time>
      </trkpt>
      <trkpt lat="43.28297" lon="-1.64856">
        <ele>118</ele>
        <time>2021-06-21T07:35:58.614Z</time>
      </trkpt>
      <trkpt lat="43.28298" lon="-1.64856">
        <ele>119</ele>
        <time>2021-06-21T07:35:59.543Z</time>
      </trkpt>
      <trkpt lat="43.28298" lon="-1.64855">
        <ele>119</ele>
        <time>2021-06-21T07:36:00.511Z</time>
      </trkpt>
      <trkpt lat="43.28298" lon="-1.64855">
        <ele>119</ele>
        <time>2021-06-21T07:36:01.529Z</time>
      </trkpt>
      <trkpt lat="43.28299" lon="-1.64853">
        <ele>119</ele>
        <time>2021-06-21T07:36:02.544Z</time>
      </trkpt>
      <trkpt lat="43.28299" lon="-1.64853">
        <ele>119</ele>
        <time>2021-06-21T07:36:03.532Z</time>
      </trkpt>
      <trkpt lat="43.283" lon="-1.64851">
        <ele>119</ele>
        <time>2021-06-21T07:36:04.567Z</time>
      </trkpt>
      <trkpt lat="43.283" lon="-1.64851">
        <ele>119</ele>
        <time>2021-06-21T07:36:05.520Z</time>
      </trkpt>
      <trkpt lat="43.28301" lon="-1.64849">
        <ele>120</ele>
        <time>2021-06-21T07:36:06.532Z</time>
      </trkpt>
      <trkpt lat="43.28301" lon="-1.64849">
        <ele>120</ele>
        <time>2021-06-21T07:36:07.517Z</time>
      </trkpt>
      <trkpt lat="43.28302" lon="-1.64847">
        <ele>120</ele>
        <time>2021-06-21T07:36:08.524Z</time>
      </trkpt>
      <trkpt lat="43.28302" lon="-1.64847">
        <ele>120</ele>
        <time>2021-06-21T07:36:09.542Z</time>
      </trkpt>
      <trkpt lat="43.28304" lon="-1.64845">
        <ele>120</ele>
        <time>2021-06-21T07:36:10.549Z</time>
      </trkpt>
      <trkpt lat="43.28304" lon="-1.64845">
        <ele>120</ele>
        <time>2021-06-21T07:36:11.530Z</time>
      </trkpt>
      <trkpt lat="43.28305" lon="-1.64842">
        <ele>121</ele>
        <time>2021-06-21T07:36:12.540Z</time>
      </trkpt>
      <trkpt lat="43.28305" lon="-1.64842">
        <ele>121</ele>
        <time>2021-06-21T07:36:13.531Z</time>
      </trkpt>
      <trkpt lat="43.28307" lon="-1.6484">
        <ele>121</ele>
        <time>2021-06-21T07:36:14.632Z</time>
      </trkpt>
      <trkpt lat="43.28309" lon="-1.64839">
        <ele>121</ele>
        <time>2021-06-21T07:36:15.534Z</time>
      </trkpt>
      <trkpt lat="43.28309" lon="-1.64839">
        <ele>121</ele>
        <time>2021-06-21T07:36:16.513Z</time>
      </trkpt>
      <trkpt lat="43.28312" lon="-1.64837">
        <ele>122</ele>
        <time>2021-06-21T07:36:17.520Z</time>
      </trkpt>
      <trkpt lat="43.28314" lon="-1.64835">
        <ele>122</ele>
        <time>2021-06-21T07:36:18.548Z</time>
      </trkpt>
      <trkpt lat="43.28314" lon="-1.64835">
        <ele>122</ele>
        <time>2021-06-21T07:36:19.533Z</time>
      </trkpt>
      <trkpt lat="43.28318" lon="-1.6483">
        <ele>123</ele>
        <time>2021-06-21T07:36:20.540Z</time>
      </trkpt>
      <trkpt lat="43.28318" lon="-1.6483">
        <ele>123</ele>
        <time>2021-06-21T07:36:21.520Z</time>
      </trkpt>
      <trkpt lat="43.2832" lon="-1.64827">
        <ele>123</ele>
        <time>2021-06-21T07:36:22.539Z</time>
      </trkpt>
      <trkpt lat="43.2832" lon="-1.64827">
        <ele>123</ele>
        <time>2021-06-21T07:36:23.517Z</time>
      </trkpt>
      <trkpt lat="43.28326" lon="-1.64823">
        <ele>124</ele>
        <time>2021-06-21T07:36:24.523Z</time>
      </trkpt>
      <trkpt lat="43.28328" lon="-1.64821">
        <ele>124</ele>
        <time>2021-06-21T07:36:25.550Z</time>
      </trkpt>
      <trkpt lat="43.28328" lon="-1.64821">
        <ele>124</ele>
        <time>2021-06-21T07:36:26.511Z</time>
      </trkpt>
      <trkpt lat="43.28333" lon="-1.64816">
        <ele>124</ele>
        <time>2021-06-21T07:36:27.519Z</time>
      </trkpt>
      <trkpt lat="43.28333" lon="-1.64816">
        <ele>124</ele>
        <time>2021-06-21T07:36:28.524Z</time>
      </trkpt>
      <trkpt lat="43.28335" lon="-1.64814">
        <ele>125</ele>
        <time>2021-06-21T07:36:29.531Z</time>
      </trkpt>
      <trkpt lat="43.2834" lon="-1.64811">
        <ele>126</ele>
        <time>2021-06-21T07:36:30.523Z</time>
      </trkpt>
      <trkpt lat="43.2834" lon="-1.64811">
        <ele>126</ele>
        <time>2021-06-21T07:36:31.536Z</time>
      </trkpt>
      <trkpt lat="43.28345" lon="-1.64807">
        <ele>127</ele>
        <time>2021-06-21T07:36:32.510Z</time>
      </trkpt>
      <trkpt lat="43.28345" lon="-1.64807">
        <ele>127</ele>
        <time>2021-06-21T07:36:33.529Z</time>
      </trkpt>
      <trkpt lat="43.28346" lon="-1.64804">
        <ele>127</ele>
        <time>2021-06-21T07:36:34.537Z</time>
      </trkpt>
      <trkpt lat="43.28346" lon="-1.64804">
        <ele>127</ele>
        <time>2021-06-21T07:36:35.518Z</time>
      </trkpt>
      <trkpt lat="43.2835" lon="-1.648">
        <ele>128</ele>
        <time>2021-06-21T07:36:36.525Z</time>
      </trkpt>
      <trkpt lat="43.2835" lon="-1.648">
        <ele>128</ele>
        <time>2021-06-21T07:36:37.542Z</time>
      </trkpt>
      <trkpt lat="43.28353" lon="-1.64797">
        <ele>129</ele>
        <time>2021-06-21T07:36:38.548Z</time>
      </trkpt>
      <trkpt lat="43.28353" lon="-1.64797">
        <ele>129</ele>
        <time>2021-06-21T07:36:39.535Z</time>
      </trkpt>
      <trkpt lat="43.28354" lon="-1.64793">
        <ele>130</ele>
        <time>2021-06-21T07:36:40.543Z</time>
      </trkpt>
      <trkpt lat="43.28354" lon="-1.64793">
        <ele>130</ele>
        <time>2021-06-21T07:36:41.522Z</time>
      </trkpt>
      <trkpt lat="43.28357" lon="-1.6479">
        <ele>131</ele>
        <time>2021-06-21T07:36:42.533Z</time>
      </trkpt>
      <trkpt lat="43.28357" lon="-1.6479">
        <ele>131</ele>
        <time>2021-06-21T07:36:43.531Z</time>
      </trkpt>
      <trkpt lat="43.28359" lon="-1.64787">
        <ele>132</ele>
        <time>2021-06-21T07:36:44.538Z</time>
      </trkpt>
      <trkpt lat="43.28359" lon="-1.64787">
        <ele>132</ele>
        <time>2021-06-21T07:36:45.530Z</time>
      </trkpt>
      <trkpt lat="43.2836" lon="-1.64784">
        <ele>132</ele>
        <time>2021-06-21T07:36:46.611Z</time>
      </trkpt>
      <trkpt lat="43.2836" lon="-1.64784">
        <ele>132</ele>
        <time>2021-06-21T07:36:47.546Z</time>
      </trkpt>
      <trkpt lat="43.2836" lon="-1.64784">
        <ele>132</ele>
        <time>2021-06-21T07:36:48.635Z</time>
      </trkpt>
      <trkpt lat="43.2836" lon="-1.6478">
        <ele>132</ele>
        <time>2021-06-21T07:36:49.533Z</time>
      </trkpt>
      <trkpt lat="43.28364" lon="-1.64777">
        <ele>133</ele>
        <time>2021-06-21T07:36:50.545Z</time>
      </trkpt>
      <trkpt lat="43.28364" lon="-1.64777">
        <ele>133</ele>
        <time>2021-06-21T07:36:51.531Z</time>
      </trkpt>
      <trkpt lat="43.28367" lon="-1.64774">
        <ele>134</ele>
        <time>2021-06-21T07:36:52.537Z</time>
      </trkpt>
      <trkpt lat="43.28367" lon="-1.64774">
        <ele>134</ele>
        <time>2021-06-21T07:36:53.536Z</time>
      </trkpt>
      <trkpt lat="43.28375" lon="-1.64769">
        <ele>135</ele>
        <time>2021-06-21T07:36:54.548Z</time>
      </trkpt>
      <trkpt lat="43.28375" lon="-1.64769">
        <ele>135</ele>
        <time>2021-06-21T07:36:55.531Z</time>
      </trkpt>
      <trkpt lat="43.28378" lon="-1.64767">
        <ele>135</ele>
        <time>2021-06-21T07:36:56.537Z</time>
      </trkpt>
      <trkpt lat="43.2838" lon="-1.64766">
        <ele>136</ele>
        <time>2021-06-21T07:36:57.536Z</time>
      </trkpt>
      <trkpt lat="43.2838" lon="-1.64766">
        <ele>136</ele>
        <time>2021-06-21T07:36:58.536Z</time>
      </trkpt>
      <trkpt lat="43.2838" lon="-1.64766">
        <ele>136</ele>
        <time>2021-06-21T07:36:59.520Z</time>
      </trkpt>
      <trkpt lat="43.28382" lon="-1.64763">
        <ele>136</ele>
        <time>2021-06-21T07:37:00.543Z</time>
      </trkpt>
      <trkpt lat="43.28382" lon="-1.64763">
        <ele>136</ele>
        <time>2021-06-21T07:37:01.540Z</time>
      </trkpt>
      <trkpt lat="43.28384" lon="-1.64759">
        <ele>137</ele>
        <time>2021-06-21T07:37:02.546Z</time>
      </trkpt>
      <trkpt lat="43.28384" lon="-1.64759">
        <ele>137</ele>
        <time>2021-06-21T07:37:03.527Z</time>
      </trkpt>
      <trkpt lat="43.28384" lon="-1.64755">
        <ele>137</ele>
        <time>2021-06-21T07:37:04.533Z</time>
      </trkpt>
      <trkpt lat="43.28384" lon="-1.64755">
        <ele>137</ele>
        <time>2021-06-21T07:37:05.536Z</time>
      </trkpt>
      <trkpt lat="43.28386" lon="-1.64751">
        <ele>138</ele>
        <time>2021-06-21T07:37:06.549Z</time>
      </trkpt>
      <trkpt lat="43.28386" lon="-1.64751">
        <ele>138</ele>
        <time>2021-06-21T07:37:07.535Z</time>
      </trkpt>
      <trkpt lat="43.28389" lon="-1.64748">
        <ele>139</ele>
        <time>2021-06-21T07:37:08.546Z</time>
      </trkpt>
      <trkpt lat="43.28389" lon="-1.64748">
        <ele>139</ele>
        <time>2021-06-21T07:37:09.531Z</time>
      </trkpt>
      <trkpt lat="43.28391" lon="-1.64745">
        <ele>139</ele>
        <time>2021-06-21T07:37:10.616Z</time>
      </trkpt>
      <trkpt lat="43.28391" lon="-1.64745">
        <ele>139</ele>
        <time>2021-06-21T07:37:11.541Z</time>
      </trkpt>
      <trkpt lat="43.28392" lon="-1.64742">
        <ele>140</ele>
        <time>2021-06-21T07:37:12.548Z</time>
      </trkpt>
      <trkpt lat="43.28392" lon="-1.64742">
        <ele>140</ele>
        <time>2021-06-21T07:37:13.531Z</time>
      </trkpt>
      <trkpt lat="43.28396" lon="-1.64738">
        <ele>141</ele>
        <time>2021-06-21T07:37:14.537Z</time>
      </trkpt>
      <trkpt lat="43.28396" lon="-1.64738">
        <ele>141</ele>
        <time>2021-06-21T07:37:15.512Z</time>
      </trkpt>
      <trkpt lat="43.28396" lon="-1.64738">
        <ele>141</ele>
        <time>2021-06-21T07:37:16.619Z</time>
      </trkpt>
      <trkpt lat="43.284" lon="-1.64732">
        <ele>142</ele>
        <time>2021-06-21T07:37:17.530Z</time>
      </trkpt>
      <trkpt lat="43.28401" lon="-1.64729">
        <ele>142</ele>
        <time>2021-06-21T07:37:18.518Z</time>
      </trkpt>
      <trkpt lat="43.28401" lon="-1.64729">
        <ele>142</ele>
        <time>2021-06-21T07:37:19.547Z</time>
      </trkpt>
      <trkpt lat="43.28403" lon="-1.64725">
        <ele>143</ele>
        <time>2021-06-21T07:37:20.513Z</time>
      </trkpt>
      <trkpt lat="43.28403" lon="-1.64725">
        <ele>143</ele>
        <time>2021-06-21T07:37:21.534Z</time>
      </trkpt>
      <trkpt lat="43.28404" lon="-1.64719">
        <ele>144</ele>
        <time>2021-06-21T07:37:22.550Z</time>
      </trkpt>
      <trkpt lat="43.28404" lon="-1.64719">
        <ele>144</ele>
        <time>2021-06-21T07:37:23.521Z</time>
      </trkpt>
      <trkpt lat="43.28405" lon="-1.64715">
        <ele>144</ele>
        <time>2021-06-21T07:37:24.528Z</time>
      </trkpt>
      <trkpt lat="43.28405" lon="-1.64715">
        <ele>144</ele>
        <time>2021-06-21T07:37:25.547Z</time>
      </trkpt>
      <trkpt lat="43.28406" lon="-1.6471">
        <ele>145</ele>
        <time>2021-06-21T07:37:26.513Z</time>
      </trkpt>
      <trkpt lat="43.28408" lon="-1.64707">
        <ele>145</ele>
        <time>2021-06-21T07:37:27.542Z</time>
      </trkpt>
      <trkpt lat="43.28408" lon="-1.64707">
        <ele>145</ele>
        <time>2021-06-21T07:37:28.517Z</time>
      </trkpt>
      <trkpt lat="43.28408" lon="-1.64703">
        <ele>146</ele>
        <time>2021-06-21T07:37:29.523Z</time>
      </trkpt>
      <trkpt lat="43.28409" lon="-1.64701">
        <ele>146</ele>
        <time>2021-06-21T07:37:30.527Z</time>
      </trkpt>
      <trkpt lat="43.28409" lon="-1.64701">
        <ele>146</ele>
        <time>2021-06-21T07:37:31.523Z</time>
      </trkpt>
      <trkpt lat="43.2841" lon="-1.64697">
        <ele>147</ele>
        <time>2021-06-21T07:37:32.530Z</time>
      </trkpt>
      <trkpt lat="43.2841" lon="-1.64697">
        <ele>147</ele>
        <time>2021-06-21T07:37:33.547Z</time>
      </trkpt>
      <trkpt lat="43.2841" lon="-1.64692">
        <ele>148</ele>
        <time>2021-06-21T07:37:34.513Z</time>
      </trkpt>
      <trkpt lat="43.28411" lon="-1.64689">
        <ele>148</ele>
        <time>2021-06-21T07:37:35.532Z</time>
      </trkpt>
      <trkpt lat="43.28411" lon="-1.64687">
        <ele>148</ele>
        <time>2021-06-21T07:37:36.517Z</time>
      </trkpt>
      <trkpt lat="43.28411" lon="-1.64687">
        <ele>148</ele>
        <time>2021-06-21T07:37:37.525Z</time>
      </trkpt>
      <trkpt lat="43.28411" lon="-1.64683">
        <ele>149</ele>
        <time>2021-06-21T07:37:38.537Z</time>
      </trkpt>
      <trkpt lat="43.28411" lon="-1.64683">
        <ele>149</ele>
        <time>2021-06-21T07:37:39.517Z</time>
      </trkpt>
      <trkpt lat="43.28411" lon="-1.64683">
        <ele>149</ele>
        <time>2021-06-21T07:37:40.521Z</time>
      </trkpt>
      <trkpt lat="43.28412" lon="-1.6468">
        <ele>149</ele>
        <time>2021-06-21T07:37:41.535Z</time>
      </trkpt>
      <trkpt lat="43.28415" lon="-1.64676">
        <ele>150</ele>
        <time>2021-06-21T07:37:42.546Z</time>
      </trkpt>
      <trkpt lat="43.28415" lon="-1.64676">
        <ele>150</ele>
        <time>2021-06-21T07:37:43.524Z</time>
      </trkpt>
      <trkpt lat="43.28415" lon="-1.64676">
        <ele>150</ele>
        <time>2021-06-21T07:37:44.624Z</time>
      </trkpt>
      <trkpt lat="43.28417" lon="-1.64672">
        <ele>150</ele>
        <time>2021-06-21T07:37:45.532Z</time>
      </trkpt>
      <trkpt lat="43.28418" lon="-1.64667">
        <ele>150</ele>
        <time>2021-06-21T07:37:46.548Z</time>
      </trkpt>
      <trkpt lat="43.28419" lon="-1.64665">
        <ele>150</ele>
        <time>2021-06-21T07:37:47.522Z</time>
      </trkpt>
      <trkpt lat="43.2842" lon="-1.64662">
        <ele>150</ele>
        <time>2021-06-21T07:37:48.544Z</time>
      </trkpt>
      <trkpt lat="43.2842" lon="-1.64662">
        <ele>150</ele>
        <time>2021-06-21T07:37:49.537Z</time>
      </trkpt>
      <trkpt lat="43.28422" lon="-1.64658">
        <ele>150</ele>
        <time>2021-06-21T07:37:50.547Z</time>
      </trkpt>
      <trkpt lat="43.28422" lon="-1.64658">
        <ele>150</ele>
        <time>2021-06-21T07:37:51.543Z</time>
      </trkpt>
      <trkpt lat="43.28424" lon="-1.64655">
        <ele>151</ele>
        <time>2021-06-21T07:37:52.512Z</time>
      </trkpt>
      <trkpt lat="43.28424" lon="-1.64655">
        <ele>151</ele>
        <time>2021-06-21T07:37:53.526Z</time>
      </trkpt>
      <trkpt lat="43.28425" lon="-1.64653">
        <ele>151</ele>
        <time>2021-06-21T07:37:54.540Z</time>
      </trkpt>
      <trkpt lat="43.28425" lon="-1.64653">
        <ele>151</ele>
        <time>2021-06-21T07:37:55.528Z</time>
      </trkpt>
      <trkpt lat="43.28427" lon="-1.64651">
        <ele>151</ele>
        <time>2021-06-21T07:37:56.547Z</time>
      </trkpt>
      <trkpt lat="43.28427" lon="-1.64651">
        <ele>151</ele>
        <time>2021-06-21T07:37:57.534Z</time>
      </trkpt>
      <trkpt lat="43.28429" lon="-1.64649">
        <ele>152</ele>
        <time>2021-06-21T07:37:58.539Z</time>
      </trkpt>
      <trkpt lat="43.28429" lon="-1.64649">
        <ele>152</ele>
        <time>2021-06-21T07:37:59.522Z</time>
      </trkpt>
      <trkpt lat="43.28431" lon="-1.64646">
        <ele>152</ele>
        <time>2021-06-21T07:38:00.538Z</time>
      </trkpt>
      <trkpt lat="43.28432" lon="-1.64645">
        <ele>152</ele>
        <time>2021-06-21T07:38:01.547Z</time>
      </trkpt>
      <trkpt lat="43.28432" lon="-1.64645">
        <ele>152</ele>
        <time>2021-06-21T07:38:02.530Z</time>
      </trkpt>
      <trkpt lat="43.28437" lon="-1.64642">
        <ele>152</ele>
        <time>2021-06-21T07:38:03.539Z</time>
      </trkpt>
      <trkpt lat="43.28437" lon="-1.64642">
        <ele>152</ele>
        <time>2021-06-21T07:38:04.532Z</time>
      </trkpt>
      <trkpt lat="43.28441" lon="-1.64639">
        <ele>153</ele>
        <time>2021-06-21T07:38:05.538Z</time>
      </trkpt>
      <trkpt lat="43.28443" lon="-1.64637">
        <ele>153</ele>
        <time>2021-06-21T07:38:06.518Z</time>
      </trkpt>
      <trkpt lat="43.28443" lon="-1.64637">
        <ele>153</ele>
        <time>2021-06-21T07:38:07.536Z</time>
      </trkpt>
      <trkpt lat="43.28445" lon="-1.64636">
        <ele>153</ele>
        <time>2021-06-21T07:38:08.620Z</time>
      </trkpt>
      <trkpt lat="43.28446" lon="-1.64635">
        <ele>153</ele>
        <time>2021-06-21T07:38:09.533Z</time>
      </trkpt>
      <trkpt lat="43.28446" lon="-1.64635">
        <ele>153</ele>
        <time>2021-06-21T07:38:10.517Z</time>
      </trkpt>
      <trkpt lat="43.28448" lon="-1.64633">
        <ele>154</ele>
        <time>2021-06-21T07:38:11.524Z</time>
      </trkpt>
      <trkpt lat="43.28449" lon="-1.64632">
        <ele>154</ele>
        <time>2021-06-21T07:38:12.545Z</time>
      </trkpt>
      <trkpt lat="43.28449" lon="-1.64632">
        <ele>154</ele>
        <time>2021-06-21T07:38:13.539Z</time>
      </trkpt>
      <trkpt lat="43.28452" lon="-1.64629">
        <ele>154</ele>
        <time>2021-06-21T07:38:14.546Z</time>
      </trkpt>
      <trkpt lat="43.28452" lon="-1.64629">
        <ele>154</ele>
        <time>2021-06-21T07:38:15.530Z</time>
      </trkpt>
      <trkpt lat="43.28452" lon="-1.64629">
        <ele>154</ele>
        <time>2021-06-21T07:38:16.521Z</time>
      </trkpt>
      <trkpt lat="43.28455" lon="-1.64628">
        <ele>154</ele>
        <time>2021-06-21T07:38:17.540Z</time>
      </trkpt>
      <trkpt lat="43.28457" lon="-1.64626">
        <ele>155</ele>
        <time>2021-06-21T07:38:18.547Z</time>
      </trkpt>
      <trkpt lat="43.28457" lon="-1.64626">
        <ele>155</ele>
        <time>2021-06-21T07:38:19.532Z</time>
      </trkpt>
      <trkpt lat="43.2846" lon="-1.64624">
        <ele>155</ele>
        <time>2021-06-21T07:38:20.541Z</time>
      </trkpt>
      <trkpt lat="43.2846" lon="-1.64624">
        <ele>155</ele>
        <time>2021-06-21T07:38:21.519Z</time>
      </trkpt>
      <trkpt lat="43.28463" lon="-1.64622">
        <ele>155</ele>
        <time>2021-06-21T07:38:22.514Z</time>
      </trkpt>
      <trkpt lat="43.28463" lon="-1.64622">
        <ele>155</ele>
        <time>2021-06-21T07:38:23.532Z</time>
      </trkpt>
      <trkpt lat="43.28464" lon="-1.6462">
        <ele>155</ele>
        <time>2021-06-21T07:38:24.539Z</time>
      </trkpt>
      <trkpt lat="43.28464" lon="-1.6462">
        <ele>155</ele>
        <time>2021-06-21T07:38:25.510Z</time>
      </trkpt>
      <trkpt lat="43.28466" lon="-1.64618">
        <ele>155</ele>
        <time>2021-06-21T07:38:26.515Z</time>
      </trkpt>
      <trkpt lat="43.28466" lon="-1.64618">
        <ele>155</ele>
        <time>2021-06-21T07:38:27.528Z</time>
      </trkpt>
      <trkpt lat="43.28468" lon="-1.64615">
        <ele>155</ele>
        <time>2021-06-21T07:38:28.539Z</time>
      </trkpt>
      <trkpt lat="43.28468" lon="-1.64615">
        <ele>155</ele>
        <time>2021-06-21T07:38:29.532Z</time>
      </trkpt>
      <trkpt lat="43.28472" lon="-1.64612">
        <ele>155</ele>
        <time>2021-06-21T07:38:30.545Z</time>
      </trkpt>
      <trkpt lat="43.28472" lon="-1.64612">
        <ele>155</ele>
        <time>2021-06-21T07:38:31.520Z</time>
      </trkpt>
      <trkpt lat="43.28477" lon="-1.64609">
        <ele>155</ele>
        <time>2021-06-21T07:38:32.528Z</time>
      </trkpt>
      <trkpt lat="43.28479" lon="-1.64607">
        <ele>156</ele>
        <time>2021-06-21T07:38:33.536Z</time>
      </trkpt>
      <trkpt lat="43.28479" lon="-1.64607">
        <ele>156</ele>
        <time>2021-06-21T07:38:34.523Z</time>
      </trkpt>
      <trkpt lat="43.28481" lon="-1.64604">
        <ele>156</ele>
        <time>2021-06-21T07:38:35.536Z</time>
      </trkpt>
      <trkpt lat="43.28482" lon="-1.64604">
        <ele>156</ele>
        <time>2021-06-21T07:38:36.512Z</time>
      </trkpt>
      <trkpt lat="43.28482" lon="-1.64604">
        <ele>156</ele>
        <time>2021-06-21T07:38:37.532Z</time>
      </trkpt>
      <trkpt lat="43.28486" lon="-1.64601">
        <ele>157</ele>
        <time>2021-06-21T07:38:38.544Z</time>
      </trkpt>
      <trkpt lat="43.28486" lon="-1.64601">
        <ele>157</ele>
        <time>2021-06-21T07:38:39.518Z</time>
      </trkpt>
      <trkpt lat="43.28489" lon="-1.64599">
        <ele>157</ele>
        <time>2021-06-21T07:38:40.531Z</time>
      </trkpt>
      <trkpt lat="43.28489" lon="-1.64599">
        <ele>157</ele>
        <time>2021-06-21T07:38:41.546Z</time>
      </trkpt>
      <trkpt lat="43.28491" lon="-1.64596">
        <ele>157</ele>
        <time>2021-06-21T07:38:42.519Z</time>
      </trkpt>
      <trkpt lat="43.28491" lon="-1.64594">
        <ele>157</ele>
        <time>2021-06-21T07:38:43.622Z</time>
      </trkpt>
      <trkpt lat="43.28491" lon="-1.64594">
        <ele>157</ele>
        <time>2021-06-21T07:38:44.520Z</time>
      </trkpt>
      <trkpt lat="43.28493" lon="-1.64591">
        <ele>158</ele>
        <time>2021-06-21T07:38:45.528Z</time>
      </trkpt>
      <trkpt lat="43.28493" lon="-1.64591">
        <ele>158</ele>
        <time>2021-06-21T07:38:46.512Z</time>
      </trkpt>
      <trkpt lat="43.28497" lon="-1.64587">
        <ele>158</ele>
        <time>2021-06-21T07:38:47.588Z</time>
      </trkpt>
      <trkpt lat="43.28497" lon="-1.64587">
        <ele>158</ele>
        <time>2021-06-21T07:38:48.511Z</time>
      </trkpt>
      <trkpt lat="43.28498" lon="-1.64584">
        <ele>159</ele>
        <time>2021-06-21T07:38:49.534Z</time>
      </trkpt>
      <trkpt lat="43.28498" lon="-1.64584">
        <ele>159</ele>
        <time>2021-06-21T07:38:50.511Z</time>
      </trkpt>
      <trkpt lat="43.28504" lon="-1.64577">
        <ele>160</ele>
        <time>2021-06-21T07:38:51.523Z</time>
      </trkpt>
      <trkpt lat="43.28504" lon="-1.64577">
        <ele>160</ele>
        <time>2021-06-21T07:38:52.540Z</time>
      </trkpt>
      <trkpt lat="43.28506" lon="-1.64573">
        <ele>160</ele>
        <time>2021-06-21T07:38:53.549Z</time>
      </trkpt>
      <trkpt lat="43.28506" lon="-1.64573">
        <ele>160</ele>
        <time>2021-06-21T07:38:54.513Z</time>
      </trkpt>
      <trkpt lat="43.28507" lon="-1.64571">
        <ele>160</ele>
        <time>2021-06-21T07:38:55.533Z</time>
      </trkpt>
      <trkpt lat="43.28508" lon="-1.64566">
        <ele>161</ele>
        <time>2021-06-21T07:38:56.542Z</time>
      </trkpt>
      <trkpt lat="43.28508" lon="-1.64566">
        <ele>161</ele>
        <time>2021-06-21T07:38:57.532Z</time>
      </trkpt>
      <trkpt lat="43.28509" lon="-1.64561">
        <ele>162</ele>
        <time>2021-06-21T07:38:58.538Z</time>
      </trkpt>
      <trkpt lat="43.28509" lon="-1.64561">
        <ele>162</ele>
        <time>2021-06-21T07:38:59.521Z</time>
      </trkpt>
      <trkpt lat="43.2851" lon="-1.64555">
        <ele>163</ele>
        <time>2021-06-21T07:39:00.528Z</time>
      </trkpt>
      <trkpt lat="43.2851" lon="-1.64555">
        <ele>163</ele>
        <time>2021-06-21T07:39:01.510Z</time>
      </trkpt>
      <trkpt lat="43.28514" lon="-1.64548">
        <ele>163</ele>
        <time>2021-06-21T07:39:02.515Z</time>
      </trkpt>
      <trkpt lat="43.28514" lon="-1.64548">
        <ele>163</ele>
        <time>2021-06-21T07:39:03.539Z</time>
      </trkpt>
      <trkpt lat="43.28516" lon="-1.6454">
        <ele>163</ele>
        <time>2021-06-21T07:39:04.548Z</time>
      </trkpt>
      <trkpt lat="43.28517" lon="-1.64536">
        <ele>163</ele>
        <time>2021-06-21T07:39:05.537Z</time>
      </trkpt>
      <trkpt lat="43.28518" lon="-1.64534">
        <ele>163</ele>
        <time>2021-06-21T07:39:06.519Z</time>
      </trkpt>
      <trkpt lat="43.28518" lon="-1.64534">
        <ele>163</ele>
        <time>2021-06-21T07:39:07.542Z</time>
      </trkpt>
      <trkpt lat="43.2852" lon="-1.64529">
        <ele>163</ele>
        <time>2021-06-21T07:39:08.631Z</time>
      </trkpt>
      <trkpt lat="43.2852" lon="-1.64529">
        <ele>163</ele>
        <time>2021-06-21T07:39:09.531Z</time>
      </trkpt>
      <trkpt lat="43.28523" lon="-1.64525">
        <ele>162</ele>
        <time>2021-06-21T07:39:10.557Z</time>
      </trkpt>
      <trkpt lat="43.28523" lon="-1.64525">
        <ele>162</ele>
        <time>2021-06-21T07:39:11.535Z</time>
      </trkpt>
      <trkpt lat="43.28524" lon="-1.64522">
        <ele>162</ele>
        <time>2021-06-21T07:39:12.642Z</time>
      </trkpt>
      <trkpt lat="43.28524" lon="-1.64522">
        <ele>162</ele>
        <time>2021-06-21T07:39:13.521Z</time>
      </trkpt>
      <trkpt lat="43.28525" lon="-1.64519">
        <ele>162</ele>
        <time>2021-06-21T07:39:14.527Z</time>
      </trkpt>
      <trkpt lat="43.28525" lon="-1.64519">
        <ele>162</ele>
        <time>2021-06-21T07:39:15.544Z</time>
      </trkpt>
      <trkpt lat="43.28526" lon="-1.64517">
        <ele>162</ele>
        <time>2021-06-21T07:39:16.510Z</time>
      </trkpt>
      <trkpt lat="43.28526" lon="-1.64517">
        <ele>162</ele>
        <time>2021-06-21T07:39:17.527Z</time>
      </trkpt>
      <trkpt lat="43.28529" lon="-1.64514">
        <ele>162</ele>
        <time>2021-06-21T07:39:18.538Z</time>
      </trkpt>
      <trkpt lat="43.28529" lon="-1.64514">
        <ele>162</ele>
        <time>2021-06-21T07:39:19.515Z</time>
      </trkpt>
      <trkpt lat="43.28532" lon="-1.64511">
        <ele>162</ele>
        <time>2021-06-21T07:39:20.606Z</time>
      </trkpt>
      <trkpt lat="43.28532" lon="-1.64511">
        <ele>162</ele>
        <time>2021-06-21T07:39:21.533Z</time>
      </trkpt>
      <trkpt lat="43.28536" lon="-1.64508">
        <ele>162</ele>
        <time>2021-06-21T07:39:22.511Z</time>
      </trkpt>
      <trkpt lat="43.28536" lon="-1.64508">
        <ele>162</ele>
        <time>2021-06-21T07:39:23.543Z</time>
      </trkpt>
      <trkpt lat="43.28539" lon="-1.64507">
        <ele>162</ele>
        <time>2021-06-21T07:39:24.522Z</time>
      </trkpt>
      <trkpt lat="43.28539" lon="-1.64507">
        <ele>162</ele>
        <time>2021-06-21T07:39:25.547Z</time>
      </trkpt>
      <trkpt lat="43.28542" lon="-1.64505">
        <ele>163</ele>
        <time>2021-06-21T07:39:26.512Z</time>
      </trkpt>
      <trkpt lat="43.28542" lon="-1.64505">
        <ele>163</ele>
        <time>2021-06-21T07:39:27.513Z</time>
      </trkpt>
      <trkpt lat="43.28544" lon="-1.64504">
        <ele>163</ele>
        <time>2021-06-21T07:39:28.518Z</time>
      </trkpt>
      <trkpt lat="43.28544" lon="-1.64504">
        <ele>163</ele>
        <time>2021-06-21T07:39:29.540Z</time>
      </trkpt>
      <trkpt lat="43.28547" lon="-1.64501">
        <ele>163</ele>
        <time>2021-06-21T07:39:30.546Z</time>
      </trkpt>
      <trkpt lat="43.28547" lon="-1.64501">
        <ele>163</ele>
        <time>2021-06-21T07:39:31.535Z</time>
      </trkpt>
      <trkpt lat="43.28549" lon="-1.64499">
        <ele>163</ele>
        <time>2021-06-21T07:39:32.541Z</time>
      </trkpt>
      <trkpt lat="43.28549" lon="-1.64499">
        <ele>163</ele>
        <time>2021-06-21T07:39:33.536Z</time>
      </trkpt>
      <trkpt lat="43.28553" lon="-1.64497">
        <ele>164</ele>
        <time>2021-06-21T07:39:34.545Z</time>
      </trkpt>
      <trkpt lat="43.28553" lon="-1.64497">
        <ele>164</ele>
        <time>2021-06-21T07:39:35.533Z</time>
      </trkpt>
      <trkpt lat="43.28557" lon="-1.64495">
        <ele>164</ele>
        <time>2021-06-21T07:39:36.540Z</time>
      </trkpt>
      <trkpt lat="43.28558" lon="-1.64494">
        <ele>164</ele>
        <time>2021-06-21T07:39:37.541Z</time>
      </trkpt>
      <trkpt lat="43.28558" lon="-1.64494">
        <ele>164</ele>
        <time>2021-06-21T07:39:38.522Z</time>
      </trkpt>
      <trkpt lat="43.2856" lon="-1.64492">
        <ele>164</ele>
        <time>2021-06-21T07:39:39.537Z</time>
      </trkpt>
      <trkpt lat="43.2856" lon="-1.64492">
        <ele>164</ele>
        <time>2021-06-21T07:39:40.517Z</time>
      </trkpt>
      <trkpt lat="43.28563" lon="-1.64488">
        <ele>164</ele>
        <time>2021-06-21T07:39:41.521Z</time>
      </trkpt>
      <trkpt lat="43.28566" lon="-1.64486">
        <ele>164</ele>
        <time>2021-06-21T07:39:42.549Z</time>
      </trkpt>
      <trkpt lat="43.28566" lon="-1.64486">
        <ele>164</ele>
        <time>2021-06-21T07:39:43.539Z</time>
      </trkpt>
      <trkpt lat="43.28571" lon="-1.64481">
        <ele>163</ele>
        <time>2021-06-21T07:39:44.549Z</time>
      </trkpt>
      <trkpt lat="43.28571" lon="-1.64481">
        <ele>163</ele>
        <time>2021-06-21T07:39:45.533Z</time>
      </trkpt>
      <trkpt lat="43.28574" lon="-1.64476">
        <ele>163</ele>
        <time>2021-06-21T07:39:46.545Z</time>
      </trkpt>
      <trkpt lat="43.28576" lon="-1.64474">
        <ele>163</ele>
        <time>2021-06-21T07:39:47.631Z</time>
      </trkpt>
      <trkpt lat="43.28578" lon="-1.64471">
        <ele>163</ele>
        <time>2021-06-21T07:39:48.526Z</time>
      </trkpt>
      <trkpt lat="43.28578" lon="-1.64471">
        <ele>163</ele>
        <time>2021-06-21T07:39:49.523Z</time>
      </trkpt>
      <trkpt lat="43.28581" lon="-1.64467">
        <ele>163</ele>
        <time>2021-06-21T07:39:50.539Z</time>
      </trkpt>
      <trkpt lat="43.28581" lon="-1.64467">
        <ele>163</ele>
        <time>2021-06-21T07:39:51.514Z</time>
      </trkpt>
      <trkpt lat="43.28584" lon="-1.64463">
        <ele>164</ele>
        <time>2021-06-21T07:39:52.520Z</time>
      </trkpt>
      <trkpt lat="43.28584" lon="-1.64463">
        <ele>164</ele>
        <time>2021-06-21T07:39:53.510Z</time>
      </trkpt>
      <trkpt lat="43.28586" lon="-1.64458">
        <ele>164</ele>
        <time>2021-06-21T07:39:54.526Z</time>
      </trkpt>
      <trkpt lat="43.28586" lon="-1.64458">
        <ele>164</ele>
        <time>2021-06-21T07:39:55.541Z</time>
      </trkpt>
      <trkpt lat="43.28586" lon="-1.64458">
        <ele>164</ele>
        <time>2021-06-21T07:39:56.509Z</time>
      </trkpt>
      <trkpt lat="43.28587" lon="-1.64453">
        <ele>164</ele>
        <time>2021-06-21T07:39:57.512Z</time>
      </trkpt>
      <trkpt lat="43.2859" lon="-1.64448">
        <ele>164</ele>
        <time>2021-06-21T07:39:58.589Z</time>
      </trkpt>
      <trkpt lat="43.2859" lon="-1.64448">
        <ele>164</ele>
        <time>2021-06-21T07:39:59.513Z</time>
      </trkpt>
      <trkpt lat="43.28592" lon="-1.64443">
        <ele>164</ele>
        <time>2021-06-21T07:40:00.519Z</time>
      </trkpt>
      <trkpt lat="43.28592" lon="-1.64443">
        <ele>164</ele>
        <time>2021-06-21T07:40:01.540Z</time>
      </trkpt>
      <trkpt lat="43.28593" lon="-1.64438">
        <ele>165</ele>
        <time>2021-06-21T07:40:02.548Z</time>
      </trkpt>
      <trkpt lat="43.28593" lon="-1.64438">
        <ele>165</ele>
        <time>2021-06-21T07:40:03.534Z</time>
      </trkpt>
      <trkpt lat="43.28597" lon="-1.64431">
        <ele>165</ele>
        <time>2021-06-21T07:40:04.539Z</time>
      </trkpt>
      <trkpt lat="43.28597" lon="-1.64431">
        <ele>165</ele>
        <time>2021-06-21T07:40:05.537Z</time>
      </trkpt>
      <trkpt lat="43.286" lon="-1.64425">
        <ele>166</ele>
        <time>2021-06-21T07:40:06.550Z</time>
      </trkpt>
      <trkpt lat="43.286" lon="-1.64425">
        <ele>166</ele>
        <time>2021-06-21T07:40:07.511Z</time>
      </trkpt>
      <trkpt lat="43.28603" lon="-1.6442">
        <ele>166</ele>
        <time>2021-06-21T07:40:08.619Z</time>
      </trkpt>
      <trkpt lat="43.28605" lon="-1.64417">
        <ele>167</ele>
        <time>2021-06-21T07:40:09.544Z</time>
      </trkpt>
      <trkpt lat="43.28606" lon="-1.64414">
        <ele>167</ele>
        <time>2021-06-21T07:40:10.525Z</time>
      </trkpt>
      <trkpt lat="43.28606" lon="-1.64414">
        <ele>167</ele>
        <time>2021-06-21T07:40:11.511Z</time>
      </trkpt>
      <trkpt lat="43.28608" lon="-1.64408">
        <ele>167</ele>
        <time>2021-06-21T07:40:12.521Z</time>
      </trkpt>
      <trkpt lat="43.28608" lon="-1.64408">
        <ele>167</ele>
        <time>2021-06-21T07:40:13.538Z</time>
      </trkpt>
      <trkpt lat="43.28608" lon="-1.64408">
        <ele>167</ele>
        <time>2021-06-21T07:40:14.625Z</time>
      </trkpt>
      <trkpt lat="43.2861" lon="-1.64403">
        <ele>168</ele>
        <time>2021-06-21T07:40:15.513Z</time>
      </trkpt>
      <trkpt lat="43.28612" lon="-1.64398">
        <ele>168</ele>
        <time>2021-06-21T07:40:16.520Z</time>
      </trkpt>
      <trkpt lat="43.28613" lon="-1.64395">
        <ele>169</ele>
        <time>2021-06-21T07:40:17.542Z</time>
      </trkpt>
      <trkpt lat="43.28615" lon="-1.64392">
        <ele>169</ele>
        <time>2021-06-21T07:40:18.521Z</time>
      </trkpt>
      <trkpt lat="43.28615" lon="-1.64392">
        <ele>169</ele>
        <time>2021-06-21T07:40:19.533Z</time>
      </trkpt>
      <trkpt lat="43.28617" lon="-1.64384">
        <ele>170</ele>
        <time>2021-06-21T07:40:20.544Z</time>
      </trkpt>
      <trkpt lat="43.28617" lon="-1.64384">
        <ele>170</ele>
        <time>2021-06-21T07:40:21.518Z</time>
      </trkpt>
      <trkpt lat="43.28618" lon="-1.64377">
        <ele>170</ele>
        <time>2021-06-21T07:40:22.543Z</time>
      </trkpt>
      <trkpt lat="43.28618" lon="-1.64377">
        <ele>170</ele>
        <time>2021-06-21T07:40:23.527Z</time>
      </trkpt>
      <trkpt lat="43.2862" lon="-1.64368">
        <ele>170</ele>
        <time>2021-06-21T07:40:24.540Z</time>
      </trkpt>
      <trkpt lat="43.2862" lon="-1.64368">
        <ele>170</ele>
        <time>2021-06-21T07:40:25.529Z</time>
      </trkpt>
      <trkpt lat="43.28624" lon="-1.64358">
        <ele>170</ele>
        <time>2021-06-21T07:40:26.541Z</time>
      </trkpt>
      <trkpt lat="43.28624" lon="-1.64352">
        <ele>170</ele>
        <time>2021-06-21T07:40:27.537Z</time>
      </trkpt>
      <trkpt lat="43.28624" lon="-1.64352">
        <ele>170</ele>
        <time>2021-06-21T07:40:28.523Z</time>
      </trkpt>
      <trkpt lat="43.28624" lon="-1.64337">
        <ele>170</ele>
        <time>2021-06-21T07:40:29.528Z</time>
      </trkpt>
      <trkpt lat="43.28624" lon="-1.64337">
        <ele>170</ele>
        <time>2021-06-21T07:40:30.509Z</time>
      </trkpt>
      <trkpt lat="43.28624" lon="-1.64328">
        <ele>170</ele>
        <time>2021-06-21T07:40:31.524Z</time>
      </trkpt>
      <trkpt lat="43.28625" lon="-1.64307">
        <ele>171</ele>
        <time>2021-06-21T07:40:32.533Z</time>
      </trkpt>
      <trkpt lat="43.28625" lon="-1.64307">
        <ele>171</ele>
        <time>2021-06-21T07:40:33.548Z</time>
      </trkpt>
      <trkpt lat="43.28625" lon="-1.64307">
        <ele>171</ele>
        <time>2021-06-21T07:40:34.517Z</time>
      </trkpt>
      <trkpt lat="43.28633" lon="-1.64285">
        <ele>171</ele>
        <time>2021-06-21T07:40:35.535Z</time>
      </trkpt>
      <trkpt lat="43.28636" lon="-1.64264">
        <ele>171</ele>
        <time>2021-06-21T07:40:36.511Z</time>
      </trkpt>
      <trkpt lat="43.28636" lon="-1.64264">
        <ele>171</ele>
        <time>2021-06-21T07:40:37.535Z</time>
      </trkpt>
      <trkpt lat="43.28637" lon="-1.64243">
        <ele>170</ele>
        <time>2021-06-21T07:40:38.581Z</time>
      </trkpt>
      <trkpt lat="43.28637" lon="-1.64243">
        <ele>170</ele>
        <time>2021-06-21T07:40:39.520Z</time>
      </trkpt>
      <trkpt lat="43.28635" lon="-1.64224">
        <ele>170</ele>
        <time>2021-06-21T07:40:40.526Z</time>
      </trkpt>
      <trkpt lat="43.28635" lon="-1.64224">
        <ele>170</ele>
        <time>2021-06-21T07:40:41.521Z</time>
      </trkpt>
      <trkpt lat="43.28632" lon="-1.64207">
        <ele>170</ele>
        <time>2021-06-21T07:40:42.537Z</time>
      </trkpt>
      <trkpt lat="43.28632" lon="-1.64207">
        <ele>170</ele>
        <time>2021-06-21T07:40:43.548Z</time>
      </trkpt>
      <trkpt lat="43.28629" lon="-1.64193">
        <ele>170</ele>
        <time>2021-06-21T07:40:44.520Z</time>
      </trkpt>
      <trkpt lat="43.28629" lon="-1.64193">
        <ele>170</ele>
        <time>2021-06-21T07:40:45.511Z</time>
      </trkpt>
      <trkpt lat="43.28624" lon="-1.64181">
        <ele>170</ele>
        <time>2021-06-21T07:40:46.517Z</time>
      </trkpt>
      <trkpt lat="43.28624" lon="-1.64181">
        <ele>170</ele>
        <time>2021-06-21T07:40:47.532Z</time>
      </trkpt>
      <trkpt lat="43.28624" lon="-1.64181">
        <ele>170</ele>
        <time>2021-06-21T07:40:48.509Z</time>
      </trkpt>
      <trkpt lat="43.2862" lon="-1.64173">
        <ele>170</ele>
        <time>2021-06-21T07:40:49.535Z</time>
      </trkpt>
      <trkpt lat="43.28617" lon="-1.64167">
        <ele>170</ele>
        <time>2021-06-21T07:40:50.546Z</time>
      </trkpt>
      <trkpt lat="43.28617" lon="-1.64167">
        <ele>170</ele>
        <time>2021-06-21T07:40:51.540Z</time>
      </trkpt>
      <trkpt lat="43.28613" lon="-1.64164">
        <ele>170</ele>
        <time>2021-06-21T07:40:52.510Z</time>
      </trkpt>
      <trkpt lat="43.28613" lon="-1.64164">
        <ele>170</ele>
        <time>2021-06-21T07:40:53.526Z</time>
      </trkpt>
      <trkpt lat="43.28611" lon="-1.64162">
        <ele>171</ele>
        <time>2021-06-21T07:40:54.535Z</time>
      </trkpt>
      <trkpt lat="43.28611" lon="-1.64162">
        <ele>171</ele>
        <time>2021-06-21T07:40:55.515Z</time>
      </trkpt>
      <trkpt lat="43.28608" lon="-1.6416">
        <ele>171</ele>
        <time>2021-06-21T07:40:56.629Z</time>
      </trkpt>
      <trkpt lat="43.28608" lon="-1.6416">
        <ele>171</ele>
        <time>2021-06-21T07:40:57.548Z</time>
      </trkpt>
      <trkpt lat="43.28605" lon="-1.64158">
        <ele>171</ele>
        <time>2021-06-21T07:40:58.513Z</time>
      </trkpt>
      <trkpt lat="43.28605" lon="-1.64158">
        <ele>171</ele>
        <time>2021-06-21T07:40:59.542Z</time>
      </trkpt>
      <trkpt lat="43.28605" lon="-1.64158">
        <ele>171</ele>
        <time>2021-06-21T07:41:00.511Z</time>
      </trkpt>
      <trkpt lat="43.28599" lon="-1.64157">
        <ele>171</ele>
        <time>2021-06-21T07:41:01.530Z</time>
      </trkpt>
      <trkpt lat="43.28595" lon="-1.64155">
        <ele>172</ele>
        <time>2021-06-21T07:41:02.540Z</time>
      </trkpt>
      <trkpt lat="43.28595" lon="-1.64155">
        <ele>172</ele>
        <time>2021-06-21T07:41:03.535Z</time>
      </trkpt>
      <trkpt lat="43.28595" lon="-1.64155">
        <ele>172</ele>
        <time>2021-06-21T07:41:04.511Z</time>
      </trkpt>
      <trkpt lat="43.28594" lon="-1.64152">
        <ele>172</ele>
        <time>2021-06-21T07:41:05.512Z</time>
      </trkpt>
      <trkpt lat="43.28592" lon="-1.64149">
        <ele>173</ele>
        <time>2021-06-21T07:41:06.625Z</time>
      </trkpt>
      <trkpt lat="43.28592" lon="-1.64149">
        <ele>173</ele>
        <time>2021-06-21T07:41:07.539Z</time>
      </trkpt>
      <trkpt lat="43.2859" lon="-1.64146">
        <ele>173</ele>
        <time>2021-06-21T07:41:08.547Z</time>
      </trkpt>
      <trkpt lat="43.2859" lon="-1.64146">
        <ele>173</ele>
        <time>2021-06-21T07:41:09.536Z</time>
      </trkpt>
      <trkpt lat="43.28588" lon="-1.64143">
        <ele>173</ele>
        <time>2021-06-21T07:41:10.544Z</time>
      </trkpt>
      <trkpt lat="43.28588" lon="-1.64143">
        <ele>173</ele>
        <time>2021-06-21T07:41:11.529Z</time>
      </trkpt>
      <trkpt lat="43.28586" lon="-1.64139">
        <ele>173</ele>
        <time>2021-06-21T07:41:12.662Z</time>
      </trkpt>
      <trkpt lat="43.28586" lon="-1.64139">
        <ele>173</ele>
        <time>2021-06-21T07:41:13.539Z</time>
      </trkpt>
      <trkpt lat="43.28586" lon="-1.64139">
        <ele>173</ele>
        <time>2021-06-21T07:41:14.511Z</time>
      </trkpt>
      <trkpt lat="43.28582" lon="-1.64137">
        <ele>174</ele>
        <time>2021-06-21T07:41:15.535Z</time>
      </trkpt>
      <trkpt lat="43.28581" lon="-1.64133">
        <ele>174</ele>
        <time>2021-06-21T07:41:16.540Z</time>
      </trkpt>
      <trkpt lat="43.28581" lon="-1.64133">
        <ele>174</ele>
        <time>2021-06-21T07:41:17.661Z</time>
      </trkpt>
      <trkpt lat="43.28579" lon="-1.6413">
        <ele>175</ele>
        <time>2021-06-21T07:41:18.534Z</time>
      </trkpt>
      <trkpt lat="43.28579" lon="-1.6413">
        <ele>175</ele>
        <time>2021-06-21T07:41:19.548Z</time>
      </trkpt>
      <trkpt lat="43.28579" lon="-1.6413">
        <ele>175</ele>
        <time>2021-06-21T07:41:20.514Z</time>
      </trkpt>
      <trkpt lat="43.28576" lon="-1.64126">
        <ele>176</ele>
        <time>2021-06-21T07:41:21.536Z</time>
      </trkpt>
      <trkpt lat="43.28576" lon="-1.64126">
        <ele>176</ele>
        <time>2021-06-21T07:41:22.542Z</time>
      </trkpt>
      <trkpt lat="43.28573" lon="-1.64122">
        <ele>176</ele>
        <time>2021-06-21T07:41:23.514Z</time>
      </trkpt>
      <trkpt lat="43.28572" lon="-1.64121">
        <ele>177</ele>
        <time>2021-06-21T07:41:24.528Z</time>
      </trkpt>
      <trkpt lat="43.28572" lon="-1.64121">
        <ele>177</ele>
        <time>2021-06-21T07:41:25.543Z</time>
      </trkpt>
      <trkpt lat="43.28569" lon="-1.64119">
        <ele>177</ele>
        <time>2021-06-21T07:41:26.550Z</time>
      </trkpt>
      <trkpt lat="43.28569" lon="-1.64119">
        <ele>177</ele>
        <time>2021-06-21T07:41:27.535Z</time>
      </trkpt>
      <trkpt lat="43.28567" lon="-1.64116">
        <ele>178</ele>
        <time>2021-06-21T07:41:28.541Z</time>
      </trkpt>
      <trkpt lat="43.28567" lon="-1.64116">
        <ele>178</ele>
        <time>2021-06-21T07:41:29.539Z</time>
      </trkpt>
      <trkpt lat="43.28565" lon="-1.64113">
        <ele>178</ele>
        <time>2021-06-21T07:41:30.546Z</time>
      </trkpt>
      <trkpt lat="43.28565" lon="-1.64113">
        <ele>178</ele>
        <time>2021-06-21T07:41:31.517Z</time>
      </trkpt>
      <trkpt lat="43.28563" lon="-1.6411">
        <ele>179</ele>
        <time>2021-06-21T07:41:32.523Z</time>
      </trkpt>
      <trkpt lat="43.28563" lon="-1.6411">
        <ele>179</ele>
        <time>2021-06-21T07:41:33.542Z</time>
      </trkpt>
      <trkpt lat="43.2856" lon="-1.64107">
        <ele>180</ele>
        <time>2021-06-21T07:41:34.548Z</time>
      </trkpt>
      <trkpt lat="43.2856" lon="-1.64107">
        <ele>180</ele>
        <time>2021-06-21T07:41:35.522Z</time>
      </trkpt>
      <trkpt lat="43.28557" lon="-1.64104">
        <ele>180</ele>
        <time>2021-06-21T07:41:36.528Z</time>
      </trkpt>
      <trkpt lat="43.28557" lon="-1.64104">
        <ele>180</ele>
        <time>2021-06-21T07:41:37.539Z</time>
      </trkpt>
      <trkpt lat="43.28557" lon="-1.64104">
        <ele>180</ele>
        <time>2021-06-21T07:41:38.509Z</time>
      </trkpt>
      <trkpt lat="43.28555" lon="-1.64101">
        <ele>181</ele>
        <time>2021-06-21T07:41:39.514Z</time>
      </trkpt>
      <trkpt lat="43.28552" lon="-1.64097">
        <ele>181</ele>
        <time>2021-06-21T07:41:40.520Z</time>
      </trkpt>
      <trkpt lat="43.28552" lon="-1.64097">
        <ele>181</ele>
        <time>2021-06-21T07:41:41.519Z</time>
      </trkpt>
      <trkpt lat="43.28552" lon="-1.64097">
        <ele>181</ele>
        <time>2021-06-21T07:41:42.620Z</time>
      </trkpt>
      <trkpt lat="43.2855" lon="-1.64094">
        <ele>182</ele>
        <time>2021-06-21T07:41:43.512Z</time>
      </trkpt>
      <trkpt lat="43.28546" lon="-1.64092">
        <ele>183</ele>
        <time>2021-06-21T07:41:44.520Z</time>
      </trkpt>
      <trkpt lat="43.28545" lon="-1.64091">
        <ele>183</ele>
        <time>2021-06-21T07:41:45.542Z</time>
      </trkpt>
      <trkpt lat="43.28545" lon="-1.64091">
        <ele>183</ele>
        <time>2021-06-21T07:41:46.519Z</time>
      </trkpt>
      <trkpt lat="43.28541" lon="-1.64089">
        <ele>184</ele>
        <time>2021-06-21T07:41:47.528Z</time>
      </trkpt>
      <trkpt lat="43.28541" lon="-1.64089">
        <ele>184</ele>
        <time>2021-06-21T07:41:48.509Z</time>
      </trkpt>
      <trkpt lat="43.28538" lon="-1.64088">
        <ele>185</ele>
        <time>2021-06-21T07:41:49.516Z</time>
      </trkpt>
      <trkpt lat="43.28538" lon="-1.64088">
        <ele>185</ele>
        <time>2021-06-21T07:41:50.535Z</time>
      </trkpt>
      <trkpt lat="43.28536" lon="-1.64086">
        <ele>185</ele>
        <time>2021-06-21T07:41:51.541Z</time>
      </trkpt>
      <trkpt lat="43.28536" lon="-1.64086">
        <ele>185</ele>
        <time>2021-06-21T07:41:52.521Z</time>
      </trkpt>
      <trkpt lat="43.28533" lon="-1.64086">
        <ele>186</ele>
        <time>2021-06-21T07:41:53.527Z</time>
      </trkpt>
      <trkpt lat="43.28532" lon="-1.64085">
        <ele>186</ele>
        <time>2021-06-21T07:41:54.521Z</time>
      </trkpt>
      <trkpt lat="43.28532" lon="-1.64085">
        <ele>186</ele>
        <time>2021-06-21T07:41:55.542Z</time>
      </trkpt>
      <trkpt lat="43.28532" lon="-1.64085">
        <ele>186</ele>
        <time>2021-06-21T07:41:56.509Z</time>
      </trkpt>
      <trkpt lat="43.2853" lon="-1.64085">
        <ele>187</ele>
        <time>2021-06-21T07:41:57.537Z</time>
      </trkpt>
      <trkpt lat="43.28526" lon="-1.64084">
        <ele>188</ele>
        <time>2021-06-21T07:41:58.544Z</time>
      </trkpt>
      <trkpt lat="43.28526" lon="-1.64084">
        <ele>188</ele>
        <time>2021-06-21T07:41:59.530Z</time>
      </trkpt>
      <trkpt lat="43.28521" lon="-1.64084">
        <ele>188</ele>
        <time>2021-06-21T07:42:00.551Z</time>
      </trkpt>
      <trkpt lat="43.28521" lon="-1.64084">
        <ele>188</ele>
        <time>2021-06-21T07:42:01.522Z</time>
      </trkpt>
      <trkpt lat="43.28519" lon="-1.64084">
        <ele>189</ele>
        <time>2021-06-21T07:42:02.527Z</time>
      </trkpt>
      <trkpt lat="43.28519" lon="-1.64084">
        <ele>189</ele>
        <time>2021-06-21T07:42:03.545Z</time>
      </trkpt>
      <trkpt lat="43.28514" lon="-1.64084">
        <ele>190</ele>
        <time>2021-06-21T07:42:04.511Z</time>
      </trkpt>
      <trkpt lat="43.28514" lon="-1.64084">
        <ele>190</ele>
        <time>2021-06-21T07:42:05.526Z</time>
      </trkpt>
      <trkpt lat="43.2851" lon="-1.64084">
        <ele>190</ele>
        <time>2021-06-21T07:42:06.534Z</time>
      </trkpt>
      <trkpt lat="43.2851" lon="-1.64084">
        <ele>190</ele>
        <time>2021-06-21T07:42:07.510Z</time>
      </trkpt>
      <trkpt lat="43.28508" lon="-1.64084">
        <ele>191</ele>
        <time>2021-06-21T07:42:08.535Z</time>
      </trkpt>
      <trkpt lat="43.28504" lon="-1.64083">
        <ele>191</ele>
        <time>2021-06-21T07:42:09.633Z</time>
      </trkpt>
      <trkpt lat="43.28504" lon="-1.64083">
        <ele>191</ele>
        <time>2021-06-21T07:42:10.528Z</time>
      </trkpt>
      <trkpt lat="43.28502" lon="-1.64083">
        <ele>192</ele>
        <time>2021-06-21T07:42:11.542Z</time>
      </trkpt>
      <trkpt lat="43.285" lon="-1.64083">
        <ele>192</ele>
        <time>2021-06-21T07:42:12.556Z</time>
      </trkpt>
      <trkpt lat="43.285" lon="-1.64083">
        <ele>192</ele>
        <time>2021-06-21T07:42:13.535Z</time>
      </trkpt>
      <trkpt lat="43.28499" lon="-1.64083">
        <ele>193</ele>
        <time>2021-06-21T07:42:14.541Z</time>
      </trkpt>
      <trkpt lat="43.28499" lon="-1.64083">
        <ele>193</ele>
        <time>2021-06-21T07:42:15.535Z</time>
      </trkpt>
      <trkpt lat="43.28498" lon="-1.64083">
        <ele>194</ele>
        <time>2021-06-21T07:42:16.541Z</time>
      </trkpt>
      <trkpt lat="43.28498" lon="-1.64083">
        <ele>194</ele>
        <time>2021-06-21T07:42:17.512Z</time>
      </trkpt>
      <trkpt lat="43.28496" lon="-1.64082">
        <ele>195</ele>
        <time>2021-06-21T07:42:18.546Z</time>
      </trkpt>
      <trkpt lat="43.28496" lon="-1.64082">
        <ele>195</ele>
        <time>2021-06-21T07:42:19.526Z</time>
      </trkpt>
      <trkpt lat="43.28493" lon="-1.64082">
        <ele>195</ele>
        <time>2021-06-21T07:42:20.538Z</time>
      </trkpt>
      <trkpt lat="43.28493" lon="-1.64082">
        <ele>195</ele>
        <time>2021-06-21T07:42:21.540Z</time>
      </trkpt>
      <trkpt lat="43.28489" lon="-1.64081">
        <ele>196</ele>
        <time>2021-06-21T07:42:22.518Z</time>
      </trkpt>
      <trkpt lat="43.28489" lon="-1.64081">
        <ele>196</ele>
        <time>2021-06-21T07:42:23.528Z</time>
      </trkpt>
      <trkpt lat="43.28486" lon="-1.64081">
        <ele>197</ele>
        <time>2021-06-21T07:42:24.538Z</time>
      </trkpt>
      <trkpt lat="43.28486" lon="-1.64081">
        <ele>197</ele>
        <time>2021-06-21T07:42:25.519Z</time>
      </trkpt>
      <trkpt lat="43.28481" lon="-1.64082">
        <ele>197</ele>
        <time>2021-06-21T07:42:26.541Z</time>
      </trkpt>
      <trkpt lat="43.28481" lon="-1.64082">
        <ele>197</ele>
        <time>2021-06-21T07:42:27.517Z</time>
      </trkpt>
      <trkpt lat="43.28473" lon="-1.64085">
        <ele>197</ele>
        <time>2021-06-21T07:42:28.523Z</time>
      </trkpt>
      <trkpt lat="43.28473" lon="-1.64085">
        <ele>197</ele>
        <time>2021-06-21T07:42:29.548Z</time>
      </trkpt>
      <trkpt lat="43.28473" lon="-1.64085">
        <ele>197</ele>
        <time>2021-06-21T07:42:30.523Z</time>
      </trkpt>
      <trkpt lat="43.28466" lon="-1.64086">
        <ele>196</ele>
        <time>2021-06-21T07:42:31.515Z</time>
      </trkpt>
      <trkpt lat="43.28466" lon="-1.64086">
        <ele>196</ele>
        <time>2021-06-21T07:42:32.521Z</time>
      </trkpt>
      <trkpt lat="43.28466" lon="-1.64086">
        <ele>196</ele>
        <time>2021-06-21T07:42:33.540Z</time>
      </trkpt>
      <trkpt lat="43.28466" lon="-1.64086">
        <ele>196</ele>
        <time>2021-06-21T07:42:34.546Z</time>
      </trkpt>
      <trkpt lat="43.28466" lon="-1.64086">
        <ele>196</ele>
        <time>2021-06-21T07:42:35.511Z</time>
      </trkpt>
      <trkpt lat="43.28466" lon="-1.64086">
        <ele>196</ele>
        <time>2021-06-21T07:42:36.531Z</time>
      </trkpt>
      <trkpt lat="43.28466" lon="-1.64086">
        <ele>196</ele>
        <time>2021-06-21T07:42:37.509Z</time>
      </trkpt>
      <trkpt lat="43.28466" lon="-1.64086">
        <ele>196</ele>
        <time>2021-06-21T07:42:38.524Z</time>
      </trkpt>
      <trkpt lat="43.28466" lon="-1.64086">
        <ele>196</ele>
        <time>2021-06-21T07:42:39.544Z</time>
      </trkpt>
      <trkpt lat="43.28457" lon="-1.64087">
        <ele>194</ele>
        <time>2021-06-21T07:42:40.520Z</time>
      </trkpt>
      <trkpt lat="43.28457" lon="-1.64087">
        <ele>194</ele>
        <time>2021-06-21T07:42:41.510Z</time>
      </trkpt>
      <trkpt lat="43.28456" lon="-1.64088">
        <ele>194</ele>
        <time>2021-06-21T07:42:42.511Z</time>
      </trkpt>
      <trkpt lat="43.28456" lon="-1.64088">
        <ele>194</ele>
        <time>2021-06-21T07:42:43.545Z</time>
      </trkpt>
      <trkpt lat="43.28456" lon="-1.64088">
        <ele>193</ele>
        <time>2021-06-21T07:42:44.523Z</time>
      </trkpt>
      <trkpt lat="43.28456" lon="-1.64088">
        <ele>193</ele>
        <time>2021-06-21T07:42:45.510Z</time>
      </trkpt>
      <trkpt lat="43.28456" lon="-1.64088">
        <ele>193</ele>
        <time>2021-06-21T07:42:46.510Z</time>
      </trkpt>
      <trkpt lat="43.28456" lon="-1.64088">
        <ele>193</ele>
        <time>2021-06-21T07:42:47.545Z</time>
      </trkpt>
      <trkpt lat="43.28456" lon="-1.64088">
        <ele>193</ele>
        <time>2021-06-21T07:42:48.521Z</time>
      </trkpt>
      <trkpt lat="43.28456" lon="-1.64088">
        <ele>193</ele>
        <time>2021-06-21T07:42:49.545Z</time>
      </trkpt>
      <trkpt lat="43.28456" lon="-1.64088">
        <ele>193</ele>
        <time>2021-06-21T07:42:50.521Z</time>
      </trkpt>
      <trkpt lat="43.28456" lon="-1.64088">
        <ele>193</ele>
        <time>2021-06-21T07:42:51.510Z</time>
      </trkpt>
      <trkpt lat="43.28456" lon="-1.64088">
        <ele>193</ele>
        <time>2021-06-21T07:42:52.544Z</time>
      </trkpt>
      <trkpt lat="43.28456" lon="-1.64088">
        <ele>193</ele>
        <time>2021-06-21T07:42:53.526Z</time>
      </trkpt>
      <trkpt lat="43.28456" lon="-1.64088">
        <ele>193</ele>
        <time>2021-06-21T07:42:54.516Z</time>
      </trkpt>
      <trkpt lat="43.28456" lon="-1.64088">
        <ele>193</ele>
        <time>2021-06-21T07:42:55.544Z</time>
      </trkpt>
      <trkpt lat="43.28456" lon="-1.64088">
        <ele>193</ele>
        <time>2021-06-21T07:42:56.520Z</time>
      </trkpt>
      <trkpt lat="43.28456" lon="-1.64088">
        <ele>193</ele>
        <time>2021-06-21T07:42:57.510Z</time>
      </trkpt>
      <trkpt lat="43.28456" lon="-1.64088">
        <ele>193</ele>
        <time>2021-06-21T07:42:58.549Z</time>
      </trkpt>
      <trkpt lat="43.28456" lon="-1.64088">
        <ele>193</ele>
        <time>2021-06-21T07:42:59.526Z</time>
      </trkpt>
      <trkpt lat="43.28456" lon="-1.64088">
        <ele>193</ele>
        <time>2021-06-21T07:43:00.517Z</time>
      </trkpt>
      <trkpt lat="43.28456" lon="-1.64088">
        <ele>193</ele>
        <time>2021-06-21T07:43:01.545Z</time>
      </trkpt>
      <trkpt lat="43.28456" lon="-1.64088">
        <ele>193</ele>
        <time>2021-06-21T07:43:02.520Z</time>
      </trkpt>
      <trkpt lat="43.28456" lon="-1.64088">
        <ele>193</ele>
        <time>2021-06-21T07:43:03.545Z</time>
      </trkpt>
      <trkpt lat="43.28456" lon="-1.64088">
        <ele>193</ele>
        <time>2021-06-21T07:43:04.527Z</time>
      </trkpt>
      <trkpt lat="43.28456" lon="-1.64088">
        <ele>193</ele>
        <time>2021-06-21T07:43:05.547Z</time>
      </trkpt>
      <trkpt lat="43.28456" lon="-1.64088">
        <ele>193</ele>
        <time>2021-06-21T07:43:06.523Z</time>
      </trkpt>
      <trkpt lat="43.28456" lon="-1.64088">
        <ele>193</ele>
        <time>2021-06-21T07:43:07.545Z</time>
      </trkpt>
      <trkpt lat="43.28456" lon="-1.64088">
        <ele>193</ele>
        <time>2021-06-21T07:43:08.521Z</time>
      </trkpt>
      <trkpt lat="43.28456" lon="-1.64088">
        <ele>193</ele>
        <time>2021-06-21T07:43:09.549Z</time>
      </trkpt>
      <trkpt lat="43.28456" lon="-1.64088">
        <ele>193</ele>
        <time>2021-06-21T07:43:10.529Z</time>
      </trkpt>
      <trkpt lat="43.28456" lon="-1.64088">
        <ele>193</ele>
        <time>2021-06-21T07:43:11.550Z</time>
      </trkpt>
      <trkpt lat="43.28456" lon="-1.64088">
        <ele>193</ele>
        <time>2021-06-21T07:43:12.526Z</time>
      </trkpt>
      <trkpt lat="43.28456" lon="-1.64088">
        <ele>193</ele>
        <time>2021-06-21T07:43:13.545Z</time>
      </trkpt>
      <trkpt lat="43.28456" lon="-1.64088">
        <ele>193</ele>
        <time>2021-06-21T07:43:14.522Z</time>
      </trkpt>
      <trkpt lat="43.28456" lon="-1.64088">
        <ele>193</ele>
        <time>2021-06-21T07:43:15.545Z</time>
      </trkpt>
      <trkpt lat="43.28456" lon="-1.64088">
        <ele>193</ele>
        <time>2021-06-21T07:43:16.524Z</time>
      </trkpt>
      <trkpt lat="43.28456" lon="-1.64088">
        <ele>193</ele>
        <time>2021-06-21T07:43:17.545Z</time>
      </trkpt>
      <trkpt lat="43.28456" lon="-1.64088">
        <ele>193</ele>
        <time>2021-06-21T07:43:18.521Z</time>
      </trkpt>
      <trkpt lat="43.28456" lon="-1.64088">
        <ele>193</ele>
        <time>2021-06-21T07:43:19.545Z</time>
      </trkpt>
      <trkpt lat="43.28456" lon="-1.64088">
        <ele>193</ele>
        <time>2021-06-21T07:43:20.528Z</time>
      </trkpt>
      <trkpt lat="43.28456" lon="-1.64088">
        <ele>193</ele>
        <time>2021-06-21T07:43:21.510Z</time>
      </trkpt>
      <trkpt lat="43.28456" lon="-1.64088">
        <ele>193</ele>
        <time>2021-06-21T07:43:22.511Z</time>
      </trkpt>
      <trkpt lat="43.28456" lon="-1.64088">
        <ele>193</ele>
        <time>2021-06-21T07:43:23.514Z</time>
      </trkpt>
      <trkpt lat="43.28456" lon="-1.64088">
        <ele>193</ele>
        <time>2021-06-21T07:43:24.512Z</time>
      </trkpt>
      <trkpt lat="43.28456" lon="-1.64088">
        <ele>193</ele>
        <time>2021-06-21T07:43:25.545Z</time>
      </trkpt>
      <trkpt lat="43.28456" lon="-1.64088">
        <ele>193</ele>
        <time>2021-06-21T07:43:26.521Z</time>
      </trkpt>
      <trkpt lat="43.28456" lon="-1.64088">
        <ele>193</ele>
        <time>2021-06-21T07:43:27.545Z</time>
      </trkpt>
      <trkpt lat="43.28456" lon="-1.64088">
        <ele>193</ele>
        <time>2021-06-21T07:43:28.521Z</time>
      </trkpt>
      <trkpt lat="43.28456" lon="-1.64088">
        <ele>193</ele>
        <time>2021-06-21T07:43:29.510Z</time>
      </trkpt>
      <trkpt lat="43.28456" lon="-1.64088">
        <ele>193</ele>
        <time>2021-06-21T07:43:30.509Z</time>
      </trkpt>
      <trkpt lat="43.28456" lon="-1.64088">
        <ele>193</ele>
        <time>2021-06-21T07:43:31.545Z</time>
      </trkpt>
      <trkpt lat="43.28456" lon="-1.64088">
        <ele>193</ele>
        <time>2021-06-21T07:43:32.524Z</time>
      </trkpt>
      <trkpt lat="43.28456" lon="-1.64088">
        <ele>193</ele>
        <time>2021-06-21T07:43:33.545Z</time>
      </trkpt>
      <trkpt lat="43.28456" lon="-1.64088">
        <ele>193</ele>
        <time>2021-06-21T07:43:34.522Z</time>
      </trkpt>
      <trkpt lat="43.28456" lon="-1.64088">
        <ele>193</ele>
        <time>2021-06-21T07:43:35.548Z</time>
      </trkpt>
      <trkpt lat="43.28456" lon="-1.64088">
        <ele>193</ele>
        <time>2021-06-21T07:43:36.524Z</time>
      </trkpt>
      <trkpt lat="43.28456" lon="-1.64088">
        <ele>193</ele>
        <time>2021-06-21T07:43:37.545Z</time>
      </trkpt>
      <trkpt lat="43.28456" lon="-1.64088">
        <ele>193</ele>
        <time>2021-06-21T07:43:38.521Z</time>
      </trkpt>
      <trkpt lat="43.28456" lon="-1.64088">
        <ele>193</ele>
        <time>2021-06-21T07:43:39.545Z</time>
      </trkpt>
      <trkpt lat="43.28456" lon="-1.64088">
        <ele>193</ele>
        <time>2021-06-21T07:43:40.522Z</time>
      </trkpt>
      <trkpt lat="43.28456" lon="-1.64088">
        <ele>193</ele>
        <time>2021-06-21T07:43:41.546Z</time>
      </trkpt>
      <trkpt lat="43.28456" lon="-1.64088">
        <ele>193</ele>
        <time>2021-06-21T07:43:42.522Z</time>
      </trkpt>
      <trkpt lat="43.28456" lon="-1.64088">
        <ele>193</ele>
        <time>2021-06-21T07:43:43.547Z</time>
      </trkpt>
      <trkpt lat="43.28455" lon="-1.64085">
        <ele>187</ele>
        <time>2021-06-21T07:43:44.523Z</time>
      </trkpt>
      <trkpt lat="43.28455" lon="-1.64085">
        <ele>187</ele>
        <time>2021-06-21T07:43:45.511Z</time>
      </trkpt>
      <trkpt lat="43.28455" lon="-1.64084">
        <ele>187</ele>
        <time>2021-06-21T07:43:46.545Z</time>
      </trkpt>
      <trkpt lat="43.28454" lon="-1.64082">
        <ele>187</ele>
        <time>2021-06-21T07:43:47.521Z</time>
      </trkpt>
      <trkpt lat="43.28454" lon="-1.64082">
        <ele>187</ele>
        <time>2021-06-21T07:43:48.512Z</time>
      </trkpt>
      <trkpt lat="43.28453" lon="-1.6408">
        <ele>186</ele>
        <time>2021-06-21T07:43:49.510Z</time>
      </trkpt>
      <trkpt lat="43.28452" lon="-1.6408">
        <ele>186</ele>
        <time>2021-06-21T07:43:50.545Z</time>
      </trkpt>
      <trkpt lat="43.28449" lon="-1.64081">
        <ele>186</ele>
        <time>2021-06-21T07:43:51.524Z</time>
      </trkpt>
      <trkpt lat="43.28449" lon="-1.64081">
        <ele>186</ele>
        <time>2021-06-21T07:43:52.509Z</time>
      </trkpt>
      <trkpt lat="43.28449" lon="-1.6408">
        <ele>185</ele>
        <time>2021-06-21T07:43:53.511Z</time>
      </trkpt>
      <trkpt lat="43.28448" lon="-1.64078">
        <ele>185</ele>
        <time>2021-06-21T07:43:54.547Z</time>
      </trkpt>
      <trkpt lat="43.28447" lon="-1.64077">
        <ele>185</ele>
        <time>2021-06-21T07:43:55.553Z</time>
      </trkpt>
      <trkpt lat="43.28447" lon="-1.64077">
        <ele>185</ele>
        <time>2021-06-21T07:43:56.512Z</time>
      </trkpt>
      <trkpt lat="43.28446" lon="-1.64074">
        <ele>185</ele>
        <time>2021-06-21T07:43:57.518Z</time>
      </trkpt>
      <trkpt lat="43.28446" lon="-1.64074">
        <ele>185</ele>
        <time>2021-06-21T07:43:58.537Z</time>
      </trkpt>
      <trkpt lat="43.28445" lon="-1.64072">
        <ele>185</ele>
        <time>2021-06-21T07:43:59.544Z</time>
      </trkpt>
      <trkpt lat="43.28444" lon="-1.64071">
        <ele>185</ele>
        <time>2021-06-21T07:44:00.540Z</time>
      </trkpt>
      <trkpt lat="43.28444" lon="-1.64071">
        <ele>185</ele>
        <time>2021-06-21T07:44:01.523Z</time>
      </trkpt>
      <trkpt lat="43.28441" lon="-1.64068">
        <ele>185</ele>
        <time>2021-06-21T07:44:02.530Z</time>
      </trkpt>
      <trkpt lat="43.28441" lon="-1.64068">
        <ele>185</ele>
        <time>2021-06-21T07:44:03.529Z</time>
      </trkpt>
      <trkpt lat="43.28438" lon="-1.64067">
        <ele>184</ele>
        <time>2021-06-21T07:44:04.535Z</time>
      </trkpt>
      <trkpt lat="43.28438" lon="-1.64067">
        <ele>184</ele>
        <time>2021-06-21T07:44:05.514Z</time>
      </trkpt>
      <trkpt lat="43.28436" lon="-1.64065">
        <ele>184</ele>
        <time>2021-06-21T07:44:06.520Z</time>
      </trkpt>
      <trkpt lat="43.28436" lon="-1.64065">
        <ele>184</ele>
        <time>2021-06-21T07:44:07.514Z</time>
      </trkpt>
      <trkpt lat="43.28436" lon="-1.64065">
        <ele>184</ele>
        <time>2021-06-21T07:44:08.510Z</time>
      </trkpt>
      <trkpt lat="43.28433" lon="-1.64063">
        <ele>184</ele>
        <time>2021-06-21T07:44:09.542Z</time>
      </trkpt>
      <trkpt lat="43.28431" lon="-1.64061">
        <ele>184</ele>
        <time>2021-06-21T07:44:10.548Z</time>
      </trkpt>
      <trkpt lat="43.28431" lon="-1.64061">
        <ele>184</ele>
        <time>2021-06-21T07:44:11.531Z</time>
      </trkpt>
      <trkpt lat="43.28431" lon="-1.64058">
        <ele>184</ele>
        <time>2021-06-21T07:44:12.537Z</time>
      </trkpt>
      <trkpt lat="43.28431" lon="-1.64058">
        <ele>184</ele>
        <time>2021-06-21T07:44:13.518Z</time>
      </trkpt>
      <trkpt lat="43.2843" lon="-1.64055">
        <ele>184</ele>
        <time>2021-06-21T07:44:14.523Z</time>
      </trkpt>
      <trkpt lat="43.2843" lon="-1.64055">
        <ele>184</ele>
        <time>2021-06-21T07:44:15.518Z</time>
      </trkpt>
      <trkpt lat="43.28428" lon="-1.64053">
        <ele>184</ele>
        <time>2021-06-21T07:44:16.575Z</time>
      </trkpt>
      <trkpt lat="43.28428" lon="-1.64053">
        <ele>184</ele>
        <time>2021-06-21T07:44:17.512Z</time>
      </trkpt>
      <trkpt lat="43.28425" lon="-1.64052">
        <ele>184</ele>
        <time>2021-06-21T07:44:18.547Z</time>
      </trkpt>
      <trkpt lat="43.28425" lon="-1.64052">
        <ele>184</ele>
        <time>2021-06-21T07:44:19.522Z</time>
      </trkpt>
      <trkpt lat="43.28423" lon="-1.6405">
        <ele>184</ele>
        <time>2021-06-21T07:44:20.530Z</time>
      </trkpt>
      <trkpt lat="43.28423" lon="-1.6405">
        <ele>184</ele>
        <time>2021-06-21T07:44:21.547Z</time>
      </trkpt>
      <trkpt lat="43.28416" lon="-1.64047">
        <ele>184</ele>
        <time>2021-06-21T07:44:22.527Z</time>
      </trkpt>
      <trkpt lat="43.28416" lon="-1.64047">
        <ele>184</ele>
        <time>2021-06-21T07:44:23.521Z</time>
      </trkpt>
      <trkpt lat="43.28412" lon="-1.64044">
        <ele>184</ele>
        <time>2021-06-21T07:44:24.527Z</time>
      </trkpt>
      <trkpt lat="43.2841" lon="-1.64044">
        <ele>184</ele>
        <time>2021-06-21T07:44:25.521Z</time>
      </trkpt>
      <trkpt lat="43.2841" lon="-1.64044">
        <ele>184</ele>
        <time>2021-06-21T07:44:26.540Z</time>
      </trkpt>
      <trkpt lat="43.28408" lon="-1.64043">
        <ele>184</ele>
        <time>2021-06-21T07:44:27.547Z</time>
      </trkpt>
      <trkpt lat="43.28408" lon="-1.64043">
        <ele>184</ele>
        <time>2021-06-21T07:44:28.537Z</time>
      </trkpt>
      <trkpt lat="43.28406" lon="-1.64042">
        <ele>184</ele>
        <time>2021-06-21T07:44:29.542Z</time>
      </trkpt>
      <trkpt lat="43.28405" lon="-1.64041">
        <ele>184</ele>
        <time>2021-06-21T07:44:30.515Z</time>
      </trkpt>
      <trkpt lat="43.28405" lon="-1.64041">
        <ele>184</ele>
        <time>2021-06-21T07:44:31.531Z</time>
      </trkpt>
      <trkpt lat="43.28402" lon="-1.6404">
        <ele>184</ele>
        <time>2021-06-21T07:44:32.541Z</time>
      </trkpt>
      <trkpt lat="43.28402" lon="-1.6404">
        <ele>184</ele>
        <time>2021-06-21T07:44:33.538Z</time>
      </trkpt>
      <trkpt lat="43.28402" lon="-1.6404">
        <ele>184</ele>
        <time>2021-06-21T07:44:34.551Z</time>
      </trkpt>
      <trkpt lat="43.28398" lon="-1.64039">
        <ele>184</ele>
        <time>2021-06-21T07:44:35.534Z</time>
      </trkpt>
      <trkpt lat="43.28395" lon="-1.64038">
        <ele>184</ele>
        <time>2021-06-21T07:44:36.541Z</time>
      </trkpt>
      <trkpt lat="43.28395" lon="-1.64038">
        <ele>184</ele>
        <time>2021-06-21T07:44:37.520Z</time>
      </trkpt>
      <trkpt lat="43.28392" lon="-1.64035">
        <ele>184</ele>
        <time>2021-06-21T07:44:38.526Z</time>
      </trkpt>
      <trkpt lat="43.28392" lon="-1.64035">
        <ele>184</ele>
        <time>2021-06-21T07:44:39.511Z</time>
      </trkpt>
      <trkpt lat="43.2839" lon="-1.64034">
        <ele>184</ele>
        <time>2021-06-21T07:44:40.517Z</time>
      </trkpt>
      <trkpt lat="43.2839" lon="-1.64034">
        <ele>184</ele>
        <time>2021-06-21T07:44:41.509Z</time>
      </trkpt>
      <trkpt lat="43.28387" lon="-1.64032">
        <ele>184</ele>
        <time>2021-06-21T07:44:42.527Z</time>
      </trkpt>
      <trkpt lat="43.28387" lon="-1.64032">
        <ele>184</ele>
        <time>2021-06-21T07:44:43.512Z</time>
      </trkpt>
      <trkpt lat="43.28385" lon="-1.6403">
        <ele>184</ele>
        <time>2021-06-21T07:44:44.517Z</time>
      </trkpt>
      <trkpt lat="43.28385" lon="-1.6403">
        <ele>184</ele>
        <time>2021-06-21T07:44:45.538Z</time>
      </trkpt>
      <trkpt lat="43.28381" lon="-1.64028">
        <ele>184</ele>
        <time>2021-06-21T07:44:46.654Z</time>
      </trkpt>
      <trkpt lat="43.28381" lon="-1.64028">
        <ele>184</ele>
        <time>2021-06-21T07:44:47.523Z</time>
      </trkpt>
      <trkpt lat="43.28379" lon="-1.64026">
        <ele>184</ele>
        <time>2021-06-21T07:44:48.529Z</time>
      </trkpt>
      <trkpt lat="43.28379" lon="-1.64026">
        <ele>184</ele>
        <time>2021-06-21T07:44:49.545Z</time>
      </trkpt>
      <trkpt lat="43.28379" lon="-1.64026">
        <ele>184</ele>
        <time>2021-06-21T07:44:50.512Z</time>
      </trkpt>
      <trkpt lat="43.28376" lon="-1.64024">
        <ele>184</ele>
        <time>2021-06-21T07:44:51.529Z</time>
      </trkpt>
      <trkpt lat="43.28369" lon="-1.64022">
        <ele>184</ele>
        <time>2021-06-21T07:44:52.546Z</time>
      </trkpt>
      <trkpt lat="43.28369" lon="-1.64022">
        <ele>184</ele>
        <time>2021-06-21T07:44:53.510Z</time>
      </trkpt>
      <trkpt lat="43.28364" lon="-1.6402">
        <ele>184</ele>
        <time>2021-06-21T07:44:54.528Z</time>
      </trkpt>
      <trkpt lat="43.28364" lon="-1.6402">
        <ele>184</ele>
        <time>2021-06-21T07:44:55.516Z</time>
      </trkpt>
      <trkpt lat="43.28363" lon="-1.64017">
        <ele>184</ele>
        <time>2021-06-21T07:44:56.526Z</time>
      </trkpt>
      <trkpt lat="43.28363" lon="-1.64017">
        <ele>184</ele>
        <time>2021-06-21T07:44:57.511Z</time>
      </trkpt>
      <trkpt lat="43.28362" lon="-1.64015">
        <ele>185</ele>
        <time>2021-06-21T07:44:58.510Z</time>
      </trkpt>
      <trkpt lat="43.28362" lon="-1.64015">
        <ele>185</ele>
        <time>2021-06-21T07:44:59.516Z</time>
      </trkpt>
      <trkpt lat="43.2836" lon="-1.64011">
        <ele>185</ele>
        <time>2021-06-21T07:45:00.512Z</time>
      </trkpt>
      <trkpt lat="43.28359" lon="-1.64009">
        <ele>185</ele>
        <time>2021-06-21T07:45:01.534Z</time>
      </trkpt>
      <trkpt lat="43.28356" lon="-1.64006">
        <ele>185</ele>
        <time>2021-06-21T07:45:02.540Z</time>
      </trkpt>
      <trkpt lat="43.28355" lon="-1.64004">
        <ele>185</ele>
        <time>2021-06-21T07:45:03.543Z</time>
      </trkpt>
      <trkpt lat="43.28355" lon="-1.64004">
        <ele>185</ele>
        <time>2021-06-21T07:45:04.548Z</time>
      </trkpt>
      <trkpt lat="43.28351" lon="-1.64">
        <ele>185</ele>
        <time>2021-06-21T07:45:05.516Z</time>
      </trkpt>
      <trkpt lat="43.28349" lon="-1.63998">
        <ele>185</ele>
        <time>2021-06-21T07:45:06.544Z</time>
      </trkpt>
      <trkpt lat="43.28349" lon="-1.63998">
        <ele>185</ele>
        <time>2021-06-21T07:45:07.515Z</time>
      </trkpt>
      <trkpt lat="43.28346" lon="-1.63994">
        <ele>185</ele>
        <time>2021-06-21T07:45:08.520Z</time>
      </trkpt>
      <trkpt lat="43.28346" lon="-1.63994">
        <ele>185</ele>
        <time>2021-06-21T07:45:09.521Z</time>
      </trkpt>
      <trkpt lat="43.28344" lon="-1.6399">
        <ele>186</ele>
        <time>2021-06-21T07:45:10.527Z</time>
      </trkpt>
      <trkpt lat="43.28344" lon="-1.6399">
        <ele>186</ele>
        <time>2021-06-21T07:45:11.519Z</time>
      </trkpt>
      <trkpt lat="43.28343" lon="-1.63984">
        <ele>186</ele>
        <time>2021-06-21T07:45:12.525Z</time>
      </trkpt>
      <trkpt lat="43.28343" lon="-1.63984">
        <ele>186</ele>
        <time>2021-06-21T07:45:13.542Z</time>
      </trkpt>
      <trkpt lat="43.28343" lon="-1.63984">
        <ele>186</ele>
        <time>2021-06-21T07:45:14.510Z</time>
      </trkpt>
      <trkpt lat="43.28343" lon="-1.63981">
        <ele>186</ele>
        <time>2021-06-21T07:45:15.538Z</time>
      </trkpt>
      <trkpt lat="43.28341" lon="-1.63975">
        <ele>186</ele>
        <time>2021-06-21T07:45:16.545Z</time>
      </trkpt>
      <trkpt lat="43.28341" lon="-1.63975">
        <ele>186</ele>
        <time>2021-06-21T07:45:17.539Z</time>
      </trkpt>
      <trkpt lat="43.2834" lon="-1.63971">
        <ele>186</ele>
        <time>2021-06-21T07:45:18.546Z</time>
      </trkpt>
      <trkpt lat="43.2834" lon="-1.63971">
        <ele>186</ele>
        <time>2021-06-21T07:45:19.543Z</time>
      </trkpt>
      <trkpt lat="43.2834" lon="-1.63971">
        <ele>186</ele>
        <time>2021-06-21T07:45:20.510Z</time>
      </trkpt>
      <trkpt lat="43.2834" lon="-1.63966">
        <ele>185</ele>
        <time>2021-06-21T07:45:21.535Z</time>
      </trkpt>
      <trkpt lat="43.2834" lon="-1.63966">
        <ele>185</ele>
        <time>2021-06-21T07:45:22.513Z</time>
      </trkpt>
      <trkpt lat="43.2834" lon="-1.6396">
        <ele>184</ele>
        <time>2021-06-21T07:45:23.529Z</time>
      </trkpt>
      <trkpt lat="43.28338" lon="-1.63954">
        <ele>184</ele>
        <time>2021-06-21T07:45:24.535Z</time>
      </trkpt>
      <trkpt lat="43.28338" lon="-1.63954">
        <ele>184</ele>
        <time>2021-06-21T07:45:25.510Z</time>
      </trkpt>
      <trkpt lat="43.28337" lon="-1.63948">
        <ele>183</ele>
        <time>2021-06-21T07:45:26.519Z</time>
      </trkpt>
      <trkpt lat="43.28337" lon="-1.63948">
        <ele>183</ele>
        <time>2021-06-21T07:45:27.512Z</time>
      </trkpt>
      <trkpt lat="43.28336" lon="-1.63943">
        <ele>183</ele>
        <time>2021-06-21T07:45:28.519Z</time>
      </trkpt>
      <trkpt lat="43.28336" lon="-1.63943">
        <ele>183</ele>
        <time>2021-06-21T07:45:29.519Z</time>
      </trkpt>
      <trkpt lat="43.28336" lon="-1.63939">
        <ele>183</ele>
        <time>2021-06-21T07:45:30.546Z</time>
      </trkpt>
      <trkpt lat="43.28336" lon="-1.63939">
        <ele>183</ele>
        <time>2021-06-21T07:45:31.509Z</time>
      </trkpt>
      <trkpt lat="43.28335" lon="-1.63934">
        <ele>182</ele>
        <time>2021-06-21T07:45:32.518Z</time>
      </trkpt>
      <trkpt lat="43.28335" lon="-1.63934">
        <ele>182</ele>
        <time>2021-06-21T07:45:33.542Z</time>
      </trkpt>
      <trkpt lat="43.28335" lon="-1.63934">
        <ele>182</ele>
        <time>2021-06-21T07:45:34.513Z</time>
      </trkpt>
      <trkpt lat="43.28334" lon="-1.63929">
        <ele>182</ele>
        <time>2021-06-21T07:45:35.519Z</time>
      </trkpt>
      <trkpt lat="43.28332" lon="-1.63924">
        <ele>182</ele>
        <time>2021-06-21T07:45:36.534Z</time>
      </trkpt>
      <trkpt lat="43.28332" lon="-1.63924">
        <ele>182</ele>
        <time>2021-06-21T07:45:37.519Z</time>
      </trkpt>
      <trkpt lat="43.28329" lon="-1.63919">
        <ele>182</ele>
        <time>2021-06-21T07:45:38.526Z</time>
      </trkpt>
      <trkpt lat="43.28329" lon="-1.63919">
        <ele>182</ele>
        <time>2021-06-21T07:45:39.517Z</time>
      </trkpt>
      <trkpt lat="43.28326" lon="-1.63915">
        <ele>182</ele>
        <time>2021-06-21T07:45:40.523Z</time>
      </trkpt>
      <trkpt lat="43.28326" lon="-1.63915">
        <ele>182</ele>
        <time>2021-06-21T07:45:41.523Z</time>
      </trkpt>
      <trkpt lat="43.28324" lon="-1.6391">
        <ele>183</ele>
        <time>2021-06-21T07:45:42.532Z</time>
      </trkpt>
      <trkpt lat="43.28324" lon="-1.6391">
        <ele>183</ele>
        <time>2021-06-21T07:45:43.547Z</time>
      </trkpt>
      <trkpt lat="43.2832" lon="-1.63906">
        <ele>183</ele>
        <time>2021-06-21T07:45:44.513Z</time>
      </trkpt>
      <trkpt lat="43.2832" lon="-1.63906">
        <ele>183</ele>
        <time>2021-06-21T07:45:45.539Z</time>
      </trkpt>
      <trkpt lat="43.2832" lon="-1.63903">
        <ele>183</ele>
        <time>2021-06-21T07:45:46.545Z</time>
      </trkpt>
      <trkpt lat="43.2832" lon="-1.63903">
        <ele>183</ele>
        <time>2021-06-21T07:45:47.527Z</time>
      </trkpt>
      <trkpt lat="43.2832" lon="-1.63903">
        <ele>183</ele>
        <time>2021-06-21T07:45:48.510Z</time>
      </trkpt>
      <trkpt lat="43.28318" lon="-1.63899">
        <ele>183</ele>
        <time>2021-06-21T07:45:49.524Z</time>
      </trkpt>
      <trkpt lat="43.28314" lon="-1.63895">
        <ele>184</ele>
        <time>2021-06-21T07:45:50.530Z</time>
      </trkpt>
      <trkpt lat="43.28312" lon="-1.63894">
        <ele>184</ele>
        <time>2021-06-21T07:45:51.543Z</time>
      </trkpt>
      <trkpt lat="43.28312" lon="-1.63894">
        <ele>184</ele>
        <time>2021-06-21T07:45:52.522Z</time>
      </trkpt>
      <trkpt lat="43.28309" lon="-1.63889">
        <ele>185</ele>
        <time>2021-06-21T07:45:53.530Z</time>
      </trkpt>
      <trkpt lat="43.28309" lon="-1.63889">
        <ele>185</ele>
        <time>2021-06-21T07:45:54.509Z</time>
      </trkpt>
      <trkpt lat="43.28307" lon="-1.63888">
        <ele>185</ele>
        <time>2021-06-21T07:45:55.548Z</time>
      </trkpt>
      <trkpt lat="43.28307" lon="-1.63888">
        <ele>185</ele>
        <time>2021-06-21T07:45:56.514Z</time>
      </trkpt>
      <trkpt lat="43.28303" lon="-1.63884">
        <ele>185</ele>
        <time>2021-06-21T07:45:57.530Z</time>
      </trkpt>
      <trkpt lat="43.28301" lon="-1.63881">
        <ele>186</ele>
        <time>2021-06-21T07:45:58.536Z</time>
      </trkpt>
      <trkpt lat="43.28299" lon="-1.63879">
        <ele>186</ele>
        <time>2021-06-21T07:45:59.548Z</time>
      </trkpt>
      <trkpt lat="43.28299" lon="-1.63879">
        <ele>186</ele>
        <time>2021-06-21T07:46:00.534Z</time>
      </trkpt>
      <trkpt lat="43.28296" lon="-1.63876">
        <ele>186</ele>
        <time>2021-06-21T07:46:01.540Z</time>
      </trkpt>
      <trkpt lat="43.28296" lon="-1.63876">
        <ele>186</ele>
        <time>2021-06-21T07:46:02.517Z</time>
      </trkpt>
      <trkpt lat="43.28296" lon="-1.63876">
        <ele>186</ele>
        <time>2021-06-21T07:46:03.512Z</time>
      </trkpt>
      <trkpt lat="43.28293" lon="-1.63873">
        <ele>186</ele>
        <time>2021-06-21T07:46:04.517Z</time>
      </trkpt>
      <trkpt lat="43.2829" lon="-1.63868">
        <ele>187</ele>
        <time>2021-06-21T07:46:05.523Z</time>
      </trkpt>
      <trkpt lat="43.28289" lon="-1.63866">
        <ele>188</ele>
        <time>2021-06-21T07:46:06.523Z</time>
      </trkpt>
      <trkpt lat="43.28289" lon="-1.63866">
        <ele>188</ele>
        <time>2021-06-21T07:46:07.545Z</time>
      </trkpt>
      <trkpt lat="43.28289" lon="-1.63866">
        <ele>188</ele>
        <time>2021-06-21T07:46:08.514Z</time>
      </trkpt>
      <trkpt lat="43.28288" lon="-1.63861">
        <ele>188</ele>
        <time>2021-06-21T07:46:09.542Z</time>
      </trkpt>
      <trkpt lat="43.28288" lon="-1.63861">
        <ele>188</ele>
        <time>2021-06-21T07:46:10.509Z</time>
      </trkpt>
      <trkpt lat="43.28287" lon="-1.63851">
        <ele>188</ele>
        <time>2021-06-21T07:46:11.533Z</time>
      </trkpt>
      <trkpt lat="43.28287" lon="-1.63849">
        <ele>188</ele>
        <time>2021-06-21T07:46:12.547Z</time>
      </trkpt>
      <trkpt lat="43.28287" lon="-1.63849">
        <ele>188</ele>
        <time>2021-06-21T07:46:13.522Z</time>
      </trkpt>
      <trkpt lat="43.28287" lon="-1.63849">
        <ele>188</ele>
        <time>2021-06-21T07:46:14.631Z</time>
      </trkpt>
      <trkpt lat="43.28286" lon="-1.63844">
        <ele>188</ele>
        <time>2021-06-21T07:46:15.542Z</time>
      </trkpt>
      <trkpt lat="43.28286" lon="-1.63844">
        <ele>188</ele>
        <time>2021-06-21T07:46:16.515Z</time>
      </trkpt>
      <trkpt lat="43.28286" lon="-1.63839">
        <ele>188</ele>
        <time>2021-06-21T07:46:17.540Z</time>
      </trkpt>
      <trkpt lat="43.28285" lon="-1.63834">
        <ele>189</ele>
        <time>2021-06-21T07:46:18.549Z</time>
      </trkpt>
      <trkpt lat="43.28285" lon="-1.63834">
        <ele>189</ele>
        <time>2021-06-21T07:46:19.542Z</time>
      </trkpt>
      <trkpt lat="43.28285" lon="-1.63834">
        <ele>189</ele>
        <time>2021-06-21T07:46:20.513Z</time>
      </trkpt>
      <trkpt lat="43.28284" lon="-1.63829">
        <ele>189</ele>
        <time>2021-06-21T07:46:21.534Z</time>
      </trkpt>
      <trkpt lat="43.28284" lon="-1.63829">
        <ele>189</ele>
        <time>2021-06-21T07:46:22.512Z</time>
      </trkpt>
      <trkpt lat="43.28284" lon="-1.63823">
        <ele>190</ele>
        <time>2021-06-21T07:46:23.513Z</time>
      </trkpt>
      <trkpt lat="43.28285" lon="-1.63817">
        <ele>191</ele>
        <time>2021-06-21T07:46:24.525Z</time>
      </trkpt>
      <trkpt lat="43.28285" lon="-1.63817">
        <ele>191</ele>
        <time>2021-06-21T07:46:25.529Z</time>
      </trkpt>
      <trkpt lat="43.28285" lon="-1.63812">
        <ele>191</ele>
        <time>2021-06-21T07:46:26.547Z</time>
      </trkpt>
      <trkpt lat="43.28285" lon="-1.63812">
        <ele>191</ele>
        <time>2021-06-21T07:46:27.523Z</time>
      </trkpt>
      <trkpt lat="43.28285" lon="-1.63808">
        <ele>191</ele>
        <time>2021-06-21T07:46:28.531Z</time>
      </trkpt>
      <trkpt lat="43.28285" lon="-1.63808">
        <ele>191</ele>
        <time>2021-06-21T07:46:29.511Z</time>
      </trkpt>
      <trkpt lat="43.28285" lon="-1.63808">
        <ele>191</ele>
        <time>2021-06-21T07:46:30.517Z</time>
      </trkpt>
      <trkpt lat="43.28285" lon="-1.63804">
        <ele>192</ele>
        <time>2021-06-21T07:46:31.532Z</time>
      </trkpt>
      <trkpt lat="43.28285" lon="-1.63799">
        <ele>192</ele>
        <time>2021-06-21T07:46:32.538Z</time>
      </trkpt>
      <trkpt lat="43.28286" lon="-1.63797">
        <ele>193</ele>
        <time>2021-06-21T07:46:33.531Z</time>
      </trkpt>
      <trkpt lat="43.28286" lon="-1.63797">
        <ele>193</ele>
        <time>2021-06-21T07:46:34.517Z</time>
      </trkpt>
      <trkpt lat="43.28286" lon="-1.63792">
        <ele>193</ele>
        <time>2021-06-21T07:46:35.531Z</time>
      </trkpt>
      <trkpt lat="43.28286" lon="-1.6379">
        <ele>193</ele>
        <time>2021-06-21T07:46:36.545Z</time>
      </trkpt>
      <trkpt lat="43.28286" lon="-1.6379">
        <ele>193</ele>
        <time>2021-06-21T07:46:37.518Z</time>
      </trkpt>
      <trkpt lat="43.28286" lon="-1.63785">
        <ele>194</ele>
        <time>2021-06-21T07:46:38.524Z</time>
      </trkpt>
      <trkpt lat="43.28286" lon="-1.63785">
        <ele>194</ele>
        <time>2021-06-21T07:46:39.516Z</time>
      </trkpt>
      <trkpt lat="43.28286" lon="-1.6378">
        <ele>194</ele>
        <time>2021-06-21T07:46:40.523Z</time>
      </trkpt>
      <trkpt lat="43.28286" lon="-1.6378">
        <ele>194</ele>
        <time>2021-06-21T07:46:41.521Z</time>
      </trkpt>
      <trkpt lat="43.28285" lon="-1.63776">
        <ele>195</ele>
        <time>2021-06-21T07:46:42.528Z</time>
      </trkpt>
      <trkpt lat="43.28285" lon="-1.63776">
        <ele>195</ele>
        <time>2021-06-21T07:46:43.544Z</time>
      </trkpt>
      <trkpt lat="43.28285" lon="-1.63776">
        <ele>195</ele>
        <time>2021-06-21T07:46:44.509Z</time>
      </trkpt>
      <trkpt lat="43.28286" lon="-1.63771">
        <ele>195</ele>
        <time>2021-06-21T07:46:45.533Z</time>
      </trkpt>
      <trkpt lat="43.28285" lon="-1.63766">
        <ele>196</ele>
        <time>2021-06-21T07:46:46.546Z</time>
      </trkpt>
      <trkpt lat="43.28286" lon="-1.63764">
        <ele>196</ele>
        <time>2021-06-21T07:46:47.533Z</time>
      </trkpt>
      <trkpt lat="43.28286" lon="-1.63761">
        <ele>196</ele>
        <time>2021-06-21T07:46:48.632Z</time>
      </trkpt>
      <trkpt lat="43.28286" lon="-1.63761">
        <ele>196</ele>
        <time>2021-06-21T07:46:49.543Z</time>
      </trkpt>
      <trkpt lat="43.28286" lon="-1.63761">
        <ele>196</ele>
        <time>2021-06-21T07:46:50.513Z</time>
      </trkpt>
      <trkpt lat="43.28286" lon="-1.63757">
        <ele>197</ele>
        <time>2021-06-21T07:46:51.539Z</time>
      </trkpt>
      <trkpt lat="43.28288" lon="-1.63752">
        <ele>197</ele>
        <time>2021-06-21T07:46:52.555Z</time>
      </trkpt>
      <trkpt lat="43.28288" lon="-1.63749">
        <ele>198</ele>
        <time>2021-06-21T07:46:53.527Z</time>
      </trkpt>
      <trkpt lat="43.28288" lon="-1.63747">
        <ele>198</ele>
        <time>2021-06-21T07:46:54.524Z</time>
      </trkpt>
      <trkpt lat="43.28288" lon="-1.63747">
        <ele>198</ele>
        <time>2021-06-21T07:46:55.539Z</time>
      </trkpt>
      <trkpt lat="43.28288" lon="-1.63742">
        <ele>199</ele>
        <time>2021-06-21T07:46:56.569Z</time>
      </trkpt>
      <trkpt lat="43.28288" lon="-1.63742">
        <ele>199</ele>
        <time>2021-06-21T07:46:57.542Z</time>
      </trkpt>
      <trkpt lat="43.28288" lon="-1.63742">
        <ele>199</ele>
        <time>2021-06-21T07:46:58.512Z</time>
      </trkpt>
      <trkpt lat="43.28288" lon="-1.63737">
        <ele>199</ele>
        <time>2021-06-21T07:46:59.529Z</time>
      </trkpt>
      <trkpt lat="43.28289" lon="-1.63734">
        <ele>200</ele>
        <time>2021-06-21T07:47:00.541Z</time>
      </trkpt>
      <trkpt lat="43.28289" lon="-1.63734">
        <ele>200</ele>
        <time>2021-06-21T07:47:01.522Z</time>
      </trkpt>
      <trkpt lat="43.2829" lon="-1.6373">
        <ele>201</ele>
        <time>2021-06-21T07:47:02.529Z</time>
      </trkpt>
      <trkpt lat="43.2829" lon="-1.6373">
        <ele>201</ele>
        <time>2021-06-21T07:47:03.546Z</time>
      </trkpt>
      <trkpt lat="43.28291" lon="-1.63726">
        <ele>202</ele>
        <time>2021-06-21T07:47:04.513Z</time>
      </trkpt>
      <trkpt lat="43.28292" lon="-1.63724">
        <ele>202</ele>
        <time>2021-06-21T07:47:05.547Z</time>
      </trkpt>
      <trkpt lat="43.28292" lon="-1.63722">
        <ele>203</ele>
        <time>2021-06-21T07:47:06.534Z</time>
      </trkpt>
      <trkpt lat="43.28292" lon="-1.63722">
        <ele>203</ele>
        <time>2021-06-21T07:47:07.517Z</time>
      </trkpt>
      <trkpt lat="43.28294" lon="-1.63718">
        <ele>203</ele>
        <time>2021-06-21T07:47:08.525Z</time>
      </trkpt>
      <trkpt lat="43.28294" lon="-1.63718">
        <ele>203</ele>
        <time>2021-06-21T07:47:09.547Z</time>
      </trkpt>
      <trkpt lat="43.28296" lon="-1.63714">
        <ele>204</ele>
        <time>2021-06-21T07:47:10.516Z</time>
      </trkpt>
      <trkpt lat="43.28296" lon="-1.63714">
        <ele>204</ele>
        <time>2021-06-21T07:47:11.531Z</time>
      </trkpt>
      <trkpt lat="43.28298" lon="-1.63711">
        <ele>204</ele>
        <time>2021-06-21T07:47:12.546Z</time>
      </trkpt>
      <trkpt lat="43.28298" lon="-1.63711">
        <ele>204</ele>
        <time>2021-06-21T07:47:13.528Z</time>
      </trkpt>
      <trkpt lat="43.28299" lon="-1.63707">
        <ele>205</ele>
        <time>2021-06-21T07:47:14.533Z</time>
      </trkpt>
      <trkpt lat="43.28299" lon="-1.63707">
        <ele>205</ele>
        <time>2021-06-21T07:47:15.516Z</time>
      </trkpt>
      <trkpt lat="43.28303" lon="-1.63704">
        <ele>205</ele>
        <time>2021-06-21T07:47:16.570Z</time>
      </trkpt>
      <trkpt lat="43.28303" lon="-1.63702">
        <ele>206</ele>
        <time>2021-06-21T07:47:17.636Z</time>
      </trkpt>
      <trkpt lat="43.28304" lon="-1.637">
        <ele>206</ele>
        <time>2021-06-21T07:47:18.548Z</time>
      </trkpt>
      <trkpt lat="43.28304" lon="-1.637">
        <ele>206</ele>
        <time>2021-06-21T07:47:19.528Z</time>
      </trkpt>
      <trkpt lat="43.28307" lon="-1.63697">
        <ele>207</ele>
        <time>2021-06-21T07:47:20.534Z</time>
      </trkpt>
      <trkpt lat="43.28307" lon="-1.63697">
        <ele>207</ele>
        <time>2021-06-21T07:47:21.511Z</time>
      </trkpt>
      <trkpt lat="43.2831" lon="-1.63694">
        <ele>208</ele>
        <time>2021-06-21T07:47:22.549Z</time>
      </trkpt>
      <trkpt lat="43.2831" lon="-1.63694">
        <ele>208</ele>
        <time>2021-06-21T07:47:23.542Z</time>
      </trkpt>
      <trkpt lat="43.2831" lon="-1.63694">
        <ele>208</ele>
        <time>2021-06-21T07:47:24.509Z</time>
      </trkpt>
      <trkpt lat="43.28313" lon="-1.6369">
        <ele>208</ele>
        <time>2021-06-21T07:47:25.514Z</time>
      </trkpt>
      <trkpt lat="43.28316" lon="-1.63687">
        <ele>209</ele>
        <time>2021-06-21T07:47:26.521Z</time>
      </trkpt>
      <trkpt lat="43.28317" lon="-1.63684">
        <ele>209</ele>
        <time>2021-06-21T07:47:27.548Z</time>
      </trkpt>
      <trkpt lat="43.28317" lon="-1.63684">
        <ele>209</ele>
        <time>2021-06-21T07:47:28.530Z</time>
      </trkpt>
      <trkpt lat="43.2832" lon="-1.6368">
        <ele>210</ele>
        <time>2021-06-21T07:47:29.546Z</time>
      </trkpt>
      <trkpt lat="43.28321" lon="-1.63678">
        <ele>210</ele>
        <time>2021-06-21T07:47:30.533Z</time>
      </trkpt>
      <trkpt lat="43.28321" lon="-1.63678">
        <ele>210</ele>
        <time>2021-06-21T07:47:31.531Z</time>
      </trkpt>
      <trkpt lat="43.28325" lon="-1.63673">
        <ele>211</ele>
        <time>2021-06-21T07:47:32.550Z</time>
      </trkpt>
      <trkpt lat="43.28325" lon="-1.63673">
        <ele>211</ele>
        <time>2021-06-21T07:47:33.524Z</time>
      </trkpt>
      <trkpt lat="43.28328" lon="-1.63669">
        <ele>211</ele>
        <time>2021-06-21T07:47:34.529Z</time>
      </trkpt>
      <trkpt lat="43.28329" lon="-1.63668">
        <ele>212</ele>
        <time>2021-06-21T07:47:35.550Z</time>
      </trkpt>
      <trkpt lat="43.28329" lon="-1.63668">
        <ele>212</ele>
        <time>2021-06-21T07:47:36.516Z</time>
      </trkpt>
      <trkpt lat="43.28331" lon="-1.63664">
        <ele>212</ele>
        <time>2021-06-21T07:47:37.523Z</time>
      </trkpt>
      <trkpt lat="43.28331" lon="-1.63664">
        <ele>212</ele>
        <time>2021-06-21T07:47:38.515Z</time>
      </trkpt>
      <trkpt lat="43.28333" lon="-1.63659">
        <ele>213</ele>
        <time>2021-06-21T07:47:39.522Z</time>
      </trkpt>
      <trkpt lat="43.28333" lon="-1.63659">
        <ele>213</ele>
        <time>2021-06-21T07:47:40.543Z</time>
      </trkpt>
      <trkpt lat="43.28333" lon="-1.63659">
        <ele>213</ele>
        <time>2021-06-21T07:47:41.510Z</time>
      </trkpt>
      <trkpt lat="43.28338" lon="-1.63652">
        <ele>213</ele>
        <time>2021-06-21T07:47:42.544Z</time>
      </trkpt>
      <trkpt lat="43.28338" lon="-1.63652">
        <ele>213</ele>
        <time>2021-06-21T07:47:43.526Z</time>
      </trkpt>
      <trkpt lat="43.28339" lon="-1.63647">
        <ele>213</ele>
        <time>2021-06-21T07:47:44.532Z</time>
      </trkpt>
      <trkpt lat="43.28339" lon="-1.63647">
        <ele>213</ele>
        <time>2021-06-21T07:47:45.510Z</time>
      </trkpt>
      <trkpt lat="43.28339" lon="-1.63647">
        <ele>213</ele>
        <time>2021-06-21T07:47:46.517Z</time>
      </trkpt>
      <trkpt lat="43.2834" lon="-1.63642">
        <ele>214</ele>
        <time>2021-06-21T07:47:47.514Z</time>
      </trkpt>
      <trkpt lat="43.28341" lon="-1.63639">
        <ele>214</ele>
        <time>2021-06-21T07:47:48.529Z</time>
      </trkpt>
      <trkpt lat="43.28342" lon="-1.63635">
        <ele>214</ele>
        <time>2021-06-21T07:47:49.637Z</time>
      </trkpt>
      <trkpt lat="43.28342" lon="-1.63635">
        <ele>214</ele>
        <time>2021-06-21T07:47:50.543Z</time>
      </trkpt>
      <trkpt lat="43.28342" lon="-1.63629">
        <ele>215</ele>
        <time>2021-06-21T07:47:51.549Z</time>
      </trkpt>
      <trkpt lat="43.28342" lon="-1.63629">
        <ele>215</ele>
        <time>2021-06-21T07:47:52.543Z</time>
      </trkpt>
      <trkpt lat="43.28342" lon="-1.63629">
        <ele>215</ele>
        <time>2021-06-21T07:47:53.509Z</time>
      </trkpt>
      <trkpt lat="43.28343" lon="-1.63622">
        <ele>215</ele>
        <time>2021-06-21T07:47:54.542Z</time>
      </trkpt>
      <trkpt lat="43.28343" lon="-1.63622">
        <ele>215</ele>
        <time>2021-06-21T07:47:55.523Z</time>
      </trkpt>
      <trkpt lat="43.28343" lon="-1.63617">
        <ele>216</ele>
        <time>2021-06-21T07:47:56.531Z</time>
      </trkpt>
      <trkpt lat="43.28343" lon="-1.63617">
        <ele>216</ele>
        <time>2021-06-21T07:47:57.530Z</time>
      </trkpt>
      <trkpt lat="43.28343" lon="-1.63612">
        <ele>216</ele>
        <time>2021-06-21T07:47:58.548Z</time>
      </trkpt>
      <trkpt lat="43.28343" lon="-1.63612">
        <ele>216</ele>
        <time>2021-06-21T07:47:59.529Z</time>
      </trkpt>
      <trkpt lat="43.28343" lon="-1.63607">
        <ele>216</ele>
        <time>2021-06-21T07:48:00.538Z</time>
      </trkpt>
      <trkpt lat="43.28343" lon="-1.63607">
        <ele>216</ele>
        <time>2021-06-21T07:48:01.515Z</time>
      </trkpt>
      <trkpt lat="43.28342" lon="-1.63601">
        <ele>216</ele>
        <time>2021-06-21T07:48:02.520Z</time>
      </trkpt>
      <trkpt lat="43.28342" lon="-1.63601">
        <ele>216</ele>
        <time>2021-06-21T07:48:03.534Z</time>
      </trkpt>
      <trkpt lat="43.28341" lon="-1.63596">
        <ele>216</ele>
        <time>2021-06-21T07:48:04.548Z</time>
      </trkpt>
      <trkpt lat="43.28341" lon="-1.63596">
        <ele>216</ele>
        <time>2021-06-21T07:48:05.518Z</time>
      </trkpt>
      <trkpt lat="43.28341" lon="-1.63596">
        <ele>216</ele>
        <time>2021-06-21T07:48:06.541Z</time>
      </trkpt>
      <trkpt lat="43.2834" lon="-1.63591">
        <ele>216</ele>
        <time>2021-06-21T07:48:07.543Z</time>
      </trkpt>
      <trkpt lat="43.2834" lon="-1.63591">
        <ele>216</ele>
        <time>2021-06-21T07:48:08.509Z</time>
      </trkpt>
      <trkpt lat="43.28339" lon="-1.63586">
        <ele>216</ele>
        <time>2021-06-21T07:48:09.539Z</time>
      </trkpt>
      <trkpt lat="43.28339" lon="-1.63586">
        <ele>216</ele>
        <time>2021-06-21T07:48:10.529Z</time>
      </trkpt>
      <trkpt lat="43.28339" lon="-1.63582">
        <ele>217</ele>
        <time>2021-06-21T07:48:11.535Z</time>
      </trkpt>
      <trkpt lat="43.28338" lon="-1.63579">
        <ele>217</ele>
        <time>2021-06-21T07:48:12.521Z</time>
      </trkpt>
      <trkpt lat="43.28338" lon="-1.63579">
        <ele>217</ele>
        <time>2021-06-21T07:48:13.535Z</time>
      </trkpt>
      <trkpt lat="43.28337" lon="-1.63575">
        <ele>218</ele>
        <time>2021-06-21T07:48:14.547Z</time>
      </trkpt>
      <trkpt lat="43.28337" lon="-1.63575">
        <ele>218</ele>
        <time>2021-06-21T07:48:15.522Z</time>
      </trkpt>
      <trkpt lat="43.28336" lon="-1.63572">
        <ele>218</ele>
        <time>2021-06-21T07:48:16.557Z</time>
      </trkpt>
      <trkpt lat="43.28336" lon="-1.63572">
        <ele>218</ele>
        <time>2021-06-21T07:48:17.545Z</time>
      </trkpt>
      <trkpt lat="43.28336" lon="-1.63572">
        <ele>218</ele>
        <time>2021-06-21T07:48:18.514Z</time>
      </trkpt>
      <trkpt lat="43.28334" lon="-1.63568">
        <ele>219</ele>
        <time>2021-06-21T07:48:19.532Z</time>
      </trkpt>
      <trkpt lat="43.28332" lon="-1.63564">
        <ele>219</ele>
        <time>2021-06-21T07:48:20.547Z</time>
      </trkpt>
      <trkpt lat="43.28332" lon="-1.63564">
        <ele>219</ele>
        <time>2021-06-21T07:48:21.533Z</time>
      </trkpt>
      <trkpt lat="43.28332" lon="-1.63564">
        <ele>219</ele>
        <time>2021-06-21T07:48:22.509Z</time>
      </trkpt>
      <trkpt lat="43.2833" lon="-1.6356">
        <ele>219</ele>
        <time>2021-06-21T07:48:23.535Z</time>
      </trkpt>
      <trkpt lat="43.28328" lon="-1.63555">
        <ele>220</ele>
        <time>2021-06-21T07:48:24.545Z</time>
      </trkpt>
      <trkpt lat="43.28328" lon="-1.63555">
        <ele>220</ele>
        <time>2021-06-21T07:48:25.527Z</time>
      </trkpt>
      <trkpt lat="43.28325" lon="-1.6355">
        <ele>220</ele>
        <time>2021-06-21T07:48:26.532Z</time>
      </trkpt>
      <trkpt lat="43.28325" lon="-1.6355">
        <ele>220</ele>
        <time>2021-06-21T07:48:27.515Z</time>
      </trkpt>
      <trkpt lat="43.28324" lon="-1.63545">
        <ele>221</ele>
        <time>2021-06-21T07:48:28.521Z</time>
      </trkpt>
      <trkpt lat="43.28324" lon="-1.63545">
        <ele>221</ele>
        <time>2021-06-21T07:48:29.542Z</time>
      </trkpt>
      <trkpt lat="43.2832" lon="-1.63541">
        <ele>221</ele>
        <time>2021-06-21T07:48:30.538Z</time>
      </trkpt>
      <trkpt lat="43.2832" lon="-1.63541">
        <ele>221</ele>
        <time>2021-06-21T07:48:31.547Z</time>
      </trkpt>
      <trkpt lat="43.2832" lon="-1.63541">
        <ele>221</ele>
        <time>2021-06-21T07:48:32.512Z</time>
      </trkpt>
      <trkpt lat="43.28318" lon="-1.63536">
        <ele>221</ele>
        <time>2021-06-21T07:48:33.534Z</time>
      </trkpt>
      <trkpt lat="43.28317" lon="-1.6353">
        <ele>221</ele>
        <time>2021-06-21T07:48:34.543Z</time>
      </trkpt>
      <trkpt lat="43.28317" lon="-1.6353">
        <ele>221</ele>
        <time>2021-06-21T07:48:35.518Z</time>
      </trkpt>
      <trkpt lat="43.28315" lon="-1.63524">
        <ele>220</ele>
        <time>2021-06-21T07:48:36.530Z</time>
      </trkpt>
      <trkpt lat="43.28315" lon="-1.63524">
        <ele>220</ele>
        <time>2021-06-21T07:48:37.509Z</time>
      </trkpt>
      <trkpt lat="43.28315" lon="-1.63524">
        <ele>220</ele>
        <time>2021-06-21T07:48:38.516Z</time>
      </trkpt>
      <trkpt lat="43.28315" lon="-1.63519">
        <ele>220</ele>
        <time>2021-06-21T07:48:39.529Z</time>
      </trkpt>
      <trkpt lat="43.28316" lon="-1.63515">
        <ele>219</ele>
        <time>2021-06-21T07:48:40.537Z</time>
      </trkpt>
      <trkpt lat="43.28315" lon="-1.63513">
        <ele>219</ele>
        <time>2021-06-21T07:48:41.548Z</time>
      </trkpt>
      <trkpt lat="43.28315" lon="-1.6351">
        <ele>219</ele>
        <time>2021-06-21T07:48:42.538Z</time>
      </trkpt>
      <trkpt lat="43.28315" lon="-1.6351">
        <ele>219</ele>
        <time>2021-06-21T07:48:43.518Z</time>
      </trkpt>
      <trkpt lat="43.28314" lon="-1.63506">
        <ele>219</ele>
        <time>2021-06-21T07:48:44.526Z</time>
      </trkpt>
      <trkpt lat="43.28314" lon="-1.63506">
        <ele>219</ele>
        <time>2021-06-21T07:48:45.510Z</time>
      </trkpt>
      <trkpt lat="43.28314" lon="-1.63506">
        <ele>219</ele>
        <time>2021-06-21T07:48:46.516Z</time>
      </trkpt>
      <trkpt lat="43.28314" lon="-1.63502">
        <ele>219</ele>
        <time>2021-06-21T07:48:47.544Z</time>
      </trkpt>
      <trkpt lat="43.28314" lon="-1.63502">
        <ele>219</ele>
        <time>2021-06-21T07:48:48.510Z</time>
      </trkpt>
      <trkpt lat="43.28314" lon="-1.63497">
        <ele>219</ele>
        <time>2021-06-21T07:48:49.513Z</time>
      </trkpt>
      <trkpt lat="43.28314" lon="-1.63492">
        <ele>219</ele>
        <time>2021-06-21T07:48:50.525Z</time>
      </trkpt>
      <trkpt lat="43.28314" lon="-1.63492">
        <ele>219</ele>
        <time>2021-06-21T07:48:51.535Z</time>
      </trkpt>
      <trkpt lat="43.28313" lon="-1.63488">
        <ele>219</ele>
        <time>2021-06-21T07:48:52.646Z</time>
      </trkpt>
      <trkpt lat="43.28313" lon="-1.63488">
        <ele>219</ele>
        <time>2021-06-21T07:48:53.543Z</time>
      </trkpt>
      <trkpt lat="43.28312" lon="-1.63483">
        <ele>219</ele>
        <time>2021-06-21T07:48:54.548Z</time>
      </trkpt>
      <trkpt lat="43.28312" lon="-1.63483">
        <ele>219</ele>
        <time>2021-06-21T07:48:55.523Z</time>
      </trkpt>
      <trkpt lat="43.28311" lon="-1.63478">
        <ele>220</ele>
        <time>2021-06-21T07:48:56.537Z</time>
      </trkpt>
      <trkpt lat="43.28311" lon="-1.63478">
        <ele>220</ele>
        <time>2021-06-21T07:48:57.513Z</time>
      </trkpt>
      <trkpt lat="43.2831" lon="-1.63473">
        <ele>220</ele>
        <time>2021-06-21T07:48:58.526Z</time>
      </trkpt>
      <trkpt lat="43.28309" lon="-1.6347">
        <ele>220</ele>
        <time>2021-06-21T07:48:59.551Z</time>
      </trkpt>
      <trkpt lat="43.28307" lon="-1.63467">
        <ele>220</ele>
        <time>2021-06-21T07:49:00.534Z</time>
      </trkpt>
      <trkpt lat="43.28307" lon="-1.63467">
        <ele>220</ele>
        <time>2021-06-21T07:49:01.515Z</time>
      </trkpt>
      <trkpt lat="43.28305" lon="-1.63461">
        <ele>220</ele>
        <time>2021-06-21T07:49:02.524Z</time>
      </trkpt>
      <trkpt lat="43.28305" lon="-1.63461">
        <ele>220</ele>
        <time>2021-06-21T07:49:03.534Z</time>
      </trkpt>
      <trkpt lat="43.28306" lon="-1.63455">
        <ele>220</ele>
        <time>2021-06-21T07:49:04.541Z</time>
      </trkpt>
      <trkpt lat="43.28306" lon="-1.63455">
        <ele>220</ele>
        <time>2021-06-21T07:49:05.543Z</time>
      </trkpt>
      <trkpt lat="43.28306" lon="-1.63455">
        <ele>220</ele>
        <time>2021-06-21T07:49:06.509Z</time>
      </trkpt>
      <trkpt lat="43.28306" lon="-1.6345">
        <ele>220</ele>
        <time>2021-06-21T07:49:07.530Z</time>
      </trkpt>
      <trkpt lat="43.28306" lon="-1.6345">
        <ele>220</ele>
        <time>2021-06-21T07:49:08.517Z</time>
      </trkpt>
      <trkpt lat="43.28306" lon="-1.63445">
        <ele>221</ele>
        <time>2021-06-21T07:49:09.529Z</time>
      </trkpt>
      <trkpt lat="43.28306" lon="-1.6344">
        <ele>221</ele>
        <time>2021-06-21T07:49:10.535Z</time>
      </trkpt>
      <trkpt lat="43.28306" lon="-1.6344">
        <ele>221</ele>
        <time>2021-06-21T07:49:11.533Z</time>
      </trkpt>
      <trkpt lat="43.28306" lon="-1.63435">
        <ele>221</ele>
        <time>2021-06-21T07:49:12.543Z</time>
      </trkpt>
      <trkpt lat="43.28306" lon="-1.63432">
        <ele>221</ele>
        <time>2021-06-21T07:49:13.522Z</time>
      </trkpt>
      <trkpt lat="43.28306" lon="-1.63432">
        <ele>221</ele>
        <time>2021-06-21T07:49:14.542Z</time>
      </trkpt>
      <trkpt lat="43.28306" lon="-1.63432">
        <ele>221</ele>
        <time>2021-06-21T07:49:15.513Z</time>
      </trkpt>
      <trkpt lat="43.28305" lon="-1.63427">
        <ele>221</ele>
        <time>2021-06-21T07:49:16.543Z</time>
      </trkpt>
      <trkpt lat="43.28304" lon="-1.63422">
        <ele>222</ele>
        <time>2021-06-21T07:49:17.550Z</time>
      </trkpt>
      <trkpt lat="43.28304" lon="-1.63419">
        <ele>222</ele>
        <time>2021-06-21T07:49:18.548Z</time>
      </trkpt>
      <trkpt lat="43.28304" lon="-1.63419">
        <ele>222</ele>
        <time>2021-06-21T07:49:19.533Z</time>
      </trkpt>
      <trkpt lat="43.28304" lon="-1.63413">
        <ele>222</ele>
        <time>2021-06-21T07:49:20.637Z</time>
      </trkpt>
      <trkpt lat="43.28303" lon="-1.63411">
        <ele>222</ele>
        <time>2021-06-21T07:49:21.543Z</time>
      </trkpt>
      <trkpt lat="43.28303" lon="-1.63411">
        <ele>222</ele>
        <time>2021-06-21T07:49:22.532Z</time>
      </trkpt>
      <trkpt lat="43.28303" lon="-1.63411">
        <ele>222</ele>
        <time>2021-06-21T07:49:23.513Z</time>
      </trkpt>
      <trkpt lat="43.28304" lon="-1.63405">
        <ele>223</ele>
        <time>2021-06-21T07:49:24.627Z</time>
      </trkpt>
      <trkpt lat="43.28304" lon="-1.63402">
        <ele>223</ele>
        <time>2021-06-21T07:49:25.530Z</time>
      </trkpt>
      <trkpt lat="43.28304" lon="-1.63396">
        <ele>223</ele>
        <time>2021-06-21T07:49:26.536Z</time>
      </trkpt>
      <trkpt lat="43.28304" lon="-1.63396">
        <ele>223</ele>
        <time>2021-06-21T07:49:27.521Z</time>
      </trkpt>
      <trkpt lat="43.28304" lon="-1.6339">
        <ele>223</ele>
        <time>2021-06-21T07:49:28.528Z</time>
      </trkpt>
      <trkpt lat="43.28304" lon="-1.6339">
        <ele>223</ele>
        <time>2021-06-21T07:49:29.512Z</time>
      </trkpt>
      <trkpt lat="43.28304" lon="-1.6339">
        <ele>223</ele>
        <time>2021-06-21T07:49:30.518Z</time>
      </trkpt>
      <trkpt lat="43.28304" lon="-1.63384">
        <ele>223</ele>
        <time>2021-06-21T07:49:31.533Z</time>
      </trkpt>
      <trkpt lat="43.28304" lon="-1.63379">
        <ele>224</ele>
        <time>2021-06-21T07:49:32.543Z</time>
      </trkpt>
      <trkpt lat="43.28304" lon="-1.63379">
        <ele>224</ele>
        <time>2021-06-21T07:49:33.524Z</time>
      </trkpt>
      <trkpt lat="43.28303" lon="-1.63373">
        <ele>224</ele>
        <time>2021-06-21T07:49:34.531Z</time>
      </trkpt>
      <trkpt lat="43.28303" lon="-1.63373">
        <ele>224</ele>
        <time>2021-06-21T07:49:35.521Z</time>
      </trkpt>
      <trkpt lat="43.28303" lon="-1.63367">
        <ele>224</ele>
        <time>2021-06-21T07:49:36.526Z</time>
      </trkpt>
      <trkpt lat="43.28303" lon="-1.63367">
        <ele>224</ele>
        <time>2021-06-21T07:49:37.516Z</time>
      </trkpt>
      <trkpt lat="43.28302" lon="-1.63364">
        <ele>224</ele>
        <time>2021-06-21T07:49:38.544Z</time>
      </trkpt>
      <trkpt lat="43.28302" lon="-1.63364">
        <ele>224</ele>
        <time>2021-06-21T07:49:39.512Z</time>
      </trkpt>
      <trkpt lat="43.28302" lon="-1.63359">
        <ele>224</ele>
        <time>2021-06-21T07:49:40.528Z</time>
      </trkpt>
      <trkpt lat="43.28302" lon="-1.63353">
        <ele>224</ele>
        <time>2021-06-21T07:49:41.534Z</time>
      </trkpt>
      <trkpt lat="43.28302" lon="-1.63353">
        <ele>224</ele>
        <time>2021-06-21T07:49:42.511Z</time>
      </trkpt>
      <trkpt lat="43.28302" lon="-1.63353">
        <ele>224</ele>
        <time>2021-06-21T07:49:43.522Z</time>
      </trkpt>
      <trkpt lat="43.28301" lon="-1.63347">
        <ele>223</ele>
        <time>2021-06-21T07:49:44.513Z</time>
      </trkpt>
      <trkpt lat="43.28301" lon="-1.63347">
        <ele>223</ele>
        <time>2021-06-21T07:49:45.518Z</time>
      </trkpt>
      <trkpt lat="43.28301" lon="-1.63342">
        <ele>223</ele>
        <time>2021-06-21T07:49:46.543Z</time>
      </trkpt>
      <trkpt lat="43.283" lon="-1.63337">
        <ele>223</ele>
        <time>2021-06-21T07:49:47.548Z</time>
      </trkpt>
      <trkpt lat="43.283" lon="-1.63335">
        <ele>223</ele>
        <time>2021-06-21T07:49:48.531Z</time>
      </trkpt>
      <trkpt lat="43.283" lon="-1.63335">
        <ele>223</ele>
        <time>2021-06-21T07:49:49.514Z</time>
      </trkpt>
      <trkpt lat="43.283" lon="-1.63335">
        <ele>223</ele>
        <time>2021-06-21T07:49:50.519Z</time>
      </trkpt>
      <trkpt lat="43.28299" lon="-1.63329">
        <ele>223</ele>
        <time>2021-06-21T07:49:51.543Z</time>
      </trkpt>
      <trkpt lat="43.28299" lon="-1.63329">
        <ele>223</ele>
        <time>2021-06-21T07:49:52.509Z</time>
      </trkpt>
      <trkpt lat="43.28298" lon="-1.63322">
        <ele>223</ele>
        <time>2021-06-21T07:49:53.521Z</time>
      </trkpt>
      <trkpt lat="43.28298" lon="-1.63322">
        <ele>223</ele>
        <time>2021-06-21T07:49:54.541Z</time>
      </trkpt>
      <trkpt lat="43.28296" lon="-1.63319">
        <ele>223</ele>
        <time>2021-06-21T07:49:55.515Z</time>
      </trkpt>
      <trkpt lat="43.28295" lon="-1.63314">
        <ele>224</ele>
        <time>2021-06-21T07:49:56.521Z</time>
      </trkpt>
      <trkpt lat="43.28295" lon="-1.63314">
        <ele>224</ele>
        <time>2021-06-21T07:49:57.522Z</time>
      </trkpt>
      <trkpt lat="43.28292" lon="-1.63309">
        <ele>224</ele>
        <time>2021-06-21T07:49:58.532Z</time>
      </trkpt>
      <trkpt lat="43.28292" lon="-1.63309">
        <ele>224</ele>
        <time>2021-06-21T07:49:59.520Z</time>
      </trkpt>
      <trkpt lat="43.2829" lon="-1.63305">
        <ele>225</ele>
        <time>2021-06-21T07:50:00.526Z</time>
      </trkpt>
      <trkpt lat="43.2829" lon="-1.63305">
        <ele>225</ele>
        <time>2021-06-21T07:50:01.513Z</time>
      </trkpt>
      <trkpt lat="43.28285" lon="-1.633">
        <ele>225</ele>
        <time>2021-06-21T07:50:02.519Z</time>
      </trkpt>
      <trkpt lat="43.28285" lon="-1.633">
        <ele>225</ele>
        <time>2021-06-21T07:50:03.543Z</time>
      </trkpt>
      <trkpt lat="43.28281" lon="-1.63296">
        <ele>226</ele>
        <time>2021-06-21T07:50:04.550Z</time>
      </trkpt>
      <trkpt lat="43.28281" lon="-1.63296">
        <ele>226</ele>
        <time>2021-06-21T07:50:05.529Z</time>
      </trkpt>
      <trkpt lat="43.28278" lon="-1.63293">
        <ele>227</ele>
        <time>2021-06-21T07:50:06.535Z</time>
      </trkpt>
      <trkpt lat="43.28278" lon="-1.63293">
        <ele>227</ele>
        <time>2021-06-21T07:50:07.511Z</time>
      </trkpt>
      <trkpt lat="43.28278" lon="-1.63293">
        <ele>227</ele>
        <time>2021-06-21T07:50:08.518Z</time>
      </trkpt>
      <trkpt lat="43.28276" lon="-1.63289">
        <ele>227</ele>
        <time>2021-06-21T07:50:09.544Z</time>
      </trkpt>
      <trkpt lat="43.28276" lon="-1.63289">
        <ele>227</ele>
        <time>2021-06-21T07:50:10.510Z</time>
      </trkpt>
      <trkpt lat="43.28274" lon="-1.63285">
        <ele>228</ele>
        <time>2021-06-21T07:50:11.525Z</time>
      </trkpt>
      <trkpt lat="43.28274" lon="-1.63285">
        <ele>228</ele>
        <time>2021-06-21T07:50:12.519Z</time>
      </trkpt>
      <trkpt lat="43.28271" lon="-1.6328">
        <ele>228</ele>
        <time>2021-06-21T07:50:13.512Z</time>
      </trkpt>
      <trkpt lat="43.28269" lon="-1.63276">
        <ele>229</ele>
        <time>2021-06-21T07:50:14.519Z</time>
      </trkpt>
      <trkpt lat="43.28269" lon="-1.63276">
        <ele>229</ele>
        <time>2021-06-21T07:50:15.549Z</time>
      </trkpt>
      <trkpt lat="43.28269" lon="-1.63276">
        <ele>229</ele>
        <time>2021-06-21T07:50:16.514Z</time>
      </trkpt>
      <trkpt lat="43.28265" lon="-1.63267">
        <ele>229</ele>
        <time>2021-06-21T07:50:17.517Z</time>
      </trkpt>
      <trkpt lat="43.28264" lon="-1.63265">
        <ele>229</ele>
        <time>2021-06-21T07:50:18.535Z</time>
      </trkpt>
      <trkpt lat="43.28264" lon="-1.63265">
        <ele>229</ele>
        <time>2021-06-21T07:50:19.513Z</time>
      </trkpt>
      <trkpt lat="43.28264" lon="-1.63265">
        <ele>229</ele>
        <time>2021-06-21T07:50:20.518Z</time>
      </trkpt>
      <trkpt lat="43.28262" lon="-1.63259">
        <ele>228</ele>
        <time>2021-06-21T07:50:21.536Z</time>
      </trkpt>
      <trkpt lat="43.2826" lon="-1.63254">
        <ele>228</ele>
        <time>2021-06-21T07:50:22.520Z</time>
      </trkpt>
      <trkpt lat="43.2826" lon="-1.63254">
        <ele>228</ele>
        <time>2021-06-21T07:50:23.518Z</time>
      </trkpt>
      <trkpt lat="43.28256" lon="-1.63249">
        <ele>229</ele>
        <time>2021-06-21T07:50:24.528Z</time>
      </trkpt>
      <trkpt lat="43.28256" lon="-1.63249">
        <ele>229</ele>
        <time>2021-06-21T07:50:25.520Z</time>
      </trkpt>
      <trkpt lat="43.28252" lon="-1.63244">
        <ele>229</ele>
        <time>2021-06-21T07:50:26.526Z</time>
      </trkpt>
      <trkpt lat="43.28252" lon="-1.63244">
        <ele>229</ele>
        <time>2021-06-21T07:50:27.548Z</time>
      </trkpt>
      <trkpt lat="43.28252" lon="-1.63244">
        <ele>229</ele>
        <time>2021-06-21T07:50:28.537Z</time>
      </trkpt>
      <trkpt lat="43.28248" lon="-1.63237">
        <ele>229</ele>
        <time>2021-06-21T07:50:29.510Z</time>
      </trkpt>
      <trkpt lat="43.28248" lon="-1.63237">
        <ele>229</ele>
        <time>2021-06-21T07:50:30.516Z</time>
      </trkpt>
      <trkpt lat="43.28244" lon="-1.63232">
        <ele>229</ele>
        <time>2021-06-21T07:50:31.537Z</time>
      </trkpt>
      <trkpt lat="43.28239" lon="-1.63227">
        <ele>230</ele>
        <time>2021-06-21T07:50:32.543Z</time>
      </trkpt>
      <trkpt lat="43.28239" lon="-1.63227">
        <ele>230</ele>
        <time>2021-06-21T07:50:33.525Z</time>
      </trkpt>
      <trkpt lat="43.28234" lon="-1.63224">
        <ele>229</ele>
        <time>2021-06-21T07:50:34.544Z</time>
      </trkpt>
      <trkpt lat="43.28234" lon="-1.63224">
        <ele>229</ele>
        <time>2021-06-21T07:50:35.526Z</time>
      </trkpt>
      <trkpt lat="43.28226" lon="-1.63219">
        <ele>229</ele>
        <time>2021-06-21T07:50:36.627Z</time>
      </trkpt>
      <trkpt lat="43.28226" lon="-1.63219">
        <ele>229</ele>
        <time>2021-06-21T07:50:37.530Z</time>
      </trkpt>
      <trkpt lat="43.28217" lon="-1.63214">
        <ele>229</ele>
        <time>2021-06-21T07:50:38.537Z</time>
      </trkpt>
      <trkpt lat="43.28217" lon="-1.63214">
        <ele>229</ele>
        <time>2021-06-21T07:50:39.526Z</time>
      </trkpt>
      <trkpt lat="43.28207" lon="-1.63208">
        <ele>229</ele>
        <time>2021-06-21T07:50:40.537Z</time>
      </trkpt>
      <trkpt lat="43.28207" lon="-1.63208">
        <ele>229</ele>
        <time>2021-06-21T07:50:41.521Z</time>
      </trkpt>
      <trkpt lat="43.28195" lon="-1.632">
        <ele>229</ele>
        <time>2021-06-21T07:50:42.527Z</time>
      </trkpt>
      <trkpt lat="43.28195" lon="-1.632">
        <ele>229</ele>
        <time>2021-06-21T07:50:43.544Z</time>
      </trkpt>
      <trkpt lat="43.28195" lon="-1.632">
        <ele>229</ele>
        <time>2021-06-21T07:50:44.510Z</time>
      </trkpt>
      <trkpt lat="43.28184" lon="-1.63192">
        <ele>229</ele>
        <time>2021-06-21T07:50:45.533Z</time>
      </trkpt>
      <trkpt lat="43.28173" lon="-1.63182">
        <ele>229</ele>
        <time>2021-06-21T07:50:46.548Z</time>
      </trkpt>
      <trkpt lat="43.28173" lon="-1.63182">
        <ele>229</ele>
        <time>2021-06-21T07:50:47.527Z</time>
      </trkpt>
      <trkpt lat="43.28162" lon="-1.63172">
        <ele>229</ele>
        <time>2021-06-21T07:50:48.541Z</time>
      </trkpt>
      <trkpt lat="43.28162" lon="-1.63172">
        <ele>229</ele>
        <time>2021-06-21T07:50:49.520Z</time>
      </trkpt>
      <trkpt lat="43.28153" lon="-1.63161">
        <ele>229</ele>
        <time>2021-06-21T07:50:50.543Z</time>
      </trkpt>
      <trkpt lat="43.28153" lon="-1.63161">
        <ele>229</ele>
        <time>2021-06-21T07:50:51.521Z</time>
      </trkpt>
      <trkpt lat="43.28145" lon="-1.63152">
        <ele>228</ele>
        <time>2021-06-21T07:50:52.533Z</time>
      </trkpt>
      <trkpt lat="43.28145" lon="-1.63152">
        <ele>228</ele>
        <time>2021-06-21T07:50:53.519Z</time>
      </trkpt>
      <trkpt lat="43.28141" lon="-1.63149">
        <ele>227</ele>
        <time>2021-06-21T07:50:54.546Z</time>
      </trkpt>
      <trkpt lat="43.28141" lon="-1.63149">
        <ele>227</ele>
        <time>2021-06-21T07:50:55.514Z</time>
      </trkpt>
      <trkpt lat="43.28129" lon="-1.63145">
        <ele>227</ele>
        <time>2021-06-21T07:50:56.528Z</time>
      </trkpt>
      <trkpt lat="43.28129" lon="-1.63145">
        <ele>227</ele>
        <time>2021-06-21T07:50:57.544Z</time>
      </trkpt>
      <trkpt lat="43.28129" lon="-1.63145">
        <ele>227</ele>
        <time>2021-06-21T07:50:58.512Z</time>
      </trkpt>
      <trkpt lat="43.28119" lon="-1.63148">
        <ele>226</ele>
        <time>2021-06-21T07:50:59.527Z</time>
      </trkpt>
      <trkpt lat="43.28105" lon="-1.63152">
        <ele>226</ele>
        <time>2021-06-21T07:51:00.533Z</time>
      </trkpt>
      <trkpt lat="43.28105" lon="-1.63152">
        <ele>226</ele>
        <time>2021-06-21T07:51:01.513Z</time>
      </trkpt>
      <trkpt lat="43.28093" lon="-1.63156">
        <ele>225</ele>
        <time>2021-06-21T07:51:02.520Z</time>
      </trkpt>
      <trkpt lat="43.28093" lon="-1.63156">
        <ele>225</ele>
        <time>2021-06-21T07:51:03.518Z</time>
      </trkpt>
      <trkpt lat="43.28078" lon="-1.63158">
        <ele>224</ele>
        <time>2021-06-21T07:51:04.523Z</time>
      </trkpt>
      <trkpt lat="43.28078" lon="-1.63158">
        <ele>224</ele>
        <time>2021-06-21T07:51:05.515Z</time>
      </trkpt>
      <trkpt lat="43.28078" lon="-1.63158">
        <ele>224</ele>
        <time>2021-06-21T07:51:06.522Z</time>
      </trkpt>
      <trkpt lat="43.28066" lon="-1.63157">
        <ele>224</ele>
        <time>2021-06-21T07:51:07.537Z</time>
      </trkpt>
      <trkpt lat="43.28066" lon="-1.63157">
        <ele>224</ele>
        <time>2021-06-21T07:51:08.517Z</time>
      </trkpt>
      <trkpt lat="43.28058" lon="-1.63152">
        <ele>223</ele>
        <time>2021-06-21T07:51:09.536Z</time>
      </trkpt>
      <trkpt lat="43.28052" lon="-1.63145">
        <ele>223</ele>
        <time>2021-06-21T07:51:10.544Z</time>
      </trkpt>
      <trkpt lat="43.28052" lon="-1.63145">
        <ele>223</ele>
        <time>2021-06-21T07:51:11.519Z</time>
      </trkpt>
      <trkpt lat="43.28051" lon="-1.63141">
        <ele>223</ele>
        <time>2021-06-21T07:51:12.541Z</time>
      </trkpt>
      <trkpt lat="43.2805" lon="-1.63137">
        <ele>222</ele>
        <time>2021-06-21T07:51:13.546Z</time>
      </trkpt>
      <trkpt lat="43.2805" lon="-1.63137">
        <ele>222</ele>
        <time>2021-06-21T07:51:14.511Z</time>
      </trkpt>
      <trkpt lat="43.28048" lon="-1.63121">
        <ele>221</ele>
        <time>2021-06-21T07:51:15.534Z</time>
      </trkpt>
      <trkpt lat="43.28048" lon="-1.63121">
        <ele>221</ele>
        <time>2021-06-21T07:51:16.512Z</time>
      </trkpt>
      <trkpt lat="43.28048" lon="-1.63121">
        <ele>221</ele>
        <time>2021-06-21T07:51:17.520Z</time>
      </trkpt>
      <trkpt lat="43.28048" lon="-1.63108">
        <ele>221</ele>
        <time>2021-06-21T07:51:18.522Z</time>
      </trkpt>
      <trkpt lat="43.28048" lon="-1.63103">
        <ele>220</ele>
        <time>2021-06-21T07:51:19.547Z</time>
      </trkpt>
      <trkpt lat="43.28048" lon="-1.63103">
        <ele>220</ele>
        <time>2021-06-21T07:51:20.516Z</time>
      </trkpt>
      <trkpt lat="43.2805" lon="-1.63084">
        <ele>220</ele>
        <time>2021-06-21T07:51:21.527Z</time>
      </trkpt>
      <trkpt lat="43.2805" lon="-1.63084">
        <ele>220</ele>
        <time>2021-06-21T07:51:22.525Z</time>
      </trkpt>
      <trkpt lat="43.28056" lon="-1.63073">
        <ele>219</ele>
        <time>2021-06-21T07:51:23.544Z</time>
      </trkpt>
      <trkpt lat="43.28059" lon="-1.63069">
        <ele>218</ele>
        <time>2021-06-21T07:51:24.525Z</time>
      </trkpt>
      <trkpt lat="43.28059" lon="-1.63069">
        <ele>218</ele>
        <time>2021-06-21T07:51:25.546Z</time>
      </trkpt>
      <trkpt lat="43.28059" lon="-1.63069">
        <ele>218</ele>
        <time>2021-06-21T07:51:26.511Z</time>
      </trkpt>
      <trkpt lat="43.28067" lon="-1.63061">
        <ele>218</ele>
        <time>2021-06-21T07:51:27.529Z</time>
      </trkpt>
      <trkpt lat="43.28072" lon="-1.63056">
        <ele>218</ele>
        <time>2021-06-21T07:51:28.624Z</time>
      </trkpt>
      <trkpt lat="43.28075" lon="-1.63054">
        <ele>218</ele>
        <time>2021-06-21T07:51:29.516Z</time>
      </trkpt>
      <trkpt lat="43.28077" lon="-1.63053">
        <ele>217</ele>
        <time>2021-06-21T07:51:30.542Z</time>
      </trkpt>
      <trkpt lat="43.28077" lon="-1.63053">
        <ele>217</ele>
        <time>2021-06-21T07:51:31.520Z</time>
      </trkpt>
      <trkpt lat="43.28084" lon="-1.63052">
        <ele>217</ele>
        <time>2021-06-21T07:51:32.527Z</time>
      </trkpt>
      <trkpt lat="43.28084" lon="-1.63052">
        <ele>217</ele>
        <time>2021-06-21T07:51:33.543Z</time>
      </trkpt>
      <trkpt lat="43.28084" lon="-1.63052">
        <ele>217</ele>
        <time>2021-06-21T07:51:34.510Z</time>
      </trkpt>
      <trkpt lat="43.28092" lon="-1.6305">
        <ele>216</ele>
        <time>2021-06-21T07:51:35.528Z</time>
      </trkpt>
      <trkpt lat="43.28101" lon="-1.63049">
        <ele>216</ele>
        <time>2021-06-21T07:51:36.534Z</time>
      </trkpt>
      <trkpt lat="43.28101" lon="-1.63049">
        <ele>216</ele>
        <time>2021-06-21T07:51:37.511Z</time>
      </trkpt>
      <trkpt lat="43.28107" lon="-1.63047">
        <ele>216</ele>
        <time>2021-06-21T07:51:38.529Z</time>
      </trkpt>
      <trkpt lat="43.28107" lon="-1.63047">
        <ele>216</ele>
        <time>2021-06-21T07:51:39.511Z</time>
      </trkpt>
      <trkpt lat="43.28107" lon="-1.63047">
        <ele>216</ele>
        <time>2021-06-21T07:51:40.517Z</time>
      </trkpt>
      <trkpt lat="43.28112" lon="-1.63042">
        <ele>215</ele>
        <time>2021-06-21T07:51:41.512Z</time>
      </trkpt>
      <trkpt lat="43.28112" lon="-1.63042">
        <ele>215</ele>
        <time>2021-06-21T07:51:42.518Z</time>
      </trkpt>
      <trkpt lat="43.28118" lon="-1.63033">
        <ele>215</ele>
        <time>2021-06-21T07:51:43.547Z</time>
      </trkpt>
      <trkpt lat="43.28118" lon="-1.63033">
        <ele>215</ele>
        <time>2021-06-21T07:51:44.517Z</time>
      </trkpt>
      <trkpt lat="43.28123" lon="-1.63021">
        <ele>215</ele>
        <time>2021-06-21T07:51:45.537Z</time>
      </trkpt>
      <trkpt lat="43.28132" lon="-1.63008">
        <ele>214</ele>
        <time>2021-06-21T07:51:46.636Z</time>
      </trkpt>
      <trkpt lat="43.28137" lon="-1.63001">
        <ele>214</ele>
        <time>2021-06-21T07:51:47.537Z</time>
      </trkpt>
      <trkpt lat="43.28144" lon="-1.62993">
        <ele>214</ele>
        <time>2021-06-21T07:51:48.526Z</time>
      </trkpt>
      <trkpt lat="43.28144" lon="-1.62993">
        <ele>214</ele>
        <time>2021-06-21T07:51:49.513Z</time>
      </trkpt>
      <trkpt lat="43.28158" lon="-1.62977">
        <ele>213</ele>
        <time>2021-06-21T07:51:50.531Z</time>
      </trkpt>
      <trkpt lat="43.28158" lon="-1.62977">
        <ele>213</ele>
        <time>2021-06-21T07:51:51.518Z</time>
      </trkpt>
      <trkpt lat="43.28167" lon="-1.62962">
        <ele>213</ele>
        <time>2021-06-21T07:51:52.526Z</time>
      </trkpt>
      <trkpt lat="43.28167" lon="-1.62962">
        <ele>213</ele>
        <time>2021-06-21T07:51:53.509Z</time>
      </trkpt>
      <trkpt lat="43.28173" lon="-1.6295">
        <ele>213</ele>
        <time>2021-06-21T07:51:54.522Z</time>
      </trkpt>
      <trkpt lat="43.28173" lon="-1.6295">
        <ele>213</ele>
        <time>2021-06-21T07:51:55.533Z</time>
      </trkpt>
      <trkpt lat="43.28176" lon="-1.62936">
        <ele>212</ele>
        <time>2021-06-21T07:51:56.547Z</time>
      </trkpt>
      <trkpt lat="43.28176" lon="-1.62936">
        <ele>212</ele>
        <time>2021-06-21T07:51:57.531Z</time>
      </trkpt>
      <trkpt lat="43.28179" lon="-1.6293">
        <ele>212</ele>
        <time>2021-06-21T07:51:58.525Z</time>
      </trkpt>
      <trkpt lat="43.28179" lon="-1.6293">
        <ele>212</ele>
        <time>2021-06-21T07:51:59.519Z</time>
      </trkpt>
      <trkpt lat="43.28184" lon="-1.62918">
        <ele>211</ele>
        <time>2021-06-21T07:52:00.523Z</time>
      </trkpt>
      <trkpt lat="43.28186" lon="-1.62913">
        <ele>211</ele>
        <time>2021-06-21T07:52:01.529Z</time>
      </trkpt>
      <trkpt lat="43.28186" lon="-1.62913">
        <ele>211</ele>
        <time>2021-06-21T07:52:02.518Z</time>
      </trkpt>
      <trkpt lat="43.28191" lon="-1.62903">
        <ele>210</ele>
        <time>2021-06-21T07:52:03.513Z</time>
      </trkpt>
      <trkpt lat="43.28192" lon="-1.62893">
        <ele>210</ele>
        <time>2021-06-21T07:52:04.544Z</time>
      </trkpt>
      <trkpt lat="43.28192" lon="-1.62893">
        <ele>210</ele>
        <time>2021-06-21T07:52:05.512Z</time>
      </trkpt>
      <trkpt lat="43.28192" lon="-1.62893">
        <ele>210</ele>
        <time>2021-06-21T07:52:06.541Z</time>
      </trkpt>
      <trkpt lat="43.28195" lon="-1.62879">
        <ele>210</ele>
        <time>2021-06-21T07:52:07.518Z</time>
      </trkpt>
      <trkpt lat="43.28196" lon="-1.6287">
        <ele>209</ele>
        <time>2021-06-21T07:52:08.517Z</time>
      </trkpt>
      <trkpt lat="43.28197" lon="-1.6285">
        <ele>209</ele>
        <time>2021-06-21T07:52:09.571Z</time>
      </trkpt>
      <trkpt lat="43.28197" lon="-1.6285">
        <ele>209</ele>
        <time>2021-06-21T07:52:10.519Z</time>
      </trkpt>
      <trkpt lat="43.28198" lon="-1.62838">
        <ele>209</ele>
        <time>2021-06-21T07:52:11.519Z</time>
      </trkpt>
      <trkpt lat="43.282" lon="-1.62828">
        <ele>208</ele>
        <time>2021-06-21T07:52:12.535Z</time>
      </trkpt>
      <trkpt lat="43.282" lon="-1.62828">
        <ele>208</ele>
        <time>2021-06-21T07:52:13.516Z</time>
      </trkpt>
      <trkpt lat="43.28202" lon="-1.62807">
        <ele>208</ele>
        <time>2021-06-21T07:52:14.514Z</time>
      </trkpt>
      <trkpt lat="43.28202" lon="-1.62807">
        <ele>208</ele>
        <time>2021-06-21T07:52:15.519Z</time>
      </trkpt>
      <trkpt lat="43.28203" lon="-1.6279">
        <ele>207</ele>
        <time>2021-06-21T07:52:16.518Z</time>
      </trkpt>
      <trkpt lat="43.28204" lon="-1.62782">
        <ele>207</ele>
        <time>2021-06-21T07:52:17.516Z</time>
      </trkpt>
      <trkpt lat="43.28204" lon="-1.62782">
        <ele>207</ele>
        <time>2021-06-21T07:52:18.542Z</time>
      </trkpt>
      <trkpt lat="43.28209" lon="-1.62765">
        <ele>207</ele>
        <time>2021-06-21T07:52:19.511Z</time>
      </trkpt>
      <trkpt lat="43.28209" lon="-1.62765">
        <ele>207</ele>
        <time>2021-06-21T07:52:20.542Z</time>
      </trkpt>
      <trkpt lat="43.28213" lon="-1.62751">
        <ele>206</ele>
        <time>2021-06-21T07:52:21.526Z</time>
      </trkpt>
      <trkpt lat="43.28213" lon="-1.62751">
        <ele>206</ele>
        <time>2021-06-21T07:52:22.520Z</time>
      </trkpt>
      <trkpt lat="43.28223" lon="-1.62732">
        <ele>206</ele>
        <time>2021-06-21T07:52:23.533Z</time>
      </trkpt>
      <trkpt lat="43.28223" lon="-1.62732">
        <ele>206</ele>
        <time>2021-06-21T07:52:24.518Z</time>
      </trkpt>
      <trkpt lat="43.28243" lon="-1.62714">
        <ele>205</ele>
        <time>2021-06-21T07:52:25.519Z</time>
      </trkpt>
      <trkpt lat="43.28247" lon="-1.62708">
        <ele>205</ele>
        <time>2021-06-21T07:52:26.519Z</time>
      </trkpt>
      <trkpt lat="43.2825" lon="-1.62701">
        <ele>205</ele>
        <time>2021-06-21T07:52:27.519Z</time>
      </trkpt>
      <trkpt lat="43.28255" lon="-1.62695">
        <ele>205</ele>
        <time>2021-06-21T07:52:28.520Z</time>
      </trkpt>
      <trkpt lat="43.2826" lon="-1.62688">
        <ele>205</ele>
        <time>2021-06-21T07:52:29.518Z</time>
      </trkpt>
      <trkpt lat="43.2826" lon="-1.62688">
        <ele>205</ele>
        <time>2021-06-21T07:52:30.542Z</time>
      </trkpt>
      <trkpt lat="43.28272" lon="-1.62674">
        <ele>204</ele>
        <time>2021-06-21T07:52:31.519Z</time>
      </trkpt>
      <trkpt lat="43.28277" lon="-1.62667">
        <ele>204</ele>
        <time>2021-06-21T07:52:32.514Z</time>
      </trkpt>
      <trkpt lat="43.28277" lon="-1.62667">
        <ele>204</ele>
        <time>2021-06-21T07:52:33.518Z</time>
      </trkpt>
      <trkpt lat="43.28285" lon="-1.62654">
        <ele>204</ele>
        <time>2021-06-21T07:52:34.519Z</time>
      </trkpt>
      <trkpt lat="43.28289" lon="-1.62649">
        <ele>203</ele>
        <time>2021-06-21T07:52:35.516Z</time>
      </trkpt>
      <trkpt lat="43.28289" lon="-1.62649">
        <ele>203</ele>
        <time>2021-06-21T07:52:36.541Z</time>
      </trkpt>
      <trkpt lat="43.28297" lon="-1.62638">
        <ele>203</ele>
        <time>2021-06-21T07:52:37.520Z</time>
      </trkpt>
      <trkpt lat="43.28301" lon="-1.62632">
        <ele>203</ele>
        <time>2021-06-21T07:52:38.514Z</time>
      </trkpt>
      <trkpt lat="43.28301" lon="-1.62632">
        <ele>203</ele>
        <time>2021-06-21T07:52:39.519Z</time>
      </trkpt>
      <trkpt lat="43.28308" lon="-1.62617">
        <ele>203</ele>
        <time>2021-06-21T07:52:40.519Z</time>
      </trkpt>
      <trkpt lat="43.28311" lon="-1.62606">
        <ele>202</ele>
        <time>2021-06-21T07:52:41.517Z</time>
      </trkpt>
      <trkpt lat="43.28311" lon="-1.62606">
        <ele>202</ele>
        <time>2021-06-21T07:52:42.542Z</time>
      </trkpt>
      <trkpt lat="43.28314" lon="-1.62584">
        <ele>201</ele>
        <time>2021-06-21T07:52:43.518Z</time>
      </trkpt>
      <trkpt lat="43.28317" lon="-1.62571">
        <ele>201</ele>
        <time>2021-06-21T07:52:44.519Z</time>
      </trkpt>
      <trkpt lat="43.2832" lon="-1.62559">
        <ele>201</ele>
        <time>2021-06-21T07:52:45.517Z</time>
      </trkpt>
      <trkpt lat="43.2832" lon="-1.62559">
        <ele>201</ele>
        <time>2021-06-21T07:52:46.533Z</time>
      </trkpt>
      <trkpt lat="43.28327" lon="-1.62533">
        <ele>200</ele>
        <time>2021-06-21T07:52:47.525Z</time>
      </trkpt>
      <trkpt lat="43.28327" lon="-1.62533">
        <ele>200</ele>
        <time>2021-06-21T07:52:48.520Z</time>
      </trkpt>
      <trkpt lat="43.28334" lon="-1.62503">
        <ele>199</ele>
        <time>2021-06-21T07:52:49.519Z</time>
      </trkpt>
      <trkpt lat="43.28338" lon="-1.62488">
        <ele>198</ele>
        <time>2021-06-21T07:52:50.538Z</time>
      </trkpt>
      <trkpt lat="43.28343" lon="-1.62472">
        <ele>198</ele>
        <time>2021-06-21T07:52:51.543Z</time>
      </trkpt>
      <trkpt lat="43.28343" lon="-1.62472">
        <ele>198</ele>
        <time>2021-06-21T07:52:52.510Z</time>
      </trkpt>
      <trkpt lat="43.28353" lon="-1.62439">
        <ele>197</ele>
        <time>2021-06-21T07:52:53.516Z</time>
      </trkpt>
      <trkpt lat="43.28353" lon="-1.62439">
        <ele>197</ele>
        <time>2021-06-21T07:52:54.522Z</time>
      </trkpt>
      <trkpt lat="43.2836" lon="-1.6241">
        <ele>196</ele>
        <time>2021-06-21T07:52:55.541Z</time>
      </trkpt>
      <trkpt lat="43.28365" lon="-1.62395">
        <ele>196</ele>
        <time>2021-06-21T07:52:56.523Z</time>
      </trkpt>
      <trkpt lat="43.28365" lon="-1.62395">
        <ele>196</ele>
        <time>2021-06-21T07:52:57.519Z</time>
      </trkpt>
      <trkpt lat="43.28374" lon="-1.62367">
        <ele>195</ele>
        <time>2021-06-21T07:52:58.528Z</time>
      </trkpt>
      <trkpt lat="43.28374" lon="-1.62367">
        <ele>195</ele>
        <time>2021-06-21T07:52:59.519Z</time>
      </trkpt>
      <trkpt lat="43.28383" lon="-1.62341">
        <ele>194</ele>
        <time>2021-06-21T07:53:00.551Z</time>
      </trkpt>
      <trkpt lat="43.2839" lon="-1.62316">
        <ele>192</ele>
        <time>2021-06-21T07:53:01.524Z</time>
      </trkpt>
      <trkpt lat="43.28394" lon="-1.62303">
        <ele>192</ele>
        <time>2021-06-21T07:53:02.545Z</time>
      </trkpt>
      <trkpt lat="43.28394" lon="-1.62303">
        <ele>192</ele>
        <time>2021-06-21T07:53:03.510Z</time>
      </trkpt>
      <trkpt lat="43.284" lon="-1.62279">
        <ele>190</ele>
        <time>2021-06-21T07:53:04.522Z</time>
      </trkpt>
      <trkpt lat="43.284" lon="-1.62279">
        <ele>190</ele>
        <time>2021-06-21T07:53:05.523Z</time>
      </trkpt>
      <trkpt lat="43.28401" lon="-1.62267">
        <ele>190</ele>
        <time>2021-06-21T07:53:06.516Z</time>
      </trkpt>
      <trkpt lat="43.28401" lon="-1.62267">
        <ele>190</ele>
        <time>2021-06-21T07:53:07.536Z</time>
      </trkpt>
      <trkpt lat="43.28397" lon="-1.62243">
        <ele>187</ele>
        <time>2021-06-21T07:53:08.516Z</time>
      </trkpt>
      <trkpt lat="43.28397" lon="-1.62243">
        <ele>187</ele>
        <time>2021-06-21T07:53:09.534Z</time>
      </trkpt>
      <trkpt lat="43.284" lon="-1.6222">
        <ele>185</ele>
        <time>2021-06-21T07:53:10.528Z</time>
      </trkpt>
      <trkpt lat="43.284" lon="-1.6222">
        <ele>185</ele>
        <time>2021-06-21T07:53:11.519Z</time>
      </trkpt>
      <trkpt lat="43.28409" lon="-1.62197">
        <ele>183</ele>
        <time>2021-06-21T07:53:12.522Z</time>
      </trkpt>
      <trkpt lat="43.28414" lon="-1.62186">
        <ele>182</ele>
        <time>2021-06-21T07:53:13.515Z</time>
      </trkpt>
      <trkpt lat="43.28414" lon="-1.62186">
        <ele>182</ele>
        <time>2021-06-21T07:53:14.548Z</time>
      </trkpt>
      <trkpt lat="43.28422" lon="-1.62162">
        <ele>181</ele>
        <time>2021-06-21T07:53:15.527Z</time>
      </trkpt>
      <trkpt lat="43.28422" lon="-1.62162">
        <ele>181</ele>
        <time>2021-06-21T07:53:16.519Z</time>
      </trkpt>
      <trkpt lat="43.28431" lon="-1.62138">
        <ele>180</ele>
        <time>2021-06-21T07:53:17.517Z</time>
      </trkpt>
      <trkpt lat="43.28431" lon="-1.62138">
        <ele>180</ele>
        <time>2021-06-21T07:53:18.541Z</time>
      </trkpt>
      <trkpt lat="43.28446" lon="-1.62115">
        <ele>179</ele>
        <time>2021-06-21T07:53:19.517Z</time>
      </trkpt>
      <trkpt lat="43.28446" lon="-1.62115">
        <ele>179</ele>
        <time>2021-06-21T07:53:20.516Z</time>
      </trkpt>
      <trkpt lat="43.28465" lon="-1.62092">
        <ele>177</ele>
        <time>2021-06-21T07:53:21.583Z</time>
      </trkpt>
      <trkpt lat="43.28471" lon="-1.6207">
        <ele>176</ele>
        <time>2021-06-21T07:53:22.528Z</time>
      </trkpt>
      <trkpt lat="43.28471" lon="-1.6207">
        <ele>176</ele>
        <time>2021-06-21T07:53:23.523Z</time>
      </trkpt>
      <trkpt lat="43.28475" lon="-1.62049">
        <ele>175</ele>
        <time>2021-06-21T07:53:24.528Z</time>
      </trkpt>
      <trkpt lat="43.28475" lon="-1.62049">
        <ele>175</ele>
        <time>2021-06-21T07:53:25.511Z</time>
      </trkpt>
      <trkpt lat="43.28481" lon="-1.62027">
        <ele>174</ele>
        <time>2021-06-21T07:53:26.522Z</time>
      </trkpt>
      <trkpt lat="43.28481" lon="-1.62027">
        <ele>174</ele>
        <time>2021-06-21T07:53:27.535Z</time>
      </trkpt>
      <trkpt lat="43.28484" lon="-1.62005">
        <ele>172</ele>
        <time>2021-06-21T07:53:28.544Z</time>
      </trkpt>
      <trkpt lat="43.28486" lon="-1.61993">
        <ele>172</ele>
        <time>2021-06-21T07:53:29.536Z</time>
      </trkpt>
      <trkpt lat="43.28487" lon="-1.61982">
        <ele>172</ele>
        <time>2021-06-21T07:53:30.520Z</time>
      </trkpt>
      <trkpt lat="43.28487" lon="-1.61982">
        <ele>172</ele>
        <time>2021-06-21T07:53:31.540Z</time>
      </trkpt>
      <trkpt lat="43.28487" lon="-1.61982">
        <ele>172</ele>
        <time>2021-06-21T07:53:32.509Z</time>
      </trkpt>
      <trkpt lat="43.28487" lon="-1.61958">
        <ele>170</ele>
        <time>2021-06-21T07:53:33.540Z</time>
      </trkpt>
      <trkpt lat="43.28487" lon="-1.61958">
        <ele>170</ele>
        <time>2021-06-21T07:53:34.518Z</time>
      </trkpt>
      <trkpt lat="43.28487" lon="-1.61938">
        <ele>169</ele>
        <time>2021-06-21T07:53:35.530Z</time>
      </trkpt>
      <trkpt lat="43.28487" lon="-1.61938">
        <ele>169</ele>
        <time>2021-06-21T07:53:36.642Z</time>
      </trkpt>
      <trkpt lat="43.28489" lon="-1.61919">
        <ele>167</ele>
        <time>2021-06-21T07:53:37.524Z</time>
      </trkpt>
      <trkpt lat="43.28489" lon="-1.61919">
        <ele>167</ele>
        <time>2021-06-21T07:53:38.520Z</time>
      </trkpt>
      <trkpt lat="43.28491" lon="-1.61899">
        <ele>166</ele>
        <time>2021-06-21T07:53:39.522Z</time>
      </trkpt>
      <trkpt lat="43.28496" lon="-1.61878">
        <ele>164</ele>
        <time>2021-06-21T07:53:40.530Z</time>
      </trkpt>
      <trkpt lat="43.28496" lon="-1.61878">
        <ele>164</ele>
        <time>2021-06-21T07:53:41.548Z</time>
      </trkpt>
      <trkpt lat="43.28496" lon="-1.61878">
        <ele>164</ele>
        <time>2021-06-21T07:53:42.514Z</time>
      </trkpt>
      <trkpt lat="43.28498" lon="-1.61857">
        <ele>163</ele>
        <time>2021-06-21T07:53:43.523Z</time>
      </trkpt>
      <trkpt lat="43.28498" lon="-1.61857">
        <ele>163</ele>
        <time>2021-06-21T07:53:44.531Z</time>
      </trkpt>
      <trkpt lat="43.28498" lon="-1.61835">
        <ele>161</ele>
        <time>2021-06-21T07:53:45.523Z</time>
      </trkpt>
      <trkpt lat="43.28498" lon="-1.61835">
        <ele>161</ele>
        <time>2021-06-21T07:53:46.541Z</time>
      </trkpt>
      <trkpt lat="43.28499" lon="-1.6181">
        <ele>160</ele>
        <time>2021-06-21T07:53:47.524Z</time>
      </trkpt>
      <trkpt lat="43.28499" lon="-1.6181">
        <ele>160</ele>
        <time>2021-06-21T07:53:48.522Z</time>
      </trkpt>
      <trkpt lat="43.28498" lon="-1.61786">
        <ele>159</ele>
        <time>2021-06-21T07:53:49.514Z</time>
      </trkpt>
      <trkpt lat="43.28498" lon="-1.61786">
        <ele>159</ele>
        <time>2021-06-21T07:53:50.522Z</time>
      </trkpt>
      <trkpt lat="43.28496" lon="-1.61762">
        <ele>157</ele>
        <time>2021-06-21T07:53:51.519Z</time>
      </trkpt>
      <trkpt lat="43.28496" lon="-1.61751">
        <ele>157</ele>
        <time>2021-06-21T07:53:52.514Z</time>
      </trkpt>
      <trkpt lat="43.28496" lon="-1.61751">
        <ele>157</ele>
        <time>2021-06-21T07:53:53.519Z</time>
      </trkpt>
      <trkpt lat="43.28489" lon="-1.61733">
        <ele>155</ele>
        <time>2021-06-21T07:53:54.522Z</time>
      </trkpt>
      <trkpt lat="43.28485" lon="-1.61725">
        <ele>155</ele>
        <time>2021-06-21T07:53:55.515Z</time>
      </trkpt>
      <trkpt lat="43.28485" lon="-1.61725">
        <ele>155</ele>
        <time>2021-06-21T07:53:56.519Z</time>
      </trkpt>
      <trkpt lat="43.28475" lon="-1.61712">
        <ele>154</ele>
        <time>2021-06-21T07:53:57.514Z</time>
      </trkpt>
      <trkpt lat="43.28475" lon="-1.61712">
        <ele>154</ele>
        <time>2021-06-21T07:53:58.533Z</time>
      </trkpt>
      <trkpt lat="43.28467" lon="-1.61699">
        <ele>152</ele>
        <time>2021-06-21T07:53:59.514Z</time>
      </trkpt>
      <trkpt lat="43.28459" lon="-1.61686">
        <ele>151</ele>
        <time>2021-06-21T07:54:00.557Z</time>
      </trkpt>
      <trkpt lat="43.28459" lon="-1.61686">
        <ele>151</ele>
        <time>2021-06-21T07:54:01.553Z</time>
      </trkpt>
      <trkpt lat="43.28458" lon="-1.6168">
        <ele>151</ele>
        <time>2021-06-21T07:54:02.537Z</time>
      </trkpt>
      <trkpt lat="43.28455" lon="-1.61673">
        <ele>150</ele>
        <time>2021-06-21T07:54:03.511Z</time>
      </trkpt>
      <trkpt lat="43.28455" lon="-1.61673">
        <ele>150</ele>
        <time>2021-06-21T07:54:04.541Z</time>
      </trkpt>
      <trkpt lat="43.2845" lon="-1.6166">
        <ele>149</ele>
        <time>2021-06-21T07:54:05.541Z</time>
      </trkpt>
      <trkpt lat="43.28448" lon="-1.61653">
        <ele>148</ele>
        <time>2021-06-21T07:54:06.521Z</time>
      </trkpt>
      <trkpt lat="43.28445" lon="-1.61646">
        <ele>148</ele>
        <time>2021-06-21T07:54:07.514Z</time>
      </trkpt>
      <trkpt lat="43.28445" lon="-1.61646">
        <ele>148</ele>
        <time>2021-06-21T07:54:08.538Z</time>
      </trkpt>
      <trkpt lat="43.28437" lon="-1.61632">
        <ele>146</ele>
        <time>2021-06-21T07:54:09.517Z</time>
      </trkpt>
      <trkpt lat="43.28437" lon="-1.61632">
        <ele>146</ele>
        <time>2021-06-21T07:54:10.565Z</time>
      </trkpt>
      <trkpt lat="43.28434" lon="-1.61618">
        <ele>146</ele>
        <time>2021-06-21T07:54:11.518Z</time>
      </trkpt>
      <trkpt lat="43.28433" lon="-1.61609">
        <ele>145</ele>
        <time>2021-06-21T07:54:12.516Z</time>
      </trkpt>
      <trkpt lat="43.28433" lon="-1.61609">
        <ele>145</ele>
        <time>2021-06-21T07:54:13.518Z</time>
      </trkpt>
      <trkpt lat="43.28431" lon="-1.61593">
        <ele>144</ele>
        <time>2021-06-21T07:54:14.528Z</time>
      </trkpt>
      <trkpt lat="43.28431" lon="-1.61593">
        <ele>144</ele>
        <time>2021-06-21T07:54:15.520Z</time>
      </trkpt>
      <trkpt lat="43.28431" lon="-1.61577">
        <ele>143</ele>
        <time>2021-06-21T07:54:16.538Z</time>
      </trkpt>
      <trkpt lat="43.28431" lon="-1.61569">
        <ele>142</ele>
        <time>2021-06-21T07:54:17.517Z</time>
      </trkpt>
      <trkpt lat="43.28431" lon="-1.61569">
        <ele>142</ele>
        <time>2021-06-21T07:54:18.542Z</time>
      </trkpt>
      <trkpt lat="43.28431" lon="-1.61552">
        <ele>141</ele>
        <time>2021-06-21T07:54:19.515Z</time>
      </trkpt>
      <trkpt lat="43.28431" lon="-1.61552">
        <ele>141</ele>
        <time>2021-06-21T07:54:20.543Z</time>
      </trkpt>
      <trkpt lat="43.28432" lon="-1.61534">
        <ele>140</ele>
        <time>2021-06-21T07:54:21.541Z</time>
      </trkpt>
      <trkpt lat="43.28432" lon="-1.61534">
        <ele>140</ele>
        <time>2021-06-21T07:54:22.519Z</time>
      </trkpt>
      <trkpt lat="43.28436" lon="-1.61517">
        <ele>139</ele>
        <time>2021-06-21T07:54:23.536Z</time>
      </trkpt>
      <trkpt lat="43.28436" lon="-1.61517">
        <ele>139</ele>
        <time>2021-06-21T07:54:24.523Z</time>
      </trkpt>
      <trkpt lat="43.28439" lon="-1.615">
        <ele>138</ele>
        <time>2021-06-21T07:54:25.516Z</time>
      </trkpt>
      <trkpt lat="43.28439" lon="-1.615">
        <ele>138</ele>
        <time>2021-06-21T07:54:26.534Z</time>
      </trkpt>
      <trkpt lat="43.28443" lon="-1.61482">
        <ele>138</ele>
        <time>2021-06-21T07:54:27.515Z</time>
      </trkpt>
      <trkpt lat="43.28443" lon="-1.61482">
        <ele>138</ele>
        <time>2021-06-21T07:54:28.539Z</time>
      </trkpt>
      <trkpt lat="43.28447" lon="-1.61466">
        <ele>137</ele>
        <time>2021-06-21T07:54:29.515Z</time>
      </trkpt>
      <trkpt lat="43.28447" lon="-1.61466">
        <ele>137</ele>
        <time>2021-06-21T07:54:30.523Z</time>
      </trkpt>
      <trkpt lat="43.28452" lon="-1.61449">
        <ele>136</ele>
        <time>2021-06-21T07:54:31.517Z</time>
      </trkpt>
      <trkpt lat="43.28452" lon="-1.61449">
        <ele>136</ele>
        <time>2021-06-21T07:54:32.541Z</time>
      </trkpt>
      <trkpt lat="43.28455" lon="-1.61431">
        <ele>135</ele>
        <time>2021-06-21T07:54:33.521Z</time>
      </trkpt>
      <trkpt lat="43.28455" lon="-1.61423">
        <ele>135</ele>
        <time>2021-06-21T07:54:34.515Z</time>
      </trkpt>
      <trkpt lat="43.28455" lon="-1.61423">
        <ele>135</ele>
        <time>2021-06-21T07:54:35.543Z</time>
      </trkpt>
      <trkpt lat="43.28456" lon="-1.61408">
        <ele>133</ele>
        <time>2021-06-21T07:54:36.526Z</time>
      </trkpt>
      <trkpt lat="43.28455" lon="-1.61401">
        <ele>133</ele>
        <time>2021-06-21T07:54:37.520Z</time>
      </trkpt>
      <trkpt lat="43.28452" lon="-1.61394">
        <ele>132</ele>
        <time>2021-06-21T07:54:38.516Z</time>
      </trkpt>
      <trkpt lat="43.28452" lon="-1.61394">
        <ele>132</ele>
        <time>2021-06-21T07:54:39.541Z</time>
      </trkpt>
      <trkpt lat="43.28454" lon="-1.61377">
        <ele>131</ele>
        <time>2021-06-21T07:54:40.518Z</time>
      </trkpt>
      <trkpt lat="43.28454" lon="-1.61377">
        <ele>131</ele>
        <time>2021-06-21T07:54:41.520Z</time>
      </trkpt>
      <trkpt lat="43.28451" lon="-1.61349">
        <ele>130</ele>
        <time>2021-06-21T07:54:42.638Z</time>
      </trkpt>
      <trkpt lat="43.28451" lon="-1.61349">
        <ele>130</ele>
        <time>2021-06-21T07:54:43.528Z</time>
      </trkpt>
      <trkpt lat="43.28453" lon="-1.6133">
        <ele>129</ele>
        <time>2021-06-21T07:54:44.534Z</time>
      </trkpt>
      <trkpt lat="43.28453" lon="-1.6133">
        <ele>129</ele>
        <time>2021-06-21T07:54:45.521Z</time>
      </trkpt>
      <trkpt lat="43.28454" lon="-1.61321">
        <ele>129</ele>
        <time>2021-06-21T07:54:46.517Z</time>
      </trkpt>
      <trkpt lat="43.28454" lon="-1.61321">
        <ele>129</ele>
        <time>2021-06-21T07:54:47.520Z</time>
      </trkpt>
      <trkpt lat="43.28454" lon="-1.61302">
        <ele>128</ele>
        <time>2021-06-21T07:54:48.523Z</time>
      </trkpt>
      <trkpt lat="43.28452" lon="-1.61293">
        <ele>128</ele>
        <time>2021-06-21T07:54:49.515Z</time>
      </trkpt>
      <trkpt lat="43.28452" lon="-1.61293">
        <ele>128</ele>
        <time>2021-06-21T07:54:50.543Z</time>
      </trkpt>
      <trkpt lat="43.28449" lon="-1.61275">
        <ele>128</ele>
        <time>2021-06-21T07:54:51.521Z</time>
      </trkpt>
      <trkpt lat="43.28449" lon="-1.61275">
        <ele>128</ele>
        <time>2021-06-21T07:54:52.551Z</time>
      </trkpt>
      <trkpt lat="43.28449" lon="-1.61257">
        <ele>127</ele>
        <time>2021-06-21T07:54:53.527Z</time>
      </trkpt>
      <trkpt lat="43.28449" lon="-1.61257">
        <ele>127</ele>
        <time>2021-06-21T07:54:54.522Z</time>
      </trkpt>
      <trkpt lat="43.28451" lon="-1.61239">
        <ele>126</ele>
        <time>2021-06-21T07:54:55.516Z</time>
      </trkpt>
      <trkpt lat="43.28451" lon="-1.61239">
        <ele>126</ele>
        <time>2021-06-21T07:54:56.538Z</time>
      </trkpt>
      <trkpt lat="43.28452" lon="-1.61219">
        <ele>126</ele>
        <time>2021-06-21T07:54:57.510Z</time>
      </trkpt>
      <trkpt lat="43.28452" lon="-1.61219">
        <ele>126</ele>
        <time>2021-06-21T07:54:58.524Z</time>
      </trkpt>
      <trkpt lat="43.28451" lon="-1.612">
        <ele>125</ele>
        <time>2021-06-21T07:54:59.548Z</time>
      </trkpt>
      <trkpt lat="43.28451" lon="-1.612">
        <ele>125</ele>
        <time>2021-06-21T07:55:00.523Z</time>
      </trkpt>
      <trkpt lat="43.28453" lon="-1.61183">
        <ele>124</ele>
        <time>2021-06-21T07:55:01.543Z</time>
      </trkpt>
      <trkpt lat="43.28453" lon="-1.61183">
        <ele>124</ele>
        <time>2021-06-21T07:55:02.510Z</time>
      </trkpt>
      <trkpt lat="43.28456" lon="-1.61166">
        <ele>123</ele>
        <time>2021-06-21T07:55:03.519Z</time>
      </trkpt>
      <trkpt lat="43.28456" lon="-1.61166">
        <ele>123</ele>
        <time>2021-06-21T07:55:04.536Z</time>
      </trkpt>
      <trkpt lat="43.28459" lon="-1.61148">
        <ele>122</ele>
        <time>2021-06-21T07:55:05.522Z</time>
      </trkpt>
      <trkpt lat="43.28459" lon="-1.6114">
        <ele>122</ele>
        <time>2021-06-21T07:55:06.517Z</time>
      </trkpt>
      <trkpt lat="43.28459" lon="-1.6114">
        <ele>122</ele>
        <time>2021-06-21T07:55:07.541Z</time>
      </trkpt>
      <trkpt lat="43.28464" lon="-1.61121">
        <ele>121</ele>
        <time>2021-06-21T07:55:08.516Z</time>
      </trkpt>
      <trkpt lat="43.28464" lon="-1.61121">
        <ele>121</ele>
        <time>2021-06-21T07:55:09.551Z</time>
      </trkpt>
      <trkpt lat="43.2847" lon="-1.61102">
        <ele>120</ele>
        <time>2021-06-21T07:55:10.526Z</time>
      </trkpt>
      <trkpt lat="43.2847" lon="-1.61102">
        <ele>120</ele>
        <time>2021-06-21T07:55:11.521Z</time>
      </trkpt>
      <trkpt lat="43.2848" lon="-1.61083">
        <ele>119</ele>
        <time>2021-06-21T07:55:12.522Z</time>
      </trkpt>
      <trkpt lat="43.28485" lon="-1.61074">
        <ele>119</ele>
        <time>2021-06-21T07:55:13.516Z</time>
      </trkpt>
      <trkpt lat="43.28485" lon="-1.61074">
        <ele>119</ele>
        <time>2021-06-21T07:55:14.541Z</time>
      </trkpt>
      <trkpt lat="43.28493" lon="-1.61054">
        <ele>118</ele>
        <time>2021-06-21T07:55:15.519Z</time>
      </trkpt>
      <trkpt lat="43.28493" lon="-1.61054">
        <ele>118</ele>
        <time>2021-06-21T07:55:16.543Z</time>
      </trkpt>
      <trkpt lat="43.28502" lon="-1.61036">
        <ele>117</ele>
        <time>2021-06-21T07:55:17.532Z</time>
      </trkpt>
      <trkpt lat="43.28502" lon="-1.61036">
        <ele>117</ele>
        <time>2021-06-21T07:55:18.523Z</time>
      </trkpt>
      <trkpt lat="43.2851" lon="-1.61019">
        <ele>116</ele>
        <time>2021-06-21T07:55:19.518Z</time>
      </trkpt>
      <trkpt lat="43.2851" lon="-1.61019">
        <ele>116</ele>
        <time>2021-06-21T07:55:20.538Z</time>
      </trkpt>
      <trkpt lat="43.28513" lon="-1.61005">
        <ele>115</ele>
        <time>2021-06-21T07:55:21.522Z</time>
      </trkpt>
      <trkpt lat="43.28513" lon="-1.61005">
        <ele>115</ele>
        <time>2021-06-21T07:55:22.521Z</time>
      </trkpt>
      <trkpt lat="43.28509" lon="-1.60992">
        <ele>115</ele>
        <time>2021-06-21T07:55:23.516Z</time>
      </trkpt>
      <trkpt lat="43.28509" lon="-1.60992">
        <ele>115</ele>
        <time>2021-06-21T07:55:24.542Z</time>
      </trkpt>
      <trkpt lat="43.28515" lon="-1.60979">
        <ele>114</ele>
        <time>2021-06-21T07:55:25.521Z</time>
      </trkpt>
      <trkpt lat="43.28515" lon="-1.60979">
        <ele>114</ele>
        <time>2021-06-21T07:55:26.542Z</time>
      </trkpt>
      <trkpt lat="43.28516" lon="-1.60969">
        <ele>114</ele>
        <time>2021-06-21T07:55:27.518Z</time>
      </trkpt>
      <trkpt lat="43.28516" lon="-1.60969">
        <ele>114</ele>
        <time>2021-06-21T07:55:28.521Z</time>
      </trkpt>
      <trkpt lat="43.28522" lon="-1.60959">
        <ele>114</ele>
        <time>2021-06-21T07:55:29.513Z</time>
      </trkpt>
      <trkpt lat="43.28522" lon="-1.60959">
        <ele>114</ele>
        <time>2021-06-21T07:55:30.540Z</time>
      </trkpt>
      <trkpt lat="43.28524" lon="-1.60948">
        <ele>113</ele>
        <time>2021-06-21T07:55:31.517Z</time>
      </trkpt>
      <trkpt lat="43.28524" lon="-1.60948">
        <ele>113</ele>
        <time>2021-06-21T07:55:32.535Z</time>
      </trkpt>
      <trkpt lat="43.28529" lon="-1.60928">
        <ele>113</ele>
        <time>2021-06-21T07:55:33.539Z</time>
      </trkpt>
      <trkpt lat="43.28529" lon="-1.60928">
        <ele>113</ele>
        <time>2021-06-21T07:55:34.545Z</time>
      </trkpt>
      <trkpt lat="43.28529" lon="-1.60928">
        <ele>113</ele>
        <time>2021-06-21T07:55:35.511Z</time>
      </trkpt>
      <trkpt lat="43.28532" lon="-1.60913">
        <ele>113</ele>
        <time>2021-06-21T07:55:36.509Z</time>
      </trkpt>
      <trkpt lat="43.28532" lon="-1.60913">
        <ele>113</ele>
        <time>2021-06-21T07:55:37.516Z</time>
      </trkpt>
      <trkpt lat="43.28538" lon="-1.60898">
        <ele>113</ele>
        <time>2021-06-21T07:55:38.538Z</time>
      </trkpt>
      <trkpt lat="43.28538" lon="-1.60898">
        <ele>113</ele>
        <time>2021-06-21T07:55:39.521Z</time>
      </trkpt>
      <trkpt lat="43.28544" lon="-1.60881">
        <ele>113</ele>
        <time>2021-06-21T07:55:40.516Z</time>
      </trkpt>
      <trkpt lat="43.28544" lon="-1.60881">
        <ele>113</ele>
        <time>2021-06-21T07:55:41.523Z</time>
      </trkpt>
      <trkpt lat="43.28547" lon="-1.60864">
        <ele>112</ele>
        <time>2021-06-21T07:55:42.509Z</time>
      </trkpt>
      <trkpt lat="43.28547" lon="-1.60856">
        <ele>112</ele>
        <time>2021-06-21T07:55:43.528Z</time>
      </trkpt>
      <trkpt lat="43.28546" lon="-1.6084">
        <ele>111</ele>
        <time>2021-06-21T07:55:44.533Z</time>
      </trkpt>
      <trkpt lat="43.28546" lon="-1.6084">
        <ele>111</ele>
        <time>2021-06-21T07:55:45.519Z</time>
      </trkpt>
      <trkpt lat="43.28546" lon="-1.6084">
        <ele>111</ele>
        <time>2021-06-21T07:55:46.536Z</time>
      </trkpt>
      <trkpt lat="43.28547" lon="-1.60823">
        <ele>110</ele>
        <time>2021-06-21T07:55:47.520Z</time>
      </trkpt>
      <trkpt lat="43.28547" lon="-1.60823">
        <ele>110</ele>
        <time>2021-06-21T07:55:48.538Z</time>
      </trkpt>
      <trkpt lat="43.28546" lon="-1.60808">
        <ele>110</ele>
        <time>2021-06-21T07:55:49.518Z</time>
      </trkpt>
      <trkpt lat="43.28546" lon="-1.60808">
        <ele>110</ele>
        <time>2021-06-21T07:55:50.542Z</time>
      </trkpt>
      <trkpt lat="43.28546" lon="-1.60792">
        <ele>110</ele>
        <time>2021-06-21T07:55:51.520Z</time>
      </trkpt>
      <trkpt lat="43.28546" lon="-1.60792">
        <ele>110</ele>
        <time>2021-06-21T07:55:52.541Z</time>
      </trkpt>
      <trkpt lat="43.28542" lon="-1.60777">
        <ele>110</ele>
        <time>2021-06-21T07:55:53.525Z</time>
      </trkpt>
      <trkpt lat="43.28542" lon="-1.60777">
        <ele>110</ele>
        <time>2021-06-21T07:55:54.541Z</time>
      </trkpt>
      <trkpt lat="43.28536" lon="-1.60761">
        <ele>110</ele>
        <time>2021-06-21T07:55:55.518Z</time>
      </trkpt>
      <trkpt lat="43.28536" lon="-1.60761">
        <ele>110</ele>
        <time>2021-06-21T07:55:56.541Z</time>
      </trkpt>
      <trkpt lat="43.28533" lon="-1.60745">
        <ele>109</ele>
        <time>2021-06-21T07:55:57.518Z</time>
      </trkpt>
      <trkpt lat="43.28533" lon="-1.60745">
        <ele>109</ele>
        <time>2021-06-21T07:55:58.522Z</time>
      </trkpt>
      <trkpt lat="43.28532" lon="-1.60727">
        <ele>109</ele>
        <time>2021-06-21T07:55:59.516Z</time>
      </trkpt>
      <trkpt lat="43.28532" lon="-1.60727">
        <ele>109</ele>
        <time>2021-06-21T07:56:00.542Z</time>
      </trkpt>
      <trkpt lat="43.28535" lon="-1.60709">
        <ele>109</ele>
        <time>2021-06-21T07:56:01.517Z</time>
      </trkpt>
      <trkpt lat="43.28537" lon="-1.60692">
        <ele>108</ele>
        <time>2021-06-21T07:56:02.573Z</time>
      </trkpt>
      <trkpt lat="43.28537" lon="-1.60692">
        <ele>108</ele>
        <time>2021-06-21T07:56:03.517Z</time>
      </trkpt>
      <trkpt lat="43.28537" lon="-1.60692">
        <ele>108</ele>
        <time>2021-06-21T07:56:04.522Z</time>
      </trkpt>
      <trkpt lat="43.2854" lon="-1.60675">
        <ele>108</ele>
        <time>2021-06-21T07:56:05.520Z</time>
      </trkpt>
      <trkpt lat="43.28545" lon="-1.60659">
        <ele>109</ele>
        <time>2021-06-21T07:56:06.531Z</time>
      </trkpt>
      <trkpt lat="43.28545" lon="-1.60659">
        <ele>109</ele>
        <time>2021-06-21T07:56:07.509Z</time>
      </trkpt>
      <trkpt lat="43.28545" lon="-1.60659">
        <ele>109</ele>
        <time>2021-06-21T07:56:08.518Z</time>
      </trkpt>
      <trkpt lat="43.28554" lon="-1.60644">
        <ele>109</ele>
        <time>2021-06-21T07:56:09.511Z</time>
      </trkpt>
      <trkpt lat="43.28564" lon="-1.60628">
        <ele>108</ele>
        <time>2021-06-21T07:56:10.534Z</time>
      </trkpt>
      <trkpt lat="43.28564" lon="-1.60628">
        <ele>108</ele>
        <time>2021-06-21T07:56:11.509Z</time>
      </trkpt>
      <trkpt lat="43.28564" lon="-1.60628">
        <ele>108</ele>
        <time>2021-06-21T07:56:12.515Z</time>
      </trkpt>
      <trkpt lat="43.28575" lon="-1.60613">
        <ele>108</ele>
        <time>2021-06-21T07:56:13.538Z</time>
      </trkpt>
      <trkpt lat="43.28584" lon="-1.60598">
        <ele>107</ele>
        <time>2021-06-21T07:56:14.553Z</time>
      </trkpt>
      <trkpt lat="43.28584" lon="-1.60598">
        <ele>107</ele>
        <time>2021-06-21T07:56:15.529Z</time>
      </trkpt>
      <trkpt lat="43.28594" lon="-1.60582">
        <ele>107</ele>
        <time>2021-06-21T07:56:16.643Z</time>
      </trkpt>
      <trkpt lat="43.28594" lon="-1.60582">
        <ele>107</ele>
        <time>2021-06-21T07:56:17.530Z</time>
      </trkpt>
      <trkpt lat="43.28603" lon="-1.60567">
        <ele>107</ele>
        <time>2021-06-21T07:56:18.539Z</time>
      </trkpt>
      <trkpt lat="43.28603" lon="-1.60567">
        <ele>107</ele>
        <time>2021-06-21T07:56:19.516Z</time>
      </trkpt>
      <trkpt lat="43.28603" lon="-1.60567">
        <ele>107</ele>
        <time>2021-06-21T07:56:20.522Z</time>
      </trkpt>
      <trkpt lat="43.2861" lon="-1.60551">
        <ele>107</ele>
        <time>2021-06-21T07:56:21.540Z</time>
      </trkpt>
      <trkpt lat="43.28616" lon="-1.60534">
        <ele>106</ele>
        <time>2021-06-21T07:56:22.524Z</time>
      </trkpt>
      <trkpt lat="43.28616" lon="-1.60534">
        <ele>106</ele>
        <time>2021-06-21T07:56:23.526Z</time>
      </trkpt>
      <trkpt lat="43.28618" lon="-1.60518">
        <ele>106</ele>
        <time>2021-06-21T07:56:24.538Z</time>
      </trkpt>
      <trkpt lat="43.28618" lon="-1.60518">
        <ele>106</ele>
        <time>2021-06-21T07:56:25.512Z</time>
      </trkpt>
      <trkpt lat="43.28618" lon="-1.60518">
        <ele>106</ele>
        <time>2021-06-21T07:56:26.522Z</time>
      </trkpt>
      <trkpt lat="43.28617" lon="-1.60501">
        <ele>106</ele>
        <time>2021-06-21T07:56:27.536Z</time>
      </trkpt>
      <trkpt lat="43.28614" lon="-1.60489">
        <ele>106</ele>
        <time>2021-06-21T07:56:28.542Z</time>
      </trkpt>
      <trkpt lat="43.28614" lon="-1.60489">
        <ele>106</ele>
        <time>2021-06-21T07:56:29.524Z</time>
      </trkpt>
      <trkpt lat="43.28613" lon="-1.60472">
        <ele>106</ele>
        <time>2021-06-21T07:56:30.529Z</time>
      </trkpt>
      <trkpt lat="43.28613" lon="-1.60472">
        <ele>106</ele>
        <time>2021-06-21T07:56:31.509Z</time>
      </trkpt>
      <trkpt lat="43.28613" lon="-1.60472">
        <ele>106</ele>
        <time>2021-06-21T07:56:32.522Z</time>
      </trkpt>
      <trkpt lat="43.28612" lon="-1.60456">
        <ele>106</ele>
        <time>2021-06-21T07:56:33.540Z</time>
      </trkpt>
      <trkpt lat="43.28612" lon="-1.60456">
        <ele>106</ele>
        <time>2021-06-21T07:56:34.515Z</time>
      </trkpt>
      <trkpt lat="43.28612" lon="-1.6044">
        <ele>106</ele>
        <time>2021-06-21T07:56:35.548Z</time>
      </trkpt>
      <trkpt lat="43.28612" lon="-1.6044">
        <ele>106</ele>
        <time>2021-06-21T07:56:36.514Z</time>
      </trkpt>
      <trkpt lat="43.28613" lon="-1.60425">
        <ele>107</ele>
        <time>2021-06-21T07:56:37.529Z</time>
      </trkpt>
      <trkpt lat="43.28613" lon="-1.60425">
        <ele>107</ele>
        <time>2021-06-21T07:56:38.523Z</time>
      </trkpt>
      <trkpt lat="43.28615" lon="-1.60411">
        <ele>107</ele>
        <time>2021-06-21T07:56:39.537Z</time>
      </trkpt>
      <trkpt lat="43.28615" lon="-1.60411">
        <ele>107</ele>
        <time>2021-06-21T07:56:40.509Z</time>
      </trkpt>
      <trkpt lat="43.2862" lon="-1.6039">
        <ele>107</ele>
        <time>2021-06-21T07:56:41.542Z</time>
      </trkpt>
      <trkpt lat="43.28622" lon="-1.60382">
        <ele>107</ele>
        <time>2021-06-21T07:56:42.548Z</time>
      </trkpt>
      <trkpt lat="43.28622" lon="-1.60382">
        <ele>107</ele>
        <time>2021-06-21T07:56:43.537Z</time>
      </trkpt>
      <trkpt lat="43.28622" lon="-1.60382">
        <ele>107</ele>
        <time>2021-06-21T07:56:44.648Z</time>
      </trkpt>
      <trkpt lat="43.28625" lon="-1.60366">
        <ele>106</ele>
        <time>2021-06-21T07:56:45.521Z</time>
      </trkpt>
      <trkpt lat="43.2863" lon="-1.60352">
        <ele>106</ele>
        <time>2021-06-21T07:56:46.532Z</time>
      </trkpt>
      <trkpt lat="43.2863" lon="-1.60352">
        <ele>106</ele>
        <time>2021-06-21T07:56:47.525Z</time>
      </trkpt>
      <trkpt lat="43.28635" lon="-1.60337">
        <ele>107</ele>
        <time>2021-06-21T07:56:48.545Z</time>
      </trkpt>
      <trkpt lat="43.28635" lon="-1.60337">
        <ele>107</ele>
        <time>2021-06-21T07:56:49.527Z</time>
      </trkpt>
      <trkpt lat="43.28639" lon="-1.60325">
        <ele>107</ele>
        <time>2021-06-21T07:56:50.533Z</time>
      </trkpt>
      <trkpt lat="43.28639" lon="-1.60325">
        <ele>107</ele>
        <time>2021-06-21T07:56:51.510Z</time>
      </trkpt>
      <trkpt lat="43.28641" lon="-1.6032">
        <ele>107</ele>
        <time>2021-06-21T07:56:52.529Z</time>
      </trkpt>
      <trkpt lat="43.28645" lon="-1.6031">
        <ele>108</ele>
        <time>2021-06-21T07:56:53.536Z</time>
      </trkpt>
      <trkpt lat="43.28645" lon="-1.6031">
        <ele>108</ele>
        <time>2021-06-21T07:56:54.525Z</time>
      </trkpt>
      <trkpt lat="43.28646" lon="-1.60306">
        <ele>108</ele>
        <time>2021-06-21T07:56:55.547Z</time>
      </trkpt>
      <trkpt lat="43.28646" lon="-1.60306">
        <ele>108</ele>
        <time>2021-06-21T07:56:56.513Z</time>
      </trkpt>
      <trkpt lat="43.28651" lon="-1.60298">
        <ele>108</ele>
        <time>2021-06-21T07:56:57.533Z</time>
      </trkpt>
      <trkpt lat="43.28651" lon="-1.60298">
        <ele>108</ele>
        <time>2021-06-21T07:56:58.541Z</time>
      </trkpt>
      <trkpt lat="43.28654" lon="-1.6029">
        <ele>109</ele>
        <time>2021-06-21T07:56:59.528Z</time>
      </trkpt>
      <trkpt lat="43.28655" lon="-1.60283">
        <ele>110</ele>
        <time>2021-06-21T07:57:00.534Z</time>
      </trkpt>
      <trkpt lat="43.28655" lon="-1.60283">
        <ele>110</ele>
        <time>2021-06-21T07:57:01.542Z</time>
      </trkpt>
      <trkpt lat="43.28655" lon="-1.60283">
        <ele>110</ele>
        <time>2021-06-21T07:57:02.509Z</time>
      </trkpt>
      <trkpt lat="43.28657" lon="-1.60278">
        <ele>111</ele>
        <time>2021-06-21T07:57:03.531Z</time>
      </trkpt>
      <trkpt lat="43.28661" lon="-1.60272">
        <ele>112</ele>
        <time>2021-06-21T07:57:04.537Z</time>
      </trkpt>
      <trkpt lat="43.28661" lon="-1.60272">
        <ele>112</ele>
        <time>2021-06-21T07:57:05.523Z</time>
      </trkpt>
      <trkpt lat="43.28666" lon="-1.60266">
        <ele>112</ele>
        <time>2021-06-21T07:57:06.671Z</time>
      </trkpt>
      <trkpt lat="43.28666" lon="-1.60266">
        <ele>112</ele>
        <time>2021-06-21T07:57:07.528Z</time>
      </trkpt>
      <trkpt lat="43.28671" lon="-1.60259">
        <ele>113</ele>
        <time>2021-06-21T07:57:08.534Z</time>
      </trkpt>
      <trkpt lat="43.28671" lon="-1.60259">
        <ele>113</ele>
        <time>2021-06-21T07:57:09.520Z</time>
      </trkpt>
      <trkpt lat="43.28671" lon="-1.60259">
        <ele>113</ele>
        <time>2021-06-21T07:57:10.526Z</time>
      </trkpt>
      <trkpt lat="43.28675" lon="-1.60252">
        <ele>113</ele>
        <time>2021-06-21T07:57:11.532Z</time>
      </trkpt>
      <trkpt lat="43.28681" lon="-1.60246">
        <ele>114</ele>
        <time>2021-06-21T07:57:12.538Z</time>
      </trkpt>
      <trkpt lat="43.28683" lon="-1.60243">
        <ele>114</ele>
        <time>2021-06-21T07:57:13.533Z</time>
      </trkpt>
      <trkpt lat="43.28683" lon="-1.60243">
        <ele>114</ele>
        <time>2021-06-21T07:57:14.516Z</time>
      </trkpt>
      <trkpt lat="43.28689" lon="-1.60238">
        <ele>114</ele>
        <time>2021-06-21T07:57:15.526Z</time>
      </trkpt>
      <trkpt lat="43.28689" lon="-1.60238">
        <ele>114</ele>
        <time>2021-06-21T07:57:16.544Z</time>
      </trkpt>
      <trkpt lat="43.28689" lon="-1.60238">
        <ele>114</ele>
        <time>2021-06-21T07:57:17.510Z</time>
      </trkpt>
      <trkpt lat="43.28695" lon="-1.60228">
        <ele>115</ele>
        <time>2021-06-21T07:57:18.529Z</time>
      </trkpt>
      <trkpt lat="43.28695" lon="-1.60228">
        <ele>115</ele>
        <time>2021-06-21T07:57:19.535Z</time>
      </trkpt>
      <trkpt lat="43.287" lon="-1.60223">
        <ele>115</ele>
        <time>2021-06-21T07:57:20.542Z</time>
      </trkpt>
      <trkpt lat="43.287" lon="-1.60223">
        <ele>115</ele>
        <time>2021-06-21T07:57:21.510Z</time>
      </trkpt>
      <trkpt lat="43.28703" lon="-1.60218">
        <ele>116</ele>
        <time>2021-06-21T07:57:22.538Z</time>
      </trkpt>
      <trkpt lat="43.28703" lon="-1.60218">
        <ele>116</ele>
        <time>2021-06-21T07:57:23.524Z</time>
      </trkpt>
      <trkpt lat="43.28707" lon="-1.60213">
        <ele>116</ele>
        <time>2021-06-21T07:57:24.536Z</time>
      </trkpt>
      <trkpt lat="43.28707" lon="-1.60213">
        <ele>116</ele>
        <time>2021-06-21T07:57:25.524Z</time>
      </trkpt>
      <trkpt lat="43.28711" lon="-1.60206">
        <ele>116</ele>
        <time>2021-06-21T07:57:26.530Z</time>
      </trkpt>
      <trkpt lat="43.28711" lon="-1.60206">
        <ele>116</ele>
        <time>2021-06-21T07:57:27.524Z</time>
      </trkpt>
      <trkpt lat="43.28713" lon="-1.602">
        <ele>116</ele>
        <time>2021-06-21T07:57:28.539Z</time>
      </trkpt>
      <trkpt lat="43.28713" lon="-1.602">
        <ele>116</ele>
        <time>2021-06-21T07:57:29.518Z</time>
      </trkpt>
      <trkpt lat="43.28717" lon="-1.60195">
        <ele>117</ele>
        <time>2021-06-21T07:57:30.523Z</time>
      </trkpt>
      <trkpt lat="43.28717" lon="-1.60195">
        <ele>117</ele>
        <time>2021-06-21T07:57:31.531Z</time>
      </trkpt>
      <trkpt lat="43.28719" lon="-1.60189">
        <ele>118</ele>
        <time>2021-06-21T07:57:32.538Z</time>
      </trkpt>
      <trkpt lat="43.28719" lon="-1.60189">
        <ele>118</ele>
        <time>2021-06-21T07:57:33.519Z</time>
      </trkpt>
      <trkpt lat="43.28723" lon="-1.60184">
        <ele>119</ele>
        <time>2021-06-21T07:57:34.537Z</time>
      </trkpt>
      <trkpt lat="43.28723" lon="-1.60184">
        <ele>119</ele>
        <time>2021-06-21T07:57:35.523Z</time>
      </trkpt>
      <trkpt lat="43.28729" lon="-1.60178">
        <ele>120</ele>
        <time>2021-06-21T07:57:36.529Z</time>
      </trkpt>
      <trkpt lat="43.28729" lon="-1.60178">
        <ele>120</ele>
        <time>2021-06-21T07:57:37.523Z</time>
      </trkpt>
      <trkpt lat="43.28734" lon="-1.60173">
        <ele>120</ele>
        <time>2021-06-21T07:57:38.631Z</time>
      </trkpt>
      <trkpt lat="43.28734" lon="-1.60173">
        <ele>120</ele>
        <time>2021-06-21T07:57:39.524Z</time>
      </trkpt>
      <trkpt lat="43.28739" lon="-1.60165">
        <ele>120</ele>
        <time>2021-06-21T07:57:40.544Z</time>
      </trkpt>
      <trkpt lat="43.2874" lon="-1.60161">
        <ele>121</ele>
        <time>2021-06-21T07:57:41.530Z</time>
      </trkpt>
      <trkpt lat="43.2874" lon="-1.60161">
        <ele>121</ele>
        <time>2021-06-21T07:57:42.519Z</time>
      </trkpt>
      <trkpt lat="43.28743" lon="-1.60156">
        <ele>121</ele>
        <time>2021-06-21T07:57:43.534Z</time>
      </trkpt>
      <trkpt lat="43.28743" lon="-1.60156">
        <ele>121</ele>
        <time>2021-06-21T07:57:44.511Z</time>
      </trkpt>
      <trkpt lat="43.28745" lon="-1.60151">
        <ele>121</ele>
        <time>2021-06-21T07:57:45.531Z</time>
      </trkpt>
      <trkpt lat="43.28745" lon="-1.60151">
        <ele>121</ele>
        <time>2021-06-21T07:57:46.526Z</time>
      </trkpt>
      <trkpt lat="43.28748" lon="-1.60146">
        <ele>122</ele>
        <time>2021-06-21T07:57:47.533Z</time>
      </trkpt>
      <trkpt lat="43.28748" lon="-1.60146">
        <ele>122</ele>
        <time>2021-06-21T07:57:48.520Z</time>
      </trkpt>
      <trkpt lat="43.28749" lon="-1.60143">
        <ele>122</ele>
        <time>2021-06-21T07:57:49.534Z</time>
      </trkpt>
      <trkpt lat="43.28751" lon="-1.60137">
        <ele>123</ele>
        <time>2021-06-21T07:57:50.545Z</time>
      </trkpt>
      <trkpt lat="43.28751" lon="-1.60137">
        <ele>123</ele>
        <time>2021-06-21T07:57:51.527Z</time>
      </trkpt>
      <trkpt lat="43.28754" lon="-1.60132">
        <ele>124</ele>
        <time>2021-06-21T07:57:52.543Z</time>
      </trkpt>
      <trkpt lat="43.28754" lon="-1.60132">
        <ele>124</ele>
        <time>2021-06-21T07:57:53.522Z</time>
      </trkpt>
      <trkpt lat="43.28757" lon="-1.60125">
        <ele>125</ele>
        <time>2021-06-21T07:57:54.542Z</time>
      </trkpt>
      <trkpt lat="43.28757" lon="-1.60125">
        <ele>125</ele>
        <time>2021-06-21T07:57:55.521Z</time>
      </trkpt>
      <trkpt lat="43.2876" lon="-1.60117">
        <ele>126</ele>
        <time>2021-06-21T07:57:56.527Z</time>
      </trkpt>
      <trkpt lat="43.2876" lon="-1.60117">
        <ele>126</ele>
        <time>2021-06-21T07:57:57.542Z</time>
      </trkpt>
      <trkpt lat="43.2876" lon="-1.60117">
        <ele>126</ele>
        <time>2021-06-21T07:57:58.511Z</time>
      </trkpt>
      <trkpt lat="43.28764" lon="-1.6011">
        <ele>126</ele>
        <time>2021-06-21T07:57:59.531Z</time>
      </trkpt>
      <trkpt lat="43.28768" lon="-1.60103">
        <ele>127</ele>
        <time>2021-06-21T07:58:00.541Z</time>
      </trkpt>
      <trkpt lat="43.28768" lon="-1.60103">
        <ele>127</ele>
        <time>2021-06-21T07:58:01.522Z</time>
      </trkpt>
      <trkpt lat="43.28771" lon="-1.60096">
        <ele>128</ele>
        <time>2021-06-21T07:58:02.530Z</time>
      </trkpt>
      <trkpt lat="43.28771" lon="-1.60096">
        <ele>128</ele>
        <time>2021-06-21T07:58:03.513Z</time>
      </trkpt>
      <trkpt lat="43.28771" lon="-1.60096">
        <ele>128</ele>
        <time>2021-06-21T07:58:04.519Z</time>
      </trkpt>
      <trkpt lat="43.28774" lon="-1.60089">
        <ele>130</ele>
        <time>2021-06-21T07:58:05.541Z</time>
      </trkpt>
      <trkpt lat="43.28774" lon="-1.60089">
        <ele>130</ele>
        <time>2021-06-21T07:58:06.516Z</time>
      </trkpt>
      <trkpt lat="43.28776" lon="-1.60083">
        <ele>130</ele>
        <time>2021-06-21T07:58:07.518Z</time>
      </trkpt>
      <trkpt lat="43.28776" lon="-1.60083">
        <ele>130</ele>
        <time>2021-06-21T07:58:08.524Z</time>
      </trkpt>
      <trkpt lat="43.28777" lon="-1.60076">
        <ele>130</ele>
        <time>2021-06-21T07:58:09.510Z</time>
      </trkpt>
      <trkpt lat="43.28777" lon="-1.60076">
        <ele>130</ele>
        <time>2021-06-21T07:58:10.517Z</time>
      </trkpt>
      <trkpt lat="43.28779" lon="-1.6007">
        <ele>131</ele>
        <time>2021-06-21T07:58:11.512Z</time>
      </trkpt>
      <trkpt lat="43.28779" lon="-1.6007">
        <ele>131</ele>
        <time>2021-06-21T07:58:12.520Z</time>
      </trkpt>
      <trkpt lat="43.2878" lon="-1.60062">
        <ele>131</ele>
        <time>2021-06-21T07:58:13.546Z</time>
      </trkpt>
      <trkpt lat="43.2878" lon="-1.60062">
        <ele>131</ele>
        <time>2021-06-21T07:58:14.513Z</time>
      </trkpt>
      <trkpt lat="43.28783" lon="-1.60055">
        <ele>131</ele>
        <time>2021-06-21T07:58:15.542Z</time>
      </trkpt>
      <trkpt lat="43.28785" lon="-1.60048">
        <ele>131</ele>
        <time>2021-06-21T07:58:16.548Z</time>
      </trkpt>
      <trkpt lat="43.28785" lon="-1.60048">
        <ele>131</ele>
        <time>2021-06-21T07:58:17.523Z</time>
      </trkpt>
      <trkpt lat="43.28788" lon="-1.60041">
        <ele>132</ele>
        <time>2021-06-21T07:58:18.526Z</time>
      </trkpt>
      <trkpt lat="43.28788" lon="-1.60041">
        <ele>132</ele>
        <time>2021-06-21T07:58:19.511Z</time>
      </trkpt>
      <trkpt lat="43.28789" lon="-1.60034">
        <ele>132</ele>
        <time>2021-06-21T07:58:20.516Z</time>
      </trkpt>
      <trkpt lat="43.28789" lon="-1.60034">
        <ele>132</ele>
        <time>2021-06-21T07:58:21.523Z</time>
      </trkpt>
      <trkpt lat="43.28789" lon="-1.60034">
        <ele>132</ele>
        <time>2021-06-21T07:58:22.512Z</time>
      </trkpt>
      <trkpt lat="43.28791" lon="-1.60027">
        <ele>133</ele>
        <time>2021-06-21T07:58:23.517Z</time>
      </trkpt>
      <trkpt lat="43.28791" lon="-1.60027">
        <ele>133</ele>
        <time>2021-06-21T07:58:24.522Z</time>
      </trkpt>
      <trkpt lat="43.28793" lon="-1.60021">
        <ele>134</ele>
        <time>2021-06-21T07:58:25.536Z</time>
      </trkpt>
      <trkpt lat="43.28794" lon="-1.60015">
        <ele>135</ele>
        <time>2021-06-21T07:58:26.544Z</time>
      </trkpt>
      <trkpt lat="43.28794" lon="-1.60015">
        <ele>135</ele>
        <time>2021-06-21T07:58:27.532Z</time>
      </trkpt>
      <trkpt lat="43.28794" lon="-1.60015">
        <ele>135</ele>
        <time>2021-06-21T07:58:28.524Z</time>
      </trkpt>
      <trkpt lat="43.28797" lon="-1.60005">
        <ele>136</ele>
        <time>2021-06-21T07:58:29.529Z</time>
      </trkpt>
      <trkpt lat="43.28797" lon="-1.60005">
        <ele>136</ele>
        <time>2021-06-21T07:58:30.543Z</time>
      </trkpt>
      <trkpt lat="43.28797" lon="-1.60005">
        <ele>136</ele>
        <time>2021-06-21T07:58:31.511Z</time>
      </trkpt>
      <trkpt lat="43.288" lon="-1.6">
        <ele>136</ele>
        <time>2021-06-21T07:58:32.511Z</time>
      </trkpt>
      <trkpt lat="43.288" lon="-1.6">
        <ele>136</ele>
        <time>2021-06-21T07:58:33.518Z</time>
      </trkpt>
      <trkpt lat="43.28803" lon="-1.59994">
        <ele>136</ele>
        <time>2021-06-21T07:58:34.542Z</time>
      </trkpt>
      <trkpt lat="43.28803" lon="-1.59994">
        <ele>136</ele>
        <time>2021-06-21T07:58:35.511Z</time>
      </trkpt>
      <trkpt lat="43.28806" lon="-1.59985">
        <ele>137</ele>
        <time>2021-06-21T07:58:36.536Z</time>
      </trkpt>
      <trkpt lat="43.28806" lon="-1.59985">
        <ele>137</ele>
        <time>2021-06-21T07:58:37.541Z</time>
      </trkpt>
      <trkpt lat="43.28806" lon="-1.59985">
        <ele>137</ele>
        <time>2021-06-21T07:58:38.514Z</time>
      </trkpt>
      <trkpt lat="43.28808" lon="-1.59978">
        <ele>137</ele>
        <time>2021-06-21T07:58:39.543Z</time>
      </trkpt>
      <trkpt lat="43.28808" lon="-1.59978">
        <ele>137</ele>
        <time>2021-06-21T07:58:40.511Z</time>
      </trkpt>
      <trkpt lat="43.28809" lon="-1.59969">
        <ele>137</ele>
        <time>2021-06-21T07:58:41.526Z</time>
      </trkpt>
      <trkpt lat="43.28811" lon="-1.59961">
        <ele>137</ele>
        <time>2021-06-21T07:58:42.532Z</time>
      </trkpt>
      <trkpt lat="43.28811" lon="-1.59961">
        <ele>137</ele>
        <time>2021-06-21T07:58:43.525Z</time>
      </trkpt>
      <trkpt lat="43.28811" lon="-1.59961">
        <ele>137</ele>
        <time>2021-06-21T07:58:44.673Z</time>
      </trkpt>
      <trkpt lat="43.28815" lon="-1.59954">
        <ele>137</ele>
        <time>2021-06-21T07:58:45.535Z</time>
      </trkpt>
      <trkpt lat="43.28819" lon="-1.59947">
        <ele>137</ele>
        <time>2021-06-21T07:58:46.541Z</time>
      </trkpt>
      <trkpt lat="43.28819" lon="-1.59947">
        <ele>137</ele>
        <time>2021-06-21T07:58:47.513Z</time>
      </trkpt>
      <trkpt lat="43.28819" lon="-1.59947">
        <ele>137</ele>
        <time>2021-06-21T07:58:48.519Z</time>
      </trkpt>
      <trkpt lat="43.28822" lon="-1.5994">
        <ele>137</ele>
        <time>2021-06-21T07:58:49.510Z</time>
      </trkpt>
      <trkpt lat="43.28824" lon="-1.59936">
        <ele>137</ele>
        <time>2021-06-21T07:58:50.535Z</time>
      </trkpt>
      <trkpt lat="43.28827" lon="-1.59929">
        <ele>137</ele>
        <time>2021-06-21T07:58:51.541Z</time>
      </trkpt>
      <trkpt lat="43.28827" lon="-1.59929">
        <ele>137</ele>
        <time>2021-06-21T07:58:52.530Z</time>
      </trkpt>
      <trkpt lat="43.28831" lon="-1.59922">
        <ele>137</ele>
        <time>2021-06-21T07:58:53.535Z</time>
      </trkpt>
      <trkpt lat="43.28831" lon="-1.59922">
        <ele>137</ele>
        <time>2021-06-21T07:58:54.522Z</time>
      </trkpt>
      <trkpt lat="43.28833" lon="-1.59918">
        <ele>137</ele>
        <time>2021-06-21T07:58:55.513Z</time>
      </trkpt>
      <trkpt lat="43.28833" lon="-1.59918">
        <ele>137</ele>
        <time>2021-06-21T07:58:56.519Z</time>
      </trkpt>
      <trkpt lat="43.28837" lon="-1.59911">
        <ele>137</ele>
        <time>2021-06-21T07:58:57.527Z</time>
      </trkpt>
      <trkpt lat="43.28841" lon="-1.59904">
        <ele>137</ele>
        <time>2021-06-21T07:58:58.532Z</time>
      </trkpt>
      <trkpt lat="43.28841" lon="-1.59904">
        <ele>137</ele>
        <time>2021-06-21T07:58:59.511Z</time>
      </trkpt>
      <trkpt lat="43.28841" lon="-1.59904">
        <ele>137</ele>
        <time>2021-06-21T07:59:00.518Z</time>
      </trkpt>
      <trkpt lat="43.28844" lon="-1.59898">
        <ele>136</ele>
        <time>2021-06-21T07:59:01.517Z</time>
      </trkpt>
      <trkpt lat="43.28844" lon="-1.59898">
        <ele>136</ele>
        <time>2021-06-21T07:59:02.523Z</time>
      </trkpt>
      <trkpt lat="43.28848" lon="-1.59891">
        <ele>136</ele>
        <time>2021-06-21T07:59:03.513Z</time>
      </trkpt>
      <trkpt lat="43.28848" lon="-1.59891">
        <ele>136</ele>
        <time>2021-06-21T07:59:04.520Z</time>
      </trkpt>
      <trkpt lat="43.28851" lon="-1.59885">
        <ele>136</ele>
        <time>2021-06-21T07:59:05.533Z</time>
      </trkpt>
      <trkpt lat="43.28854" lon="-1.59878">
        <ele>136</ele>
        <time>2021-06-21T07:59:06.539Z</time>
      </trkpt>
      <trkpt lat="43.28854" lon="-1.59878">
        <ele>136</ele>
        <time>2021-06-21T07:59:07.522Z</time>
      </trkpt>
      <trkpt lat="43.28854" lon="-1.59878">
        <ele>136</ele>
        <time>2021-06-21T07:59:08.528Z</time>
      </trkpt>
      <trkpt lat="43.28857" lon="-1.59871">
        <ele>136</ele>
        <time>2021-06-21T07:59:09.520Z</time>
      </trkpt>
      <trkpt lat="43.28857" lon="-1.59871">
        <ele>136</ele>
        <time>2021-06-21T07:59:10.527Z</time>
      </trkpt>
      <trkpt lat="43.2886" lon="-1.59864">
        <ele>137</ele>
        <time>2021-06-21T07:59:11.547Z</time>
      </trkpt>
      <trkpt lat="43.2886" lon="-1.59864">
        <ele>137</ele>
        <time>2021-06-21T07:59:12.513Z</time>
      </trkpt>
      <trkpt lat="43.28864" lon="-1.59858">
        <ele>137</ele>
        <time>2021-06-21T07:59:13.532Z</time>
      </trkpt>
      <trkpt lat="43.28867" lon="-1.59851">
        <ele>137</ele>
        <time>2021-06-21T07:59:14.538Z</time>
      </trkpt>
      <trkpt lat="43.28867" lon="-1.59851">
        <ele>137</ele>
        <time>2021-06-21T07:59:15.522Z</time>
      </trkpt>
      <trkpt lat="43.28867" lon="-1.59851">
        <ele>137</ele>
        <time>2021-06-21T07:59:16.528Z</time>
      </trkpt>
      <trkpt lat="43.2887" lon="-1.59845">
        <ele>137</ele>
        <time>2021-06-21T07:59:17.517Z</time>
      </trkpt>
      <trkpt lat="43.28874" lon="-1.5984">
        <ele>137</ele>
        <time>2021-06-21T07:59:18.542Z</time>
      </trkpt>
      <trkpt lat="43.28874" lon="-1.5984">
        <ele>137</ele>
        <time>2021-06-21T07:59:19.548Z</time>
      </trkpt>
      <trkpt lat="43.28874" lon="-1.5984">
        <ele>137</ele>
        <time>2021-06-21T07:59:20.513Z</time>
      </trkpt>
      <trkpt lat="43.28879" lon="-1.59834">
        <ele>137</ele>
        <time>2021-06-21T07:59:21.511Z</time>
      </trkpt>
      <trkpt lat="43.28884" lon="-1.59827">
        <ele>137</ele>
        <time>2021-06-21T07:59:22.528Z</time>
      </trkpt>
      <trkpt lat="43.28884" lon="-1.59827">
        <ele>137</ele>
        <time>2021-06-21T07:59:23.542Z</time>
      </trkpt>
      <trkpt lat="43.28888" lon="-1.59821">
        <ele>136</ele>
        <time>2021-06-21T07:59:24.547Z</time>
      </trkpt>
      <trkpt lat="43.28888" lon="-1.59821">
        <ele>136</ele>
        <time>2021-06-21T07:59:25.533Z</time>
      </trkpt>
      <trkpt lat="43.28893" lon="-1.59816">
        <ele>136</ele>
        <time>2021-06-21T07:59:26.544Z</time>
      </trkpt>
      <trkpt lat="43.28893" lon="-1.59816">
        <ele>136</ele>
        <time>2021-06-21T07:59:27.540Z</time>
      </trkpt>
      <trkpt lat="43.28898" lon="-1.59811">
        <ele>136</ele>
        <time>2021-06-21T07:59:28.545Z</time>
      </trkpt>
      <trkpt lat="43.28898" lon="-1.59811">
        <ele>136</ele>
        <time>2021-06-21T07:59:29.518Z</time>
      </trkpt>
      <trkpt lat="43.28898" lon="-1.59811">
        <ele>136</ele>
        <time>2021-06-21T07:59:30.525Z</time>
      </trkpt>
      <trkpt lat="43.28903" lon="-1.59806">
        <ele>136</ele>
        <time>2021-06-21T07:59:31.548Z</time>
      </trkpt>
      <trkpt lat="43.28903" lon="-1.59806">
        <ele>136</ele>
        <time>2021-06-21T07:59:32.524Z</time>
      </trkpt>
      <trkpt lat="43.28909" lon="-1.59801">
        <ele>135</ele>
        <time>2021-06-21T07:59:33.514Z</time>
      </trkpt>
      <trkpt lat="43.28909" lon="-1.59801">
        <ele>135</ele>
        <time>2021-06-21T07:59:34.520Z</time>
      </trkpt>
      <trkpt lat="43.28914" lon="-1.59796">
        <ele>135</ele>
        <time>2021-06-21T07:59:35.528Z</time>
      </trkpt>
      <trkpt lat="43.28919" lon="-1.59792">
        <ele>135</ele>
        <time>2021-06-21T07:59:36.548Z</time>
      </trkpt>
      <trkpt lat="43.28919" lon="-1.59792">
        <ele>135</ele>
        <time>2021-06-21T07:59:37.527Z</time>
      </trkpt>
      <trkpt lat="43.28924" lon="-1.59787">
        <ele>134</ele>
        <time>2021-06-21T07:59:38.534Z</time>
      </trkpt>
      <trkpt lat="43.28924" lon="-1.59787">
        <ele>134</ele>
        <time>2021-06-21T07:59:39.516Z</time>
      </trkpt>
      <trkpt lat="43.28924" lon="-1.59787">
        <ele>134</ele>
        <time>2021-06-21T07:59:40.523Z</time>
      </trkpt>
      <trkpt lat="43.28929" lon="-1.59783">
        <ele>134</ele>
        <time>2021-06-21T07:59:41.517Z</time>
      </trkpt>
      <trkpt lat="43.28934" lon="-1.59778">
        <ele>133</ele>
        <time>2021-06-21T07:59:42.525Z</time>
      </trkpt>
      <trkpt lat="43.28934" lon="-1.59778">
        <ele>133</ele>
        <time>2021-06-21T07:59:43.509Z</time>
      </trkpt>
      <trkpt lat="43.28934" lon="-1.59778">
        <ele>133</ele>
        <time>2021-06-21T07:59:44.515Z</time>
      </trkpt>
      <trkpt lat="43.2894" lon="-1.59773">
        <ele>133</ele>
        <time>2021-06-21T07:59:45.533Z</time>
      </trkpt>
      <trkpt lat="43.2894" lon="-1.59773">
        <ele>133</ele>
        <time>2021-06-21T07:59:46.644Z</time>
      </trkpt>
      <trkpt lat="43.28946" lon="-1.59768">
        <ele>132</ele>
        <time>2021-06-21T07:59:47.542Z</time>
      </trkpt>
      <trkpt lat="43.28952" lon="-1.59763">
        <ele>132</ele>
        <time>2021-06-21T07:59:48.549Z</time>
      </trkpt>
      <trkpt lat="43.28952" lon="-1.59763">
        <ele>132</ele>
        <time>2021-06-21T07:59:49.540Z</time>
      </trkpt>
      <trkpt lat="43.28952" lon="-1.59763">
        <ele>132</ele>
        <time>2021-06-21T07:59:50.510Z</time>
      </trkpt>
      <trkpt lat="43.28957" lon="-1.59758">
        <ele>132</ele>
        <time>2021-06-21T07:59:51.530Z</time>
      </trkpt>
      <trkpt lat="43.28963" lon="-1.59752">
        <ele>132</ele>
        <time>2021-06-21T07:59:52.537Z</time>
      </trkpt>
      <trkpt lat="43.28963" lon="-1.59752">
        <ele>132</ele>
        <time>2021-06-21T07:59:53.533Z</time>
      </trkpt>
      <trkpt lat="43.28965" lon="-1.5975">
        <ele>132</ele>
        <time>2021-06-21T07:59:54.521Z</time>
      </trkpt>
      <trkpt lat="43.28968" lon="-1.59748">
        <ele>132</ele>
        <time>2021-06-21T07:59:55.548Z</time>
      </trkpt>
      <trkpt lat="43.28968" lon="-1.59748">
        <ele>132</ele>
        <time>2021-06-21T07:59:56.515Z</time>
      </trkpt>
      <trkpt lat="43.28973" lon="-1.59743">
        <ele>132</ele>
        <time>2021-06-21T07:59:57.532Z</time>
      </trkpt>
      <trkpt lat="43.28973" lon="-1.59743">
        <ele>132</ele>
        <time>2021-06-21T07:59:58.526Z</time>
      </trkpt>
      <trkpt lat="43.28979" lon="-1.59738">
        <ele>132</ele>
        <time>2021-06-21T07:59:59.514Z</time>
      </trkpt>
      <trkpt lat="43.28979" lon="-1.59738">
        <ele>132</ele>
        <time>2021-06-21T08:00:00.521Z</time>
      </trkpt>
      <trkpt lat="43.28984" lon="-1.59732">
        <ele>132</ele>
        <time>2021-06-21T08:00:01.540Z</time>
      </trkpt>
      <trkpt lat="43.28991" lon="-1.59726">
        <ele>132</ele>
        <time>2021-06-21T08:00:02.546Z</time>
      </trkpt>
      <trkpt lat="43.28991" lon="-1.59726">
        <ele>132</ele>
        <time>2021-06-21T08:00:03.529Z</time>
      </trkpt>
      <trkpt lat="43.28997" lon="-1.59718">
        <ele>132</ele>
        <time>2021-06-21T08:00:04.536Z</time>
      </trkpt>
      <trkpt lat="43.28997" lon="-1.59718">
        <ele>132</ele>
        <time>2021-06-21T08:00:05.514Z</time>
      </trkpt>
      <trkpt lat="43.29004" lon="-1.59707">
        <ele>132</ele>
        <time>2021-06-21T08:00:06.529Z</time>
      </trkpt>
      <trkpt lat="43.29004" lon="-1.59707">
        <ele>132</ele>
        <time>2021-06-21T08:00:07.511Z</time>
      </trkpt>
      <trkpt lat="43.29004" lon="-1.59707">
        <ele>132</ele>
        <time>2021-06-21T08:00:08.524Z</time>
      </trkpt>
      <trkpt lat="43.29009" lon="-1.59691">
        <ele>133</ele>
        <time>2021-06-21T08:00:09.544Z</time>
      </trkpt>
      <trkpt lat="43.29009" lon="-1.59691">
        <ele>133</ele>
        <time>2021-06-21T08:00:10.512Z</time>
      </trkpt>
      <trkpt lat="43.29012" lon="-1.59674">
        <ele>133</ele>
        <time>2021-06-21T08:00:11.513Z</time>
      </trkpt>
      <trkpt lat="43.29012" lon="-1.59674">
        <ele>133</ele>
        <time>2021-06-21T08:00:12.520Z</time>
      </trkpt>
      <trkpt lat="43.29011" lon="-1.59654">
        <ele>133</ele>
        <time>2021-06-21T08:00:13.511Z</time>
      </trkpt>
      <trkpt lat="43.29011" lon="-1.59654">
        <ele>133</ele>
        <time>2021-06-21T08:00:14.516Z</time>
      </trkpt>
      <trkpt lat="43.29012" lon="-1.59634">
        <ele>133</ele>
        <time>2021-06-21T08:00:15.516Z</time>
      </trkpt>
      <trkpt lat="43.29012" lon="-1.59634">
        <ele>133</ele>
        <time>2021-06-21T08:00:16.522Z</time>
      </trkpt>
      <trkpt lat="43.29017" lon="-1.59603">
        <ele>133</ele>
        <time>2021-06-21T08:00:17.537Z</time>
      </trkpt>
      <trkpt lat="43.29019" lon="-1.59593">
        <ele>133</ele>
        <time>2021-06-21T08:00:18.548Z</time>
      </trkpt>
      <trkpt lat="43.29019" lon="-1.59593">
        <ele>133</ele>
        <time>2021-06-21T08:00:19.520Z</time>
      </trkpt>
      <trkpt lat="43.29019" lon="-1.59593">
        <ele>133</ele>
        <time>2021-06-21T08:00:20.527Z</time>
      </trkpt>
      <trkpt lat="43.29027" lon="-1.59576">
        <ele>132</ele>
        <time>2021-06-21T08:00:21.544Z</time>
      </trkpt>
      <trkpt lat="43.29027" lon="-1.59576">
        <ele>132</ele>
        <time>2021-06-21T08:00:22.524Z</time>
      </trkpt>
      <trkpt lat="43.29037" lon="-1.59561">
        <ele>132</ele>
        <time>2021-06-21T08:00:23.536Z</time>
      </trkpt>
      <trkpt lat="43.2905" lon="-1.59548">
        <ele>131</ele>
        <time>2021-06-21T08:00:24.541Z</time>
      </trkpt>
      <trkpt lat="43.2905" lon="-1.59548">
        <ele>131</ele>
        <time>2021-06-21T08:00:25.519Z</time>
      </trkpt>
      <trkpt lat="43.29058" lon="-1.59543">
        <ele>131</ele>
        <time>2021-06-21T08:00:26.511Z</time>
      </trkpt>
      <trkpt lat="43.29058" lon="-1.59543">
        <ele>131</ele>
        <time>2021-06-21T08:00:27.526Z</time>
      </trkpt>
      <trkpt lat="43.29076" lon="-1.59535">
        <ele>130</ele>
        <time>2021-06-21T08:00:28.542Z</time>
      </trkpt>
      <trkpt lat="43.29093" lon="-1.59528">
        <ele>128</ele>
        <time>2021-06-21T08:00:29.547Z</time>
      </trkpt>
      <trkpt lat="43.29101" lon="-1.59524">
        <ele>128</ele>
        <time>2021-06-21T08:00:30.532Z</time>
      </trkpt>
      <trkpt lat="43.29101" lon="-1.59524">
        <ele>128</ele>
        <time>2021-06-21T08:00:31.520Z</time>
      </trkpt>
      <trkpt lat="43.29114" lon="-1.59514">
        <ele>127</ele>
        <time>2021-06-21T08:00:32.546Z</time>
      </trkpt>
      <trkpt lat="43.2912" lon="-1.59507">
        <ele>127</ele>
        <time>2021-06-21T08:00:33.543Z</time>
      </trkpt>
      <trkpt lat="43.2912" lon="-1.59507">
        <ele>127</ele>
        <time>2021-06-21T08:00:34.511Z</time>
      </trkpt>
      <trkpt lat="43.29131" lon="-1.59491">
        <ele>126</ele>
        <time>2021-06-21T08:00:35.548Z</time>
      </trkpt>
      <trkpt lat="43.29131" lon="-1.59491">
        <ele>126</ele>
        <time>2021-06-21T08:00:36.514Z</time>
      </trkpt>
      <trkpt lat="43.29137" lon="-1.59482">
        <ele>125</ele>
        <time>2021-06-21T08:00:37.544Z</time>
      </trkpt>
      <trkpt lat="43.29148" lon="-1.59465">
        <ele>124</ele>
        <time>2021-06-21T08:00:38.616Z</time>
      </trkpt>
      <trkpt lat="43.29148" lon="-1.59465">
        <ele>124</ele>
        <time>2021-06-21T08:00:39.515Z</time>
      </trkpt>
      <trkpt lat="43.29161" lon="-1.59449">
        <ele>123</ele>
        <time>2021-06-21T08:00:40.603Z</time>
      </trkpt>
      <trkpt lat="43.29161" lon="-1.59449">
        <ele>123</ele>
        <time>2021-06-21T08:00:41.541Z</time>
      </trkpt>
      <trkpt lat="43.29161" lon="-1.59449">
        <ele>123</ele>
        <time>2021-06-21T08:00:42.514Z</time>
      </trkpt>
      <trkpt lat="43.29175" lon="-1.59436">
        <ele>122</ele>
        <time>2021-06-21T08:00:43.536Z</time>
      </trkpt>
      <trkpt lat="43.29175" lon="-1.59436">
        <ele>122</ele>
        <time>2021-06-21T08:00:44.645Z</time>
      </trkpt>
      <trkpt lat="43.29192" lon="-1.59422">
        <ele>120</ele>
        <time>2021-06-21T08:00:45.536Z</time>
      </trkpt>
      <trkpt lat="43.29208" lon="-1.59408">
        <ele>119</ele>
        <time>2021-06-21T08:00:46.543Z</time>
      </trkpt>
      <trkpt lat="43.29208" lon="-1.59408">
        <ele>119</ele>
        <time>2021-06-21T08:00:47.527Z</time>
      </trkpt>
      <trkpt lat="43.29224" lon="-1.59396">
        <ele>118</ele>
        <time>2021-06-21T08:00:48.545Z</time>
      </trkpt>
      <trkpt lat="43.29224" lon="-1.59396">
        <ele>118</ele>
        <time>2021-06-21T08:00:49.522Z</time>
      </trkpt>
      <trkpt lat="43.29224" lon="-1.59396">
        <ele>118</ele>
        <time>2021-06-21T08:00:50.528Z</time>
      </trkpt>
      <trkpt lat="43.29239" lon="-1.59384">
        <ele>117</ele>
        <time>2021-06-21T08:00:51.531Z</time>
      </trkpt>
      <trkpt lat="43.29254" lon="-1.59373">
        <ele>116</ele>
        <time>2021-06-21T08:00:52.586Z</time>
      </trkpt>
      <trkpt lat="43.2926" lon="-1.59367">
        <ele>115</ele>
        <time>2021-06-21T08:00:53.528Z</time>
      </trkpt>
      <trkpt lat="43.2926" lon="-1.59367">
        <ele>115</ele>
        <time>2021-06-21T08:00:54.527Z</time>
      </trkpt>
      <trkpt lat="43.29266" lon="-1.59363">
        <ele>114</ele>
        <time>2021-06-21T08:00:55.546Z</time>
      </trkpt>
      <trkpt lat="43.29266" lon="-1.59363">
        <ele>114</ele>
        <time>2021-06-21T08:00:56.511Z</time>
      </trkpt>
      <trkpt lat="43.29284" lon="-1.59352">
        <ele>112</ele>
        <time>2021-06-21T08:00:57.535Z</time>
      </trkpt>
      <trkpt lat="43.29284" lon="-1.59352">
        <ele>112</ele>
        <time>2021-06-21T08:00:58.540Z</time>
      </trkpt>
      <trkpt lat="43.29299" lon="-1.59345">
        <ele>111</ele>
        <time>2021-06-21T08:00:59.547Z</time>
      </trkpt>
      <trkpt lat="43.29306" lon="-1.59343">
        <ele>110</ele>
        <time>2021-06-21T08:01:00.531Z</time>
      </trkpt>
      <trkpt lat="43.29306" lon="-1.59343">
        <ele>110</ele>
        <time>2021-06-21T08:01:01.517Z</time>
      </trkpt>
      <trkpt lat="43.29318" lon="-1.59338">
        <ele>109</ele>
        <time>2021-06-21T08:01:02.522Z</time>
      </trkpt>
      <trkpt lat="43.29318" lon="-1.59338">
        <ele>109</ele>
        <time>2021-06-21T08:01:03.513Z</time>
      </trkpt>
      <trkpt lat="43.29318" lon="-1.59338">
        <ele>109</ele>
        <time>2021-06-21T08:01:04.527Z</time>
      </trkpt>
      <trkpt lat="43.29329" lon="-1.59331">
        <ele>108</ele>
        <time>2021-06-21T08:01:05.543Z</time>
      </trkpt>
      <trkpt lat="43.29329" lon="-1.59331">
        <ele>108</ele>
        <time>2021-06-21T08:01:06.509Z</time>
      </trkpt>
      <trkpt lat="43.29341" lon="-1.59321">
        <ele>106</ele>
        <time>2021-06-21T08:01:07.547Z</time>
      </trkpt>
      <trkpt lat="43.29341" lon="-1.59321">
        <ele>106</ele>
        <time>2021-06-21T08:01:08.514Z</time>
      </trkpt>
      <trkpt lat="43.29352" lon="-1.59309">
        <ele>105</ele>
        <time>2021-06-21T08:01:09.532Z</time>
      </trkpt>
      <trkpt lat="43.29362" lon="-1.59297">
        <ele>103</ele>
        <time>2021-06-21T08:01:10.541Z</time>
      </trkpt>
      <trkpt lat="43.29362" lon="-1.59297">
        <ele>103</ele>
        <time>2021-06-21T08:01:11.533Z</time>
      </trkpt>
      <trkpt lat="43.29375" lon="-1.59286">
        <ele>102</ele>
        <time>2021-06-21T08:01:12.666Z</time>
      </trkpt>
      <trkpt lat="43.29375" lon="-1.59286">
        <ele>102</ele>
        <time>2021-06-21T08:01:13.539Z</time>
      </trkpt>
      <trkpt lat="43.29391" lon="-1.59277">
        <ele>100</ele>
        <time>2021-06-21T08:01:14.545Z</time>
      </trkpt>
      <trkpt lat="43.29391" lon="-1.59277">
        <ele>100</ele>
        <time>2021-06-21T08:01:15.517Z</time>
      </trkpt>
      <trkpt lat="43.29411" lon="-1.5927">
        <ele>99</ele>
        <time>2021-06-21T08:01:16.536Z</time>
      </trkpt>
      <trkpt lat="43.29411" lon="-1.5927">
        <ele>99</ele>
        <time>2021-06-21T08:01:17.535Z</time>
      </trkpt>
      <trkpt lat="43.29434" lon="-1.5926">
        <ele>97</ele>
        <time>2021-06-21T08:01:18.548Z</time>
      </trkpt>
      <trkpt lat="43.29434" lon="-1.5926">
        <ele>97</ele>
        <time>2021-06-21T08:01:19.536Z</time>
      </trkpt>
      <trkpt lat="43.29459" lon="-1.59249">
        <ele>94</ele>
        <time>2021-06-21T08:01:20.541Z</time>
      </trkpt>
      <trkpt lat="43.29459" lon="-1.59249">
        <ele>94</ele>
        <time>2021-06-21T08:01:21.518Z</time>
      </trkpt>
      <trkpt lat="43.29483" lon="-1.59233">
        <ele>92</ele>
        <time>2021-06-21T08:01:22.535Z</time>
      </trkpt>
      <trkpt lat="43.29483" lon="-1.59233">
        <ele>92</ele>
        <time>2021-06-21T08:01:23.531Z</time>
      </trkpt>
      <trkpt lat="43.29505" lon="-1.59214">
        <ele>90</ele>
        <time>2021-06-21T08:01:24.537Z</time>
      </trkpt>
      <trkpt lat="43.29505" lon="-1.59214">
        <ele>90</ele>
        <time>2021-06-21T08:01:25.519Z</time>
      </trkpt>
      <trkpt lat="43.29524" lon="-1.59194">
        <ele>88</ele>
        <time>2021-06-21T08:01:26.540Z</time>
      </trkpt>
      <trkpt lat="43.29524" lon="-1.59194">
        <ele>88</ele>
        <time>2021-06-21T08:01:27.515Z</time>
      </trkpt>
      <trkpt lat="43.29542" lon="-1.59176">
        <ele>87</ele>
        <time>2021-06-21T08:01:28.524Z</time>
      </trkpt>
      <trkpt lat="43.29551" lon="-1.59167">
        <ele>86</ele>
        <time>2021-06-21T08:01:29.547Z</time>
      </trkpt>
      <trkpt lat="43.29551" lon="-1.59167">
        <ele>86</ele>
        <time>2021-06-21T08:01:30.526Z</time>
      </trkpt>
      <trkpt lat="43.2956" lon="-1.59159">
        <ele>86</ele>
        <time>2021-06-21T08:01:31.543Z</time>
      </trkpt>
      <trkpt lat="43.2956" lon="-1.59159">
        <ele>86</ele>
        <time>2021-06-21T08:01:32.511Z</time>
      </trkpt>
      <trkpt lat="43.29576" lon="-1.59145">
        <ele>85</ele>
        <time>2021-06-21T08:01:33.544Z</time>
      </trkpt>
      <trkpt lat="43.29576" lon="-1.59145">
        <ele>85</ele>
        <time>2021-06-21T08:01:34.519Z</time>
      </trkpt>
      <trkpt lat="43.29592" lon="-1.59134">
        <ele>84</ele>
        <time>2021-06-21T08:01:35.514Z</time>
      </trkpt>
      <trkpt lat="43.29599" lon="-1.59129">
        <ele>84</ele>
        <time>2021-06-21T08:01:36.515Z</time>
      </trkpt>
      <trkpt lat="43.29606" lon="-1.59125">
        <ele>84</ele>
        <time>2021-06-21T08:01:37.520Z</time>
      </trkpt>
      <trkpt lat="43.29618" lon="-1.59117">
        <ele>83</ele>
        <time>2021-06-21T08:01:38.527Z</time>
      </trkpt>
      <trkpt lat="43.29618" lon="-1.59117">
        <ele>83</ele>
        <time>2021-06-21T08:01:39.540Z</time>
      </trkpt>
      <trkpt lat="43.29628" lon="-1.5911">
        <ele>83</ele>
        <time>2021-06-21T08:01:40.601Z</time>
      </trkpt>
      <trkpt lat="43.29628" lon="-1.5911">
        <ele>83</ele>
        <time>2021-06-21T08:01:41.545Z</time>
      </trkpt>
      <trkpt lat="43.29628" lon="-1.5911">
        <ele>83</ele>
        <time>2021-06-21T08:01:42.513Z</time>
      </trkpt>
      <trkpt lat="43.29638" lon="-1.59102">
        <ele>83</ele>
        <time>2021-06-21T08:01:43.538Z</time>
      </trkpt>
      <trkpt lat="43.29646" lon="-1.59097">
        <ele>82</ele>
        <time>2021-06-21T08:01:44.551Z</time>
      </trkpt>
      <trkpt lat="43.29646" lon="-1.59097">
        <ele>82</ele>
        <time>2021-06-21T08:01:45.518Z</time>
      </trkpt>
      <trkpt lat="43.2965" lon="-1.59093">
        <ele>82</ele>
        <time>2021-06-21T08:01:46.542Z</time>
      </trkpt>
      <trkpt lat="43.29657" lon="-1.59088">
        <ele>82</ele>
        <time>2021-06-21T08:01:47.548Z</time>
      </trkpt>
      <trkpt lat="43.2966" lon="-1.59086">
        <ele>82</ele>
        <time>2021-06-21T08:01:48.649Z</time>
      </trkpt>
      <trkpt lat="43.2966" lon="-1.59086">
        <ele>82</ele>
        <time>2021-06-21T08:01:49.518Z</time>
      </trkpt>
      <trkpt lat="43.29667" lon="-1.59081">
        <ele>82</ele>
        <time>2021-06-21T08:01:50.525Z</time>
      </trkpt>
      <trkpt lat="43.29667" lon="-1.59081">
        <ele>82</ele>
        <time>2021-06-21T08:01:51.542Z</time>
      </trkpt>
      <trkpt lat="43.29674" lon="-1.59077">
        <ele>82</ele>
        <time>2021-06-21T08:01:52.548Z</time>
      </trkpt>
      <trkpt lat="43.29674" lon="-1.59077">
        <ele>82</ele>
        <time>2021-06-21T08:01:53.525Z</time>
      </trkpt>
      <trkpt lat="43.29681" lon="-1.59073">
        <ele>82</ele>
        <time>2021-06-21T08:01:54.530Z</time>
      </trkpt>
      <trkpt lat="43.29681" lon="-1.59073">
        <ele>82</ele>
        <time>2021-06-21T08:01:55.541Z</time>
      </trkpt>
      <trkpt lat="43.29689" lon="-1.59069">
        <ele>82</ele>
        <time>2021-06-21T08:01:56.547Z</time>
      </trkpt>
      <trkpt lat="43.29689" lon="-1.59069">
        <ele>82</ele>
        <time>2021-06-21T08:01:57.517Z</time>
      </trkpt>
      <trkpt lat="43.29695" lon="-1.59065">
        <ele>82</ele>
        <time>2021-06-21T08:01:58.526Z</time>
      </trkpt>
      <trkpt lat="43.29695" lon="-1.59065">
        <ele>82</ele>
        <time>2021-06-21T08:01:59.548Z</time>
      </trkpt>
      <trkpt lat="43.29695" lon="-1.59065">
        <ele>82</ele>
        <time>2021-06-21T08:02:00.515Z</time>
      </trkpt>
      <trkpt lat="43.29702" lon="-1.5906">
        <ele>83</ele>
        <time>2021-06-21T08:02:01.517Z</time>
      </trkpt>
      <trkpt lat="43.29705" lon="-1.59058">
        <ele>83</ele>
        <time>2021-06-21T08:02:02.538Z</time>
      </trkpt>
      <trkpt lat="43.29712" lon="-1.59054">
        <ele>83</ele>
        <time>2021-06-21T08:02:03.545Z</time>
      </trkpt>
      <trkpt lat="43.29712" lon="-1.59054">
        <ele>83</ele>
        <time>2021-06-21T08:02:04.538Z</time>
      </trkpt>
      <trkpt lat="43.29718" lon="-1.5905">
        <ele>83</ele>
        <time>2021-06-21T08:02:05.544Z</time>
      </trkpt>
      <trkpt lat="43.2972" lon="-1.59047">
        <ele>83</ele>
        <time>2021-06-21T08:02:06.531Z</time>
      </trkpt>
      <trkpt lat="43.2972" lon="-1.59047">
        <ele>83</ele>
        <time>2021-06-21T08:02:07.514Z</time>
      </trkpt>
      <trkpt lat="43.2972" lon="-1.59047">
        <ele>83</ele>
        <time>2021-06-21T08:02:08.521Z</time>
      </trkpt>
      <trkpt lat="43.29725" lon="-1.59042">
        <ele>84</ele>
        <time>2021-06-21T08:02:09.514Z</time>
      </trkpt>
      <trkpt lat="43.2973" lon="-1.59037">
        <ele>85</ele>
        <time>2021-06-21T08:02:10.521Z</time>
      </trkpt>
      <trkpt lat="43.2973" lon="-1.59037">
        <ele>85</ele>
        <time>2021-06-21T08:02:11.514Z</time>
      </trkpt>
      <trkpt lat="43.2973" lon="-1.59037">
        <ele>85</ele>
        <time>2021-06-21T08:02:12.523Z</time>
      </trkpt>
      <trkpt lat="43.29735" lon="-1.59031">
        <ele>86</ele>
        <time>2021-06-21T08:02:13.515Z</time>
      </trkpt>
      <trkpt lat="43.29735" lon="-1.59031">
        <ele>86</ele>
        <time>2021-06-21T08:02:14.524Z</time>
      </trkpt>
      <trkpt lat="43.29738" lon="-1.59027">
        <ele>86</ele>
        <time>2021-06-21T08:02:15.514Z</time>
      </trkpt>
      <trkpt lat="43.29738" lon="-1.59027">
        <ele>86</ele>
        <time>2021-06-21T08:02:16.523Z</time>
      </trkpt>
      <trkpt lat="43.29742" lon="-1.59021">
        <ele>86</ele>
        <time>2021-06-21T08:02:17.512Z</time>
      </trkpt>
      <trkpt lat="43.29742" lon="-1.59021">
        <ele>86</ele>
        <time>2021-06-21T08:02:18.520Z</time>
      </trkpt>
      <trkpt lat="43.29745" lon="-1.59015">
        <ele>87</ele>
        <time>2021-06-21T08:02:19.547Z</time>
      </trkpt>
      <trkpt lat="43.29745" lon="-1.59015">
        <ele>87</ele>
        <time>2021-06-21T08:02:20.517Z</time>
      </trkpt>
      <trkpt lat="43.29749" lon="-1.59009">
        <ele>87</ele>
        <time>2021-06-21T08:02:21.536Z</time>
      </trkpt>
      <trkpt lat="43.29749" lon="-1.59009">
        <ele>87</ele>
        <time>2021-06-21T08:02:22.515Z</time>
      </trkpt>
      <trkpt lat="43.29752" lon="-1.59003">
        <ele>88</ele>
        <time>2021-06-21T08:02:23.531Z</time>
      </trkpt>
      <trkpt lat="43.29756" lon="-1.58998">
        <ele>89</ele>
        <time>2021-06-21T08:02:24.540Z</time>
      </trkpt>
      <trkpt lat="43.29756" lon="-1.58998">
        <ele>89</ele>
        <time>2021-06-21T08:02:25.516Z</time>
      </trkpt>
      <trkpt lat="43.29756" lon="-1.58998">
        <ele>89</ele>
        <time>2021-06-21T08:02:26.528Z</time>
      </trkpt>
      <trkpt lat="43.2976" lon="-1.58993">
        <ele>90</ele>
        <time>2021-06-21T08:02:27.535Z</time>
      </trkpt>
      <trkpt lat="43.29763" lon="-1.58989">
        <ele>90</ele>
        <time>2021-06-21T08:02:28.543Z</time>
      </trkpt>
      <trkpt lat="43.29763" lon="-1.58989">
        <ele>90</ele>
        <time>2021-06-21T08:02:29.519Z</time>
      </trkpt>
      <trkpt lat="43.29763" lon="-1.58989">
        <ele>90</ele>
        <time>2021-06-21T08:02:30.526Z</time>
      </trkpt>
      <trkpt lat="43.29766" lon="-1.58984">
        <ele>91</ele>
        <time>2021-06-21T08:02:31.548Z</time>
      </trkpt>
      <trkpt lat="43.29766" lon="-1.58984">
        <ele>91</ele>
        <time>2021-06-21T08:02:32.516Z</time>
      </trkpt>
      <trkpt lat="43.29772" lon="-1.58979">
        <ele>92</ele>
        <time>2021-06-21T08:02:33.543Z</time>
      </trkpt>
      <trkpt lat="43.29772" lon="-1.58979">
        <ele>92</ele>
        <time>2021-06-21T08:02:34.520Z</time>
      </trkpt>
      <trkpt lat="43.29772" lon="-1.58979">
        <ele>92</ele>
        <time>2021-06-21T08:02:35.531Z</time>
      </trkpt>
      <trkpt lat="43.29776" lon="-1.58976">
        <ele>93</ele>
        <time>2021-06-21T08:02:36.521Z</time>
      </trkpt>
      <trkpt lat="43.29778" lon="-1.58975">
        <ele>93</ele>
        <time>2021-06-21T08:02:37.539Z</time>
      </trkpt>
      <trkpt lat="43.29781" lon="-1.58972">
        <ele>93</ele>
        <time>2021-06-21T08:02:38.545Z</time>
      </trkpt>
      <trkpt lat="43.29781" lon="-1.58972">
        <ele>93</ele>
        <time>2021-06-21T08:02:39.521Z</time>
      </trkpt>
      <trkpt lat="43.29785" lon="-1.58969">
        <ele>93</ele>
        <time>2021-06-21T08:02:40.528Z</time>
      </trkpt>
      <trkpt lat="43.29785" lon="-1.58969">
        <ele>93</ele>
        <time>2021-06-21T08:02:41.542Z</time>
      </trkpt>
      <trkpt lat="43.29789" lon="-1.58967">
        <ele>94</ele>
        <time>2021-06-21T08:02:42.548Z</time>
      </trkpt>
      <trkpt lat="43.29789" lon="-1.58967">
        <ele>94</ele>
        <time>2021-06-21T08:02:43.529Z</time>
      </trkpt>
      <trkpt lat="43.29792" lon="-1.58965">
        <ele>94</ele>
        <time>2021-06-21T08:02:44.652Z</time>
      </trkpt>
      <trkpt lat="43.29792" lon="-1.58965">
        <ele>94</ele>
        <time>2021-06-21T08:02:45.510Z</time>
      </trkpt>
      <trkpt lat="43.29795" lon="-1.58963">
        <ele>95</ele>
        <time>2021-06-21T08:02:46.527Z</time>
      </trkpt>
      <trkpt lat="43.29795" lon="-1.58963">
        <ele>95</ele>
        <time>2021-06-21T08:02:47.532Z</time>
      </trkpt>
      <trkpt lat="43.29795" lon="-1.58963">
        <ele>95</ele>
        <time>2021-06-21T08:02:48.520Z</time>
      </trkpt>
      <trkpt lat="43.29799" lon="-1.58962">
        <ele>95</ele>
        <time>2021-06-21T08:02:49.532Z</time>
      </trkpt>
      <trkpt lat="43.29803" lon="-1.58961">
        <ele>96</ele>
        <time>2021-06-21T08:02:50.537Z</time>
      </trkpt>
      <trkpt lat="43.29803" lon="-1.58961">
        <ele>96</ele>
        <time>2021-06-21T08:02:51.517Z</time>
      </trkpt>
      <trkpt lat="43.29803" lon="-1.58961">
        <ele>96</ele>
        <time>2021-06-21T08:02:52.525Z</time>
      </trkpt>
      <trkpt lat="43.29806" lon="-1.58959">
        <ele>97</ele>
        <time>2021-06-21T08:02:53.544Z</time>
      </trkpt>
      <trkpt lat="43.29806" lon="-1.58959">
        <ele>97</ele>
        <time>2021-06-21T08:02:54.510Z</time>
      </trkpt>
      <trkpt lat="43.29811" lon="-1.58958">
        <ele>97</ele>
        <time>2021-06-21T08:02:55.527Z</time>
      </trkpt>
      <trkpt lat="43.29811" lon="-1.58958">
        <ele>97</ele>
        <time>2021-06-21T08:02:56.533Z</time>
      </trkpt>
      <trkpt lat="43.29815" lon="-1.58957">
        <ele>97</ele>
        <time>2021-06-21T08:02:57.530Z</time>
      </trkpt>
      <trkpt lat="43.29818" lon="-1.58955">
        <ele>98</ele>
        <time>2021-06-21T08:02:58.536Z</time>
      </trkpt>
      <trkpt lat="43.29818" lon="-1.58955">
        <ele>98</ele>
        <time>2021-06-21T08:02:59.515Z</time>
      </trkpt>
      <trkpt lat="43.29818" lon="-1.58955">
        <ele>98</ele>
        <time>2021-06-21T08:03:00.520Z</time>
      </trkpt>
      <trkpt lat="43.29822" lon="-1.58954">
        <ele>99</ele>
        <time>2021-06-21T08:03:01.545Z</time>
      </trkpt>
      <trkpt lat="43.29822" lon="-1.58954">
        <ele>99</ele>
        <time>2021-06-21T08:03:02.518Z</time>
      </trkpt>
      <trkpt lat="43.29826" lon="-1.58953">
        <ele>100</ele>
        <time>2021-06-21T08:03:03.544Z</time>
      </trkpt>
      <trkpt lat="43.29826" lon="-1.58953">
        <ele>100</ele>
        <time>2021-06-21T08:03:04.510Z</time>
      </trkpt>
      <trkpt lat="43.29831" lon="-1.58952">
        <ele>101</ele>
        <time>2021-06-21T08:03:05.534Z</time>
      </trkpt>
      <trkpt lat="43.29833" lon="-1.58952">
        <ele>101</ele>
        <time>2021-06-21T08:03:06.542Z</time>
      </trkpt>
      <trkpt lat="43.29833" lon="-1.58952">
        <ele>101</ele>
        <time>2021-06-21T08:03:07.530Z</time>
      </trkpt>
      <trkpt lat="43.29838" lon="-1.58951">
        <ele>102</ele>
        <time>2021-06-21T08:03:08.623Z</time>
      </trkpt>
      <trkpt lat="43.29838" lon="-1.58951">
        <ele>102</ele>
        <time>2021-06-21T08:03:09.518Z</time>
      </trkpt>
      <trkpt lat="43.29839" lon="-1.5895">
        <ele>103</ele>
        <time>2021-06-21T08:03:10.541Z</time>
      </trkpt>
      <trkpt lat="43.29843" lon="-1.58949">
        <ele>104</ele>
        <time>2021-06-21T08:03:11.547Z</time>
      </trkpt>
      <trkpt lat="43.29843" lon="-1.58949">
        <ele>104</ele>
        <time>2021-06-21T08:03:12.660Z</time>
      </trkpt>
      <trkpt lat="43.29847" lon="-1.58948">
        <ele>105</ele>
        <time>2021-06-21T08:03:13.537Z</time>
      </trkpt>
      <trkpt lat="43.29847" lon="-1.58948">
        <ele>105</ele>
        <time>2021-06-21T08:03:14.549Z</time>
      </trkpt>
      <trkpt lat="43.29847" lon="-1.58948">
        <ele>105</ele>
        <time>2021-06-21T08:03:15.516Z</time>
      </trkpt>
      <trkpt lat="43.2985" lon="-1.58947">
        <ele>106</ele>
        <time>2021-06-21T08:03:16.547Z</time>
      </trkpt>
      <trkpt lat="43.2985" lon="-1.58947">
        <ele>106</ele>
        <time>2021-06-21T08:03:17.519Z</time>
      </trkpt>
      <trkpt lat="43.29856" lon="-1.58945">
        <ele>108</ele>
        <time>2021-06-21T08:03:18.534Z</time>
      </trkpt>
      <trkpt lat="43.29858" lon="-1.58944">
        <ele>109</ele>
        <time>2021-06-21T08:03:19.623Z</time>
      </trkpt>
      <trkpt lat="43.29858" lon="-1.58944">
        <ele>109</ele>
        <time>2021-06-21T08:03:20.521Z</time>
      </trkpt>
      <trkpt lat="43.29858" lon="-1.58944">
        <ele>109</ele>
        <time>2021-06-21T08:03:21.527Z</time>
      </trkpt>
      <trkpt lat="43.29861" lon="-1.58944">
        <ele>110</ele>
        <time>2021-06-21T08:03:22.538Z</time>
      </trkpt>
      <trkpt lat="43.29861" lon="-1.58944">
        <ele>110</ele>
        <time>2021-06-21T08:03:23.516Z</time>
      </trkpt>
      <trkpt lat="43.29865" lon="-1.58942">
        <ele>111</ele>
        <time>2021-06-21T08:03:24.536Z</time>
      </trkpt>
      <trkpt lat="43.29865" lon="-1.58942">
        <ele>111</ele>
        <time>2021-06-21T08:03:25.542Z</time>
      </trkpt>
      <trkpt lat="43.29865" lon="-1.58942">
        <ele>111</ele>
        <time>2021-06-21T08:03:26.509Z</time>
      </trkpt>
      <trkpt lat="43.2987" lon="-1.58941">
        <ele>112</ele>
        <time>2021-06-21T08:03:27.544Z</time>
      </trkpt>
      <trkpt lat="43.2987" lon="-1.58941">
        <ele>112</ele>
        <time>2021-06-21T08:03:28.511Z</time>
      </trkpt>
      <trkpt lat="43.29873" lon="-1.5894">
        <ele>113</ele>
        <time>2021-06-21T08:03:29.543Z</time>
      </trkpt>
      <trkpt lat="43.29877" lon="-1.58938">
        <ele>114</ele>
        <time>2021-06-21T08:03:30.548Z</time>
      </trkpt>
      <trkpt lat="43.29877" lon="-1.58938">
        <ele>114</ele>
        <time>2021-06-21T08:03:31.525Z</time>
      </trkpt>
      <trkpt lat="43.2988" lon="-1.58937">
        <ele>115</ele>
        <time>2021-06-21T08:03:32.530Z</time>
      </trkpt>
      <trkpt lat="43.2988" lon="-1.58937">
        <ele>115</ele>
        <time>2021-06-21T08:03:33.547Z</time>
      </trkpt>
      <trkpt lat="43.2988" lon="-1.58937">
        <ele>115</ele>
        <time>2021-06-21T08:03:34.516Z</time>
      </trkpt>
      <trkpt lat="43.29886" lon="-1.58935">
        <ele>116</ele>
        <time>2021-06-21T08:03:35.516Z</time>
      </trkpt>
      <trkpt lat="43.29886" lon="-1.58935">
        <ele>116</ele>
        <time>2021-06-21T08:03:36.525Z</time>
      </trkpt>
      <trkpt lat="43.29893" lon="-1.58934">
        <ele>117</ele>
        <time>2021-06-21T08:03:37.543Z</time>
      </trkpt>
      <trkpt lat="43.29893" lon="-1.58934">
        <ele>117</ele>
        <time>2021-06-21T08:03:38.522Z</time>
      </trkpt>
      <trkpt lat="43.29898" lon="-1.58933">
        <ele>119</ele>
        <time>2021-06-21T08:03:39.530Z</time>
      </trkpt>
      <trkpt lat="43.29898" lon="-1.58933">
        <ele>119</ele>
        <time>2021-06-21T08:03:40.527Z</time>
      </trkpt>
      <trkpt lat="43.29903" lon="-1.58933">
        <ele>120</ele>
        <time>2021-06-21T08:03:41.536Z</time>
      </trkpt>
      <trkpt lat="43.29903" lon="-1.58933">
        <ele>120</ele>
        <time>2021-06-21T08:03:42.522Z</time>
      </trkpt>
      <trkpt lat="43.29905" lon="-1.58932">
        <ele>121</ele>
        <time>2021-06-21T08:03:43.545Z</time>
      </trkpt>
      <trkpt lat="43.29905" lon="-1.58932">
        <ele>121</ele>
        <time>2021-06-21T08:03:44.519Z</time>
      </trkpt>
      <trkpt lat="43.2991" lon="-1.58932">
        <ele>121</ele>
        <time>2021-06-21T08:03:45.540Z</time>
      </trkpt>
      <trkpt lat="43.2991" lon="-1.58932">
        <ele>121</ele>
        <time>2021-06-21T08:03:46.515Z</time>
      </trkpt>
      <trkpt lat="43.29915" lon="-1.58933">
        <ele>121</ele>
        <time>2021-06-21T08:03:47.514Z</time>
      </trkpt>
      <trkpt lat="43.29917" lon="-1.58933">
        <ele>122</ele>
        <time>2021-06-21T08:03:48.518Z</time>
      </trkpt>
      <trkpt lat="43.29919" lon="-1.58934">
        <ele>122</ele>
        <time>2021-06-21T08:03:49.531Z</time>
      </trkpt>
      <trkpt lat="43.29923" lon="-1.58935">
        <ele>122</ele>
        <time>2021-06-21T08:03:50.541Z</time>
      </trkpt>
      <trkpt lat="43.29923" lon="-1.58935">
        <ele>122</ele>
        <time>2021-06-21T08:03:51.528Z</time>
      </trkpt>
      <trkpt lat="43.29925" lon="-1.58936">
        <ele>123</ele>
        <time>2021-06-21T08:03:52.544Z</time>
      </trkpt>
      <trkpt lat="43.29925" lon="-1.58936">
        <ele>123</ele>
        <time>2021-06-21T08:03:53.509Z</time>
      </trkpt>
      <trkpt lat="43.29933" lon="-1.58936">
        <ele>121</ele>
        <time>2021-06-21T08:03:54.537Z</time>
      </trkpt>
      <trkpt lat="43.29933" lon="-1.58936">
        <ele>121</ele>
        <time>2021-06-21T08:03:55.543Z</time>
      </trkpt>
      <trkpt lat="43.29939" lon="-1.58936">
        <ele>120</ele>
        <time>2021-06-21T08:03:56.549Z</time>
      </trkpt>
      <trkpt lat="43.29939" lon="-1.58936">
        <ele>120</ele>
        <time>2021-06-21T08:03:57.535Z</time>
      </trkpt>
      <trkpt lat="43.29939" lon="-1.58936">
        <ele>120</ele>
        <time>2021-06-21T08:03:58.543Z</time>
      </trkpt>
      <trkpt lat="43.29943" lon="-1.58938">
        <ele>119</ele>
        <time>2021-06-21T08:03:59.540Z</time>
      </trkpt>
      <trkpt lat="43.29947" lon="-1.58939">
        <ele>119</ele>
        <time>2021-06-21T08:04:00.546Z</time>
      </trkpt>
      <trkpt lat="43.29947" lon="-1.58939">
        <ele>119</ele>
        <time>2021-06-21T08:04:01.524Z</time>
      </trkpt>
      <trkpt lat="43.29947" lon="-1.58939">
        <ele>119</ele>
        <time>2021-06-21T08:04:02.530Z</time>
      </trkpt>
      <trkpt lat="43.29953" lon="-1.58942">
        <ele>119</ele>
        <time>2021-06-21T08:04:03.543Z</time>
      </trkpt>
      <trkpt lat="43.29958" lon="-1.58944">
        <ele>118</ele>
        <time>2021-06-21T08:04:04.549Z</time>
      </trkpt>
      <trkpt lat="43.29958" lon="-1.58944">
        <ele>118</ele>
        <time>2021-06-21T08:04:05.533Z</time>
      </trkpt>
      <trkpt lat="43.29964" lon="-1.58947">
        <ele>118</ele>
        <time>2021-06-21T08:04:06.538Z</time>
      </trkpt>
      <trkpt lat="43.29964" lon="-1.58947">
        <ele>118</ele>
        <time>2021-06-21T08:04:07.516Z</time>
      </trkpt>
      <trkpt lat="43.29964" lon="-1.58947">
        <ele>118</ele>
        <time>2021-06-21T08:04:08.528Z</time>
      </trkpt>
      <trkpt lat="43.29972" lon="-1.5895">
        <ele>118</ele>
        <time>2021-06-21T08:04:09.533Z</time>
      </trkpt>
      <trkpt lat="43.29972" lon="-1.5895">
        <ele>118</ele>
        <time>2021-06-21T08:04:10.543Z</time>
      </trkpt>
      <trkpt lat="43.29978" lon="-1.58953">
        <ele>118</ele>
        <time>2021-06-21T08:04:11.549Z</time>
      </trkpt>
      <trkpt lat="43.29983" lon="-1.58953">
        <ele>118</ele>
        <time>2021-06-21T08:04:12.531Z</time>
      </trkpt>
      <trkpt lat="43.29983" lon="-1.58953">
        <ele>118</ele>
        <time>2021-06-21T08:04:13.516Z</time>
      </trkpt>
      <trkpt lat="43.29983" lon="-1.58953">
        <ele>118</ele>
        <time>2021-06-21T08:04:14.522Z</time>
      </trkpt>
      <trkpt lat="43.2999" lon="-1.58955">
        <ele>118</ele>
        <time>2021-06-21T08:04:15.542Z</time>
      </trkpt>
      <trkpt lat="43.29997" lon="-1.58958">
        <ele>118</ele>
        <time>2021-06-21T08:04:16.548Z</time>
      </trkpt>
      <trkpt lat="43.30001" lon="-1.58959">
        <ele>118</ele>
        <time>2021-06-21T08:04:17.535Z</time>
      </trkpt>
      <trkpt lat="43.30001" lon="-1.58959">
        <ele>118</ele>
        <time>2021-06-21T08:04:18.510Z</time>
      </trkpt>
      <trkpt lat="43.30004" lon="-1.5896">
        <ele>118</ele>
        <time>2021-06-21T08:04:19.545Z</time>
      </trkpt>
      <trkpt lat="43.30004" lon="-1.5896">
        <ele>118</ele>
        <time>2021-06-21T08:04:20.511Z</time>
      </trkpt>
      <trkpt lat="43.30011" lon="-1.58962">
        <ele>118</ele>
        <time>2021-06-21T08:04:21.545Z</time>
      </trkpt>
      <trkpt lat="43.30011" lon="-1.58962">
        <ele>118</ele>
        <time>2021-06-21T08:04:22.524Z</time>
      </trkpt>
      <trkpt lat="43.30018" lon="-1.58965">
        <ele>118</ele>
        <time>2021-06-21T08:04:23.519Z</time>
      </trkpt>
      <trkpt lat="43.30018" lon="-1.58965">
        <ele>118</ele>
        <time>2021-06-21T08:04:24.525Z</time>
      </trkpt>
      <trkpt lat="43.30025" lon="-1.58968">
        <ele>118</ele>
        <time>2021-06-21T08:04:25.548Z</time>
      </trkpt>
      <trkpt lat="43.30025" lon="-1.58968">
        <ele>118</ele>
        <time>2021-06-21T08:04:26.514Z</time>
      </trkpt>
      <trkpt lat="43.30032" lon="-1.58971">
        <ele>118</ele>
        <time>2021-06-21T08:04:27.544Z</time>
      </trkpt>
      <trkpt lat="43.30032" lon="-1.58971">
        <ele>118</ele>
        <time>2021-06-21T08:04:28.510Z</time>
      </trkpt>
      <trkpt lat="43.30038" lon="-1.58975">
        <ele>118</ele>
        <time>2021-06-21T08:04:29.547Z</time>
      </trkpt>
      <trkpt lat="43.30038" lon="-1.58975">
        <ele>118</ele>
        <time>2021-06-21T08:04:30.512Z</time>
      </trkpt>
      <trkpt lat="43.30044" lon="-1.58979">
        <ele>118</ele>
        <time>2021-06-21T08:04:31.540Z</time>
      </trkpt>
      <trkpt lat="43.30049" lon="-1.58985">
        <ele>118</ele>
        <time>2021-06-21T08:04:32.546Z</time>
      </trkpt>
      <trkpt lat="43.30049" lon="-1.58985">
        <ele>118</ele>
        <time>2021-06-21T08:04:33.527Z</time>
      </trkpt>
      <trkpt lat="43.30049" lon="-1.58985">
        <ele>118</ele>
        <time>2021-06-21T08:04:34.533Z</time>
      </trkpt>
      <trkpt lat="43.30056" lon="-1.58989">
        <ele>116</ele>
        <time>2021-06-21T08:04:35.523Z</time>
      </trkpt>
      <trkpt lat="43.30056" lon="-1.58989">
        <ele>116</ele>
        <time>2021-06-21T08:04:36.529Z</time>
      </trkpt>
      <trkpt lat="43.30061" lon="-1.58994">
        <ele>115</ele>
        <time>2021-06-21T08:04:37.509Z</time>
      </trkpt>
      <trkpt lat="43.30061" lon="-1.58994">
        <ele>115</ele>
        <time>2021-06-21T08:04:38.522Z</time>
      </trkpt>
      <trkpt lat="43.30067" lon="-1.59001">
        <ele>114</ele>
        <time>2021-06-21T08:04:39.545Z</time>
      </trkpt>
      <trkpt lat="43.30067" lon="-1.59001">
        <ele>114</ele>
        <time>2021-06-21T08:04:40.512Z</time>
      </trkpt>
      <trkpt lat="43.30075" lon="-1.5901">
        <ele>113</ele>
        <time>2021-06-21T08:04:41.540Z</time>
      </trkpt>
      <trkpt lat="43.30078" lon="-1.59014">
        <ele>113</ele>
        <time>2021-06-21T08:04:42.546Z</time>
      </trkpt>
      <trkpt lat="43.30078" lon="-1.59014">
        <ele>113</ele>
        <time>2021-06-21T08:04:43.534Z</time>
      </trkpt>
      <trkpt lat="43.30085" lon="-1.5902">
        <ele>113</ele>
        <time>2021-06-21T08:04:44.540Z</time>
      </trkpt>
      <trkpt lat="43.30085" lon="-1.5902">
        <ele>113</ele>
        <time>2021-06-21T08:04:45.526Z</time>
      </trkpt>
      <trkpt lat="43.30091" lon="-1.59026">
        <ele>113</ele>
        <time>2021-06-21T08:04:46.531Z</time>
      </trkpt>
      <trkpt lat="43.30091" lon="-1.59026">
        <ele>113</ele>
        <time>2021-06-21T08:04:47.534Z</time>
      </trkpt>
      <trkpt lat="43.30091" lon="-1.59026">
        <ele>113</ele>
        <time>2021-06-21T08:04:48.531Z</time>
      </trkpt>
      <trkpt lat="43.30096" lon="-1.59032">
        <ele>112</ele>
        <time>2021-06-21T08:04:49.545Z</time>
      </trkpt>
      <trkpt lat="43.30096" lon="-1.59032">
        <ele>112</ele>
        <time>2021-06-21T08:04:50.514Z</time>
      </trkpt>
      <trkpt lat="43.30101" lon="-1.59038">
        <ele>112</ele>
        <time>2021-06-21T08:04:51.538Z</time>
      </trkpt>
      <trkpt lat="43.30106" lon="-1.59045">
        <ele>112</ele>
        <time>2021-06-21T08:04:52.545Z</time>
      </trkpt>
      <trkpt lat="43.30106" lon="-1.59045">
        <ele>112</ele>
        <time>2021-06-21T08:04:53.528Z</time>
      </trkpt>
      <trkpt lat="43.30111" lon="-1.59052">
        <ele>112</ele>
        <time>2021-06-21T08:04:54.534Z</time>
      </trkpt>
      <trkpt lat="43.30111" lon="-1.59052">
        <ele>112</ele>
        <time>2021-06-21T08:04:55.522Z</time>
      </trkpt>
      <trkpt lat="43.30115" lon="-1.59059">
        <ele>111</ele>
        <time>2021-06-21T08:04:56.540Z</time>
      </trkpt>
      <trkpt lat="43.30115" lon="-1.59059">
        <ele>111</ele>
        <time>2021-06-21T08:04:57.527Z</time>
      </trkpt>
      <trkpt lat="43.30118" lon="-1.59062">
        <ele>111</ele>
        <time>2021-06-21T08:04:58.510Z</time>
      </trkpt>
      <trkpt lat="43.30118" lon="-1.59062">
        <ele>111</ele>
        <time>2021-06-21T08:04:59.526Z</time>
      </trkpt>
      <trkpt lat="43.30126" lon="-1.59072">
        <ele>111</ele>
        <time>2021-06-21T08:05:00.548Z</time>
      </trkpt>
      <trkpt lat="43.30126" lon="-1.59072">
        <ele>111</ele>
        <time>2021-06-21T08:05:01.536Z</time>
      </trkpt>
      <trkpt lat="43.30132" lon="-1.59077">
        <ele>110</ele>
        <time>2021-06-21T08:05:02.545Z</time>
      </trkpt>
      <trkpt lat="43.30132" lon="-1.59077">
        <ele>110</ele>
        <time>2021-06-21T08:05:03.523Z</time>
      </trkpt>
      <trkpt lat="43.30132" lon="-1.59077">
        <ele>110</ele>
        <time>2021-06-21T08:05:04.529Z</time>
      </trkpt>
      <trkpt lat="43.30138" lon="-1.59082">
        <ele>110</ele>
        <time>2021-06-21T08:05:05.510Z</time>
      </trkpt>
      <trkpt lat="43.30138" lon="-1.59082">
        <ele>110</ele>
        <time>2021-06-21T08:05:06.521Z</time>
      </trkpt>
      <trkpt lat="43.30144" lon="-1.59088">
        <ele>111</ele>
        <time>2021-06-21T08:05:07.536Z</time>
      </trkpt>
      <trkpt lat="43.3015" lon="-1.59095">
        <ele>111</ele>
        <time>2021-06-21T08:05:08.542Z</time>
      </trkpt>
      <trkpt lat="43.3015" lon="-1.59095">
        <ele>111</ele>
        <time>2021-06-21T08:05:09.522Z</time>
      </trkpt>
      <trkpt lat="43.30155" lon="-1.59102">
        <ele>110</ele>
        <time>2021-06-21T08:05:10.541Z</time>
      </trkpt>
      <trkpt lat="43.30155" lon="-1.59102">
        <ele>110</ele>
        <time>2021-06-21T08:05:11.517Z</time>
      </trkpt>
      <trkpt lat="43.30155" lon="-1.59102">
        <ele>110</ele>
        <time>2021-06-21T08:05:12.525Z</time>
      </trkpt>
      <trkpt lat="43.30162" lon="-1.59111">
        <ele>110</ele>
        <time>2021-06-21T08:05:13.544Z</time>
      </trkpt>
      <trkpt lat="43.30162" lon="-1.59111">
        <ele>110</ele>
        <time>2021-06-21T08:05:14.520Z</time>
      </trkpt>
      <trkpt lat="43.30162" lon="-1.59111">
        <ele>110</ele>
        <time>2021-06-21T08:05:15.526Z</time>
      </trkpt>
      <trkpt lat="43.30166" lon="-1.59118">
        <ele>110</ele>
        <time>2021-06-21T08:05:16.518Z</time>
      </trkpt>
      <trkpt lat="43.30166" lon="-1.59118">
        <ele>110</ele>
        <time>2021-06-21T08:05:17.525Z</time>
      </trkpt>
      <trkpt lat="43.30174" lon="-1.5913">
        <ele>110</ele>
        <time>2021-06-21T08:05:18.548Z</time>
      </trkpt>
      <trkpt lat="43.30174" lon="-1.5913">
        <ele>110</ele>
        <time>2021-06-21T08:05:19.536Z</time>
      </trkpt>
      <trkpt lat="43.30179" lon="-1.59141">
        <ele>109</ele>
        <time>2021-06-21T08:05:20.542Z</time>
      </trkpt>
      <trkpt lat="43.30179" lon="-1.59141">
        <ele>109</ele>
        <time>2021-06-21T08:05:21.527Z</time>
      </trkpt>
      <trkpt lat="43.30186" lon="-1.59153">
        <ele>109</ele>
        <time>2021-06-21T08:05:22.544Z</time>
      </trkpt>
      <trkpt lat="43.30186" lon="-1.59153">
        <ele>109</ele>
        <time>2021-06-21T08:05:23.525Z</time>
      </trkpt>
      <trkpt lat="43.30192" lon="-1.59164">
        <ele>108</ele>
        <time>2021-06-21T08:05:24.544Z</time>
      </trkpt>
      <trkpt lat="43.30192" lon="-1.59164">
        <ele>108</ele>
        <time>2021-06-21T08:05:25.540Z</time>
      </trkpt>
      <trkpt lat="43.30199" lon="-1.59176">
        <ele>107</ele>
        <time>2021-06-21T08:05:26.546Z</time>
      </trkpt>
      <trkpt lat="43.30199" lon="-1.59176">
        <ele>107</ele>
        <time>2021-06-21T08:05:27.529Z</time>
      </trkpt>
      <trkpt lat="43.30207" lon="-1.59191">
        <ele>106</ele>
        <time>2021-06-21T08:05:28.535Z</time>
      </trkpt>
      <trkpt lat="43.30207" lon="-1.59191">
        <ele>106</ele>
        <time>2021-06-21T08:05:29.510Z</time>
      </trkpt>
      <trkpt lat="43.30216" lon="-1.59207">
        <ele>105</ele>
        <time>2021-06-21T08:05:30.548Z</time>
      </trkpt>
      <trkpt lat="43.30216" lon="-1.59207">
        <ele>105</ele>
        <time>2021-06-21T08:05:31.515Z</time>
      </trkpt>
      <trkpt lat="43.30216" lon="-1.59207">
        <ele>105</ele>
        <time>2021-06-21T08:05:32.524Z</time>
      </trkpt>
      <trkpt lat="43.30225" lon="-1.59225">
        <ele>103</ele>
        <time>2021-06-21T08:05:33.514Z</time>
      </trkpt>
      <trkpt lat="43.30231" lon="-1.59233">
        <ele>103</ele>
        <time>2021-06-21T08:05:34.533Z</time>
      </trkpt>
      <trkpt lat="43.30242" lon="-1.59249">
        <ele>102</ele>
        <time>2021-06-21T08:05:35.539Z</time>
      </trkpt>
      <trkpt lat="43.30247" lon="-1.59256">
        <ele>102</ele>
        <time>2021-06-21T08:05:36.541Z</time>
      </trkpt>
      <trkpt lat="43.30247" lon="-1.59256">
        <ele>102</ele>
        <time>2021-06-21T08:05:37.520Z</time>
      </trkpt>
      <trkpt lat="43.30247" lon="-1.59256">
        <ele>102</ele>
        <time>2021-06-21T08:05:38.528Z</time>
      </trkpt>
      <trkpt lat="43.3026" lon="-1.59267">
        <ele>101</ele>
        <time>2021-06-21T08:05:39.548Z</time>
      </trkpt>
      <trkpt lat="43.3026" lon="-1.59267">
        <ele>101</ele>
        <time>2021-06-21T08:05:40.514Z</time>
      </trkpt>
      <trkpt lat="43.30273" lon="-1.59274">
        <ele>101</ele>
        <time>2021-06-21T08:05:41.525Z</time>
      </trkpt>
      <trkpt lat="43.30285" lon="-1.59278">
        <ele>101</ele>
        <time>2021-06-21T08:05:42.531Z</time>
      </trkpt>
      <trkpt lat="43.30285" lon="-1.59278">
        <ele>101</ele>
        <time>2021-06-21T08:05:43.548Z</time>
      </trkpt>
      <trkpt lat="43.30285" lon="-1.59278">
        <ele>101</ele>
        <time>2021-06-21T08:05:44.513Z</time>
      </trkpt>
      <trkpt lat="43.30301" lon="-1.59282">
        <ele>102</ele>
        <time>2021-06-21T08:05:45.535Z</time>
      </trkpt>
      <trkpt lat="43.30301" lon="-1.59282">
        <ele>102</ele>
        <time>2021-06-21T08:05:46.541Z</time>
      </trkpt>
      <trkpt lat="43.30301" lon="-1.59282">
        <ele>102</ele>
        <time>2021-06-21T08:05:47.551Z</time>
      </trkpt>
      <trkpt lat="43.30309" lon="-1.59284">
        <ele>102</ele>
        <time>2021-06-21T08:05:48.523Z</time>
      </trkpt>
      <trkpt lat="43.30313" lon="-1.59285">
        <ele>102</ele>
        <time>2021-06-21T08:05:49.523Z</time>
      </trkpt>
      <trkpt lat="43.30313" lon="-1.59285">
        <ele>102</ele>
        <time>2021-06-21T08:05:50.650Z</time>
      </trkpt>
      <trkpt lat="43.30319" lon="-1.59286">
        <ele>103</ele>
        <time>2021-06-21T08:05:51.531Z</time>
      </trkpt>
      <trkpt lat="43.30324" lon="-1.59289">
        <ele>103</ele>
        <time>2021-06-21T08:05:52.536Z</time>
      </trkpt>
      <trkpt lat="43.30324" lon="-1.59289">
        <ele>103</ele>
        <time>2021-06-21T08:05:53.531Z</time>
      </trkpt>
      <trkpt lat="43.30328" lon="-1.5929">
        <ele>103</ele>
        <time>2021-06-21T08:05:54.542Z</time>
      </trkpt>
      <trkpt lat="43.30328" lon="-1.5929">
        <ele>103</ele>
        <time>2021-06-21T08:05:55.532Z</time>
      </trkpt>
      <trkpt lat="43.30328" lon="-1.5929">
        <ele>103</ele>
        <time>2021-06-21T08:05:56.539Z</time>
      </trkpt>
      <trkpt lat="43.30332" lon="-1.59291">
        <ele>102</ele>
        <time>2021-06-21T08:05:57.525Z</time>
      </trkpt>
      <trkpt lat="43.30332" lon="-1.59291">
        <ele>102</ele>
        <time>2021-06-21T08:05:58.532Z</time>
      </trkpt>
      <trkpt lat="43.30338" lon="-1.59291">
        <ele>103</ele>
        <time>2021-06-21T08:05:59.520Z</time>
      </trkpt>
      <trkpt lat="43.30338" lon="-1.59291">
        <ele>103</ele>
        <time>2021-06-21T08:06:00.526Z</time>
      </trkpt>
      <trkpt lat="43.30345" lon="-1.59289">
        <ele>103</ele>
        <time>2021-06-21T08:06:01.541Z</time>
      </trkpt>
      <trkpt lat="43.30353" lon="-1.59289">
        <ele>103</ele>
        <time>2021-06-21T08:06:02.547Z</time>
      </trkpt>
      <trkpt lat="43.30353" lon="-1.59289">
        <ele>103</ele>
        <time>2021-06-21T08:06:03.535Z</time>
      </trkpt>
      <trkpt lat="43.30361" lon="-1.59286">
        <ele>104</ele>
        <time>2021-06-21T08:06:04.541Z</time>
      </trkpt>
      <trkpt lat="43.30361" lon="-1.59286">
        <ele>104</ele>
        <time>2021-06-21T08:06:05.525Z</time>
      </trkpt>
      <trkpt lat="43.30361" lon="-1.59286">
        <ele>104</ele>
        <time>2021-06-21T08:06:06.531Z</time>
      </trkpt>
      <trkpt lat="43.30371" lon="-1.59282">
        <ele>104</ele>
        <time>2021-06-21T08:06:07.514Z</time>
      </trkpt>
      <trkpt lat="43.30371" lon="-1.59282">
        <ele>104</ele>
        <time>2021-06-21T08:06:08.521Z</time>
      </trkpt>
      <trkpt lat="43.30382" lon="-1.59277">
        <ele>104</ele>
        <time>2021-06-21T08:06:09.540Z</time>
      </trkpt>
      <trkpt lat="43.30401" lon="-1.59271">
        <ele>105</ele>
        <time>2021-06-21T08:06:10.546Z</time>
      </trkpt>
      <trkpt lat="43.30401" lon="-1.59271">
        <ele>105</ele>
        <time>2021-06-21T08:06:11.523Z</time>
      </trkpt>
      <trkpt lat="43.30401" lon="-1.59271">
        <ele>105</ele>
        <time>2021-06-21T08:06:12.529Z</time>
      </trkpt>
      <trkpt lat="43.30414" lon="-1.59265">
        <ele>106</ele>
        <time>2021-06-21T08:06:13.522Z</time>
      </trkpt>
      <trkpt lat="43.30422" lon="-1.59262">
        <ele>106</ele>
        <time>2021-06-21T08:06:14.548Z</time>
      </trkpt>
      <trkpt lat="43.30422" lon="-1.59262">
        <ele>106</ele>
        <time>2021-06-21T08:06:15.523Z</time>
      </trkpt>
      <trkpt lat="43.30436" lon="-1.59254">
        <ele>105</ele>
        <time>2021-06-21T08:06:16.546Z</time>
      </trkpt>
      <trkpt lat="43.30436" lon="-1.59254">
        <ele>105</ele>
        <time>2021-06-21T08:06:17.511Z</time>
      </trkpt>
      <trkpt lat="43.3045" lon="-1.59246">
        <ele>105</ele>
        <time>2021-06-21T08:06:18.524Z</time>
      </trkpt>
      <trkpt lat="43.30457" lon="-1.59242">
        <ele>105</ele>
        <time>2021-06-21T08:06:19.531Z</time>
      </trkpt>
      <trkpt lat="43.3047" lon="-1.59231">
        <ele>105</ele>
        <time>2021-06-21T08:06:20.537Z</time>
      </trkpt>
      <trkpt lat="43.3047" lon="-1.59231">
        <ele>105</ele>
        <time>2021-06-21T08:06:21.524Z</time>
      </trkpt>
      <trkpt lat="43.30481" lon="-1.59218">
        <ele>104</ele>
        <time>2021-06-21T08:06:22.548Z</time>
      </trkpt>
      <trkpt lat="43.30481" lon="-1.59218">
        <ele>104</ele>
        <time>2021-06-21T08:06:23.522Z</time>
      </trkpt>
      <trkpt lat="43.30481" lon="-1.59218">
        <ele>104</ele>
        <time>2021-06-21T08:06:24.527Z</time>
      </trkpt>
      <trkpt lat="43.30492" lon="-1.59204">
        <ele>104</ele>
        <time>2021-06-21T08:06:25.520Z</time>
      </trkpt>
      <trkpt lat="43.30505" lon="-1.5919">
        <ele>104</ele>
        <time>2021-06-21T08:06:26.530Z</time>
      </trkpt>
      <trkpt lat="43.30505" lon="-1.5919">
        <ele>104</ele>
        <time>2021-06-21T08:06:27.525Z</time>
      </trkpt>
      <trkpt lat="43.30505" lon="-1.5919">
        <ele>104</ele>
        <time>2021-06-21T08:06:28.532Z</time>
      </trkpt>
      <trkpt lat="43.30517" lon="-1.59173">
        <ele>103</ele>
        <time>2021-06-21T08:06:29.512Z</time>
      </trkpt>
      <trkpt lat="43.30522" lon="-1.59165">
        <ele>102</ele>
        <time>2021-06-21T08:06:30.541Z</time>
      </trkpt>
      <trkpt lat="43.30534" lon="-1.59147">
        <ele>101</ele>
        <time>2021-06-21T08:06:31.547Z</time>
      </trkpt>
      <trkpt lat="43.30534" lon="-1.59147">
        <ele>101</ele>
        <time>2021-06-21T08:06:32.534Z</time>
      </trkpt>
      <trkpt lat="43.3054" lon="-1.59138">
        <ele>100</ele>
        <time>2021-06-21T08:06:33.530Z</time>
      </trkpt>
      <trkpt lat="43.30551" lon="-1.5912">
        <ele>99</ele>
        <time>2021-06-21T08:06:34.538Z</time>
      </trkpt>
      <trkpt lat="43.30551" lon="-1.5912">
        <ele>99</ele>
        <time>2021-06-21T08:06:35.514Z</time>
      </trkpt>
      <trkpt lat="43.30551" lon="-1.5912">
        <ele>99</ele>
        <time>2021-06-21T08:06:36.524Z</time>
      </trkpt>
      <trkpt lat="43.30563" lon="-1.59102">
        <ele>98</ele>
        <time>2021-06-21T08:06:37.515Z</time>
      </trkpt>
      <trkpt lat="43.30563" lon="-1.59102">
        <ele>98</ele>
        <time>2021-06-21T08:06:38.522Z</time>
      </trkpt>
      <trkpt lat="43.30575" lon="-1.59083">
        <ele>97</ele>
        <time>2021-06-21T08:06:39.547Z</time>
      </trkpt>
      <trkpt lat="43.30575" lon="-1.59083">
        <ele>97</ele>
        <time>2021-06-21T08:06:40.520Z</time>
      </trkpt>
      <trkpt lat="43.30588" lon="-1.59064">
        <ele>96</ele>
        <time>2021-06-21T08:06:41.545Z</time>
      </trkpt>
      <trkpt lat="43.30588" lon="-1.59064">
        <ele>96</ele>
        <time>2021-06-21T08:06:42.513Z</time>
      </trkpt>
      <trkpt lat="43.306" lon="-1.59044">
        <ele>94</ele>
        <time>2021-06-21T08:06:43.531Z</time>
      </trkpt>
      <trkpt lat="43.30613" lon="-1.59026">
        <ele>93</ele>
        <time>2021-06-21T08:06:44.537Z</time>
      </trkpt>
      <trkpt lat="43.30613" lon="-1.59026">
        <ele>93</ele>
        <time>2021-06-21T08:06:45.520Z</time>
      </trkpt>
      <trkpt lat="43.30613" lon="-1.59026">
        <ele>93</ele>
        <time>2021-06-21T08:06:46.531Z</time>
      </trkpt>
      <trkpt lat="43.30626" lon="-1.59007">
        <ele>92</ele>
        <time>2021-06-21T08:06:47.524Z</time>
      </trkpt>
      <trkpt lat="43.30637" lon="-1.58989">
        <ele>91</ele>
        <time>2021-06-21T08:06:48.544Z</time>
      </trkpt>
      <trkpt lat="43.30637" lon="-1.58989">
        <ele>91</ele>
        <time>2021-06-21T08:06:49.524Z</time>
      </trkpt>
      <trkpt lat="43.30643" lon="-1.58981">
        <ele>90</ele>
        <time>2021-06-21T08:06:50.538Z</time>
      </trkpt>
      <trkpt lat="43.30654" lon="-1.58963">
        <ele>89</ele>
        <time>2021-06-21T08:06:51.545Z</time>
      </trkpt>
      <trkpt lat="43.30654" lon="-1.58963">
        <ele>89</ele>
        <time>2021-06-21T08:06:52.533Z</time>
      </trkpt>
      <trkpt lat="43.3066" lon="-1.58954">
        <ele>89</ele>
        <time>2021-06-21T08:06:53.510Z</time>
      </trkpt>
      <trkpt lat="43.3066" lon="-1.58954">
        <ele>89</ele>
        <time>2021-06-21T08:06:54.530Z</time>
      </trkpt>
      <trkpt lat="43.30671" lon="-1.58936">
        <ele>88</ele>
        <time>2021-06-21T08:06:55.547Z</time>
      </trkpt>
      <trkpt lat="43.30671" lon="-1.58936">
        <ele>88</ele>
        <time>2021-06-21T08:06:56.518Z</time>
      </trkpt>
      <trkpt lat="43.30681" lon="-1.58919">
        <ele>87</ele>
        <time>2021-06-21T08:06:57.534Z</time>
      </trkpt>
      <trkpt lat="43.30687" lon="-1.58911">
        <ele>87</ele>
        <time>2021-06-21T08:06:58.526Z</time>
      </trkpt>
      <trkpt lat="43.30687" lon="-1.58911">
        <ele>87</ele>
        <time>2021-06-21T08:06:59.546Z</time>
      </trkpt>
      <trkpt lat="43.30699" lon="-1.58894">
        <ele>85</ele>
        <time>2021-06-21T08:07:00.512Z</time>
      </trkpt>
      <trkpt lat="43.30704" lon="-1.58885">
        <ele>85</ele>
        <time>2021-06-21T08:07:01.537Z</time>
      </trkpt>
      <trkpt lat="43.30712" lon="-1.58866">
        <ele>85</ele>
        <time>2021-06-21T08:07:02.553Z</time>
      </trkpt>
      <trkpt lat="43.30712" lon="-1.58866">
        <ele>85</ele>
        <time>2021-06-21T08:07:03.530Z</time>
      </trkpt>
      <trkpt lat="43.3072" lon="-1.58849">
        <ele>84</ele>
        <time>2021-06-21T08:07:04.538Z</time>
      </trkpt>
      <trkpt lat="43.3072" lon="-1.58849">
        <ele>84</ele>
        <time>2021-06-21T08:07:05.522Z</time>
      </trkpt>
      <trkpt lat="43.3072" lon="-1.58849">
        <ele>84</ele>
        <time>2021-06-21T08:07:06.528Z</time>
      </trkpt>
      <trkpt lat="43.30729" lon="-1.58832">
        <ele>84</ele>
        <time>2021-06-21T08:07:07.544Z</time>
      </trkpt>
      <trkpt lat="43.30729" lon="-1.58832">
        <ele>84</ele>
        <time>2021-06-21T08:07:08.509Z</time>
      </trkpt>
      <trkpt lat="43.30738" lon="-1.58816">
        <ele>84</ele>
        <time>2021-06-21T08:07:09.526Z</time>
      </trkpt>
      <trkpt lat="43.30738" lon="-1.58816">
        <ele>84</ele>
        <time>2021-06-21T08:07:10.531Z</time>
      </trkpt>
      <trkpt lat="43.30747" lon="-1.58798">
        <ele>83</ele>
        <time>2021-06-21T08:07:11.535Z</time>
      </trkpt>
      <trkpt lat="43.30757" lon="-1.58779">
        <ele>83</ele>
        <time>2021-06-21T08:07:12.542Z</time>
      </trkpt>
      <trkpt lat="43.30757" lon="-1.58779">
        <ele>83</ele>
        <time>2021-06-21T08:07:13.521Z</time>
      </trkpt>
      <trkpt lat="43.30768" lon="-1.5876">
        <ele>82</ele>
        <time>2021-06-21T08:07:14.529Z</time>
      </trkpt>
      <trkpt lat="43.30768" lon="-1.5876">
        <ele>82</ele>
        <time>2021-06-21T08:07:15.518Z</time>
      </trkpt>
      <trkpt lat="43.30768" lon="-1.5876">
        <ele>82</ele>
        <time>2021-06-21T08:07:16.532Z</time>
      </trkpt>
      <trkpt lat="43.30779" lon="-1.58741">
        <ele>82</ele>
        <time>2021-06-21T08:07:17.512Z</time>
      </trkpt>
      <trkpt lat="43.30779" lon="-1.58741">
        <ele>82</ele>
        <time>2021-06-21T08:07:18.531Z</time>
      </trkpt>
      <trkpt lat="43.30788" lon="-1.58723">
        <ele>81</ele>
        <time>2021-06-21T08:07:19.546Z</time>
      </trkpt>
      <trkpt lat="43.30788" lon="-1.58723">
        <ele>81</ele>
        <time>2021-06-21T08:07:20.520Z</time>
      </trkpt>
      <trkpt lat="43.30802" lon="-1.58697">
        <ele>80</ele>
        <time>2021-06-21T08:07:21.527Z</time>
      </trkpt>
      <trkpt lat="43.30802" lon="-1.58697">
        <ele>80</ele>
        <time>2021-06-21T08:07:22.545Z</time>
      </trkpt>
      <trkpt lat="43.3081" lon="-1.5868">
        <ele>80</ele>
        <time>2021-06-21T08:07:23.546Z</time>
      </trkpt>
      <trkpt lat="43.3081" lon="-1.5868">
        <ele>80</ele>
        <time>2021-06-21T08:07:24.526Z</time>
      </trkpt>
      <trkpt lat="43.30816" lon="-1.58672">
        <ele>79</ele>
        <time>2021-06-21T08:07:25.511Z</time>
      </trkpt>
      <trkpt lat="43.30816" lon="-1.58672">
        <ele>79</ele>
        <time>2021-06-21T08:07:26.518Z</time>
      </trkpt>
      <trkpt lat="43.30826" lon="-1.58654">
        <ele>79</ele>
        <time>2021-06-21T08:07:27.517Z</time>
      </trkpt>
      <trkpt lat="43.30826" lon="-1.58654">
        <ele>79</ele>
        <time>2021-06-21T08:07:28.526Z</time>
      </trkpt>
      <trkpt lat="43.30836" lon="-1.58637">
        <ele>78</ele>
        <time>2021-06-21T08:07:29.521Z</time>
      </trkpt>
      <trkpt lat="43.30836" lon="-1.58637">
        <ele>78</ele>
        <time>2021-06-21T08:07:30.526Z</time>
      </trkpt>
      <trkpt lat="43.30852" lon="-1.58619">
        <ele>76</ele>
        <time>2021-06-21T08:07:31.544Z</time>
      </trkpt>
      <trkpt lat="43.30852" lon="-1.58619">
        <ele>76</ele>
        <time>2021-06-21T08:07:32.509Z</time>
      </trkpt>
      <trkpt lat="43.30871" lon="-1.58603">
        <ele>75</ele>
        <time>2021-06-21T08:07:33.523Z</time>
      </trkpt>
      <trkpt lat="43.30871" lon="-1.58603">
        <ele>75</ele>
        <time>2021-06-21T08:07:34.529Z</time>
      </trkpt>
      <trkpt lat="43.30886" lon="-1.5859">
        <ele>74</ele>
        <time>2021-06-21T08:07:35.539Z</time>
      </trkpt>
      <trkpt lat="43.30894" lon="-1.58584">
        <ele>74</ele>
        <time>2021-06-21T08:07:36.531Z</time>
      </trkpt>
      <trkpt lat="43.30901" lon="-1.58578">
        <ele>73</ele>
        <time>2021-06-21T08:07:37.548Z</time>
      </trkpt>
      <trkpt lat="43.30901" lon="-1.58578">
        <ele>73</ele>
        <time>2021-06-21T08:07:38.513Z</time>
      </trkpt>
      <trkpt lat="43.30916" lon="-1.58567">
        <ele>72</ele>
        <time>2021-06-21T08:07:39.532Z</time>
      </trkpt>
      <trkpt lat="43.30916" lon="-1.58567">
        <ele>72</ele>
        <time>2021-06-21T08:07:40.509Z</time>
      </trkpt>
      <trkpt lat="43.30931" lon="-1.58555">
        <ele>72</ele>
        <time>2021-06-21T08:07:41.532Z</time>
      </trkpt>
      <trkpt lat="43.30946" lon="-1.58544">
        <ele>71</ele>
        <time>2021-06-21T08:07:42.538Z</time>
      </trkpt>
      <trkpt lat="43.30946" lon="-1.58544">
        <ele>71</ele>
        <time>2021-06-21T08:07:43.518Z</time>
      </trkpt>
      <trkpt lat="43.30946" lon="-1.58544">
        <ele>71</ele>
        <time>2021-06-21T08:07:44.530Z</time>
      </trkpt>
      <trkpt lat="43.30969" lon="-1.58528">
        <ele>69</ele>
        <time>2021-06-21T08:07:45.534Z</time>
      </trkpt>
      <trkpt lat="43.30969" lon="-1.58528">
        <ele>69</ele>
        <time>2021-06-21T08:07:46.525Z</time>
      </trkpt>
      <trkpt lat="43.30969" lon="-1.58528">
        <ele>69</ele>
        <time>2021-06-21T08:07:47.530Z</time>
      </trkpt>
      <trkpt lat="43.30984" lon="-1.58517">
        <ele>68</ele>
        <time>2021-06-21T08:07:48.524Z</time>
      </trkpt>
      <trkpt lat="43.30992" lon="-1.58511">
        <ele>68</ele>
        <time>2021-06-21T08:07:49.543Z</time>
      </trkpt>
      <trkpt lat="43.30992" lon="-1.58511">
        <ele>68</ele>
        <time>2021-06-21T08:07:50.509Z</time>
      </trkpt>
      <trkpt lat="43.31008" lon="-1.58501">
        <ele>67</ele>
        <time>2021-06-21T08:07:51.533Z</time>
      </trkpt>
      <trkpt lat="43.31023" lon="-1.5849">
        <ele>67</ele>
        <time>2021-06-21T08:07:52.538Z</time>
      </trkpt>
      <trkpt lat="43.31023" lon="-1.5849">
        <ele>67</ele>
        <time>2021-06-21T08:07:53.520Z</time>
      </trkpt>
      <trkpt lat="43.31038" lon="-1.58479">
        <ele>66</ele>
        <time>2021-06-21T08:07:54.539Z</time>
      </trkpt>
      <trkpt lat="43.31038" lon="-1.58479">
        <ele>66</ele>
        <time>2021-06-21T08:07:55.545Z</time>
      </trkpt>
      <trkpt lat="43.31038" lon="-1.58479">
        <ele>66</ele>
        <time>2021-06-21T08:07:56.511Z</time>
      </trkpt>
      <trkpt lat="43.31053" lon="-1.5847">
        <ele>66</ele>
        <time>2021-06-21T08:07:57.525Z</time>
      </trkpt>
      <trkpt lat="43.31053" lon="-1.5847">
        <ele>66</ele>
        <time>2021-06-21T08:07:58.531Z</time>
      </trkpt>
      <trkpt lat="43.31074" lon="-1.58455">
        <ele>66</ele>
        <time>2021-06-21T08:07:59.540Z</time>
      </trkpt>
      <trkpt lat="43.31074" lon="-1.58455">
        <ele>66</ele>
        <time>2021-06-21T08:08:00.529Z</time>
      </trkpt>
      <trkpt lat="43.31081" lon="-1.5845">
        <ele>65</ele>
        <time>2021-06-21T08:08:01.518Z</time>
      </trkpt>
      <trkpt lat="43.31081" lon="-1.5845">
        <ele>65</ele>
        <time>2021-06-21T08:08:02.526Z</time>
      </trkpt>
      <trkpt lat="43.31095" lon="-1.5844">
        <ele>65</ele>
        <time>2021-06-21T08:08:03.526Z</time>
      </trkpt>
      <trkpt lat="43.31107" lon="-1.5843">
        <ele>65</ele>
        <time>2021-06-21T08:08:04.544Z</time>
      </trkpt>
      <trkpt lat="43.31107" lon="-1.5843">
        <ele>65</ele>
        <time>2021-06-21T08:08:05.524Z</time>
      </trkpt>
      <trkpt lat="43.31107" lon="-1.5843">
        <ele>65</ele>
        <time>2021-06-21T08:08:06.529Z</time>
      </trkpt>
      <trkpt lat="43.31119" lon="-1.58423">
        <ele>66</ele>
        <time>2021-06-21T08:08:07.510Z</time>
      </trkpt>
      <trkpt lat="43.31119" lon="-1.58423">
        <ele>66</ele>
        <time>2021-06-21T08:08:08.516Z</time>
      </trkpt>
      <trkpt lat="43.31129" lon="-1.5842">
        <ele>66</ele>
        <time>2021-06-21T08:08:09.534Z</time>
      </trkpt>
      <trkpt lat="43.31139" lon="-1.58418">
        <ele>67</ele>
        <time>2021-06-21T08:08:10.540Z</time>
      </trkpt>
      <trkpt lat="43.31139" lon="-1.58418">
        <ele>67</ele>
        <time>2021-06-21T08:08:11.526Z</time>
      </trkpt>
      <trkpt lat="43.31143" lon="-1.58417">
        <ele>67</ele>
        <time>2021-06-21T08:08:12.514Z</time>
      </trkpt>
      <trkpt lat="43.31147" lon="-1.58416">
        <ele>67</ele>
        <time>2021-06-21T08:08:13.533Z</time>
      </trkpt>
      <trkpt lat="43.31147" lon="-1.58416">
        <ele>67</ele>
        <time>2021-06-21T08:08:14.656Z</time>
      </trkpt>
      <trkpt lat="43.31155" lon="-1.58414">
        <ele>68</ele>
        <time>2021-06-21T08:08:15.520Z</time>
      </trkpt>
      <trkpt lat="43.31155" lon="-1.58414">
        <ele>68</ele>
        <time>2021-06-21T08:08:16.526Z</time>
      </trkpt>
      <trkpt lat="43.31164" lon="-1.58413">
        <ele>69</ele>
        <time>2021-06-21T08:08:17.546Z</time>
      </trkpt>
      <trkpt lat="43.31164" lon="-1.58413">
        <ele>69</ele>
        <time>2021-06-21T08:08:18.512Z</time>
      </trkpt>
      <trkpt lat="43.31173" lon="-1.58413">
        <ele>70</ele>
        <time>2021-06-21T08:08:19.532Z</time>
      </trkpt>
      <trkpt lat="43.31173" lon="-1.58413">
        <ele>70</ele>
        <time>2021-06-21T08:08:20.538Z</time>
      </trkpt>
      <trkpt lat="43.31183" lon="-1.58413">
        <ele>71</ele>
        <time>2021-06-21T08:08:21.538Z</time>
      </trkpt>
      <trkpt lat="43.31193" lon="-1.58416">
        <ele>71</ele>
        <time>2021-06-21T08:08:22.525Z</time>
      </trkpt>
      <trkpt lat="43.31193" lon="-1.58416">
        <ele>71</ele>
        <time>2021-06-21T08:08:23.520Z</time>
      </trkpt>
      <trkpt lat="43.31202" lon="-1.58418">
        <ele>71</ele>
        <time>2021-06-21T08:08:24.528Z</time>
      </trkpt>
      <trkpt lat="43.31202" lon="-1.58418">
        <ele>71</ele>
        <time>2021-06-21T08:08:25.514Z</time>
      </trkpt>
      <trkpt lat="43.31207" lon="-1.58419">
        <ele>72</ele>
        <time>2021-06-21T08:08:26.541Z</time>
      </trkpt>
      <trkpt lat="43.31217" lon="-1.58421">
        <ele>73</ele>
        <time>2021-06-21T08:08:27.548Z</time>
      </trkpt>
      <trkpt lat="43.31217" lon="-1.58421">
        <ele>73</ele>
        <time>2021-06-21T08:08:28.532Z</time>
      </trkpt>
      <trkpt lat="43.31227" lon="-1.58424">
        <ele>75</ele>
        <time>2021-06-21T08:08:29.540Z</time>
      </trkpt>
      <trkpt lat="43.31227" lon="-1.58424">
        <ele>75</ele>
        <time>2021-06-21T08:08:30.519Z</time>
      </trkpt>
      <trkpt lat="43.31232" lon="-1.58425">
        <ele>75</ele>
        <time>2021-06-21T08:08:31.510Z</time>
      </trkpt>
      <trkpt lat="43.31232" lon="-1.58425">
        <ele>75</ele>
        <time>2021-06-21T08:08:32.522Z</time>
      </trkpt>
      <trkpt lat="43.31242" lon="-1.58428">
        <ele>76</ele>
        <time>2021-06-21T08:08:33.511Z</time>
      </trkpt>
      <trkpt lat="43.31242" lon="-1.58428">
        <ele>76</ele>
        <time>2021-06-21T08:08:34.525Z</time>
      </trkpt>
      <trkpt lat="43.31256" lon="-1.58431">
        <ele>76</ele>
        <time>2021-06-21T08:08:35.552Z</time>
      </trkpt>
      <trkpt lat="43.31256" lon="-1.58431">
        <ele>76</ele>
        <time>2021-06-21T08:08:36.525Z</time>
      </trkpt>
      <trkpt lat="43.31262" lon="-1.58432">
        <ele>76</ele>
        <time>2021-06-21T08:08:37.545Z</time>
      </trkpt>
      <trkpt lat="43.31262" lon="-1.58432">
        <ele>76</ele>
        <time>2021-06-21T08:08:38.510Z</time>
      </trkpt>
      <trkpt lat="43.31272" lon="-1.58433">
        <ele>77</ele>
        <time>2021-06-21T08:08:39.527Z</time>
      </trkpt>
      <trkpt lat="43.31282" lon="-1.58434">
        <ele>78</ele>
        <time>2021-06-21T08:08:40.559Z</time>
      </trkpt>
      <trkpt lat="43.31282" lon="-1.58434">
        <ele>78</ele>
        <time>2021-06-21T08:08:41.512Z</time>
      </trkpt>
      <trkpt lat="43.31292" lon="-1.58433">
        <ele>78</ele>
        <time>2021-06-21T08:08:42.543Z</time>
      </trkpt>
      <trkpt lat="43.31292" lon="-1.58433">
        <ele>78</ele>
        <time>2021-06-21T08:08:43.548Z</time>
      </trkpt>
      <trkpt lat="43.31292" lon="-1.58433">
        <ele>78</ele>
        <time>2021-06-21T08:08:44.514Z</time>
      </trkpt>
      <trkpt lat="43.31301" lon="-1.58431">
        <ele>78</ele>
        <time>2021-06-21T08:08:45.517Z</time>
      </trkpt>
      <trkpt lat="43.31301" lon="-1.58431">
        <ele>78</ele>
        <time>2021-06-21T08:08:46.525Z</time>
      </trkpt>
      <trkpt lat="43.31311" lon="-1.58426">
        <ele>79</ele>
        <time>2021-06-21T08:08:47.513Z</time>
      </trkpt>
      <trkpt lat="43.31315" lon="-1.58424">
        <ele>79</ele>
        <time>2021-06-21T08:08:48.527Z</time>
      </trkpt>
      <trkpt lat="43.31315" lon="-1.58424">
        <ele>79</ele>
        <time>2021-06-21T08:08:49.533Z</time>
      </trkpt>
      <trkpt lat="43.31325" lon="-1.58418">
        <ele>79</ele>
        <time>2021-06-21T08:08:50.511Z</time>
      </trkpt>
      <trkpt lat="43.3133" lon="-1.58415">
        <ele>80</ele>
        <time>2021-06-21T08:08:51.533Z</time>
      </trkpt>
      <trkpt lat="43.31341" lon="-1.5841">
        <ele>81</ele>
        <time>2021-06-21T08:08:52.540Z</time>
      </trkpt>
      <trkpt lat="43.31341" lon="-1.5841">
        <ele>81</ele>
        <time>2021-06-21T08:08:53.524Z</time>
      </trkpt>
      <trkpt lat="43.3135" lon="-1.58405">
        <ele>82</ele>
        <time>2021-06-21T08:08:54.545Z</time>
      </trkpt>
      <trkpt lat="43.3135" lon="-1.58405">
        <ele>82</ele>
        <time>2021-06-21T08:08:55.522Z</time>
      </trkpt>
      <trkpt lat="43.3135" lon="-1.58405">
        <ele>82</ele>
        <time>2021-06-21T08:08:56.528Z</time>
      </trkpt>
      <trkpt lat="43.31359" lon="-1.584">
        <ele>82</ele>
        <time>2021-06-21T08:08:57.509Z</time>
      </trkpt>
      <trkpt lat="43.31364" lon="-1.58398">
        <ele>83</ele>
        <time>2021-06-21T08:08:58.525Z</time>
      </trkpt>
      <trkpt lat="43.31364" lon="-1.58398">
        <ele>83</ele>
        <time>2021-06-21T08:08:59.532Z</time>
      </trkpt>
      <trkpt lat="43.31378" lon="-1.58389">
        <ele>83</ele>
        <time>2021-06-21T08:09:00.551Z</time>
      </trkpt>
      <trkpt lat="43.31378" lon="-1.58389">
        <ele>83</ele>
        <time>2021-06-21T08:09:01.530Z</time>
      </trkpt>
      <trkpt lat="43.31378" lon="-1.58389">
        <ele>83</ele>
        <time>2021-06-21T08:09:02.536Z</time>
      </trkpt>
      <trkpt lat="43.31387" lon="-1.58384">
        <ele>83</ele>
        <time>2021-06-21T08:09:03.514Z</time>
      </trkpt>
      <trkpt lat="43.31387" lon="-1.58384">
        <ele>83</ele>
        <time>2021-06-21T08:09:04.526Z</time>
      </trkpt>
      <trkpt lat="43.31398" lon="-1.58377">
        <ele>81</ele>
        <time>2021-06-21T08:09:05.511Z</time>
      </trkpt>
      <trkpt lat="43.31398" lon="-1.58377">
        <ele>81</ele>
        <time>2021-06-21T08:09:06.536Z</time>
      </trkpt>
      <trkpt lat="43.31409" lon="-1.58371">
        <ele>79</ele>
        <time>2021-06-21T08:09:07.521Z</time>
      </trkpt>
      <trkpt lat="43.31409" lon="-1.58371">
        <ele>79</ele>
        <time>2021-06-21T08:09:08.528Z</time>
      </trkpt>
      <trkpt lat="43.3142" lon="-1.58359">
        <ele>77</ele>
        <time>2021-06-21T08:09:09.545Z</time>
      </trkpt>
      <trkpt lat="43.3142" lon="-1.58359">
        <ele>77</ele>
        <time>2021-06-21T08:09:10.527Z</time>
      </trkpt>
      <trkpt lat="43.3142" lon="-1.58359">
        <ele>77</ele>
        <time>2021-06-21T08:09:11.533Z</time>
      </trkpt>
      <trkpt lat="43.31425" lon="-1.58349">
        <ele>77</ele>
        <time>2021-06-21T08:09:12.524Z</time>
      </trkpt>
      <trkpt lat="43.31428" lon="-1.58343">
        <ele>76</ele>
        <time>2021-06-21T08:09:13.513Z</time>
      </trkpt>
      <trkpt lat="43.31428" lon="-1.58343">
        <ele>76</ele>
        <time>2021-06-21T08:09:14.522Z</time>
      </trkpt>
      <trkpt lat="43.31433" lon="-1.58333">
        <ele>75</ele>
        <time>2021-06-21T08:09:15.544Z</time>
      </trkpt>
      <trkpt lat="43.31433" lon="-1.58333">
        <ele>75</ele>
        <time>2021-06-21T08:09:16.509Z</time>
      </trkpt>
      <trkpt lat="43.31439" lon="-1.58323">
        <ele>74</ele>
        <time>2021-06-21T08:09:17.527Z</time>
      </trkpt>
      <trkpt lat="43.31444" lon="-1.58315">
        <ele>72</ele>
        <time>2021-06-21T08:09:18.541Z</time>
      </trkpt>
      <trkpt lat="43.31444" lon="-1.58315">
        <ele>72</ele>
        <time>2021-06-21T08:09:19.517Z</time>
      </trkpt>
      <trkpt lat="43.31444" lon="-1.58315">
        <ele>72</ele>
        <time>2021-06-21T08:09:20.529Z</time>
      </trkpt>
      <trkpt lat="43.31447" lon="-1.58306">
        <ele>72</ele>
        <time>2021-06-21T08:09:21.520Z</time>
      </trkpt>
      <trkpt lat="43.31447" lon="-1.58294">
        <ele>71</ele>
        <time>2021-06-21T08:09:22.544Z</time>
      </trkpt>
      <trkpt lat="43.31447" lon="-1.58294">
        <ele>71</ele>
        <time>2021-06-21T08:09:23.529Z</time>
      </trkpt>
      <trkpt lat="43.31449" lon="-1.58281">
        <ele>71</ele>
        <time>2021-06-21T08:09:24.544Z</time>
      </trkpt>
      <trkpt lat="43.31449" lon="-1.58281">
        <ele>71</ele>
        <time>2021-06-21T08:09:25.542Z</time>
      </trkpt>
      <trkpt lat="43.31453" lon="-1.58269">
        <ele>71</ele>
        <time>2021-06-21T08:09:26.640Z</time>
      </trkpt>
      <trkpt lat="43.31453" lon="-1.58269">
        <ele>71</ele>
        <time>2021-06-21T08:09:27.546Z</time>
      </trkpt>
      <trkpt lat="43.31453" lon="-1.58269">
        <ele>71</ele>
        <time>2021-06-21T08:09:28.512Z</time>
      </trkpt>
      <trkpt lat="43.31456" lon="-1.58258">
        <ele>71</ele>
        <time>2021-06-21T08:09:29.514Z</time>
      </trkpt>
      <trkpt lat="43.31456" lon="-1.58246">
        <ele>71</ele>
        <time>2021-06-21T08:09:30.537Z</time>
      </trkpt>
      <trkpt lat="43.31456" lon="-1.58246">
        <ele>71</ele>
        <time>2021-06-21T08:09:31.542Z</time>
      </trkpt>
      <trkpt lat="43.31455" lon="-1.58232">
        <ele>71</ele>
        <time>2021-06-21T08:09:32.548Z</time>
      </trkpt>
      <trkpt lat="43.31455" lon="-1.58232">
        <ele>71</ele>
        <time>2021-06-21T08:09:33.539Z</time>
      </trkpt>
      <trkpt lat="43.31454" lon="-1.58218">
        <ele>71</ele>
        <time>2021-06-21T08:09:34.610Z</time>
      </trkpt>
      <trkpt lat="43.31454" lon="-1.58218">
        <ele>71</ele>
        <time>2021-06-21T08:09:35.548Z</time>
      </trkpt>
      <trkpt lat="43.31454" lon="-1.58218">
        <ele>71</ele>
        <time>2021-06-21T08:09:36.513Z</time>
      </trkpt>
      <trkpt lat="43.31453" lon="-1.58203">
        <ele>71</ele>
        <time>2021-06-21T08:09:37.532Z</time>
      </trkpt>
      <trkpt lat="43.31453" lon="-1.58203">
        <ele>71</ele>
        <time>2021-06-21T08:09:38.513Z</time>
      </trkpt>
      <trkpt lat="43.31454" lon="-1.58188">
        <ele>70</ele>
        <time>2021-06-21T08:09:39.542Z</time>
      </trkpt>
      <trkpt lat="43.31456" lon="-1.58171">
        <ele>70</ele>
        <time>2021-06-21T08:09:40.547Z</time>
      </trkpt>
      <trkpt lat="43.31456" lon="-1.58171">
        <ele>70</ele>
        <time>2021-06-21T08:09:41.539Z</time>
      </trkpt>
      <trkpt lat="43.31456" lon="-1.58171">
        <ele>70</ele>
        <time>2021-06-21T08:09:42.516Z</time>
      </trkpt>
      <trkpt lat="43.3146" lon="-1.58154">
        <ele>69</ele>
        <time>2021-06-21T08:09:43.521Z</time>
      </trkpt>
      <trkpt lat="43.3146" lon="-1.58154">
        <ele>69</ele>
        <time>2021-06-21T08:09:44.530Z</time>
      </trkpt>
      <trkpt lat="43.31465" lon="-1.58138">
        <ele>68</ele>
        <time>2021-06-21T08:09:45.509Z</time>
      </trkpt>
      <trkpt lat="43.31472" lon="-1.58121">
        <ele>67</ele>
        <time>2021-06-21T08:09:46.543Z</time>
      </trkpt>
      <trkpt lat="43.31472" lon="-1.58121">
        <ele>67</ele>
        <time>2021-06-21T08:09:47.548Z</time>
      </trkpt>
      <trkpt lat="43.31472" lon="-1.58121">
        <ele>67</ele>
        <time>2021-06-21T08:09:48.515Z</time>
      </trkpt>
      <trkpt lat="43.31479" lon="-1.58104">
        <ele>67</ele>
        <time>2021-06-21T08:09:49.533Z</time>
      </trkpt>
      <trkpt lat="43.31479" lon="-1.58104">
        <ele>67</ele>
        <time>2021-06-21T08:09:50.538Z</time>
      </trkpt>
      <trkpt lat="43.31486" lon="-1.58086">
        <ele>67</ele>
        <time>2021-06-21T08:09:51.521Z</time>
      </trkpt>
      <trkpt lat="43.31486" lon="-1.58086">
        <ele>67</ele>
        <time>2021-06-21T08:09:52.527Z</time>
      </trkpt>
      <trkpt lat="43.31493" lon="-1.58068">
        <ele>66</ele>
        <time>2021-06-21T08:09:53.514Z</time>
      </trkpt>
      <trkpt lat="43.31493" lon="-1.58068">
        <ele>66</ele>
        <time>2021-06-21T08:09:54.529Z</time>
      </trkpt>
      <trkpt lat="43.31497" lon="-1.58049">
        <ele>66</ele>
        <time>2021-06-21T08:09:55.523Z</time>
      </trkpt>
      <trkpt lat="43.31499" lon="-1.58029">
        <ele>65</ele>
        <time>2021-06-21T08:09:56.546Z</time>
      </trkpt>
      <trkpt lat="43.31499" lon="-1.58029">
        <ele>65</ele>
        <time>2021-06-21T08:09:57.524Z</time>
      </trkpt>
      <trkpt lat="43.31499" lon="-1.58029">
        <ele>65</ele>
        <time>2021-06-21T08:09:58.529Z</time>
      </trkpt>
      <trkpt lat="43.31498" lon="-1.5801">
        <ele>65</ele>
        <time>2021-06-21T08:09:59.548Z</time>
      </trkpt>
      <trkpt lat="43.31498" lon="-1.5801">
        <ele>65</ele>
        <time>2021-06-21T08:10:00.513Z</time>
      </trkpt>
      <trkpt lat="43.31494" lon="-1.57982">
        <ele>65</ele>
        <time>2021-06-21T08:10:01.544Z</time>
      </trkpt>
      <trkpt lat="43.31494" lon="-1.57982">
        <ele>65</ele>
        <time>2021-06-21T08:10:02.509Z</time>
      </trkpt>
      <trkpt lat="43.31494" lon="-1.57982">
        <ele>65</ele>
        <time>2021-06-21T08:10:03.528Z</time>
      </trkpt>
      <trkpt lat="43.3149" lon="-1.57966">
        <ele>64</ele>
        <time>2021-06-21T08:10:04.524Z</time>
      </trkpt>
      <trkpt lat="43.3149" lon="-1.57966">
        <ele>64</ele>
        <time>2021-06-21T08:10:05.531Z</time>
      </trkpt>
      <trkpt lat="43.31486" lon="-1.57951">
        <ele>64</ele>
        <time>2021-06-21T08:10:06.512Z</time>
      </trkpt>
      <trkpt lat="43.31484" lon="-1.57943">
        <ele>64</ele>
        <time>2021-06-21T08:10:07.538Z</time>
      </trkpt>
      <trkpt lat="43.31479" lon="-1.5793">
        <ele>64</ele>
        <time>2021-06-21T08:10:08.544Z</time>
      </trkpt>
      <trkpt lat="43.31479" lon="-1.5793">
        <ele>64</ele>
        <time>2021-06-21T08:10:09.514Z</time>
      </trkpt>
      <trkpt lat="43.31479" lon="-1.5793">
        <ele>64</ele>
        <time>2021-06-21T08:10:10.530Z</time>
      </trkpt>
      <trkpt lat="43.31476" lon="-1.57914">
        <ele>64</ele>
        <time>2021-06-21T08:10:11.526Z</time>
      </trkpt>
      <trkpt lat="43.31476" lon="-1.57914">
        <ele>64</ele>
        <time>2021-06-21T08:10:12.533Z</time>
      </trkpt>
      <trkpt lat="43.31473" lon="-1.57899">
        <ele>64</ele>
        <time>2021-06-21T08:10:13.513Z</time>
      </trkpt>
      <trkpt lat="43.31473" lon="-1.57899">
        <ele>64</ele>
        <time>2021-06-21T08:10:14.529Z</time>
      </trkpt>
      <trkpt lat="43.3147" lon="-1.57884">
        <ele>63</ele>
        <time>2021-06-21T08:10:15.514Z</time>
      </trkpt>
      <trkpt lat="43.3147" lon="-1.57884">
        <ele>63</ele>
        <time>2021-06-21T08:10:16.535Z</time>
      </trkpt>
      <trkpt lat="43.31466" lon="-1.57869">
        <ele>63</ele>
        <time>2021-06-21T08:10:17.512Z</time>
      </trkpt>
      <trkpt lat="43.31466" lon="-1.57869">
        <ele>63</ele>
        <time>2021-06-21T08:10:18.535Z</time>
      </trkpt>
      <trkpt lat="43.31462" lon="-1.57856">
        <ele>63</ele>
        <time>2021-06-21T08:10:19.512Z</time>
      </trkpt>
      <trkpt lat="43.3146" lon="-1.57849">
        <ele>63</ele>
        <time>2021-06-21T08:10:20.539Z</time>
      </trkpt>
      <trkpt lat="43.31457" lon="-1.57834">
        <ele>62</ele>
        <time>2021-06-21T08:10:21.547Z</time>
      </trkpt>
      <trkpt lat="43.31457" lon="-1.57834">
        <ele>62</ele>
        <time>2021-06-21T08:10:22.542Z</time>
      </trkpt>
      <trkpt lat="43.31457" lon="-1.57834">
        <ele>62</ele>
        <time>2021-06-21T08:10:23.511Z</time>
      </trkpt>
      <trkpt lat="43.31452" lon="-1.57813">
        <ele>61</ele>
        <time>2021-06-21T08:10:24.543Z</time>
      </trkpt>
      <trkpt lat="43.31452" lon="-1.57813">
        <ele>61</ele>
        <time>2021-06-21T08:10:25.548Z</time>
      </trkpt>
      <trkpt lat="43.31452" lon="-1.57813">
        <ele>61</ele>
        <time>2021-06-21T08:10:26.515Z</time>
      </trkpt>
      <trkpt lat="43.31449" lon="-1.57797">
        <ele>61</ele>
        <time>2021-06-21T08:10:27.524Z</time>
      </trkpt>
      <trkpt lat="43.31446" lon="-1.57781">
        <ele>60</ele>
        <time>2021-06-21T08:10:28.535Z</time>
      </trkpt>
      <trkpt lat="43.31446" lon="-1.57781">
        <ele>60</ele>
        <time>2021-06-21T08:10:29.515Z</time>
      </trkpt>
      <trkpt lat="43.31442" lon="-1.57765">
        <ele>59</ele>
        <time>2021-06-21T08:10:30.551Z</time>
      </trkpt>
      <trkpt lat="43.31442" lon="-1.57765">
        <ele>59</ele>
        <time>2021-06-21T08:10:31.527Z</time>
      </trkpt>
      <trkpt lat="43.31442" lon="-1.57765">
        <ele>59</ele>
        <time>2021-06-21T08:10:32.534Z</time>
      </trkpt>
      <trkpt lat="43.31434" lon="-1.57746">
        <ele>58</ele>
        <time>2021-06-21T08:10:33.525Z</time>
      </trkpt>
      <trkpt lat="43.31428" lon="-1.57729">
        <ele>58</ele>
        <time>2021-06-21T08:10:34.538Z</time>
      </trkpt>
      <trkpt lat="43.31428" lon="-1.57729">
        <ele>58</ele>
        <time>2021-06-21T08:10:35.543Z</time>
      </trkpt>
      <trkpt lat="43.31428" lon="-1.57729">
        <ele>58</ele>
        <time>2021-06-21T08:10:36.509Z</time>
      </trkpt>
      <trkpt lat="43.31424" lon="-1.57712">
        <ele>57</ele>
        <time>2021-06-21T08:10:37.528Z</time>
      </trkpt>
      <trkpt lat="43.31424" lon="-1.57712">
        <ele>57</ele>
        <time>2021-06-21T08:10:38.534Z</time>
      </trkpt>
      <trkpt lat="43.3142" lon="-1.57695">
        <ele>57</ele>
        <time>2021-06-21T08:10:39.513Z</time>
      </trkpt>
      <trkpt lat="43.3142" lon="-1.57695">
        <ele>57</ele>
        <time>2021-06-21T08:10:40.530Z</time>
      </trkpt>
      <trkpt lat="43.31416" lon="-1.57678">
        <ele>56</ele>
        <time>2021-06-21T08:10:41.513Z</time>
      </trkpt>
      <trkpt lat="43.31414" lon="-1.57669">
        <ele>56</ele>
        <time>2021-06-21T08:10:42.533Z</time>
      </trkpt>
      <trkpt lat="43.31412" lon="-1.57661">
        <ele>56</ele>
        <time>2021-06-21T08:10:43.540Z</time>
      </trkpt>
      <trkpt lat="43.31412" lon="-1.57661">
        <ele>56</ele>
        <time>2021-06-21T08:10:44.681Z</time>
      </trkpt>
      <trkpt lat="43.31407" lon="-1.57644">
        <ele>56</ele>
        <time>2021-06-21T08:10:45.542Z</time>
      </trkpt>
      <trkpt lat="43.31403" lon="-1.57627">
        <ele>56</ele>
        <time>2021-06-21T08:10:46.549Z</time>
      </trkpt>
      <trkpt lat="43.31403" lon="-1.57627">
        <ele>56</ele>
        <time>2021-06-21T08:10:47.526Z</time>
      </trkpt>
      <trkpt lat="43.31403" lon="-1.57627">
        <ele>56</ele>
        <time>2021-06-21T08:10:48.532Z</time>
      </trkpt>
      <trkpt lat="43.31397" lon="-1.57611">
        <ele>56</ele>
        <time>2021-06-21T08:10:49.509Z</time>
      </trkpt>
      <trkpt lat="43.31397" lon="-1.57611">
        <ele>56</ele>
        <time>2021-06-21T08:10:50.515Z</time>
      </trkpt>
      <trkpt lat="43.31394" lon="-1.57595">
        <ele>55</ele>
        <time>2021-06-21T08:10:51.545Z</time>
      </trkpt>
      <trkpt lat="43.31394" lon="-1.57595">
        <ele>55</ele>
        <time>2021-06-21T08:10:52.511Z</time>
      </trkpt>
      <trkpt lat="43.3139" lon="-1.57579">
        <ele>55</ele>
        <time>2021-06-21T08:10:53.532Z</time>
      </trkpt>
      <trkpt lat="43.31387" lon="-1.57563">
        <ele>55</ele>
        <time>2021-06-21T08:10:54.538Z</time>
      </trkpt>
      <trkpt lat="43.31387" lon="-1.57563">
        <ele>55</ele>
        <time>2021-06-21T08:10:55.527Z</time>
      </trkpt>
      <trkpt lat="43.31387" lon="-1.57563">
        <ele>55</ele>
        <time>2021-06-21T08:10:56.534Z</time>
      </trkpt>
      <trkpt lat="43.31385" lon="-1.57547">
        <ele>55</ele>
        <time>2021-06-21T08:10:57.524Z</time>
      </trkpt>
      <trkpt lat="43.31385" lon="-1.57547">
        <ele>55</ele>
        <time>2021-06-21T08:10:58.530Z</time>
      </trkpt>
      <trkpt lat="43.31381" lon="-1.57532">
        <ele>55</ele>
        <time>2021-06-21T08:10:59.548Z</time>
      </trkpt>
      <trkpt lat="43.31381" lon="-1.57532">
        <ele>55</ele>
        <time>2021-06-21T08:11:00.515Z</time>
      </trkpt>
      <trkpt lat="43.31376" lon="-1.57519">
        <ele>55</ele>
        <time>2021-06-21T08:11:01.529Z</time>
      </trkpt>
      <trkpt lat="43.31376" lon="-1.57519">
        <ele>55</ele>
        <time>2021-06-21T08:11:02.536Z</time>
      </trkpt>
      <trkpt lat="43.31371" lon="-1.57507">
        <ele>55</ele>
        <time>2021-06-21T08:11:03.512Z</time>
      </trkpt>
      <trkpt lat="43.31371" lon="-1.57507">
        <ele>55</ele>
        <time>2021-06-21T08:11:04.522Z</time>
      </trkpt>
      <trkpt lat="43.31353" lon="-1.57493">
        <ele>55</ele>
        <time>2021-06-21T08:11:05.540Z</time>
      </trkpt>
      <trkpt lat="43.31347" lon="-1.57488">
        <ele>55</ele>
        <time>2021-06-21T08:11:06.548Z</time>
      </trkpt>
      <trkpt lat="43.31347" lon="-1.57488">
        <ele>55</ele>
        <time>2021-06-21T08:11:07.522Z</time>
      </trkpt>
      <trkpt lat="43.31347" lon="-1.57488">
        <ele>55</ele>
        <time>2021-06-21T08:11:08.534Z</time>
      </trkpt>
      <trkpt lat="43.31337" lon="-1.57481">
        <ele>55</ele>
        <time>2021-06-21T08:11:09.548Z</time>
      </trkpt>
      <trkpt lat="43.31337" lon="-1.57481">
        <ele>55</ele>
        <time>2021-06-21T08:11:10.514Z</time>
      </trkpt>
      <trkpt lat="43.31326" lon="-1.57474">
        <ele>55</ele>
        <time>2021-06-21T08:11:11.544Z</time>
      </trkpt>
      <trkpt lat="43.31326" lon="-1.57474">
        <ele>55</ele>
        <time>2021-06-21T08:11:12.510Z</time>
      </trkpt>
      <trkpt lat="43.31316" lon="-1.57467">
        <ele>54</ele>
        <time>2021-06-21T08:11:13.530Z</time>
      </trkpt>
      <trkpt lat="43.31306" lon="-1.57463">
        <ele>54</ele>
        <time>2021-06-21T08:11:14.541Z</time>
      </trkpt>
      <trkpt lat="43.31306" lon="-1.57463">
        <ele>54</ele>
        <time>2021-06-21T08:11:15.525Z</time>
      </trkpt>
      <trkpt lat="43.313" lon="-1.5746">
        <ele>54</ele>
        <time>2021-06-21T08:11:16.511Z</time>
      </trkpt>
      <trkpt lat="43.313" lon="-1.5746">
        <ele>54</ele>
        <time>2021-06-21T08:11:17.527Z</time>
      </trkpt>
      <trkpt lat="43.3129" lon="-1.57453">
        <ele>54</ele>
        <time>2021-06-21T08:11:18.512Z</time>
      </trkpt>
      <trkpt lat="43.31285" lon="-1.5745">
        <ele>54</ele>
        <time>2021-06-21T08:11:19.528Z</time>
      </trkpt>
      <trkpt lat="43.31285" lon="-1.5745">
        <ele>54</ele>
        <time>2021-06-21T08:11:20.535Z</time>
      </trkpt>
      <trkpt lat="43.31275" lon="-1.57441">
        <ele>53</ele>
        <time>2021-06-21T08:11:21.515Z</time>
      </trkpt>
      <trkpt lat="43.31275" lon="-1.57441">
        <ele>53</ele>
        <time>2021-06-21T08:11:22.556Z</time>
      </trkpt>
      <trkpt lat="43.31263" lon="-1.57429">
        <ele>53</ele>
        <time>2021-06-21T08:11:23.514Z</time>
      </trkpt>
      <trkpt lat="43.31263" lon="-1.57429">
        <ele>53</ele>
        <time>2021-06-21T08:11:24.537Z</time>
      </trkpt>
      <trkpt lat="43.31251" lon="-1.57419">
        <ele>53</ele>
        <time>2021-06-21T08:11:25.544Z</time>
      </trkpt>
      <trkpt lat="43.31251" lon="-1.57419">
        <ele>53</ele>
        <time>2021-06-21T08:11:26.509Z</time>
      </trkpt>
      <trkpt lat="43.31239" lon="-1.57409">
        <ele>53</ele>
        <time>2021-06-21T08:11:27.538Z</time>
      </trkpt>
      <trkpt lat="43.31228" lon="-1.57398">
        <ele>53</ele>
        <time>2021-06-21T08:11:28.545Z</time>
      </trkpt>
      <trkpt lat="43.31228" lon="-1.57398">
        <ele>53</ele>
        <time>2021-06-21T08:11:29.530Z</time>
      </trkpt>
      <trkpt lat="43.31216" lon="-1.57388">
        <ele>53</ele>
        <time>2021-06-21T08:11:30.548Z</time>
      </trkpt>
      <trkpt lat="43.31216" lon="-1.57388">
        <ele>53</ele>
        <time>2021-06-21T08:11:31.529Z</time>
      </trkpt>
      <trkpt lat="43.31204" lon="-1.57376">
        <ele>53</ele>
        <time>2021-06-21T08:11:32.537Z</time>
      </trkpt>
      <trkpt lat="43.31204" lon="-1.57376">
        <ele>53</ele>
        <time>2021-06-21T08:11:33.533Z</time>
      </trkpt>
      <trkpt lat="43.31191" lon="-1.57365">
        <ele>53</ele>
        <time>2021-06-21T08:11:34.539Z</time>
      </trkpt>
      <trkpt lat="43.31191" lon="-1.57365">
        <ele>53</ele>
        <time>2021-06-21T08:11:35.523Z</time>
      </trkpt>
      <trkpt lat="43.31191" lon="-1.57365">
        <ele>53</ele>
        <time>2021-06-21T08:11:36.531Z</time>
      </trkpt>
      <trkpt lat="43.31179" lon="-1.57355">
        <ele>53</ele>
        <time>2021-06-21T08:11:37.516Z</time>
      </trkpt>
      <trkpt lat="43.31173" lon="-1.57351">
        <ele>53</ele>
        <time>2021-06-21T08:11:38.517Z</time>
      </trkpt>
      <trkpt lat="43.31173" lon="-1.57351">
        <ele>53</ele>
        <time>2021-06-21T08:11:39.533Z</time>
      </trkpt>
      <trkpt lat="43.3116" lon="-1.5734">
        <ele>53</ele>
        <time>2021-06-21T08:11:40.526Z</time>
      </trkpt>
      <trkpt lat="43.3116" lon="-1.5734">
        <ele>53</ele>
        <time>2021-06-21T08:11:41.532Z</time>
      </trkpt>
      <trkpt lat="43.31148" lon="-1.57327">
        <ele>54</ele>
        <time>2021-06-21T08:11:42.529Z</time>
      </trkpt>
      <trkpt lat="43.31141" lon="-1.57321">
        <ele>54</ele>
        <time>2021-06-21T08:11:43.548Z</time>
      </trkpt>
      <trkpt lat="43.31141" lon="-1.57321">
        <ele>54</ele>
        <time>2021-06-21T08:11:44.514Z</time>
      </trkpt>
      <trkpt lat="43.31129" lon="-1.57309">
        <ele>54</ele>
        <time>2021-06-21T08:11:45.540Z</time>
      </trkpt>
      <trkpt lat="43.31116" lon="-1.57296">
        <ele>53</ele>
        <time>2021-06-21T08:11:46.550Z</time>
      </trkpt>
      <trkpt lat="43.31116" lon="-1.57296">
        <ele>53</ele>
        <time>2021-06-21T08:11:47.524Z</time>
      </trkpt>
      <trkpt lat="43.31116" lon="-1.57296">
        <ele>53</ele>
        <time>2021-06-21T08:11:48.530Z</time>
      </trkpt>
      <trkpt lat="43.31104" lon="-1.57283">
        <ele>53</ele>
        <time>2021-06-21T08:11:49.519Z</time>
      </trkpt>
      <trkpt lat="43.31104" lon="-1.57283">
        <ele>53</ele>
        <time>2021-06-21T08:11:50.536Z</time>
      </trkpt>
      <trkpt lat="43.31092" lon="-1.57272">
        <ele>53</ele>
        <time>2021-06-21T08:11:51.509Z</time>
      </trkpt>
      <trkpt lat="43.31092" lon="-1.57272">
        <ele>53</ele>
        <time>2021-06-21T08:11:52.516Z</time>
      </trkpt>
      <trkpt lat="43.31079" lon="-1.57263">
        <ele>53</ele>
        <time>2021-06-21T08:11:53.517Z</time>
      </trkpt>
      <trkpt lat="43.31079" lon="-1.57263">
        <ele>53</ele>
        <time>2021-06-21T08:11:54.532Z</time>
      </trkpt>
      <trkpt lat="43.31067" lon="-1.57256">
        <ele>53</ele>
        <time>2021-06-21T08:11:55.546Z</time>
      </trkpt>
      <trkpt lat="43.31067" lon="-1.57256">
        <ele>53</ele>
        <time>2021-06-21T08:11:56.511Z</time>
      </trkpt>
      <trkpt lat="43.31056" lon="-1.5725">
        <ele>52</ele>
        <time>2021-06-21T08:11:57.539Z</time>
      </trkpt>
      <trkpt lat="43.31045" lon="-1.57245">
        <ele>52</ele>
        <time>2021-06-21T08:11:58.545Z</time>
      </trkpt>
      <trkpt lat="43.31045" lon="-1.57245">
        <ele>52</ele>
        <time>2021-06-21T08:11:59.543Z</time>
      </trkpt>
      <trkpt lat="43.31039" lon="-1.57243">
        <ele>52</ele>
        <time>2021-06-21T08:12:00.513Z</time>
      </trkpt>
      <trkpt lat="43.31034" lon="-1.57242">
        <ele>52</ele>
        <time>2021-06-21T08:12:01.539Z</time>
      </trkpt>
      <trkpt lat="43.31023" lon="-1.57239">
        <ele>52</ele>
        <time>2021-06-21T08:12:02.547Z</time>
      </trkpt>
      <trkpt lat="43.31023" lon="-1.57239">
        <ele>52</ele>
        <time>2021-06-21T08:12:03.531Z</time>
      </trkpt>
      <trkpt lat="43.31013" lon="-1.57237">
        <ele>52</ele>
        <time>2021-06-21T08:12:04.537Z</time>
      </trkpt>
      <trkpt lat="43.31013" lon="-1.57237">
        <ele>52</ele>
        <time>2021-06-21T08:12:05.532Z</time>
      </trkpt>
      <trkpt lat="43.31013" lon="-1.57237">
        <ele>52</ele>
        <time>2021-06-21T08:12:06.539Z</time>
      </trkpt>
      <trkpt lat="43.31004" lon="-1.57236">
        <ele>52</ele>
        <time>2021-06-21T08:12:07.526Z</time>
      </trkpt>
      <trkpt lat="43.30996" lon="-1.57236">
        <ele>52</ele>
        <time>2021-06-21T08:12:08.535Z</time>
      </trkpt>
      <trkpt lat="43.30996" lon="-1.57236">
        <ele>52</ele>
        <time>2021-06-21T08:12:09.517Z</time>
      </trkpt>
      <trkpt lat="43.30992" lon="-1.57236">
        <ele>52</ele>
        <time>2021-06-21T08:12:10.529Z</time>
      </trkpt>
      <trkpt lat="43.30992" lon="-1.57236">
        <ele>52</ele>
        <time>2021-06-21T08:12:11.537Z</time>
      </trkpt>
      <trkpt lat="43.30984" lon="-1.57238">
        <ele>52</ele>
        <time>2021-06-21T08:12:12.516Z</time>
      </trkpt>
      <trkpt lat="43.3098" lon="-1.57237">
        <ele>52</ele>
        <time>2021-06-21T08:12:13.530Z</time>
      </trkpt>
      <trkpt lat="43.30974" lon="-1.57235">
        <ele>52</ele>
        <time>2021-06-21T08:12:14.538Z</time>
      </trkpt>
      <trkpt lat="43.30974" lon="-1.57235">
        <ele>52</ele>
        <time>2021-06-21T08:12:15.535Z</time>
      </trkpt>
      <trkpt lat="43.30968" lon="-1.57237">
        <ele>53</ele>
        <time>2021-06-21T08:12:16.545Z</time>
      </trkpt>
      <trkpt lat="43.30968" lon="-1.57237">
        <ele>53</ele>
        <time>2021-06-21T08:12:17.523Z</time>
      </trkpt>
      <trkpt lat="43.30968" lon="-1.57237">
        <ele>53</ele>
        <time>2021-06-21T08:12:18.531Z</time>
      </trkpt>
      <trkpt lat="43.30962" lon="-1.57241">
        <ele>53</ele>
        <time>2021-06-21T08:12:19.523Z</time>
      </trkpt>
      <trkpt lat="43.30962" lon="-1.57241">
        <ele>53</ele>
        <time>2021-06-21T08:12:20.532Z</time>
      </trkpt>
      <trkpt lat="43.30956" lon="-1.57238">
        <ele>53</ele>
        <time>2021-06-21T08:12:21.521Z</time>
      </trkpt>
      <trkpt lat="43.30952" lon="-1.57233">
        <ele>54</ele>
        <time>2021-06-21T08:12:22.550Z</time>
      </trkpt>
      <trkpt lat="43.30952" lon="-1.57233">
        <ele>54</ele>
        <time>2021-06-21T08:12:23.521Z</time>
      </trkpt>
      <trkpt lat="43.30952" lon="-1.57233">
        <ele>54</ele>
        <time>2021-06-21T08:12:24.531Z</time>
      </trkpt>
      <trkpt lat="43.30951" lon="-1.57227">
        <ele>54</ele>
        <time>2021-06-21T08:12:25.526Z</time>
      </trkpt>
      <trkpt lat="43.30951" lon="-1.57227">
        <ele>54</ele>
        <time>2021-06-21T08:12:26.533Z</time>
      </trkpt>
      <trkpt lat="43.30954" lon="-1.5722">
        <ele>54</ele>
        <time>2021-06-21T08:12:27.514Z</time>
      </trkpt>
      <trkpt lat="43.30954" lon="-1.5722">
        <ele>54</ele>
        <time>2021-06-21T08:12:28.536Z</time>
      </trkpt>
      <trkpt lat="43.30958" lon="-1.57214">
        <ele>55</ele>
        <time>2021-06-21T08:12:29.526Z</time>
      </trkpt>
      <trkpt lat="43.30958" lon="-1.57214">
        <ele>55</ele>
        <time>2021-06-21T08:12:30.533Z</time>
      </trkpt>
      <trkpt lat="43.30964" lon="-1.57208">
        <ele>55</ele>
        <time>2021-06-21T08:12:31.524Z</time>
      </trkpt>
      <trkpt lat="43.30964" lon="-1.57208">
        <ele>55</ele>
        <time>2021-06-21T08:12:32.529Z</time>
      </trkpt>
      <trkpt lat="43.30968" lon="-1.57199">
        <ele>56</ele>
        <time>2021-06-21T08:12:33.511Z</time>
      </trkpt>
      <trkpt lat="43.30968" lon="-1.57199">
        <ele>56</ele>
        <time>2021-06-21T08:12:34.523Z</time>
      </trkpt>
      <trkpt lat="43.30971" lon="-1.57189">
        <ele>56</ele>
        <time>2021-06-21T08:12:35.510Z</time>
      </trkpt>
      <trkpt lat="43.30971" lon="-1.57189">
        <ele>56</ele>
        <time>2021-06-21T08:12:36.515Z</time>
      </trkpt>
      <trkpt lat="43.30974" lon="-1.57179">
        <ele>57</ele>
        <time>2021-06-21T08:12:37.535Z</time>
      </trkpt>
      <trkpt lat="43.30974" lon="-1.57179">
        <ele>57</ele>
        <time>2021-06-21T08:12:38.541Z</time>
      </trkpt>
      <trkpt lat="43.30976" lon="-1.5717">
        <ele>58</ele>
        <time>2021-06-21T08:12:39.516Z</time>
      </trkpt>
      <trkpt lat="43.30976" lon="-1.5717">
        <ele>58</ele>
        <time>2021-06-21T08:12:40.535Z</time>
      </trkpt>
      <trkpt lat="43.30979" lon="-1.57161">
        <ele>59</ele>
        <time>2021-06-21T08:12:41.531Z</time>
      </trkpt>
      <trkpt lat="43.30979" lon="-1.57155">
        <ele>59</ele>
        <time>2021-06-21T08:12:42.534Z</time>
      </trkpt>
      <trkpt lat="43.3098" lon="-1.5715">
        <ele>60</ele>
        <time>2021-06-21T08:12:43.527Z</time>
      </trkpt>
      <trkpt lat="43.3098" lon="-1.5715">
        <ele>60</ele>
        <time>2021-06-21T08:12:44.534Z</time>
      </trkpt>
      <trkpt lat="43.30982" lon="-1.5714">
        <ele>61</ele>
        <time>2021-06-21T08:12:45.523Z</time>
      </trkpt>
      <trkpt lat="43.30982" lon="-1.5714">
        <ele>61</ele>
        <time>2021-06-21T08:12:46.531Z</time>
      </trkpt>
      <trkpt lat="43.30984" lon="-1.57129">
        <ele>62</ele>
        <time>2021-06-21T08:12:47.515Z</time>
      </trkpt>
      <trkpt lat="43.30985" lon="-1.57119">
        <ele>63</ele>
        <time>2021-06-21T08:12:48.541Z</time>
      </trkpt>
      <trkpt lat="43.30985" lon="-1.57119">
        <ele>63</ele>
        <time>2021-06-21T08:12:49.547Z</time>
      </trkpt>
      <trkpt lat="43.30985" lon="-1.57119">
        <ele>63</ele>
        <time>2021-06-21T08:12:50.513Z</time>
      </trkpt>
      <trkpt lat="43.30986" lon="-1.57108">
        <ele>64</ele>
        <time>2021-06-21T08:12:51.546Z</time>
      </trkpt>
      <trkpt lat="43.30986" lon="-1.57108">
        <ele>64</ele>
        <time>2021-06-21T08:12:52.511Z</time>
      </trkpt>
      <trkpt lat="43.30984" lon="-1.57098">
        <ele>65</ele>
        <time>2021-06-21T08:12:53.545Z</time>
      </trkpt>
      <trkpt lat="43.30984" lon="-1.57098">
        <ele>65</ele>
        <time>2021-06-21T08:12:54.520Z</time>
      </trkpt>
      <trkpt lat="43.30981" lon="-1.57086">
        <ele>66</ele>
        <time>2021-06-21T08:12:55.512Z</time>
      </trkpt>
      <trkpt lat="43.30981" lon="-1.57086">
        <ele>66</ele>
        <time>2021-06-21T08:12:56.518Z</time>
      </trkpt>
      <trkpt lat="43.30976" lon="-1.57076">
        <ele>66</ele>
        <time>2021-06-21T08:12:57.536Z</time>
      </trkpt>
      <trkpt lat="43.30971" lon="-1.57065">
        <ele>67</ele>
        <time>2021-06-21T08:12:58.547Z</time>
      </trkpt>
      <trkpt lat="43.30967" lon="-1.57061">
        <ele>68</ele>
        <time>2021-06-21T08:12:59.548Z</time>
      </trkpt>
      <trkpt lat="43.30967" lon="-1.57061">
        <ele>68</ele>
        <time>2021-06-21T08:13:00.520Z</time>
      </trkpt>
      <trkpt lat="43.30964" lon="-1.57056">
        <ele>68</ele>
        <time>2021-06-21T08:13:01.545Z</time>
      </trkpt>
      <trkpt lat="43.30964" lon="-1.57056">
        <ele>68</ele>
        <time>2021-06-21T08:13:02.510Z</time>
      </trkpt>
      <trkpt lat="43.30957" lon="-1.57046">
        <ele>69</ele>
        <time>2021-06-21T08:13:03.531Z</time>
      </trkpt>
      <trkpt lat="43.30957" lon="-1.57046">
        <ele>69</ele>
        <time>2021-06-21T08:13:04.651Z</time>
      </trkpt>
      <trkpt lat="43.3095" lon="-1.57036">
        <ele>70</ele>
        <time>2021-06-21T08:13:05.525Z</time>
      </trkpt>
      <trkpt lat="43.3095" lon="-1.57036">
        <ele>70</ele>
        <time>2021-06-21T08:13:06.530Z</time>
      </trkpt>
      <trkpt lat="43.30943" lon="-1.57024">
        <ele>71</ele>
        <time>2021-06-21T08:13:07.516Z</time>
      </trkpt>
      <trkpt lat="43.30943" lon="-1.57024">
        <ele>71</ele>
        <time>2021-06-21T08:13:08.532Z</time>
      </trkpt>
      <trkpt lat="43.30937" lon="-1.57011">
        <ele>71</ele>
        <time>2021-06-21T08:13:09.515Z</time>
      </trkpt>
      <trkpt lat="43.30933" lon="-1.57004">
        <ele>72</ele>
        <time>2021-06-21T08:13:10.529Z</time>
      </trkpt>
      <trkpt lat="43.30933" lon="-1.57004">
        <ele>72</ele>
        <time>2021-06-21T08:13:11.537Z</time>
      </trkpt>
      <trkpt lat="43.30928" lon="-1.5699">
        <ele>72</ele>
        <time>2021-06-21T08:13:12.542Z</time>
      </trkpt>
      <trkpt lat="43.30928" lon="-1.5699">
        <ele>72</ele>
        <time>2021-06-21T08:13:13.537Z</time>
      </trkpt>
      <trkpt lat="43.30923" lon="-1.56971">
        <ele>72</ele>
        <time>2021-06-21T08:13:14.528Z</time>
      </trkpt>
      <trkpt lat="43.30923" lon="-1.56971">
        <ele>72</ele>
        <time>2021-06-21T08:13:15.534Z</time>
      </trkpt>
      <trkpt lat="43.30917" lon="-1.56951">
        <ele>71</ele>
        <time>2021-06-21T08:13:16.518Z</time>
      </trkpt>
      <trkpt lat="43.30917" lon="-1.56951">
        <ele>71</ele>
        <time>2021-06-21T08:13:17.531Z</time>
      </trkpt>
      <trkpt lat="43.30914" lon="-1.56934">
        <ele>70</ele>
        <time>2021-06-21T08:13:18.517Z</time>
      </trkpt>
      <trkpt lat="43.30913" lon="-1.56926">
        <ele>70</ele>
        <time>2021-06-21T08:13:19.534Z</time>
      </trkpt>
      <trkpt lat="43.30913" lon="-1.56926">
        <ele>70</ele>
        <time>2021-06-21T08:13:20.542Z</time>
      </trkpt>
      <trkpt lat="43.30912" lon="-1.56907">
        <ele>71</ele>
        <time>2021-06-21T08:13:21.529Z</time>
      </trkpt>
      <trkpt lat="43.30913" lon="-1.56888">
        <ele>71</ele>
        <time>2021-06-21T08:13:22.548Z</time>
      </trkpt>
      <trkpt lat="43.30913" lon="-1.56888">
        <ele>71</ele>
        <time>2021-06-21T08:13:23.547Z</time>
      </trkpt>
      <trkpt lat="43.30913" lon="-1.56888">
        <ele>71</ele>
        <time>2021-06-21T08:13:24.512Z</time>
      </trkpt>
      <trkpt lat="43.30917" lon="-1.56868">
        <ele>71</ele>
        <time>2021-06-21T08:13:25.537Z</time>
      </trkpt>
      <trkpt lat="43.3092" lon="-1.5685">
        <ele>72</ele>
        <time>2021-06-21T08:13:26.549Z</time>
      </trkpt>
      <trkpt lat="43.3092" lon="-1.5685">
        <ele>72</ele>
        <time>2021-06-21T08:13:27.526Z</time>
      </trkpt>
      <trkpt lat="43.3092" lon="-1.5685">
        <ele>72</ele>
        <time>2021-06-21T08:13:28.533Z</time>
      </trkpt>
      <trkpt lat="43.30925" lon="-1.56831">
        <ele>72</ele>
        <time>2021-06-21T08:13:29.511Z</time>
      </trkpt>
      <trkpt lat="43.30927" lon="-1.56823">
        <ele>72</ele>
        <time>2021-06-21T08:13:30.541Z</time>
      </trkpt>
      <trkpt lat="43.30931" lon="-1.56804">
        <ele>72</ele>
        <time>2021-06-21T08:13:31.592Z</time>
      </trkpt>
      <trkpt lat="43.30934" lon="-1.56794">
        <ele>72</ele>
        <time>2021-06-21T08:13:32.541Z</time>
      </trkpt>
      <trkpt lat="43.30934" lon="-1.56794">
        <ele>72</ele>
        <time>2021-06-21T08:13:33.542Z</time>
      </trkpt>
      <trkpt lat="43.3094" lon="-1.56777">
        <ele>72</ele>
        <time>2021-06-21T08:13:34.548Z</time>
      </trkpt>
      <trkpt lat="43.3094" lon="-1.56777">
        <ele>72</ele>
        <time>2021-06-21T08:13:35.529Z</time>
      </trkpt>
      <trkpt lat="43.3094" lon="-1.56777">
        <ele>72</ele>
        <time>2021-06-21T08:13:36.542Z</time>
      </trkpt>
      <trkpt lat="43.30949" lon="-1.5676">
        <ele>72</ele>
        <time>2021-06-21T08:13:37.538Z</time>
      </trkpt>
      <trkpt lat="43.30954" lon="-1.56753">
        <ele>73</ele>
        <time>2021-06-21T08:13:38.517Z</time>
      </trkpt>
      <trkpt lat="43.30963" lon="-1.56738">
        <ele>73</ele>
        <time>2021-06-21T08:13:39.540Z</time>
      </trkpt>
      <trkpt lat="43.30963" lon="-1.56738">
        <ele>73</ele>
        <time>2021-06-21T08:13:40.532Z</time>
      </trkpt>
      <trkpt lat="43.30972" lon="-1.56722">
        <ele>73</ele>
        <time>2021-06-21T08:13:41.551Z</time>
      </trkpt>
      <trkpt lat="43.30972" lon="-1.56722">
        <ele>73</ele>
        <time>2021-06-21T08:13:42.537Z</time>
      </trkpt>
      <trkpt lat="43.30977" lon="-1.56714">
        <ele>73</ele>
        <time>2021-06-21T08:13:43.509Z</time>
      </trkpt>
      <trkpt lat="43.30977" lon="-1.56714">
        <ele>73</ele>
        <time>2021-06-21T08:13:44.515Z</time>
      </trkpt>
      <trkpt lat="43.30985" lon="-1.56698">
        <ele>73</ele>
        <time>2021-06-21T08:13:45.514Z</time>
      </trkpt>
      <trkpt lat="43.3099" lon="-1.5669">
        <ele>73</ele>
        <time>2021-06-21T08:13:46.523Z</time>
      </trkpt>
      <trkpt lat="43.30998" lon="-1.56674">
        <ele>74</ele>
        <time>2021-06-21T08:13:47.555Z</time>
      </trkpt>
      <trkpt lat="43.30998" lon="-1.56674">
        <ele>74</ele>
        <time>2021-06-21T08:13:48.541Z</time>
      </trkpt>
      <trkpt lat="43.31002" lon="-1.56667">
        <ele>74</ele>
        <time>2021-06-21T08:13:49.543Z</time>
      </trkpt>
      <trkpt lat="43.31002" lon="-1.56667">
        <ele>74</ele>
        <time>2021-06-21T08:13:50.509Z</time>
      </trkpt>
      <trkpt lat="43.3101" lon="-1.5665">
        <ele>74</ele>
        <time>2021-06-21T08:13:51.527Z</time>
      </trkpt>
      <trkpt lat="43.3101" lon="-1.5665">
        <ele>74</ele>
        <time>2021-06-21T08:13:52.539Z</time>
      </trkpt>
      <trkpt lat="43.31018" lon="-1.56637">
        <ele>74</ele>
        <time>2021-06-21T08:13:53.525Z</time>
      </trkpt>
      <trkpt lat="43.31018" lon="-1.56637">
        <ele>74</ele>
        <time>2021-06-21T08:13:54.537Z</time>
      </trkpt>
      <trkpt lat="43.31028" lon="-1.56623">
        <ele>74</ele>
        <time>2021-06-21T08:13:55.526Z</time>
      </trkpt>
      <trkpt lat="43.31028" lon="-1.56623">
        <ele>74</ele>
        <time>2021-06-21T08:13:56.539Z</time>
      </trkpt>
      <trkpt lat="43.31043" lon="-1.56605">
        <ele>75</ele>
        <time>2021-06-21T08:13:57.539Z</time>
      </trkpt>
      <trkpt lat="43.31043" lon="-1.56605">
        <ele>75</ele>
        <time>2021-06-21T08:13:58.537Z</time>
      </trkpt>
      <trkpt lat="43.31054" lon="-1.56596">
        <ele>75</ele>
        <time>2021-06-21T08:13:59.544Z</time>
      </trkpt>
      <trkpt lat="43.31054" lon="-1.56596">
        <ele>75</ele>
        <time>2021-06-21T08:14:00.510Z</time>
      </trkpt>
      <trkpt lat="43.31059" lon="-1.56592">
        <ele>75</ele>
        <time>2021-06-21T08:14:01.541Z</time>
      </trkpt>
      <trkpt lat="43.31059" lon="-1.56592">
        <ele>75</ele>
        <time>2021-06-21T08:14:02.512Z</time>
      </trkpt>
      <trkpt lat="43.31076" lon="-1.56581">
        <ele>75</ele>
        <time>2021-06-21T08:14:03.532Z</time>
      </trkpt>
      <trkpt lat="43.31076" lon="-1.56581">
        <ele>75</ele>
        <time>2021-06-21T08:14:04.544Z</time>
      </trkpt>
      <trkpt lat="43.31076" lon="-1.56581">
        <ele>75</ele>
        <time>2021-06-21T08:14:05.512Z</time>
      </trkpt>
      <trkpt lat="43.31093" lon="-1.56571">
        <ele>76</ele>
        <time>2021-06-21T08:14:06.545Z</time>
      </trkpt>
      <trkpt lat="43.31093" lon="-1.56571">
        <ele>76</ele>
        <time>2021-06-21T08:14:07.514Z</time>
      </trkpt>
      <trkpt lat="43.31105" lon="-1.56564">
        <ele>76</ele>
        <time>2021-06-21T08:14:08.541Z</time>
      </trkpt>
      <trkpt lat="43.31105" lon="-1.56564">
        <ele>76</ele>
        <time>2021-06-21T08:14:09.529Z</time>
      </trkpt>
      <trkpt lat="43.31105" lon="-1.56564">
        <ele>76</ele>
        <time>2021-06-21T08:14:10.544Z</time>
      </trkpt>
      <trkpt lat="43.31117" lon="-1.56559">
        <ele>76</ele>
        <time>2021-06-21T08:14:11.680Z</time>
      </trkpt>
      <trkpt lat="43.31123" lon="-1.56555">
        <ele>76</ele>
        <time>2021-06-21T08:14:12.515Z</time>
      </trkpt>
      <trkpt lat="43.31129" lon="-1.56552">
        <ele>75</ele>
        <time>2021-06-21T08:14:13.539Z</time>
      </trkpt>
      <trkpt lat="43.31129" lon="-1.56552">
        <ele>75</ele>
        <time>2021-06-21T08:14:14.519Z</time>
      </trkpt>
      <trkpt lat="43.31139" lon="-1.56545">
        <ele>75</ele>
        <time>2021-06-21T08:14:15.516Z</time>
      </trkpt>
      <trkpt lat="43.31151" lon="-1.56538">
        <ele>75</ele>
        <time>2021-06-21T08:14:16.537Z</time>
      </trkpt>
      <trkpt lat="43.31151" lon="-1.56538">
        <ele>75</ele>
        <time>2021-06-21T08:14:17.538Z</time>
      </trkpt>
      <trkpt lat="43.31156" lon="-1.56535">
        <ele>75</ele>
        <time>2021-06-21T08:14:18.531Z</time>
      </trkpt>
      <trkpt lat="43.31162" lon="-1.56531">
        <ele>75</ele>
        <time>2021-06-21T08:14:19.530Z</time>
      </trkpt>
      <trkpt lat="43.31174" lon="-1.56524">
        <ele>76</ele>
        <time>2021-06-21T08:14:20.548Z</time>
      </trkpt>
      <trkpt lat="43.31174" lon="-1.56524">
        <ele>76</ele>
        <time>2021-06-21T08:14:21.530Z</time>
      </trkpt>
      <trkpt lat="43.31179" lon="-1.56521">
        <ele>76</ele>
        <time>2021-06-21T08:14:22.516Z</time>
      </trkpt>
      <trkpt lat="43.31179" lon="-1.56521">
        <ele>76</ele>
        <time>2021-06-21T08:14:23.510Z</time>
      </trkpt>
      <trkpt lat="43.3119" lon="-1.56514">
        <ele>76</ele>
        <time>2021-06-21T08:14:24.534Z</time>
      </trkpt>
      <trkpt lat="43.31195" lon="-1.56511">
        <ele>76</ele>
        <time>2021-06-21T08:14:25.522Z</time>
      </trkpt>
      <trkpt lat="43.31206" lon="-1.56503">
        <ele>76</ele>
        <time>2021-06-21T08:14:26.544Z</time>
      </trkpt>
      <trkpt lat="43.31206" lon="-1.56503">
        <ele>76</ele>
        <time>2021-06-21T08:14:27.512Z</time>
      </trkpt>
      <trkpt lat="43.31206" lon="-1.56503">
        <ele>76</ele>
        <time>2021-06-21T08:14:28.531Z</time>
      </trkpt>
      <trkpt lat="43.31218" lon="-1.56496">
        <ele>76</ele>
        <time>2021-06-21T08:14:29.527Z</time>
      </trkpt>
      <trkpt lat="43.31218" lon="-1.56496">
        <ele>76</ele>
        <time>2021-06-21T08:14:30.538Z</time>
      </trkpt>
      <trkpt lat="43.31229" lon="-1.56489">
        <ele>76</ele>
        <time>2021-06-21T08:14:31.513Z</time>
      </trkpt>
      <trkpt lat="43.31229" lon="-1.56489">
        <ele>76</ele>
        <time>2021-06-21T08:14:32.533Z</time>
      </trkpt>
      <trkpt lat="43.31238" lon="-1.56479">
        <ele>76</ele>
        <time>2021-06-21T08:14:33.515Z</time>
      </trkpt>
      <trkpt lat="43.31238" lon="-1.56479">
        <ele>76</ele>
        <time>2021-06-21T08:14:34.535Z</time>
      </trkpt>
      <trkpt lat="43.31247" lon="-1.56468">
        <ele>76</ele>
        <time>2021-06-21T08:14:35.521Z</time>
      </trkpt>
      <trkpt lat="43.31247" lon="-1.56468">
        <ele>76</ele>
        <time>2021-06-21T08:14:36.536Z</time>
      </trkpt>
      <trkpt lat="43.31255" lon="-1.56456">
        <ele>76</ele>
        <time>2021-06-21T08:14:37.517Z</time>
      </trkpt>
      <trkpt lat="43.31262" lon="-1.56443">
        <ele>76</ele>
        <time>2021-06-21T08:14:38.545Z</time>
      </trkpt>
      <trkpt lat="43.31262" lon="-1.56443">
        <ele>76</ele>
        <time>2021-06-21T08:14:39.542Z</time>
      </trkpt>
      <trkpt lat="43.31262" lon="-1.56443">
        <ele>76</ele>
        <time>2021-06-21T08:14:40.510Z</time>
      </trkpt>
      <trkpt lat="43.31269" lon="-1.5643">
        <ele>74</ele>
        <time>2021-06-21T08:14:41.532Z</time>
      </trkpt>
      <trkpt lat="43.31277" lon="-1.56416">
        <ele>72</ele>
        <time>2021-06-21T08:14:42.661Z</time>
      </trkpt>
      <trkpt lat="43.31277" lon="-1.56416">
        <ele>72</ele>
        <time>2021-06-21T08:14:43.514Z</time>
      </trkpt>
      <trkpt lat="43.31277" lon="-1.56416">
        <ele>72</ele>
        <time>2021-06-21T08:14:44.521Z</time>
      </trkpt>
      <trkpt lat="43.31285" lon="-1.56404">
        <ele>71</ele>
        <time>2021-06-21T08:14:45.548Z</time>
      </trkpt>
      <trkpt lat="43.31285" lon="-1.56404">
        <ele>71</ele>
        <time>2021-06-21T08:14:46.515Z</time>
      </trkpt>
      <trkpt lat="43.31296" lon="-1.56386">
        <ele>70</ele>
        <time>2021-06-21T08:14:47.537Z</time>
      </trkpt>
      <trkpt lat="43.31296" lon="-1.56386">
        <ele>70</ele>
        <time>2021-06-21T08:14:48.542Z</time>
      </trkpt>
      <trkpt lat="43.31304" lon="-1.56374">
        <ele>69</ele>
        <time>2021-06-21T08:14:49.549Z</time>
      </trkpt>
      <trkpt lat="43.31304" lon="-1.56374">
        <ele>69</ele>
        <time>2021-06-21T08:14:50.535Z</time>
      </trkpt>
      <trkpt lat="43.31313" lon="-1.56364">
        <ele>69</ele>
        <time>2021-06-21T08:14:51.543Z</time>
      </trkpt>
      <trkpt lat="43.31313" lon="-1.56364">
        <ele>69</ele>
        <time>2021-06-21T08:14:52.521Z</time>
      </trkpt>
      <trkpt lat="43.31318" lon="-1.56359">
        <ele>68</ele>
        <time>2021-06-21T08:14:53.532Z</time>
      </trkpt>
      <trkpt lat="43.31318" lon="-1.56359">
        <ele>68</ele>
        <time>2021-06-21T08:14:54.539Z</time>
      </trkpt>
      <trkpt lat="43.31328" lon="-1.5635">
        <ele>68</ele>
        <time>2021-06-21T08:14:55.526Z</time>
      </trkpt>
      <trkpt lat="43.31328" lon="-1.5635">
        <ele>68</ele>
        <time>2021-06-21T08:14:56.535Z</time>
      </trkpt>
      <trkpt lat="43.31338" lon="-1.56342">
        <ele>67</ele>
        <time>2021-06-21T08:14:57.520Z</time>
      </trkpt>
      <trkpt lat="43.31338" lon="-1.56342">
        <ele>67</ele>
        <time>2021-06-21T08:14:58.539Z</time>
      </trkpt>
      <trkpt lat="43.31349" lon="-1.56334">
        <ele>65</ele>
        <time>2021-06-21T08:14:59.526Z</time>
      </trkpt>
      <trkpt lat="43.31349" lon="-1.56334">
        <ele>65</ele>
        <time>2021-06-21T08:15:00.532Z</time>
      </trkpt>
      <trkpt lat="43.31361" lon="-1.56325">
        <ele>64</ele>
        <time>2021-06-21T08:15:01.548Z</time>
      </trkpt>
      <trkpt lat="43.31361" lon="-1.56325">
        <ele>64</ele>
        <time>2021-06-21T08:15:02.514Z</time>
      </trkpt>
      <trkpt lat="43.31371" lon="-1.56318">
        <ele>64</ele>
        <time>2021-06-21T08:15:03.509Z</time>
      </trkpt>
      <trkpt lat="43.31371" lon="-1.56318">
        <ele>64</ele>
        <time>2021-06-21T08:15:04.516Z</time>
      </trkpt>
      <trkpt lat="43.31382" lon="-1.5631">
        <ele>63</ele>
        <time>2021-06-21T08:15:05.517Z</time>
      </trkpt>
      <trkpt lat="43.31387" lon="-1.56305">
        <ele>63</ele>
        <time>2021-06-21T08:15:06.531Z</time>
      </trkpt>
      <trkpt lat="43.31392" lon="-1.56301">
        <ele>62</ele>
        <time>2021-06-21T08:15:07.547Z</time>
      </trkpt>
      <trkpt lat="43.31392" lon="-1.56301">
        <ele>62</ele>
        <time>2021-06-21T08:15:08.515Z</time>
      </trkpt>
      <trkpt lat="43.31401" lon="-1.5629">
        <ele>62</ele>
        <time>2021-06-21T08:15:09.539Z</time>
      </trkpt>
      <trkpt lat="43.31401" lon="-1.5629">
        <ele>62</ele>
        <time>2021-06-21T08:15:10.664Z</time>
      </trkpt>
      <trkpt lat="43.31409" lon="-1.5628">
        <ele>61</ele>
        <time>2021-06-21T08:15:11.525Z</time>
      </trkpt>
      <trkpt lat="43.31409" lon="-1.5628">
        <ele>61</ele>
        <time>2021-06-21T08:15:12.531Z</time>
      </trkpt>
      <trkpt lat="43.31417" lon="-1.56268">
        <ele>60</ele>
        <time>2021-06-21T08:15:13.529Z</time>
      </trkpt>
      <trkpt lat="43.31417" lon="-1.56268">
        <ele>60</ele>
        <time>2021-06-21T08:15:14.536Z</time>
      </trkpt>
      <trkpt lat="43.31423" lon="-1.56256">
        <ele>60</ele>
        <time>2021-06-21T08:15:15.514Z</time>
      </trkpt>
      <trkpt lat="43.31423" lon="-1.56256">
        <ele>60</ele>
        <time>2021-06-21T08:15:16.539Z</time>
      </trkpt>
      <trkpt lat="43.31429" lon="-1.56243">
        <ele>59</ele>
        <time>2021-06-21T08:15:17.518Z</time>
      </trkpt>
      <trkpt lat="43.31429" lon="-1.56243">
        <ele>59</ele>
        <time>2021-06-21T08:15:18.529Z</time>
      </trkpt>
      <trkpt lat="43.31433" lon="-1.56231">
        <ele>60</ele>
        <time>2021-06-21T08:15:19.520Z</time>
      </trkpt>
      <trkpt lat="43.31437" lon="-1.56218">
        <ele>59</ele>
        <time>2021-06-21T08:15:20.543Z</time>
      </trkpt>
      <trkpt lat="43.31437" lon="-1.56218">
        <ele>59</ele>
        <time>2021-06-21T08:15:21.509Z</time>
      </trkpt>
      <trkpt lat="43.31439" lon="-1.56211">
        <ele>59</ele>
        <time>2021-06-21T08:15:22.518Z</time>
      </trkpt>
      <trkpt lat="43.31441" lon="-1.56205">
        <ele>59</ele>
        <time>2021-06-21T08:15:23.546Z</time>
      </trkpt>
      <trkpt lat="43.31441" lon="-1.56205">
        <ele>59</ele>
        <time>2021-06-21T08:15:24.511Z</time>
      </trkpt>
      <trkpt lat="43.31444" lon="-1.56191">
        <ele>60</ele>
        <time>2021-06-21T08:15:25.531Z</time>
      </trkpt>
      <trkpt lat="43.31444" lon="-1.56191">
        <ele>60</ele>
        <time>2021-06-21T08:15:26.537Z</time>
      </trkpt>
      <trkpt lat="43.31446" lon="-1.56177">
        <ele>60</ele>
        <time>2021-06-21T08:15:27.524Z</time>
      </trkpt>
      <trkpt lat="43.31446" lon="-1.56177">
        <ele>60</ele>
        <time>2021-06-21T08:15:28.531Z</time>
      </trkpt>
      <trkpt lat="43.31449" lon="-1.56163">
        <ele>60</ele>
        <time>2021-06-21T08:15:29.509Z</time>
      </trkpt>
      <trkpt lat="43.31449" lon="-1.56163">
        <ele>60</ele>
        <time>2021-06-21T08:15:30.517Z</time>
      </trkpt>
      <trkpt lat="43.31452" lon="-1.5615">
        <ele>60</ele>
        <time>2021-06-21T08:15:31.510Z</time>
      </trkpt>
      <trkpt lat="43.31452" lon="-1.5615">
        <ele>60</ele>
        <time>2021-06-21T08:15:32.524Z</time>
      </trkpt>
      <trkpt lat="43.31455" lon="-1.56136">
        <ele>60</ele>
        <time>2021-06-21T08:15:33.518Z</time>
      </trkpt>
      <trkpt lat="43.31455" lon="-1.56136">
        <ele>60</ele>
        <time>2021-06-21T08:15:34.536Z</time>
      </trkpt>
      <trkpt lat="43.3146" lon="-1.56123">
        <ele>60</ele>
        <time>2021-06-21T08:15:35.522Z</time>
      </trkpt>
      <trkpt lat="43.31466" lon="-1.56113">
        <ele>60</ele>
        <time>2021-06-21T08:15:36.542Z</time>
      </trkpt>
      <trkpt lat="43.31466" lon="-1.56113">
        <ele>60</ele>
        <time>2021-06-21T08:15:37.530Z</time>
      </trkpt>
      <trkpt lat="43.31474" lon="-1.56106">
        <ele>61</ele>
        <time>2021-06-21T08:15:38.550Z</time>
      </trkpt>
      <trkpt lat="43.31474" lon="-1.56106">
        <ele>61</ele>
        <time>2021-06-21T08:15:39.529Z</time>
      </trkpt>
      <trkpt lat="43.31474" lon="-1.56106">
        <ele>61</ele>
        <time>2021-06-21T08:15:40.538Z</time>
      </trkpt>
      <trkpt lat="43.31483" lon="-1.56104">
        <ele>61</ele>
        <time>2021-06-21T08:15:41.527Z</time>
      </trkpt>
      <trkpt lat="43.31488" lon="-1.56104">
        <ele>61</ele>
        <time>2021-06-21T08:15:42.509Z</time>
      </trkpt>
      <trkpt lat="43.31492" lon="-1.56107">
        <ele>61</ele>
        <time>2021-06-21T08:15:43.530Z</time>
      </trkpt>
      <trkpt lat="43.31499" lon="-1.56113">
        <ele>62</ele>
        <time>2021-06-21T08:15:44.668Z</time>
      </trkpt>
      <trkpt lat="43.31499" lon="-1.56113">
        <ele>62</ele>
        <time>2021-06-21T08:15:45.535Z</time>
      </trkpt>
      <trkpt lat="43.31499" lon="-1.56113">
        <ele>62</ele>
        <time>2021-06-21T08:15:46.542Z</time>
      </trkpt>
      <trkpt lat="43.31505" lon="-1.56118">
        <ele>61</ele>
        <time>2021-06-21T08:15:47.536Z</time>
      </trkpt>
      <trkpt lat="43.31505" lon="-1.56118">
        <ele>61</ele>
        <time>2021-06-21T08:15:48.542Z</time>
      </trkpt>
      <trkpt lat="43.31512" lon="-1.56124">
        <ele>61</ele>
        <time>2021-06-21T08:15:49.522Z</time>
      </trkpt>
      <trkpt lat="43.31512" lon="-1.56124">
        <ele>61</ele>
        <time>2021-06-21T08:15:50.532Z</time>
      </trkpt>
      <trkpt lat="43.31519" lon="-1.56129">
        <ele>61</ele>
        <time>2021-06-21T08:15:51.511Z</time>
      </trkpt>
      <trkpt lat="43.31522" lon="-1.56132">
        <ele>61</ele>
        <time>2021-06-21T08:15:52.532Z</time>
      </trkpt>
      <trkpt lat="43.31522" lon="-1.56132">
        <ele>61</ele>
        <time>2021-06-21T08:15:53.542Z</time>
      </trkpt>
      <trkpt lat="43.3153" lon="-1.56137">
        <ele>60</ele>
        <time>2021-06-21T08:15:54.522Z</time>
      </trkpt>
      <trkpt lat="43.31533" lon="-1.5614">
        <ele>60</ele>
        <time>2021-06-21T08:15:55.544Z</time>
      </trkpt>
      <trkpt lat="43.31533" lon="-1.5614">
        <ele>60</ele>
        <time>2021-06-21T08:15:56.516Z</time>
      </trkpt>
      <trkpt lat="43.31541" lon="-1.56145">
        <ele>60</ele>
        <time>2021-06-21T08:15:57.512Z</time>
      </trkpt>
      <trkpt lat="43.31541" lon="-1.56145">
        <ele>60</ele>
        <time>2021-06-21T08:15:58.524Z</time>
      </trkpt>
      <trkpt lat="43.31549" lon="-1.5615">
        <ele>60</ele>
        <time>2021-06-21T08:15:59.547Z</time>
      </trkpt>
      <trkpt lat="43.31549" lon="-1.5615">
        <ele>60</ele>
        <time>2021-06-21T08:16:00.516Z</time>
      </trkpt>
      <trkpt lat="43.31558" lon="-1.56153">
        <ele>60</ele>
        <time>2021-06-21T08:16:01.515Z</time>
      </trkpt>
      <trkpt lat="43.31558" lon="-1.56153">
        <ele>60</ele>
        <time>2021-06-21T08:16:02.529Z</time>
      </trkpt>
      <trkpt lat="43.31567" lon="-1.56154">
        <ele>60</ele>
        <time>2021-06-21T08:16:03.539Z</time>
      </trkpt>
      <trkpt lat="43.31577" lon="-1.56152">
        <ele>60</ele>
        <time>2021-06-21T08:16:04.545Z</time>
      </trkpt>
      <trkpt lat="43.31577" lon="-1.56152">
        <ele>60</ele>
        <time>2021-06-21T08:16:05.532Z</time>
      </trkpt>
      <trkpt lat="43.31577" lon="-1.56152">
        <ele>60</ele>
        <time>2021-06-21T08:16:06.542Z</time>
      </trkpt>
      <trkpt lat="43.31586" lon="-1.56148">
        <ele>60</ele>
        <time>2021-06-21T08:16:07.529Z</time>
      </trkpt>
      <trkpt lat="43.31594" lon="-1.56144">
        <ele>61</ele>
        <time>2021-06-21T08:16:08.544Z</time>
      </trkpt>
      <trkpt lat="43.31594" lon="-1.56144">
        <ele>61</ele>
        <time>2021-06-21T08:16:09.531Z</time>
      </trkpt>
      <trkpt lat="43.31594" lon="-1.56144">
        <ele>61</ele>
        <time>2021-06-21T08:16:10.539Z</time>
      </trkpt>
      <trkpt lat="43.31601" lon="-1.56137">
        <ele>61</ele>
        <time>2021-06-21T08:16:11.542Z</time>
      </trkpt>
      <trkpt lat="43.31609" lon="-1.56131">
        <ele>61</ele>
        <time>2021-06-21T08:16:12.548Z</time>
      </trkpt>
      <trkpt lat="43.31609" lon="-1.56131">
        <ele>61</ele>
        <time>2021-06-21T08:16:13.523Z</time>
      </trkpt>
      <trkpt lat="43.31609" lon="-1.56131">
        <ele>61</ele>
        <time>2021-06-21T08:16:14.548Z</time>
      </trkpt>
      <trkpt lat="43.31616" lon="-1.56124">
        <ele>62</ele>
        <time>2021-06-21T08:16:15.527Z</time>
      </trkpt>
      <trkpt lat="43.31616" lon="-1.56124">
        <ele>62</ele>
        <time>2021-06-21T08:16:16.540Z</time>
      </trkpt>
      <trkpt lat="43.31623" lon="-1.56117">
        <ele>62</ele>
        <time>2021-06-21T08:16:17.519Z</time>
      </trkpt>
      <trkpt lat="43.31623" lon="-1.56117">
        <ele>62</ele>
        <time>2021-06-21T08:16:18.538Z</time>
      </trkpt>
      <trkpt lat="43.31629" lon="-1.5611">
        <ele>63</ele>
        <time>2021-06-21T08:16:19.520Z</time>
      </trkpt>
      <trkpt lat="43.31629" lon="-1.5611">
        <ele>63</ele>
        <time>2021-06-21T08:16:20.532Z</time>
      </trkpt>
      <trkpt lat="43.31636" lon="-1.56103">
        <ele>63</ele>
        <time>2021-06-21T08:16:21.534Z</time>
      </trkpt>
      <trkpt lat="43.31636" lon="-1.56103">
        <ele>63</ele>
        <time>2021-06-21T08:16:22.510Z</time>
      </trkpt>
      <trkpt lat="43.31643" lon="-1.56095">
        <ele>64</ele>
        <time>2021-06-21T08:16:23.540Z</time>
      </trkpt>
      <trkpt lat="43.31649" lon="-1.56088">
        <ele>65</ele>
        <time>2021-06-21T08:16:24.550Z</time>
      </trkpt>
      <trkpt lat="43.31649" lon="-1.56088">
        <ele>65</ele>
        <time>2021-06-21T08:16:25.541Z</time>
      </trkpt>
      <trkpt lat="43.31652" lon="-1.56084">
        <ele>65</ele>
        <time>2021-06-21T08:16:26.519Z</time>
      </trkpt>
      <trkpt lat="43.31655" lon="-1.56081">
        <ele>66</ele>
        <time>2021-06-21T08:16:27.513Z</time>
      </trkpt>
      <trkpt lat="43.31655" lon="-1.56081">
        <ele>66</ele>
        <time>2021-06-21T08:16:28.519Z</time>
      </trkpt>
      <trkpt lat="43.31661" lon="-1.56076">
        <ele>66</ele>
        <time>2021-06-21T08:16:29.511Z</time>
      </trkpt>
      <trkpt lat="43.31661" lon="-1.56076">
        <ele>66</ele>
        <time>2021-06-21T08:16:30.518Z</time>
      </trkpt>
      <trkpt lat="43.31667" lon="-1.5607">
        <ele>67</ele>
        <time>2021-06-21T08:16:31.540Z</time>
      </trkpt>
      <trkpt lat="43.31673" lon="-1.56063">
        <ele>68</ele>
        <time>2021-06-21T08:16:32.546Z</time>
      </trkpt>
      <trkpt lat="43.31673" lon="-1.56063">
        <ele>68</ele>
        <time>2021-06-21T08:16:33.513Z</time>
      </trkpt>
      <trkpt lat="43.31677" lon="-1.56059">
        <ele>68</ele>
        <time>2021-06-21T08:16:34.546Z</time>
      </trkpt>
      <trkpt lat="43.31677" lon="-1.56059">
        <ele>68</ele>
        <time>2021-06-21T08:16:35.512Z</time>
      </trkpt>
      <trkpt lat="43.31689" lon="-1.56047">
        <ele>69</ele>
        <time>2021-06-21T08:16:36.538Z</time>
      </trkpt>
      <trkpt lat="43.31689" lon="-1.56047">
        <ele>69</ele>
        <time>2021-06-21T08:16:37.544Z</time>
      </trkpt>
      <trkpt lat="43.31689" lon="-1.56047">
        <ele>69</ele>
        <time>2021-06-21T08:16:38.512Z</time>
      </trkpt>
      <trkpt lat="43.31699" lon="-1.56037">
        <ele>70</ele>
        <time>2021-06-21T08:16:39.535Z</time>
      </trkpt>
      <trkpt lat="43.31708" lon="-1.56026">
        <ele>70</ele>
        <time>2021-06-21T08:16:40.668Z</time>
      </trkpt>
      <trkpt lat="43.31708" lon="-1.56026">
        <ele>70</ele>
        <time>2021-06-21T08:16:41.529Z</time>
      </trkpt>
      <trkpt lat="43.31708" lon="-1.56026">
        <ele>70</ele>
        <time>2021-06-21T08:16:42.539Z</time>
      </trkpt>
      <trkpt lat="43.3172" lon="-1.56015">
        <ele>71</ele>
        <time>2021-06-21T08:16:43.534Z</time>
      </trkpt>
      <trkpt lat="43.31731" lon="-1.56003">
        <ele>71</ele>
        <time>2021-06-21T08:16:44.542Z</time>
      </trkpt>
      <trkpt lat="43.31731" lon="-1.56003">
        <ele>71</ele>
        <time>2021-06-21T08:16:45.542Z</time>
      </trkpt>
      <trkpt lat="43.31731" lon="-1.56003">
        <ele>71</ele>
        <time>2021-06-21T08:16:46.509Z</time>
      </trkpt>
      <trkpt lat="43.3174" lon="-1.55989">
        <ele>72</ele>
        <time>2021-06-21T08:16:47.533Z</time>
      </trkpt>
      <trkpt lat="43.3174" lon="-1.55989">
        <ele>72</ele>
        <time>2021-06-21T08:16:48.543Z</time>
      </trkpt>
      <trkpt lat="43.31747" lon="-1.55975">
        <ele>73</ele>
        <time>2021-06-21T08:16:49.521Z</time>
      </trkpt>
      <trkpt lat="43.31751" lon="-1.55958">
        <ele>73</ele>
        <time>2021-06-21T08:16:50.543Z</time>
      </trkpt>
      <trkpt lat="43.31751" lon="-1.55958">
        <ele>73</ele>
        <time>2021-06-21T08:16:51.528Z</time>
      </trkpt>
      <trkpt lat="43.31751" lon="-1.55958">
        <ele>73</ele>
        <time>2021-06-21T08:16:52.534Z</time>
      </trkpt>
      <trkpt lat="43.31754" lon="-1.55941">
        <ele>74</ele>
        <time>2021-06-21T08:16:53.519Z</time>
      </trkpt>
      <trkpt lat="43.31754" lon="-1.55941">
        <ele>74</ele>
        <time>2021-06-21T08:16:54.536Z</time>
      </trkpt>
      <trkpt lat="43.31759" lon="-1.55923">
        <ele>74</ele>
        <time>2021-06-21T08:16:55.517Z</time>
      </trkpt>
      <trkpt lat="43.31759" lon="-1.55923">
        <ele>74</ele>
        <time>2021-06-21T08:16:56.528Z</time>
      </trkpt>
      <trkpt lat="43.31767" lon="-1.55908">
        <ele>74</ele>
        <time>2021-06-21T08:16:57.541Z</time>
      </trkpt>
      <trkpt lat="43.31773" lon="-1.559">
        <ele>74</ele>
        <time>2021-06-21T08:16:58.517Z</time>
      </trkpt>
      <trkpt lat="43.31773" lon="-1.559">
        <ele>74</ele>
        <time>2021-06-21T08:16:59.534Z</time>
      </trkpt>
      <trkpt lat="43.31784" lon="-1.55885">
        <ele>74</ele>
        <time>2021-06-21T08:17:00.515Z</time>
      </trkpt>
      <trkpt lat="43.3179" lon="-1.55877">
        <ele>74</ele>
        <time>2021-06-21T08:17:01.534Z</time>
      </trkpt>
      <trkpt lat="43.3179" lon="-1.55877">
        <ele>74</ele>
        <time>2021-06-21T08:17:02.510Z</time>
      </trkpt>
      <trkpt lat="43.31801" lon="-1.5586">
        <ele>74</ele>
        <time>2021-06-21T08:17:03.538Z</time>
      </trkpt>
      <trkpt lat="43.31812" lon="-1.5584">
        <ele>73</ele>
        <time>2021-06-21T08:17:04.544Z</time>
      </trkpt>
      <trkpt lat="43.31812" lon="-1.5584">
        <ele>73</ele>
        <time>2021-06-21T08:17:05.521Z</time>
      </trkpt>
      <trkpt lat="43.31812" lon="-1.5584">
        <ele>73</ele>
        <time>2021-06-21T08:17:06.661Z</time>
      </trkpt>
      <trkpt lat="43.31823" lon="-1.5582">
        <ele>73</ele>
        <time>2021-06-21T08:17:07.528Z</time>
      </trkpt>
      <trkpt lat="43.31834" lon="-1.558">
        <ele>73</ele>
        <time>2021-06-21T08:17:08.546Z</time>
      </trkpt>
      <trkpt lat="43.31834" lon="-1.558">
        <ele>73</ele>
        <time>2021-06-21T08:17:09.528Z</time>
      </trkpt>
      <trkpt lat="43.31834" lon="-1.558">
        <ele>73</ele>
        <time>2021-06-21T08:17:10.541Z</time>
      </trkpt>
      <trkpt lat="43.31846" lon="-1.55781">
        <ele>73</ele>
        <time>2021-06-21T08:17:11.520Z</time>
      </trkpt>
      <trkpt lat="43.31846" lon="-1.55781">
        <ele>73</ele>
        <time>2021-06-21T08:17:12.535Z</time>
      </trkpt>
      <trkpt lat="43.31857" lon="-1.55763">
        <ele>73</ele>
        <time>2021-06-21T08:17:13.512Z</time>
      </trkpt>
      <trkpt lat="43.31857" lon="-1.55763">
        <ele>73</ele>
        <time>2021-06-21T08:17:14.519Z</time>
      </trkpt>
      <trkpt lat="43.31869" lon="-1.55746">
        <ele>72</ele>
        <time>2021-06-21T08:17:15.510Z</time>
      </trkpt>
      <trkpt lat="43.31869" lon="-1.55746">
        <ele>72</ele>
        <time>2021-06-21T08:17:16.516Z</time>
      </trkpt>
      <trkpt lat="43.31882" lon="-1.55729">
        <ele>70</ele>
        <time>2021-06-21T08:17:17.536Z</time>
      </trkpt>
      <trkpt lat="43.31882" lon="-1.55729">
        <ele>70</ele>
        <time>2021-06-21T08:17:18.542Z</time>
      </trkpt>
      <trkpt lat="43.31894" lon="-1.5571">
        <ele>68</ele>
        <time>2021-06-21T08:17:19.521Z</time>
      </trkpt>
      <trkpt lat="43.31894" lon="-1.5571">
        <ele>68</ele>
        <time>2021-06-21T08:17:20.533Z</time>
      </trkpt>
      <trkpt lat="43.31908" lon="-1.55691">
        <ele>66</ele>
        <time>2021-06-21T08:17:21.529Z</time>
      </trkpt>
      <trkpt lat="43.31914" lon="-1.55682">
        <ele>65</ele>
        <time>2021-06-21T08:17:22.526Z</time>
      </trkpt>
      <trkpt lat="43.31927" lon="-1.55662">
        <ele>63</ele>
        <time>2021-06-21T08:17:23.546Z</time>
      </trkpt>
      <trkpt lat="43.31927" lon="-1.55662">
        <ele>63</ele>
        <time>2021-06-21T08:17:24.522Z</time>
      </trkpt>
      <trkpt lat="43.31932" lon="-1.55651">
        <ele>63</ele>
        <time>2021-06-21T08:17:25.521Z</time>
      </trkpt>
      <trkpt lat="43.31932" lon="-1.55651">
        <ele>63</ele>
        <time>2021-06-21T08:17:26.541Z</time>
      </trkpt>
      <trkpt lat="43.3194" lon="-1.55629">
        <ele>62</ele>
        <time>2021-06-21T08:17:27.532Z</time>
      </trkpt>
      <trkpt lat="43.3194" lon="-1.55629">
        <ele>62</ele>
        <time>2021-06-21T08:17:28.537Z</time>
      </trkpt>
      <trkpt lat="43.31946" lon="-1.55608">
        <ele>61</ele>
        <time>2021-06-21T08:17:29.509Z</time>
      </trkpt>
      <trkpt lat="43.31949" lon="-1.55597">
        <ele>60</ele>
        <time>2021-06-21T08:17:30.533Z</time>
      </trkpt>
      <trkpt lat="43.31952" lon="-1.55586">
        <ele>60</ele>
        <time>2021-06-21T08:17:31.510Z</time>
      </trkpt>
      <trkpt lat="43.31952" lon="-1.55586">
        <ele>60</ele>
        <time>2021-06-21T08:17:32.517Z</time>
      </trkpt>
      <trkpt lat="43.31957" lon="-1.55565">
        <ele>58</ele>
        <time>2021-06-21T08:17:33.514Z</time>
      </trkpt>
      <trkpt lat="43.3196" lon="-1.55554">
        <ele>58</ele>
        <time>2021-06-21T08:17:34.531Z</time>
      </trkpt>
      <trkpt lat="43.3196" lon="-1.55554">
        <ele>58</ele>
        <time>2021-06-21T08:17:35.538Z</time>
      </trkpt>
      <trkpt lat="43.31965" lon="-1.55531">
        <ele>56</ele>
        <time>2021-06-21T08:17:36.517Z</time>
      </trkpt>
      <trkpt lat="43.31968" lon="-1.55519">
        <ele>56</ele>
        <time>2021-06-21T08:17:37.536Z</time>
      </trkpt>
      <trkpt lat="43.31968" lon="-1.55519">
        <ele>56</ele>
        <time>2021-06-21T08:17:38.514Z</time>
      </trkpt>
      <trkpt lat="43.31973" lon="-1.55496">
        <ele>56</ele>
        <time>2021-06-21T08:17:39.531Z</time>
      </trkpt>
      <trkpt lat="43.31973" lon="-1.55496">
        <ele>56</ele>
        <time>2021-06-21T08:17:40.537Z</time>
      </trkpt>
      <trkpt lat="43.31977" lon="-1.55473">
        <ele>55</ele>
        <time>2021-06-21T08:17:41.522Z</time>
      </trkpt>
      <trkpt lat="43.3198" lon="-1.55462">
        <ele>55</ele>
        <time>2021-06-21T08:17:42.522Z</time>
      </trkpt>
      <trkpt lat="43.31982" lon="-1.55451">
        <ele>55</ele>
        <time>2021-06-21T08:17:43.509Z</time>
      </trkpt>
      <trkpt lat="43.31982" lon="-1.55451">
        <ele>55</ele>
        <time>2021-06-21T08:17:44.515Z</time>
      </trkpt>
      <trkpt lat="43.31987" lon="-1.55429">
        <ele>54</ele>
        <time>2021-06-21T08:17:45.544Z</time>
      </trkpt>
      <trkpt lat="43.31987" lon="-1.55429">
        <ele>54</ele>
        <time>2021-06-21T08:17:46.510Z</time>
      </trkpt>
      <trkpt lat="43.31994" lon="-1.55407">
        <ele>53</ele>
        <time>2021-06-21T08:17:47.537Z</time>
      </trkpt>
      <trkpt lat="43.32004" lon="-1.55388">
        <ele>52</ele>
        <time>2021-06-21T08:17:48.544Z</time>
      </trkpt>
      <trkpt lat="43.32004" lon="-1.55388">
        <ele>52</ele>
        <time>2021-06-21T08:17:49.519Z</time>
      </trkpt>
      <trkpt lat="43.32004" lon="-1.55388">
        <ele>52</ele>
        <time>2021-06-21T08:17:50.530Z</time>
      </trkpt>
      <trkpt lat="43.32018" lon="-1.55374">
        <ele>51</ele>
        <time>2021-06-21T08:17:51.546Z</time>
      </trkpt>
      <trkpt lat="43.32018" lon="-1.55374">
        <ele>51</ele>
        <time>2021-06-21T08:17:52.512Z</time>
      </trkpt>
      <trkpt lat="43.32033" lon="-1.55363">
        <ele>51</ele>
        <time>2021-06-21T08:17:53.536Z</time>
      </trkpt>
      <trkpt lat="43.32033" lon="-1.55363">
        <ele>51</ele>
        <time>2021-06-21T08:17:54.543Z</time>
      </trkpt>
      <trkpt lat="43.32048" lon="-1.55351">
        <ele>50</ele>
        <time>2021-06-21T08:17:55.522Z</time>
      </trkpt>
      <trkpt lat="43.32048" lon="-1.55351">
        <ele>50</ele>
        <time>2021-06-21T08:17:56.537Z</time>
      </trkpt>
      <trkpt lat="43.32062" lon="-1.55337">
        <ele>50</ele>
        <time>2021-06-21T08:17:57.534Z</time>
      </trkpt>
      <trkpt lat="43.32062" lon="-1.55337">
        <ele>50</ele>
        <time>2021-06-21T08:17:58.541Z</time>
      </trkpt>
      <trkpt lat="43.32071" lon="-1.55315">
        <ele>50</ele>
        <time>2021-06-21T08:17:59.532Z</time>
      </trkpt>
      <trkpt lat="43.32071" lon="-1.55315">
        <ele>50</ele>
        <time>2021-06-21T08:18:00.679Z</time>
      </trkpt>
      <trkpt lat="43.32083" lon="-1.55285">
        <ele>49</ele>
        <time>2021-06-21T08:18:01.547Z</time>
      </trkpt>
      <trkpt lat="43.32083" lon="-1.55285">
        <ele>49</ele>
        <time>2021-06-21T08:18:02.529Z</time>
      </trkpt>
      <trkpt lat="43.32086" lon="-1.55274">
        <ele>49</ele>
        <time>2021-06-21T08:18:03.509Z</time>
      </trkpt>
      <trkpt lat="43.32086" lon="-1.55274">
        <ele>49</ele>
        <time>2021-06-21T08:18:04.515Z</time>
      </trkpt>
      <trkpt lat="43.32092" lon="-1.55255">
        <ele>49</ele>
        <time>2021-06-21T08:18:05.532Z</time>
      </trkpt>
      <trkpt lat="43.32097" lon="-1.55236">
        <ele>49</ele>
        <time>2021-06-21T08:18:06.544Z</time>
      </trkpt>
      <trkpt lat="43.32097" lon="-1.55236">
        <ele>49</ele>
        <time>2021-06-21T08:18:07.509Z</time>
      </trkpt>
      <trkpt lat="43.32097" lon="-1.55236">
        <ele>49</ele>
        <time>2021-06-21T08:18:08.515Z</time>
      </trkpt>
      <trkpt lat="43.32101" lon="-1.55218">
        <ele>49</ele>
        <time>2021-06-21T08:18:09.532Z</time>
      </trkpt>
      <trkpt lat="43.32101" lon="-1.55218">
        <ele>49</ele>
        <time>2021-06-21T08:18:10.538Z</time>
      </trkpt>
      <trkpt lat="43.32105" lon="-1.552">
        <ele>49</ele>
        <time>2021-06-21T08:18:11.524Z</time>
      </trkpt>
      <trkpt lat="43.32105" lon="-1.552">
        <ele>49</ele>
        <time>2021-06-21T08:18:12.534Z</time>
      </trkpt>
      <trkpt lat="43.32109" lon="-1.55183">
        <ele>49</ele>
        <time>2021-06-21T08:18:13.512Z</time>
      </trkpt>
      <trkpt lat="43.32109" lon="-1.55183">
        <ele>49</ele>
        <time>2021-06-21T08:18:14.519Z</time>
      </trkpt>
      <trkpt lat="43.32113" lon="-1.55166">
        <ele>50</ele>
        <time>2021-06-21T08:18:15.535Z</time>
      </trkpt>
      <trkpt lat="43.32113" lon="-1.55166">
        <ele>50</ele>
        <time>2021-06-21T08:18:16.542Z</time>
      </trkpt>
      <trkpt lat="43.32117" lon="-1.5515">
        <ele>50</ele>
        <time>2021-06-21T08:18:17.542Z</time>
      </trkpt>
      <trkpt lat="43.32119" lon="-1.55142">
        <ele>50</ele>
        <time>2021-06-21T08:18:18.545Z</time>
      </trkpt>
      <trkpt lat="43.32119" lon="-1.55142">
        <ele>50</ele>
        <time>2021-06-21T08:18:19.511Z</time>
      </trkpt>
      <trkpt lat="43.32122" lon="-1.55127">
        <ele>50</ele>
        <time>2021-06-21T08:18:20.532Z</time>
      </trkpt>
      <trkpt lat="43.32122" lon="-1.55127">
        <ele>50</ele>
        <time>2021-06-21T08:18:21.539Z</time>
      </trkpt>
      <trkpt lat="43.32126" lon="-1.55109">
        <ele>50</ele>
        <time>2021-06-21T08:18:22.536Z</time>
      </trkpt>
      <trkpt lat="43.32126" lon="-1.55109">
        <ele>50</ele>
        <time>2021-06-21T08:18:23.532Z</time>
      </trkpt>
      <trkpt lat="43.32126" lon="-1.55109">
        <ele>50</ele>
        <time>2021-06-21T08:18:24.539Z</time>
      </trkpt>
      <trkpt lat="43.32128" lon="-1.55097">
        <ele>50</ele>
        <time>2021-06-21T08:18:25.531Z</time>
      </trkpt>
      <trkpt lat="43.32128" lon="-1.55097">
        <ele>50</ele>
        <time>2021-06-21T08:18:26.538Z</time>
      </trkpt>
      <trkpt lat="43.32131" lon="-1.55086">
        <ele>50</ele>
        <time>2021-06-21T08:18:27.531Z</time>
      </trkpt>
      <trkpt lat="43.32133" lon="-1.55079">
        <ele>50</ele>
        <time>2021-06-21T08:18:28.538Z</time>
      </trkpt>
      <trkpt lat="43.32133" lon="-1.55079">
        <ele>50</ele>
        <time>2021-06-21T08:18:29.545Z</time>
      </trkpt>
      <trkpt lat="43.32133" lon="-1.55079">
        <ele>50</ele>
        <time>2021-06-21T08:18:30.512Z</time>
      </trkpt>
      <trkpt lat="43.32134" lon="-1.55073">
        <ele>50</ele>
        <time>2021-06-21T08:18:31.547Z</time>
      </trkpt>
      <trkpt lat="43.32134" lon="-1.55073">
        <ele>50</ele>
        <time>2021-06-21T08:18:32.512Z</time>
      </trkpt>
      <trkpt lat="43.32133" lon="-1.55072">
        <ele>50</ele>
        <time>2021-06-21T08:18:33.530Z</time>
      </trkpt>
      <trkpt lat="43.32134" lon="-1.55072">
        <ele>50</ele>
        <time>2021-06-21T08:18:34.513Z</time>
      </trkpt>
      <trkpt lat="43.32134" lon="-1.55072">
        <ele>50</ele>
        <time>2021-06-21T08:18:35.519Z</time>
      </trkpt>
      <trkpt lat="43.32134" lon="-1.55072">
        <ele>50</ele>
        <time>2021-06-21T08:18:36.525Z</time>
      </trkpt>
      <trkpt lat="43.32134" lon="-1.55072">
        <ele>50</ele>
        <time>2021-06-21T08:18:37.531Z</time>
      </trkpt>
      <trkpt lat="43.32134" lon="-1.55072">
        <ele>50</ele>
        <time>2021-06-21T08:18:38.509Z</time>
      </trkpt>
      <trkpt lat="43.32135" lon="-1.55064">
        <ele>50</ele>
        <time>2021-06-21T08:18:39.514Z</time>
      </trkpt>
      <trkpt lat="43.32135" lon="-1.55061">
        <ele>50</ele>
        <time>2021-06-21T08:18:40.537Z</time>
      </trkpt>
      <trkpt lat="43.32135" lon="-1.55061">
        <ele>50</ele>
        <time>2021-06-21T08:18:41.517Z</time>
      </trkpt>
      <trkpt lat="43.32134" lon="-1.55053">
        <ele>50</ele>
        <time>2021-06-21T08:18:42.544Z</time>
      </trkpt>
      <trkpt lat="43.32133" lon="-1.55048">
        <ele>50</ele>
        <time>2021-06-21T08:18:43.538Z</time>
      </trkpt>
      <trkpt lat="43.32133" lon="-1.55048">
        <ele>50</ele>
        <time>2021-06-21T08:18:44.542Z</time>
      </trkpt>
      <trkpt lat="43.32134" lon="-1.55037">
        <ele>50</ele>
        <time>2021-06-21T08:18:45.530Z</time>
      </trkpt>
      <trkpt lat="43.32134" lon="-1.55037">
        <ele>50</ele>
        <time>2021-06-21T08:18:46.541Z</time>
      </trkpt>
      <trkpt lat="43.32137" lon="-1.55025">
        <ele>50</ele>
        <time>2021-06-21T08:18:47.518Z</time>
      </trkpt>
      <trkpt lat="43.32137" lon="-1.55025">
        <ele>50</ele>
        <time>2021-06-21T08:18:48.537Z</time>
      </trkpt>
      <trkpt lat="43.32136" lon="-1.55014">
        <ele>50</ele>
        <time>2021-06-21T08:18:49.531Z</time>
      </trkpt>
      <trkpt lat="43.32136" lon="-1.55014">
        <ele>50</ele>
        <time>2021-06-21T08:18:50.539Z</time>
      </trkpt>
      <trkpt lat="43.32135" lon="-1.55004">
        <ele>50</ele>
        <time>2021-06-21T08:18:51.538Z</time>
      </trkpt>
      <trkpt lat="43.32135" lon="-1.55004">
        <ele>50</ele>
        <time>2021-06-21T08:18:52.544Z</time>
      </trkpt>
      <trkpt lat="43.32134" lon="-1.54993">
        <ele>50</ele>
        <time>2021-06-21T08:18:53.541Z</time>
      </trkpt>
      <trkpt lat="43.32132" lon="-1.54983">
        <ele>50</ele>
        <time>2021-06-21T08:18:54.547Z</time>
      </trkpt>
      <trkpt lat="43.32132" lon="-1.54983">
        <ele>50</ele>
        <time>2021-06-21T08:18:55.540Z</time>
      </trkpt>
      <trkpt lat="43.32132" lon="-1.54983">
        <ele>50</ele>
        <time>2021-06-21T08:18:56.518Z</time>
      </trkpt>
      <trkpt lat="43.32131" lon="-1.54972">
        <ele>50</ele>
        <time>2021-06-21T08:18:57.549Z</time>
      </trkpt>
      <trkpt lat="43.32131" lon="-1.54972">
        <ele>50</ele>
        <time>2021-06-21T08:18:58.514Z</time>
      </trkpt>
      <trkpt lat="43.3213" lon="-1.54961">
        <ele>50</ele>
        <time>2021-06-21T08:18:59.530Z</time>
      </trkpt>
      <trkpt lat="43.3213" lon="-1.54961">
        <ele>50</ele>
        <time>2021-06-21T08:19:00.543Z</time>
      </trkpt>
      <trkpt lat="43.32128" lon="-1.54949">
        <ele>50</ele>
        <time>2021-06-21T08:19:01.514Z</time>
      </trkpt>
      <trkpt lat="43.32128" lon="-1.54949">
        <ele>50</ele>
        <time>2021-06-21T08:19:02.519Z</time>
      </trkpt>
      <trkpt lat="43.32126" lon="-1.54936">
        <ele>50</ele>
        <time>2021-06-21T08:19:03.522Z</time>
      </trkpt>
      <trkpt lat="43.32124" lon="-1.5493">
        <ele>50</ele>
        <time>2021-06-21T08:19:04.537Z</time>
      </trkpt>
      <trkpt lat="43.32119" lon="-1.54918">
        <ele>50</ele>
        <time>2021-06-21T08:19:05.544Z</time>
      </trkpt>
      <trkpt lat="43.32119" lon="-1.54918">
        <ele>50</ele>
        <time>2021-06-21T08:19:06.516Z</time>
      </trkpt>
      <trkpt lat="43.32116" lon="-1.54912">
        <ele>50</ele>
        <time>2021-06-21T08:19:07.534Z</time>
      </trkpt>
      <trkpt lat="43.32116" lon="-1.54912">
        <ele>50</ele>
        <time>2021-06-21T08:19:08.511Z</time>
      </trkpt>
      <trkpt lat="43.32109" lon="-1.54902">
        <ele>50</ele>
        <time>2021-06-21T08:19:09.524Z</time>
      </trkpt>
      <trkpt lat="43.32109" lon="-1.54902">
        <ele>50</ele>
        <time>2021-06-21T08:19:10.543Z</time>
      </trkpt>
      <trkpt lat="43.32102" lon="-1.54892">
        <ele>50</ele>
        <time>2021-06-21T08:19:11.526Z</time>
      </trkpt>
      <trkpt lat="43.32102" lon="-1.54892">
        <ele>50</ele>
        <time>2021-06-21T08:19:12.537Z</time>
      </trkpt>
      <trkpt lat="43.32095" lon="-1.54884">
        <ele>50</ele>
        <time>2021-06-21T08:19:13.547Z</time>
      </trkpt>
      <trkpt lat="43.32095" lon="-1.54884">
        <ele>50</ele>
        <time>2021-06-21T08:19:14.515Z</time>
      </trkpt>
      <trkpt lat="43.32088" lon="-1.54875">
        <ele>51</ele>
        <time>2021-06-21T08:19:15.541Z</time>
      </trkpt>
      <trkpt lat="43.32081" lon="-1.54868">
        <ele>50</ele>
        <time>2021-06-21T08:19:16.547Z</time>
      </trkpt>
      <trkpt lat="43.32081" lon="-1.54868">
        <ele>50</ele>
        <time>2021-06-21T08:19:17.542Z</time>
      </trkpt>
      <trkpt lat="43.32075" lon="-1.54859">
        <ele>50</ele>
        <time>2021-06-21T08:19:18.549Z</time>
      </trkpt>
      <trkpt lat="43.32075" lon="-1.54859">
        <ele>50</ele>
        <time>2021-06-21T08:19:19.537Z</time>
      </trkpt>
      <trkpt lat="43.32075" lon="-1.54859">
        <ele>50</ele>
        <time>2021-06-21T08:19:20.542Z</time>
      </trkpt>
      <trkpt lat="43.32068" lon="-1.54851">
        <ele>51</ele>
        <time>2021-06-21T08:19:21.531Z</time>
      </trkpt>
      <trkpt lat="43.32068" lon="-1.54851">
        <ele>51</ele>
        <time>2021-06-21T08:19:22.509Z</time>
      </trkpt>
      <trkpt lat="43.32061" lon="-1.54841">
        <ele>51</ele>
        <time>2021-06-21T08:19:23.533Z</time>
      </trkpt>
      <trkpt lat="43.32061" lon="-1.54841">
        <ele>51</ele>
        <time>2021-06-21T08:19:24.538Z</time>
      </trkpt>
      <trkpt lat="43.32055" lon="-1.54833">
        <ele>50</ele>
        <time>2021-06-21T08:19:25.518Z</time>
      </trkpt>
      <trkpt lat="43.32055" lon="-1.54833">
        <ele>50</ele>
        <time>2021-06-21T08:19:26.544Z</time>
      </trkpt>
      <trkpt lat="43.32047" lon="-1.54824">
        <ele>51</ele>
        <time>2021-06-21T08:19:27.545Z</time>
      </trkpt>
      <trkpt lat="43.32047" lon="-1.54824">
        <ele>51</ele>
        <time>2021-06-21T08:19:28.511Z</time>
      </trkpt>
      <trkpt lat="43.3204" lon="-1.54815">
        <ele>51</ele>
        <time>2021-06-21T08:19:29.532Z</time>
      </trkpt>
      <trkpt lat="43.3204" lon="-1.54815">
        <ele>51</ele>
        <time>2021-06-21T08:19:30.540Z</time>
      </trkpt>
      <trkpt lat="43.32033" lon="-1.54807">
        <ele>49</ele>
        <time>2021-06-21T08:19:31.521Z</time>
      </trkpt>
      <trkpt lat="43.32033" lon="-1.54807">
        <ele>49</ele>
        <time>2021-06-21T08:19:32.525Z</time>
      </trkpt>
      <trkpt lat="43.32026" lon="-1.54799">
        <ele>48</ele>
        <time>2021-06-21T08:19:33.515Z</time>
      </trkpt>
      <trkpt lat="43.32023" lon="-1.54794">
        <ele>48</ele>
        <time>2021-06-21T08:19:34.524Z</time>
      </trkpt>
      <trkpt lat="43.32023" lon="-1.54794">
        <ele>48</ele>
        <time>2021-06-21T08:19:35.539Z</time>
      </trkpt>
      <trkpt lat="43.32017" lon="-1.54785">
        <ele>47</ele>
        <time>2021-06-21T08:19:36.531Z</time>
      </trkpt>
      <trkpt lat="43.32017" lon="-1.54785">
        <ele>47</ele>
        <time>2021-06-21T08:19:37.543Z</time>
      </trkpt>
      <trkpt lat="43.32011" lon="-1.54778">
        <ele>46</ele>
        <time>2021-06-21T08:19:38.531Z</time>
      </trkpt>
      <trkpt lat="43.32011" lon="-1.54778">
        <ele>46</ele>
        <time>2021-06-21T08:19:39.541Z</time>
      </trkpt>
      <trkpt lat="43.32005" lon="-1.54771">
        <ele>45</ele>
        <time>2021-06-21T08:19:40.535Z</time>
      </trkpt>
      <trkpt lat="43.32002" lon="-1.54767">
        <ele>45</ele>
        <time>2021-06-21T08:19:41.510Z</time>
      </trkpt>
      <trkpt lat="43.32002" lon="-1.54767">
        <ele>45</ele>
        <time>2021-06-21T08:19:42.516Z</time>
      </trkpt>
      <trkpt lat="43.31995" lon="-1.54759">
        <ele>45</ele>
        <time>2021-06-21T08:19:43.510Z</time>
      </trkpt>
      <trkpt lat="43.31995" lon="-1.54759">
        <ele>45</ele>
        <time>2021-06-21T08:19:44.515Z</time>
      </trkpt>
      <trkpt lat="43.31989" lon="-1.5475">
        <ele>44</ele>
        <time>2021-06-21T08:19:45.537Z</time>
      </trkpt>
      <trkpt lat="43.31982" lon="-1.54741">
        <ele>44</ele>
        <time>2021-06-21T08:19:46.563Z</time>
      </trkpt>
      <trkpt lat="43.31982" lon="-1.54741">
        <ele>44</ele>
        <time>2021-06-21T08:19:47.515Z</time>
      </trkpt>
      <trkpt lat="43.31978" lon="-1.54736">
        <ele>44</ele>
        <time>2021-06-21T08:19:48.533Z</time>
      </trkpt>
      <trkpt lat="43.31975" lon="-1.54732">
        <ele>44</ele>
        <time>2021-06-21T08:19:49.547Z</time>
      </trkpt>
      <trkpt lat="43.31975" lon="-1.54732">
        <ele>44</ele>
        <time>2021-06-21T08:19:50.512Z</time>
      </trkpt>
      <trkpt lat="43.31968" lon="-1.54723">
        <ele>44</ele>
        <time>2021-06-21T08:19:51.535Z</time>
      </trkpt>
      <trkpt lat="43.31961" lon="-1.54714">
        <ele>43</ele>
        <time>2021-06-21T08:19:52.586Z</time>
      </trkpt>
      <trkpt lat="43.31961" lon="-1.54714">
        <ele>43</ele>
        <time>2021-06-21T08:19:53.524Z</time>
      </trkpt>
      <trkpt lat="43.31958" lon="-1.5471">
        <ele>43</ele>
        <time>2021-06-21T08:19:54.515Z</time>
      </trkpt>
      <trkpt lat="43.31958" lon="-1.5471">
        <ele>43</ele>
        <time>2021-06-21T08:19:55.520Z</time>
      </trkpt>
      <trkpt lat="43.31951" lon="-1.54701">
        <ele>43</ele>
        <time>2021-06-21T08:19:56.511Z</time>
      </trkpt>
      <trkpt lat="43.31947" lon="-1.54697">
        <ele>43</ele>
        <time>2021-06-21T08:19:57.529Z</time>
      </trkpt>
      <trkpt lat="43.31947" lon="-1.54697">
        <ele>43</ele>
        <time>2021-06-21T08:19:58.543Z</time>
      </trkpt>
      <trkpt lat="43.3194" lon="-1.54688">
        <ele>43</ele>
        <time>2021-06-21T08:19:59.522Z</time>
      </trkpt>
      <trkpt lat="43.3194" lon="-1.54688">
        <ele>43</ele>
        <time>2021-06-21T08:20:00.534Z</time>
      </trkpt>
      <trkpt lat="43.31933" lon="-1.54678">
        <ele>42</ele>
        <time>2021-06-21T08:20:01.520Z</time>
      </trkpt>
      <trkpt lat="43.31933" lon="-1.54678">
        <ele>42</ele>
        <time>2021-06-21T08:20:02.532Z</time>
      </trkpt>
      <trkpt lat="43.31926" lon="-1.54668">
        <ele>42</ele>
        <time>2021-06-21T08:20:03.512Z</time>
      </trkpt>
      <trkpt lat="43.31926" lon="-1.54668">
        <ele>42</ele>
        <time>2021-06-21T08:20:04.518Z</time>
      </trkpt>
      <trkpt lat="43.31919" lon="-1.54658">
        <ele>41</ele>
        <time>2021-06-21T08:20:05.513Z</time>
      </trkpt>
      <trkpt lat="43.31919" lon="-1.54658">
        <ele>41</ele>
        <time>2021-06-21T08:20:06.520Z</time>
      </trkpt>
      <trkpt lat="43.31913" lon="-1.54648">
        <ele>40</ele>
        <time>2021-06-21T08:20:07.534Z</time>
      </trkpt>
      <trkpt lat="43.31913" lon="-1.54648">
        <ele>40</ele>
        <time>2021-06-21T08:20:08.543Z</time>
      </trkpt>
      <trkpt lat="43.31907" lon="-1.54637">
        <ele>40</ele>
        <time>2021-06-21T08:20:09.532Z</time>
      </trkpt>
      <trkpt lat="43.31905" lon="-1.54631">
        <ele>40</ele>
        <time>2021-06-21T08:20:10.522Z</time>
      </trkpt>
      <trkpt lat="43.31905" lon="-1.54631">
        <ele>40</ele>
        <time>2021-06-21T08:20:11.532Z</time>
      </trkpt>
      <trkpt lat="43.31899" lon="-1.5462">
        <ele>39</ele>
        <time>2021-06-21T08:20:12.519Z</time>
      </trkpt>
      <trkpt lat="43.31897" lon="-1.54614">
        <ele>39</ele>
        <time>2021-06-21T08:20:13.543Z</time>
      </trkpt>
      <trkpt lat="43.31897" lon="-1.54614">
        <ele>39</ele>
        <time>2021-06-21T08:20:14.512Z</time>
      </trkpt>
      <trkpt lat="43.31892" lon="-1.54602">
        <ele>39</ele>
        <time>2021-06-21T08:20:15.533Z</time>
      </trkpt>
      <trkpt lat="43.31892" lon="-1.54602">
        <ele>39</ele>
        <time>2021-06-21T08:20:16.539Z</time>
      </trkpt>
      <trkpt lat="43.31888" lon="-1.54589">
        <ele>38</ele>
        <time>2021-06-21T08:20:17.518Z</time>
      </trkpt>
      <trkpt lat="43.31888" lon="-1.54589">
        <ele>38</ele>
        <time>2021-06-21T08:20:18.527Z</time>
      </trkpt>
      <trkpt lat="43.31884" lon="-1.54577">
        <ele>38</ele>
        <time>2021-06-21T08:20:19.544Z</time>
      </trkpt>
      <trkpt lat="43.31884" lon="-1.54577">
        <ele>38</ele>
        <time>2021-06-21T08:20:20.510Z</time>
      </trkpt>
      <trkpt lat="43.31881" lon="-1.54564">
        <ele>38</ele>
        <time>2021-06-21T08:20:21.525Z</time>
      </trkpt>
      <trkpt lat="43.3188" lon="-1.54557">
        <ele>38</ele>
        <time>2021-06-21T08:20:22.523Z</time>
      </trkpt>
      <trkpt lat="43.3188" lon="-1.54557">
        <ele>38</ele>
        <time>2021-06-21T08:20:23.515Z</time>
      </trkpt>
      <trkpt lat="43.31877" lon="-1.54543">
        <ele>38</ele>
        <time>2021-06-21T08:20:24.535Z</time>
      </trkpt>
      <trkpt lat="43.31876" lon="-1.54536">
        <ele>38</ele>
        <time>2021-06-21T08:20:25.514Z</time>
      </trkpt>
      <trkpt lat="43.31876" lon="-1.54536">
        <ele>38</ele>
        <time>2021-06-21T08:20:26.521Z</time>
      </trkpt>
      <trkpt lat="43.31874" lon="-1.54522">
        <ele>37</ele>
        <time>2021-06-21T08:20:27.544Z</time>
      </trkpt>
      <trkpt lat="43.31874" lon="-1.54522">
        <ele>37</ele>
        <time>2021-06-21T08:20:28.510Z</time>
      </trkpt>
      <trkpt lat="43.31872" lon="-1.54507">
        <ele>37</ele>
        <time>2021-06-21T08:20:29.523Z</time>
      </trkpt>
      <trkpt lat="43.31872" lon="-1.54501">
        <ele>38</ele>
        <time>2021-06-21T08:20:30.519Z</time>
      </trkpt>
      <trkpt lat="43.31872" lon="-1.54494">
        <ele>38</ele>
        <time>2021-06-21T08:20:31.538Z</time>
      </trkpt>
      <trkpt lat="43.31872" lon="-1.54494">
        <ele>38</ele>
        <time>2021-06-21T08:20:32.544Z</time>
      </trkpt>
      <trkpt lat="43.31872" lon="-1.5448">
        <ele>38</ele>
        <time>2021-06-21T08:20:33.532Z</time>
      </trkpt>
      <trkpt lat="43.31872" lon="-1.5448">
        <ele>38</ele>
        <time>2021-06-21T08:20:34.542Z</time>
      </trkpt>
      <trkpt lat="43.31872" lon="-1.54467">
        <ele>38</ele>
        <time>2021-06-21T08:20:35.532Z</time>
      </trkpt>
      <trkpt lat="43.31872" lon="-1.54467">
        <ele>38</ele>
        <time>2021-06-21T08:20:36.547Z</time>
      </trkpt>
      <trkpt lat="43.31874" lon="-1.54453">
        <ele>38</ele>
        <time>2021-06-21T08:20:37.512Z</time>
      </trkpt>
      <trkpt lat="43.31874" lon="-1.54453">
        <ele>38</ele>
        <time>2021-06-21T08:20:38.518Z</time>
      </trkpt>
      <trkpt lat="43.31875" lon="-1.54439">
        <ele>38</ele>
        <time>2021-06-21T08:20:39.546Z</time>
      </trkpt>
      <trkpt lat="43.31875" lon="-1.54439">
        <ele>38</ele>
        <time>2021-06-21T08:20:40.511Z</time>
      </trkpt>
      <trkpt lat="43.31878" lon="-1.5442">
        <ele>38</ele>
        <time>2021-06-21T08:20:41.538Z</time>
      </trkpt>
      <trkpt lat="43.3188" lon="-1.54414">
        <ele>38</ele>
        <time>2021-06-21T08:20:42.547Z</time>
      </trkpt>
      <trkpt lat="43.3188" lon="-1.54414">
        <ele>38</ele>
        <time>2021-06-21T08:20:43.543Z</time>
      </trkpt>
      <trkpt lat="43.3188" lon="-1.54414">
        <ele>38</ele>
        <time>2021-06-21T08:20:44.520Z</time>
      </trkpt>
      <trkpt lat="43.31883" lon="-1.54401">
        <ele>39</ele>
        <time>2021-06-21T08:20:45.543Z</time>
      </trkpt>
      <trkpt lat="43.31886" lon="-1.54388">
        <ele>39</ele>
        <time>2021-06-21T08:20:46.548Z</time>
      </trkpt>
      <trkpt lat="43.31886" lon="-1.54388">
        <ele>39</ele>
        <time>2021-06-21T08:20:47.532Z</time>
      </trkpt>
      <trkpt lat="43.31886" lon="-1.54388">
        <ele>39</ele>
        <time>2021-06-21T08:20:48.538Z</time>
      </trkpt>
      <trkpt lat="43.31889" lon="-1.54376">
        <ele>39</ele>
        <time>2021-06-21T08:20:49.520Z</time>
      </trkpt>
      <trkpt lat="43.31889" lon="-1.54376">
        <ele>39</ele>
        <time>2021-06-21T08:20:50.533Z</time>
      </trkpt>
      <trkpt lat="43.31893" lon="-1.54363">
        <ele>39</ele>
        <time>2021-06-21T08:20:51.509Z</time>
      </trkpt>
      <trkpt lat="43.31894" lon="-1.54357">
        <ele>39</ele>
        <time>2021-06-21T08:20:52.515Z</time>
      </trkpt>
      <trkpt lat="43.31894" lon="-1.54357">
        <ele>39</ele>
        <time>2021-06-21T08:20:53.520Z</time>
      </trkpt>
      <trkpt lat="43.31898" lon="-1.54344">
        <ele>39</ele>
        <time>2021-06-21T08:20:54.513Z</time>
      </trkpt>
      <trkpt lat="43.319" lon="-1.54337">
        <ele>39</ele>
        <time>2021-06-21T08:20:55.524Z</time>
      </trkpt>
      <trkpt lat="43.31902" lon="-1.5433">
        <ele>39</ele>
        <time>2021-06-21T08:20:56.526Z</time>
      </trkpt>
      <trkpt lat="43.31902" lon="-1.5433">
        <ele>39</ele>
        <time>2021-06-21T08:20:57.541Z</time>
      </trkpt>
      <trkpt lat="43.31906" lon="-1.54317">
        <ele>39</ele>
        <time>2021-06-21T08:20:58.542Z</time>
      </trkpt>
      <trkpt lat="43.31911" lon="-1.54305">
        <ele>39</ele>
        <time>2021-06-21T08:20:59.548Z</time>
      </trkpt>
      <trkpt lat="43.31911" lon="-1.54305">
        <ele>39</ele>
        <time>2021-06-21T08:21:00.539Z</time>
      </trkpt>
      <trkpt lat="43.31913" lon="-1.54299">
        <ele>38</ele>
        <time>2021-06-21T08:21:01.530Z</time>
      </trkpt>
      <trkpt lat="43.31916" lon="-1.54286">
        <ele>38</ele>
        <time>2021-06-21T08:21:02.678Z</time>
      </trkpt>
      <trkpt lat="43.31916" lon="-1.54286">
        <ele>38</ele>
        <time>2021-06-21T08:21:03.533Z</time>
      </trkpt>
      <trkpt lat="43.31916" lon="-1.54286">
        <ele>38</ele>
        <time>2021-06-21T08:21:04.539Z</time>
      </trkpt>
      <trkpt lat="43.3192" lon="-1.54273">
        <ele>38</ele>
        <time>2021-06-21T08:21:05.523Z</time>
      </trkpt>
      <trkpt lat="43.31922" lon="-1.54266">
        <ele>38</ele>
        <time>2021-06-21T08:21:06.514Z</time>
      </trkpt>
      <trkpt lat="43.31924" lon="-1.5426">
        <ele>38</ele>
        <time>2021-06-21T08:21:07.536Z</time>
      </trkpt>
      <trkpt lat="43.31924" lon="-1.5426">
        <ele>38</ele>
        <time>2021-06-21T08:21:08.545Z</time>
      </trkpt>
      <trkpt lat="43.31927" lon="-1.54247">
        <ele>38</ele>
        <time>2021-06-21T08:21:09.526Z</time>
      </trkpt>
      <trkpt lat="43.31927" lon="-1.54247">
        <ele>38</ele>
        <time>2021-06-21T08:21:10.538Z</time>
      </trkpt>
      <trkpt lat="43.31931" lon="-1.54234">
        <ele>39</ele>
        <time>2021-06-21T08:21:11.517Z</time>
      </trkpt>
      <trkpt lat="43.31932" lon="-1.54228">
        <ele>39</ele>
        <time>2021-06-21T08:21:12.544Z</time>
      </trkpt>
      <trkpt lat="43.31932" lon="-1.54228">
        <ele>39</ele>
        <time>2021-06-21T08:21:13.509Z</time>
      </trkpt>
      <trkpt lat="43.31936" lon="-1.54215">
        <ele>39</ele>
        <time>2021-06-21T08:21:14.524Z</time>
      </trkpt>
      <trkpt lat="43.31936" lon="-1.54215">
        <ele>39</ele>
        <time>2021-06-21T08:21:15.537Z</time>
      </trkpt>
      <trkpt lat="43.31939" lon="-1.54201">
        <ele>39</ele>
        <time>2021-06-21T08:21:16.545Z</time>
      </trkpt>
      <trkpt lat="43.31939" lon="-1.54201">
        <ele>39</ele>
        <time>2021-06-21T08:21:17.511Z</time>
      </trkpt>
      <trkpt lat="43.31942" lon="-1.54188">
        <ele>40</ele>
        <time>2021-06-21T08:21:18.527Z</time>
      </trkpt>
      <trkpt lat="43.31944" lon="-1.54182">
        <ele>40</ele>
        <time>2021-06-21T08:21:19.519Z</time>
      </trkpt>
      <trkpt lat="43.31944" lon="-1.54182">
        <ele>40</ele>
        <time>2021-06-21T08:21:20.526Z</time>
      </trkpt>
      <trkpt lat="43.31947" lon="-1.54169">
        <ele>40</ele>
        <time>2021-06-21T08:21:21.529Z</time>
      </trkpt>
      <trkpt lat="43.31949" lon="-1.54163">
        <ele>40</ele>
        <time>2021-06-21T08:21:22.547Z</time>
      </trkpt>
      <trkpt lat="43.31949" lon="-1.54163">
        <ele>40</ele>
        <time>2021-06-21T08:21:23.543Z</time>
      </trkpt>
      <trkpt lat="43.31953" lon="-1.5415">
        <ele>39</ele>
        <time>2021-06-21T08:21:24.521Z</time>
      </trkpt>
      <trkpt lat="43.31953" lon="-1.5415">
        <ele>39</ele>
        <time>2021-06-21T08:21:25.537Z</time>
      </trkpt>
      <trkpt lat="43.31956" lon="-1.54137">
        <ele>40</ele>
        <time>2021-06-21T08:21:26.520Z</time>
      </trkpt>
      <trkpt lat="43.31956" lon="-1.54137">
        <ele>40</ele>
        <time>2021-06-21T08:21:27.534Z</time>
      </trkpt>
      <trkpt lat="43.3196" lon="-1.54125">
        <ele>40</ele>
        <time>2021-06-21T08:21:28.535Z</time>
      </trkpt>
      <trkpt lat="43.31963" lon="-1.54112">
        <ele>40</ele>
        <time>2021-06-21T08:21:29.542Z</time>
      </trkpt>
      <trkpt lat="43.31963" lon="-1.54112">
        <ele>40</ele>
        <time>2021-06-21T08:21:30.523Z</time>
      </trkpt>
      <trkpt lat="43.31965" lon="-1.54106">
        <ele>40</ele>
        <time>2021-06-21T08:21:31.512Z</time>
      </trkpt>
      <trkpt lat="43.31965" lon="-1.54106">
        <ele>40</ele>
        <time>2021-06-21T08:21:32.518Z</time>
      </trkpt>
      <trkpt lat="43.31968" lon="-1.54093">
        <ele>40</ele>
        <time>2021-06-21T08:21:33.537Z</time>
      </trkpt>
      <trkpt lat="43.31972" lon="-1.5408">
        <ele>40</ele>
        <time>2021-06-21T08:21:34.573Z</time>
      </trkpt>
      <trkpt lat="43.31972" lon="-1.5408">
        <ele>40</ele>
        <time>2021-06-21T08:21:35.511Z</time>
      </trkpt>
      <trkpt lat="43.31975" lon="-1.54067">
        <ele>40</ele>
        <time>2021-06-21T08:21:36.539Z</time>
      </trkpt>
      <trkpt lat="43.31975" lon="-1.54067">
        <ele>40</ele>
        <time>2021-06-21T08:21:37.546Z</time>
      </trkpt>
      <trkpt lat="43.31975" lon="-1.54067">
        <ele>40</ele>
        <time>2021-06-21T08:21:38.511Z</time>
      </trkpt>
      <trkpt lat="43.31979" lon="-1.54054">
        <ele>41</ele>
        <time>2021-06-21T08:21:39.541Z</time>
      </trkpt>
      <trkpt lat="43.31979" lon="-1.54054">
        <ele>41</ele>
        <time>2021-06-21T08:21:40.519Z</time>
      </trkpt>
      <trkpt lat="43.31983" lon="-1.54041">
        <ele>41</ele>
        <time>2021-06-21T08:21:41.531Z</time>
      </trkpt>
      <trkpt lat="43.31987" lon="-1.54028">
        <ele>41</ele>
        <time>2021-06-21T08:21:42.548Z</time>
      </trkpt>
      <trkpt lat="43.31987" lon="-1.54028">
        <ele>41</ele>
        <time>2021-06-21T08:21:43.525Z</time>
      </trkpt>
      <trkpt lat="43.31987" lon="-1.54028">
        <ele>41</ele>
        <time>2021-06-21T08:21:44.532Z</time>
      </trkpt>
      <trkpt lat="43.3199" lon="-1.54014">
        <ele>41</ele>
        <time>2021-06-21T08:21:45.523Z</time>
      </trkpt>
      <trkpt lat="43.31992" lon="-1.54008">
        <ele>41</ele>
        <time>2021-06-21T08:21:46.529Z</time>
      </trkpt>
      <trkpt lat="43.31996" lon="-1.53994">
        <ele>41</ele>
        <time>2021-06-21T08:21:47.541Z</time>
      </trkpt>
      <trkpt lat="43.31996" lon="-1.53994">
        <ele>41</ele>
        <time>2021-06-21T08:21:48.546Z</time>
      </trkpt>
      <trkpt lat="43.31998" lon="-1.53988">
        <ele>41</ele>
        <time>2021-06-21T08:21:49.542Z</time>
      </trkpt>
      <trkpt lat="43.32001" lon="-1.53974">
        <ele>40</ele>
        <time>2021-06-21T08:21:50.558Z</time>
      </trkpt>
      <trkpt lat="43.32001" lon="-1.53974">
        <ele>40</ele>
        <time>2021-06-21T08:21:51.513Z</time>
      </trkpt>
      <trkpt lat="43.32001" lon="-1.53974">
        <ele>40</ele>
        <time>2021-06-21T08:21:52.519Z</time>
      </trkpt>
      <trkpt lat="43.32004" lon="-1.5396">
        <ele>41</ele>
        <time>2021-06-21T08:21:53.543Z</time>
      </trkpt>
      <trkpt lat="43.32007" lon="-1.53947">
        <ele>41</ele>
        <time>2021-06-21T08:21:54.550Z</time>
      </trkpt>
      <trkpt lat="43.32007" lon="-1.53947">
        <ele>41</ele>
        <time>2021-06-21T08:21:55.530Z</time>
      </trkpt>
      <trkpt lat="43.32007" lon="-1.5394">
        <ele>41</ele>
        <time>2021-06-21T08:21:56.546Z</time>
      </trkpt>
      <trkpt lat="43.32007" lon="-1.5394">
        <ele>41</ele>
        <time>2021-06-21T08:21:57.511Z</time>
      </trkpt>
      <trkpt lat="43.32007" lon="-1.53926">
        <ele>42</ele>
        <time>2021-06-21T08:21:58.537Z</time>
      </trkpt>
      <trkpt lat="43.32008" lon="-1.53911">
        <ele>42</ele>
        <time>2021-06-21T08:21:59.551Z</time>
      </trkpt>
      <trkpt lat="43.32008" lon="-1.53911">
        <ele>42</ele>
        <time>2021-06-21T08:22:00.541Z</time>
      </trkpt>
      <trkpt lat="43.32008" lon="-1.53903">
        <ele>42</ele>
        <time>2021-06-21T08:22:01.519Z</time>
      </trkpt>
      <trkpt lat="43.32008" lon="-1.53903">
        <ele>42</ele>
        <time>2021-06-21T08:22:02.525Z</time>
      </trkpt>
      <trkpt lat="43.32007" lon="-1.53887">
        <ele>42</ele>
        <time>2021-06-21T08:22:03.518Z</time>
      </trkpt>
      <trkpt lat="43.32007" lon="-1.53887">
        <ele>42</ele>
        <time>2021-06-21T08:22:04.524Z</time>
      </trkpt>
      <trkpt lat="43.32008" lon="-1.53871">
        <ele>42</ele>
        <time>2021-06-21T08:22:05.514Z</time>
      </trkpt>
      <trkpt lat="43.32008" lon="-1.53871">
        <ele>42</ele>
        <time>2021-06-21T08:22:06.520Z</time>
      </trkpt>
      <trkpt lat="43.32008" lon="-1.53857">
        <ele>42</ele>
        <time>2021-06-21T08:22:07.535Z</time>
      </trkpt>
      <trkpt lat="43.32008" lon="-1.53857">
        <ele>42</ele>
        <time>2021-06-21T08:22:08.542Z</time>
      </trkpt>
      <trkpt lat="43.32007" lon="-1.53842">
        <ele>42</ele>
        <time>2021-06-21T08:22:09.518Z</time>
      </trkpt>
      <trkpt lat="43.32007" lon="-1.53842">
        <ele>42</ele>
        <time>2021-06-21T08:22:10.524Z</time>
      </trkpt>
      <trkpt lat="43.32007" lon="-1.53828">
        <ele>43</ele>
        <time>2021-06-21T08:22:11.511Z</time>
      </trkpt>
      <trkpt lat="43.32007" lon="-1.53828">
        <ele>43</ele>
        <time>2021-06-21T08:22:12.516Z</time>
      </trkpt>
      <trkpt lat="43.32007" lon="-1.53814">
        <ele>43</ele>
        <time>2021-06-21T08:22:13.533Z</time>
      </trkpt>
      <trkpt lat="43.32007" lon="-1.53814">
        <ele>43</ele>
        <time>2021-06-21T08:22:14.544Z</time>
      </trkpt>
      <trkpt lat="43.32006" lon="-1.538">
        <ele>43</ele>
        <time>2021-06-21T08:22:15.525Z</time>
      </trkpt>
      <trkpt lat="43.32006" lon="-1.53793">
        <ele>43</ele>
        <time>2021-06-21T08:22:16.509Z</time>
      </trkpt>
      <trkpt lat="43.32006" lon="-1.53793">
        <ele>43</ele>
        <time>2021-06-21T08:22:17.515Z</time>
      </trkpt>
      <trkpt lat="43.32005" lon="-1.53779">
        <ele>43</ele>
        <time>2021-06-21T08:22:18.540Z</time>
      </trkpt>
      <trkpt lat="43.32004" lon="-1.53772">
        <ele>43</ele>
        <time>2021-06-21T08:22:19.509Z</time>
      </trkpt>
      <trkpt lat="43.32004" lon="-1.53772">
        <ele>43</ele>
        <time>2021-06-21T08:22:20.514Z</time>
      </trkpt>
      <trkpt lat="43.32002" lon="-1.53757">
        <ele>43</ele>
        <time>2021-06-21T08:22:21.542Z</time>
      </trkpt>
      <trkpt lat="43.32002" lon="-1.53757">
        <ele>43</ele>
        <time>2021-06-21T08:22:22.519Z</time>
      </trkpt>
      <trkpt lat="43.32001" lon="-1.53742">
        <ele>43</ele>
        <time>2021-06-21T08:22:23.534Z</time>
      </trkpt>
      <trkpt lat="43.32001" lon="-1.53742">
        <ele>43</ele>
        <time>2021-06-21T08:22:24.542Z</time>
      </trkpt>
      <trkpt lat="43.31999" lon="-1.53727">
        <ele>42</ele>
        <time>2021-06-21T08:22:25.535Z</time>
      </trkpt>
      <trkpt lat="43.31999" lon="-1.53727">
        <ele>42</ele>
        <time>2021-06-21T08:22:26.542Z</time>
      </trkpt>
      <trkpt lat="43.31999" lon="-1.53713">
        <ele>42</ele>
        <time>2021-06-21T08:22:27.542Z</time>
      </trkpt>
      <trkpt lat="43.31999" lon="-1.53713">
        <ele>42</ele>
        <time>2021-06-21T08:22:28.522Z</time>
      </trkpt>
      <trkpt lat="43.32" lon="-1.53699">
        <ele>42</ele>
        <time>2021-06-21T08:22:29.530Z</time>
      </trkpt>
      <trkpt lat="43.32" lon="-1.53699">
        <ele>42</ele>
        <time>2021-06-21T08:22:30.543Z</time>
      </trkpt>
      <trkpt lat="43.32" lon="-1.53684">
        <ele>42</ele>
        <time>2021-06-21T08:22:31.522Z</time>
      </trkpt>
      <trkpt lat="43.32" lon="-1.53684">
        <ele>42</ele>
        <time>2021-06-21T08:22:32.540Z</time>
      </trkpt>
      <trkpt lat="43.31999" lon="-1.5367">
        <ele>42</ele>
        <time>2021-06-21T08:22:33.527Z</time>
      </trkpt>
      <trkpt lat="43.31999" lon="-1.5367">
        <ele>42</ele>
        <time>2021-06-21T08:22:34.541Z</time>
      </trkpt>
      <trkpt lat="43.31998" lon="-1.53655">
        <ele>42</ele>
        <time>2021-06-21T08:22:35.522Z</time>
      </trkpt>
      <trkpt lat="43.31998" lon="-1.53655">
        <ele>42</ele>
        <time>2021-06-21T08:22:36.528Z</time>
      </trkpt>
      <trkpt lat="43.31996" lon="-1.53641">
        <ele>42</ele>
        <time>2021-06-21T08:22:37.536Z</time>
      </trkpt>
      <trkpt lat="43.31995" lon="-1.53627">
        <ele>42</ele>
        <time>2021-06-21T08:22:38.547Z</time>
      </trkpt>
      <trkpt lat="43.31995" lon="-1.53627">
        <ele>42</ele>
        <time>2021-06-21T08:22:39.541Z</time>
      </trkpt>
      <trkpt lat="43.31995" lon="-1.53627">
        <ele>42</ele>
        <time>2021-06-21T08:22:40.547Z</time>
      </trkpt>
      <trkpt lat="43.31993" lon="-1.53614">
        <ele>42</ele>
        <time>2021-06-21T08:22:41.537Z</time>
      </trkpt>
      <trkpt lat="43.31993" lon="-1.53614">
        <ele>42</ele>
        <time>2021-06-21T08:22:42.546Z</time>
      </trkpt>
      <trkpt lat="43.31991" lon="-1.53599">
        <ele>41</ele>
        <time>2021-06-21T08:22:43.536Z</time>
      </trkpt>
      <trkpt lat="43.31991" lon="-1.53599">
        <ele>41</ele>
        <time>2021-06-21T08:22:44.545Z</time>
      </trkpt>
      <trkpt lat="43.31986" lon="-1.53585">
        <ele>41</ele>
        <time>2021-06-21T08:22:45.520Z</time>
      </trkpt>
      <trkpt lat="43.31984" lon="-1.53579">
        <ele>41</ele>
        <time>2021-06-21T08:22:46.539Z</time>
      </trkpt>
      <trkpt lat="43.31984" lon="-1.53579">
        <ele>41</ele>
        <time>2021-06-21T08:22:47.559Z</time>
      </trkpt>
      <trkpt lat="43.31977" lon="-1.53566">
        <ele>41</ele>
        <time>2021-06-21T08:22:48.535Z</time>
      </trkpt>
      <trkpt lat="43.31977" lon="-1.53566">
        <ele>41</ele>
        <time>2021-06-21T08:22:49.541Z</time>
      </trkpt>
      <trkpt lat="43.31969" lon="-1.53555">
        <ele>41</ele>
        <time>2021-06-21T08:22:50.526Z</time>
      </trkpt>
      <trkpt lat="43.31966" lon="-1.5355">
        <ele>41</ele>
        <time>2021-06-21T08:22:51.537Z</time>
      </trkpt>
      <trkpt lat="43.31966" lon="-1.5355">
        <ele>41</ele>
        <time>2021-06-21T08:22:52.546Z</time>
      </trkpt>
      <trkpt lat="43.31958" lon="-1.53539">
        <ele>41</ele>
        <time>2021-06-21T08:22:53.534Z</time>
      </trkpt>
      <trkpt lat="43.31958" lon="-1.53539">
        <ele>41</ele>
        <time>2021-06-21T08:22:54.541Z</time>
      </trkpt>
      <trkpt lat="43.31951" lon="-1.53529">
        <ele>42</ele>
        <time>2021-06-21T08:22:55.516Z</time>
      </trkpt>
      <trkpt lat="43.31951" lon="-1.53529">
        <ele>42</ele>
        <time>2021-06-21T08:22:56.522Z</time>
      </trkpt>
      <trkpt lat="43.31946" lon="-1.53521">
        <ele>42</ele>
        <time>2021-06-21T08:22:57.537Z</time>
      </trkpt>
      <trkpt lat="43.31946" lon="-1.53521">
        <ele>42</ele>
        <time>2021-06-21T08:22:58.543Z</time>
      </trkpt>
      <trkpt lat="43.3194" lon="-1.53513">
        <ele>42</ele>
        <time>2021-06-21T08:22:59.517Z</time>
      </trkpt>
      <trkpt lat="43.31936" lon="-1.53509">
        <ele>42</ele>
        <time>2021-06-21T08:23:00.541Z</time>
      </trkpt>
      <trkpt lat="43.31933" lon="-1.53504">
        <ele>42</ele>
        <time>2021-06-21T08:23:01.510Z</time>
      </trkpt>
      <trkpt lat="43.31933" lon="-1.53504">
        <ele>42</ele>
        <time>2021-06-21T08:23:02.516Z</time>
      </trkpt>
      <trkpt lat="43.31927" lon="-1.53494">
        <ele>42</ele>
        <time>2021-06-21T08:23:03.515Z</time>
      </trkpt>
      <trkpt lat="43.31927" lon="-1.53494">
        <ele>42</ele>
        <time>2021-06-21T08:23:04.520Z</time>
      </trkpt>
      <trkpt lat="43.3192" lon="-1.53484">
        <ele>41</ele>
        <time>2021-06-21T08:23:05.543Z</time>
      </trkpt>
      <trkpt lat="43.31913" lon="-1.53473">
        <ele>41</ele>
        <time>2021-06-21T08:23:06.549Z</time>
      </trkpt>
      <trkpt lat="43.31913" lon="-1.53473">
        <ele>41</ele>
        <time>2021-06-21T08:23:07.526Z</time>
      </trkpt>
      <trkpt lat="43.31913" lon="-1.53473">
        <ele>41</ele>
        <time>2021-06-21T08:23:08.514Z</time>
      </trkpt>
      <trkpt lat="43.31906" lon="-1.53462">
        <ele>41</ele>
        <time>2021-06-21T08:23:09.541Z</time>
      </trkpt>
      <trkpt lat="43.31906" lon="-1.53462">
        <ele>41</ele>
        <time>2021-06-21T08:23:10.547Z</time>
      </trkpt>
      <trkpt lat="43.31899" lon="-1.53451">
        <ele>41</ele>
        <time>2021-06-21T08:23:11.523Z</time>
      </trkpt>
      <trkpt lat="43.31895" lon="-1.53445">
        <ele>41</ele>
        <time>2021-06-21T08:23:12.510Z</time>
      </trkpt>
      <trkpt lat="43.31892" lon="-1.5344">
        <ele>41</ele>
        <time>2021-06-21T08:23:13.534Z</time>
      </trkpt>
      <trkpt lat="43.31892" lon="-1.5344">
        <ele>41</ele>
        <time>2021-06-21T08:23:14.512Z</time>
      </trkpt>
      <trkpt lat="43.31885" lon="-1.5343">
        <ele>41</ele>
        <time>2021-06-21T08:23:15.537Z</time>
      </trkpt>
      <trkpt lat="43.31878" lon="-1.53419">
        <ele>41</ele>
        <time>2021-06-21T08:23:16.550Z</time>
      </trkpt>
      <trkpt lat="43.31878" lon="-1.53419">
        <ele>41</ele>
        <time>2021-06-21T08:23:17.545Z</time>
      </trkpt>
      <trkpt lat="43.31878" lon="-1.53419">
        <ele>41</ele>
        <time>2021-06-21T08:23:18.511Z</time>
      </trkpt>
      <trkpt lat="43.31872" lon="-1.53409">
        <ele>41</ele>
        <time>2021-06-21T08:23:19.534Z</time>
      </trkpt>
      <trkpt lat="43.31872" lon="-1.53409">
        <ele>41</ele>
        <time>2021-06-21T08:23:20.543Z</time>
      </trkpt>
      <trkpt lat="43.31865" lon="-1.53399">
        <ele>41</ele>
        <time>2021-06-21T08:23:21.525Z</time>
      </trkpt>
      <trkpt lat="43.31861" lon="-1.53393">
        <ele>42</ele>
        <time>2021-06-21T08:23:22.516Z</time>
      </trkpt>
      <trkpt lat="43.31861" lon="-1.53393">
        <ele>42</ele>
        <time>2021-06-21T08:23:23.547Z</time>
      </trkpt>
      <trkpt lat="43.31854" lon="-1.53382">
        <ele>42</ele>
        <time>2021-06-21T08:23:24.522Z</time>
      </trkpt>
      <trkpt lat="43.31851" lon="-1.53376">
        <ele>42</ele>
        <time>2021-06-21T08:23:25.544Z</time>
      </trkpt>
      <trkpt lat="43.31851" lon="-1.53376">
        <ele>42</ele>
        <time>2021-06-21T08:23:26.516Z</time>
      </trkpt>
      <trkpt lat="43.31845" lon="-1.53365">
        <ele>42</ele>
        <time>2021-06-21T08:23:27.534Z</time>
      </trkpt>
      <trkpt lat="43.31845" lon="-1.53365">
        <ele>42</ele>
        <time>2021-06-21T08:23:28.542Z</time>
      </trkpt>
      <trkpt lat="43.31838" lon="-1.53357">
        <ele>42</ele>
        <time>2021-06-21T08:23:29.527Z</time>
      </trkpt>
      <trkpt lat="43.31838" lon="-1.53357">
        <ele>42</ele>
        <time>2021-06-21T08:23:30.546Z</time>
      </trkpt>
      <trkpt lat="43.31832" lon="-1.53347">
        <ele>42</ele>
        <time>2021-06-21T08:23:31.522Z</time>
      </trkpt>
      <trkpt lat="43.31832" lon="-1.53347">
        <ele>42</ele>
        <time>2021-06-21T08:23:32.543Z</time>
      </trkpt>
      <trkpt lat="43.31825" lon="-1.53337">
        <ele>43</ele>
        <time>2021-06-21T08:23:33.516Z</time>
      </trkpt>
      <trkpt lat="43.31825" lon="-1.53337">
        <ele>43</ele>
        <time>2021-06-21T08:23:34.521Z</time>
      </trkpt>
      <trkpt lat="43.31818" lon="-1.53327">
        <ele>43</ele>
        <time>2021-06-21T08:23:35.518Z</time>
      </trkpt>
      <trkpt lat="43.31818" lon="-1.53327">
        <ele>43</ele>
        <time>2021-06-21T08:23:36.524Z</time>
      </trkpt>
      <trkpt lat="43.31811" lon="-1.53317">
        <ele>43</ele>
        <time>2021-06-21T08:23:37.515Z</time>
      </trkpt>
      <trkpt lat="43.31811" lon="-1.53317">
        <ele>43</ele>
        <time>2021-06-21T08:23:38.521Z</time>
      </trkpt>
      <trkpt lat="43.31805" lon="-1.53306">
        <ele>43</ele>
        <time>2021-06-21T08:23:39.536Z</time>
      </trkpt>
      <trkpt lat="43.31805" lon="-1.53306">
        <ele>43</ele>
        <time>2021-06-21T08:23:40.542Z</time>
      </trkpt>
      <trkpt lat="43.31798" lon="-1.53296">
        <ele>44</ele>
        <time>2021-06-21T08:23:41.523Z</time>
      </trkpt>
      <trkpt lat="43.31798" lon="-1.53296">
        <ele>44</ele>
        <time>2021-06-21T08:23:42.535Z</time>
      </trkpt>
      <trkpt lat="43.31791" lon="-1.53287">
        <ele>44</ele>
        <time>2021-06-21T08:23:43.541Z</time>
      </trkpt>
      <trkpt lat="43.31791" lon="-1.53287">
        <ele>44</ele>
        <time>2021-06-21T08:23:44.519Z</time>
      </trkpt>
      <trkpt lat="43.31784" lon="-1.53277">
        <ele>44</ele>
        <time>2021-06-21T08:23:45.535Z</time>
      </trkpt>
      <trkpt lat="43.31784" lon="-1.53277">
        <ele>44</ele>
        <time>2021-06-21T08:23:46.541Z</time>
      </trkpt>
      <trkpt lat="43.31777" lon="-1.53267">
        <ele>45</ele>
        <time>2021-06-21T08:23:47.511Z</time>
      </trkpt>
      <trkpt lat="43.31777" lon="-1.53267">
        <ele>45</ele>
        <time>2021-06-21T08:23:48.516Z</time>
      </trkpt>
      <trkpt lat="43.31771" lon="-1.53258">
        <ele>45</ele>
        <time>2021-06-21T08:23:49.534Z</time>
      </trkpt>
      <trkpt lat="43.31771" lon="-1.53258">
        <ele>45</ele>
        <time>2021-06-21T08:23:50.517Z</time>
      </trkpt>
      <trkpt lat="43.31765" lon="-1.53249">
        <ele>46</ele>
        <time>2021-06-21T08:23:51.547Z</time>
      </trkpt>
      <trkpt lat="43.31765" lon="-1.53249">
        <ele>46</ele>
        <time>2021-06-21T08:23:52.512Z</time>
      </trkpt>
      <trkpt lat="43.31758" lon="-1.5324">
        <ele>46</ele>
        <time>2021-06-21T08:23:53.516Z</time>
      </trkpt>
      <trkpt lat="43.31755" lon="-1.53235">
        <ele>46</ele>
        <time>2021-06-21T08:23:54.530Z</time>
      </trkpt>
      <trkpt lat="43.31752" lon="-1.53229">
        <ele>46</ele>
        <time>2021-06-21T08:23:55.515Z</time>
      </trkpt>
      <trkpt lat="43.31752" lon="-1.53229">
        <ele>46</ele>
        <time>2021-06-21T08:23:56.521Z</time>
      </trkpt>
      <trkpt lat="43.31745" lon="-1.5322">
        <ele>47</ele>
        <time>2021-06-21T08:23:57.516Z</time>
      </trkpt>
      <trkpt lat="43.31745" lon="-1.5322">
        <ele>47</ele>
        <time>2021-06-21T08:23:58.521Z</time>
      </trkpt>
      <trkpt lat="43.31739" lon="-1.5321">
        <ele>47</ele>
        <time>2021-06-21T08:23:59.542Z</time>
      </trkpt>
      <trkpt lat="43.31739" lon="-1.5321">
        <ele>47</ele>
        <time>2021-06-21T08:24:00.549Z</time>
      </trkpt>
      <trkpt lat="43.31733" lon="-1.53201">
        <ele>48</ele>
        <time>2021-06-21T08:24:01.526Z</time>
      </trkpt>
      <trkpt lat="43.31733" lon="-1.53201">
        <ele>48</ele>
        <time>2021-06-21T08:24:02.541Z</time>
      </trkpt>
      <trkpt lat="43.31727" lon="-1.53192">
        <ele>48</ele>
        <time>2021-06-21T08:24:03.519Z</time>
      </trkpt>
      <trkpt lat="43.31727" lon="-1.53192">
        <ele>48</ele>
        <time>2021-06-21T08:24:04.525Z</time>
      </trkpt>
      <trkpt lat="43.31721" lon="-1.53183">
        <ele>48</ele>
        <time>2021-06-21T08:24:05.509Z</time>
      </trkpt>
      <trkpt lat="43.31721" lon="-1.53183">
        <ele>48</ele>
        <time>2021-06-21T08:24:06.515Z</time>
      </trkpt>
      <trkpt lat="43.31716" lon="-1.53175">
        <ele>49</ele>
        <time>2021-06-21T08:24:07.537Z</time>
      </trkpt>
      <trkpt lat="43.31716" lon="-1.53175">
        <ele>49</ele>
        <time>2021-06-21T08:24:08.545Z</time>
      </trkpt>
      <trkpt lat="43.3171" lon="-1.53166">
        <ele>49</ele>
        <time>2021-06-21T08:24:09.541Z</time>
      </trkpt>
      <trkpt lat="43.3171" lon="-1.53166">
        <ele>49</ele>
        <time>2021-06-21T08:24:10.549Z</time>
      </trkpt>
      <trkpt lat="43.31704" lon="-1.53157">
        <ele>49</ele>
        <time>2021-06-21T08:24:11.535Z</time>
      </trkpt>
      <trkpt lat="43.31704" lon="-1.53157">
        <ele>49</ele>
        <time>2021-06-21T08:24:12.544Z</time>
      </trkpt>
      <trkpt lat="43.31699" lon="-1.53147">
        <ele>49</ele>
        <time>2021-06-21T08:24:13.563Z</time>
      </trkpt>
      <trkpt lat="43.31695" lon="-1.53142">
        <ele>49</ele>
        <time>2021-06-21T08:24:14.543Z</time>
      </trkpt>
      <trkpt lat="43.31695" lon="-1.53142">
        <ele>49</ele>
        <time>2021-06-21T08:24:15.509Z</time>
      </trkpt>
      <trkpt lat="43.31689" lon="-1.53132">
        <ele>50</ele>
        <time>2021-06-21T08:24:16.535Z</time>
      </trkpt>
      <trkpt lat="43.31689" lon="-1.53132">
        <ele>50</ele>
        <time>2021-06-21T08:24:17.544Z</time>
      </trkpt>
      <trkpt lat="43.31683" lon="-1.53123">
        <ele>50</ele>
        <time>2021-06-21T08:24:18.538Z</time>
      </trkpt>
      <trkpt lat="43.3168" lon="-1.53118">
        <ele>50</ele>
        <time>2021-06-21T08:24:19.529Z</time>
      </trkpt>
      <trkpt lat="43.3168" lon="-1.53118">
        <ele>50</ele>
        <time>2021-06-21T08:24:20.541Z</time>
      </trkpt>
      <trkpt lat="43.31674" lon="-1.53108">
        <ele>50</ele>
        <time>2021-06-21T08:24:21.526Z</time>
      </trkpt>
      <trkpt lat="43.31671" lon="-1.53104">
        <ele>50</ele>
        <time>2021-06-21T08:24:22.540Z</time>
      </trkpt>
      <trkpt lat="43.31671" lon="-1.53104">
        <ele>50</ele>
        <time>2021-06-21T08:24:23.521Z</time>
      </trkpt>
      <trkpt lat="43.31664" lon="-1.53094">
        <ele>50</ele>
        <time>2021-06-21T08:24:24.542Z</time>
      </trkpt>
      <trkpt lat="43.31664" lon="-1.53094">
        <ele>50</ele>
        <time>2021-06-21T08:24:25.548Z</time>
      </trkpt>
      <trkpt lat="43.31659" lon="-1.53085">
        <ele>50</ele>
        <time>2021-06-21T08:24:26.540Z</time>
      </trkpt>
      <trkpt lat="43.31655" lon="-1.5308">
        <ele>50</ele>
        <time>2021-06-21T08:24:27.538Z</time>
      </trkpt>
      <trkpt lat="43.31655" lon="-1.5308">
        <ele>50</ele>
        <time>2021-06-21T08:24:28.550Z</time>
      </trkpt>
      <trkpt lat="43.3165" lon="-1.53072">
        <ele>50</ele>
        <time>2021-06-21T08:24:29.536Z</time>
      </trkpt>
      <trkpt lat="43.31643" lon="-1.53064">
        <ele>50</ele>
        <time>2021-06-21T08:24:30.548Z</time>
      </trkpt>
      <trkpt lat="43.31643" lon="-1.53064">
        <ele>50</ele>
        <time>2021-06-21T08:24:31.523Z</time>
      </trkpt>
      <trkpt lat="43.31643" lon="-1.53064">
        <ele>50</ele>
        <time>2021-06-21T08:24:32.542Z</time>
      </trkpt>
      <trkpt lat="43.31636" lon="-1.53056">
        <ele>51</ele>
        <time>2021-06-21T08:24:33.522Z</time>
      </trkpt>
      <trkpt lat="43.31636" lon="-1.53056">
        <ele>51</ele>
        <time>2021-06-21T08:24:34.528Z</time>
      </trkpt>
      <trkpt lat="43.31629" lon="-1.53047">
        <ele>51</ele>
        <time>2021-06-21T08:24:35.522Z</time>
      </trkpt>
      <trkpt lat="43.31629" lon="-1.53047">
        <ele>51</ele>
        <time>2021-06-21T08:24:36.529Z</time>
      </trkpt>
      <trkpt lat="43.31621" lon="-1.53039">
        <ele>51</ele>
        <time>2021-06-21T08:24:37.547Z</time>
      </trkpt>
      <trkpt lat="43.31621" lon="-1.53039">
        <ele>51</ele>
        <time>2021-06-21T08:24:38.523Z</time>
      </trkpt>
      <trkpt lat="43.31608" lon="-1.5303">
        <ele>51</ele>
        <time>2021-06-21T08:24:39.542Z</time>
      </trkpt>
      <trkpt lat="43.31608" lon="-1.5303">
        <ele>51</ele>
        <time>2021-06-21T08:24:40.509Z</time>
      </trkpt>
      <trkpt lat="43.31608" lon="-1.5303">
        <ele>51</ele>
        <time>2021-06-21T08:24:41.514Z</time>
      </trkpt>
      <trkpt lat="43.31598" lon="-1.53025">
        <ele>51</ele>
        <time>2021-06-21T08:24:42.512Z</time>
      </trkpt>
      <trkpt lat="43.31594" lon="-1.53022">
        <ele>51</ele>
        <time>2021-06-21T08:24:43.532Z</time>
      </trkpt>
      <trkpt lat="43.31594" lon="-1.53022">
        <ele>51</ele>
        <time>2021-06-21T08:24:44.540Z</time>
      </trkpt>
      <trkpt lat="43.31586" lon="-1.53018">
        <ele>51</ele>
        <time>2021-06-21T08:24:45.520Z</time>
      </trkpt>
      <trkpt lat="43.31586" lon="-1.53018">
        <ele>51</ele>
        <time>2021-06-21T08:24:46.526Z</time>
      </trkpt>
      <trkpt lat="43.31579" lon="-1.53016">
        <ele>52</ele>
        <time>2021-06-21T08:24:47.510Z</time>
      </trkpt>
      <trkpt lat="43.31579" lon="-1.53016">
        <ele>52</ele>
        <time>2021-06-21T08:24:48.516Z</time>
      </trkpt>
      <trkpt lat="43.31573" lon="-1.53014">
        <ele>52</ele>
        <time>2021-06-21T08:24:49.541Z</time>
      </trkpt>
      <trkpt lat="43.31573" lon="-1.53014">
        <ele>52</ele>
        <time>2021-06-21T08:24:50.518Z</time>
      </trkpt>
      <trkpt lat="43.31568" lon="-1.53013">
        <ele>53</ele>
        <time>2021-06-21T08:24:51.538Z</time>
      </trkpt>
      <trkpt lat="43.31568" lon="-1.53013">
        <ele>53</ele>
        <time>2021-06-21T08:24:52.544Z</time>
      </trkpt>
      <trkpt lat="43.31563" lon="-1.53012">
        <ele>53</ele>
        <time>2021-06-21T08:24:53.539Z</time>
      </trkpt>
      <trkpt lat="43.31563" lon="-1.53012">
        <ele>53</ele>
        <time>2021-06-21T08:24:54.545Z</time>
      </trkpt>
      <trkpt lat="43.31557" lon="-1.53011">
        <ele>54</ele>
        <time>2021-06-21T08:24:55.520Z</time>
      </trkpt>
      <trkpt lat="43.31557" lon="-1.53011">
        <ele>54</ele>
        <time>2021-06-21T08:24:56.526Z</time>
      </trkpt>
      <trkpt lat="43.31552" lon="-1.53009">
        <ele>54</ele>
        <time>2021-06-21T08:24:57.515Z</time>
      </trkpt>
      <trkpt lat="43.31552" lon="-1.53009">
        <ele>54</ele>
        <time>2021-06-21T08:24:58.520Z</time>
      </trkpt>
      <trkpt lat="43.31546" lon="-1.53009">
        <ele>54</ele>
        <time>2021-06-21T08:24:59.543Z</time>
      </trkpt>
      <trkpt lat="43.31546" lon="-1.53009">
        <ele>54</ele>
        <time>2021-06-21T08:25:00.549Z</time>
      </trkpt>
      <trkpt lat="43.31542" lon="-1.53008">
        <ele>55</ele>
        <time>2021-06-21T08:25:01.528Z</time>
      </trkpt>
      <trkpt lat="43.31542" lon="-1.53008">
        <ele>55</ele>
        <time>2021-06-21T08:25:02.547Z</time>
      </trkpt>
      <trkpt lat="43.31537" lon="-1.53008">
        <ele>55</ele>
        <time>2021-06-21T08:25:03.523Z</time>
      </trkpt>
      <trkpt lat="43.31537" lon="-1.53008">
        <ele>55</ele>
        <time>2021-06-21T08:25:04.543Z</time>
      </trkpt>
      <trkpt lat="43.31532" lon="-1.53007">
        <ele>56</ele>
        <time>2021-06-21T08:25:05.523Z</time>
      </trkpt>
      <trkpt lat="43.31532" lon="-1.53007">
        <ele>56</ele>
        <time>2021-06-21T08:25:06.530Z</time>
      </trkpt>
      <trkpt lat="43.31528" lon="-1.53007">
        <ele>57</ele>
        <time>2021-06-21T08:25:07.526Z</time>
      </trkpt>
      <trkpt lat="43.31528" lon="-1.53007">
        <ele>57</ele>
        <time>2021-06-21T08:25:08.535Z</time>
      </trkpt>
      <trkpt lat="43.31524" lon="-1.53008">
        <ele>57</ele>
        <time>2021-06-21T08:25:09.509Z</time>
      </trkpt>
      <trkpt lat="43.31524" lon="-1.53008">
        <ele>57</ele>
        <time>2021-06-21T08:25:10.514Z</time>
      </trkpt>
      <trkpt lat="43.31519" lon="-1.53008">
        <ele>58</ele>
        <time>2021-06-21T08:25:11.510Z</time>
      </trkpt>
      <trkpt lat="43.31519" lon="-1.53008">
        <ele>58</ele>
        <time>2021-06-21T08:25:12.515Z</time>
      </trkpt>
      <trkpt lat="43.31516" lon="-1.53008">
        <ele>59</ele>
        <time>2021-06-21T08:25:13.539Z</time>
      </trkpt>
      <trkpt lat="43.31516" lon="-1.53008">
        <ele>59</ele>
        <time>2021-06-21T08:25:14.544Z</time>
      </trkpt>
      <trkpt lat="43.31512" lon="-1.53007">
        <ele>60</ele>
        <time>2021-06-21T08:25:15.535Z</time>
      </trkpt>
      <trkpt lat="43.31512" lon="-1.53007">
        <ele>60</ele>
        <time>2021-06-21T08:25:16.541Z</time>
      </trkpt>
      <trkpt lat="43.31508" lon="-1.53007">
        <ele>60</ele>
        <time>2021-06-21T08:25:17.518Z</time>
      </trkpt>
      <trkpt lat="43.31506" lon="-1.53008">
        <ele>61</ele>
        <time>2021-06-21T08:25:18.538Z</time>
      </trkpt>
      <trkpt lat="43.31504" lon="-1.53008">
        <ele>61</ele>
        <time>2021-06-21T08:25:19.510Z</time>
      </trkpt>
      <trkpt lat="43.31504" lon="-1.53008">
        <ele>61</ele>
        <time>2021-06-21T08:25:20.515Z</time>
      </trkpt>
      <trkpt lat="43.315" lon="-1.53008">
        <ele>62</ele>
        <time>2021-06-21T08:25:21.526Z</time>
      </trkpt>
      <trkpt lat="43.315" lon="-1.53008">
        <ele>62</ele>
        <time>2021-06-21T08:25:22.513Z</time>
      </trkpt>
      <trkpt lat="43.31497" lon="-1.53008">
        <ele>62</ele>
        <time>2021-06-21T08:25:23.524Z</time>
      </trkpt>
      <trkpt lat="43.31493" lon="-1.53008">
        <ele>63</ele>
        <time>2021-06-21T08:25:24.552Z</time>
      </trkpt>
      <trkpt lat="43.31493" lon="-1.53008">
        <ele>63</ele>
        <time>2021-06-21T08:25:25.510Z</time>
      </trkpt>
      <trkpt lat="43.31493" lon="-1.53008">
        <ele>63</ele>
        <time>2021-06-21T08:25:26.515Z</time>
      </trkpt>
      <trkpt lat="43.31486" lon="-1.53007">
        <ele>64</ele>
        <time>2021-06-21T08:25:27.543Z</time>
      </trkpt>
      <trkpt lat="43.31486" lon="-1.53007">
        <ele>64</ele>
        <time>2021-06-21T08:25:28.548Z</time>
      </trkpt>
      <trkpt lat="43.31486" lon="-1.53007">
        <ele>64</ele>
        <time>2021-06-21T08:25:29.514Z</time>
      </trkpt>
      <trkpt lat="43.31482" lon="-1.53007">
        <ele>65</ele>
        <time>2021-06-21T08:25:30.541Z</time>
      </trkpt>
      <trkpt lat="43.3148" lon="-1.53006">
        <ele>65</ele>
        <time>2021-06-21T08:25:31.511Z</time>
      </trkpt>
      <trkpt lat="43.3148" lon="-1.53006">
        <ele>65</ele>
        <time>2021-06-21T08:25:32.518Z</time>
      </trkpt>
      <trkpt lat="43.31475" lon="-1.53007">
        <ele>67</ele>
        <time>2021-06-21T08:25:33.544Z</time>
      </trkpt>
      <trkpt lat="43.31475" lon="-1.53007">
        <ele>67</ele>
        <time>2021-06-21T08:25:34.509Z</time>
      </trkpt>
      <trkpt lat="43.31475" lon="-1.53007">
        <ele>67</ele>
        <time>2021-06-21T08:25:35.515Z</time>
      </trkpt>
      <trkpt lat="43.31471" lon="-1.53006">
        <ele>68</ele>
        <time>2021-06-21T08:25:36.530Z</time>
      </trkpt>
      <trkpt lat="43.31469" lon="-1.53006">
        <ele>68</ele>
        <time>2021-06-21T08:25:37.539Z</time>
      </trkpt>
      <trkpt lat="43.31469" lon="-1.53006">
        <ele>68</ele>
        <time>2021-06-21T08:25:38.514Z</time>
      </trkpt>
      <trkpt lat="43.31465" lon="-1.53005">
        <ele>69</ele>
        <time>2021-06-21T08:25:39.532Z</time>
      </trkpt>
      <trkpt lat="43.31461" lon="-1.53004">
        <ele>70</ele>
        <time>2021-06-21T08:25:40.551Z</time>
      </trkpt>
      <trkpt lat="43.31461" lon="-1.53004">
        <ele>70</ele>
        <time>2021-06-21T08:25:41.540Z</time>
      </trkpt>
      <trkpt lat="43.31461" lon="-1.53004">
        <ele>70</ele>
        <time>2021-06-21T08:25:42.549Z</time>
      </trkpt>
      <trkpt lat="43.31457" lon="-1.53003">
        <ele>71</ele>
        <time>2021-06-21T08:25:43.538Z</time>
      </trkpt>
      <trkpt lat="43.31457" lon="-1.53003">
        <ele>71</ele>
        <time>2021-06-21T08:25:44.665Z</time>
      </trkpt>
      <trkpt lat="43.31453" lon="-1.53002">
        <ele>71</ele>
        <time>2021-06-21T08:25:45.528Z</time>
      </trkpt>
      <trkpt lat="43.31453" lon="-1.53002">
        <ele>71</ele>
        <time>2021-06-21T08:25:46.544Z</time>
      </trkpt>
      <trkpt lat="43.31449" lon="-1.53001">
        <ele>72</ele>
        <time>2021-06-21T08:25:47.526Z</time>
      </trkpt>
      <trkpt lat="43.31449" lon="-1.53001">
        <ele>72</ele>
        <time>2021-06-21T08:25:48.532Z</time>
      </trkpt>
      <trkpt lat="43.31444" lon="-1.53">
        <ele>72</ele>
        <time>2021-06-21T08:25:49.511Z</time>
      </trkpt>
      <trkpt lat="43.31444" lon="-1.53">
        <ele>72</ele>
        <time>2021-06-21T08:25:50.517Z</time>
      </trkpt>
      <trkpt lat="43.3144" lon="-1.52999">
        <ele>72</ele>
        <time>2021-06-21T08:25:51.542Z</time>
      </trkpt>
      <trkpt lat="43.3144" lon="-1.52999">
        <ele>72</ele>
        <time>2021-06-21T08:25:52.548Z</time>
      </trkpt>
      <trkpt lat="43.31436" lon="-1.52997">
        <ele>72</ele>
        <time>2021-06-21T08:25:53.532Z</time>
      </trkpt>
      <trkpt lat="43.31436" lon="-1.52997">
        <ele>72</ele>
        <time>2021-06-21T08:25:54.543Z</time>
      </trkpt>
      <trkpt lat="43.31432" lon="-1.52996">
        <ele>72</ele>
        <time>2021-06-21T08:25:55.536Z</time>
      </trkpt>
      <trkpt lat="43.31428" lon="-1.52994">
        <ele>71</ele>
        <time>2021-06-21T08:25:56.559Z</time>
      </trkpt>
      <trkpt lat="43.31428" lon="-1.52994">
        <ele>71</ele>
        <time>2021-06-21T08:25:57.525Z</time>
      </trkpt>
      <trkpt lat="43.31428" lon="-1.52994">
        <ele>71</ele>
        <time>2021-06-21T08:25:58.535Z</time>
      </trkpt>
      <trkpt lat="43.31423" lon="-1.52992">
        <ele>71</ele>
        <time>2021-06-21T08:25:59.522Z</time>
      </trkpt>
      <trkpt lat="43.31423" lon="-1.52992">
        <ele>71</ele>
        <time>2021-06-21T08:26:00.528Z</time>
      </trkpt>
      <trkpt lat="43.3142" lon="-1.52991">
        <ele>70</ele>
        <time>2021-06-21T08:26:01.512Z</time>
      </trkpt>
      <trkpt lat="43.31418" lon="-1.5299">
        <ele>70</ele>
        <time>2021-06-21T08:26:02.510Z</time>
      </trkpt>
      <trkpt lat="43.31418" lon="-1.5299">
        <ele>70</ele>
        <time>2021-06-21T08:26:03.516Z</time>
      </trkpt>
      <trkpt lat="43.31414" lon="-1.52988">
        <ele>69</ele>
        <time>2021-06-21T08:26:04.537Z</time>
      </trkpt>
      <trkpt lat="43.31414" lon="-1.52988">
        <ele>69</ele>
        <time>2021-06-21T08:26:05.542Z</time>
      </trkpt>
      <trkpt lat="43.31409" lon="-1.52986">
        <ele>69</ele>
        <time>2021-06-21T08:26:06.542Z</time>
      </trkpt>
      <trkpt lat="43.31407" lon="-1.52984">
        <ele>69</ele>
        <time>2021-06-21T08:26:07.544Z</time>
      </trkpt>
      <trkpt lat="43.31407" lon="-1.52984">
        <ele>69</ele>
        <time>2021-06-21T08:26:08.509Z</time>
      </trkpt>
      <trkpt lat="43.31402" lon="-1.52982">
        <ele>68</ele>
        <time>2021-06-21T08:26:09.537Z</time>
      </trkpt>
      <trkpt lat="43.31402" lon="-1.52982">
        <ele>68</ele>
        <time>2021-06-21T08:26:10.542Z</time>
      </trkpt>
      <trkpt lat="43.31397" lon="-1.52979">
        <ele>67</ele>
        <time>2021-06-21T08:26:11.541Z</time>
      </trkpt>
      <trkpt lat="43.31393" lon="-1.52976">
        <ele>67</ele>
        <time>2021-06-21T08:26:12.552Z</time>
      </trkpt>
      <trkpt lat="43.31393" lon="-1.52976">
        <ele>67</ele>
        <time>2021-06-21T08:26:13.537Z</time>
      </trkpt>
      <trkpt lat="43.31393" lon="-1.52976">
        <ele>67</ele>
        <time>2021-06-21T08:26:14.542Z</time>
      </trkpt>
      <trkpt lat="43.31388" lon="-1.52972">
        <ele>67</ele>
        <time>2021-06-21T08:26:15.528Z</time>
      </trkpt>
      <trkpt lat="43.31388" lon="-1.52972">
        <ele>67</ele>
        <time>2021-06-21T08:26:16.545Z</time>
      </trkpt>
      <trkpt lat="43.31383" lon="-1.52969">
        <ele>67</ele>
        <time>2021-06-21T08:26:17.512Z</time>
      </trkpt>
      <trkpt lat="43.31383" lon="-1.52969">
        <ele>67</ele>
        <time>2021-06-21T08:26:18.517Z</time>
      </trkpt>
      <trkpt lat="43.31378" lon="-1.52965">
        <ele>67</ele>
        <time>2021-06-21T08:26:19.539Z</time>
      </trkpt>
      <trkpt lat="43.31378" lon="-1.52965">
        <ele>67</ele>
        <time>2021-06-21T08:26:20.546Z</time>
      </trkpt>
      <trkpt lat="43.31373" lon="-1.52962">
        <ele>67</ele>
        <time>2021-06-21T08:26:21.522Z</time>
      </trkpt>
      <trkpt lat="43.31373" lon="-1.52962">
        <ele>67</ele>
        <time>2021-06-21T08:26:22.519Z</time>
      </trkpt>
      <trkpt lat="43.31368" lon="-1.52958">
        <ele>67</ele>
        <time>2021-06-21T08:26:23.537Z</time>
      </trkpt>
      <trkpt lat="43.31362" lon="-1.52953">
        <ele>67</ele>
        <time>2021-06-21T08:26:24.545Z</time>
      </trkpt>
      <trkpt lat="43.31362" lon="-1.52953">
        <ele>67</ele>
        <time>2021-06-21T08:26:25.525Z</time>
      </trkpt>
      <trkpt lat="43.31362" lon="-1.52953">
        <ele>67</ele>
        <time>2021-06-21T08:26:26.535Z</time>
      </trkpt>
      <trkpt lat="43.31356" lon="-1.5295">
        <ele>66</ele>
        <time>2021-06-21T08:26:27.522Z</time>
      </trkpt>
      <trkpt lat="43.31352" lon="-1.52948">
        <ele>66</ele>
        <time>2021-06-21T08:26:28.528Z</time>
      </trkpt>
      <trkpt lat="43.31352" lon="-1.52948">
        <ele>66</ele>
        <time>2021-06-21T08:26:29.548Z</time>
      </trkpt>
      <trkpt lat="43.31346" lon="-1.52945">
        <ele>66</ele>
        <time>2021-06-21T08:26:30.536Z</time>
      </trkpt>
      <trkpt lat="43.31342" lon="-1.52944">
        <ele>66</ele>
        <time>2021-06-21T08:26:31.527Z</time>
      </trkpt>
      <trkpt lat="43.31338" lon="-1.52944">
        <ele>66</ele>
        <time>2021-06-21T08:26:32.545Z</time>
      </trkpt>
      <trkpt lat="43.31338" lon="-1.52944">
        <ele>66</ele>
        <time>2021-06-21T08:26:33.510Z</time>
      </trkpt>
      <trkpt lat="43.3133" lon="-1.52942">
        <ele>65</ele>
        <time>2021-06-21T08:26:34.529Z</time>
      </trkpt>
      <trkpt lat="43.3133" lon="-1.52942">
        <ele>65</ele>
        <time>2021-06-21T08:26:35.517Z</time>
      </trkpt>
      <trkpt lat="43.3132" lon="-1.52941">
        <ele>65</ele>
        <time>2021-06-21T08:26:36.541Z</time>
      </trkpt>
      <trkpt lat="43.31316" lon="-1.52942">
        <ele>64</ele>
        <time>2021-06-21T08:26:37.512Z</time>
      </trkpt>
      <trkpt lat="43.31316" lon="-1.52942">
        <ele>64</ele>
        <time>2021-06-21T08:26:38.518Z</time>
      </trkpt>
      <trkpt lat="43.31305" lon="-1.52943">
        <ele>64</ele>
        <time>2021-06-21T08:26:39.539Z</time>
      </trkpt>
      <trkpt lat="43.31305" lon="-1.52943">
        <ele>64</ele>
        <time>2021-06-21T08:26:40.548Z</time>
      </trkpt>
      <trkpt lat="43.31295" lon="-1.52946">
        <ele>63</ele>
        <time>2021-06-21T08:26:41.533Z</time>
      </trkpt>
      <trkpt lat="43.31295" lon="-1.52946">
        <ele>63</ele>
        <time>2021-06-21T08:26:42.544Z</time>
      </trkpt>
      <trkpt lat="43.31283" lon="-1.52951">
        <ele>62</ele>
        <time>2021-06-21T08:26:43.548Z</time>
      </trkpt>
      <trkpt lat="43.31283" lon="-1.52951">
        <ele>62</ele>
        <time>2021-06-21T08:26:44.513Z</time>
      </trkpt>
      <trkpt lat="43.31271" lon="-1.52958">
        <ele>61</ele>
        <time>2021-06-21T08:26:45.537Z</time>
      </trkpt>
      <trkpt lat="43.31259" lon="-1.52969">
        <ele>60</ele>
        <time>2021-06-21T08:26:46.551Z</time>
      </trkpt>
      <trkpt lat="43.31259" lon="-1.52969">
        <ele>60</ele>
        <time>2021-06-21T08:26:47.528Z</time>
      </trkpt>
      <trkpt lat="43.31259" lon="-1.52969">
        <ele>60</ele>
        <time>2021-06-21T08:26:48.542Z</time>
      </trkpt>
      <trkpt lat="43.31246" lon="-1.52983">
        <ele>59</ele>
        <time>2021-06-21T08:26:49.537Z</time>
      </trkpt>
      <trkpt lat="43.31246" lon="-1.52983">
        <ele>59</ele>
        <time>2021-06-21T08:26:50.543Z</time>
      </trkpt>
      <trkpt lat="43.31232" lon="-1.52995">
        <ele>58</ele>
        <time>2021-06-21T08:26:51.523Z</time>
      </trkpt>
      <trkpt lat="43.31224" lon="-1.53">
        <ele>56</ele>
        <time>2021-06-21T08:26:52.538Z</time>
      </trkpt>
      <trkpt lat="43.31224" lon="-1.53">
        <ele>56</ele>
        <time>2021-06-21T08:26:53.561Z</time>
      </trkpt>
      <trkpt lat="43.31206" lon="-1.53007">
        <ele>55</ele>
        <time>2021-06-21T08:26:54.541Z</time>
      </trkpt>
      <trkpt lat="43.31197" lon="-1.53009">
        <ele>54</ele>
        <time>2021-06-21T08:26:55.542Z</time>
      </trkpt>
      <trkpt lat="43.31197" lon="-1.53009">
        <ele>54</ele>
        <time>2021-06-21T08:26:56.551Z</time>
      </trkpt>
      <trkpt lat="43.31177" lon="-1.53011">
        <ele>52</ele>
        <time>2021-06-21T08:26:57.526Z</time>
      </trkpt>
      <trkpt lat="43.31166" lon="-1.5301">
        <ele>52</ele>
        <time>2021-06-21T08:26:58.543Z</time>
      </trkpt>
      <trkpt lat="43.31166" lon="-1.5301">
        <ele>52</ele>
        <time>2021-06-21T08:26:59.509Z</time>
      </trkpt>
      <trkpt lat="43.31147" lon="-1.53005">
        <ele>51</ele>
        <time>2021-06-21T08:27:00.534Z</time>
      </trkpt>
      <trkpt lat="43.31138" lon="-1.53001">
        <ele>51</ele>
        <time>2021-06-21T08:27:01.537Z</time>
      </trkpt>
      <trkpt lat="43.31138" lon="-1.53001">
        <ele>51</ele>
        <time>2021-06-21T08:27:02.544Z</time>
      </trkpt>
      <trkpt lat="43.31122" lon="-1.52992">
        <ele>51</ele>
        <time>2021-06-21T08:27:03.521Z</time>
      </trkpt>
      <trkpt lat="43.31122" lon="-1.52992">
        <ele>51</ele>
        <time>2021-06-21T08:27:04.526Z</time>
      </trkpt>
      <trkpt lat="43.31108" lon="-1.52981">
        <ele>51</ele>
        <time>2021-06-21T08:27:05.519Z</time>
      </trkpt>
      <trkpt lat="43.31108" lon="-1.52981">
        <ele>51</ele>
        <time>2021-06-21T08:27:06.525Z</time>
      </trkpt>
      <trkpt lat="43.31094" lon="-1.52971">
        <ele>51</ele>
        <time>2021-06-21T08:27:07.546Z</time>
      </trkpt>
      <trkpt lat="43.31094" lon="-1.52971">
        <ele>51</ele>
        <time>2021-06-21T08:27:08.511Z</time>
      </trkpt>
      <trkpt lat="43.3108" lon="-1.52964">
        <ele>50</ele>
        <time>2021-06-21T08:27:09.530Z</time>
      </trkpt>
      <trkpt lat="43.3108" lon="-1.52964">
        <ele>50</ele>
        <time>2021-06-21T08:27:10.545Z</time>
      </trkpt>
      <trkpt lat="43.31065" lon="-1.52959">
        <ele>50</ele>
        <time>2021-06-21T08:27:11.520Z</time>
      </trkpt>
      <trkpt lat="43.31065" lon="-1.52959">
        <ele>50</ele>
        <time>2021-06-21T08:27:12.526Z</time>
      </trkpt>
      <trkpt lat="43.31052" lon="-1.52957">
        <ele>49</ele>
        <time>2021-06-21T08:27:13.548Z</time>
      </trkpt>
      <trkpt lat="43.31052" lon="-1.52957">
        <ele>49</ele>
        <time>2021-06-21T08:27:14.513Z</time>
      </trkpt>
      <trkpt lat="43.3104" lon="-1.52955">
        <ele>49</ele>
        <time>2021-06-21T08:27:15.542Z</time>
      </trkpt>
      <trkpt lat="43.3104" lon="-1.52955">
        <ele>49</ele>
        <time>2021-06-21T08:27:16.547Z</time>
      </trkpt>
      <trkpt lat="43.31028" lon="-1.52952">
        <ele>49</ele>
        <time>2021-06-21T08:27:17.526Z</time>
      </trkpt>
      <trkpt lat="43.31028" lon="-1.52952">
        <ele>49</ele>
        <time>2021-06-21T08:27:18.532Z</time>
      </trkpt>
      <trkpt lat="43.31017" lon="-1.52946">
        <ele>49</ele>
        <time>2021-06-21T08:27:19.516Z</time>
      </trkpt>
      <trkpt lat="43.31017" lon="-1.52946">
        <ele>49</ele>
        <time>2021-06-21T08:27:20.522Z</time>
      </trkpt>
      <trkpt lat="43.31007" lon="-1.52938">
        <ele>50</ele>
        <time>2021-06-21T08:27:21.540Z</time>
      </trkpt>
      <trkpt lat="43.31007" lon="-1.52938">
        <ele>50</ele>
        <time>2021-06-21T08:27:22.519Z</time>
      </trkpt>
      <trkpt lat="43.30997" lon="-1.52929">
        <ele>51</ele>
        <time>2021-06-21T08:27:23.519Z</time>
      </trkpt>
      <trkpt lat="43.30997" lon="-1.52929">
        <ele>51</ele>
        <time>2021-06-21T08:27:24.525Z</time>
      </trkpt>
      <trkpt lat="43.30989" lon="-1.5292">
        <ele>51</ele>
        <time>2021-06-21T08:27:25.546Z</time>
      </trkpt>
      <trkpt lat="43.30989" lon="-1.5292">
        <ele>51</ele>
        <time>2021-06-21T08:27:26.511Z</time>
      </trkpt>
      <trkpt lat="43.30981" lon="-1.5291">
        <ele>52</ele>
        <time>2021-06-21T08:27:27.542Z</time>
      </trkpt>
      <trkpt lat="43.30981" lon="-1.5291">
        <ele>52</ele>
        <time>2021-06-21T08:27:28.547Z</time>
      </trkpt>
      <trkpt lat="43.30974" lon="-1.52898">
        <ele>52</ele>
        <time>2021-06-21T08:27:29.527Z</time>
      </trkpt>
      <trkpt lat="43.30974" lon="-1.52898">
        <ele>52</ele>
        <time>2021-06-21T08:27:30.543Z</time>
      </trkpt>
      <trkpt lat="43.30969" lon="-1.52886">
        <ele>53</ele>
        <time>2021-06-21T08:27:31.535Z</time>
      </trkpt>
      <trkpt lat="43.30965" lon="-1.52874">
        <ele>54</ele>
        <time>2021-06-21T08:27:32.547Z</time>
      </trkpt>
      <trkpt lat="43.30965" lon="-1.52874">
        <ele>54</ele>
        <time>2021-06-21T08:27:33.512Z</time>
      </trkpt>
      <trkpt lat="43.30964" lon="-1.52868">
        <ele>54</ele>
        <time>2021-06-21T08:27:34.538Z</time>
      </trkpt>
      <trkpt lat="43.30964" lon="-1.52868">
        <ele>54</ele>
        <time>2021-06-21T08:27:35.543Z</time>
      </trkpt>
      <trkpt lat="43.3096" lon="-1.52856">
        <ele>54</ele>
        <time>2021-06-21T08:27:36.525Z</time>
      </trkpt>
      <trkpt lat="43.3096" lon="-1.52856">
        <ele>54</ele>
        <time>2021-06-21T08:27:37.531Z</time>
      </trkpt>
      <trkpt lat="43.30956" lon="-1.52843">
        <ele>55</ele>
        <time>2021-06-21T08:27:38.524Z</time>
      </trkpt>
      <trkpt lat="43.30955" lon="-1.52836">
        <ele>55</ele>
        <time>2021-06-21T08:27:39.540Z</time>
      </trkpt>
      <trkpt lat="43.30955" lon="-1.52836">
        <ele>55</ele>
        <time>2021-06-21T08:27:40.552Z</time>
      </trkpt>
      <trkpt lat="43.30948" lon="-1.52824">
        <ele>55</ele>
        <time>2021-06-21T08:27:41.530Z</time>
      </trkpt>
      <trkpt lat="43.30948" lon="-1.52824">
        <ele>55</ele>
        <time>2021-06-21T08:27:42.543Z</time>
      </trkpt>
      <trkpt lat="43.30942" lon="-1.52812">
        <ele>55</ele>
        <time>2021-06-21T08:27:43.524Z</time>
      </trkpt>
      <trkpt lat="43.30942" lon="-1.52812">
        <ele>55</ele>
        <time>2021-06-21T08:27:44.530Z</time>
      </trkpt>
      <trkpt lat="43.30936" lon="-1.52802">
        <ele>56</ele>
        <time>2021-06-21T08:27:45.540Z</time>
      </trkpt>
      <trkpt lat="43.30936" lon="-1.52802">
        <ele>56</ele>
        <time>2021-06-21T08:27:46.551Z</time>
      </trkpt>
      <trkpt lat="43.30929" lon="-1.52792">
        <ele>56</ele>
        <time>2021-06-21T08:27:47.530Z</time>
      </trkpt>
      <trkpt lat="43.30926" lon="-1.52788">
        <ele>56</ele>
        <time>2021-06-21T08:27:48.522Z</time>
      </trkpt>
      <trkpt lat="43.30922" lon="-1.52785">
        <ele>56</ele>
        <time>2021-06-21T08:27:49.509Z</time>
      </trkpt>
      <trkpt lat="43.30917" lon="-1.52782">
        <ele>56</ele>
        <time>2021-06-21T08:27:50.528Z</time>
      </trkpt>
      <trkpt lat="43.30907" lon="-1.52774">
        <ele>55</ele>
        <time>2021-06-21T08:27:51.544Z</time>
      </trkpt>
      <trkpt lat="43.30907" lon="-1.52774">
        <ele>55</ele>
        <time>2021-06-21T08:27:52.523Z</time>
      </trkpt>
      <trkpt lat="43.30902" lon="-1.5277">
        <ele>55</ele>
        <time>2021-06-21T08:27:53.509Z</time>
      </trkpt>
      <trkpt lat="43.30897" lon="-1.52767">
        <ele>55</ele>
        <time>2021-06-21T08:27:54.542Z</time>
      </trkpt>
      <trkpt lat="43.30886" lon="-1.52761">
        <ele>55</ele>
        <time>2021-06-21T08:27:55.556Z</time>
      </trkpt>
      <trkpt lat="43.30886" lon="-1.52761">
        <ele>55</ele>
        <time>2021-06-21T08:27:56.539Z</time>
      </trkpt>
      <trkpt lat="43.3088" lon="-1.52758">
        <ele>55</ele>
        <time>2021-06-21T08:27:57.531Z</time>
      </trkpt>
      <trkpt lat="43.3088" lon="-1.52758">
        <ele>55</ele>
        <time>2021-06-21T08:27:58.544Z</time>
      </trkpt>
      <trkpt lat="43.30869" lon="-1.52753">
        <ele>55</ele>
        <time>2021-06-21T08:27:59.542Z</time>
      </trkpt>
      <trkpt lat="43.30869" lon="-1.52753">
        <ele>55</ele>
        <time>2021-06-21T08:28:00.510Z</time>
      </trkpt>
      <trkpt lat="43.30857" lon="-1.5275">
        <ele>55</ele>
        <time>2021-06-21T08:28:01.538Z</time>
      </trkpt>
      <trkpt lat="43.30857" lon="-1.5275">
        <ele>55</ele>
        <time>2021-06-21T08:28:02.545Z</time>
      </trkpt>
      <trkpt lat="43.30847" lon="-1.52748">
        <ele>55</ele>
        <time>2021-06-21T08:28:03.544Z</time>
      </trkpt>
      <trkpt lat="43.30847" lon="-1.52748">
        <ele>55</ele>
        <time>2021-06-21T08:28:04.509Z</time>
      </trkpt>
      <trkpt lat="43.30836" lon="-1.52746">
        <ele>56</ele>
        <time>2021-06-21T08:28:05.530Z</time>
      </trkpt>
      <trkpt lat="43.3083" lon="-1.52744">
        <ele>56</ele>
        <time>2021-06-21T08:28:06.515Z</time>
      </trkpt>
      <trkpt lat="43.3083" lon="-1.52744">
        <ele>56</ele>
        <time>2021-06-21T08:28:07.520Z</time>
      </trkpt>
      <trkpt lat="43.30821" lon="-1.52742">
        <ele>56</ele>
        <time>2021-06-21T08:28:08.540Z</time>
      </trkpt>
      <trkpt lat="43.30821" lon="-1.52742">
        <ele>56</ele>
        <time>2021-06-21T08:28:09.546Z</time>
      </trkpt>
      <trkpt lat="43.3081" lon="-1.52738">
        <ele>56</ele>
        <time>2021-06-21T08:28:10.525Z</time>
      </trkpt>
      <trkpt lat="43.3081" lon="-1.52738">
        <ele>56</ele>
        <time>2021-06-21T08:28:11.539Z</time>
      </trkpt>
      <trkpt lat="43.30801" lon="-1.52733">
        <ele>56</ele>
        <time>2021-06-21T08:28:12.530Z</time>
      </trkpt>
      <trkpt lat="43.30796" lon="-1.5273">
        <ele>56</ele>
        <time>2021-06-21T08:28:13.535Z</time>
      </trkpt>
      <trkpt lat="43.30796" lon="-1.5273">
        <ele>56</ele>
        <time>2021-06-21T08:28:14.546Z</time>
      </trkpt>
      <trkpt lat="43.30787" lon="-1.52723">
        <ele>56</ele>
        <time>2021-06-21T08:28:15.528Z</time>
      </trkpt>
      <trkpt lat="43.30783" lon="-1.52719">
        <ele>56</ele>
        <time>2021-06-21T08:28:16.544Z</time>
      </trkpt>
      <trkpt lat="43.30783" lon="-1.52719">
        <ele>56</ele>
        <time>2021-06-21T08:28:17.510Z</time>
      </trkpt>
      <trkpt lat="43.30774" lon="-1.52711">
        <ele>56</ele>
        <time>2021-06-21T08:28:18.533Z</time>
      </trkpt>
      <trkpt lat="43.30774" lon="-1.52711">
        <ele>56</ele>
        <time>2021-06-21T08:28:19.561Z</time>
      </trkpt>
      <trkpt lat="43.30765" lon="-1.52702">
        <ele>56</ele>
        <time>2021-06-21T08:28:20.540Z</time>
      </trkpt>
      <trkpt lat="43.30765" lon="-1.52702">
        <ele>56</ele>
        <time>2021-06-21T08:28:21.549Z</time>
      </trkpt>
      <trkpt lat="43.30756" lon="-1.52693">
        <ele>57</ele>
        <time>2021-06-21T08:28:22.513Z</time>
      </trkpt>
      <trkpt lat="43.30753" lon="-1.52689">
        <ele>56</ele>
        <time>2021-06-21T08:28:23.509Z</time>
      </trkpt>
      <trkpt lat="43.30753" lon="-1.52689">
        <ele>56</ele>
        <time>2021-06-21T08:28:24.515Z</time>
      </trkpt>
      <trkpt lat="43.30745" lon="-1.52681">
        <ele>56</ele>
        <time>2021-06-21T08:28:25.540Z</time>
      </trkpt>
      <trkpt lat="43.30745" lon="-1.52681">
        <ele>56</ele>
        <time>2021-06-21T08:28:26.567Z</time>
      </trkpt>
      <trkpt lat="43.30737" lon="-1.52672">
        <ele>55</ele>
        <time>2021-06-21T08:28:27.543Z</time>
      </trkpt>
      <trkpt lat="43.30737" lon="-1.52672">
        <ele>55</ele>
        <time>2021-06-21T08:28:28.550Z</time>
      </trkpt>
      <trkpt lat="43.30729" lon="-1.52664">
        <ele>55</ele>
        <time>2021-06-21T08:28:29.531Z</time>
      </trkpt>
      <trkpt lat="43.30729" lon="-1.52664">
        <ele>55</ele>
        <time>2021-06-21T08:28:30.546Z</time>
      </trkpt>
      <trkpt lat="43.30721" lon="-1.52656">
        <ele>55</ele>
        <time>2021-06-21T08:28:31.530Z</time>
      </trkpt>
      <trkpt lat="43.30721" lon="-1.52656">
        <ele>55</ele>
        <time>2021-06-21T08:28:32.540Z</time>
      </trkpt>
      <trkpt lat="43.30713" lon="-1.52647">
        <ele>55</ele>
        <time>2021-06-21T08:28:33.526Z</time>
      </trkpt>
      <trkpt lat="43.30713" lon="-1.52647">
        <ele>55</ele>
        <time>2021-06-21T08:28:34.533Z</time>
      </trkpt>
      <trkpt lat="43.30705" lon="-1.52638">
        <ele>55</ele>
        <time>2021-06-21T08:28:35.529Z</time>
      </trkpt>
      <trkpt lat="43.30705" lon="-1.52638">
        <ele>55</ele>
        <time>2021-06-21T08:28:36.542Z</time>
      </trkpt>
      <trkpt lat="43.30697" lon="-1.52627">
        <ele>56</ele>
        <time>2021-06-21T08:28:37.530Z</time>
      </trkpt>
      <trkpt lat="43.30697" lon="-1.52627">
        <ele>56</ele>
        <time>2021-06-21T08:28:38.537Z</time>
      </trkpt>
      <trkpt lat="43.30688" lon="-1.52619">
        <ele>56</ele>
        <time>2021-06-21T08:28:39.513Z</time>
      </trkpt>
      <trkpt lat="43.30685" lon="-1.52615">
        <ele>56</ele>
        <time>2021-06-21T08:28:40.539Z</time>
      </trkpt>
      <trkpt lat="43.30685" lon="-1.52615">
        <ele>56</ele>
        <time>2021-06-21T08:28:41.545Z</time>
      </trkpt>
      <trkpt lat="43.30677" lon="-1.52606">
        <ele>56</ele>
        <time>2021-06-21T08:28:42.521Z</time>
      </trkpt>
      <trkpt lat="43.30674" lon="-1.52601">
        <ele>56</ele>
        <time>2021-06-21T08:28:43.518Z</time>
      </trkpt>
      <trkpt lat="43.30674" lon="-1.52601">
        <ele>56</ele>
        <time>2021-06-21T08:28:44.523Z</time>
      </trkpt>
      <trkpt lat="43.30666" lon="-1.52591">
        <ele>56</ele>
        <time>2021-06-21T08:28:45.539Z</time>
      </trkpt>
      <trkpt lat="43.30666" lon="-1.52591">
        <ele>56</ele>
        <time>2021-06-21T08:28:46.548Z</time>
      </trkpt>
      <trkpt lat="43.3066" lon="-1.52577">
        <ele>56</ele>
        <time>2021-06-21T08:28:47.525Z</time>
      </trkpt>
      <trkpt lat="43.30655" lon="-1.52564">
        <ele>56</ele>
        <time>2021-06-21T08:28:48.546Z</time>
      </trkpt>
      <trkpt lat="43.30655" lon="-1.52564">
        <ele>56</ele>
        <time>2021-06-21T08:28:49.515Z</time>
      </trkpt>
      <trkpt lat="43.30655" lon="-1.52564">
        <ele>56</ele>
        <time>2021-06-21T08:28:50.520Z</time>
      </trkpt>
      <trkpt lat="43.3065" lon="-1.5255">
        <ele>56</ele>
        <time>2021-06-21T08:28:51.542Z</time>
      </trkpt>
      <trkpt lat="43.30648" lon="-1.52541">
        <ele>56</ele>
        <time>2021-06-21T08:28:52.515Z</time>
      </trkpt>
      <trkpt lat="43.30648" lon="-1.52541">
        <ele>56</ele>
        <time>2021-06-21T08:28:53.521Z</time>
      </trkpt>
      <trkpt lat="43.30644" lon="-1.52526">
        <ele>56</ele>
        <time>2021-06-21T08:28:54.546Z</time>
      </trkpt>
      <trkpt lat="43.30644" lon="-1.52518">
        <ele>56</ele>
        <time>2021-06-21T08:28:55.517Z</time>
      </trkpt>
      <trkpt lat="43.30644" lon="-1.52518">
        <ele>56</ele>
        <time>2021-06-21T08:28:56.523Z</time>
      </trkpt>
      <trkpt lat="43.30638" lon="-1.52496">
        <ele>55</ele>
        <time>2021-06-21T08:28:57.547Z</time>
      </trkpt>
      <trkpt lat="43.30638" lon="-1.52496">
        <ele>55</ele>
        <time>2021-06-21T08:28:58.515Z</time>
      </trkpt>
      <trkpt lat="43.30638" lon="-1.52496">
        <ele>55</ele>
        <time>2021-06-21T08:28:59.520Z</time>
      </trkpt>
      <trkpt lat="43.30633" lon="-1.52482">
        <ele>55</ele>
        <time>2021-06-21T08:29:00.539Z</time>
      </trkpt>
      <trkpt lat="43.3063" lon="-1.52474">
        <ele>55</ele>
        <time>2021-06-21T08:29:01.516Z</time>
      </trkpt>
      <trkpt lat="43.3063" lon="-1.52474">
        <ele>55</ele>
        <time>2021-06-21T08:29:02.521Z</time>
      </trkpt>
      <trkpt lat="43.30626" lon="-1.5246">
        <ele>55</ele>
        <time>2021-06-21T08:29:03.535Z</time>
      </trkpt>
      <trkpt lat="43.30626" lon="-1.5246">
        <ele>55</ele>
        <time>2021-06-21T08:29:04.543Z</time>
      </trkpt>
      <trkpt lat="43.30623" lon="-1.52446">
        <ele>55</ele>
        <time>2021-06-21T08:29:05.519Z</time>
      </trkpt>
      <trkpt lat="43.30623" lon="-1.52446">
        <ele>55</ele>
        <time>2021-06-21T08:29:06.525Z</time>
      </trkpt>
      <trkpt lat="43.30621" lon="-1.52432">
        <ele>55</ele>
        <time>2021-06-21T08:29:07.548Z</time>
      </trkpt>
      <trkpt lat="43.30621" lon="-1.52432">
        <ele>55</ele>
        <time>2021-06-21T08:29:08.521Z</time>
      </trkpt>
      <trkpt lat="43.3062" lon="-1.52418">
        <ele>55</ele>
        <time>2021-06-21T08:29:09.540Z</time>
      </trkpt>
      <trkpt lat="43.3062" lon="-1.52418">
        <ele>55</ele>
        <time>2021-06-21T08:29:10.545Z</time>
      </trkpt>
      <trkpt lat="43.3062" lon="-1.52405">
        <ele>56</ele>
        <time>2021-06-21T08:29:11.544Z</time>
      </trkpt>
      <trkpt lat="43.30621" lon="-1.52398">
        <ele>56</ele>
        <time>2021-06-21T08:29:12.530Z</time>
      </trkpt>
      <trkpt lat="43.30621" lon="-1.52398">
        <ele>56</ele>
        <time>2021-06-21T08:29:13.555Z</time>
      </trkpt>
      <trkpt lat="43.30622" lon="-1.52384">
        <ele>56</ele>
        <time>2021-06-21T08:29:14.532Z</time>
      </trkpt>
      <trkpt lat="43.30622" lon="-1.52384">
        <ele>56</ele>
        <time>2021-06-21T08:29:15.510Z</time>
      </trkpt>
      <trkpt lat="43.30623" lon="-1.5237">
        <ele>56</ele>
        <time>2021-06-21T08:29:16.522Z</time>
      </trkpt>
      <trkpt lat="43.30623" lon="-1.5237">
        <ele>56</ele>
        <time>2021-06-21T08:29:17.528Z</time>
      </trkpt>
      <trkpt lat="43.30623" lon="-1.52358">
        <ele>57</ele>
        <time>2021-06-21T08:29:18.510Z</time>
      </trkpt>
      <trkpt lat="43.30623" lon="-1.52358">
        <ele>57</ele>
        <time>2021-06-21T08:29:19.515Z</time>
      </trkpt>
      <trkpt lat="43.30623" lon="-1.52344">
        <ele>57</ele>
        <time>2021-06-21T08:29:20.531Z</time>
      </trkpt>
      <trkpt lat="43.30623" lon="-1.52337">
        <ele>57</ele>
        <time>2021-06-21T08:29:21.511Z</time>
      </trkpt>
      <trkpt lat="43.30623" lon="-1.52337">
        <ele>57</ele>
        <time>2021-06-21T08:29:22.548Z</time>
      </trkpt>
      <trkpt lat="43.30621" lon="-1.52324">
        <ele>57</ele>
        <time>2021-06-21T08:29:23.540Z</time>
      </trkpt>
      <trkpt lat="43.30621" lon="-1.52324">
        <ele>57</ele>
        <time>2021-06-21T08:29:24.509Z</time>
      </trkpt>
      <trkpt lat="43.30621" lon="-1.52311">
        <ele>57</ele>
        <time>2021-06-21T08:29:25.533Z</time>
      </trkpt>
      <trkpt lat="43.30621" lon="-1.52311">
        <ele>57</ele>
        <time>2021-06-21T08:29:26.543Z</time>
      </trkpt>
      <trkpt lat="43.3062" lon="-1.523">
        <ele>57</ele>
        <time>2021-06-21T08:29:27.543Z</time>
      </trkpt>
      <trkpt lat="43.3062" lon="-1.52292">
        <ele>58</ele>
        <time>2021-06-21T08:29:28.549Z</time>
      </trkpt>
      <trkpt lat="43.3062" lon="-1.52292">
        <ele>58</ele>
        <time>2021-06-21T08:29:29.525Z</time>
      </trkpt>
      <trkpt lat="43.30619" lon="-1.52288">
        <ele>58</ele>
        <time>2021-06-21T08:29:30.545Z</time>
      </trkpt>
      <trkpt lat="43.30619" lon="-1.52286">
        <ele>58</ele>
        <time>2021-06-21T08:29:31.524Z</time>
      </trkpt>
      <trkpt lat="43.30619" lon="-1.52286">
        <ele>58</ele>
        <time>2021-06-21T08:29:32.529Z</time>
      </trkpt>
      <trkpt lat="43.30619" lon="-1.52282">
        <ele>58</ele>
        <time>2021-06-21T08:29:33.514Z</time>
      </trkpt>
      <trkpt lat="43.30619" lon="-1.52281">
        <ele>58</ele>
        <time>2021-06-21T08:29:34.541Z</time>
      </trkpt>
      <trkpt lat="43.30619" lon="-1.52281">
        <ele>58</ele>
        <time>2021-06-21T08:29:35.551Z</time>
      </trkpt>
      <trkpt lat="43.3062" lon="-1.5228">
        <ele>59</ele>
        <time>2021-06-21T08:29:36.524Z</time>
      </trkpt>
      <trkpt lat="43.3062" lon="-1.52279">
        <ele>59</ele>
        <time>2021-06-21T08:29:37.529Z</time>
      </trkpt>
      <trkpt lat="43.3062" lon="-1.52279">
        <ele>59</ele>
        <time>2021-06-21T08:29:38.546Z</time>
      </trkpt>
      <trkpt lat="43.30621" lon="-1.52278">
        <ele>59</ele>
        <time>2021-06-21T08:29:39.512Z</time>
      </trkpt>
      <trkpt lat="43.30623" lon="-1.52278">
        <ele>59</ele>
        <time>2021-06-21T08:29:40.517Z</time>
      </trkpt>
      <trkpt lat="43.30623" lon="-1.52278">
        <ele>59</ele>
        <time>2021-06-21T08:29:41.512Z</time>
      </trkpt>
      <trkpt lat="43.30626" lon="-1.52279">
        <ele>60</ele>
        <time>2021-06-21T08:29:42.530Z</time>
      </trkpt>
      <trkpt lat="43.30626" lon="-1.52279">
        <ele>60</ele>
        <time>2021-06-21T08:29:43.528Z</time>
      </trkpt>
      <trkpt lat="43.30628" lon="-1.52278">
        <ele>60</ele>
        <time>2021-06-21T08:29:44.538Z</time>
      </trkpt>
      <trkpt lat="43.30628" lon="-1.52278">
        <ele>60</ele>
        <time>2021-06-21T08:29:45.547Z</time>
      </trkpt>
      <trkpt lat="43.30629" lon="-1.52277">
        <ele>61</ele>
        <time>2021-06-21T08:29:46.525Z</time>
      </trkpt>
      <trkpt lat="43.30629" lon="-1.52277">
        <ele>61</ele>
        <time>2021-06-21T08:29:47.531Z</time>
      </trkpt>
      <trkpt lat="43.30629" lon="-1.52278">
        <ele>61</ele>
        <time>2021-06-21T08:29:48.528Z</time>
      </trkpt>
      <trkpt lat="43.30629" lon="-1.52278">
        <ele>61</ele>
        <time>2021-06-21T08:29:49.540Z</time>
      </trkpt>
      <trkpt lat="43.30629" lon="-1.52278">
        <ele>61</ele>
        <time>2021-06-21T08:29:50.545Z</time>
      </trkpt>
      <trkpt lat="43.30629" lon="-1.52278">
        <ele>61</ele>
        <time>2021-06-21T08:29:51.513Z</time>
      </trkpt>
      <trkpt lat="43.30629" lon="-1.52278">
        <ele>61</ele>
        <time>2021-06-21T08:29:52.518Z</time>
      </trkpt>
      <trkpt lat="43.30629" lon="-1.52278">
        <ele>61</ele>
        <time>2021-06-21T08:29:53.516Z</time>
      </trkpt>
      <trkpt lat="43.30629" lon="-1.52278">
        <ele>61</ele>
        <time>2021-06-21T08:29:54.510Z</time>
      </trkpt>
      <trkpt lat="43.30629" lon="-1.52278">
        <ele>61</ele>
        <time>2021-06-21T08:29:55.526Z</time>
      </trkpt>
      <trkpt lat="43.30629" lon="-1.52278">
        <ele>61</ele>
        <time>2021-06-21T08:29:56.553Z</time>
      </trkpt>
      <trkpt lat="43.30629" lon="-1.52278">
        <ele>61</ele>
        <time>2021-06-21T08:29:57.551Z</time>
      </trkpt>
      <trkpt lat="43.30629" lon="-1.52278">
        <ele>61</ele>
        <time>2021-06-21T08:29:58.528Z</time>
      </trkpt>
      <trkpt lat="43.30629" lon="-1.52278">
        <ele>61</ele>
        <time>2021-06-21T08:29:59.548Z</time>
      </trkpt>
      <trkpt lat="43.30629" lon="-1.52278">
        <ele>61</ele>
        <time>2021-06-21T08:30:00.531Z</time>
      </trkpt>
      <trkpt lat="43.30629" lon="-1.52278">
        <ele>61</ele>
        <time>2021-06-21T08:30:01.548Z</time>
      </trkpt>
      <trkpt lat="43.30629" lon="-1.52278">
        <ele>61</ele>
        <time>2021-06-21T08:30:02.553Z</time>
      </trkpt>
      <trkpt lat="43.30629" lon="-1.52278">
        <ele>61</ele>
        <time>2021-06-21T08:30:03.551Z</time>
      </trkpt>
      <trkpt lat="43.30629" lon="-1.52278">
        <ele>61</ele>
        <time>2021-06-21T08:30:04.529Z</time>
      </trkpt>
      <trkpt lat="43.30629" lon="-1.52278">
        <ele>61</ele>
        <time>2021-06-21T08:30:05.549Z</time>
      </trkpt>
      <trkpt lat="43.30629" lon="-1.52278">
        <ele>61</ele>
        <time>2021-06-21T08:30:06.529Z</time>
      </trkpt>
      <trkpt lat="43.30629" lon="-1.52278">
        <ele>61</ele>
        <time>2021-06-21T08:30:07.548Z</time>
      </trkpt>
      <trkpt lat="43.30629" lon="-1.52278">
        <ele>61</ele>
        <time>2021-06-21T08:30:08.554Z</time>
      </trkpt>
      <trkpt lat="43.30629" lon="-1.52278">
        <ele>61</ele>
        <time>2021-06-21T08:30:09.548Z</time>
      </trkpt>
      <trkpt lat="43.30629" lon="-1.52278">
        <ele>61</ele>
        <time>2021-06-21T08:30:10.529Z</time>
      </trkpt>
      <trkpt lat="43.30629" lon="-1.52278">
        <ele>61</ele>
        <time>2021-06-21T08:30:11.548Z</time>
      </trkpt>
      <trkpt lat="43.30629" lon="-1.52278">
        <ele>61</ele>
        <time>2021-06-21T08:30:12.527Z</time>
      </trkpt>
      <trkpt lat="43.30629" lon="-1.52278">
        <ele>61</ele>
        <time>2021-06-21T08:30:13.548Z</time>
      </trkpt>
      <trkpt lat="43.30629" lon="-1.52278">
        <ele>61</ele>
        <time>2021-06-21T08:30:14.554Z</time>
      </trkpt>
      <trkpt lat="43.30629" lon="-1.52278">
        <ele>61</ele>
        <time>2021-06-21T08:30:15.548Z</time>
      </trkpt>
      <trkpt lat="43.30629" lon="-1.52278">
        <ele>61</ele>
        <time>2021-06-21T08:30:16.550Z</time>
      </trkpt>
      <trkpt lat="43.30629" lon="-1.52278">
        <ele>61</ele>
        <time>2021-06-21T08:30:17.554Z</time>
      </trkpt>
      <trkpt lat="43.30629" lon="-1.52278">
        <ele>61</ele>
        <time>2021-06-21T08:30:18.553Z</time>
      </trkpt>
      <trkpt lat="43.30629" lon="-1.52278">
        <ele>61</ele>
        <time>2021-06-21T08:30:19.548Z</time>
      </trkpt>
      <trkpt lat="43.30629" lon="-1.52278">
        <ele>61</ele>
        <time>2021-06-21T08:30:20.553Z</time>
      </trkpt>
      <trkpt lat="43.30629" lon="-1.52278">
        <ele>61</ele>
        <time>2021-06-21T08:30:21.548Z</time>
      </trkpt>
      <trkpt lat="43.30629" lon="-1.52278">
        <ele>61</ele>
        <time>2021-06-21T08:30:22.553Z</time>
      </trkpt>
      <trkpt lat="43.30629" lon="-1.52278">
        <ele>61</ele>
        <time>2021-06-21T08:30:23.548Z</time>
      </trkpt>
      <trkpt lat="43.30629" lon="-1.52278">
        <ele>61</ele>
        <time>2021-06-21T08:30:24.528Z</time>
      </trkpt>
      <trkpt lat="43.30629" lon="-1.52278">
        <ele>61</ele>
        <time>2021-06-21T08:30:25.548Z</time>
      </trkpt>
      <trkpt lat="43.30629" lon="-1.52278">
        <ele>61</ele>
        <time>2021-06-21T08:30:26.554Z</time>
      </trkpt>
      <trkpt lat="43.30629" lon="-1.52278">
        <ele>61</ele>
        <time>2021-06-21T08:30:27.549Z</time>
      </trkpt>
      <trkpt lat="43.30629" lon="-1.52278">
        <ele>61</ele>
        <time>2021-06-21T08:30:28.528Z</time>
      </trkpt>
      <trkpt lat="43.30629" lon="-1.52278">
        <ele>61</ele>
        <time>2021-06-21T08:30:29.548Z</time>
      </trkpt>
      <trkpt lat="43.30629" lon="-1.52278">
        <ele>61</ele>
        <time>2021-06-21T08:30:30.529Z</time>
      </trkpt>
      <trkpt lat="43.30629" lon="-1.52278">
        <ele>61</ele>
        <time>2021-06-21T08:30:31.548Z</time>
      </trkpt>
      <trkpt lat="43.30629" lon="-1.52278">
        <ele>61</ele>
        <time>2021-06-21T08:30:32.554Z</time>
      </trkpt>
      <trkpt lat="43.30629" lon="-1.52278">
        <ele>61</ele>
        <time>2021-06-21T08:30:33.549Z</time>
      </trkpt>
      <trkpt lat="43.30629" lon="-1.52278">
        <ele>61</ele>
        <time>2021-06-21T08:30:34.529Z</time>
      </trkpt>
      <trkpt lat="43.30629" lon="-1.52278">
        <ele>61</ele>
        <time>2021-06-21T08:30:35.522Z</time>
      </trkpt>
      <trkpt lat="43.30629" lon="-1.52278">
        <ele>61</ele>
        <time>2021-06-21T08:30:36.518Z</time>
      </trkpt>
      <trkpt lat="43.30629" lon="-1.52278">
        <ele>61</ele>
        <time>2021-06-21T08:30:37.549Z</time>
      </trkpt>
      <trkpt lat="43.30629" lon="-1.52278">
        <ele>61</ele>
        <time>2021-06-21T08:30:38.554Z</time>
      </trkpt>
      <trkpt lat="43.30629" lon="-1.52278">
        <ele>61</ele>
        <time>2021-06-21T08:30:39.517Z</time>
      </trkpt>
      <trkpt lat="43.30629" lon="-1.52278">
        <ele>61</ele>
        <time>2021-06-21T08:30:40.524Z</time>
      </trkpt>
      <trkpt lat="43.30629" lon="-1.52278">
        <ele>61</ele>
        <time>2021-06-21T08:30:41.521Z</time>
      </trkpt>
      <trkpt lat="43.30629" lon="-1.52278">
        <ele>61</ele>
        <time>2021-06-21T08:30:42.517Z</time>
      </trkpt>
      <trkpt lat="43.30629" lon="-1.52278">
        <ele>61</ele>
        <time>2021-06-21T08:30:43.548Z</time>
      </trkpt>
      <trkpt lat="43.30629" lon="-1.52278">
        <ele>61</ele>
        <time>2021-06-21T08:30:44.553Z</time>
      </trkpt>
      <trkpt lat="43.30629" lon="-1.52278">
        <ele>61</ele>
        <time>2021-06-21T08:30:45.548Z</time>
      </trkpt>
      <trkpt lat="43.30629" lon="-1.52278">
        <ele>61</ele>
        <time>2021-06-21T08:30:46.554Z</time>
      </trkpt>
      <trkpt lat="43.30629" lon="-1.52278">
        <ele>61</ele>
        <time>2021-06-21T08:30:47.549Z</time>
      </trkpt>
      <trkpt lat="43.30629" lon="-1.52278">
        <ele>61</ele>
        <time>2021-06-21T08:30:48.527Z</time>
      </trkpt>
      <trkpt lat="43.30629" lon="-1.52278">
        <ele>61</ele>
        <time>2021-06-21T08:30:49.548Z</time>
      </trkpt>
      <trkpt lat="43.30629" lon="-1.52278">
        <ele>61</ele>
        <time>2021-06-21T08:30:50.554Z</time>
      </trkpt>
      <trkpt lat="43.30629" lon="-1.52278">
        <ele>61</ele>
        <time>2021-06-21T08:30:51.548Z</time>
      </trkpt>
      <trkpt lat="43.30629" lon="-1.52278">
        <ele>61</ele>
        <time>2021-06-21T08:30:52.527Z</time>
      </trkpt>
      <trkpt lat="43.30629" lon="-1.52278">
        <ele>61</ele>
        <time>2021-06-21T08:30:53.549Z</time>
      </trkpt>
      <trkpt lat="43.30629" lon="-1.52278">
        <ele>61</ele>
        <time>2021-06-21T08:30:54.528Z</time>
      </trkpt>
      <trkpt lat="43.30629" lon="-1.52278">
        <ele>61</ele>
        <time>2021-06-21T08:30:55.549Z</time>
      </trkpt>
      <trkpt lat="43.30629" lon="-1.52278">
        <ele>61</ele>
        <time>2021-06-21T08:30:56.554Z</time>
      </trkpt>
      <trkpt lat="43.30629" lon="-1.52278">
        <ele>61</ele>
        <time>2021-06-21T08:30:57.548Z</time>
      </trkpt>
      <trkpt lat="43.30629" lon="-1.52278">
        <ele>61</ele>
        <time>2021-06-21T08:30:58.528Z</time>
      </trkpt>
      <trkpt lat="43.30629" lon="-1.52278">
        <ele>61</ele>
        <time>2021-06-21T08:30:59.549Z</time>
      </trkpt>
      <trkpt lat="43.30629" lon="-1.52278">
        <ele>61</ele>
        <time>2021-06-21T08:31:00.557Z</time>
      </trkpt>
      <trkpt lat="43.30629" lon="-1.52278">
        <ele>61</ele>
        <time>2021-06-21T08:31:01.549Z</time>
      </trkpt>
      <trkpt lat="43.30629" lon="-1.52278">
        <ele>61</ele>
        <time>2021-06-21T08:31:02.554Z</time>
      </trkpt>
      <trkpt lat="43.30629" lon="-1.52278">
        <ele>61</ele>
        <time>2021-06-21T08:31:03.549Z</time>
      </trkpt>
      <trkpt lat="43.30629" lon="-1.52278">
        <ele>61</ele>
        <time>2021-06-21T08:31:04.528Z</time>
      </trkpt>
      <trkpt lat="43.30629" lon="-1.52278">
        <ele>61</ele>
        <time>2021-06-21T08:31:05.545Z</time>
      </trkpt>
      <trkpt lat="43.30629" lon="-1.52278">
        <ele>61</ele>
        <time>2021-06-21T08:31:06.528Z</time>
      </trkpt>
      <trkpt lat="43.30629" lon="-1.52278">
        <ele>61</ele>
        <time>2021-06-21T08:31:07.549Z</time>
      </trkpt>
      <trkpt lat="43.30629" lon="-1.52278">
        <ele>61</ele>
        <time>2021-06-21T08:31:08.555Z</time>
      </trkpt>
      <trkpt lat="43.30629" lon="-1.52278">
        <ele>61</ele>
        <time>2021-06-21T08:31:09.545Z</time>
      </trkpt>
      <trkpt lat="43.30629" lon="-1.52278">
        <ele>61</ele>
        <time>2021-06-21T08:31:10.517Z</time>
      </trkpt>
      <trkpt lat="43.30629" lon="-1.52278">
        <ele>61</ele>
        <time>2021-06-21T08:31:11.549Z</time>
      </trkpt>
      <trkpt lat="43.30629" lon="-1.52278">
        <ele>61</ele>
        <time>2021-06-21T08:31:12.528Z</time>
      </trkpt>
      <trkpt lat="43.30629" lon="-1.52278">
        <ele>61</ele>
        <time>2021-06-21T08:31:13.549Z</time>
      </trkpt>
      <trkpt lat="43.30629" lon="-1.52278">
        <ele>61</ele>
        <time>2021-06-21T08:31:14.554Z</time>
      </trkpt>
      <trkpt lat="43.30629" lon="-1.52278">
        <ele>61</ele>
        <time>2021-06-21T08:31:15.548Z</time>
      </trkpt>
      <trkpt lat="43.30629" lon="-1.52278">
        <ele>61</ele>
        <time>2021-06-21T08:31:16.530Z</time>
      </trkpt>
      <trkpt lat="43.30629" lon="-1.52278">
        <ele>61</ele>
        <time>2021-06-21T08:31:17.549Z</time>
      </trkpt>
      <trkpt lat="43.30629" lon="-1.52278">
        <ele>61</ele>
        <time>2021-06-21T08:31:18.528Z</time>
      </trkpt>
      <trkpt lat="43.30629" lon="-1.52278">
        <ele>61</ele>
        <time>2021-06-21T08:31:19.545Z</time>
      </trkpt>
      <trkpt lat="43.30629" lon="-1.52278">
        <ele>61</ele>
        <time>2021-06-21T08:31:20.518Z</time>
      </trkpt>
      <trkpt lat="43.30629" lon="-1.52278">
        <ele>61</ele>
        <time>2021-06-21T08:31:21.527Z</time>
      </trkpt>
      <trkpt lat="43.30629" lon="-1.52278">
        <ele>61</ele>
        <time>2021-06-21T08:31:22.532Z</time>
      </trkpt>
      <trkpt lat="43.30629" lon="-1.52278">
        <ele>61</ele>
        <time>2021-06-21T08:31:23.512Z</time>
      </trkpt>
      <trkpt lat="43.30629" lon="-1.52278">
        <ele>61</ele>
        <time>2021-06-21T08:31:24.517Z</time>
      </trkpt>
      <trkpt lat="43.30629" lon="-1.52278">
        <ele>61</ele>
        <time>2021-06-21T08:31:25.523Z</time>
      </trkpt>
      <trkpt lat="43.30629" lon="-1.52278">
        <ele>61</ele>
        <time>2021-06-21T08:31:26.528Z</time>
      </trkpt>
      <trkpt lat="43.30629" lon="-1.52278">
        <ele>61</ele>
        <time>2021-06-21T08:31:27.509Z</time>
      </trkpt>
      <trkpt lat="43.30629" lon="-1.52278">
        <ele>61</ele>
        <time>2021-06-21T08:31:28.526Z</time>
      </trkpt>
      <trkpt lat="43.30629" lon="-1.52278">
        <ele>61</ele>
        <time>2021-06-21T08:31:29.550Z</time>
      </trkpt>
      <trkpt lat="43.30629" lon="-1.52278">
        <ele>61</ele>
        <time>2021-06-21T08:31:30.556Z</time>
      </trkpt>
      <trkpt lat="43.30629" lon="-1.52278">
        <ele>61</ele>
        <time>2021-06-21T08:31:31.550Z</time>
      </trkpt>
      <trkpt lat="43.30629" lon="-1.52278">
        <ele>61</ele>
        <time>2021-06-21T08:31:32.555Z</time>
      </trkpt>
      <trkpt lat="43.30629" lon="-1.52278">
        <ele>61</ele>
        <time>2021-06-21T08:31:33.549Z</time>
      </trkpt>
      <trkpt lat="43.30629" lon="-1.52278">
        <ele>61</ele>
        <time>2021-06-21T08:31:34.530Z</time>
      </trkpt>
      <trkpt lat="43.30629" lon="-1.52278">
        <ele>61</ele>
        <time>2021-06-21T08:31:35.555Z</time>
      </trkpt>
      <trkpt lat="43.30629" lon="-1.52278">
        <ele>61</ele>
        <time>2021-06-21T08:31:36.552Z</time>
      </trkpt>
      <trkpt lat="43.30629" lon="-1.52278">
        <ele>61</ele>
        <time>2021-06-21T08:31:37.554Z</time>
      </trkpt>
      <trkpt lat="43.30629" lon="-1.52278">
        <ele>61</ele>
        <time>2021-06-21T08:31:38.511Z</time>
      </trkpt>
      <trkpt lat="43.30629" lon="-1.52278">
        <ele>61</ele>
        <time>2021-06-21T08:31:39.526Z</time>
      </trkpt>
      <trkpt lat="43.30629" lon="-1.52278">
        <ele>61</ele>
        <time>2021-06-21T08:31:40.550Z</time>
      </trkpt>
      <trkpt lat="43.30629" lon="-1.52278">
        <ele>61</ele>
        <time>2021-06-21T08:31:41.554Z</time>
      </trkpt>
      <trkpt lat="43.30629" lon="-1.52278">
        <ele>61</ele>
        <time>2021-06-21T08:31:42.557Z</time>
      </trkpt>
      <trkpt lat="43.30629" lon="-1.52278">
        <ele>61</ele>
        <time>2021-06-21T08:31:43.550Z</time>
      </trkpt>
      <trkpt lat="43.30629" lon="-1.52278">
        <ele>61</ele>
        <time>2021-06-21T08:31:44.530Z</time>
      </trkpt>
      <trkpt lat="43.30629" lon="-1.52278">
        <ele>61</ele>
        <time>2021-06-21T08:31:45.518Z</time>
      </trkpt>
      <trkpt lat="43.30629" lon="-1.52278">
        <ele>61</ele>
        <time>2021-06-21T08:31:46.512Z</time>
      </trkpt>
      <trkpt lat="43.30629" lon="-1.52278">
        <ele>61</ele>
        <time>2021-06-21T08:31:47.528Z</time>
      </trkpt>
      <trkpt lat="43.30629" lon="-1.52278">
        <ele>61</ele>
        <time>2021-06-21T08:31:48.557Z</time>
      </trkpt>
      <trkpt lat="43.30629" lon="-1.52278">
        <ele>61</ele>
        <time>2021-06-21T08:31:49.550Z</time>
      </trkpt>
      <trkpt lat="43.30629" lon="-1.52278">
        <ele>61</ele>
        <time>2021-06-21T08:31:50.535Z</time>
      </trkpt>
      <trkpt lat="43.30629" lon="-1.52278">
        <ele>61</ele>
        <time>2021-06-21T08:31:51.550Z</time>
      </trkpt>
      <trkpt lat="43.30629" lon="-1.52278">
        <ele>61</ele>
        <time>2021-06-21T08:31:52.549Z</time>
      </trkpt>
      <trkpt lat="43.30629" lon="-1.52278">
        <ele>61</ele>
        <time>2021-06-21T08:31:53.549Z</time>
      </trkpt>
      <trkpt lat="43.30629" lon="-1.52278">
        <ele>61</ele>
        <time>2021-06-21T08:31:54.529Z</time>
      </trkpt>
      <trkpt lat="43.30629" lon="-1.52278">
        <ele>61</ele>
        <time>2021-06-21T08:31:55.550Z</time>
      </trkpt>
      <trkpt lat="43.30629" lon="-1.52278">
        <ele>61</ele>
        <time>2021-06-21T08:31:56.554Z</time>
      </trkpt>
      <trkpt lat="43.30629" lon="-1.52278">
        <ele>61</ele>
        <time>2021-06-21T08:31:57.556Z</time>
      </trkpt>
      <trkpt lat="43.30629" lon="-1.52278">
        <ele>61</ele>
        <time>2021-06-21T08:31:58.550Z</time>
      </trkpt>
      <trkpt lat="43.30629" lon="-1.52278">
        <ele>61</ele>
        <time>2021-06-21T08:31:59.529Z</time>
      </trkpt>
      <trkpt lat="43.30629" lon="-1.52278">
        <ele>61</ele>
        <time>2021-06-21T08:32:00.558Z</time>
      </trkpt>
      <trkpt lat="43.30629" lon="-1.52278">
        <ele>61</ele>
        <time>2021-06-21T08:32:01.550Z</time>
      </trkpt>
      <trkpt lat="43.30629" lon="-1.52278">
        <ele>61</ele>
        <time>2021-06-21T08:32:02.610Z</time>
      </trkpt>
      <trkpt lat="43.30629" lon="-1.52278">
        <ele>61</ele>
        <time>2021-06-21T08:32:03.511Z</time>
      </trkpt>
      <trkpt lat="43.30629" lon="-1.52278">
        <ele>61</ele>
        <time>2021-06-21T08:32:04.526Z</time>
      </trkpt>
      <trkpt lat="43.30629" lon="-1.52278">
        <ele>61</ele>
        <time>2021-06-21T08:32:05.550Z</time>
      </trkpt>
      <trkpt lat="43.30629" lon="-1.52278">
        <ele>61</ele>
        <time>2021-06-21T08:32:06.529Z</time>
      </trkpt>
      <trkpt lat="43.30629" lon="-1.52278">
        <ele>61</ele>
        <time>2021-06-21T08:32:07.550Z</time>
      </trkpt>
      <trkpt lat="43.30629" lon="-1.52278">
        <ele>61</ele>
        <time>2021-06-21T08:32:08.529Z</time>
      </trkpt>
      <trkpt lat="43.30629" lon="-1.52278">
        <ele>61</ele>
        <time>2021-06-21T08:32:09.555Z</time>
      </trkpt>
      <trkpt lat="43.30629" lon="-1.52278">
        <ele>61</ele>
        <time>2021-06-21T08:32:10.549Z</time>
      </trkpt>
      <trkpt lat="43.30629" lon="-1.52278">
        <ele>61</ele>
        <time>2021-06-21T08:32:11.529Z</time>
      </trkpt>
      <trkpt lat="43.30629" lon="-1.52278">
        <ele>61</ele>
        <time>2021-06-21T08:32:12.557Z</time>
      </trkpt>
      <trkpt lat="43.30629" lon="-1.52278">
        <ele>61</ele>
        <time>2021-06-21T08:32:13.550Z</time>
      </trkpt>
      <trkpt lat="43.30629" lon="-1.52278">
        <ele>61</ele>
        <time>2021-06-21T08:32:14.553Z</time>
      </trkpt>
      <trkpt lat="43.30629" lon="-1.52278">
        <ele>61</ele>
        <time>2021-06-21T08:32:15.549Z</time>
      </trkpt>
      <trkpt lat="43.30629" lon="-1.52278">
        <ele>61</ele>
        <time>2021-06-21T08:32:16.528Z</time>
      </trkpt>
      <trkpt lat="43.30629" lon="-1.52278">
        <ele>61</ele>
        <time>2021-06-21T08:32:17.550Z</time>
      </trkpt>
      <trkpt lat="43.30629" lon="-1.52278">
        <ele>61</ele>
        <time>2021-06-21T08:32:18.529Z</time>
      </trkpt>
      <trkpt lat="43.30629" lon="-1.52278">
        <ele>61</ele>
        <time>2021-06-21T08:32:19.550Z</time>
      </trkpt>
      <trkpt lat="43.30629" lon="-1.52278">
        <ele>61</ele>
        <time>2021-06-21T08:32:20.553Z</time>
      </trkpt>
      <trkpt lat="43.30629" lon="-1.52278">
        <ele>61</ele>
        <time>2021-06-21T08:32:21.551Z</time>
      </trkpt>
      <trkpt lat="43.30629" lon="-1.52278">
        <ele>61</ele>
        <time>2021-06-21T08:32:22.553Z</time>
      </trkpt>
      <trkpt lat="43.30629" lon="-1.52278">
        <ele>61</ele>
        <time>2021-06-21T08:32:23.527Z</time>
      </trkpt>
      <trkpt lat="43.30629" lon="-1.52278">
        <ele>61</ele>
        <time>2021-06-21T08:32:24.550Z</time>
      </trkpt>
      <trkpt lat="43.30629" lon="-1.52278">
        <ele>61</ele>
        <time>2021-06-21T08:32:25.531Z</time>
      </trkpt>
      <trkpt lat="43.30629" lon="-1.52278">
        <ele>61</ele>
        <time>2021-06-21T08:32:26.513Z</time>
      </trkpt>
      <trkpt lat="43.30629" lon="-1.52278">
        <ele>61</ele>
        <time>2021-06-21T08:32:27.531Z</time>
      </trkpt>
      <trkpt lat="43.30629" lon="-1.52278">
        <ele>61</ele>
        <time>2021-06-21T08:32:28.551Z</time>
      </trkpt>
      <trkpt lat="43.30629" lon="-1.52278">
        <ele>61</ele>
        <time>2021-06-21T08:32:29.531Z</time>
      </trkpt>
      <trkpt lat="43.30629" lon="-1.52278">
        <ele>61</ele>
        <time>2021-06-21T08:32:30.553Z</time>
      </trkpt>
      <trkpt lat="43.30629" lon="-1.52278">
        <ele>61</ele>
        <time>2021-06-21T08:32:31.553Z</time>
      </trkpt>
      <trkpt lat="43.30629" lon="-1.52278">
        <ele>61</ele>
        <time>2021-06-21T08:32:32.553Z</time>
      </trkpt>
      <trkpt lat="43.30629" lon="-1.52278">
        <ele>61</ele>
        <time>2021-06-21T08:32:33.512Z</time>
      </trkpt>
      <trkpt lat="43.30629" lon="-1.52278">
        <ele>61</ele>
        <time>2021-06-21T08:32:34.530Z</time>
      </trkpt>
      <trkpt lat="43.30629" lon="-1.52278">
        <ele>61</ele>
        <time>2021-06-21T08:32:35.551Z</time>
      </trkpt>
      <trkpt lat="43.30629" lon="-1.52278">
        <ele>61</ele>
        <time>2021-06-21T08:32:36.532Z</time>
      </trkpt>
      <trkpt lat="43.30629" lon="-1.52278">
        <ele>61</ele>
        <time>2021-06-21T08:32:37.550Z</time>
      </trkpt>
      <trkpt lat="43.30629" lon="-1.52278">
        <ele>61</ele>
        <time>2021-06-21T08:32:38.530Z</time>
      </trkpt>
      <trkpt lat="43.30629" lon="-1.52278">
        <ele>61</ele>
        <time>2021-06-21T08:32:39.511Z</time>
      </trkpt>
      <trkpt lat="43.30629" lon="-1.52278">
        <ele>61</ele>
        <time>2021-06-21T08:32:40.535Z</time>
      </trkpt>
      <trkpt lat="43.30629" lon="-1.52278">
        <ele>61</ele>
        <time>2021-06-21T08:32:41.550Z</time>
      </trkpt>
      <trkpt lat="43.30629" lon="-1.52278">
        <ele>61</ele>
        <time>2021-06-21T08:32:42.530Z</time>
      </trkpt>
      <trkpt lat="43.30629" lon="-1.52278">
        <ele>61</ele>
        <time>2021-06-21T08:32:43.551Z</time>
      </trkpt>
      <trkpt lat="43.30629" lon="-1.52278">
        <ele>61</ele>
        <time>2021-06-21T08:32:44.531Z</time>
      </trkpt>
      <trkpt lat="43.30629" lon="-1.52278">
        <ele>61</ele>
        <time>2021-06-21T08:32:45.523Z</time>
      </trkpt>
      <trkpt lat="43.30629" lon="-1.52278">
        <ele>61</ele>
        <time>2021-06-21T08:32:46.530Z</time>
      </trkpt>
      <trkpt lat="43.30629" lon="-1.52278">
        <ele>61</ele>
        <time>2021-06-21T08:32:47.528Z</time>
      </trkpt>
      <trkpt lat="43.30629" lon="-1.52278">
        <ele>61</ele>
        <time>2021-06-21T08:32:48.559Z</time>
      </trkpt>
      <trkpt lat="43.30629" lon="-1.52278">
        <ele>61</ele>
        <time>2021-06-21T08:32:49.551Z</time>
      </trkpt>
      <trkpt lat="43.30629" lon="-1.52278">
        <ele>61</ele>
        <time>2021-06-21T08:32:50.512Z</time>
      </trkpt>
      <trkpt lat="43.30629" lon="-1.52278">
        <ele>61</ele>
        <time>2021-06-21T08:32:51.551Z</time>
      </trkpt>
      <trkpt lat="43.30629" lon="-1.52278">
        <ele>61</ele>
        <time>2021-06-21T08:32:52.530Z</time>
      </trkpt>
      <trkpt lat="43.30629" lon="-1.52278">
        <ele>61</ele>
        <time>2021-06-21T08:32:53.553Z</time>
      </trkpt>
      <trkpt lat="43.30629" lon="-1.52278">
        <ele>61</ele>
        <time>2021-06-21T08:32:54.558Z</time>
      </trkpt>
      <trkpt lat="43.30629" lon="-1.52278">
        <ele>61</ele>
        <time>2021-06-21T08:32:55.550Z</time>
      </trkpt>
      <trkpt lat="43.30629" lon="-1.52278">
        <ele>61</ele>
        <time>2021-06-21T08:32:56.541Z</time>
      </trkpt>
      <trkpt lat="43.30629" lon="-1.52278">
        <ele>61</ele>
        <time>2021-06-21T08:32:57.531Z</time>
      </trkpt>
      <trkpt lat="43.30629" lon="-1.52278">
        <ele>61</ele>
        <time>2021-06-21T08:32:58.530Z</time>
      </trkpt>
      <trkpt lat="43.30629" lon="-1.52278">
        <ele>61</ele>
        <time>2021-06-21T08:32:59.542Z</time>
      </trkpt>
      <trkpt lat="43.30629" lon="-1.52278">
        <ele>61</ele>
        <time>2021-06-21T08:33:00.511Z</time>
      </trkpt>
      <trkpt lat="43.30629" lon="-1.52278">
        <ele>61</ele>
        <time>2021-06-21T08:33:01.517Z</time>
      </trkpt>
      <trkpt lat="43.30629" lon="-1.52278">
        <ele>61</ele>
        <time>2021-06-21T08:33:02.556Z</time>
      </trkpt>
      <trkpt lat="43.30629" lon="-1.52278">
        <ele>61</ele>
        <time>2021-06-21T08:33:03.550Z</time>
      </trkpt>
      <trkpt lat="43.30629" lon="-1.52278">
        <ele>61</ele>
        <time>2021-06-21T08:33:04.553Z</time>
      </trkpt>
      <trkpt lat="43.30629" lon="-1.52278">
        <ele>61</ele>
        <time>2021-06-21T08:33:05.551Z</time>
      </trkpt>
      <trkpt lat="43.30629" lon="-1.52278">
        <ele>61</ele>
        <time>2021-06-21T08:33:06.530Z</time>
      </trkpt>
      <trkpt lat="43.30629" lon="-1.52278">
        <ele>61</ele>
        <time>2021-06-21T08:33:07.550Z</time>
      </trkpt>
      <trkpt lat="43.30629" lon="-1.52278">
        <ele>61</ele>
        <time>2021-06-21T08:33:08.556Z</time>
      </trkpt>
      <trkpt lat="43.30629" lon="-1.52278">
        <ele>61</ele>
        <time>2021-06-21T08:33:09.551Z</time>
      </trkpt>
      <trkpt lat="43.30629" lon="-1.52278">
        <ele>61</ele>
        <time>2021-06-21T08:33:10.530Z</time>
      </trkpt>
      <trkpt lat="43.30629" lon="-1.52278">
        <ele>61</ele>
        <time>2021-06-21T08:33:11.536Z</time>
      </trkpt>
      <trkpt lat="43.30629" lon="-1.52278">
        <ele>61</ele>
        <time>2021-06-21T08:33:12.554Z</time>
      </trkpt>
      <trkpt lat="43.30629" lon="-1.52278">
        <ele>61</ele>
        <time>2021-06-21T08:33:13.532Z</time>
      </trkpt>
      <trkpt lat="43.30629" lon="-1.52278">
        <ele>61</ele>
        <time>2021-06-21T08:33:14.512Z</time>
      </trkpt>
      <trkpt lat="43.30629" lon="-1.52278">
        <ele>61</ele>
        <time>2021-06-21T08:33:15.528Z</time>
      </trkpt>
      <trkpt lat="43.30629" lon="-1.52278">
        <ele>61</ele>
        <time>2021-06-21T08:33:16.536Z</time>
      </trkpt>
      <trkpt lat="43.30629" lon="-1.52278">
        <ele>61</ele>
        <time>2021-06-21T08:33:17.551Z</time>
      </trkpt>
      <trkpt lat="43.30629" lon="-1.52278">
        <ele>61</ele>
        <time>2021-06-21T08:33:18.529Z</time>
      </trkpt>
      <trkpt lat="43.30629" lon="-1.52278">
        <ele>61</ele>
        <time>2021-06-21T08:33:19.551Z</time>
      </trkpt>
      <trkpt lat="43.30629" lon="-1.52278">
        <ele>61</ele>
        <time>2021-06-21T08:33:20.530Z</time>
      </trkpt>
      <trkpt lat="43.30629" lon="-1.52278">
        <ele>61</ele>
        <time>2021-06-21T08:33:21.551Z</time>
      </trkpt>
      <trkpt lat="43.30629" lon="-1.52278">
        <ele>61</ele>
        <time>2021-06-21T08:33:22.524Z</time>
      </trkpt>
      <trkpt lat="43.30629" lon="-1.52278">
        <ele>61</ele>
        <time>2021-06-21T08:33:23.536Z</time>
      </trkpt>
      <trkpt lat="43.30629" lon="-1.52278">
        <ele>61</ele>
        <time>2021-06-21T08:33:24.510Z</time>
      </trkpt>
      <trkpt lat="43.30629" lon="-1.52278">
        <ele>61</ele>
        <time>2021-06-21T08:33:25.516Z</time>
      </trkpt>
      <trkpt lat="43.30629" lon="-1.52278">
        <ele>61</ele>
        <time>2021-06-21T08:33:26.521Z</time>
      </trkpt>
      <trkpt lat="43.30629" lon="-1.52278">
        <ele>61</ele>
        <time>2021-06-21T08:33:27.564Z</time>
      </trkpt>
      <trkpt lat="43.30629" lon="-1.52278">
        <ele>61</ele>
        <time>2021-06-21T08:33:28.554Z</time>
      </trkpt>
      <trkpt lat="43.30629" lon="-1.52278">
        <ele>61</ele>
        <time>2021-06-21T08:33:29.554Z</time>
      </trkpt>
      <trkpt lat="43.30629" lon="-1.52278">
        <ele>61</ele>
        <time>2021-06-21T08:33:30.564Z</time>
      </trkpt>
      <trkpt lat="43.30629" lon="-1.52278">
        <ele>61</ele>
        <time>2021-06-21T08:33:31.522Z</time>
      </trkpt>
      <trkpt lat="43.30629" lon="-1.52278">
        <ele>61</ele>
        <time>2021-06-21T08:33:32.514Z</time>
      </trkpt>
      <trkpt lat="43.30629" lon="-1.52278">
        <ele>61</ele>
        <time>2021-06-21T08:33:33.532Z</time>
      </trkpt>
      <trkpt lat="43.30629" lon="-1.52278">
        <ele>61</ele>
        <time>2021-06-21T08:33:34.552Z</time>
      </trkpt>
      <trkpt lat="43.30629" lon="-1.52278">
        <ele>61</ele>
        <time>2021-06-21T08:33:35.532Z</time>
      </trkpt>
      <trkpt lat="43.30629" lon="-1.52278">
        <ele>61</ele>
        <time>2021-06-21T08:33:36.557Z</time>
      </trkpt>
      <trkpt lat="43.30629" lon="-1.52278">
        <ele>61</ele>
        <time>2021-06-21T08:33:37.551Z</time>
      </trkpt>
      <trkpt lat="43.30629" lon="-1.52278">
        <ele>61</ele>
        <time>2021-06-21T08:33:38.530Z</time>
      </trkpt>
      <trkpt lat="43.30629" lon="-1.52278">
        <ele>61</ele>
        <time>2021-06-21T08:33:39.552Z</time>
      </trkpt>
      <trkpt lat="43.30629" lon="-1.52278">
        <ele>61</ele>
        <time>2021-06-21T08:33:40.531Z</time>
      </trkpt>
      <trkpt lat="43.30629" lon="-1.52278">
        <ele>61</ele>
        <time>2021-06-21T08:33:41.551Z</time>
      </trkpt>
      <trkpt lat="43.30629" lon="-1.52278">
        <ele>61</ele>
        <time>2021-06-21T08:33:42.530Z</time>
      </trkpt>
      <trkpt lat="43.30629" lon="-1.52278">
        <ele>61</ele>
        <time>2021-06-21T08:33:43.552Z</time>
      </trkpt>
      <trkpt lat="43.30629" lon="-1.52278">
        <ele>61</ele>
        <time>2021-06-21T08:33:44.530Z</time>
      </trkpt>
      <trkpt lat="43.30629" lon="-1.52278">
        <ele>61</ele>
        <time>2021-06-21T08:33:45.547Z</time>
      </trkpt>
      <trkpt lat="43.30629" lon="-1.52278">
        <ele>61</ele>
        <time>2021-06-21T08:33:46.554Z</time>
      </trkpt>
      <trkpt lat="43.30629" lon="-1.52278">
        <ele>61</ele>
        <time>2021-06-21T08:33:47.552Z</time>
      </trkpt>
      <trkpt lat="43.30629" lon="-1.52278">
        <ele>61</ele>
        <time>2021-06-21T08:33:48.531Z</time>
      </trkpt>
      <trkpt lat="43.30629" lon="-1.52278">
        <ele>61</ele>
        <time>2021-06-21T08:33:49.551Z</time>
      </trkpt>
      <trkpt lat="43.30629" lon="-1.52278">
        <ele>61</ele>
        <time>2021-06-21T08:33:50.530Z</time>
      </trkpt>
      <trkpt lat="43.30629" lon="-1.52278">
        <ele>61</ele>
        <time>2021-06-21T08:33:51.537Z</time>
      </trkpt>
      <trkpt lat="43.30629" lon="-1.52278">
        <ele>61</ele>
        <time>2021-06-21T08:33:52.553Z</time>
      </trkpt>
      <trkpt lat="43.30629" lon="-1.52278">
        <ele>61</ele>
        <time>2021-06-21T08:33:53.557Z</time>
      </trkpt>
      <trkpt lat="43.30629" lon="-1.52278">
        <ele>61</ele>
        <time>2021-06-21T08:33:54.559Z</time>
      </trkpt>
      <trkpt lat="43.30629" lon="-1.52278">
        <ele>61</ele>
        <time>2021-06-21T08:33:55.552Z</time>
      </trkpt>
      <trkpt lat="43.30629" lon="-1.52278">
        <ele>61</ele>
        <time>2021-06-21T08:33:56.530Z</time>
      </trkpt>
      <trkpt lat="43.30629" lon="-1.52278">
        <ele>61</ele>
        <time>2021-06-21T08:33:57.525Z</time>
      </trkpt>
      <trkpt lat="43.30629" lon="-1.52278">
        <ele>61</ele>
        <time>2021-06-21T08:33:58.518Z</time>
      </trkpt>
      <trkpt lat="43.30629" lon="-1.52278">
        <ele>61</ele>
        <time>2021-06-21T08:33:59.551Z</time>
      </trkpt>
      <trkpt lat="43.30629" lon="-1.52278">
        <ele>61</ele>
        <time>2021-06-21T08:34:00.557Z</time>
      </trkpt>
      <trkpt lat="43.30629" lon="-1.52278">
        <ele>61</ele>
        <time>2021-06-21T08:34:01.552Z</time>
      </trkpt>
      <trkpt lat="43.30629" lon="-1.52278">
        <ele>61</ele>
        <time>2021-06-21T08:34:02.531Z</time>
      </trkpt>
      <trkpt lat="43.30629" lon="-1.52278">
        <ele>61</ele>
        <time>2021-06-21T08:34:03.519Z</time>
      </trkpt>
      <trkpt lat="43.30629" lon="-1.52278">
        <ele>61</ele>
        <time>2021-06-21T08:34:04.512Z</time>
      </trkpt>
      <trkpt lat="43.30629" lon="-1.52278">
        <ele>61</ele>
        <time>2021-06-21T08:34:05.531Z</time>
      </trkpt>
      <trkpt lat="43.30629" lon="-1.52278">
        <ele>61</ele>
        <time>2021-06-21T08:34:06.539Z</time>
      </trkpt>
      <trkpt lat="43.30629" lon="-1.52278">
        <ele>61</ele>
        <time>2021-06-21T08:34:07.551Z</time>
      </trkpt>
      <trkpt lat="43.30629" lon="-1.52278">
        <ele>61</ele>
        <time>2021-06-21T08:34:08.530Z</time>
      </trkpt>
      <trkpt lat="43.30629" lon="-1.52278">
        <ele>61</ele>
        <time>2021-06-21T08:34:09.537Z</time>
      </trkpt>
      <trkpt lat="43.30629" lon="-1.52278">
        <ele>61</ele>
        <time>2021-06-21T08:34:10.554Z</time>
      </trkpt>
      <trkpt lat="43.30629" lon="-1.52278">
        <ele>61</ele>
        <time>2021-06-21T08:34:11.552Z</time>
      </trkpt>
      <trkpt lat="43.30629" lon="-1.52278">
        <ele>61</ele>
        <time>2021-06-21T08:34:12.530Z</time>
      </trkpt>
      <trkpt lat="43.30629" lon="-1.52278">
        <ele>61</ele>
        <time>2021-06-21T08:34:13.552Z</time>
      </trkpt>
      <trkpt lat="43.30629" lon="-1.52278">
        <ele>61</ele>
        <time>2021-06-21T08:34:14.530Z</time>
      </trkpt>
      <trkpt lat="43.30629" lon="-1.52278">
        <ele>61</ele>
        <time>2021-06-21T08:34:15.537Z</time>
      </trkpt>
      <trkpt lat="43.30629" lon="-1.52278">
        <ele>61</ele>
        <time>2021-06-21T08:34:16.514Z</time>
      </trkpt>
      <trkpt lat="43.30629" lon="-1.52278">
        <ele>61</ele>
        <time>2021-06-21T08:34:17.531Z</time>
      </trkpt>
      <trkpt lat="43.30629" lon="-1.52278">
        <ele>61</ele>
        <time>2021-06-21T08:34:18.559Z</time>
      </trkpt>
      <trkpt lat="43.30629" lon="-1.52278">
        <ele>61</ele>
        <time>2021-06-21T08:34:19.551Z</time>
      </trkpt>
      <trkpt lat="43.30629" lon="-1.52278">
        <ele>61</ele>
        <time>2021-06-21T08:34:20.530Z</time>
      </trkpt>
      <trkpt lat="43.30629" lon="-1.52278">
        <ele>61</ele>
        <time>2021-06-21T08:34:21.551Z</time>
      </trkpt>
      <trkpt lat="43.30629" lon="-1.52278">
        <ele>61</ele>
        <time>2021-06-21T08:34:22.556Z</time>
      </trkpt>
      <trkpt lat="43.30629" lon="-1.52278">
        <ele>61</ele>
        <time>2021-06-21T08:34:23.558Z</time>
      </trkpt>
      <trkpt lat="43.30629" lon="-1.52278">
        <ele>61</ele>
        <time>2021-06-21T08:34:24.555Z</time>
      </trkpt>
      <trkpt lat="43.30629" lon="-1.52278">
        <ele>61</ele>
        <time>2021-06-21T08:34:25.557Z</time>
      </trkpt>
      <trkpt lat="43.30629" lon="-1.52278">
        <ele>61</ele>
        <time>2021-06-21T08:34:26.552Z</time>
      </trkpt>
      <trkpt lat="43.30629" lon="-1.52278">
        <ele>61</ele>
        <time>2021-06-21T08:34:27.531Z</time>
      </trkpt>
      <trkpt lat="43.30629" lon="-1.52278">
        <ele>61</ele>
        <time>2021-06-21T08:34:28.511Z</time>
      </trkpt>
      <trkpt lat="43.30629" lon="-1.52278">
        <ele>61</ele>
        <time>2021-06-21T08:34:29.530Z</time>
      </trkpt>
      <trkpt lat="43.30629" lon="-1.52278">
        <ele>61</ele>
        <time>2021-06-21T08:34:30.560Z</time>
      </trkpt>
      <trkpt lat="43.30629" lon="-1.52278">
        <ele>61</ele>
        <time>2021-06-21T08:34:31.549Z</time>
      </trkpt>
      <trkpt lat="43.30629" lon="-1.52278">
        <ele>61</ele>
        <time>2021-06-21T08:34:32.531Z</time>
      </trkpt>
      <trkpt lat="43.30629" lon="-1.52278">
        <ele>61</ele>
        <time>2021-06-21T08:34:33.557Z</time>
      </trkpt>
      <trkpt lat="43.30629" lon="-1.52278">
        <ele>61</ele>
        <time>2021-06-21T08:34:34.552Z</time>
      </trkpt>
      <trkpt lat="43.30629" lon="-1.52278">
        <ele>61</ele>
        <time>2021-06-21T08:34:35.531Z</time>
      </trkpt>
      <trkpt lat="43.30629" lon="-1.52278">
        <ele>61</ele>
        <time>2021-06-21T08:34:36.540Z</time>
      </trkpt>
      <trkpt lat="43.30629" lon="-1.52278">
        <ele>61</ele>
        <time>2021-06-21T08:34:37.552Z</time>
      </trkpt>
      <trkpt lat="43.30629" lon="-1.52278">
        <ele>61</ele>
        <time>2021-06-21T08:34:38.531Z</time>
      </trkpt>
      <trkpt lat="43.30629" lon="-1.52278">
        <ele>61</ele>
        <time>2021-06-21T08:34:39.512Z</time>
      </trkpt>
      <trkpt lat="43.30629" lon="-1.52278">
        <ele>61</ele>
        <time>2021-06-21T08:34:40.530Z</time>
      </trkpt>
      <trkpt lat="43.30629" lon="-1.52278">
        <ele>61</ele>
        <time>2021-06-21T08:34:41.552Z</time>
      </trkpt>
      <trkpt lat="43.30629" lon="-1.52278">
        <ele>61</ele>
        <time>2021-06-21T08:34:42.531Z</time>
      </trkpt>
      <trkpt lat="43.30629" lon="-1.52278">
        <ele>61</ele>
        <time>2021-06-21T08:34:43.553Z</time>
      </trkpt>
      <trkpt lat="43.30629" lon="-1.52278">
        <ele>61</ele>
        <time>2021-06-21T08:34:44.532Z</time>
      </trkpt>
      <trkpt lat="43.30629" lon="-1.52278">
        <ele>61</ele>
        <time>2021-06-21T08:34:45.560Z</time>
      </trkpt>
      <trkpt lat="43.30629" lon="-1.52278">
        <ele>61</ele>
        <time>2021-06-21T08:34:46.557Z</time>
      </trkpt>
      <trkpt lat="43.30629" lon="-1.52278">
        <ele>61</ele>
        <time>2021-06-21T08:34:47.552Z</time>
      </trkpt>
      <trkpt lat="43.30629" lon="-1.52278">
        <ele>61</ele>
        <time>2021-06-21T08:34:48.531Z</time>
      </trkpt>
      <trkpt lat="43.30629" lon="-1.52278">
        <ele>61</ele>
        <time>2021-06-21T08:34:49.553Z</time>
      </trkpt>
      <trkpt lat="43.30629" lon="-1.52278">
        <ele>61</ele>
        <time>2021-06-21T08:34:50.513Z</time>
      </trkpt>
      <trkpt lat="43.30629" lon="-1.52278">
        <ele>61</ele>
        <time>2021-06-21T08:34:51.532Z</time>
      </trkpt>
      <trkpt lat="43.30629" lon="-1.52278">
        <ele>61</ele>
        <time>2021-06-21T08:34:52.553Z</time>
      </trkpt>
      <trkpt lat="43.30629" lon="-1.52278">
        <ele>61</ele>
        <time>2021-06-21T08:34:53.532Z</time>
      </trkpt>
      <trkpt lat="43.30629" lon="-1.52278">
        <ele>61</ele>
        <time>2021-06-21T08:34:54.560Z</time>
      </trkpt>
      <trkpt lat="43.30629" lon="-1.52278">
        <ele>61</ele>
        <time>2021-06-21T08:34:55.552Z</time>
      </trkpt>
      <trkpt lat="43.30629" lon="-1.52278">
        <ele>61</ele>
        <time>2021-06-21T08:34:56.531Z</time>
      </trkpt>
      <trkpt lat="43.30629" lon="-1.52278">
        <ele>61</ele>
        <time>2021-06-21T08:34:57.552Z</time>
      </trkpt>
      <trkpt lat="43.30629" lon="-1.52278">
        <ele>61</ele>
        <time>2021-06-21T08:34:58.531Z</time>
      </trkpt>
      <trkpt lat="43.30629" lon="-1.52278">
        <ele>61</ele>
        <time>2021-06-21T08:34:59.552Z</time>
      </trkpt>
      <trkpt lat="43.30629" lon="-1.52278">
        <ele>61</ele>
        <time>2021-06-21T08:35:00.532Z</time>
      </trkpt>
      <trkpt lat="43.30629" lon="-1.52278">
        <ele>61</ele>
        <time>2021-06-21T08:35:01.552Z</time>
      </trkpt>
      <trkpt lat="43.30629" lon="-1.52278">
        <ele>61</ele>
        <time>2021-06-21T08:35:02.558Z</time>
      </trkpt>
      <trkpt lat="43.30629" lon="-1.52278">
        <ele>61</ele>
        <time>2021-06-21T08:35:03.552Z</time>
      </trkpt>
      <trkpt lat="43.30629" lon="-1.52278">
        <ele>61</ele>
        <time>2021-06-21T08:35:04.531Z</time>
      </trkpt>
      <trkpt lat="43.30629" lon="-1.52278">
        <ele>61</ele>
        <time>2021-06-21T08:35:05.538Z</time>
      </trkpt>
      <trkpt lat="43.30629" lon="-1.52278">
        <ele>61</ele>
        <time>2021-06-21T08:35:06.555Z</time>
      </trkpt>
      <trkpt lat="43.30629" lon="-1.52278">
        <ele>61</ele>
        <time>2021-06-21T08:35:07.536Z</time>
      </trkpt>
      <trkpt lat="43.30629" lon="-1.52278">
        <ele>61</ele>
        <time>2021-06-21T08:35:08.511Z</time>
      </trkpt>
      <trkpt lat="43.30629" lon="-1.52278">
        <ele>61</ele>
        <time>2021-06-21T08:35:09.526Z</time>
      </trkpt>
      <trkpt lat="43.30629" lon="-1.52278">
        <ele>61</ele>
        <time>2021-06-21T08:35:10.520Z</time>
      </trkpt>
      <trkpt lat="43.30629" lon="-1.52278">
        <ele>61</ele>
        <time>2021-06-21T08:35:11.537Z</time>
      </trkpt>
      <trkpt lat="43.30629" lon="-1.52278">
        <ele>61</ele>
        <time>2021-06-21T08:35:12.558Z</time>
      </trkpt>
      <trkpt lat="43.30629" lon="-1.52278">
        <ele>61</ele>
        <time>2021-06-21T08:35:13.553Z</time>
      </trkpt>
      <trkpt lat="43.30629" lon="-1.52278">
        <ele>61</ele>
        <time>2021-06-21T08:35:14.532Z</time>
      </trkpt>
      <trkpt lat="43.30629" lon="-1.52278">
        <ele>61</ele>
        <time>2021-06-21T08:35:15.527Z</time>
      </trkpt>
      <trkpt lat="43.30629" lon="-1.52278">
        <ele>61</ele>
        <time>2021-06-21T08:35:16.527Z</time>
      </trkpt>
      <trkpt lat="43.30629" lon="-1.52278">
        <ele>61</ele>
        <time>2021-06-21T08:35:17.533Z</time>
      </trkpt>
      <trkpt lat="43.30629" lon="-1.52278">
        <ele>61</ele>
        <time>2021-06-21T08:35:18.531Z</time>
      </trkpt>
      <trkpt lat="43.30629" lon="-1.52278">
        <ele>61</ele>
        <time>2021-06-21T08:35:19.552Z</time>
      </trkpt>
      <trkpt lat="43.30629" lon="-1.52278">
        <ele>61</ele>
        <time>2021-06-21T08:35:20.531Z</time>
      </trkpt>
      <trkpt lat="43.30629" lon="-1.52278">
        <ele>61</ele>
        <time>2021-06-21T08:35:21.552Z</time>
      </trkpt>
      <trkpt lat="43.30629" lon="-1.52278">
        <ele>61</ele>
        <time>2021-06-21T08:35:22.512Z</time>
      </trkpt>
      <trkpt lat="43.30629" lon="-1.52278">
        <ele>61</ele>
        <time>2021-06-21T08:35:23.518Z</time>
      </trkpt>
      <trkpt lat="43.30629" lon="-1.52278">
        <ele>61</ele>
        <time>2021-06-21T08:35:24.524Z</time>
      </trkpt>
      <trkpt lat="43.30629" lon="-1.52278">
        <ele>61</ele>
        <time>2021-06-21T08:35:25.529Z</time>
      </trkpt>
      <trkpt lat="43.30629" lon="-1.52278">
        <ele>61</ele>
        <time>2021-06-21T08:35:26.538Z</time>
      </trkpt>
      <trkpt lat="43.30629" lon="-1.52278">
        <ele>61</ele>
        <time>2021-06-21T08:35:27.549Z</time>
      </trkpt>
      <trkpt lat="43.30629" lon="-1.52278">
        <ele>61</ele>
        <time>2021-06-21T08:35:28.532Z</time>
      </trkpt>
      <trkpt lat="43.30629" lon="-1.5228">
        <ele>80</ele>
        <time>2021-06-21T08:35:29.526Z</time>
      </trkpt>
      <trkpt lat="43.30629" lon="-1.5228">
        <ele>80</ele>
        <time>2021-06-21T08:35:30.519Z</time>
      </trkpt>
      <trkpt lat="43.30627" lon="-1.52279">
        <ele>80</ele>
        <time>2021-06-21T08:35:31.553Z</time>
      </trkpt>
      <trkpt lat="43.30627" lon="-1.52279">
        <ele>80</ele>
        <time>2021-06-21T08:35:32.558Z</time>
      </trkpt>
      <trkpt lat="43.30625" lon="-1.52278">
        <ele>80</ele>
        <time>2021-06-21T08:35:33.552Z</time>
      </trkpt>
      <trkpt lat="43.30625" lon="-1.52278">
        <ele>80</ele>
        <time>2021-06-21T08:35:34.533Z</time>
      </trkpt>
      <trkpt lat="43.30623" lon="-1.52278">
        <ele>80</ele>
        <time>2021-06-21T08:35:35.532Z</time>
      </trkpt>
      <trkpt lat="43.30623" lon="-1.52278">
        <ele>80</ele>
        <time>2021-06-21T08:35:36.544Z</time>
      </trkpt>
      <trkpt lat="43.30621" lon="-1.52276">
        <ele>80</ele>
        <time>2021-06-21T08:35:37.530Z</time>
      </trkpt>
      <trkpt lat="43.30621" lon="-1.52276">
        <ele>80</ele>
        <time>2021-06-21T08:35:38.536Z</time>
      </trkpt>
      <trkpt lat="43.3062" lon="-1.52274">
        <ele>80</ele>
        <time>2021-06-21T08:35:39.534Z</time>
      </trkpt>
      <trkpt lat="43.3062" lon="-1.52274">
        <ele>80</ele>
        <time>2021-06-21T08:35:40.512Z</time>
      </trkpt>
      <trkpt lat="43.30619" lon="-1.52273">
        <ele>81</ele>
        <time>2021-06-21T08:35:41.513Z</time>
      </trkpt>
      <trkpt lat="43.30619" lon="-1.52273">
        <ele>81</ele>
        <time>2021-06-21T08:35:42.534Z</time>
      </trkpt>
      <trkpt lat="43.30619" lon="-1.52273">
        <ele>81</ele>
        <time>2021-06-21T08:35:43.525Z</time>
      </trkpt>
      <trkpt lat="43.30619" lon="-1.52273">
        <ele>81</ele>
        <time>2021-06-21T08:35:44.530Z</time>
      </trkpt>
      <trkpt lat="43.30619" lon="-1.52273">
        <ele>81</ele>
        <time>2021-06-21T08:35:45.525Z</time>
      </trkpt>
      <trkpt lat="43.30619" lon="-1.52273">
        <ele>81</ele>
        <time>2021-06-21T08:35:46.530Z</time>
      </trkpt>
      <trkpt lat="43.30619" lon="-1.52273">
        <ele>81</ele>
        <time>2021-06-21T08:35:47.537Z</time>
      </trkpt>
      <trkpt lat="43.30619" lon="-1.52273">
        <ele>81</ele>
        <time>2021-06-21T08:35:48.513Z</time>
      </trkpt>
      <trkpt lat="43.30619" lon="-1.52273">
        <ele>81</ele>
        <time>2021-06-21T08:35:49.518Z</time>
      </trkpt>
      <trkpt lat="43.30619" lon="-1.52273">
        <ele>81</ele>
        <time>2021-06-21T08:35:50.524Z</time>
      </trkpt>
      <trkpt lat="43.30619" lon="-1.52273">
        <ele>81</ele>
        <time>2021-06-21T08:35:51.529Z</time>
      </trkpt>
      <trkpt lat="43.30619" lon="-1.52273">
        <ele>81</ele>
        <time>2021-06-21T08:35:52.530Z</time>
      </trkpt>
      <trkpt lat="43.30619" lon="-1.52273">
        <ele>81</ele>
        <time>2021-06-21T08:35:53.552Z</time>
      </trkpt>
      <trkpt lat="43.30619" lon="-1.52273">
        <ele>81</ele>
        <time>2021-06-21T08:35:54.532Z</time>
      </trkpt>
      <trkpt lat="43.30619" lon="-1.52273">
        <ele>81</ele>
        <time>2021-06-21T08:35:55.567Z</time>
      </trkpt>
      <trkpt lat="43.30619" lon="-1.52273">
        <ele>81</ele>
        <time>2021-06-21T08:35:56.555Z</time>
      </trkpt>
      <trkpt lat="43.30619" lon="-1.52273">
        <ele>81</ele>
        <time>2021-06-21T08:35:57.549Z</time>
      </trkpt>
      <trkpt lat="43.30619" lon="-1.52273">
        <ele>81</ele>
        <time>2021-06-21T08:35:58.531Z</time>
      </trkpt>
      <trkpt lat="43.30619" lon="-1.52273">
        <ele>81</ele>
        <time>2021-06-21T08:35:59.552Z</time>
      </trkpt>
      <trkpt lat="43.30619" lon="-1.52273">
        <ele>81</ele>
        <time>2021-06-21T08:36:00.532Z</time>
      </trkpt>
      <trkpt lat="43.30619" lon="-1.52273">
        <ele>81</ele>
        <time>2021-06-21T08:36:01.553Z</time>
      </trkpt>
      <trkpt lat="43.30619" lon="-1.52273">
        <ele>81</ele>
        <time>2021-06-21T08:36:02.555Z</time>
      </trkpt>
      <trkpt lat="43.30619" lon="-1.52273">
        <ele>81</ele>
        <time>2021-06-21T08:36:03.557Z</time>
      </trkpt>
      <trkpt lat="43.30619" lon="-1.52273">
        <ele>81</ele>
        <time>2021-06-21T08:36:04.552Z</time>
      </trkpt>
      <trkpt lat="43.30619" lon="-1.52273">
        <ele>81</ele>
        <time>2021-06-21T08:36:05.532Z</time>
      </trkpt>
      <trkpt lat="43.30619" lon="-1.52273">
        <ele>81</ele>
        <time>2021-06-21T08:36:06.560Z</time>
      </trkpt>
      <trkpt lat="43.30619" lon="-1.52273">
        <ele>81</ele>
        <time>2021-06-21T08:36:07.514Z</time>
      </trkpt>
      <trkpt lat="43.30619" lon="-1.52273">
        <ele>81</ele>
        <time>2021-06-21T08:36:08.556Z</time>
      </trkpt>
      <trkpt lat="43.30619" lon="-1.52273">
        <ele>81</ele>
        <time>2021-06-21T08:36:09.553Z</time>
      </trkpt>
      <trkpt lat="43.30619" lon="-1.52273">
        <ele>81</ele>
        <time>2021-06-21T08:36:10.532Z</time>
      </trkpt>
      <trkpt lat="43.30619" lon="-1.52273">
        <ele>81</ele>
        <time>2021-06-21T08:36:11.549Z</time>
      </trkpt>
      <trkpt lat="43.30619" lon="-1.52273">
        <ele>81</ele>
        <time>2021-06-21T08:36:12.532Z</time>
      </trkpt>
      <trkpt lat="43.30619" lon="-1.52273">
        <ele>81</ele>
        <time>2021-06-21T08:36:13.552Z</time>
      </trkpt>
      <trkpt lat="43.30619" lon="-1.52273">
        <ele>81</ele>
        <time>2021-06-21T08:36:14.558Z</time>
      </trkpt>
      <trkpt lat="43.30619" lon="-1.52273">
        <ele>81</ele>
        <time>2021-06-21T08:36:15.558Z</time>
      </trkpt>
      <trkpt lat="43.30619" lon="-1.52273">
        <ele>81</ele>
        <time>2021-06-21T08:36:16.553Z</time>
      </trkpt>
      <trkpt lat="43.30619" lon="-1.52273">
        <ele>81</ele>
        <time>2021-06-21T08:36:17.533Z</time>
      </trkpt>
      <trkpt lat="43.30619" lon="-1.52273">
        <ele>81</ele>
        <time>2021-06-21T08:36:18.560Z</time>
      </trkpt>
      <trkpt lat="43.30619" lon="-1.52273">
        <ele>81</ele>
        <time>2021-06-21T08:36:19.553Z</time>
      </trkpt>
      <trkpt lat="43.30619" lon="-1.52273">
        <ele>81</ele>
        <time>2021-06-21T08:36:20.558Z</time>
      </trkpt>
      <trkpt lat="43.30619" lon="-1.52273">
        <ele>81</ele>
        <time>2021-06-21T08:36:21.553Z</time>
      </trkpt>
      <trkpt lat="43.30619" lon="-1.52273">
        <ele>81</ele>
        <time>2021-06-21T08:36:22.532Z</time>
      </trkpt>
      <trkpt lat="43.30619" lon="-1.52273">
        <ele>81</ele>
        <time>2021-06-21T08:36:23.531Z</time>
      </trkpt>
      <trkpt lat="43.30619" lon="-1.52273">
        <ele>81</ele>
        <time>2021-06-21T08:36:24.537Z</time>
      </trkpt>
      <trkpt lat="43.30619" lon="-1.52273">
        <ele>81</ele>
        <time>2021-06-21T08:36:25.554Z</time>
      </trkpt>
      <trkpt lat="43.30619" lon="-1.52273">
        <ele>81</ele>
        <time>2021-06-21T08:36:26.560Z</time>
      </trkpt>
      <trkpt lat="43.30619" lon="-1.52273">
        <ele>81</ele>
        <time>2021-06-21T08:36:27.513Z</time>
      </trkpt>
      <trkpt lat="43.30619" lon="-1.52273">
        <ele>81</ele>
        <time>2021-06-21T08:36:28.530Z</time>
      </trkpt>
      <trkpt lat="43.30619" lon="-1.52273">
        <ele>81</ele>
        <time>2021-06-21T08:36:29.553Z</time>
      </trkpt>
      <trkpt lat="43.30619" lon="-1.52273">
        <ele>81</ele>
        <time>2021-06-21T08:36:30.533Z</time>
      </trkpt>
      <trkpt lat="43.30619" lon="-1.52273">
        <ele>81</ele>
        <time>2021-06-21T08:36:31.553Z</time>
      </trkpt>
      <trkpt lat="43.30619" lon="-1.52273">
        <ele>81</ele>
        <time>2021-06-21T08:36:32.559Z</time>
      </trkpt>
      <trkpt lat="43.30619" lon="-1.52273">
        <ele>81</ele>
        <time>2021-06-21T08:36:33.554Z</time>
      </trkpt>
      <trkpt lat="43.30619" lon="-1.52273">
        <ele>81</ele>
        <time>2021-06-21T08:36:34.534Z</time>
      </trkpt>
      <trkpt lat="43.30619" lon="-1.52273">
        <ele>81</ele>
        <time>2021-06-21T08:36:35.554Z</time>
      </trkpt>
      <trkpt lat="43.30619" lon="-1.52273">
        <ele>81</ele>
        <time>2021-06-21T08:36:36.534Z</time>
      </trkpt>
      <trkpt lat="43.30619" lon="-1.52273">
        <ele>81</ele>
        <time>2021-06-21T08:36:37.553Z</time>
      </trkpt>
      <trkpt lat="43.30619" lon="-1.52273">
        <ele>81</ele>
        <time>2021-06-21T08:36:38.559Z</time>
      </trkpt>
      <trkpt lat="43.30619" lon="-1.52273">
        <ele>81</ele>
        <time>2021-06-21T08:36:39.553Z</time>
      </trkpt>
      <trkpt lat="43.30619" lon="-1.52273">
        <ele>81</ele>
        <time>2021-06-21T08:36:40.533Z</time>
      </trkpt>
      <trkpt lat="43.30619" lon="-1.52273">
        <ele>81</ele>
        <time>2021-06-21T08:36:41.559Z</time>
      </trkpt>
      <trkpt lat="43.30619" lon="-1.52273">
        <ele>81</ele>
        <time>2021-06-21T08:36:42.559Z</time>
      </trkpt>
      <trkpt lat="43.30619" lon="-1.52273">
        <ele>81</ele>
        <time>2021-06-21T08:36:43.554Z</time>
      </trkpt>
      <trkpt lat="43.30619" lon="-1.52273">
        <ele>81</ele>
        <time>2021-06-21T08:36:44.559Z</time>
      </trkpt>
      <trkpt lat="43.30619" lon="-1.52273">
        <ele>81</ele>
        <time>2021-06-21T08:36:45.553Z</time>
      </trkpt>
      <trkpt lat="43.30619" lon="-1.52273">
        <ele>81</ele>
        <time>2021-06-21T08:36:46.533Z</time>
      </trkpt>
      <trkpt lat="43.30619" lon="-1.52273">
        <ele>81</ele>
        <time>2021-06-21T08:36:47.553Z</time>
      </trkpt>
      <trkpt lat="43.30619" lon="-1.52273">
        <ele>81</ele>
        <time>2021-06-21T08:36:48.533Z</time>
      </trkpt>
      <trkpt lat="43.30619" lon="-1.52273">
        <ele>81</ele>
        <time>2021-06-21T08:36:49.554Z</time>
      </trkpt>
      <trkpt lat="43.30619" lon="-1.52273">
        <ele>81</ele>
        <time>2021-06-21T08:36:50.559Z</time>
      </trkpt>
      <trkpt lat="43.30619" lon="-1.52273">
        <ele>81</ele>
        <time>2021-06-21T08:36:51.559Z</time>
      </trkpt>
      <trkpt lat="43.30619" lon="-1.52273">
        <ele>81</ele>
        <time>2021-06-21T08:36:52.559Z</time>
      </trkpt>
      <trkpt lat="43.30619" lon="-1.52273">
        <ele>81</ele>
        <time>2021-06-21T08:36:53.554Z</time>
      </trkpt>
      <trkpt lat="43.30619" lon="-1.52273">
        <ele>81</ele>
        <time>2021-06-21T08:36:54.533Z</time>
      </trkpt>
      <trkpt lat="43.30619" lon="-1.52273">
        <ele>81</ele>
        <time>2021-06-21T08:36:55.556Z</time>
      </trkpt>
      <trkpt lat="43.30619" lon="-1.52273">
        <ele>81</ele>
        <time>2021-06-21T08:36:56.558Z</time>
      </trkpt>
      <trkpt lat="43.30619" lon="-1.52273">
        <ele>81</ele>
        <time>2021-06-21T08:36:57.554Z</time>
      </trkpt>
      <trkpt lat="43.30619" lon="-1.52273">
        <ele>81</ele>
        <time>2021-06-21T08:36:58.534Z</time>
      </trkpt>
      <trkpt lat="43.30622" lon="-1.52262">
        <ele>75</ele>
        <time>2021-06-21T08:36:59.535Z</time>
      </trkpt>
      <trkpt lat="43.30622" lon="-1.52262">
        <ele>75</ele>
        <time>2021-06-21T08:37:00.536Z</time>
      </trkpt>
      <trkpt lat="43.30622" lon="-1.52259">
        <ele>75</ele>
        <time>2021-06-21T08:37:01.547Z</time>
      </trkpt>
      <trkpt lat="43.30622" lon="-1.52259">
        <ele>75</ele>
        <time>2021-06-21T08:37:02.512Z</time>
      </trkpt>
      <trkpt lat="43.30621" lon="-1.52256">
        <ele>75</ele>
        <time>2021-06-21T08:37:03.547Z</time>
      </trkpt>
      <trkpt lat="43.30621" lon="-1.52256">
        <ele>75</ele>
        <time>2021-06-21T08:37:04.512Z</time>
      </trkpt>
      <trkpt lat="43.30622" lon="-1.52252">
        <ele>75</ele>
        <time>2021-06-21T08:37:05.522Z</time>
      </trkpt>
      <trkpt lat="43.30622" lon="-1.52252">
        <ele>75</ele>
        <time>2021-06-21T08:37:06.529Z</time>
      </trkpt>
      <trkpt lat="43.30623" lon="-1.52247">
        <ele>74</ele>
        <time>2021-06-21T08:37:07.528Z</time>
      </trkpt>
      <trkpt lat="43.30623" lon="-1.52247">
        <ele>74</ele>
        <time>2021-06-21T08:37:08.534Z</time>
      </trkpt>
      <trkpt lat="43.30623" lon="-1.52242">
        <ele>74</ele>
        <time>2021-06-21T08:37:09.540Z</time>
      </trkpt>
      <trkpt lat="43.30623" lon="-1.52242">
        <ele>74</ele>
        <time>2021-06-21T08:37:10.514Z</time>
      </trkpt>
      <trkpt lat="43.30623" lon="-1.52236">
        <ele>74</ele>
        <time>2021-06-21T08:37:11.522Z</time>
      </trkpt>
      <trkpt lat="43.30623" lon="-1.52236">
        <ele>74</ele>
        <time>2021-06-21T08:37:12.527Z</time>
      </trkpt>
      <trkpt lat="43.30622" lon="-1.52228">
        <ele>74</ele>
        <time>2021-06-21T08:37:13.513Z</time>
      </trkpt>
      <trkpt lat="43.30622" lon="-1.52225">
        <ele>74</ele>
        <time>2021-06-21T08:37:14.539Z</time>
      </trkpt>
      <trkpt lat="43.30622" lon="-1.52225">
        <ele>74</ele>
        <time>2021-06-21T08:37:15.552Z</time>
      </trkpt>
      <trkpt lat="43.30623" lon="-1.52218">
        <ele>74</ele>
        <time>2021-06-21T08:37:16.532Z</time>
      </trkpt>
      <trkpt lat="43.30623" lon="-1.52218">
        <ele>74</ele>
        <time>2021-06-21T08:37:17.538Z</time>
      </trkpt>
      <trkpt lat="43.30624" lon="-1.52211">
        <ele>74</ele>
        <time>2021-06-21T08:37:18.513Z</time>
      </trkpt>
      <trkpt lat="43.30625" lon="-1.52208">
        <ele>74</ele>
        <time>2021-06-21T08:37:19.526Z</time>
      </trkpt>
      <trkpt lat="43.30625" lon="-1.52208">
        <ele>74</ele>
        <time>2021-06-21T08:37:20.531Z</time>
      </trkpt>
      <trkpt lat="43.30627" lon="-1.522">
        <ele>74</ele>
        <time>2021-06-21T08:37:21.548Z</time>
      </trkpt>
      <trkpt lat="43.30627" lon="-1.522">
        <ele>74</ele>
        <time>2021-06-21T08:37:22.533Z</time>
      </trkpt>
      <trkpt lat="43.30629" lon="-1.52194">
        <ele>74</ele>
        <time>2021-06-21T08:37:23.514Z</time>
      </trkpt>
      <trkpt lat="43.30631" lon="-1.5219">
        <ele>74</ele>
        <time>2021-06-21T08:37:24.553Z</time>
      </trkpt>
      <trkpt lat="43.30632" lon="-1.52187">
        <ele>74</ele>
        <time>2021-06-21T08:37:25.522Z</time>
      </trkpt>
      <trkpt lat="43.30632" lon="-1.52187">
        <ele>74</ele>
        <time>2021-06-21T08:37:26.528Z</time>
      </trkpt>
      <trkpt lat="43.30635" lon="-1.52181">
        <ele>74</ele>
        <time>2021-06-21T08:37:27.525Z</time>
      </trkpt>
      <trkpt lat="43.30635" lon="-1.52181">
        <ele>74</ele>
        <time>2021-06-21T08:37:28.531Z</time>
      </trkpt>
      <trkpt lat="43.30639" lon="-1.52176">
        <ele>74</ele>
        <time>2021-06-21T08:37:29.520Z</time>
      </trkpt>
      <trkpt lat="43.30639" lon="-1.52176">
        <ele>74</ele>
        <time>2021-06-21T08:37:30.526Z</time>
      </trkpt>
      <trkpt lat="43.30645" lon="-1.52171">
        <ele>74</ele>
        <time>2021-06-21T08:37:31.546Z</time>
      </trkpt>
      <trkpt lat="43.30645" lon="-1.52171">
        <ele>74</ele>
        <time>2021-06-21T08:37:32.514Z</time>
      </trkpt>
      <trkpt lat="43.30649" lon="-1.52164">
        <ele>74</ele>
        <time>2021-06-21T08:37:33.520Z</time>
      </trkpt>
      <trkpt lat="43.30649" lon="-1.52164">
        <ele>74</ele>
        <time>2021-06-21T08:37:34.526Z</time>
      </trkpt>
      <trkpt lat="43.30653" lon="-1.52159">
        <ele>75</ele>
        <time>2021-06-21T08:37:35.522Z</time>
      </trkpt>
      <trkpt lat="43.30656" lon="-1.52157">
        <ele>75</ele>
        <time>2021-06-21T08:37:36.509Z</time>
      </trkpt>
      <trkpt lat="43.30659" lon="-1.52154">
        <ele>75</ele>
        <time>2021-06-21T08:37:37.521Z</time>
      </trkpt>
      <trkpt lat="43.30659" lon="-1.52154">
        <ele>75</ele>
        <time>2021-06-21T08:37:38.527Z</time>
      </trkpt>
      <trkpt lat="43.30664" lon="-1.52149">
        <ele>75</ele>
        <time>2021-06-21T08:37:39.510Z</time>
      </trkpt>
      <trkpt lat="43.30664" lon="-1.52149">
        <ele>75</ele>
        <time>2021-06-21T08:37:40.515Z</time>
      </trkpt>
      <trkpt lat="43.30669" lon="-1.52142">
        <ele>76</ele>
        <time>2021-06-21T08:37:41.509Z</time>
      </trkpt>
      <trkpt lat="43.30672" lon="-1.52139">
        <ele>76</ele>
        <time>2021-06-21T08:37:42.548Z</time>
      </trkpt>
      <trkpt lat="43.30672" lon="-1.52139">
        <ele>76</ele>
        <time>2021-06-21T08:37:43.513Z</time>
      </trkpt>
      <trkpt lat="43.30676" lon="-1.52134">
        <ele>76</ele>
        <time>2021-06-21T08:37:44.537Z</time>
      </trkpt>
      <trkpt lat="43.30676" lon="-1.52134">
        <ele>76</ele>
        <time>2021-06-21T08:37:45.511Z</time>
      </trkpt>
      <trkpt lat="43.30682" lon="-1.52128">
        <ele>76</ele>
        <time>2021-06-21T08:37:46.534Z</time>
      </trkpt>
      <trkpt lat="43.30682" lon="-1.52128">
        <ele>76</ele>
        <time>2021-06-21T08:37:47.544Z</time>
      </trkpt>
      <trkpt lat="43.30687" lon="-1.52123">
        <ele>77</ele>
        <time>2021-06-21T08:37:48.550Z</time>
      </trkpt>
      <trkpt lat="43.3069" lon="-1.5212">
        <ele>77</ele>
        <time>2021-06-21T08:37:49.542Z</time>
      </trkpt>
      <trkpt lat="43.3069" lon="-1.5212">
        <ele>77</ele>
        <time>2021-06-21T08:37:50.513Z</time>
      </trkpt>
      <trkpt lat="43.30694" lon="-1.52114">
        <ele>78</ele>
        <time>2021-06-21T08:37:51.512Z</time>
      </trkpt>
      <trkpt lat="43.30694" lon="-1.52114">
        <ele>78</ele>
        <time>2021-06-21T08:37:52.517Z</time>
      </trkpt>
      <trkpt lat="43.30698" lon="-1.52109">
        <ele>78</ele>
        <time>2021-06-21T08:37:53.509Z</time>
      </trkpt>
      <trkpt lat="43.30698" lon="-1.52109">
        <ele>78</ele>
        <time>2021-06-21T08:37:54.515Z</time>
      </trkpt>
      <trkpt lat="43.30701" lon="-1.52103">
        <ele>78</ele>
        <time>2021-06-21T08:37:55.542Z</time>
      </trkpt>
      <trkpt lat="43.30701" lon="-1.52103">
        <ele>78</ele>
        <time>2021-06-21T08:37:56.513Z</time>
      </trkpt>
      <trkpt lat="43.30704" lon="-1.52098">
        <ele>78</ele>
        <time>2021-06-21T08:37:57.549Z</time>
      </trkpt>
      <trkpt lat="43.30704" lon="-1.52098">
        <ele>78</ele>
        <time>2021-06-21T08:37:58.514Z</time>
      </trkpt>
      <trkpt lat="43.30707" lon="-1.52091">
        <ele>79</ele>
        <time>2021-06-21T08:37:59.524Z</time>
      </trkpt>
      <trkpt lat="43.30707" lon="-1.52091">
        <ele>79</ele>
        <time>2021-06-21T08:38:00.529Z</time>
      </trkpt>
      <trkpt lat="43.30709" lon="-1.52083">
        <ele>79</ele>
        <time>2021-06-21T08:38:01.522Z</time>
      </trkpt>
      <trkpt lat="43.30709" lon="-1.52083">
        <ele>79</ele>
        <time>2021-06-21T08:38:02.527Z</time>
      </trkpt>
      <trkpt lat="43.30711" lon="-1.52077">
        <ele>79</ele>
        <time>2021-06-21T08:38:03.521Z</time>
      </trkpt>
      <trkpt lat="43.30711" lon="-1.52077">
        <ele>79</ele>
        <time>2021-06-21T08:38:04.527Z</time>
      </trkpt>
      <trkpt lat="43.30712" lon="-1.52068">
        <ele>79</ele>
        <time>2021-06-21T08:38:05.523Z</time>
      </trkpt>
      <trkpt lat="43.30712" lon="-1.52068">
        <ele>79</ele>
        <time>2021-06-21T08:38:06.529Z</time>
      </trkpt>
      <trkpt lat="43.30714" lon="-1.52061">
        <ele>80</ele>
        <time>2021-06-21T08:38:07.515Z</time>
      </trkpt>
      <trkpt lat="43.30714" lon="-1.52061">
        <ele>80</ele>
        <time>2021-06-21T08:38:08.520Z</time>
      </trkpt>
      <trkpt lat="43.30715" lon="-1.52054">
        <ele>80</ele>
        <time>2021-06-21T08:38:09.513Z</time>
      </trkpt>
      <trkpt lat="43.30715" lon="-1.52054">
        <ele>80</ele>
        <time>2021-06-21T08:38:10.518Z</time>
      </trkpt>
      <trkpt lat="43.30716" lon="-1.52047">
        <ele>80</ele>
        <time>2021-06-21T08:38:11.522Z</time>
      </trkpt>
      <trkpt lat="43.30716" lon="-1.52047">
        <ele>80</ele>
        <time>2021-06-21T08:38:12.527Z</time>
      </trkpt>
      <trkpt lat="43.30716" lon="-1.5204">
        <ele>80</ele>
        <time>2021-06-21T08:38:13.528Z</time>
      </trkpt>
      <trkpt lat="43.30716" lon="-1.5204">
        <ele>80</ele>
        <time>2021-06-21T08:38:14.534Z</time>
      </trkpt>
      <trkpt lat="43.30716" lon="-1.52034">
        <ele>80</ele>
        <time>2021-06-21T08:38:15.530Z</time>
      </trkpt>
      <trkpt lat="43.30716" lon="-1.52034">
        <ele>80</ele>
        <time>2021-06-21T08:38:16.536Z</time>
      </trkpt>
      <trkpt lat="43.30716" lon="-1.52027">
        <ele>79</ele>
        <time>2021-06-21T08:38:17.544Z</time>
      </trkpt>
      <trkpt lat="43.30716" lon="-1.52023">
        <ele>79</ele>
        <time>2021-06-21T08:38:18.521Z</time>
      </trkpt>
      <trkpt lat="43.30715" lon="-1.5202">
        <ele>78</ele>
        <time>2021-06-21T08:38:19.532Z</time>
      </trkpt>
      <trkpt lat="43.30715" lon="-1.5202">
        <ele>78</ele>
        <time>2021-06-21T08:38:20.538Z</time>
      </trkpt>
      <trkpt lat="43.30715" lon="-1.52013">
        <ele>78</ele>
        <time>2021-06-21T08:38:21.531Z</time>
      </trkpt>
      <trkpt lat="43.30715" lon="-1.52013">
        <ele>78</ele>
        <time>2021-06-21T08:38:22.513Z</time>
      </trkpt>
      <trkpt lat="43.30714" lon="-1.52006">
        <ele>77</ele>
        <time>2021-06-21T08:38:23.525Z</time>
      </trkpt>
      <trkpt lat="43.30714" lon="-1.52003">
        <ele>77</ele>
        <time>2021-06-21T08:38:24.518Z</time>
      </trkpt>
      <trkpt lat="43.30713" lon="-1.52">
        <ele>76</ele>
        <time>2021-06-21T08:38:25.517Z</time>
      </trkpt>
      <trkpt lat="43.30713" lon="-1.52">
        <ele>76</ele>
        <time>2021-06-21T08:38:26.523Z</time>
      </trkpt>
      <trkpt lat="43.30712" lon="-1.51993">
        <ele>76</ele>
        <time>2021-06-21T08:38:27.533Z</time>
      </trkpt>
      <trkpt lat="43.30712" lon="-1.51993">
        <ele>76</ele>
        <time>2021-06-21T08:38:28.539Z</time>
      </trkpt>
      <trkpt lat="43.30711" lon="-1.51986">
        <ele>75</ele>
        <time>2021-06-21T08:38:29.550Z</time>
      </trkpt>
      <trkpt lat="43.30711" lon="-1.51986">
        <ele>75</ele>
        <time>2021-06-21T08:38:30.517Z</time>
      </trkpt>
      <trkpt lat="43.30709" lon="-1.51978">
        <ele>75</ele>
        <time>2021-06-21T08:38:31.515Z</time>
      </trkpt>
      <trkpt lat="43.30709" lon="-1.51978">
        <ele>75</ele>
        <time>2021-06-21T08:38:32.521Z</time>
      </trkpt>
      <trkpt lat="43.30708" lon="-1.51971">
        <ele>73</ele>
        <time>2021-06-21T08:38:33.514Z</time>
      </trkpt>
      <trkpt lat="43.30708" lon="-1.51971">
        <ele>73</ele>
        <time>2021-06-21T08:38:34.520Z</time>
      </trkpt>
      <trkpt lat="43.30706" lon="-1.51964">
        <ele>73</ele>
        <time>2021-06-21T08:38:35.513Z</time>
      </trkpt>
      <trkpt lat="43.30705" lon="-1.51961">
        <ele>72</ele>
        <time>2021-06-21T08:38:36.509Z</time>
      </trkpt>
      <trkpt lat="43.30705" lon="-1.51961">
        <ele>72</ele>
        <time>2021-06-21T08:38:37.516Z</time>
      </trkpt>
      <trkpt lat="43.30703" lon="-1.51955">
        <ele>71</ele>
        <time>2021-06-21T08:38:38.509Z</time>
      </trkpt>
      <trkpt lat="43.30703" lon="-1.51955">
        <ele>71</ele>
        <time>2021-06-21T08:38:39.515Z</time>
      </trkpt>
      <trkpt lat="43.30701" lon="-1.51951">
        <ele>71</ele>
        <time>2021-06-21T08:38:40.527Z</time>
      </trkpt>
      <trkpt lat="43.307" lon="-1.51947">
        <ele>71</ele>
        <time>2021-06-21T08:38:41.537Z</time>
      </trkpt>
      <trkpt lat="43.307" lon="-1.51947">
        <ele>71</ele>
        <time>2021-06-21T08:38:42.543Z</time>
      </trkpt>
      <trkpt lat="43.30698" lon="-1.5194">
        <ele>70</ele>
        <time>2021-06-21T08:38:43.509Z</time>
      </trkpt>
      <trkpt lat="43.30698" lon="-1.5194">
        <ele>70</ele>
        <time>2021-06-21T08:38:44.515Z</time>
      </trkpt>
      <trkpt lat="43.30697" lon="-1.51934">
        <ele>70</ele>
        <time>2021-06-21T08:38:45.538Z</time>
      </trkpt>
      <trkpt lat="43.30697" lon="-1.51934">
        <ele>70</ele>
        <time>2021-06-21T08:38:46.518Z</time>
      </trkpt>
      <trkpt lat="43.30695" lon="-1.51926">
        <ele>70</ele>
        <time>2021-06-21T08:38:47.545Z</time>
      </trkpt>
      <trkpt lat="43.30695" lon="-1.51926">
        <ele>70</ele>
        <time>2021-06-21T08:38:48.510Z</time>
      </trkpt>
      <trkpt lat="43.30693" lon="-1.5192">
        <ele>69</ele>
        <time>2021-06-21T08:38:49.547Z</time>
      </trkpt>
      <trkpt lat="43.30693" lon="-1.5192">
        <ele>69</ele>
        <time>2021-06-21T08:38:50.513Z</time>
      </trkpt>
      <trkpt lat="43.30691" lon="-1.51913">
        <ele>69</ele>
        <time>2021-06-21T08:38:51.512Z</time>
      </trkpt>
      <trkpt lat="43.30691" lon="-1.51913">
        <ele>69</ele>
        <time>2021-06-21T08:38:52.517Z</time>
      </trkpt>
      <trkpt lat="43.3069" lon="-1.51906">
        <ele>68</ele>
        <time>2021-06-21T08:38:53.529Z</time>
      </trkpt>
      <trkpt lat="43.3069" lon="-1.51906">
        <ele>68</ele>
        <time>2021-06-21T08:38:54.535Z</time>
      </trkpt>
      <trkpt lat="43.30689" lon="-1.51898">
        <ele>68</ele>
        <time>2021-06-21T08:38:55.536Z</time>
      </trkpt>
      <trkpt lat="43.30689" lon="-1.51898">
        <ele>68</ele>
        <time>2021-06-21T08:38:56.553Z</time>
      </trkpt>
      <trkpt lat="43.30686" lon="-1.51891">
        <ele>68</ele>
        <time>2021-06-21T08:38:57.512Z</time>
      </trkpt>
      <trkpt lat="43.30686" lon="-1.51891">
        <ele>68</ele>
        <time>2021-06-21T08:38:58.517Z</time>
      </trkpt>
      <trkpt lat="43.30684" lon="-1.51883">
        <ele>68</ele>
        <time>2021-06-21T08:38:59.543Z</time>
      </trkpt>
      <trkpt lat="43.30684" lon="-1.51883">
        <ele>68</ele>
        <time>2021-06-21T08:39:00.516Z</time>
      </trkpt>
      <trkpt lat="43.30681" lon="-1.51875">
        <ele>67</ele>
        <time>2021-06-21T08:39:01.522Z</time>
      </trkpt>
      <trkpt lat="43.30681" lon="-1.51875">
        <ele>67</ele>
        <time>2021-06-21T08:39:02.527Z</time>
      </trkpt>
      <trkpt lat="43.30677" lon="-1.51867">
        <ele>67</ele>
        <time>2021-06-21T08:39:03.520Z</time>
      </trkpt>
      <trkpt lat="43.30677" lon="-1.51867">
        <ele>67</ele>
        <time>2021-06-21T08:39:04.533Z</time>
      </trkpt>
      <trkpt lat="43.30673" lon="-1.51861">
        <ele>66</ele>
        <time>2021-06-21T08:39:05.531Z</time>
      </trkpt>
      <trkpt lat="43.30673" lon="-1.51861">
        <ele>66</ele>
        <time>2021-06-21T08:39:06.536Z</time>
      </trkpt>
      <trkpt lat="43.30668" lon="-1.51854">
        <ele>66</ele>
        <time>2021-06-21T08:39:07.513Z</time>
      </trkpt>
      <trkpt lat="43.30668" lon="-1.51854">
        <ele>66</ele>
        <time>2021-06-21T08:39:08.518Z</time>
      </trkpt>
      <trkpt lat="43.30665" lon="-1.51848">
        <ele>65</ele>
        <time>2021-06-21T08:39:09.547Z</time>
      </trkpt>
      <trkpt lat="43.30665" lon="-1.51848">
        <ele>65</ele>
        <time>2021-06-21T08:39:10.513Z</time>
      </trkpt>
      <trkpt lat="43.30659" lon="-1.51842">
        <ele>65</ele>
        <time>2021-06-21T08:39:11.532Z</time>
      </trkpt>
      <trkpt lat="43.30659" lon="-1.51842">
        <ele>65</ele>
        <time>2021-06-21T08:39:12.538Z</time>
      </trkpt>
      <trkpt lat="43.30653" lon="-1.51836">
        <ele>65</ele>
        <time>2021-06-21T08:39:13.541Z</time>
      </trkpt>
      <trkpt lat="43.30653" lon="-1.51836">
        <ele>65</ele>
        <time>2021-06-21T08:39:14.513Z</time>
      </trkpt>
      <trkpt lat="43.30647" lon="-1.51829">
        <ele>65</ele>
        <time>2021-06-21T08:39:15.549Z</time>
      </trkpt>
      <trkpt lat="43.30647" lon="-1.51829">
        <ele>65</ele>
        <time>2021-06-21T08:39:16.519Z</time>
      </trkpt>
      <trkpt lat="43.30641" lon="-1.51822">
        <ele>65</ele>
        <time>2021-06-21T08:39:17.519Z</time>
      </trkpt>
      <trkpt lat="43.30641" lon="-1.51822">
        <ele>65</ele>
        <time>2021-06-21T08:39:18.525Z</time>
      </trkpt>
      <trkpt lat="43.30635" lon="-1.51816">
        <ele>65</ele>
        <time>2021-06-21T08:39:19.509Z</time>
      </trkpt>
      <trkpt lat="43.30635" lon="-1.51816">
        <ele>65</ele>
        <time>2021-06-21T08:39:20.516Z</time>
      </trkpt>
      <trkpt lat="43.30629" lon="-1.51809">
        <ele>66</ele>
        <time>2021-06-21T08:39:21.512Z</time>
      </trkpt>
      <trkpt lat="43.30626" lon="-1.51806">
        <ele>66</ele>
        <time>2021-06-21T08:39:22.533Z</time>
      </trkpt>
      <trkpt lat="43.30626" lon="-1.51806">
        <ele>66</ele>
        <time>2021-06-21T08:39:23.526Z</time>
      </trkpt>
      <trkpt lat="43.3062" lon="-1.51798">
        <ele>66</ele>
        <time>2021-06-21T08:39:24.519Z</time>
      </trkpt>
      <trkpt lat="43.30617" lon="-1.51795">
        <ele>66</ele>
        <time>2021-06-21T08:39:25.515Z</time>
      </trkpt>
      <trkpt lat="43.30617" lon="-1.51795">
        <ele>66</ele>
        <time>2021-06-21T08:39:26.521Z</time>
      </trkpt>
      <trkpt lat="43.30611" lon="-1.51787">
        <ele>66</ele>
        <time>2021-06-21T08:39:27.531Z</time>
      </trkpt>
      <trkpt lat="43.30611" lon="-1.51787">
        <ele>66</ele>
        <time>2021-06-21T08:39:28.537Z</time>
      </trkpt>
      <trkpt lat="43.30605" lon="-1.51779">
        <ele>66</ele>
        <time>2021-06-21T08:39:29.516Z</time>
      </trkpt>
      <trkpt lat="43.30602" lon="-1.51776">
        <ele>66</ele>
        <time>2021-06-21T08:39:30.516Z</time>
      </trkpt>
      <trkpt lat="43.306" lon="-1.51772">
        <ele>66</ele>
        <time>2021-06-21T08:39:31.539Z</time>
      </trkpt>
      <trkpt lat="43.306" lon="-1.51772">
        <ele>66</ele>
        <time>2021-06-21T08:39:32.550Z</time>
      </trkpt>
      <trkpt lat="43.30594" lon="-1.51765">
        <ele>66</ele>
        <time>2021-06-21T08:39:33.542Z</time>
      </trkpt>
      <trkpt lat="43.30592" lon="-1.51761">
        <ele>66</ele>
        <time>2021-06-21T08:39:34.542Z</time>
      </trkpt>
      <trkpt lat="43.30592" lon="-1.51761">
        <ele>66</ele>
        <time>2021-06-21T08:39:35.516Z</time>
      </trkpt>
      <trkpt lat="43.30588" lon="-1.51753">
        <ele>66</ele>
        <time>2021-06-21T08:39:36.523Z</time>
      </trkpt>
      <trkpt lat="43.30586" lon="-1.51748">
        <ele>66</ele>
        <time>2021-06-21T08:39:37.514Z</time>
      </trkpt>
      <trkpt lat="43.30586" lon="-1.51748">
        <ele>66</ele>
        <time>2021-06-21T08:39:38.520Z</time>
      </trkpt>
      <trkpt lat="43.30581" lon="-1.5174">
        <ele>66</ele>
        <time>2021-06-21T08:39:39.512Z</time>
      </trkpt>
      <trkpt lat="43.30581" lon="-1.5174">
        <ele>66</ele>
        <time>2021-06-21T08:39:40.518Z</time>
      </trkpt>
      <trkpt lat="43.30576" lon="-1.5173">
        <ele>66</ele>
        <time>2021-06-21T08:39:41.545Z</time>
      </trkpt>
      <trkpt lat="43.30576" lon="-1.5173">
        <ele>66</ele>
        <time>2021-06-21T08:39:42.513Z</time>
      </trkpt>
      <trkpt lat="43.30571" lon="-1.51719">
        <ele>65</ele>
        <time>2021-06-21T08:39:43.512Z</time>
      </trkpt>
      <trkpt lat="43.30571" lon="-1.51719">
        <ele>65</ele>
        <time>2021-06-21T08:39:44.518Z</time>
      </trkpt>
      <trkpt lat="43.30565" lon="-1.51708">
        <ele>65</ele>
        <time>2021-06-21T08:39:45.512Z</time>
      </trkpt>
      <trkpt lat="43.30565" lon="-1.51708">
        <ele>65</ele>
        <time>2021-06-21T08:39:46.517Z</time>
      </trkpt>
      <trkpt lat="43.3056" lon="-1.51698">
        <ele>65</ele>
        <time>2021-06-21T08:39:47.516Z</time>
      </trkpt>
      <trkpt lat="43.3056" lon="-1.51698">
        <ele>65</ele>
        <time>2021-06-21T08:39:48.522Z</time>
      </trkpt>
      <trkpt lat="43.30554" lon="-1.51689">
        <ele>65</ele>
        <time>2021-06-21T08:39:49.510Z</time>
      </trkpt>
      <trkpt lat="43.30554" lon="-1.51689">
        <ele>65</ele>
        <time>2021-06-21T08:39:50.516Z</time>
      </trkpt>
      <trkpt lat="43.30548" lon="-1.51681">
        <ele>65</ele>
        <time>2021-06-21T08:39:51.548Z</time>
      </trkpt>
      <trkpt lat="43.30545" lon="-1.51677">
        <ele>65</ele>
        <time>2021-06-21T08:39:52.509Z</time>
      </trkpt>
      <trkpt lat="43.30545" lon="-1.51677">
        <ele>65</ele>
        <time>2021-06-21T08:39:53.514Z</time>
      </trkpt>
      <trkpt lat="43.30539" lon="-1.51668">
        <ele>66</ele>
        <time>2021-06-21T08:39:54.543Z</time>
      </trkpt>
      <trkpt lat="43.30535" lon="-1.51664">
        <ele>66</ele>
        <time>2021-06-21T08:39:55.509Z</time>
      </trkpt>
      <trkpt lat="43.30535" lon="-1.51664">
        <ele>66</ele>
        <time>2021-06-21T08:39:56.516Z</time>
      </trkpt>
      <trkpt lat="43.30529" lon="-1.51657">
        <ele>66</ele>
        <time>2021-06-21T08:39:57.512Z</time>
      </trkpt>
      <trkpt lat="43.30529" lon="-1.51657">
        <ele>66</ele>
        <time>2021-06-21T08:39:58.517Z</time>
      </trkpt>
      <trkpt lat="43.30523" lon="-1.51649">
        <ele>66</ele>
        <time>2021-06-21T08:39:59.543Z</time>
      </trkpt>
      <trkpt lat="43.30523" lon="-1.51649">
        <ele>66</ele>
        <time>2021-06-21T08:40:00.511Z</time>
      </trkpt>
      <trkpt lat="43.30516" lon="-1.51641">
        <ele>67</ele>
        <time>2021-06-21T08:40:01.548Z</time>
      </trkpt>
      <trkpt lat="43.30516" lon="-1.51641">
        <ele>67</ele>
        <time>2021-06-21T08:40:02.514Z</time>
      </trkpt>
      <trkpt lat="43.3051" lon="-1.51634">
        <ele>67</ele>
        <time>2021-06-21T08:40:03.516Z</time>
      </trkpt>
      <trkpt lat="43.3051" lon="-1.51634">
        <ele>67</ele>
        <time>2021-06-21T08:40:04.521Z</time>
      </trkpt>
      <trkpt lat="43.30504" lon="-1.51627">
        <ele>68</ele>
        <time>2021-06-21T08:40:05.515Z</time>
      </trkpt>
      <trkpt lat="43.30504" lon="-1.51627">
        <ele>68</ele>
        <time>2021-06-21T08:40:06.520Z</time>
      </trkpt>
      <trkpt lat="43.30498" lon="-1.5162">
        <ele>68</ele>
        <time>2021-06-21T08:40:07.519Z</time>
      </trkpt>
      <trkpt lat="43.30498" lon="-1.5162">
        <ele>68</ele>
        <time>2021-06-21T08:40:08.525Z</time>
      </trkpt>
      <trkpt lat="43.30492" lon="-1.51612">
        <ele>68</ele>
        <time>2021-06-21T08:40:09.513Z</time>
      </trkpt>
      <trkpt lat="43.30492" lon="-1.51612">
        <ele>68</ele>
        <time>2021-06-21T08:40:10.518Z</time>
      </trkpt>
      <trkpt lat="43.30486" lon="-1.51605">
        <ele>69</ele>
        <time>2021-06-21T08:40:11.512Z</time>
      </trkpt>
      <trkpt lat="43.30482" lon="-1.51602">
        <ele>69</ele>
        <time>2021-06-21T08:40:12.540Z</time>
      </trkpt>
      <trkpt lat="43.30479" lon="-1.51598">
        <ele>69</ele>
        <time>2021-06-21T08:40:13.532Z</time>
      </trkpt>
      <trkpt lat="43.30479" lon="-1.51598">
        <ele>69</ele>
        <time>2021-06-21T08:40:14.537Z</time>
      </trkpt>
      <trkpt lat="43.30472" lon="-1.51591">
        <ele>69</ele>
        <time>2021-06-21T08:40:15.539Z</time>
      </trkpt>
      <trkpt lat="43.30469" lon="-1.51588">
        <ele>70</ele>
        <time>2021-06-21T08:40:16.542Z</time>
      </trkpt>
      <trkpt lat="43.30469" lon="-1.51588">
        <ele>70</ele>
        <time>2021-06-21T08:40:17.552Z</time>
      </trkpt>
      <trkpt lat="43.30463" lon="-1.5158">
        <ele>70</ele>
        <time>2021-06-21T08:40:18.531Z</time>
      </trkpt>
      <trkpt lat="43.3046" lon="-1.51577">
        <ele>70</ele>
        <time>2021-06-21T08:40:19.537Z</time>
      </trkpt>
      <trkpt lat="43.3046" lon="-1.51577">
        <ele>70</ele>
        <time>2021-06-21T08:40:20.550Z</time>
      </trkpt>
      <trkpt lat="43.30453" lon="-1.5157">
        <ele>70</ele>
        <time>2021-06-21T08:40:21.514Z</time>
      </trkpt>
      <trkpt lat="43.30453" lon="-1.5157">
        <ele>70</ele>
        <time>2021-06-21T08:40:22.533Z</time>
      </trkpt>
      <trkpt lat="43.30447" lon="-1.51563">
        <ele>71</ele>
        <time>2021-06-21T08:40:23.548Z</time>
      </trkpt>
      <trkpt lat="43.30447" lon="-1.51563">
        <ele>71</ele>
        <time>2021-06-21T08:40:24.519Z</time>
      </trkpt>
      <trkpt lat="43.30442" lon="-1.51556">
        <ele>71</ele>
        <time>2021-06-21T08:40:25.518Z</time>
      </trkpt>
      <trkpt lat="43.30438" lon="-1.51552">
        <ele>71</ele>
        <time>2021-06-21T08:40:26.510Z</time>
      </trkpt>
      <trkpt lat="43.30438" lon="-1.51552">
        <ele>71</ele>
        <time>2021-06-21T08:40:27.518Z</time>
      </trkpt>
      <trkpt lat="43.30431" lon="-1.51545">
        <ele>71</ele>
        <time>2021-06-21T08:40:28.551Z</time>
      </trkpt>
      <trkpt lat="43.30431" lon="-1.51545">
        <ele>71</ele>
        <time>2021-06-21T08:40:29.517Z</time>
      </trkpt>
      <trkpt lat="43.30424" lon="-1.51537">
        <ele>71</ele>
        <time>2021-06-21T08:40:30.521Z</time>
      </trkpt>
      <trkpt lat="43.30421" lon="-1.51533">
        <ele>71</ele>
        <time>2021-06-21T08:40:31.512Z</time>
      </trkpt>
      <trkpt lat="43.30421" lon="-1.51533">
        <ele>71</ele>
        <time>2021-06-21T08:40:32.518Z</time>
      </trkpt>
      <trkpt lat="43.30415" lon="-1.51526">
        <ele>71</ele>
        <time>2021-06-21T08:40:33.549Z</time>
      </trkpt>
      <trkpt lat="43.30415" lon="-1.51526">
        <ele>71</ele>
        <time>2021-06-21T08:40:34.515Z</time>
      </trkpt>
      <trkpt lat="43.30408" lon="-1.51519">
        <ele>71</ele>
        <time>2021-06-21T08:40:35.542Z</time>
      </trkpt>
      <trkpt lat="43.30408" lon="-1.51519">
        <ele>71</ele>
        <time>2021-06-21T08:40:36.516Z</time>
      </trkpt>
      <trkpt lat="43.30401" lon="-1.51512">
        <ele>71</ele>
        <time>2021-06-21T08:40:37.549Z</time>
      </trkpt>
      <trkpt lat="43.30401" lon="-1.51512">
        <ele>71</ele>
        <time>2021-06-21T08:40:38.517Z</time>
      </trkpt>
      <trkpt lat="43.30394" lon="-1.51505">
        <ele>70</ele>
        <time>2021-06-21T08:40:39.546Z</time>
      </trkpt>
      <trkpt lat="43.30394" lon="-1.51505">
        <ele>70</ele>
        <time>2021-06-21T08:40:40.514Z</time>
      </trkpt>
      <trkpt lat="43.30388" lon="-1.51496">
        <ele>70</ele>
        <time>2021-06-21T08:40:41.549Z</time>
      </trkpt>
      <trkpt lat="43.30388" lon="-1.51496">
        <ele>70</ele>
        <time>2021-06-21T08:40:42.516Z</time>
      </trkpt>
      <trkpt lat="43.30381" lon="-1.51488">
        <ele>70</ele>
        <time>2021-06-21T08:40:43.533Z</time>
      </trkpt>
      <trkpt lat="43.30381" lon="-1.51488">
        <ele>70</ele>
        <time>2021-06-21T08:40:44.539Z</time>
      </trkpt>
      <trkpt lat="43.30374" lon="-1.51481">
        <ele>69</ele>
        <time>2021-06-21T08:40:45.524Z</time>
      </trkpt>
      <trkpt lat="43.30374" lon="-1.51481">
        <ele>69</ele>
        <time>2021-06-21T08:40:46.530Z</time>
      </trkpt>
      <trkpt lat="43.30368" lon="-1.51475">
        <ele>69</ele>
        <time>2021-06-21T08:40:47.547Z</time>
      </trkpt>
      <trkpt lat="43.30368" lon="-1.51475">
        <ele>69</ele>
        <time>2021-06-21T08:40:48.517Z</time>
      </trkpt>
      <trkpt lat="43.30361" lon="-1.51467">
        <ele>69</ele>
        <time>2021-06-21T08:40:49.540Z</time>
      </trkpt>
      <trkpt lat="43.30361" lon="-1.51467">
        <ele>69</ele>
        <time>2021-06-21T08:40:50.550Z</time>
      </trkpt>
      <trkpt lat="43.30354" lon="-1.5146">
        <ele>69</ele>
        <time>2021-06-21T08:40:51.534Z</time>
      </trkpt>
      <trkpt lat="43.3035" lon="-1.51456">
        <ele>69</ele>
        <time>2021-06-21T08:40:52.513Z</time>
      </trkpt>
      <trkpt lat="43.30347" lon="-1.51453">
        <ele>69</ele>
        <time>2021-06-21T08:40:53.518Z</time>
      </trkpt>
      <trkpt lat="43.30347" lon="-1.51453">
        <ele>69</ele>
        <time>2021-06-21T08:40:54.524Z</time>
      </trkpt>
      <trkpt lat="43.3034" lon="-1.51445">
        <ele>68</ele>
        <time>2021-06-21T08:40:55.522Z</time>
      </trkpt>
      <trkpt lat="43.3034" lon="-1.51445">
        <ele>68</ele>
        <time>2021-06-21T08:40:56.527Z</time>
      </trkpt>
      <trkpt lat="43.30334" lon="-1.51438">
        <ele>68</ele>
        <time>2021-06-21T08:40:57.520Z</time>
      </trkpt>
      <trkpt lat="43.3033" lon="-1.51435">
        <ele>68</ele>
        <time>2021-06-21T08:40:58.535Z</time>
      </trkpt>
      <trkpt lat="43.3033" lon="-1.51435">
        <ele>68</ele>
        <time>2021-06-21T08:40:59.542Z</time>
      </trkpt>
      <trkpt lat="43.30323" lon="-1.51428">
        <ele>68</ele>
        <time>2021-06-21T08:41:00.510Z</time>
      </trkpt>
      <trkpt lat="43.3032" lon="-1.51425">
        <ele>68</ele>
        <time>2021-06-21T08:41:01.535Z</time>
      </trkpt>
      <trkpt lat="43.3032" lon="-1.51425">
        <ele>68</ele>
        <time>2021-06-21T08:41:02.540Z</time>
      </trkpt>
      <trkpt lat="43.30313" lon="-1.51418">
        <ele>67</ele>
        <time>2021-06-21T08:41:03.546Z</time>
      </trkpt>
      <trkpt lat="43.30313" lon="-1.51418">
        <ele>67</ele>
        <time>2021-06-21T08:41:04.519Z</time>
      </trkpt>
      <trkpt lat="43.30306" lon="-1.5141">
        <ele>67</ele>
        <time>2021-06-21T08:41:05.540Z</time>
      </trkpt>
      <trkpt lat="43.30306" lon="-1.5141">
        <ele>67</ele>
        <time>2021-06-21T08:41:06.557Z</time>
      </trkpt>
      <trkpt lat="43.30298" lon="-1.51403">
        <ele>67</ele>
        <time>2021-06-21T08:41:07.512Z</time>
      </trkpt>
      <trkpt lat="43.30298" lon="-1.51403">
        <ele>67</ele>
        <time>2021-06-21T08:41:08.518Z</time>
      </trkpt>
      <trkpt lat="43.3029" lon="-1.51395">
        <ele>66</ele>
        <time>2021-06-21T08:41:09.549Z</time>
      </trkpt>
      <trkpt lat="43.3029" lon="-1.51395">
        <ele>66</ele>
        <time>2021-06-21T08:41:10.515Z</time>
      </trkpt>
      <trkpt lat="43.30281" lon="-1.51386">
        <ele>66</ele>
        <time>2021-06-21T08:41:11.534Z</time>
      </trkpt>
      <trkpt lat="43.30276" lon="-1.51381">
        <ele>66</ele>
        <time>2021-06-21T08:41:12.516Z</time>
      </trkpt>
      <trkpt lat="43.30272" lon="-1.51378">
        <ele>66</ele>
        <time>2021-06-21T08:41:13.519Z</time>
      </trkpt>
      <trkpt lat="43.30272" lon="-1.51378">
        <ele>66</ele>
        <time>2021-06-21T08:41:14.525Z</time>
      </trkpt>
      <trkpt lat="43.30264" lon="-1.51368">
        <ele>65</ele>
        <time>2021-06-21T08:41:15.514Z</time>
      </trkpt>
      <trkpt lat="43.30264" lon="-1.51368">
        <ele>65</ele>
        <time>2021-06-21T08:41:16.520Z</time>
      </trkpt>
      <trkpt lat="43.30256" lon="-1.5136">
        <ele>65</ele>
        <time>2021-06-21T08:41:17.522Z</time>
      </trkpt>
      <trkpt lat="43.30252" lon="-1.51356">
        <ele>65</ele>
        <time>2021-06-21T08:41:18.522Z</time>
      </trkpt>
      <trkpt lat="43.30248" lon="-1.51352">
        <ele>65</ele>
        <time>2021-06-21T08:41:19.542Z</time>
      </trkpt>
      <trkpt lat="43.30248" lon="-1.51352">
        <ele>65</ele>
        <time>2021-06-21T08:41:20.519Z</time>
      </trkpt>
      <trkpt lat="43.30239" lon="-1.51343">
        <ele>66</ele>
        <time>2021-06-21T08:41:21.517Z</time>
      </trkpt>
      <trkpt lat="43.30239" lon="-1.51343">
        <ele>66</ele>
        <time>2021-06-21T08:41:22.533Z</time>
      </trkpt>
      <trkpt lat="43.30231" lon="-1.51334">
        <ele>67</ele>
        <time>2021-06-21T08:41:23.532Z</time>
      </trkpt>
      <trkpt lat="43.30227" lon="-1.5133">
        <ele>67</ele>
        <time>2021-06-21T08:41:24.515Z</time>
      </trkpt>
      <trkpt lat="43.30227" lon="-1.5133">
        <ele>67</ele>
        <time>2021-06-21T08:41:25.521Z</time>
      </trkpt>
      <trkpt lat="43.30218" lon="-1.51322">
        <ele>67</ele>
        <time>2021-06-21T08:41:26.547Z</time>
      </trkpt>
      <trkpt lat="43.30218" lon="-1.51322">
        <ele>67</ele>
        <time>2021-06-21T08:41:27.518Z</time>
      </trkpt>
      <trkpt lat="43.30209" lon="-1.51314">
        <ele>67</ele>
        <time>2021-06-21T08:41:28.522Z</time>
      </trkpt>
      <trkpt lat="43.30209" lon="-1.51314">
        <ele>67</ele>
        <time>2021-06-21T08:41:29.528Z</time>
      </trkpt>
      <trkpt lat="43.30201" lon="-1.51307">
        <ele>68</ele>
        <time>2021-06-21T08:41:30.519Z</time>
      </trkpt>
      <trkpt lat="43.30196" lon="-1.51303">
        <ele>68</ele>
        <time>2021-06-21T08:41:31.512Z</time>
      </trkpt>
      <trkpt lat="43.30196" lon="-1.51303">
        <ele>68</ele>
        <time>2021-06-21T08:41:32.517Z</time>
      </trkpt>
      <trkpt lat="43.30187" lon="-1.51297">
        <ele>68</ele>
        <time>2021-06-21T08:41:33.532Z</time>
      </trkpt>
      <trkpt lat="43.30187" lon="-1.51297">
        <ele>68</ele>
        <time>2021-06-21T08:41:34.537Z</time>
      </trkpt>
      <trkpt lat="43.30177" lon="-1.51293">
        <ele>69</ele>
        <time>2021-06-21T08:41:35.539Z</time>
      </trkpt>
      <trkpt lat="43.30172" lon="-1.51291">
        <ele>69</ele>
        <time>2021-06-21T08:41:36.524Z</time>
      </trkpt>
      <trkpt lat="43.30168" lon="-1.51289">
        <ele>70</ele>
        <time>2021-06-21T08:41:37.548Z</time>
      </trkpt>
      <trkpt lat="43.30168" lon="-1.51289">
        <ele>70</ele>
        <time>2021-06-21T08:41:38.513Z</time>
      </trkpt>
      <trkpt lat="43.30158" lon="-1.51287">
        <ele>70</ele>
        <time>2021-06-21T08:41:39.521Z</time>
      </trkpt>
      <trkpt lat="43.30158" lon="-1.51287">
        <ele>70</ele>
        <time>2021-06-21T08:41:40.526Z</time>
      </trkpt>
      <trkpt lat="43.30148" lon="-1.51285">
        <ele>70</ele>
        <time>2021-06-21T08:41:41.530Z</time>
      </trkpt>
      <trkpt lat="43.30143" lon="-1.51285">
        <ele>70</ele>
        <time>2021-06-21T08:41:42.541Z</time>
      </trkpt>
      <trkpt lat="43.30143" lon="-1.51285">
        <ele>70</ele>
        <time>2021-06-21T08:41:43.510Z</time>
      </trkpt>
      <trkpt lat="43.30132" lon="-1.51284">
        <ele>70</ele>
        <time>2021-06-21T08:41:44.541Z</time>
      </trkpt>
      <trkpt lat="43.30132" lon="-1.51284">
        <ele>70</ele>
        <time>2021-06-21T08:41:45.548Z</time>
      </trkpt>
      <trkpt lat="43.30122" lon="-1.51284">
        <ele>70</ele>
        <time>2021-06-21T08:41:46.532Z</time>
      </trkpt>
      <trkpt lat="43.30116" lon="-1.51284">
        <ele>70</ele>
        <time>2021-06-21T08:41:47.532Z</time>
      </trkpt>
      <trkpt lat="43.30116" lon="-1.51284">
        <ele>70</ele>
        <time>2021-06-21T08:41:48.537Z</time>
      </trkpt>
      <trkpt lat="43.30106" lon="-1.51284">
        <ele>70</ele>
        <time>2021-06-21T08:41:49.523Z</time>
      </trkpt>
      <trkpt lat="43.30106" lon="-1.51284">
        <ele>70</ele>
        <time>2021-06-21T08:41:50.528Z</time>
      </trkpt>
      <trkpt lat="43.30095" lon="-1.51283">
        <ele>70</ele>
        <time>2021-06-21T08:41:51.532Z</time>
      </trkpt>
      <trkpt lat="43.30095" lon="-1.51283">
        <ele>70</ele>
        <time>2021-06-21T08:41:52.538Z</time>
      </trkpt>
      <trkpt lat="43.30084" lon="-1.5128">
        <ele>70</ele>
        <time>2021-06-21T08:41:53.542Z</time>
      </trkpt>
      <trkpt lat="43.30079" lon="-1.51277">
        <ele>70</ele>
        <time>2021-06-21T08:41:54.528Z</time>
      </trkpt>
      <trkpt lat="43.30074" lon="-1.51274">
        <ele>70</ele>
        <time>2021-06-21T08:41:55.510Z</time>
      </trkpt>
      <trkpt lat="43.30074" lon="-1.51274">
        <ele>70</ele>
        <time>2021-06-21T08:41:56.516Z</time>
      </trkpt>
      <trkpt lat="43.30064" lon="-1.51266">
        <ele>70</ele>
        <time>2021-06-21T08:41:57.518Z</time>
      </trkpt>
      <trkpt lat="43.30064" lon="-1.51266">
        <ele>70</ele>
        <time>2021-06-21T08:41:58.524Z</time>
      </trkpt>
      <trkpt lat="43.30055" lon="-1.51254">
        <ele>69</ele>
        <time>2021-06-21T08:41:59.520Z</time>
      </trkpt>
      <trkpt lat="43.3005" lon="-1.51249">
        <ele>69</ele>
        <time>2021-06-21T08:42:00.550Z</time>
      </trkpt>
      <trkpt lat="43.3005" lon="-1.51249">
        <ele>69</ele>
        <time>2021-06-21T08:42:01.515Z</time>
      </trkpt>
      <trkpt lat="43.30039" lon="-1.51243">
        <ele>69</ele>
        <time>2021-06-21T08:42:02.541Z</time>
      </trkpt>
      <trkpt lat="43.30032" lon="-1.51242">
        <ele>69</ele>
        <time>2021-06-21T08:42:03.528Z</time>
      </trkpt>
      <trkpt lat="43.30032" lon="-1.51242">
        <ele>69</ele>
        <time>2021-06-21T08:42:04.533Z</time>
      </trkpt>
      <trkpt lat="43.30019" lon="-1.51248">
        <ele>69</ele>
        <time>2021-06-21T08:42:05.522Z</time>
      </trkpt>
      <trkpt lat="43.30012" lon="-1.51251">
        <ele>69</ele>
        <time>2021-06-21T08:42:06.522Z</time>
      </trkpt>
      <trkpt lat="43.30012" lon="-1.51251">
        <ele>69</ele>
        <time>2021-06-21T08:42:07.527Z</time>
      </trkpt>
      <trkpt lat="43.3" lon="-1.51258">
        <ele>68</ele>
        <time>2021-06-21T08:42:08.550Z</time>
      </trkpt>
      <trkpt lat="43.3" lon="-1.51258">
        <ele>68</ele>
        <time>2021-06-21T08:42:09.517Z</time>
      </trkpt>
      <trkpt lat="43.2999" lon="-1.51263">
        <ele>68</ele>
        <time>2021-06-21T08:42:10.517Z</time>
      </trkpt>
      <trkpt lat="43.2999" lon="-1.51263">
        <ele>68</ele>
        <time>2021-06-21T08:42:11.523Z</time>
      </trkpt>
      <trkpt lat="43.29979" lon="-1.51258">
        <ele>68</ele>
        <time>2021-06-21T08:42:12.520Z</time>
      </trkpt>
      <trkpt lat="43.29975" lon="-1.51254">
        <ele>68</ele>
        <time>2021-06-21T08:42:13.548Z</time>
      </trkpt>
      <trkpt lat="43.29975" lon="-1.51254">
        <ele>68</ele>
        <time>2021-06-21T08:42:14.514Z</time>
      </trkpt>
      <trkpt lat="43.2997" lon="-1.51239">
        <ele>68</ele>
        <time>2021-06-21T08:42:15.512Z</time>
      </trkpt>
      <trkpt lat="43.2997" lon="-1.51232">
        <ele>68</ele>
        <time>2021-06-21T08:42:16.540Z</time>
      </trkpt>
      <trkpt lat="43.2997" lon="-1.51232">
        <ele>68</ele>
        <time>2021-06-21T08:42:17.553Z</time>
      </trkpt>
      <trkpt lat="43.29973" lon="-1.51218">
        <ele>68</ele>
        <time>2021-06-21T08:42:18.514Z</time>
      </trkpt>
      <trkpt lat="43.29976" lon="-1.51212">
        <ele>68</ele>
        <time>2021-06-21T08:42:19.532Z</time>
      </trkpt>
      <trkpt lat="43.29976" lon="-1.51212">
        <ele>68</ele>
        <time>2021-06-21T08:42:20.538Z</time>
      </trkpt>
      <trkpt lat="43.29982" lon="-1.512">
        <ele>68</ele>
        <time>2021-06-21T08:42:21.538Z</time>
      </trkpt>
      <trkpt lat="43.29982" lon="-1.512">
        <ele>68</ele>
        <time>2021-06-21T08:42:22.533Z</time>
      </trkpt>
      <trkpt lat="43.29986" lon="-1.51189">
        <ele>68</ele>
        <time>2021-06-21T08:42:23.512Z</time>
      </trkpt>
      <trkpt lat="43.29986" lon="-1.51189">
        <ele>68</ele>
        <time>2021-06-21T08:42:24.517Z</time>
      </trkpt>
      <trkpt lat="43.29991" lon="-1.51176">
        <ele>68</ele>
        <time>2021-06-21T08:42:25.545Z</time>
      </trkpt>
      <trkpt lat="43.29991" lon="-1.51176">
        <ele>68</ele>
        <time>2021-06-21T08:42:26.519Z</time>
      </trkpt>
      <trkpt lat="43.29997" lon="-1.51164">
        <ele>68</ele>
        <time>2021-06-21T08:42:27.512Z</time>
      </trkpt>
      <trkpt lat="43.29997" lon="-1.51164">
        <ele>68</ele>
        <time>2021-06-21T08:42:28.517Z</time>
      </trkpt>
      <trkpt lat="43.30004" lon="-1.51151">
        <ele>67</ele>
        <time>2021-06-21T08:42:29.545Z</time>
      </trkpt>
      <trkpt lat="43.30004" lon="-1.51151">
        <ele>67</ele>
        <time>2021-06-21T08:42:30.512Z</time>
      </trkpt>
      <trkpt lat="43.30009" lon="-1.51138">
        <ele>67</ele>
        <time>2021-06-21T08:42:31.552Z</time>
      </trkpt>
      <trkpt lat="43.30009" lon="-1.51138">
        <ele>67</ele>
        <time>2021-06-21T08:42:32.518Z</time>
      </trkpt>
      <trkpt lat="43.30013" lon="-1.51124">
        <ele>67</ele>
        <time>2021-06-21T08:42:33.510Z</time>
      </trkpt>
      <trkpt lat="43.30013" lon="-1.51116">
        <ele>67</ele>
        <time>2021-06-21T08:42:34.515Z</time>
      </trkpt>
      <trkpt lat="43.30013" lon="-1.51116">
        <ele>67</ele>
        <time>2021-06-21T08:42:35.521Z</time>
      </trkpt>
      <trkpt lat="43.30012" lon="-1.51101">
        <ele>68</ele>
        <time>2021-06-21T08:42:36.545Z</time>
      </trkpt>
      <trkpt lat="43.3001" lon="-1.51095">
        <ele>69</ele>
        <time>2021-06-21T08:42:37.539Z</time>
      </trkpt>
      <trkpt lat="43.3001" lon="-1.51095">
        <ele>69</ele>
        <time>2021-06-21T08:42:38.546Z</time>
      </trkpt>
      <trkpt lat="43.30004" lon="-1.51083">
        <ele>69</ele>
        <time>2021-06-21T08:42:39.545Z</time>
      </trkpt>
      <trkpt lat="43.30001" lon="-1.51077">
        <ele>70</ele>
        <time>2021-06-21T08:42:40.512Z</time>
      </trkpt>
      <trkpt lat="43.30001" lon="-1.51077">
        <ele>70</ele>
        <time>2021-06-21T08:42:41.518Z</time>
      </trkpt>
      <trkpt lat="43.29994" lon="-1.51066">
        <ele>70</ele>
        <time>2021-06-21T08:42:42.522Z</time>
      </trkpt>
      <trkpt lat="43.29991" lon="-1.51061">
        <ele>70</ele>
        <time>2021-06-21T08:42:43.552Z</time>
      </trkpt>
      <trkpt lat="43.29991" lon="-1.51061">
        <ele>70</ele>
        <time>2021-06-21T08:42:44.533Z</time>
      </trkpt>
      <trkpt lat="43.29984" lon="-1.5105">
        <ele>70</ele>
        <time>2021-06-21T08:42:45.531Z</time>
      </trkpt>
      <trkpt lat="43.29984" lon="-1.5105">
        <ele>70</ele>
        <time>2021-06-21T08:42:46.536Z</time>
      </trkpt>
      <trkpt lat="43.29978" lon="-1.5104">
        <ele>70</ele>
        <time>2021-06-21T08:42:47.525Z</time>
      </trkpt>
      <trkpt lat="43.29975" lon="-1.51035">
        <ele>70</ele>
        <time>2021-06-21T08:42:48.520Z</time>
      </trkpt>
      <trkpt lat="43.29972" lon="-1.5103">
        <ele>70</ele>
        <time>2021-06-21T08:42:49.554Z</time>
      </trkpt>
      <trkpt lat="43.29972" lon="-1.5103">
        <ele>70</ele>
        <time>2021-06-21T08:42:50.533Z</time>
      </trkpt>
      <trkpt lat="43.29966" lon="-1.51019">
        <ele>70</ele>
        <time>2021-06-21T08:42:51.524Z</time>
      </trkpt>
      <trkpt lat="43.29966" lon="-1.51019">
        <ele>70</ele>
        <time>2021-06-21T08:42:52.529Z</time>
      </trkpt>
      <trkpt lat="43.2996" lon="-1.51009">
        <ele>71</ele>
        <time>2021-06-21T08:42:53.546Z</time>
      </trkpt>
      <trkpt lat="43.2996" lon="-1.51009">
        <ele>71</ele>
        <time>2021-06-21T08:42:54.512Z</time>
      </trkpt>
      <trkpt lat="43.29954" lon="-1.50999">
        <ele>71</ele>
        <time>2021-06-21T08:42:55.512Z</time>
      </trkpt>
      <trkpt lat="43.29954" lon="-1.50999">
        <ele>71</ele>
        <time>2021-06-21T08:42:56.518Z</time>
      </trkpt>
      <trkpt lat="43.29949" lon="-1.5099">
        <ele>71</ele>
        <time>2021-06-21T08:42:57.533Z</time>
      </trkpt>
      <trkpt lat="43.29949" lon="-1.5099">
        <ele>71</ele>
        <time>2021-06-21T08:42:58.539Z</time>
      </trkpt>
      <trkpt lat="43.29943" lon="-1.50981">
        <ele>71</ele>
        <time>2021-06-21T08:42:59.532Z</time>
      </trkpt>
      <trkpt lat="43.29941" lon="-1.50977">
        <ele>71</ele>
        <time>2021-06-21T08:43:00.522Z</time>
      </trkpt>
      <trkpt lat="43.29938" lon="-1.50972">
        <ele>72</ele>
        <time>2021-06-21T08:43:01.512Z</time>
      </trkpt>
      <trkpt lat="43.29938" lon="-1.50972">
        <ele>72</ele>
        <time>2021-06-21T08:43:02.518Z</time>
      </trkpt>
      <trkpt lat="43.29933" lon="-1.50964">
        <ele>72</ele>
        <time>2021-06-21T08:43:03.542Z</time>
      </trkpt>
      <trkpt lat="43.29931" lon="-1.5096">
        <ele>72</ele>
        <time>2021-06-21T08:43:04.533Z</time>
      </trkpt>
      <trkpt lat="43.29931" lon="-1.5096">
        <ele>72</ele>
        <time>2021-06-21T08:43:05.538Z</time>
      </trkpt>
      <trkpt lat="43.29925" lon="-1.50952">
        <ele>72</ele>
        <time>2021-06-21T08:43:06.525Z</time>
      </trkpt>
      <trkpt lat="43.29923" lon="-1.50948">
        <ele>72</ele>
        <time>2021-06-21T08:43:07.513Z</time>
      </trkpt>
      <trkpt lat="43.29923" lon="-1.50948">
        <ele>72</ele>
        <time>2021-06-21T08:43:08.518Z</time>
      </trkpt>
      <trkpt lat="43.29918" lon="-1.50939">
        <ele>72</ele>
        <time>2021-06-21T08:43:09.513Z</time>
      </trkpt>
      <trkpt lat="43.29918" lon="-1.50939">
        <ele>72</ele>
        <time>2021-06-21T08:43:10.519Z</time>
      </trkpt>
      <trkpt lat="43.29913" lon="-1.5093">
        <ele>72</ele>
        <time>2021-06-21T08:43:11.538Z</time>
      </trkpt>
      <trkpt lat="43.29911" lon="-1.50926">
        <ele>72</ele>
        <time>2021-06-21T08:43:12.532Z</time>
      </trkpt>
      <trkpt lat="43.29908" lon="-1.50922">
        <ele>72</ele>
        <time>2021-06-21T08:43:13.522Z</time>
      </trkpt>
      <trkpt lat="43.29908" lon="-1.50922">
        <ele>72</ele>
        <time>2021-06-21T08:43:14.527Z</time>
      </trkpt>
      <trkpt lat="43.29903" lon="-1.50915">
        <ele>72</ele>
        <time>2021-06-21T08:43:15.516Z</time>
      </trkpt>
      <trkpt lat="43.29903" lon="-1.50915">
        <ele>72</ele>
        <time>2021-06-21T08:43:16.521Z</time>
      </trkpt>
      <trkpt lat="43.29897" lon="-1.50908">
        <ele>71</ele>
        <time>2021-06-21T08:43:17.512Z</time>
      </trkpt>
      <trkpt lat="43.29897" lon="-1.50908">
        <ele>71</ele>
        <time>2021-06-21T08:43:18.518Z</time>
      </trkpt>
      <trkpt lat="43.29891" lon="-1.50901">
        <ele>71</ele>
        <time>2021-06-21T08:43:19.513Z</time>
      </trkpt>
      <trkpt lat="43.29891" lon="-1.50901">
        <ele>71</ele>
        <time>2021-06-21T08:43:20.520Z</time>
      </trkpt>
      <trkpt lat="43.29885" lon="-1.50895">
        <ele>71</ele>
        <time>2021-06-21T08:43:21.542Z</time>
      </trkpt>
      <trkpt lat="43.29885" lon="-1.50895">
        <ele>71</ele>
        <time>2021-06-21T08:43:22.528Z</time>
      </trkpt>
      <trkpt lat="43.29879" lon="-1.50888">
        <ele>71</ele>
        <time>2021-06-21T08:43:23.527Z</time>
      </trkpt>
      <trkpt lat="43.29876" lon="-1.50885">
        <ele>72</ele>
        <time>2021-06-21T08:43:24.532Z</time>
      </trkpt>
      <trkpt lat="43.29876" lon="-1.50885">
        <ele>72</ele>
        <time>2021-06-21T08:43:25.537Z</time>
      </trkpt>
      <trkpt lat="43.2987" lon="-1.5088">
        <ele>72</ele>
        <time>2021-06-21T08:43:26.528Z</time>
      </trkpt>
      <trkpt lat="43.2987" lon="-1.5088">
        <ele>72</ele>
        <time>2021-06-21T08:43:27.534Z</time>
      </trkpt>
      <trkpt lat="43.29863" lon="-1.50875">
        <ele>72</ele>
        <time>2021-06-21T08:43:28.519Z</time>
      </trkpt>
      <trkpt lat="43.29863" lon="-1.50875">
        <ele>72</ele>
        <time>2021-06-21T08:43:29.525Z</time>
      </trkpt>
      <trkpt lat="43.29857" lon="-1.5087">
        <ele>72</ele>
        <time>2021-06-21T08:43:30.524Z</time>
      </trkpt>
      <trkpt lat="43.29854" lon="-1.50867">
        <ele>72</ele>
        <time>2021-06-21T08:43:31.520Z</time>
      </trkpt>
      <trkpt lat="43.29854" lon="-1.50867">
        <ele>72</ele>
        <time>2021-06-21T08:43:32.526Z</time>
      </trkpt>
      <trkpt lat="43.29848" lon="-1.50861">
        <ele>73</ele>
        <time>2021-06-21T08:43:33.542Z</time>
      </trkpt>
      <trkpt lat="43.29848" lon="-1.50861">
        <ele>73</ele>
        <time>2021-06-21T08:43:34.520Z</time>
      </trkpt>
      <trkpt lat="43.29842" lon="-1.50855">
        <ele>73</ele>
        <time>2021-06-21T08:43:35.532Z</time>
      </trkpt>
      <trkpt lat="43.29842" lon="-1.50855">
        <ele>73</ele>
        <time>2021-06-21T08:43:36.537Z</time>
      </trkpt>
      <trkpt lat="43.29836" lon="-1.50848">
        <ele>73</ele>
        <time>2021-06-21T08:43:37.523Z</time>
      </trkpt>
      <trkpt lat="43.29833" lon="-1.50844">
        <ele>73</ele>
        <time>2021-06-21T08:43:38.534Z</time>
      </trkpt>
      <trkpt lat="43.2983" lon="-1.5084">
        <ele>73</ele>
        <time>2021-06-21T08:43:39.521Z</time>
      </trkpt>
      <trkpt lat="43.29826" lon="-1.50836">
        <ele>73</ele>
        <time>2021-06-21T08:43:40.518Z</time>
      </trkpt>
      <trkpt lat="43.29826" lon="-1.50836">
        <ele>73</ele>
        <time>2021-06-21T08:43:41.524Z</time>
      </trkpt>
      <trkpt lat="43.29819" lon="-1.50828">
        <ele>74</ele>
        <time>2021-06-21T08:43:42.535Z</time>
      </trkpt>
      <trkpt lat="43.29819" lon="-1.50828">
        <ele>74</ele>
        <time>2021-06-21T08:43:43.540Z</time>
      </trkpt>
      <trkpt lat="43.29812" lon="-1.50821">
        <ele>74</ele>
        <time>2021-06-21T08:43:44.540Z</time>
      </trkpt>
      <trkpt lat="43.29812" lon="-1.50821">
        <ele>74</ele>
        <time>2021-06-21T08:43:45.550Z</time>
      </trkpt>
      <trkpt lat="43.29804" lon="-1.50812">
        <ele>74</ele>
        <time>2021-06-21T08:43:46.512Z</time>
      </trkpt>
      <trkpt lat="43.29801" lon="-1.50809">
        <ele>74</ele>
        <time>2021-06-21T08:43:47.521Z</time>
      </trkpt>
      <trkpt lat="43.29796" lon="-1.50805">
        <ele>74</ele>
        <time>2021-06-21T08:43:48.521Z</time>
      </trkpt>
      <trkpt lat="43.29792" lon="-1.50801">
        <ele>74</ele>
        <time>2021-06-21T08:43:49.545Z</time>
      </trkpt>
      <trkpt lat="43.29792" lon="-1.50801">
        <ele>74</ele>
        <time>2021-06-21T08:43:50.519Z</time>
      </trkpt>
      <trkpt lat="43.29783" lon="-1.50793">
        <ele>74</ele>
        <time>2021-06-21T08:43:51.513Z</time>
      </trkpt>
      <trkpt lat="43.29783" lon="-1.50793">
        <ele>74</ele>
        <time>2021-06-21T08:43:52.519Z</time>
      </trkpt>
      <trkpt lat="43.29773" lon="-1.50785">
        <ele>74</ele>
        <time>2021-06-21T08:43:53.513Z</time>
      </trkpt>
      <trkpt lat="43.29768" lon="-1.5078">
        <ele>74</ele>
        <time>2021-06-21T08:43:54.546Z</time>
      </trkpt>
      <trkpt lat="43.29763" lon="-1.50776">
        <ele>74</ele>
        <time>2021-06-21T08:43:55.523Z</time>
      </trkpt>
      <trkpt lat="43.29763" lon="-1.50776">
        <ele>74</ele>
        <time>2021-06-21T08:43:56.528Z</time>
      </trkpt>
      <trkpt lat="43.29753" lon="-1.50769">
        <ele>75</ele>
        <time>2021-06-21T08:43:57.509Z</time>
      </trkpt>
      <trkpt lat="43.29753" lon="-1.50769">
        <ele>75</ele>
        <time>2021-06-21T08:43:58.516Z</time>
      </trkpt>
      <trkpt lat="43.29744" lon="-1.50761">
        <ele>75</ele>
        <time>2021-06-21T08:43:59.539Z</time>
      </trkpt>
      <trkpt lat="43.29744" lon="-1.50761">
        <ele>75</ele>
        <time>2021-06-21T08:44:00.546Z</time>
      </trkpt>
      <trkpt lat="43.29736" lon="-1.50755">
        <ele>75</ele>
        <time>2021-06-21T08:44:01.532Z</time>
      </trkpt>
      <trkpt lat="43.29736" lon="-1.50755">
        <ele>75</ele>
        <time>2021-06-21T08:44:02.537Z</time>
      </trkpt>
      <trkpt lat="43.29727" lon="-1.50749">
        <ele>76</ele>
        <time>2021-06-21T08:44:03.542Z</time>
      </trkpt>
      <trkpt lat="43.29727" lon="-1.50749">
        <ele>76</ele>
        <time>2021-06-21T08:44:04.557Z</time>
      </trkpt>
      <trkpt lat="43.29719" lon="-1.50744">
        <ele>76</ele>
        <time>2021-06-21T08:44:05.512Z</time>
      </trkpt>
      <trkpt lat="43.29715" lon="-1.50741">
        <ele>76</ele>
        <time>2021-06-21T08:44:06.513Z</time>
      </trkpt>
      <trkpt lat="43.2971" lon="-1.50738">
        <ele>77</ele>
        <time>2021-06-21T08:44:07.522Z</time>
      </trkpt>
      <trkpt lat="43.2971" lon="-1.50738">
        <ele>77</ele>
        <time>2021-06-21T08:44:08.527Z</time>
      </trkpt>
      <trkpt lat="43.29702" lon="-1.50733">
        <ele>77</ele>
        <time>2021-06-21T08:44:09.512Z</time>
      </trkpt>
      <trkpt lat="43.29698" lon="-1.50731">
        <ele>77</ele>
        <time>2021-06-21T08:44:10.519Z</time>
      </trkpt>
      <trkpt lat="43.29694" lon="-1.50728">
        <ele>77</ele>
        <time>2021-06-21T08:44:11.543Z</time>
      </trkpt>
      <trkpt lat="43.29694" lon="-1.50728">
        <ele>77</ele>
        <time>2021-06-21T08:44:12.549Z</time>
      </trkpt>
      <trkpt lat="43.29685" lon="-1.50723">
        <ele>77</ele>
        <time>2021-06-21T08:44:13.511Z</time>
      </trkpt>
      <trkpt lat="43.29685" lon="-1.50723">
        <ele>77</ele>
        <time>2021-06-21T08:44:14.517Z</time>
      </trkpt>
      <trkpt lat="43.29677" lon="-1.50719">
        <ele>77</ele>
        <time>2021-06-21T08:44:15.518Z</time>
      </trkpt>
      <trkpt lat="43.29677" lon="-1.50719">
        <ele>77</ele>
        <time>2021-06-21T08:44:16.524Z</time>
      </trkpt>
      <trkpt lat="43.29668" lon="-1.50714">
        <ele>77</ele>
        <time>2021-06-21T08:44:17.517Z</time>
      </trkpt>
      <trkpt lat="43.29668" lon="-1.50714">
        <ele>77</ele>
        <time>2021-06-21T08:44:18.522Z</time>
      </trkpt>
      <trkpt lat="43.29659" lon="-1.50709">
        <ele>77</ele>
        <time>2021-06-21T08:44:19.520Z</time>
      </trkpt>
      <trkpt lat="43.29659" lon="-1.50709">
        <ele>77</ele>
        <time>2021-06-21T08:44:20.525Z</time>
      </trkpt>
      <trkpt lat="43.2965" lon="-1.50704">
        <ele>77</ele>
        <time>2021-06-21T08:44:21.521Z</time>
      </trkpt>
      <trkpt lat="43.2965" lon="-1.50704">
        <ele>77</ele>
        <time>2021-06-21T08:44:22.538Z</time>
      </trkpt>
      <trkpt lat="43.29641" lon="-1.50698">
        <ele>77</ele>
        <time>2021-06-21T08:44:23.530Z</time>
      </trkpt>
      <trkpt lat="43.29641" lon="-1.50698">
        <ele>77</ele>
        <time>2021-06-21T08:44:24.534Z</time>
      </trkpt>
      <trkpt lat="43.29632" lon="-1.50691">
        <ele>78</ele>
        <time>2021-06-21T08:44:25.522Z</time>
      </trkpt>
      <trkpt lat="43.29632" lon="-1.50691">
        <ele>78</ele>
        <time>2021-06-21T08:44:26.528Z</time>
      </trkpt>
      <trkpt lat="43.29624" lon="-1.50682">
        <ele>77</ele>
        <time>2021-06-21T08:44:27.522Z</time>
      </trkpt>
      <trkpt lat="43.29624" lon="-1.50682">
        <ele>77</ele>
        <time>2021-06-21T08:44:28.527Z</time>
      </trkpt>
      <trkpt lat="43.29617" lon="-1.50672">
        <ele>77</ele>
        <time>2021-06-21T08:44:29.522Z</time>
      </trkpt>
      <trkpt lat="43.29613" lon="-1.50665">
        <ele>77</ele>
        <time>2021-06-21T08:44:30.512Z</time>
      </trkpt>
      <trkpt lat="43.2961" lon="-1.5066">
        <ele>77</ele>
        <time>2021-06-21T08:44:31.535Z</time>
      </trkpt>
      <trkpt lat="43.2961" lon="-1.5066">
        <ele>77</ele>
        <time>2021-06-21T08:44:32.540Z</time>
      </trkpt>
      <trkpt lat="43.29602" lon="-1.50648">
        <ele>76</ele>
        <time>2021-06-21T08:44:33.540Z</time>
      </trkpt>
      <trkpt lat="43.29602" lon="-1.50648">
        <ele>76</ele>
        <time>2021-06-21T08:44:34.546Z</time>
      </trkpt>
      <trkpt lat="43.29593" lon="-1.50636">
        <ele>76</ele>
        <time>2021-06-21T08:44:35.516Z</time>
      </trkpt>
      <trkpt lat="43.29593" lon="-1.50636">
        <ele>76</ele>
        <time>2021-06-21T08:44:36.522Z</time>
      </trkpt>
      <trkpt lat="43.29583" lon="-1.50627">
        <ele>76</ele>
        <time>2021-06-21T08:44:37.526Z</time>
      </trkpt>
      <trkpt lat="43.29583" lon="-1.50627">
        <ele>76</ele>
        <time>2021-06-21T08:44:38.531Z</time>
      </trkpt>
      <trkpt lat="43.29572" lon="-1.50618">
        <ele>75</ele>
        <time>2021-06-21T08:44:39.532Z</time>
      </trkpt>
      <trkpt lat="43.29572" lon="-1.50618">
        <ele>75</ele>
        <time>2021-06-21T08:44:40.537Z</time>
      </trkpt>
      <trkpt lat="43.2956" lon="-1.50612">
        <ele>75</ele>
        <time>2021-06-21T08:44:41.536Z</time>
      </trkpt>
      <trkpt lat="43.29554" lon="-1.50611">
        <ele>75</ele>
        <time>2021-06-21T08:44:42.522Z</time>
      </trkpt>
      <trkpt lat="43.29547" lon="-1.50612">
        <ele>74</ele>
        <time>2021-06-21T08:44:43.532Z</time>
      </trkpt>
      <trkpt lat="43.29547" lon="-1.50612">
        <ele>74</ele>
        <time>2021-06-21T08:44:44.537Z</time>
      </trkpt>
      <trkpt lat="43.29533" lon="-1.50616">
        <ele>74</ele>
        <time>2021-06-21T08:44:45.517Z</time>
      </trkpt>
      <trkpt lat="43.29533" lon="-1.50616">
        <ele>74</ele>
        <time>2021-06-21T08:44:46.523Z</time>
      </trkpt>
      <trkpt lat="43.2952" lon="-1.50621">
        <ele>73</ele>
        <time>2021-06-21T08:44:47.531Z</time>
      </trkpt>
      <trkpt lat="43.2952" lon="-1.50621">
        <ele>73</ele>
        <time>2021-06-21T08:44:48.537Z</time>
      </trkpt>
      <trkpt lat="43.29506" lon="-1.50626">
        <ele>73</ele>
        <time>2021-06-21T08:44:49.523Z</time>
      </trkpt>
      <trkpt lat="43.29506" lon="-1.50626">
        <ele>73</ele>
        <time>2021-06-21T08:44:50.528Z</time>
      </trkpt>
      <trkpt lat="43.29493" lon="-1.50632">
        <ele>73</ele>
        <time>2021-06-21T08:44:51.522Z</time>
      </trkpt>
      <trkpt lat="43.29493" lon="-1.50632">
        <ele>73</ele>
        <time>2021-06-21T08:44:52.527Z</time>
      </trkpt>
      <trkpt lat="43.29478" lon="-1.50636">
        <ele>73</ele>
        <time>2021-06-21T08:44:53.524Z</time>
      </trkpt>
      <trkpt lat="43.29471" lon="-1.50638">
        <ele>72</ele>
        <time>2021-06-21T08:44:54.525Z</time>
      </trkpt>
      <trkpt lat="43.29465" lon="-1.5064">
        <ele>72</ele>
        <time>2021-06-21T08:44:55.516Z</time>
      </trkpt>
      <trkpt lat="43.29465" lon="-1.5064">
        <ele>72</ele>
        <time>2021-06-21T08:44:56.521Z</time>
      </trkpt>
      <trkpt lat="43.29451" lon="-1.50641">
        <ele>72</ele>
        <time>2021-06-21T08:44:57.542Z</time>
      </trkpt>
      <trkpt lat="43.29451" lon="-1.50641">
        <ele>72</ele>
        <time>2021-06-21T08:44:58.558Z</time>
      </trkpt>
      <trkpt lat="43.29439" lon="-1.50637">
        <ele>72</ele>
        <time>2021-06-21T08:44:59.542Z</time>
      </trkpt>
      <trkpt lat="43.29434" lon="-1.50635">
        <ele>71</ele>
        <time>2021-06-21T08:45:00.527Z</time>
      </trkpt>
      <trkpt lat="43.29429" lon="-1.50633">
        <ele>71</ele>
        <time>2021-06-21T08:45:01.511Z</time>
      </trkpt>
      <trkpt lat="43.29429" lon="-1.50633">
        <ele>71</ele>
        <time>2021-06-21T08:45:02.518Z</time>
      </trkpt>
      <trkpt lat="43.29421" lon="-1.50632">
        <ele>71</ele>
        <time>2021-06-21T08:45:03.548Z</time>
      </trkpt>
      <trkpt lat="43.29421" lon="-1.50632">
        <ele>71</ele>
        <time>2021-06-21T08:45:04.520Z</time>
      </trkpt>
      <trkpt lat="43.29412" lon="-1.50627">
        <ele>71</ele>
        <time>2021-06-21T08:45:05.542Z</time>
      </trkpt>
      <trkpt lat="43.29412" lon="-1.50627">
        <ele>71</ele>
        <time>2021-06-21T08:45:06.519Z</time>
      </trkpt>
      <trkpt lat="43.29406" lon="-1.50619">
        <ele>71</ele>
        <time>2021-06-21T08:45:07.513Z</time>
      </trkpt>
      <trkpt lat="43.29406" lon="-1.50619">
        <ele>71</ele>
        <time>2021-06-21T08:45:08.520Z</time>
      </trkpt>
      <trkpt lat="43.29404" lon="-1.50608">
        <ele>70</ele>
        <time>2021-06-21T08:45:09.548Z</time>
      </trkpt>
      <trkpt lat="43.29404" lon="-1.50608">
        <ele>70</ele>
        <time>2021-06-21T08:45:10.524Z</time>
      </trkpt>
      <trkpt lat="43.29402" lon="-1.50596">
        <ele>70</ele>
        <time>2021-06-21T08:45:11.512Z</time>
      </trkpt>
      <trkpt lat="43.29399" lon="-1.50591">
        <ele>70</ele>
        <time>2021-06-21T08:45:12.544Z</time>
      </trkpt>
      <trkpt lat="43.29399" lon="-1.50591">
        <ele>70</ele>
        <time>2021-06-21T08:45:13.521Z</time>
      </trkpt>
      <trkpt lat="43.29393" lon="-1.50584">
        <ele>70</ele>
        <time>2021-06-21T08:45:14.535Z</time>
      </trkpt>
      <trkpt lat="43.29393" lon="-1.50584">
        <ele>70</ele>
        <time>2021-06-21T08:45:15.541Z</time>
      </trkpt>
      <trkpt lat="43.29387" lon="-1.50577">
        <ele>70</ele>
        <time>2021-06-21T08:45:16.542Z</time>
      </trkpt>
      <trkpt lat="43.29384" lon="-1.50573">
        <ele>70</ele>
        <time>2021-06-21T08:45:17.542Z</time>
      </trkpt>
      <trkpt lat="43.29384" lon="-1.50573">
        <ele>70</ele>
        <time>2021-06-21T08:45:18.517Z</time>
      </trkpt>
      <trkpt lat="43.29378" lon="-1.50566">
        <ele>70</ele>
        <time>2021-06-21T08:45:19.523Z</time>
      </trkpt>
      <trkpt lat="43.29378" lon="-1.50566">
        <ele>70</ele>
        <time>2021-06-21T08:45:20.529Z</time>
      </trkpt>
      <trkpt lat="43.29372" lon="-1.5056">
        <ele>70</ele>
        <time>2021-06-21T08:45:21.510Z</time>
      </trkpt>
      <trkpt lat="43.29372" lon="-1.5056">
        <ele>70</ele>
        <time>2021-06-21T08:45:22.526Z</time>
      </trkpt>
      <trkpt lat="43.29366" lon="-1.50553">
        <ele>70</ele>
        <time>2021-06-21T08:45:23.531Z</time>
      </trkpt>
      <trkpt lat="43.29366" lon="-1.50553">
        <ele>70</ele>
        <time>2021-06-21T08:45:24.536Z</time>
      </trkpt>
      <trkpt lat="43.29359" lon="-1.50547">
        <ele>69</ele>
        <time>2021-06-21T08:45:25.534Z</time>
      </trkpt>
      <trkpt lat="43.29359" lon="-1.50547">
        <ele>69</ele>
        <time>2021-06-21T08:45:26.539Z</time>
      </trkpt>
      <trkpt lat="43.29354" lon="-1.50541">
        <ele>69</ele>
        <time>2021-06-21T08:45:27.537Z</time>
      </trkpt>
      <trkpt lat="43.29354" lon="-1.50541">
        <ele>69</ele>
        <time>2021-06-21T08:45:28.542Z</time>
      </trkpt>
      <trkpt lat="43.29349" lon="-1.50535">
        <ele>69</ele>
        <time>2021-06-21T08:45:29.519Z</time>
      </trkpt>
      <trkpt lat="43.29349" lon="-1.50535">
        <ele>69</ele>
        <time>2021-06-21T08:45:30.525Z</time>
      </trkpt>
      <trkpt lat="43.29343" lon="-1.50529">
        <ele>70</ele>
        <time>2021-06-21T08:45:31.526Z</time>
      </trkpt>
      <trkpt lat="43.29343" lon="-1.50529">
        <ele>70</ele>
        <time>2021-06-21T08:45:32.532Z</time>
      </trkpt>
      <trkpt lat="43.29338" lon="-1.50523">
        <ele>70</ele>
        <time>2021-06-21T08:45:33.543Z</time>
      </trkpt>
      <trkpt lat="43.29338" lon="-1.50523">
        <ele>70</ele>
        <time>2021-06-21T08:45:34.515Z</time>
      </trkpt>
      <trkpt lat="43.29335" lon="-1.50516">
        <ele>70</ele>
        <time>2021-06-21T08:45:35.533Z</time>
      </trkpt>
      <trkpt lat="43.29335" lon="-1.50516">
        <ele>70</ele>
        <time>2021-06-21T08:45:36.539Z</time>
      </trkpt>
      <trkpt lat="43.29334" lon="-1.50507">
        <ele>70</ele>
        <time>2021-06-21T08:45:37.509Z</time>
      </trkpt>
      <trkpt lat="43.29334" lon="-1.50507">
        <ele>70</ele>
        <time>2021-06-21T08:45:38.514Z</time>
      </trkpt>
      <trkpt lat="43.29335" lon="-1.50497">
        <ele>70</ele>
        <time>2021-06-21T08:45:39.542Z</time>
      </trkpt>
      <trkpt lat="43.29335" lon="-1.50497">
        <ele>70</ele>
        <time>2021-06-21T08:45:40.521Z</time>
      </trkpt>
      <trkpt lat="43.29339" lon="-1.50488">
        <ele>70</ele>
        <time>2021-06-21T08:45:41.544Z</time>
      </trkpt>
      <trkpt lat="43.29341" lon="-1.50484">
        <ele>70</ele>
        <time>2021-06-21T08:45:42.535Z</time>
      </trkpt>
      <trkpt lat="43.29341" lon="-1.50484">
        <ele>70</ele>
        <time>2021-06-21T08:45:43.541Z</time>
      </trkpt>
      <trkpt lat="43.29344" lon="-1.50475">
        <ele>70</ele>
        <time>2021-06-21T08:45:44.521Z</time>
      </trkpt>
      <trkpt lat="43.29344" lon="-1.50475">
        <ele>70</ele>
        <time>2021-06-21T08:45:45.526Z</time>
      </trkpt>
      <trkpt lat="43.29347" lon="-1.50464">
        <ele>70</ele>
        <time>2021-06-21T08:45:46.516Z</time>
      </trkpt>
      <trkpt lat="43.29347" lon="-1.50464">
        <ele>70</ele>
        <time>2021-06-21T08:45:47.521Z</time>
      </trkpt>
      <trkpt lat="43.29349" lon="-1.50455">
        <ele>70</ele>
        <time>2021-06-21T08:45:48.512Z</time>
      </trkpt>
      <trkpt lat="43.29349" lon="-1.5045">
        <ele>70</ele>
        <time>2021-06-21T08:45:49.538Z</time>
      </trkpt>
      <trkpt lat="43.29349" lon="-1.5045">
        <ele>70</ele>
        <time>2021-06-21T08:45:50.543Z</time>
      </trkpt>
      <trkpt lat="43.2935" lon="-1.5044">
        <ele>70</ele>
        <time>2021-06-21T08:45:51.514Z</time>
      </trkpt>
      <trkpt lat="43.2935" lon="-1.5044">
        <ele>70</ele>
        <time>2021-06-21T08:45:52.523Z</time>
      </trkpt>
      <trkpt lat="43.2935" lon="-1.50429">
        <ele>71</ele>
        <time>2021-06-21T08:45:53.547Z</time>
      </trkpt>
      <trkpt lat="43.2935" lon="-1.50429">
        <ele>71</ele>
        <time>2021-06-21T08:45:54.525Z</time>
      </trkpt>
      <trkpt lat="43.2935" lon="-1.50419">
        <ele>71</ele>
        <time>2021-06-21T08:45:55.513Z</time>
      </trkpt>
      <trkpt lat="43.2935" lon="-1.50419">
        <ele>71</ele>
        <time>2021-06-21T08:45:56.518Z</time>
      </trkpt>
      <trkpt lat="43.2935" lon="-1.50409">
        <ele>71</ele>
        <time>2021-06-21T08:45:57.544Z</time>
      </trkpt>
      <trkpt lat="43.2935" lon="-1.50409">
        <ele>71</ele>
        <time>2021-06-21T08:45:58.509Z</time>
      </trkpt>
      <trkpt lat="43.29349" lon="-1.50399">
        <ele>71</ele>
        <time>2021-06-21T08:45:59.532Z</time>
      </trkpt>
      <trkpt lat="43.29349" lon="-1.50399">
        <ele>71</ele>
        <time>2021-06-21T08:46:00.538Z</time>
      </trkpt>
      <trkpt lat="43.29349" lon="-1.50389">
        <ele>70</ele>
        <time>2021-06-21T08:46:01.523Z</time>
      </trkpt>
      <trkpt lat="43.29349" lon="-1.50389">
        <ele>70</ele>
        <time>2021-06-21T08:46:02.528Z</time>
      </trkpt>
      <trkpt lat="43.29351" lon="-1.50381">
        <ele>70</ele>
        <time>2021-06-21T08:46:03.531Z</time>
      </trkpt>
      <trkpt lat="43.29351" lon="-1.50381">
        <ele>70</ele>
        <time>2021-06-21T08:46:04.536Z</time>
      </trkpt>
      <trkpt lat="43.2935" lon="-1.50372">
        <ele>70</ele>
        <time>2021-06-21T08:46:05.534Z</time>
      </trkpt>
      <trkpt lat="43.2935" lon="-1.50372">
        <ele>70</ele>
        <time>2021-06-21T08:46:06.539Z</time>
      </trkpt>
      <trkpt lat="43.29349" lon="-1.50363">
        <ele>71</ele>
        <time>2021-06-21T08:46:07.532Z</time>
      </trkpt>
      <trkpt lat="43.29349" lon="-1.50363">
        <ele>71</ele>
        <time>2021-06-21T08:46:08.538Z</time>
      </trkpt>
      <trkpt lat="43.29348" lon="-1.50355">
        <ele>71</ele>
        <time>2021-06-21T08:46:09.524Z</time>
      </trkpt>
      <trkpt lat="43.29348" lon="-1.50355">
        <ele>71</ele>
        <time>2021-06-21T08:46:10.530Z</time>
      </trkpt>
      <trkpt lat="43.29347" lon="-1.50347">
        <ele>71</ele>
        <time>2021-06-21T08:46:11.525Z</time>
      </trkpt>
      <trkpt lat="43.29347" lon="-1.50347">
        <ele>71</ele>
        <time>2021-06-21T08:46:12.530Z</time>
      </trkpt>
      <trkpt lat="43.29346" lon="-1.50339">
        <ele>72</ele>
        <time>2021-06-21T08:46:13.515Z</time>
      </trkpt>
      <trkpt lat="43.29346" lon="-1.50339">
        <ele>72</ele>
        <time>2021-06-21T08:46:14.521Z</time>
      </trkpt>
      <trkpt lat="43.29344" lon="-1.50332">
        <ele>73</ele>
        <time>2021-06-21T08:46:15.549Z</time>
      </trkpt>
      <trkpt lat="43.29344" lon="-1.50332">
        <ele>73</ele>
        <time>2021-06-21T08:46:16.523Z</time>
      </trkpt>
      <trkpt lat="43.29344" lon="-1.50325">
        <ele>73</ele>
        <time>2021-06-21T08:46:17.547Z</time>
      </trkpt>
      <trkpt lat="43.29344" lon="-1.50325">
        <ele>73</ele>
        <time>2021-06-21T08:46:18.522Z</time>
      </trkpt>
      <trkpt lat="43.29344" lon="-1.50319">
        <ele>74</ele>
        <time>2021-06-21T08:46:19.522Z</time>
      </trkpt>
      <trkpt lat="43.29344" lon="-1.50319">
        <ele>74</ele>
        <time>2021-06-21T08:46:20.528Z</time>
      </trkpt>
      <trkpt lat="43.29345" lon="-1.50311">
        <ele>74</ele>
        <time>2021-06-21T08:46:21.514Z</time>
      </trkpt>
      <trkpt lat="43.29345" lon="-1.50311">
        <ele>74</ele>
        <time>2021-06-21T08:46:22.528Z</time>
      </trkpt>
      <trkpt lat="43.29346" lon="-1.50304">
        <ele>74</ele>
        <time>2021-06-21T08:46:23.520Z</time>
      </trkpt>
      <trkpt lat="43.29346" lon="-1.50304">
        <ele>74</ele>
        <time>2021-06-21T08:46:24.525Z</time>
      </trkpt>
      <trkpt lat="43.29347" lon="-1.50297">
        <ele>75</ele>
        <time>2021-06-21T08:46:25.526Z</time>
      </trkpt>
      <trkpt lat="43.29347" lon="-1.50297">
        <ele>75</ele>
        <time>2021-06-21T08:46:26.532Z</time>
      </trkpt>
      <trkpt lat="43.29348" lon="-1.5029">
        <ele>75</ele>
        <time>2021-06-21T08:46:27.527Z</time>
      </trkpt>
      <trkpt lat="43.29348" lon="-1.50286">
        <ele>75</ele>
        <time>2021-06-21T08:46:28.538Z</time>
      </trkpt>
      <trkpt lat="43.29348" lon="-1.50286">
        <ele>75</ele>
        <time>2021-06-21T08:46:29.543Z</time>
      </trkpt>
      <trkpt lat="43.29348" lon="-1.50277">
        <ele>77</ele>
        <time>2021-06-21T08:46:30.548Z</time>
      </trkpt>
      <trkpt lat="43.29349" lon="-1.50273">
        <ele>77</ele>
        <time>2021-06-21T08:46:31.547Z</time>
      </trkpt>
      <trkpt lat="43.29349" lon="-1.50273">
        <ele>77</ele>
        <time>2021-06-21T08:46:32.515Z</time>
      </trkpt>
      <trkpt lat="43.29351" lon="-1.50265">
        <ele>77</ele>
        <time>2021-06-21T08:46:33.539Z</time>
      </trkpt>
      <trkpt lat="43.29351" lon="-1.50265">
        <ele>77</ele>
        <time>2021-06-21T08:46:34.546Z</time>
      </trkpt>
      <trkpt lat="43.29353" lon="-1.50256">
        <ele>78</ele>
        <time>2021-06-21T08:46:35.524Z</time>
      </trkpt>
      <trkpt lat="43.29353" lon="-1.50256">
        <ele>78</ele>
        <time>2021-06-21T08:46:36.529Z</time>
      </trkpt>
      <trkpt lat="43.29355" lon="-1.50249">
        <ele>78</ele>
        <time>2021-06-21T08:46:37.514Z</time>
      </trkpt>
      <trkpt lat="43.29355" lon="-1.50249">
        <ele>78</ele>
        <time>2021-06-21T08:46:38.521Z</time>
      </trkpt>
      <trkpt lat="43.29355" lon="-1.50241">
        <ele>78</ele>
        <time>2021-06-21T08:46:39.542Z</time>
      </trkpt>
      <trkpt lat="43.29355" lon="-1.50241">
        <ele>78</ele>
        <time>2021-06-21T08:46:40.515Z</time>
      </trkpt>
      <trkpt lat="43.29356" lon="-1.50234">
        <ele>79</ele>
        <time>2021-06-21T08:46:41.542Z</time>
      </trkpt>
      <trkpt lat="43.29356" lon="-1.50234">
        <ele>79</ele>
        <time>2021-06-21T08:46:42.509Z</time>
      </trkpt>
      <trkpt lat="43.29358" lon="-1.50226">
        <ele>80</ele>
        <time>2021-06-21T08:46:43.533Z</time>
      </trkpt>
      <trkpt lat="43.29358" lon="-1.50226">
        <ele>80</ele>
        <time>2021-06-21T08:46:44.539Z</time>
      </trkpt>
      <trkpt lat="43.29359" lon="-1.50218">
        <ele>80</ele>
        <time>2021-06-21T08:46:45.520Z</time>
      </trkpt>
      <trkpt lat="43.2936" lon="-1.50215">
        <ele>80</ele>
        <time>2021-06-21T08:46:46.529Z</time>
      </trkpt>
      <trkpt lat="43.2936" lon="-1.50215">
        <ele>80</ele>
        <time>2021-06-21T08:46:47.535Z</time>
      </trkpt>
      <trkpt lat="43.29361" lon="-1.50208">
        <ele>80</ele>
        <time>2021-06-21T08:46:48.545Z</time>
      </trkpt>
      <trkpt lat="43.29361" lon="-1.50208">
        <ele>80</ele>
        <time>2021-06-21T08:46:49.510Z</time>
      </trkpt>
      <trkpt lat="43.29363" lon="-1.50201">
        <ele>81</ele>
        <time>2021-06-21T08:46:50.545Z</time>
      </trkpt>
      <trkpt lat="43.29363" lon="-1.50197">
        <ele>81</ele>
        <time>2021-06-21T08:46:51.542Z</time>
      </trkpt>
      <trkpt lat="43.29363" lon="-1.50197">
        <ele>81</ele>
        <time>2021-06-21T08:46:52.548Z</time>
      </trkpt>
      <trkpt lat="43.29364" lon="-1.5019">
        <ele>81</ele>
        <time>2021-06-21T08:46:53.545Z</time>
      </trkpt>
      <trkpt lat="43.29365" lon="-1.50186">
        <ele>81</ele>
        <time>2021-06-21T08:46:54.538Z</time>
      </trkpt>
      <trkpt lat="43.29365" lon="-1.50186">
        <ele>81</ele>
        <time>2021-06-21T08:46:55.544Z</time>
      </trkpt>
      <trkpt lat="43.29367" lon="-1.50179">
        <ele>82</ele>
        <time>2021-06-21T08:46:56.541Z</time>
      </trkpt>
      <trkpt lat="43.29367" lon="-1.50179">
        <ele>82</ele>
        <time>2021-06-21T08:46:57.549Z</time>
      </trkpt>
      <trkpt lat="43.29369" lon="-1.50172">
        <ele>82</ele>
        <time>2021-06-21T08:46:58.542Z</time>
      </trkpt>
      <trkpt lat="43.29369" lon="-1.50172">
        <ele>82</ele>
        <time>2021-06-21T08:46:59.509Z</time>
      </trkpt>
      <trkpt lat="43.2937" lon="-1.50165">
        <ele>82</ele>
        <time>2021-06-21T08:47:00.542Z</time>
      </trkpt>
      <trkpt lat="43.29371" lon="-1.50161">
        <ele>82</ele>
        <time>2021-06-21T08:47:01.527Z</time>
      </trkpt>
      <trkpt lat="43.29371" lon="-1.50161">
        <ele>82</ele>
        <time>2021-06-21T08:47:02.532Z</time>
      </trkpt>
      <trkpt lat="43.29372" lon="-1.50155">
        <ele>82</ele>
        <time>2021-06-21T08:47:03.537Z</time>
      </trkpt>
      <trkpt lat="43.29372" lon="-1.50155">
        <ele>82</ele>
        <time>2021-06-21T08:47:04.543Z</time>
      </trkpt>
      <trkpt lat="43.29373" lon="-1.5015">
        <ele>82</ele>
        <time>2021-06-21T08:47:05.543Z</time>
      </trkpt>
      <trkpt lat="43.29373" lon="-1.5015">
        <ele>82</ele>
        <time>2021-06-21T08:47:06.512Z</time>
      </trkpt>
      <trkpt lat="43.29375" lon="-1.50143">
        <ele>82</ele>
        <time>2021-06-21T08:47:07.542Z</time>
      </trkpt>
      <trkpt lat="43.29375" lon="-1.50143">
        <ele>82</ele>
        <time>2021-06-21T08:47:08.510Z</time>
      </trkpt>
      <trkpt lat="43.29376" lon="-1.50137">
        <ele>82</ele>
        <time>2021-06-21T08:47:09.542Z</time>
      </trkpt>
      <trkpt lat="43.29376" lon="-1.50137">
        <ele>82</ele>
        <time>2021-06-21T08:47:10.548Z</time>
      </trkpt>
      <trkpt lat="43.29378" lon="-1.50131">
        <ele>82</ele>
        <time>2021-06-21T08:47:11.542Z</time>
      </trkpt>
      <trkpt lat="43.29378" lon="-1.50131">
        <ele>82</ele>
        <time>2021-06-21T08:47:12.549Z</time>
      </trkpt>
      <trkpt lat="43.2938" lon="-1.50125">
        <ele>82</ele>
        <time>2021-06-21T08:47:13.514Z</time>
      </trkpt>
      <trkpt lat="43.2938" lon="-1.50125">
        <ele>82</ele>
        <time>2021-06-21T08:47:14.520Z</time>
      </trkpt>
      <trkpt lat="43.29383" lon="-1.50119">
        <ele>83</ele>
        <time>2021-06-21T08:47:15.515Z</time>
      </trkpt>
      <trkpt lat="43.29384" lon="-1.50116">
        <ele>83</ele>
        <time>2021-06-21T08:47:16.518Z</time>
      </trkpt>
      <trkpt lat="43.29384" lon="-1.50116">
        <ele>83</ele>
        <time>2021-06-21T08:47:17.523Z</time>
      </trkpt>
      <trkpt lat="43.29387" lon="-1.5011">
        <ele>84</ele>
        <time>2021-06-21T08:47:18.541Z</time>
      </trkpt>
      <trkpt lat="43.29387" lon="-1.5011">
        <ele>84</ele>
        <time>2021-06-21T08:47:19.547Z</time>
      </trkpt>
      <trkpt lat="43.2939" lon="-1.50104">
        <ele>83</ele>
        <time>2021-06-21T08:47:20.515Z</time>
      </trkpt>
      <trkpt lat="43.2939" lon="-1.50104">
        <ele>83</ele>
        <time>2021-06-21T08:47:21.522Z</time>
      </trkpt>
      <trkpt lat="43.29392" lon="-1.50098">
        <ele>84</ele>
        <time>2021-06-21T08:47:22.544Z</time>
      </trkpt>
      <trkpt lat="43.29392" lon="-1.50098">
        <ele>84</ele>
        <time>2021-06-21T08:47:23.520Z</time>
      </trkpt>
      <trkpt lat="43.29395" lon="-1.50093">
        <ele>84</ele>
        <time>2021-06-21T08:47:24.546Z</time>
      </trkpt>
      <trkpt lat="43.29395" lon="-1.50093">
        <ele>84</ele>
        <time>2021-06-21T08:47:25.517Z</time>
      </trkpt>
      <trkpt lat="43.29398" lon="-1.50088">
        <ele>84</ele>
        <time>2021-06-21T08:47:26.509Z</time>
      </trkpt>
      <trkpt lat="43.29398" lon="-1.50088">
        <ele>84</ele>
        <time>2021-06-21T08:47:27.516Z</time>
      </trkpt>
      <trkpt lat="43.294" lon="-1.50082">
        <ele>84</ele>
        <time>2021-06-21T08:47:28.522Z</time>
      </trkpt>
      <trkpt lat="43.294" lon="-1.50082">
        <ele>84</ele>
        <time>2021-06-21T08:47:29.528Z</time>
      </trkpt>
      <trkpt lat="43.29403" lon="-1.50077">
        <ele>85</ele>
        <time>2021-06-21T08:47:30.512Z</time>
      </trkpt>
      <trkpt lat="43.29403" lon="-1.50077">
        <ele>85</ele>
        <time>2021-06-21T08:47:31.518Z</time>
      </trkpt>
      <trkpt lat="43.29405" lon="-1.50072">
        <ele>85</ele>
        <time>2021-06-21T08:47:32.546Z</time>
      </trkpt>
      <trkpt lat="43.29405" lon="-1.50072">
        <ele>85</ele>
        <time>2021-06-21T08:47:33.516Z</time>
      </trkpt>
      <trkpt lat="43.29407" lon="-1.50067">
        <ele>85</ele>
        <time>2021-06-21T08:47:34.517Z</time>
      </trkpt>
      <trkpt lat="43.29407" lon="-1.50067">
        <ele>85</ele>
        <time>2021-06-21T08:47:35.522Z</time>
      </trkpt>
      <trkpt lat="43.29409" lon="-1.50062">
        <ele>86</ele>
        <time>2021-06-21T08:47:36.512Z</time>
      </trkpt>
      <trkpt lat="43.29409" lon="-1.50062">
        <ele>86</ele>
        <time>2021-06-21T08:47:37.518Z</time>
      </trkpt>
      <trkpt lat="43.29412" lon="-1.50057">
        <ele>86</ele>
        <time>2021-06-21T08:47:38.530Z</time>
      </trkpt>
      <trkpt lat="43.29413" lon="-1.50054">
        <ele>86</ele>
        <time>2021-06-21T08:47:39.532Z</time>
      </trkpt>
      <trkpt lat="43.29413" lon="-1.50054">
        <ele>86</ele>
        <time>2021-06-21T08:47:40.537Z</time>
      </trkpt>
      <trkpt lat="43.29414" lon="-1.50048">
        <ele>86</ele>
        <time>2021-06-21T08:47:41.531Z</time>
      </trkpt>
      <trkpt lat="43.29414" lon="-1.50048">
        <ele>86</ele>
        <time>2021-06-21T08:47:42.537Z</time>
      </trkpt>
      <trkpt lat="43.29416" lon="-1.50042">
        <ele>86</ele>
        <time>2021-06-21T08:47:43.522Z</time>
      </trkpt>
      <trkpt lat="43.29416" lon="-1.50042">
        <ele>86</ele>
        <time>2021-06-21T08:47:44.527Z</time>
      </trkpt>
      <trkpt lat="43.29417" lon="-1.50036">
        <ele>87</ele>
        <time>2021-06-21T08:47:45.540Z</time>
      </trkpt>
      <trkpt lat="43.29417" lon="-1.50036">
        <ele>87</ele>
        <time>2021-06-21T08:47:46.546Z</time>
      </trkpt>
      <trkpt lat="43.29419" lon="-1.50031">
        <ele>87</ele>
        <time>2021-06-21T08:47:47.548Z</time>
      </trkpt>
      <trkpt lat="43.29419" lon="-1.50031">
        <ele>87</ele>
        <time>2021-06-21T08:47:48.525Z</time>
      </trkpt>
      <trkpt lat="43.2942" lon="-1.50025">
        <ele>88</ele>
        <time>2021-06-21T08:47:49.538Z</time>
      </trkpt>
      <trkpt lat="43.2942" lon="-1.50025">
        <ele>88</ele>
        <time>2021-06-21T08:47:50.544Z</time>
      </trkpt>
      <trkpt lat="43.2942" lon="-1.50019">
        <ele>89</ele>
        <time>2021-06-21T08:47:51.522Z</time>
      </trkpt>
      <trkpt lat="43.2942" lon="-1.50019">
        <ele>89</ele>
        <time>2021-06-21T08:47:52.527Z</time>
      </trkpt>
      <trkpt lat="43.29421" lon="-1.50013">
        <ele>89</ele>
        <time>2021-06-21T08:47:53.517Z</time>
      </trkpt>
      <trkpt lat="43.29421" lon="-1.50009">
        <ele>89</ele>
        <time>2021-06-21T08:47:54.509Z</time>
      </trkpt>
      <trkpt lat="43.29421" lon="-1.50005">
        <ele>90</ele>
        <time>2021-06-21T08:47:55.542Z</time>
      </trkpt>
      <trkpt lat="43.29421" lon="-1.50005">
        <ele>90</ele>
        <time>2021-06-21T08:47:56.509Z</time>
      </trkpt>
      <trkpt lat="43.29421" lon="-1.49998">
        <ele>90</ele>
        <time>2021-06-21T08:47:57.511Z</time>
      </trkpt>
      <trkpt lat="43.29421" lon="-1.49998">
        <ele>90</ele>
        <time>2021-06-21T08:47:58.516Z</time>
      </trkpt>
      <trkpt lat="43.29421" lon="-1.49991">
        <ele>91</ele>
        <time>2021-06-21T08:47:59.521Z</time>
      </trkpt>
      <trkpt lat="43.2942" lon="-1.49988">
        <ele>91</ele>
        <time>2021-06-21T08:48:00.518Z</time>
      </trkpt>
      <trkpt lat="43.2942" lon="-1.49985">
        <ele>91</ele>
        <time>2021-06-21T08:48:01.511Z</time>
      </trkpt>
      <trkpt lat="43.2942" lon="-1.49985">
        <ele>91</ele>
        <time>2021-06-21T08:48:02.517Z</time>
      </trkpt>
      <trkpt lat="43.29421" lon="-1.49978">
        <ele>92</ele>
        <time>2021-06-21T08:48:03.515Z</time>
      </trkpt>
      <trkpt lat="43.29421" lon="-1.49978">
        <ele>92</ele>
        <time>2021-06-21T08:48:04.522Z</time>
      </trkpt>
      <trkpt lat="43.2942" lon="-1.49972">
        <ele>92</ele>
        <time>2021-06-21T08:48:05.522Z</time>
      </trkpt>
      <trkpt lat="43.2942" lon="-1.49972">
        <ele>92</ele>
        <time>2021-06-21T08:48:06.528Z</time>
      </trkpt>
      <trkpt lat="43.2942" lon="-1.49966">
        <ele>92</ele>
        <time>2021-06-21T08:48:07.522Z</time>
      </trkpt>
      <trkpt lat="43.2942" lon="-1.49966">
        <ele>92</ele>
        <time>2021-06-21T08:48:08.527Z</time>
      </trkpt>
      <trkpt lat="43.2942" lon="-1.49961">
        <ele>92</ele>
        <time>2021-06-21T08:48:09.532Z</time>
      </trkpt>
      <trkpt lat="43.2942" lon="-1.49961">
        <ele>92</ele>
        <time>2021-06-21T08:48:10.537Z</time>
      </trkpt>
      <trkpt lat="43.2942" lon="-1.49955">
        <ele>92</ele>
        <time>2021-06-21T08:48:11.525Z</time>
      </trkpt>
      <trkpt lat="43.2942" lon="-1.49955">
        <ele>92</ele>
        <time>2021-06-21T08:48:12.530Z</time>
      </trkpt>
      <trkpt lat="43.29419" lon="-1.49949">
        <ele>93</ele>
        <time>2021-06-21T08:48:13.541Z</time>
      </trkpt>
      <trkpt lat="43.29419" lon="-1.49949">
        <ele>93</ele>
        <time>2021-06-21T08:48:14.546Z</time>
      </trkpt>
      <trkpt lat="43.29419" lon="-1.49944">
        <ele>93</ele>
        <time>2021-06-21T08:48:15.514Z</time>
      </trkpt>
      <trkpt lat="43.29419" lon="-1.49944">
        <ele>93</ele>
        <time>2021-06-21T08:48:16.519Z</time>
      </trkpt>
      <trkpt lat="43.29418" lon="-1.49938">
        <ele>93</ele>
        <time>2021-06-21T08:48:17.509Z</time>
      </trkpt>
      <trkpt lat="43.29418" lon="-1.49938">
        <ele>93</ele>
        <time>2021-06-21T08:48:18.516Z</time>
      </trkpt>
      <trkpt lat="43.29417" lon="-1.49933">
        <ele>94</ele>
        <time>2021-06-21T08:48:19.540Z</time>
      </trkpt>
      <trkpt lat="43.29417" lon="-1.49933">
        <ele>94</ele>
        <time>2021-06-21T08:48:20.547Z</time>
      </trkpt>
      <trkpt lat="43.29417" lon="-1.49927">
        <ele>94</ele>
        <time>2021-06-21T08:48:21.526Z</time>
      </trkpt>
      <trkpt lat="43.29417" lon="-1.49927">
        <ele>94</ele>
        <time>2021-06-21T08:48:22.544Z</time>
      </trkpt>
      <trkpt lat="43.29416" lon="-1.49921">
        <ele>94</ele>
        <time>2021-06-21T08:48:23.522Z</time>
      </trkpt>
      <trkpt lat="43.29416" lon="-1.49921">
        <ele>94</ele>
        <time>2021-06-21T08:48:24.528Z</time>
      </trkpt>
      <trkpt lat="43.29415" lon="-1.49915">
        <ele>95</ele>
        <time>2021-06-21T08:48:25.509Z</time>
      </trkpt>
      <trkpt lat="43.29415" lon="-1.49915">
        <ele>95</ele>
        <time>2021-06-21T08:48:26.514Z</time>
      </trkpt>
      <trkpt lat="43.29415" lon="-1.49909">
        <ele>95</ele>
        <time>2021-06-21T08:48:27.541Z</time>
      </trkpt>
      <trkpt lat="43.29415" lon="-1.49909">
        <ele>95</ele>
        <time>2021-06-21T08:48:28.546Z</time>
      </trkpt>
      <trkpt lat="43.29415" lon="-1.49904">
        <ele>95</ele>
        <time>2021-06-21T08:48:29.532Z</time>
      </trkpt>
      <trkpt lat="43.29415" lon="-1.49904">
        <ele>95</ele>
        <time>2021-06-21T08:48:30.537Z</time>
      </trkpt>
      <trkpt lat="43.29414" lon="-1.49898">
        <ele>95</ele>
        <time>2021-06-21T08:48:31.532Z</time>
      </trkpt>
      <trkpt lat="43.29414" lon="-1.49898">
        <ele>95</ele>
        <time>2021-06-21T08:48:32.538Z</time>
      </trkpt>
      <trkpt lat="43.29413" lon="-1.49892">
        <ele>96</ele>
        <time>2021-06-21T08:48:33.529Z</time>
      </trkpt>
      <trkpt lat="43.29413" lon="-1.49892">
        <ele>96</ele>
        <time>2021-06-21T08:48:34.535Z</time>
      </trkpt>
      <trkpt lat="43.29413" lon="-1.49887">
        <ele>96</ele>
        <time>2021-06-21T08:48:35.527Z</time>
      </trkpt>
      <trkpt lat="43.29413" lon="-1.49887">
        <ele>96</ele>
        <time>2021-06-21T08:48:36.533Z</time>
      </trkpt>
      <trkpt lat="43.29412" lon="-1.49881">
        <ele>96</ele>
        <time>2021-06-21T08:48:37.518Z</time>
      </trkpt>
      <trkpt lat="43.29412" lon="-1.49881">
        <ele>96</ele>
        <time>2021-06-21T08:48:38.523Z</time>
      </trkpt>
      <trkpt lat="43.29412" lon="-1.49876">
        <ele>96</ele>
        <time>2021-06-21T08:48:39.522Z</time>
      </trkpt>
      <trkpt lat="43.29412" lon="-1.49873">
        <ele>96</ele>
        <time>2021-06-21T08:48:40.511Z</time>
      </trkpt>
      <trkpt lat="43.29412" lon="-1.49873">
        <ele>96</ele>
        <time>2021-06-21T08:48:41.517Z</time>
      </trkpt>
      <trkpt lat="43.29411" lon="-1.49867">
        <ele>97</ele>
        <time>2021-06-21T08:48:42.510Z</time>
      </trkpt>
      <trkpt lat="43.29411" lon="-1.49864">
        <ele>97</ele>
        <time>2021-06-21T08:48:43.542Z</time>
      </trkpt>
      <trkpt lat="43.29411" lon="-1.49864">
        <ele>97</ele>
        <time>2021-06-21T08:48:44.548Z</time>
      </trkpt>
      <trkpt lat="43.29411" lon="-1.49859">
        <ele>97</ele>
        <time>2021-06-21T08:48:45.534Z</time>
      </trkpt>
      <trkpt lat="43.29411" lon="-1.49859">
        <ele>97</ele>
        <time>2021-06-21T08:48:46.540Z</time>
      </trkpt>
      <trkpt lat="43.2941" lon="-1.49853">
        <ele>97</ele>
        <time>2021-06-21T08:48:47.520Z</time>
      </trkpt>
      <trkpt lat="43.2941" lon="-1.49853">
        <ele>97</ele>
        <time>2021-06-21T08:48:48.525Z</time>
      </trkpt>
      <trkpt lat="43.29409" lon="-1.49847">
        <ele>97</ele>
        <time>2021-06-21T08:48:49.512Z</time>
      </trkpt>
      <trkpt lat="43.29409" lon="-1.49847">
        <ele>97</ele>
        <time>2021-06-21T08:48:50.517Z</time>
      </trkpt>
      <trkpt lat="43.29408" lon="-1.49841">
        <ele>96</ele>
        <time>2021-06-21T08:48:51.523Z</time>
      </trkpt>
      <trkpt lat="43.29408" lon="-1.49838">
        <ele>96</ele>
        <time>2021-06-21T08:48:52.543Z</time>
      </trkpt>
      <trkpt lat="43.29408" lon="-1.49838">
        <ele>96</ele>
        <time>2021-06-21T08:48:53.510Z</time>
      </trkpt>
      <trkpt lat="43.29408" lon="-1.49831">
        <ele>96</ele>
        <time>2021-06-21T08:48:54.540Z</time>
      </trkpt>
      <trkpt lat="43.29407" lon="-1.49828">
        <ele>96</ele>
        <time>2021-06-21T08:48:55.534Z</time>
      </trkpt>
      <trkpt lat="43.29407" lon="-1.49828">
        <ele>96</ele>
        <time>2021-06-21T08:48:56.540Z</time>
      </trkpt>
      <trkpt lat="43.29407" lon="-1.49822">
        <ele>96</ele>
        <time>2021-06-21T08:48:57.526Z</time>
      </trkpt>
      <trkpt lat="43.29407" lon="-1.49819">
        <ele>96</ele>
        <time>2021-06-21T08:48:58.512Z</time>
      </trkpt>
      <trkpt lat="43.29407" lon="-1.49819">
        <ele>96</ele>
        <time>2021-06-21T08:48:59.518Z</time>
      </trkpt>
      <trkpt lat="43.29406" lon="-1.49813">
        <ele>96</ele>
        <time>2021-06-21T08:49:00.544Z</time>
      </trkpt>
      <trkpt lat="43.29405" lon="-1.4981">
        <ele>97</ele>
        <time>2021-06-21T08:49:01.532Z</time>
      </trkpt>
      <trkpt lat="43.29405" lon="-1.4981">
        <ele>97</ele>
        <time>2021-06-21T08:49:02.538Z</time>
      </trkpt>
      <trkpt lat="43.29405" lon="-1.49804">
        <ele>97</ele>
        <time>2021-06-21T08:49:03.522Z</time>
      </trkpt>
      <trkpt lat="43.29405" lon="-1.49801">
        <ele>97</ele>
        <time>2021-06-21T08:49:04.523Z</time>
      </trkpt>
      <trkpt lat="43.29405" lon="-1.49801">
        <ele>97</ele>
        <time>2021-06-21T08:49:05.529Z</time>
      </trkpt>
      <trkpt lat="43.29403" lon="-1.49795">
        <ele>97</ele>
        <time>2021-06-21T08:49:06.528Z</time>
      </trkpt>
      <trkpt lat="43.29403" lon="-1.49791">
        <ele>97</ele>
        <time>2021-06-21T08:49:07.542Z</time>
      </trkpt>
      <trkpt lat="43.29403" lon="-1.49791">
        <ele>97</ele>
        <time>2021-06-21T08:49:08.548Z</time>
      </trkpt>
      <trkpt lat="43.29402" lon="-1.49785">
        <ele>97</ele>
        <time>2021-06-21T08:49:09.540Z</time>
      </trkpt>
      <trkpt lat="43.29402" lon="-1.49785">
        <ele>97</ele>
        <time>2021-06-21T08:49:10.546Z</time>
      </trkpt>
      <trkpt lat="43.29402" lon="-1.49779">
        <ele>97</ele>
        <time>2021-06-21T08:49:11.545Z</time>
      </trkpt>
      <trkpt lat="43.29402" lon="-1.49779">
        <ele>97</ele>
        <time>2021-06-21T08:49:12.524Z</time>
      </trkpt>
      <trkpt lat="43.29402" lon="-1.49773">
        <ele>98</ele>
        <time>2021-06-21T08:49:13.520Z</time>
      </trkpt>
      <trkpt lat="43.29402" lon="-1.49773">
        <ele>98</ele>
        <time>2021-06-21T08:49:14.526Z</time>
      </trkpt>
      <trkpt lat="43.29402" lon="-1.49767">
        <ele>98</ele>
        <time>2021-06-21T08:49:15.509Z</time>
      </trkpt>
      <trkpt lat="43.29402" lon="-1.49767">
        <ele>98</ele>
        <time>2021-06-21T08:49:16.514Z</time>
      </trkpt>
      <trkpt lat="43.29401" lon="-1.4976">
        <ele>97</ele>
        <time>2021-06-21T08:49:17.543Z</time>
      </trkpt>
      <trkpt lat="43.29401" lon="-1.49756">
        <ele>97</ele>
        <time>2021-06-21T08:49:18.532Z</time>
      </trkpt>
      <trkpt lat="43.29401" lon="-1.49753">
        <ele>97</ele>
        <time>2021-06-21T08:49:19.520Z</time>
      </trkpt>
      <trkpt lat="43.29401" lon="-1.49753">
        <ele>97</ele>
        <time>2021-06-21T08:49:20.525Z</time>
      </trkpt>
      <trkpt lat="43.29401" lon="-1.49747">
        <ele>97</ele>
        <time>2021-06-21T08:49:21.522Z</time>
      </trkpt>
      <trkpt lat="43.29401" lon="-1.49747">
        <ele>97</ele>
        <time>2021-06-21T08:49:22.543Z</time>
      </trkpt>
      <trkpt lat="43.29402" lon="-1.4974">
        <ele>97</ele>
        <time>2021-06-21T08:49:23.526Z</time>
      </trkpt>
      <trkpt lat="43.29402" lon="-1.4974">
        <ele>97</ele>
        <time>2021-06-21T08:49:24.531Z</time>
      </trkpt>
      <trkpt lat="43.29403" lon="-1.49734">
        <ele>98</ele>
        <time>2021-06-21T08:49:25.525Z</time>
      </trkpt>
      <trkpt lat="43.29403" lon="-1.49734">
        <ele>98</ele>
        <time>2021-06-21T08:49:26.531Z</time>
      </trkpt>
      <trkpt lat="43.29404" lon="-1.49728">
        <ele>99</ele>
        <time>2021-06-21T08:49:27.510Z</time>
      </trkpt>
      <trkpt lat="43.29404" lon="-1.49728">
        <ele>99</ele>
        <time>2021-06-21T08:49:28.517Z</time>
      </trkpt>
      <trkpt lat="43.29405" lon="-1.49721">
        <ele>100</ele>
        <time>2021-06-21T08:49:29.541Z</time>
      </trkpt>
      <trkpt lat="43.29405" lon="-1.49718">
        <ele>100</ele>
        <time>2021-06-21T08:49:30.525Z</time>
      </trkpt>
      <trkpt lat="43.29406" lon="-1.49715">
        <ele>100</ele>
        <time>2021-06-21T08:49:31.534Z</time>
      </trkpt>
      <trkpt lat="43.29406" lon="-1.49715">
        <ele>100</ele>
        <time>2021-06-21T08:49:32.539Z</time>
      </trkpt>
      <trkpt lat="43.29408" lon="-1.49708">
        <ele>101</ele>
        <time>2021-06-21T08:49:33.524Z</time>
      </trkpt>
      <trkpt lat="43.29408" lon="-1.49705">
        <ele>101</ele>
        <time>2021-06-21T08:49:34.522Z</time>
      </trkpt>
      <trkpt lat="43.29408" lon="-1.49705">
        <ele>101</ele>
        <time>2021-06-21T08:49:35.527Z</time>
      </trkpt>
      <trkpt lat="43.2941" lon="-1.49699">
        <ele>101</ele>
        <time>2021-06-21T08:49:36.536Z</time>
      </trkpt>
      <trkpt lat="43.2941" lon="-1.49696">
        <ele>101</ele>
        <time>2021-06-21T08:49:37.527Z</time>
      </trkpt>
      <trkpt lat="43.2941" lon="-1.49696">
        <ele>101</ele>
        <time>2021-06-21T08:49:38.533Z</time>
      </trkpt>
      <trkpt lat="43.29411" lon="-1.49688">
        <ele>101</ele>
        <time>2021-06-21T08:49:39.522Z</time>
      </trkpt>
      <trkpt lat="43.29411" lon="-1.49688">
        <ele>101</ele>
        <time>2021-06-21T08:49:40.527Z</time>
      </trkpt>
      <trkpt lat="43.29412" lon="-1.49682">
        <ele>101</ele>
        <time>2021-06-21T08:49:41.520Z</time>
      </trkpt>
      <trkpt lat="43.29413" lon="-1.49679">
        <ele>101</ele>
        <time>2021-06-21T08:49:42.522Z</time>
      </trkpt>
      <trkpt lat="43.29413" lon="-1.49679">
        <ele>101</ele>
        <time>2021-06-21T08:49:43.527Z</time>
      </trkpt>
      <trkpt lat="43.29415" lon="-1.49675">
        <ele>102</ele>
        <time>2021-06-21T08:49:44.542Z</time>
      </trkpt>
      <trkpt lat="43.29415" lon="-1.49675">
        <ele>102</ele>
        <time>2021-06-21T08:49:45.547Z</time>
      </trkpt>
      <trkpt lat="43.29417" lon="-1.49671">
        <ele>102</ele>
        <time>2021-06-21T08:49:46.544Z</time>
      </trkpt>
      <trkpt lat="43.29417" lon="-1.49671">
        <ele>102</ele>
        <time>2021-06-21T08:49:47.510Z</time>
      </trkpt>
      <trkpt lat="43.29419" lon="-1.49666">
        <ele>102</ele>
        <time>2021-06-21T08:49:48.542Z</time>
      </trkpt>
      <trkpt lat="43.2942" lon="-1.49664">
        <ele>103</ele>
        <time>2021-06-21T08:49:49.529Z</time>
      </trkpt>
      <trkpt lat="43.2942" lon="-1.49664">
        <ele>103</ele>
        <time>2021-06-21T08:49:50.534Z</time>
      </trkpt>
      <trkpt lat="43.29423" lon="-1.4966">
        <ele>103</ele>
        <time>2021-06-21T08:49:51.529Z</time>
      </trkpt>
      <trkpt lat="43.29423" lon="-1.4966">
        <ele>103</ele>
        <time>2021-06-21T08:49:52.535Z</time>
      </trkpt>
      <trkpt lat="43.29426" lon="-1.49656">
        <ele>103</ele>
        <time>2021-06-21T08:49:53.528Z</time>
      </trkpt>
      <trkpt lat="43.29426" lon="-1.49656">
        <ele>103</ele>
        <time>2021-06-21T08:49:54.533Z</time>
      </trkpt>
      <trkpt lat="43.29429" lon="-1.49652">
        <ele>104</ele>
        <time>2021-06-21T08:49:55.510Z</time>
      </trkpt>
      <trkpt lat="43.29429" lon="-1.49652">
        <ele>104</ele>
        <time>2021-06-21T08:49:56.515Z</time>
      </trkpt>
      <trkpt lat="43.29432" lon="-1.49647">
        <ele>104</ele>
        <time>2021-06-21T08:49:57.548Z</time>
      </trkpt>
      <trkpt lat="43.29432" lon="-1.49647">
        <ele>104</ele>
        <time>2021-06-21T08:49:58.513Z</time>
      </trkpt>
      <trkpt lat="43.29435" lon="-1.49643">
        <ele>104</ele>
        <time>2021-06-21T08:49:59.515Z</time>
      </trkpt>
      <trkpt lat="43.29436" lon="-1.49641">
        <ele>104</ele>
        <time>2021-06-21T08:50:00.513Z</time>
      </trkpt>
      <trkpt lat="43.29436" lon="-1.49641">
        <ele>104</ele>
        <time>2021-06-21T08:50:01.519Z</time>
      </trkpt>
      <trkpt lat="43.2944" lon="-1.49637">
        <ele>105</ele>
        <time>2021-06-21T08:50:02.514Z</time>
      </trkpt>
      <trkpt lat="43.29441" lon="-1.49635">
        <ele>105</ele>
        <time>2021-06-21T08:50:03.509Z</time>
      </trkpt>
      <trkpt lat="43.29441" lon="-1.49635">
        <ele>105</ele>
        <time>2021-06-21T08:50:04.515Z</time>
      </trkpt>
      <trkpt lat="43.29444" lon="-1.49631">
        <ele>104</ele>
        <time>2021-06-21T08:50:05.547Z</time>
      </trkpt>
      <trkpt lat="43.29444" lon="-1.49631">
        <ele>104</ele>
        <time>2021-06-21T08:50:06.519Z</time>
      </trkpt>
      <trkpt lat="43.29447" lon="-1.49628">
        <ele>104</ele>
        <time>2021-06-21T08:50:07.548Z</time>
      </trkpt>
      <trkpt lat="43.29447" lon="-1.49628">
        <ele>104</ele>
        <time>2021-06-21T08:50:08.513Z</time>
      </trkpt>
      <trkpt lat="43.2945" lon="-1.49625">
        <ele>104</ele>
        <time>2021-06-21T08:50:09.516Z</time>
      </trkpt>
      <trkpt lat="43.2945" lon="-1.49625">
        <ele>104</ele>
        <time>2021-06-21T08:50:10.522Z</time>
      </trkpt>
      <trkpt lat="43.29453" lon="-1.49621">
        <ele>103</ele>
        <time>2021-06-21T08:50:11.509Z</time>
      </trkpt>
      <trkpt lat="43.29453" lon="-1.49621">
        <ele>103</ele>
        <time>2021-06-21T08:50:12.515Z</time>
      </trkpt>
      <trkpt lat="43.29456" lon="-1.49618">
        <ele>103</ele>
        <time>2021-06-21T08:50:13.544Z</time>
      </trkpt>
      <trkpt lat="43.29456" lon="-1.49618">
        <ele>103</ele>
        <time>2021-06-21T08:50:14.509Z</time>
      </trkpt>
      <trkpt lat="43.29459" lon="-1.49615">
        <ele>103</ele>
        <time>2021-06-21T08:50:15.536Z</time>
      </trkpt>
      <trkpt lat="43.29459" lon="-1.49615">
        <ele>103</ele>
        <time>2021-06-21T08:50:16.541Z</time>
      </trkpt>
      <trkpt lat="43.29462" lon="-1.49613">
        <ele>103</ele>
        <time>2021-06-21T08:50:17.532Z</time>
      </trkpt>
      <trkpt lat="43.29462" lon="-1.49613">
        <ele>103</ele>
        <time>2021-06-21T08:50:18.537Z</time>
      </trkpt>
      <trkpt lat="43.29465" lon="-1.4961">
        <ele>104</ele>
        <time>2021-06-21T08:50:19.542Z</time>
      </trkpt>
      <trkpt lat="43.29465" lon="-1.4961">
        <ele>104</ele>
        <time>2021-06-21T08:50:20.548Z</time>
      </trkpt>
      <trkpt lat="43.29468" lon="-1.49608">
        <ele>104</ele>
        <time>2021-06-21T08:50:21.532Z</time>
      </trkpt>
      <trkpt lat="43.29468" lon="-1.49608">
        <ele>104</ele>
        <time>2021-06-21T08:50:22.515Z</time>
      </trkpt>
      <trkpt lat="43.29472" lon="-1.49605">
        <ele>105</ele>
        <time>2021-06-21T08:50:23.526Z</time>
      </trkpt>
      <trkpt lat="43.29472" lon="-1.49605">
        <ele>105</ele>
        <time>2021-06-21T08:50:24.532Z</time>
      </trkpt>
      <trkpt lat="43.29475" lon="-1.49602">
        <ele>105</ele>
        <time>2021-06-21T08:50:25.532Z</time>
      </trkpt>
      <trkpt lat="43.29475" lon="-1.49602">
        <ele>105</ele>
        <time>2021-06-21T08:50:26.544Z</time>
      </trkpt>
      <trkpt lat="43.2948" lon="-1.49599">
        <ele>106</ele>
        <time>2021-06-21T08:50:27.538Z</time>
      </trkpt>
      <trkpt lat="43.2948" lon="-1.49599">
        <ele>106</ele>
        <time>2021-06-21T08:50:28.543Z</time>
      </trkpt>
      <trkpt lat="43.29484" lon="-1.49597">
        <ele>107</ele>
        <time>2021-06-21T08:50:29.542Z</time>
      </trkpt>
      <trkpt lat="43.29484" lon="-1.49597">
        <ele>107</ele>
        <time>2021-06-21T08:50:30.509Z</time>
      </trkpt>
      <trkpt lat="43.29488" lon="-1.49594">
        <ele>107</ele>
        <time>2021-06-21T08:50:31.512Z</time>
      </trkpt>
      <trkpt lat="43.29488" lon="-1.49594">
        <ele>107</ele>
        <time>2021-06-21T08:50:32.520Z</time>
      </trkpt>
      <trkpt lat="43.29492" lon="-1.49592">
        <ele>108</ele>
        <time>2021-06-21T08:50:33.548Z</time>
      </trkpt>
      <trkpt lat="43.29494" lon="-1.4959">
        <ele>108</ele>
        <time>2021-06-21T08:50:34.510Z</time>
      </trkpt>
      <trkpt lat="43.29497" lon="-1.49589">
        <ele>108</ele>
        <time>2021-06-21T08:50:35.540Z</time>
      </trkpt>
      <trkpt lat="43.29497" lon="-1.49589">
        <ele>108</ele>
        <time>2021-06-21T08:50:36.546Z</time>
      </trkpt>
      <trkpt lat="43.29501" lon="-1.49586">
        <ele>108</ele>
        <time>2021-06-21T08:50:37.542Z</time>
      </trkpt>
      <trkpt lat="43.29501" lon="-1.49586">
        <ele>108</ele>
        <time>2021-06-21T08:50:38.547Z</time>
      </trkpt>
      <trkpt lat="43.29505" lon="-1.49584">
        <ele>109</ele>
        <time>2021-06-21T08:50:39.524Z</time>
      </trkpt>
      <trkpt lat="43.29505" lon="-1.49584">
        <ele>109</ele>
        <time>2021-06-21T08:50:40.530Z</time>
      </trkpt>
      <trkpt lat="43.2951" lon="-1.49581">
        <ele>109</ele>
        <time>2021-06-21T08:50:41.517Z</time>
      </trkpt>
      <trkpt lat="43.2951" lon="-1.49581">
        <ele>109</ele>
        <time>2021-06-21T08:50:42.525Z</time>
      </trkpt>
      <trkpt lat="43.29514" lon="-1.4958">
        <ele>110</ele>
        <time>2021-06-21T08:50:43.512Z</time>
      </trkpt>
      <trkpt lat="43.29514" lon="-1.4958">
        <ele>110</ele>
        <time>2021-06-21T08:50:44.520Z</time>
      </trkpt>
      <trkpt lat="43.29518" lon="-1.49578">
        <ele>110</ele>
        <time>2021-06-21T08:50:45.510Z</time>
      </trkpt>
      <trkpt lat="43.29518" lon="-1.49578">
        <ele>110</ele>
        <time>2021-06-21T08:50:46.516Z</time>
      </trkpt>
      <trkpt lat="43.29523" lon="-1.49577">
        <ele>111</ele>
        <time>2021-06-21T08:50:47.516Z</time>
      </trkpt>
      <trkpt lat="43.29524" lon="-1.49575">
        <ele>111</ele>
        <time>2021-06-21T08:50:48.522Z</time>
      </trkpt>
      <trkpt lat="43.29526" lon="-1.49574">
        <ele>111</ele>
        <time>2021-06-21T08:50:49.526Z</time>
      </trkpt>
      <trkpt lat="43.29526" lon="-1.49574">
        <ele>111</ele>
        <time>2021-06-21T08:50:50.532Z</time>
      </trkpt>
      <trkpt lat="43.29529" lon="-1.49572">
        <ele>112</ele>
        <time>2021-06-21T08:50:51.517Z</time>
      </trkpt>
      <trkpt lat="43.29529" lon="-1.49572">
        <ele>112</ele>
        <time>2021-06-21T08:50:52.524Z</time>
      </trkpt>
      <trkpt lat="43.29533" lon="-1.4957">
        <ele>112</ele>
        <time>2021-06-21T08:50:53.546Z</time>
      </trkpt>
      <trkpt lat="43.29533" lon="-1.4957">
        <ele>112</ele>
        <time>2021-06-21T08:50:54.513Z</time>
      </trkpt>
      <trkpt lat="43.29537" lon="-1.49567">
        <ele>113</ele>
        <time>2021-06-21T08:50:55.545Z</time>
      </trkpt>
      <trkpt lat="43.29537" lon="-1.49567">
        <ele>113</ele>
        <time>2021-06-21T08:50:56.510Z</time>
      </trkpt>
      <trkpt lat="43.2954" lon="-1.49564">
        <ele>114</ele>
        <time>2021-06-21T08:50:57.544Z</time>
      </trkpt>
      <trkpt lat="43.2954" lon="-1.49564">
        <ele>114</ele>
        <time>2021-06-21T08:50:58.509Z</time>
      </trkpt>
      <trkpt lat="43.29544" lon="-1.49562">
        <ele>114</ele>
        <time>2021-06-21T08:50:59.536Z</time>
      </trkpt>
      <trkpt lat="43.29544" lon="-1.49562">
        <ele>114</ele>
        <time>2021-06-21T08:51:00.542Z</time>
      </trkpt>
      <trkpt lat="43.29547" lon="-1.49559">
        <ele>115</ele>
        <time>2021-06-21T08:51:01.538Z</time>
      </trkpt>
      <trkpt lat="43.29547" lon="-1.49559">
        <ele>115</ele>
        <time>2021-06-21T08:51:02.544Z</time>
      </trkpt>
      <trkpt lat="43.29551" lon="-1.49557">
        <ele>116</ele>
        <time>2021-06-21T08:51:03.538Z</time>
      </trkpt>
      <trkpt lat="43.29551" lon="-1.49557">
        <ele>116</ele>
        <time>2021-06-21T08:51:04.544Z</time>
      </trkpt>
      <trkpt lat="43.29555" lon="-1.49553">
        <ele>116</ele>
        <time>2021-06-21T08:51:05.532Z</time>
      </trkpt>
      <trkpt lat="43.29555" lon="-1.49553">
        <ele>116</ele>
        <time>2021-06-21T08:51:06.537Z</time>
      </trkpt>
      <trkpt lat="43.29559" lon="-1.4955">
        <ele>117</ele>
        <time>2021-06-21T08:51:07.532Z</time>
      </trkpt>
      <trkpt lat="43.29559" lon="-1.4955">
        <ele>117</ele>
        <time>2021-06-21T08:51:08.537Z</time>
      </trkpt>
      <trkpt lat="43.29562" lon="-1.49546">
        <ele>117</ele>
        <time>2021-06-21T08:51:09.519Z</time>
      </trkpt>
      <trkpt lat="43.29563" lon="-1.49544">
        <ele>118</ele>
        <time>2021-06-21T08:51:10.522Z</time>
      </trkpt>
      <trkpt lat="43.29563" lon="-1.49544">
        <ele>118</ele>
        <time>2021-06-21T08:51:11.526Z</time>
      </trkpt>
      <trkpt lat="43.29566" lon="-1.49539">
        <ele>118</ele>
        <time>2021-06-21T08:51:12.524Z</time>
      </trkpt>
      <trkpt lat="43.29568" lon="-1.49537">
        <ele>118</ele>
        <time>2021-06-21T08:51:13.510Z</time>
      </trkpt>
      <trkpt lat="43.29568" lon="-1.49537">
        <ele>118</ele>
        <time>2021-06-21T08:51:14.515Z</time>
      </trkpt>
      <trkpt lat="43.2957" lon="-1.49533">
        <ele>119</ele>
        <time>2021-06-21T08:51:15.547Z</time>
      </trkpt>
      <trkpt lat="43.29572" lon="-1.49531">
        <ele>119</ele>
        <time>2021-06-21T08:51:16.522Z</time>
      </trkpt>
      <trkpt lat="43.29572" lon="-1.49531">
        <ele>119</ele>
        <time>2021-06-21T08:51:17.528Z</time>
      </trkpt>
      <trkpt lat="43.29574" lon="-1.49527">
        <ele>120</ele>
        <time>2021-06-21T08:51:18.526Z</time>
      </trkpt>
      <trkpt lat="43.29576" lon="-1.49524">
        <ele>120</ele>
        <time>2021-06-21T08:51:19.518Z</time>
      </trkpt>
      <trkpt lat="43.29576" lon="-1.49524">
        <ele>120</ele>
        <time>2021-06-21T08:51:20.525Z</time>
      </trkpt>
      <trkpt lat="43.29578" lon="-1.49519">
        <ele>121</ele>
        <time>2021-06-21T08:51:21.546Z</time>
      </trkpt>
      <trkpt lat="43.29578" lon="-1.49519">
        <ele>121</ele>
        <time>2021-06-21T08:51:22.540Z</time>
      </trkpt>
      <trkpt lat="43.2958" lon="-1.49514">
        <ele>122</ele>
        <time>2021-06-21T08:51:23.518Z</time>
      </trkpt>
      <trkpt lat="43.2958" lon="-1.49514">
        <ele>122</ele>
        <time>2021-06-21T08:51:24.524Z</time>
      </trkpt>
      <trkpt lat="43.29583" lon="-1.49508">
        <ele>122</ele>
        <time>2021-06-21T08:51:25.529Z</time>
      </trkpt>
      <trkpt lat="43.29583" lon="-1.49506">
        <ele>122</ele>
        <time>2021-06-21T08:51:26.529Z</time>
      </trkpt>
      <trkpt lat="43.29583" lon="-1.49506">
        <ele>122</ele>
        <time>2021-06-21T08:51:27.535Z</time>
      </trkpt>
      <trkpt lat="43.29585" lon="-1.49501">
        <ele>123</ele>
        <time>2021-06-21T08:51:28.536Z</time>
      </trkpt>
      <trkpt lat="43.29585" lon="-1.49501">
        <ele>123</ele>
        <time>2021-06-21T08:51:29.542Z</time>
      </trkpt>
      <trkpt lat="43.29587" lon="-1.49496">
        <ele>123</ele>
        <time>2021-06-21T08:51:30.532Z</time>
      </trkpt>
      <trkpt lat="43.29588" lon="-1.49493">
        <ele>123</ele>
        <time>2021-06-21T08:51:31.539Z</time>
      </trkpt>
      <trkpt lat="43.29588" lon="-1.49493">
        <ele>123</ele>
        <time>2021-06-21T08:51:32.545Z</time>
      </trkpt>
      <trkpt lat="43.2959" lon="-1.49488">
        <ele>124</ele>
        <time>2021-06-21T08:51:33.534Z</time>
      </trkpt>
      <trkpt lat="43.2959" lon="-1.49488">
        <ele>124</ele>
        <time>2021-06-21T08:51:34.540Z</time>
      </trkpt>
      <trkpt lat="43.29592" lon="-1.49483">
        <ele>124</ele>
        <time>2021-06-21T08:51:35.535Z</time>
      </trkpt>
      <trkpt lat="43.29593" lon="-1.49481">
        <ele>123</ele>
        <time>2021-06-21T08:51:36.526Z</time>
      </trkpt>
      <trkpt lat="43.29594" lon="-1.49479">
        <ele>123</ele>
        <time>2021-06-21T08:51:37.522Z</time>
      </trkpt>
      <trkpt lat="43.29594" lon="-1.49479">
        <ele>123</ele>
        <time>2021-06-21T08:51:38.528Z</time>
      </trkpt>
      <trkpt lat="43.29595" lon="-1.49474">
        <ele>122</ele>
        <time>2021-06-21T08:51:39.510Z</time>
      </trkpt>
      <trkpt lat="43.29595" lon="-1.49474">
        <ele>122</ele>
        <time>2021-06-21T08:51:40.516Z</time>
      </trkpt>
      <trkpt lat="43.29597" lon="-1.49469">
        <ele>122</ele>
        <time>2021-06-21T08:51:41.530Z</time>
      </trkpt>
      <trkpt lat="43.29597" lon="-1.49469">
        <ele>122</ele>
        <time>2021-06-21T08:51:42.536Z</time>
      </trkpt>
      <trkpt lat="43.296" lon="-1.49463">
        <ele>121</ele>
        <time>2021-06-21T08:51:43.511Z</time>
      </trkpt>
      <trkpt lat="43.296" lon="-1.49463">
        <ele>121</ele>
        <time>2021-06-21T08:51:44.516Z</time>
      </trkpt>
      <trkpt lat="43.29602" lon="-1.49459">
        <ele>121</ele>
        <time>2021-06-21T08:51:45.542Z</time>
      </trkpt>
      <trkpt lat="43.29602" lon="-1.49459">
        <ele>121</ele>
        <time>2021-06-21T08:51:46.547Z</time>
      </trkpt>
      <trkpt lat="43.29603" lon="-1.49453">
        <ele>121</ele>
        <time>2021-06-21T08:51:47.546Z</time>
      </trkpt>
      <trkpt lat="43.29604" lon="-1.49451">
        <ele>120</ele>
        <time>2021-06-21T08:51:48.531Z</time>
      </trkpt>
      <trkpt lat="43.29605" lon="-1.49449">
        <ele>120</ele>
        <time>2021-06-21T08:51:49.522Z</time>
      </trkpt>
      <trkpt lat="43.29605" lon="-1.49449">
        <ele>120</ele>
        <time>2021-06-21T08:51:50.527Z</time>
      </trkpt>
      <trkpt lat="43.29606" lon="-1.49444">
        <ele>120</ele>
        <time>2021-06-21T08:51:51.513Z</time>
      </trkpt>
      <trkpt lat="43.29606" lon="-1.49444">
        <ele>120</ele>
        <time>2021-06-21T08:51:52.518Z</time>
      </trkpt>
      <trkpt lat="43.29608" lon="-1.49439">
        <ele>120</ele>
        <time>2021-06-21T08:51:53.512Z</time>
      </trkpt>
      <trkpt lat="43.29608" lon="-1.49439">
        <ele>120</ele>
        <time>2021-06-21T08:51:54.518Z</time>
      </trkpt>
      <trkpt lat="43.2961" lon="-1.49434">
        <ele>119</ele>
        <time>2021-06-21T08:51:55.513Z</time>
      </trkpt>
      <trkpt lat="43.2961" lon="-1.49434">
        <ele>119</ele>
        <time>2021-06-21T08:51:56.519Z</time>
      </trkpt>
      <trkpt lat="43.29612" lon="-1.49429">
        <ele>119</ele>
        <time>2021-06-21T08:51:57.542Z</time>
      </trkpt>
      <trkpt lat="43.29612" lon="-1.49429">
        <ele>119</ele>
        <time>2021-06-21T08:51:58.547Z</time>
      </trkpt>
      <trkpt lat="43.29614" lon="-1.49425">
        <ele>119</ele>
        <time>2021-06-21T08:51:59.544Z</time>
      </trkpt>
      <trkpt lat="43.29615" lon="-1.49423">
        <ele>119</ele>
        <time>2021-06-21T08:52:00.530Z</time>
      </trkpt>
      <trkpt lat="43.29617" lon="-1.4942">
        <ele>119</ele>
        <time>2021-06-21T08:52:01.532Z</time>
      </trkpt>
      <trkpt lat="43.29617" lon="-1.4942">
        <ele>119</ele>
        <time>2021-06-21T08:52:02.537Z</time>
      </trkpt>
      <trkpt lat="43.29619" lon="-1.49415">
        <ele>119</ele>
        <time>2021-06-21T08:52:03.542Z</time>
      </trkpt>
      <trkpt lat="43.29619" lon="-1.49415">
        <ele>119</ele>
        <time>2021-06-21T08:52:04.548Z</time>
      </trkpt>
      <trkpt lat="43.29622" lon="-1.49411">
        <ele>119</ele>
        <time>2021-06-21T08:52:05.542Z</time>
      </trkpt>
      <trkpt lat="43.29622" lon="-1.49411">
        <ele>119</ele>
        <time>2021-06-21T08:52:06.548Z</time>
      </trkpt>
      <trkpt lat="43.29625" lon="-1.49406">
        <ele>119</ele>
        <time>2021-06-21T08:52:07.526Z</time>
      </trkpt>
      <trkpt lat="43.29625" lon="-1.49406">
        <ele>119</ele>
        <time>2021-06-21T08:52:08.531Z</time>
      </trkpt>
      <trkpt lat="43.29628" lon="-1.49401">
        <ele>120</ele>
        <time>2021-06-21T08:52:09.520Z</time>
      </trkpt>
      <trkpt lat="43.2963" lon="-1.49399">
        <ele>119</ele>
        <time>2021-06-21T08:52:10.517Z</time>
      </trkpt>
      <trkpt lat="43.29631" lon="-1.49397">
        <ele>119</ele>
        <time>2021-06-21T08:52:11.512Z</time>
      </trkpt>
      <trkpt lat="43.29631" lon="-1.49397">
        <ele>119</ele>
        <time>2021-06-21T08:52:12.519Z</time>
      </trkpt>
      <trkpt lat="43.29634" lon="-1.49393">
        <ele>119</ele>
        <time>2021-06-21T08:52:13.510Z</time>
      </trkpt>
      <trkpt lat="43.29634" lon="-1.49393">
        <ele>119</ele>
        <time>2021-06-21T08:52:14.515Z</time>
      </trkpt>
      <trkpt lat="43.29637" lon="-1.49389">
        <ele>119</ele>
        <time>2021-06-21T08:52:15.512Z</time>
      </trkpt>
      <trkpt lat="43.29637" lon="-1.49389">
        <ele>119</ele>
        <time>2021-06-21T08:52:16.517Z</time>
      </trkpt>
      <trkpt lat="43.29641" lon="-1.49385">
        <ele>119</ele>
        <time>2021-06-21T08:52:17.511Z</time>
      </trkpt>
      <trkpt lat="43.29641" lon="-1.49385">
        <ele>119</ele>
        <time>2021-06-21T08:52:18.517Z</time>
      </trkpt>
      <trkpt lat="43.29644" lon="-1.49381">
        <ele>119</ele>
        <time>2021-06-21T08:52:19.522Z</time>
      </trkpt>
      <trkpt lat="43.29644" lon="-1.49381">
        <ele>119</ele>
        <time>2021-06-21T08:52:20.528Z</time>
      </trkpt>
      <trkpt lat="43.29647" lon="-1.49376">
        <ele>119</ele>
        <time>2021-06-21T08:52:21.531Z</time>
      </trkpt>
      <trkpt lat="43.29647" lon="-1.49376">
        <ele>119</ele>
        <time>2021-06-21T08:52:22.548Z</time>
      </trkpt>
      <trkpt lat="43.29651" lon="-1.49372">
        <ele>119</ele>
        <time>2021-06-21T08:52:23.524Z</time>
      </trkpt>
      <trkpt lat="43.29651" lon="-1.49372">
        <ele>119</ele>
        <time>2021-06-21T08:52:24.528Z</time>
      </trkpt>
      <trkpt lat="43.29654" lon="-1.49367">
        <ele>119</ele>
        <time>2021-06-21T08:52:25.519Z</time>
      </trkpt>
      <trkpt lat="43.29654" lon="-1.49367">
        <ele>119</ele>
        <time>2021-06-21T08:52:26.524Z</time>
      </trkpt>
      <trkpt lat="43.29657" lon="-1.49363">
        <ele>119</ele>
        <time>2021-06-21T08:52:27.513Z</time>
      </trkpt>
      <trkpt lat="43.29657" lon="-1.49363">
        <ele>119</ele>
        <time>2021-06-21T08:52:28.520Z</time>
      </trkpt>
      <trkpt lat="43.29661" lon="-1.49359">
        <ele>119</ele>
        <time>2021-06-21T08:52:29.521Z</time>
      </trkpt>
      <trkpt lat="43.29662" lon="-1.49357">
        <ele>119</ele>
        <time>2021-06-21T08:52:30.521Z</time>
      </trkpt>
      <trkpt lat="43.29662" lon="-1.49357">
        <ele>119</ele>
        <time>2021-06-21T08:52:31.528Z</time>
      </trkpt>
      <trkpt lat="43.29666" lon="-1.49354">
        <ele>119</ele>
        <time>2021-06-21T08:52:32.519Z</time>
      </trkpt>
      <trkpt lat="43.29666" lon="-1.49354">
        <ele>119</ele>
        <time>2021-06-21T08:52:33.528Z</time>
      </trkpt>
      <trkpt lat="43.29669" lon="-1.4935">
        <ele>119</ele>
        <time>2021-06-21T08:52:34.531Z</time>
      </trkpt>
      <trkpt lat="43.29669" lon="-1.4935">
        <ele>119</ele>
        <time>2021-06-21T08:52:35.536Z</time>
      </trkpt>
      <trkpt lat="43.29673" lon="-1.49347">
        <ele>120</ele>
        <time>2021-06-21T08:52:36.528Z</time>
      </trkpt>
      <trkpt lat="43.29675" lon="-1.49345">
        <ele>119</ele>
        <time>2021-06-21T08:52:37.510Z</time>
      </trkpt>
      <trkpt lat="43.29675" lon="-1.49345">
        <ele>119</ele>
        <time>2021-06-21T08:52:38.515Z</time>
      </trkpt>
      <trkpt lat="43.29678" lon="-1.49341">
        <ele>119</ele>
        <time>2021-06-21T08:52:39.545Z</time>
      </trkpt>
      <trkpt lat="43.29678" lon="-1.49341">
        <ele>119</ele>
        <time>2021-06-21T08:52:40.511Z</time>
      </trkpt>
      <trkpt lat="43.29682" lon="-1.49337">
        <ele>120</ele>
        <time>2021-06-21T08:52:41.546Z</time>
      </trkpt>
      <trkpt lat="43.29683" lon="-1.49335">
        <ele>119</ele>
        <time>2021-06-21T08:52:42.510Z</time>
      </trkpt>
      <trkpt lat="43.29685" lon="-1.49333">
        <ele>120</ele>
        <time>2021-06-21T08:52:43.540Z</time>
      </trkpt>
      <trkpt lat="43.29685" lon="-1.49333">
        <ele>120</ele>
        <time>2021-06-21T08:52:44.546Z</time>
      </trkpt>
      <trkpt lat="43.29688" lon="-1.4933">
        <ele>120</ele>
        <time>2021-06-21T08:52:45.542Z</time>
      </trkpt>
      <trkpt lat="43.29688" lon="-1.4933">
        <ele>120</ele>
        <time>2021-06-21T08:52:46.547Z</time>
      </trkpt>
      <trkpt lat="43.29692" lon="-1.49327">
        <ele>121</ele>
        <time>2021-06-21T08:52:47.533Z</time>
      </trkpt>
      <trkpt lat="43.29692" lon="-1.49327">
        <ele>121</ele>
        <time>2021-06-21T08:52:48.538Z</time>
      </trkpt>
      <trkpt lat="43.29696" lon="-1.49324">
        <ele>121</ele>
        <time>2021-06-21T08:52:49.523Z</time>
      </trkpt>
      <trkpt lat="43.29696" lon="-1.49324">
        <ele>121</ele>
        <time>2021-06-21T08:52:50.529Z</time>
      </trkpt>
      <trkpt lat="43.29699" lon="-1.49321">
        <ele>122</ele>
        <time>2021-06-21T08:52:51.529Z</time>
      </trkpt>
      <trkpt lat="43.29699" lon="-1.49321">
        <ele>122</ele>
        <time>2021-06-21T08:52:52.535Z</time>
      </trkpt>
      <trkpt lat="43.29703" lon="-1.49318">
        <ele>122</ele>
        <time>2021-06-21T08:52:53.532Z</time>
      </trkpt>
      <trkpt lat="43.29703" lon="-1.49318">
        <ele>122</ele>
        <time>2021-06-21T08:52:54.537Z</time>
      </trkpt>
      <trkpt lat="43.29706" lon="-1.49315">
        <ele>123</ele>
        <time>2021-06-21T08:52:55.520Z</time>
      </trkpt>
      <trkpt lat="43.29706" lon="-1.49315">
        <ele>123</ele>
        <time>2021-06-21T08:52:56.526Z</time>
      </trkpt>
      <trkpt lat="43.2971" lon="-1.49312">
        <ele>123</ele>
        <time>2021-06-21T08:52:57.527Z</time>
      </trkpt>
      <trkpt lat="43.29712" lon="-1.49311">
        <ele>123</ele>
        <time>2021-06-21T08:52:58.521Z</time>
      </trkpt>
      <trkpt lat="43.29712" lon="-1.49311">
        <ele>123</ele>
        <time>2021-06-21T08:52:59.527Z</time>
      </trkpt>
      <trkpt lat="43.29715" lon="-1.49308">
        <ele>123</ele>
        <time>2021-06-21T08:53:00.531Z</time>
      </trkpt>
      <trkpt lat="43.29715" lon="-1.49308">
        <ele>123</ele>
        <time>2021-06-21T08:53:01.536Z</time>
      </trkpt>
      <trkpt lat="43.29719" lon="-1.49306">
        <ele>123</ele>
        <time>2021-06-21T08:53:02.525Z</time>
      </trkpt>
      <trkpt lat="43.29719" lon="-1.49306">
        <ele>123</ele>
        <time>2021-06-21T08:53:03.530Z</time>
      </trkpt>
      <trkpt lat="43.29723" lon="-1.49304">
        <ele>123</ele>
        <time>2021-06-21T08:53:04.528Z</time>
      </trkpt>
      <trkpt lat="43.29725" lon="-1.49303">
        <ele>124</ele>
        <time>2021-06-21T08:53:05.522Z</time>
      </trkpt>
      <trkpt lat="43.29725" lon="-1.49303">
        <ele>124</ele>
        <time>2021-06-21T08:53:06.528Z</time>
      </trkpt>
      <trkpt lat="43.29729" lon="-1.49301">
        <ele>124</ele>
        <time>2021-06-21T08:53:07.530Z</time>
      </trkpt>
      <trkpt lat="43.29729" lon="-1.49301">
        <ele>124</ele>
        <time>2021-06-21T08:53:08.536Z</time>
      </trkpt>
      <trkpt lat="43.29733" lon="-1.49299">
        <ele>124</ele>
        <time>2021-06-21T08:53:09.536Z</time>
      </trkpt>
      <trkpt lat="43.29733" lon="-1.49299">
        <ele>124</ele>
        <time>2021-06-21T08:53:10.542Z</time>
      </trkpt>
      <trkpt lat="43.29738" lon="-1.49297">
        <ele>125</ele>
        <time>2021-06-21T08:53:11.537Z</time>
      </trkpt>
      <trkpt lat="43.29738" lon="-1.49297">
        <ele>125</ele>
        <time>2021-06-21T08:53:12.543Z</time>
      </trkpt>
      <trkpt lat="43.29742" lon="-1.49296">
        <ele>125</ele>
        <time>2021-06-21T08:53:13.512Z</time>
      </trkpt>
      <trkpt lat="43.29744" lon="-1.49295">
        <ele>125</ele>
        <time>2021-06-21T08:53:14.524Z</time>
      </trkpt>
      <trkpt lat="43.29744" lon="-1.49295">
        <ele>125</ele>
        <time>2021-06-21T08:53:15.530Z</time>
      </trkpt>
      <trkpt lat="43.29748" lon="-1.49295">
        <ele>126</ele>
        <time>2021-06-21T08:53:16.517Z</time>
      </trkpt>
      <trkpt lat="43.2975" lon="-1.49294">
        <ele>126</ele>
        <time>2021-06-21T08:53:17.526Z</time>
      </trkpt>
      <trkpt lat="43.2975" lon="-1.49294">
        <ele>126</ele>
        <time>2021-06-21T08:53:18.531Z</time>
      </trkpt>
      <trkpt lat="43.29754" lon="-1.49294">
        <ele>127</ele>
        <time>2021-06-21T08:53:19.519Z</time>
      </trkpt>
      <trkpt lat="43.29754" lon="-1.49294">
        <ele>127</ele>
        <time>2021-06-21T08:53:20.524Z</time>
      </trkpt>
      <trkpt lat="43.29758" lon="-1.49292">
        <ele>127</ele>
        <time>2021-06-21T08:53:21.512Z</time>
      </trkpt>
      <trkpt lat="43.29758" lon="-1.49292">
        <ele>127</ele>
        <time>2021-06-21T08:53:22.530Z</time>
      </trkpt>
      <trkpt lat="43.29763" lon="-1.49291">
        <ele>128</ele>
        <time>2021-06-21T08:53:23.535Z</time>
      </trkpt>
      <trkpt lat="43.29763" lon="-1.49291">
        <ele>128</ele>
        <time>2021-06-21T08:53:24.539Z</time>
      </trkpt>
      <trkpt lat="43.29767" lon="-1.4929">
        <ele>129</ele>
        <time>2021-06-21T08:53:25.534Z</time>
      </trkpt>
      <trkpt lat="43.29767" lon="-1.4929">
        <ele>129</ele>
        <time>2021-06-21T08:53:26.539Z</time>
      </trkpt>
      <trkpt lat="43.29772" lon="-1.49291">
        <ele>130</ele>
        <time>2021-06-21T08:53:27.544Z</time>
      </trkpt>
      <trkpt lat="43.29772" lon="-1.49291">
        <ele>130</ele>
        <time>2021-06-21T08:53:28.510Z</time>
      </trkpt>
      <trkpt lat="43.29775" lon="-1.4929">
        <ele>131</ele>
        <time>2021-06-21T08:53:29.530Z</time>
      </trkpt>
      <trkpt lat="43.29777" lon="-1.4929">
        <ele>131</ele>
        <time>2021-06-21T08:53:30.533Z</time>
      </trkpt>
      <trkpt lat="43.29779" lon="-1.49289">
        <ele>131</ele>
        <time>2021-06-21T08:53:31.531Z</time>
      </trkpt>
      <trkpt lat="43.29781" lon="-1.49289">
        <ele>132</ele>
        <time>2021-06-21T08:53:32.542Z</time>
      </trkpt>
      <trkpt lat="43.29781" lon="-1.49289">
        <ele>132</ele>
        <time>2021-06-21T08:53:33.548Z</time>
      </trkpt>
      <trkpt lat="43.29786" lon="-1.49289">
        <ele>133</ele>
        <time>2021-06-21T08:53:34.527Z</time>
      </trkpt>
      <trkpt lat="43.29786" lon="-1.49289">
        <ele>133</ele>
        <time>2021-06-21T08:53:35.532Z</time>
      </trkpt>
      <trkpt lat="43.2979" lon="-1.49289">
        <ele>134</ele>
        <time>2021-06-21T08:53:36.527Z</time>
      </trkpt>
      <trkpt lat="43.29792" lon="-1.49289">
        <ele>134</ele>
        <time>2021-06-21T08:53:37.532Z</time>
      </trkpt>
      <trkpt lat="43.29792" lon="-1.49289">
        <ele>134</ele>
        <time>2021-06-21T08:53:38.537Z</time>
      </trkpt>
      <trkpt lat="43.29796" lon="-1.4929">
        <ele>135</ele>
        <time>2021-06-21T08:53:39.528Z</time>
      </trkpt>
      <trkpt lat="43.29799" lon="-1.4929">
        <ele>136</ele>
        <time>2021-06-21T08:53:40.512Z</time>
      </trkpt>
      <trkpt lat="43.29799" lon="-1.4929">
        <ele>136</ele>
        <time>2021-06-21T08:53:41.517Z</time>
      </trkpt>
      <trkpt lat="43.29803" lon="-1.49291">
        <ele>136</ele>
        <time>2021-06-21T08:53:42.524Z</time>
      </trkpt>
      <trkpt lat="43.29805" lon="-1.49293">
        <ele>137</ele>
        <time>2021-06-21T08:53:43.514Z</time>
      </trkpt>
      <trkpt lat="43.29805" lon="-1.49293">
        <ele>137</ele>
        <time>2021-06-21T08:53:44.521Z</time>
      </trkpt>
      <trkpt lat="43.29809" lon="-1.49294">
        <ele>137</ele>
        <time>2021-06-21T08:53:45.519Z</time>
      </trkpt>
      <trkpt lat="43.29809" lon="-1.49294">
        <ele>137</ele>
        <time>2021-06-21T08:53:46.526Z</time>
      </trkpt>
      <trkpt lat="43.29814" lon="-1.49297">
        <ele>137</ele>
        <time>2021-06-21T08:53:47.523Z</time>
      </trkpt>
      <trkpt lat="43.29814" lon="-1.49297">
        <ele>137</ele>
        <time>2021-06-21T08:53:48.529Z</time>
      </trkpt>
      <trkpt lat="43.29818" lon="-1.49299">
        <ele>137</ele>
        <time>2021-06-21T08:53:49.514Z</time>
      </trkpt>
      <trkpt lat="43.29818" lon="-1.49299">
        <ele>137</ele>
        <time>2021-06-21T08:53:50.522Z</time>
      </trkpt>
      <trkpt lat="43.29822" lon="-1.49302">
        <ele>137</ele>
        <time>2021-06-21T08:53:51.521Z</time>
      </trkpt>
      <trkpt lat="43.29822" lon="-1.49302">
        <ele>137</ele>
        <time>2021-06-21T08:53:52.526Z</time>
      </trkpt>
      <trkpt lat="43.29826" lon="-1.49305">
        <ele>137</ele>
        <time>2021-06-21T08:53:53.522Z</time>
      </trkpt>
      <trkpt lat="43.29828" lon="-1.49306">
        <ele>137</ele>
        <time>2021-06-21T08:53:54.535Z</time>
      </trkpt>
      <trkpt lat="43.29831" lon="-1.49307">
        <ele>137</ele>
        <time>2021-06-21T08:53:55.530Z</time>
      </trkpt>
      <trkpt lat="43.29831" lon="-1.49307">
        <ele>137</ele>
        <time>2021-06-21T08:53:56.535Z</time>
      </trkpt>
      <trkpt lat="43.29835" lon="-1.49311">
        <ele>138</ele>
        <time>2021-06-21T08:53:57.538Z</time>
      </trkpt>
      <trkpt lat="43.29835" lon="-1.49311">
        <ele>138</ele>
        <time>2021-06-21T08:53:58.544Z</time>
      </trkpt>
      <trkpt lat="43.29839" lon="-1.49314">
        <ele>138</ele>
        <time>2021-06-21T08:53:59.540Z</time>
      </trkpt>
      <trkpt lat="43.29839" lon="-1.49314">
        <ele>138</ele>
        <time>2021-06-21T08:54:00.546Z</time>
      </trkpt>
      <trkpt lat="43.29844" lon="-1.49319">
        <ele>138</ele>
        <time>2021-06-21T08:54:01.537Z</time>
      </trkpt>
      <trkpt lat="43.29844" lon="-1.49319">
        <ele>138</ele>
        <time>2021-06-21T08:54:02.544Z</time>
      </trkpt>
      <trkpt lat="43.29849" lon="-1.49323">
        <ele>138</ele>
        <time>2021-06-21T08:54:03.545Z</time>
      </trkpt>
      <trkpt lat="43.29849" lon="-1.49323">
        <ele>138</ele>
        <time>2021-06-21T08:54:04.510Z</time>
      </trkpt>
      <trkpt lat="43.29854" lon="-1.49326">
        <ele>138</ele>
        <time>2021-06-21T08:54:05.516Z</time>
      </trkpt>
      <trkpt lat="43.29854" lon="-1.49326">
        <ele>138</ele>
        <time>2021-06-21T08:54:06.522Z</time>
      </trkpt>
      <trkpt lat="43.29858" lon="-1.49331">
        <ele>137</ele>
        <time>2021-06-21T08:54:07.512Z</time>
      </trkpt>
      <trkpt lat="43.29858" lon="-1.49331">
        <ele>137</ele>
        <time>2021-06-21T08:54:08.517Z</time>
      </trkpt>
      <trkpt lat="43.29862" lon="-1.49336">
        <ele>137</ele>
        <time>2021-06-21T08:54:09.517Z</time>
      </trkpt>
      <trkpt lat="43.29862" lon="-1.49336">
        <ele>137</ele>
        <time>2021-06-21T08:54:10.523Z</time>
      </trkpt>
      <trkpt lat="43.29866" lon="-1.49341">
        <ele>137</ele>
        <time>2021-06-21T08:54:11.517Z</time>
      </trkpt>
      <trkpt lat="43.29866" lon="-1.49341">
        <ele>137</ele>
        <time>2021-06-21T08:54:12.524Z</time>
      </trkpt>
      <trkpt lat="43.2987" lon="-1.49346">
        <ele>137</ele>
        <time>2021-06-21T08:54:13.538Z</time>
      </trkpt>
      <trkpt lat="43.2987" lon="-1.49346">
        <ele>137</ele>
        <time>2021-06-21T08:54:14.547Z</time>
      </trkpt>
      <trkpt lat="43.29875" lon="-1.49351">
        <ele>137</ele>
        <time>2021-06-21T08:54:15.541Z</time>
      </trkpt>
      <trkpt lat="43.29875" lon="-1.49351">
        <ele>137</ele>
        <time>2021-06-21T08:54:16.546Z</time>
      </trkpt>
      <trkpt lat="43.29879" lon="-1.49357">
        <ele>136</ele>
        <time>2021-06-21T08:54:17.539Z</time>
      </trkpt>
      <trkpt lat="43.29882" lon="-1.4936">
        <ele>136</ele>
        <time>2021-06-21T08:54:18.517Z</time>
      </trkpt>
      <trkpt lat="43.29885" lon="-1.49363">
        <ele>136</ele>
        <time>2021-06-21T08:54:19.512Z</time>
      </trkpt>
      <trkpt lat="43.29885" lon="-1.49363">
        <ele>136</ele>
        <time>2021-06-21T08:54:20.517Z</time>
      </trkpt>
      <trkpt lat="43.2989" lon="-1.49369">
        <ele>136</ele>
        <time>2021-06-21T08:54:21.529Z</time>
      </trkpt>
      <trkpt lat="43.29893" lon="-1.49373">
        <ele>135</ele>
        <time>2021-06-21T08:54:22.546Z</time>
      </trkpt>
      <trkpt lat="43.29893" lon="-1.49373">
        <ele>135</ele>
        <time>2021-06-21T08:54:23.538Z</time>
      </trkpt>
      <trkpt lat="43.29899" lon="-1.4938">
        <ele>135</ele>
        <time>2021-06-21T08:54:24.511Z</time>
      </trkpt>
      <trkpt lat="43.29899" lon="-1.4938">
        <ele>135</ele>
        <time>2021-06-21T08:54:25.517Z</time>
      </trkpt>
      <trkpt lat="43.29906" lon="-1.49387">
        <ele>135</ele>
        <time>2021-06-21T08:54:26.544Z</time>
      </trkpt>
      <trkpt lat="43.2991" lon="-1.49391">
        <ele>134</ele>
        <time>2021-06-21T08:54:27.544Z</time>
      </trkpt>
      <trkpt lat="43.2991" lon="-1.49391">
        <ele>134</ele>
        <time>2021-06-21T08:54:28.510Z</time>
      </trkpt>
      <trkpt lat="43.29918" lon="-1.49398">
        <ele>134</ele>
        <time>2021-06-21T08:54:29.542Z</time>
      </trkpt>
      <trkpt lat="43.29924" lon="-1.49401">
        <ele>134</ele>
        <time>2021-06-21T08:54:30.536Z</time>
      </trkpt>
      <trkpt lat="43.29929" lon="-1.49404">
        <ele>134</ele>
        <time>2021-06-21T08:54:31.530Z</time>
      </trkpt>
      <trkpt lat="43.29929" lon="-1.49404">
        <ele>134</ele>
        <time>2021-06-21T08:54:32.536Z</time>
      </trkpt>
      <trkpt lat="43.2994" lon="-1.49411">
        <ele>133</ele>
        <time>2021-06-21T08:54:33.520Z</time>
      </trkpt>
      <trkpt lat="43.2994" lon="-1.49411">
        <ele>133</ele>
        <time>2021-06-21T08:54:34.526Z</time>
      </trkpt>
      <trkpt lat="43.29952" lon="-1.49417">
        <ele>133</ele>
        <time>2021-06-21T08:54:35.541Z</time>
      </trkpt>
      <trkpt lat="43.29958" lon="-1.49421">
        <ele>133</ele>
        <time>2021-06-21T08:54:36.541Z</time>
      </trkpt>
      <trkpt lat="43.29964" lon="-1.49424">
        <ele>133</ele>
        <time>2021-06-21T08:54:37.534Z</time>
      </trkpt>
      <trkpt lat="43.29964" lon="-1.49424">
        <ele>133</ele>
        <time>2021-06-21T08:54:38.539Z</time>
      </trkpt>
      <trkpt lat="43.29978" lon="-1.4943">
        <ele>132</ele>
        <time>2021-06-21T08:54:39.532Z</time>
      </trkpt>
      <trkpt lat="43.29978" lon="-1.4943">
        <ele>132</ele>
        <time>2021-06-21T08:54:40.538Z</time>
      </trkpt>
      <trkpt lat="43.29992" lon="-1.49434">
        <ele>131</ele>
        <time>2021-06-21T08:54:41.535Z</time>
      </trkpt>
      <trkpt lat="43.29992" lon="-1.49434">
        <ele>131</ele>
        <time>2021-06-21T08:54:42.540Z</time>
      </trkpt>
      <trkpt lat="43.30006" lon="-1.49437">
        <ele>130</ele>
        <time>2021-06-21T08:54:43.542Z</time>
      </trkpt>
      <trkpt lat="43.30006" lon="-1.49437">
        <ele>130</ele>
        <time>2021-06-21T08:54:44.548Z</time>
      </trkpt>
      <trkpt lat="43.3002" lon="-1.4944">
        <ele>129</ele>
        <time>2021-06-21T08:54:45.536Z</time>
      </trkpt>
      <trkpt lat="43.3002" lon="-1.4944">
        <ele>129</ele>
        <time>2021-06-21T08:54:46.542Z</time>
      </trkpt>
      <trkpt lat="43.30035" lon="-1.4944">
        <ele>128</ele>
        <time>2021-06-21T08:54:47.524Z</time>
      </trkpt>
      <trkpt lat="43.30042" lon="-1.49439">
        <ele>127</ele>
        <time>2021-06-21T08:54:48.517Z</time>
      </trkpt>
      <trkpt lat="43.30042" lon="-1.49439">
        <ele>127</ele>
        <time>2021-06-21T08:54:49.526Z</time>
      </trkpt>
      <trkpt lat="43.30058" lon="-1.49438">
        <ele>126</ele>
        <time>2021-06-21T08:54:50.510Z</time>
      </trkpt>
      <trkpt lat="43.30058" lon="-1.49438">
        <ele>126</ele>
        <time>2021-06-21T08:54:51.516Z</time>
      </trkpt>
      <trkpt lat="43.30073" lon="-1.49435">
        <ele>125</ele>
        <time>2021-06-21T08:54:52.543Z</time>
      </trkpt>
      <trkpt lat="43.30081" lon="-1.49432">
        <ele>125</ele>
        <time>2021-06-21T08:54:53.514Z</time>
      </trkpt>
      <trkpt lat="43.30081" lon="-1.49432">
        <ele>125</ele>
        <time>2021-06-21T08:54:54.523Z</time>
      </trkpt>
      <trkpt lat="43.30095" lon="-1.49426">
        <ele>124</ele>
        <time>2021-06-21T08:54:55.531Z</time>
      </trkpt>
      <trkpt lat="43.30095" lon="-1.49426">
        <ele>124</ele>
        <time>2021-06-21T08:54:56.514Z</time>
      </trkpt>
      <trkpt lat="43.30109" lon="-1.49419">
        <ele>122</ele>
        <time>2021-06-21T08:54:57.511Z</time>
      </trkpt>
      <trkpt lat="43.30109" lon="-1.49419">
        <ele>122</ele>
        <time>2021-06-21T08:54:58.519Z</time>
      </trkpt>
      <trkpt lat="43.30123" lon="-1.4941">
        <ele>121</ele>
        <time>2021-06-21T08:54:59.535Z</time>
      </trkpt>
      <trkpt lat="43.30123" lon="-1.4941">
        <ele>121</ele>
        <time>2021-06-21T08:55:00.543Z</time>
      </trkpt>
      <trkpt lat="43.30136" lon="-1.49401">
        <ele>120</ele>
        <time>2021-06-21T08:55:01.544Z</time>
      </trkpt>
      <trkpt lat="43.30136" lon="-1.49401">
        <ele>120</ele>
        <time>2021-06-21T08:55:02.512Z</time>
      </trkpt>
      <trkpt lat="43.3015" lon="-1.49392">
        <ele>119</ele>
        <time>2021-06-21T08:55:03.547Z</time>
      </trkpt>
      <trkpt lat="43.3015" lon="-1.49392">
        <ele>119</ele>
        <time>2021-06-21T08:55:04.517Z</time>
      </trkpt>
      <trkpt lat="43.30163" lon="-1.49383">
        <ele>118</ele>
        <time>2021-06-21T08:55:05.515Z</time>
      </trkpt>
      <trkpt lat="43.30163" lon="-1.49383">
        <ele>118</ele>
        <time>2021-06-21T08:55:06.526Z</time>
      </trkpt>
      <trkpt lat="43.30176" lon="-1.49374">
        <ele>118</ele>
        <time>2021-06-21T08:55:07.514Z</time>
      </trkpt>
      <trkpt lat="43.30176" lon="-1.49374">
        <ele>118</ele>
        <time>2021-06-21T08:55:08.523Z</time>
      </trkpt>
      <trkpt lat="43.30189" lon="-1.49366">
        <ele>117</ele>
        <time>2021-06-21T08:55:09.511Z</time>
      </trkpt>
      <trkpt lat="43.30189" lon="-1.49366">
        <ele>117</ele>
        <time>2021-06-21T08:55:10.523Z</time>
      </trkpt>
      <trkpt lat="43.30202" lon="-1.49358">
        <ele>117</ele>
        <time>2021-06-21T08:55:11.509Z</time>
      </trkpt>
      <trkpt lat="43.30202" lon="-1.49358">
        <ele>117</ele>
        <time>2021-06-21T08:55:12.516Z</time>
      </trkpt>
      <trkpt lat="43.30214" lon="-1.49351">
        <ele>117</ele>
        <time>2021-06-21T08:55:13.512Z</time>
      </trkpt>
      <trkpt lat="43.30214" lon="-1.49351">
        <ele>117</ele>
        <time>2021-06-21T08:55:14.522Z</time>
      </trkpt>
      <trkpt lat="43.30226" lon="-1.49344">
        <ele>116</ele>
        <time>2021-06-21T08:55:15.546Z</time>
      </trkpt>
      <trkpt lat="43.30226" lon="-1.49344">
        <ele>116</ele>
        <time>2021-06-21T08:55:16.516Z</time>
      </trkpt>
      <trkpt lat="43.30238" lon="-1.4934">
        <ele>115</ele>
        <time>2021-06-21T08:55:17.513Z</time>
      </trkpt>
      <trkpt lat="43.30238" lon="-1.4934">
        <ele>115</ele>
        <time>2021-06-21T08:55:18.522Z</time>
      </trkpt>
      <trkpt lat="43.30251" lon="-1.49342">
        <ele>115</ele>
        <time>2021-06-21T08:55:19.519Z</time>
      </trkpt>
      <trkpt lat="43.30251" lon="-1.49342">
        <ele>115</ele>
        <time>2021-06-21T08:55:20.526Z</time>
      </trkpt>
      <trkpt lat="43.30263" lon="-1.49351">
        <ele>115</ele>
        <time>2021-06-21T08:55:21.542Z</time>
      </trkpt>
      <trkpt lat="43.30263" lon="-1.49351">
        <ele>115</ele>
        <time>2021-06-21T08:55:22.533Z</time>
      </trkpt>
      <trkpt lat="43.30273" lon="-1.49366">
        <ele>115</ele>
        <time>2021-06-21T08:55:23.533Z</time>
      </trkpt>
      <trkpt lat="43.30277" lon="-1.49375">
        <ele>116</ele>
        <time>2021-06-21T08:55:24.542Z</time>
      </trkpt>
      <trkpt lat="43.30279" lon="-1.49385">
        <ele>116</ele>
        <time>2021-06-21T08:55:25.535Z</time>
      </trkpt>
      <trkpt lat="43.30279" lon="-1.49385">
        <ele>116</ele>
        <time>2021-06-21T08:55:26.544Z</time>
      </trkpt>
      <trkpt lat="43.30285" lon="-1.49403">
        <ele>116</ele>
        <time>2021-06-21T08:55:27.531Z</time>
      </trkpt>
      <trkpt lat="43.30285" lon="-1.49403">
        <ele>116</ele>
        <time>2021-06-21T08:55:28.538Z</time>
      </trkpt>
      <trkpt lat="43.3029" lon="-1.49421">
        <ele>117</ele>
        <time>2021-06-21T08:55:29.517Z</time>
      </trkpt>
      <trkpt lat="43.3029" lon="-1.49421">
        <ele>117</ele>
        <time>2021-06-21T08:55:30.523Z</time>
      </trkpt>
      <trkpt lat="43.30295" lon="-1.49438">
        <ele>117</ele>
        <time>2021-06-21T08:55:31.545Z</time>
      </trkpt>
      <trkpt lat="43.30295" lon="-1.49438">
        <ele>117</ele>
        <time>2021-06-21T08:55:32.512Z</time>
      </trkpt>
      <trkpt lat="43.30299" lon="-1.49454">
        <ele>117</ele>
        <time>2021-06-21T08:55:33.512Z</time>
      </trkpt>
      <trkpt lat="43.30299" lon="-1.49454">
        <ele>117</ele>
        <time>2021-06-21T08:55:34.534Z</time>
      </trkpt>
      <trkpt lat="43.30304" lon="-1.4947">
        <ele>117</ele>
        <time>2021-06-21T08:55:35.532Z</time>
      </trkpt>
      <trkpt lat="43.30304" lon="-1.4947">
        <ele>117</ele>
        <time>2021-06-21T08:55:36.541Z</time>
      </trkpt>
      <trkpt lat="43.30308" lon="-1.49486">
        <ele>117</ele>
        <time>2021-06-21T08:55:37.537Z</time>
      </trkpt>
      <trkpt lat="43.30308" lon="-1.49486">
        <ele>117</ele>
        <time>2021-06-21T08:55:38.544Z</time>
      </trkpt>
      <trkpt lat="43.30312" lon="-1.49503">
        <ele>117</ele>
        <time>2021-06-21T08:55:39.544Z</time>
      </trkpt>
      <trkpt lat="43.30312" lon="-1.49503">
        <ele>117</ele>
        <time>2021-06-21T08:55:40.510Z</time>
      </trkpt>
      <trkpt lat="43.30316" lon="-1.4952">
        <ele>117</ele>
        <time>2021-06-21T08:55:41.534Z</time>
      </trkpt>
      <trkpt lat="43.30318" lon="-1.49528">
        <ele>117</ele>
        <time>2021-06-21T08:55:42.517Z</time>
      </trkpt>
      <trkpt lat="43.3032" lon="-1.49535">
        <ele>117</ele>
        <time>2021-06-21T08:55:43.514Z</time>
      </trkpt>
      <trkpt lat="43.3032" lon="-1.49535">
        <ele>117</ele>
        <time>2021-06-21T08:55:44.522Z</time>
      </trkpt>
      <trkpt lat="43.30326" lon="-1.49551">
        <ele>118</ele>
        <time>2021-06-21T08:55:45.510Z</time>
      </trkpt>
      <trkpt lat="43.30326" lon="-1.49551">
        <ele>118</ele>
        <time>2021-06-21T08:55:46.516Z</time>
      </trkpt>
      <trkpt lat="43.30335" lon="-1.49567">
        <ele>118</ele>
        <time>2021-06-21T08:55:47.542Z</time>
      </trkpt>
      <trkpt lat="43.30335" lon="-1.49567">
        <ele>118</ele>
        <time>2021-06-21T08:55:48.548Z</time>
      </trkpt>
      <trkpt lat="43.30345" lon="-1.49579">
        <ele>118</ele>
        <time>2021-06-21T08:55:49.548Z</time>
      </trkpt>
      <trkpt lat="43.30345" lon="-1.49579">
        <ele>118</ele>
        <time>2021-06-21T08:55:50.515Z</time>
      </trkpt>
      <trkpt lat="43.30357" lon="-1.4959">
        <ele>118</ele>
        <time>2021-06-21T08:55:51.512Z</time>
      </trkpt>
      <trkpt lat="43.30357" lon="-1.4959">
        <ele>118</ele>
        <time>2021-06-21T08:55:52.518Z</time>
      </trkpt>
      <trkpt lat="43.3037" lon="-1.49599">
        <ele>119</ele>
        <time>2021-06-21T08:55:53.532Z</time>
      </trkpt>
      <trkpt lat="43.30377" lon="-1.49604">
        <ele>119</ele>
        <time>2021-06-21T08:55:54.548Z</time>
      </trkpt>
      <trkpt lat="43.30384" lon="-1.49608">
        <ele>119</ele>
        <time>2021-06-21T08:55:55.536Z</time>
      </trkpt>
      <trkpt lat="43.30384" lon="-1.49608">
        <ele>119</ele>
        <time>2021-06-21T08:55:56.544Z</time>
      </trkpt>
      <trkpt lat="43.30396" lon="-1.49617">
        <ele>119</ele>
        <time>2021-06-21T08:55:57.539Z</time>
      </trkpt>
      <trkpt lat="43.30396" lon="-1.49617">
        <ele>119</ele>
        <time>2021-06-21T08:55:58.547Z</time>
      </trkpt>
      <trkpt lat="43.30407" lon="-1.49629">
        <ele>120</ele>
        <time>2021-06-21T08:55:59.532Z</time>
      </trkpt>
      <trkpt lat="43.30413" lon="-1.49635">
        <ele>120</ele>
        <time>2021-06-21T08:56:00.521Z</time>
      </trkpt>
      <trkpt lat="43.30418" lon="-1.49642">
        <ele>120</ele>
        <time>2021-06-21T08:56:01.514Z</time>
      </trkpt>
      <trkpt lat="43.30418" lon="-1.49642">
        <ele>120</ele>
        <time>2021-06-21T08:56:02.521Z</time>
      </trkpt>
      <trkpt lat="43.30427" lon="-1.49659">
        <ele>121</ele>
        <time>2021-06-21T08:56:03.529Z</time>
      </trkpt>
      <trkpt lat="43.30427" lon="-1.49659">
        <ele>121</ele>
        <time>2021-06-21T08:56:04.536Z</time>
      </trkpt>
      <trkpt lat="43.30433" lon="-1.49677">
        <ele>121</ele>
        <time>2021-06-21T08:56:05.517Z</time>
      </trkpt>
      <trkpt lat="43.30433" lon="-1.49677">
        <ele>121</ele>
        <time>2021-06-21T08:56:06.526Z</time>
      </trkpt>
      <trkpt lat="43.30439" lon="-1.49695">
        <ele>121</ele>
        <time>2021-06-21T08:56:07.514Z</time>
      </trkpt>
      <trkpt lat="43.30439" lon="-1.49695">
        <ele>121</ele>
        <time>2021-06-21T08:56:08.523Z</time>
      </trkpt>
      <trkpt lat="43.30445" lon="-1.49715">
        <ele>121</ele>
        <time>2021-06-21T08:56:09.532Z</time>
      </trkpt>
      <trkpt lat="43.30445" lon="-1.49715">
        <ele>121</ele>
        <time>2021-06-21T08:56:10.539Z</time>
      </trkpt>
      <trkpt lat="43.30453" lon="-1.49737">
        <ele>121</ele>
        <time>2021-06-21T08:56:11.537Z</time>
      </trkpt>
      <trkpt lat="43.30456" lon="-1.49747">
        <ele>121</ele>
        <time>2021-06-21T08:56:12.536Z</time>
      </trkpt>
      <trkpt lat="43.3046" lon="-1.49755">
        <ele>121</ele>
        <time>2021-06-21T08:56:13.545Z</time>
      </trkpt>
      <trkpt lat="43.3046" lon="-1.49755">
        <ele>121</ele>
        <time>2021-06-21T08:56:14.512Z</time>
      </trkpt>
      <trkpt lat="43.30466" lon="-1.4977">
        <ele>121</ele>
        <time>2021-06-21T08:56:15.518Z</time>
      </trkpt>
      <trkpt lat="43.30466" lon="-1.4977">
        <ele>121</ele>
        <time>2021-06-21T08:56:16.525Z</time>
      </trkpt>
      <trkpt lat="43.30469" lon="-1.49782">
        <ele>120</ele>
        <time>2021-06-21T08:56:17.510Z</time>
      </trkpt>
      <trkpt lat="43.30469" lon="-1.49782">
        <ele>120</ele>
        <time>2021-06-21T08:56:18.517Z</time>
      </trkpt>
      <trkpt lat="43.30471" lon="-1.49793">
        <ele>120</ele>
        <time>2021-06-21T08:56:19.546Z</time>
      </trkpt>
      <trkpt lat="43.30471" lon="-1.49793">
        <ele>120</ele>
        <time>2021-06-21T08:56:20.512Z</time>
      </trkpt>
      <trkpt lat="43.30475" lon="-1.49803">
        <ele>120</ele>
        <time>2021-06-21T08:56:21.542Z</time>
      </trkpt>
      <trkpt lat="43.30475" lon="-1.49803">
        <ele>120</ele>
        <time>2021-06-21T08:56:22.532Z</time>
      </trkpt>
      <trkpt lat="43.30479" lon="-1.49812">
        <ele>120</ele>
        <time>2021-06-21T08:56:23.520Z</time>
      </trkpt>
      <trkpt lat="43.30479" lon="-1.49812">
        <ele>120</ele>
        <time>2021-06-21T08:56:24.526Z</time>
      </trkpt>
      <trkpt lat="43.30483" lon="-1.49822">
        <ele>120</ele>
        <time>2021-06-21T08:56:25.513Z</time>
      </trkpt>
      <trkpt lat="43.30483" lon="-1.49822">
        <ele>120</ele>
        <time>2021-06-21T08:56:26.520Z</time>
      </trkpt>
      <trkpt lat="43.30487" lon="-1.49832">
        <ele>120</ele>
        <time>2021-06-21T08:56:27.518Z</time>
      </trkpt>
      <trkpt lat="43.30487" lon="-1.49832">
        <ele>120</ele>
        <time>2021-06-21T08:56:28.524Z</time>
      </trkpt>
      <trkpt lat="43.30491" lon="-1.49842">
        <ele>120</ele>
        <time>2021-06-21T08:56:29.512Z</time>
      </trkpt>
      <trkpt lat="43.30491" lon="-1.49842">
        <ele>120</ele>
        <time>2021-06-21T08:56:30.517Z</time>
      </trkpt>
      <trkpt lat="43.30494" lon="-1.4985">
        <ele>120</ele>
        <time>2021-06-21T08:56:31.512Z</time>
      </trkpt>
      <trkpt lat="43.30494" lon="-1.4985">
        <ele>120</ele>
        <time>2021-06-21T08:56:32.518Z</time>
      </trkpt>
      <trkpt lat="43.30496" lon="-1.49858">
        <ele>120</ele>
        <time>2021-06-21T08:56:33.512Z</time>
      </trkpt>
      <trkpt lat="43.30496" lon="-1.49858">
        <ele>120</ele>
        <time>2021-06-21T08:56:34.520Z</time>
      </trkpt>
      <trkpt lat="43.30498" lon="-1.49865">
        <ele>121</ele>
        <time>2021-06-21T08:56:35.535Z</time>
      </trkpt>
      <trkpt lat="43.30498" lon="-1.49865">
        <ele>121</ele>
        <time>2021-06-21T08:56:36.540Z</time>
      </trkpt>
      <trkpt lat="43.30501" lon="-1.49873">
        <ele>121</ele>
        <time>2021-06-21T08:56:37.522Z</time>
      </trkpt>
      <trkpt lat="43.30501" lon="-1.49873">
        <ele>121</ele>
        <time>2021-06-21T08:56:38.527Z</time>
      </trkpt>
      <trkpt lat="43.30504" lon="-1.4988">
        <ele>121</ele>
        <time>2021-06-21T08:56:39.514Z</time>
      </trkpt>
      <trkpt lat="43.30504" lon="-1.4988">
        <ele>121</ele>
        <time>2021-06-21T08:56:40.520Z</time>
      </trkpt>
      <trkpt lat="43.30508" lon="-1.49886">
        <ele>121</ele>
        <time>2021-06-21T08:56:41.512Z</time>
      </trkpt>
      <trkpt lat="43.30508" lon="-1.49886">
        <ele>121</ele>
        <time>2021-06-21T08:56:42.518Z</time>
      </trkpt>
      <trkpt lat="43.30513" lon="-1.49892">
        <ele>122</ele>
        <time>2021-06-21T08:56:43.521Z</time>
      </trkpt>
      <trkpt lat="43.30513" lon="-1.49892">
        <ele>122</ele>
        <time>2021-06-21T08:56:44.528Z</time>
      </trkpt>
      <trkpt lat="43.30519" lon="-1.49896">
        <ele>122</ele>
        <time>2021-06-21T08:56:45.512Z</time>
      </trkpt>
      <trkpt lat="43.30519" lon="-1.49896">
        <ele>122</ele>
        <time>2021-06-21T08:56:46.519Z</time>
      </trkpt>
      <trkpt lat="43.30524" lon="-1.49899">
        <ele>121</ele>
        <time>2021-06-21T08:56:47.542Z</time>
      </trkpt>
      <trkpt lat="43.30527" lon="-1.49899">
        <ele>121</ele>
        <time>2021-06-21T08:56:48.532Z</time>
      </trkpt>
      <trkpt lat="43.3053" lon="-1.49898">
        <ele>122</ele>
        <time>2021-06-21T08:56:49.515Z</time>
      </trkpt>
      <trkpt lat="43.3053" lon="-1.49898">
        <ele>122</ele>
        <time>2021-06-21T08:56:50.521Z</time>
      </trkpt>
      <trkpt lat="43.30535" lon="-1.49897">
        <ele>122</ele>
        <time>2021-06-21T08:56:51.522Z</time>
      </trkpt>
      <trkpt lat="43.30538" lon="-1.49897">
        <ele>122</ele>
        <time>2021-06-21T08:56:52.530Z</time>
      </trkpt>
      <trkpt lat="43.30538" lon="-1.49897">
        <ele>122</ele>
        <time>2021-06-21T08:56:53.536Z</time>
      </trkpt>
      <trkpt lat="43.30543" lon="-1.49896">
        <ele>122</ele>
        <time>2021-06-21T08:56:54.529Z</time>
      </trkpt>
      <trkpt lat="43.30543" lon="-1.49896">
        <ele>122</ele>
        <time>2021-06-21T08:56:55.534Z</time>
      </trkpt>
      <trkpt lat="43.30548" lon="-1.49895">
        <ele>122</ele>
        <time>2021-06-21T08:56:56.531Z</time>
      </trkpt>
      <trkpt lat="43.30551" lon="-1.49894">
        <ele>122</ele>
        <time>2021-06-21T08:56:57.513Z</time>
      </trkpt>
      <trkpt lat="43.30551" lon="-1.49894">
        <ele>122</ele>
        <time>2021-06-21T08:56:58.519Z</time>
      </trkpt>
      <trkpt lat="43.30556" lon="-1.49894">
        <ele>123</ele>
        <time>2021-06-21T08:56:59.532Z</time>
      </trkpt>
      <trkpt lat="43.30556" lon="-1.49894">
        <ele>123</ele>
        <time>2021-06-21T08:57:00.538Z</time>
      </trkpt>
      <trkpt lat="43.30562" lon="-1.49892">
        <ele>124</ele>
        <time>2021-06-21T08:57:01.522Z</time>
      </trkpt>
      <trkpt lat="43.30562" lon="-1.49892">
        <ele>124</ele>
        <time>2021-06-21T08:57:02.530Z</time>
      </trkpt>
      <trkpt lat="43.30567" lon="-1.4989">
        <ele>124</ele>
        <time>2021-06-21T08:57:03.525Z</time>
      </trkpt>
      <trkpt lat="43.3057" lon="-1.4989">
        <ele>125</ele>
        <time>2021-06-21T08:57:04.529Z</time>
      </trkpt>
      <trkpt lat="43.3057" lon="-1.4989">
        <ele>125</ele>
        <time>2021-06-21T08:57:05.536Z</time>
      </trkpt>
      <trkpt lat="43.30575" lon="-1.49889">
        <ele>127</ele>
        <time>2021-06-21T08:57:06.542Z</time>
      </trkpt>
      <trkpt lat="43.30578" lon="-1.49888">
        <ele>128</ele>
        <time>2021-06-21T08:57:07.527Z</time>
      </trkpt>
      <trkpt lat="43.30578" lon="-1.49888">
        <ele>128</ele>
        <time>2021-06-21T08:57:08.533Z</time>
      </trkpt>
      <trkpt lat="43.30584" lon="-1.49887">
        <ele>129</ele>
        <time>2021-06-21T08:57:09.510Z</time>
      </trkpt>
      <trkpt lat="43.30584" lon="-1.49887">
        <ele>129</ele>
        <time>2021-06-21T08:57:10.517Z</time>
      </trkpt>
      <trkpt lat="43.3059" lon="-1.49886">
        <ele>129</ele>
        <time>2021-06-21T08:57:11.514Z</time>
      </trkpt>
      <trkpt lat="43.3059" lon="-1.49886">
        <ele>129</ele>
        <time>2021-06-21T08:57:12.521Z</time>
      </trkpt>
      <trkpt lat="43.30596" lon="-1.49884">
        <ele>130</ele>
        <time>2021-06-21T08:57:13.523Z</time>
      </trkpt>
      <trkpt lat="43.30596" lon="-1.49884">
        <ele>130</ele>
        <time>2021-06-21T08:57:14.530Z</time>
      </trkpt>
      <trkpt lat="43.30603" lon="-1.49882">
        <ele>131</ele>
        <time>2021-06-21T08:57:15.512Z</time>
      </trkpt>
      <trkpt lat="43.30603" lon="-1.49882">
        <ele>131</ele>
        <time>2021-06-21T08:57:16.518Z</time>
      </trkpt>
      <trkpt lat="43.30609" lon="-1.49879">
        <ele>132</ele>
        <time>2021-06-21T08:57:17.548Z</time>
      </trkpt>
      <trkpt lat="43.30609" lon="-1.49879">
        <ele>132</ele>
        <time>2021-06-21T08:57:18.513Z</time>
      </trkpt>
      <trkpt lat="43.30615" lon="-1.49876">
        <ele>133</ele>
        <time>2021-06-21T08:57:19.546Z</time>
      </trkpt>
      <trkpt lat="43.30615" lon="-1.49876">
        <ele>133</ele>
        <time>2021-06-21T08:57:20.511Z</time>
      </trkpt>
      <trkpt lat="43.30622" lon="-1.49874">
        <ele>134</ele>
        <time>2021-06-21T08:57:21.548Z</time>
      </trkpt>
      <trkpt lat="43.30622" lon="-1.49874">
        <ele>134</ele>
        <time>2021-06-21T08:57:22.538Z</time>
      </trkpt>
      <trkpt lat="43.3063" lon="-1.49872">
        <ele>134</ele>
        <time>2021-06-21T08:57:23.524Z</time>
      </trkpt>
      <trkpt lat="43.3063" lon="-1.49872">
        <ele>134</ele>
        <time>2021-06-21T08:57:24.531Z</time>
      </trkpt>
      <trkpt lat="43.30637" lon="-1.4987">
        <ele>135</ele>
        <time>2021-06-21T08:57:25.528Z</time>
      </trkpt>
      <trkpt lat="43.30637" lon="-1.4987">
        <ele>135</ele>
        <time>2021-06-21T08:57:26.534Z</time>
      </trkpt>
      <trkpt lat="43.30643" lon="-1.4987">
        <ele>135</ele>
        <time>2021-06-21T08:57:27.519Z</time>
      </trkpt>
      <trkpt lat="43.30643" lon="-1.4987">
        <ele>135</ele>
        <time>2021-06-21T08:57:28.528Z</time>
      </trkpt>
      <trkpt lat="43.30647" lon="-1.49869">
        <ele>136</ele>
        <time>2021-06-21T08:57:29.515Z</time>
      </trkpt>
      <trkpt lat="43.30649" lon="-1.49869">
        <ele>137</ele>
        <time>2021-06-21T08:57:30.517Z</time>
      </trkpt>
      <trkpt lat="43.30651" lon="-1.49869">
        <ele>137</ele>
        <time>2021-06-21T08:57:31.519Z</time>
      </trkpt>
      <trkpt lat="43.30651" lon="-1.49869">
        <ele>137</ele>
        <time>2021-06-21T08:57:32.524Z</time>
      </trkpt>
      <trkpt lat="43.30656" lon="-1.49868">
        <ele>137</ele>
        <time>2021-06-21T08:57:33.527Z</time>
      </trkpt>
      <trkpt lat="43.30656" lon="-1.49868">
        <ele>137</ele>
        <time>2021-06-21T08:57:34.533Z</time>
      </trkpt>
      <trkpt lat="43.30662" lon="-1.49868">
        <ele>138</ele>
        <time>2021-06-21T08:57:35.533Z</time>
      </trkpt>
      <trkpt lat="43.30662" lon="-1.49868">
        <ele>138</ele>
        <time>2021-06-21T08:57:36.539Z</time>
      </trkpt>
      <trkpt lat="43.30668" lon="-1.4987">
        <ele>138</ele>
        <time>2021-06-21T08:57:37.538Z</time>
      </trkpt>
      <trkpt lat="43.30668" lon="-1.4987">
        <ele>138</ele>
        <time>2021-06-21T08:57:38.545Z</time>
      </trkpt>
      <trkpt lat="43.30674" lon="-1.4987">
        <ele>137</ele>
        <time>2021-06-21T08:57:39.512Z</time>
      </trkpt>
      <trkpt lat="43.30674" lon="-1.4987">
        <ele>137</ele>
        <time>2021-06-21T08:57:40.520Z</time>
      </trkpt>
      <trkpt lat="43.30679" lon="-1.49873">
        <ele>133</ele>
        <time>2021-06-21T08:57:41.512Z</time>
      </trkpt>
      <trkpt lat="43.30682" lon="-1.49875">
        <ele>134</ele>
        <time>2021-06-21T08:57:42.548Z</time>
      </trkpt>
      <trkpt lat="43.30685" lon="-1.49878">
        <ele>134</ele>
        <time>2021-06-21T08:57:43.538Z</time>
      </trkpt>
      <trkpt lat="43.30685" lon="-1.49878">
        <ele>134</ele>
        <time>2021-06-21T08:57:44.548Z</time>
      </trkpt>
      <trkpt lat="43.30693" lon="-1.49881">
        <ele>133</ele>
        <time>2021-06-21T08:57:45.540Z</time>
      </trkpt>
      <trkpt lat="43.30693" lon="-1.49881">
        <ele>133</ele>
        <time>2021-06-21T08:57:46.547Z</time>
      </trkpt>
      <trkpt lat="43.30701" lon="-1.49886">
        <ele>131</ele>
        <time>2021-06-21T08:57:47.544Z</time>
      </trkpt>
      <trkpt lat="43.30706" lon="-1.49888">
        <ele>130</ele>
        <time>2021-06-21T08:57:48.527Z</time>
      </trkpt>
      <trkpt lat="43.30706" lon="-1.49888">
        <ele>130</ele>
        <time>2021-06-21T08:57:49.534Z</time>
      </trkpt>
      <trkpt lat="43.30715" lon="-1.49892">
        <ele>128</ele>
        <time>2021-06-21T08:57:50.540Z</time>
      </trkpt>
      <trkpt lat="43.30715" lon="-1.49892">
        <ele>128</ele>
        <time>2021-06-21T08:57:51.509Z</time>
      </trkpt>
      <trkpt lat="43.30724" lon="-1.49896">
        <ele>127</ele>
        <time>2021-06-21T08:57:52.542Z</time>
      </trkpt>
      <trkpt lat="43.30729" lon="-1.49897">
        <ele>127</ele>
        <time>2021-06-21T08:57:53.517Z</time>
      </trkpt>
      <trkpt lat="43.30735" lon="-1.49899">
        <ele>126</ele>
        <time>2021-06-21T08:57:54.523Z</time>
      </trkpt>
      <trkpt lat="43.30741" lon="-1.499">
        <ele>126</ele>
        <time>2021-06-21T08:57:55.520Z</time>
      </trkpt>
      <trkpt lat="43.30741" lon="-1.499">
        <ele>126</ele>
        <time>2021-06-21T08:57:56.527Z</time>
      </trkpt>
      <trkpt lat="43.30755" lon="-1.49902">
        <ele>126</ele>
        <time>2021-06-21T08:57:57.520Z</time>
      </trkpt>
      <trkpt lat="43.30755" lon="-1.49902">
        <ele>126</ele>
        <time>2021-06-21T08:57:58.526Z</time>
      </trkpt>
      <trkpt lat="43.30767" lon="-1.49903">
        <ele>126</ele>
        <time>2021-06-21T08:57:59.532Z</time>
      </trkpt>
      <trkpt lat="43.30773" lon="-1.49902">
        <ele>126</ele>
        <time>2021-06-21T08:58:00.522Z</time>
      </trkpt>
      <trkpt lat="43.30773" lon="-1.49902">
        <ele>126</ele>
        <time>2021-06-21T08:58:01.528Z</time>
      </trkpt>
      <trkpt lat="43.30784" lon="-1.49902">
        <ele>126</ele>
        <time>2021-06-21T08:58:02.517Z</time>
      </trkpt>
      <trkpt lat="43.30784" lon="-1.49902">
        <ele>126</ele>
        <time>2021-06-21T08:58:03.523Z</time>
      </trkpt>
      <trkpt lat="43.30795" lon="-1.49903">
        <ele>126</ele>
        <time>2021-06-21T08:58:04.529Z</time>
      </trkpt>
      <trkpt lat="43.30795" lon="-1.49903">
        <ele>126</ele>
        <time>2021-06-21T08:58:05.536Z</time>
      </trkpt>
      <trkpt lat="43.30806" lon="-1.49902">
        <ele>125</ele>
        <time>2021-06-21T08:58:06.532Z</time>
      </trkpt>
      <trkpt lat="43.30812" lon="-1.49902">
        <ele>126</ele>
        <time>2021-06-21T08:58:07.517Z</time>
      </trkpt>
      <trkpt lat="43.30812" lon="-1.49902">
        <ele>126</ele>
        <time>2021-06-21T08:58:08.524Z</time>
      </trkpt>
      <trkpt lat="43.30825" lon="-1.499">
        <ele>125</ele>
        <time>2021-06-21T08:58:09.519Z</time>
      </trkpt>
      <trkpt lat="43.30825" lon="-1.499">
        <ele>125</ele>
        <time>2021-06-21T08:58:10.525Z</time>
      </trkpt>
      <trkpt lat="43.30838" lon="-1.49898">
        <ele>124</ele>
        <time>2021-06-21T08:58:11.538Z</time>
      </trkpt>
      <trkpt lat="43.30844" lon="-1.49899">
        <ele>124</ele>
        <time>2021-06-21T08:58:12.529Z</time>
      </trkpt>
      <trkpt lat="43.30844" lon="-1.49899">
        <ele>124</ele>
        <time>2021-06-21T08:58:13.535Z</time>
      </trkpt>
      <trkpt lat="43.30856" lon="-1.499">
        <ele>124</ele>
        <time>2021-06-21T08:58:14.547Z</time>
      </trkpt>
      <trkpt lat="43.30862" lon="-1.499">
        <ele>125</ele>
        <time>2021-06-21T08:58:15.512Z</time>
      </trkpt>
      <trkpt lat="43.30862" lon="-1.499">
        <ele>125</ele>
        <time>2021-06-21T08:58:16.518Z</time>
      </trkpt>
      <trkpt lat="43.30874" lon="-1.499">
        <ele>124</ele>
        <time>2021-06-21T08:58:17.539Z</time>
      </trkpt>
      <trkpt lat="43.30874" lon="-1.499">
        <ele>124</ele>
        <time>2021-06-21T08:58:18.545Z</time>
      </trkpt>
      <trkpt lat="43.30886" lon="-1.49897">
        <ele>125</ele>
        <time>2021-06-21T08:58:19.536Z</time>
      </trkpt>
      <trkpt lat="43.30886" lon="-1.49897">
        <ele>125</ele>
        <time>2021-06-21T08:58:20.542Z</time>
      </trkpt>
      <trkpt lat="43.30896" lon="-1.49895">
        <ele>125</ele>
        <time>2021-06-21T08:58:21.542Z</time>
      </trkpt>
      <trkpt lat="43.309" lon="-1.49895">
        <ele>125</ele>
        <time>2021-06-21T08:58:22.516Z</time>
      </trkpt>
      <trkpt lat="43.309" lon="-1.49895">
        <ele>125</ele>
        <time>2021-06-21T08:58:23.530Z</time>
      </trkpt>
      <trkpt lat="43.30909" lon="-1.49897">
        <ele>125</ele>
        <time>2021-06-21T08:58:24.526Z</time>
      </trkpt>
      <trkpt lat="43.30914" lon="-1.49897">
        <ele>126</ele>
        <time>2021-06-21T08:58:25.512Z</time>
      </trkpt>
      <trkpt lat="43.30914" lon="-1.49897">
        <ele>126</ele>
        <time>2021-06-21T08:58:26.517Z</time>
      </trkpt>
      <trkpt lat="43.30922" lon="-1.49897">
        <ele>125</ele>
        <time>2021-06-21T08:58:27.520Z</time>
      </trkpt>
      <trkpt lat="43.30922" lon="-1.49897">
        <ele>125</ele>
        <time>2021-06-21T08:58:28.526Z</time>
      </trkpt>
      <trkpt lat="43.3093" lon="-1.49896">
        <ele>124</ele>
        <time>2021-06-21T08:58:29.511Z</time>
      </trkpt>
      <trkpt lat="43.3093" lon="-1.49896">
        <ele>124</ele>
        <time>2021-06-21T08:58:30.517Z</time>
      </trkpt>
      <trkpt lat="43.30937" lon="-1.49896">
        <ele>123</ele>
        <time>2021-06-21T08:58:31.546Z</time>
      </trkpt>
      <trkpt lat="43.30937" lon="-1.49896">
        <ele>123</ele>
        <time>2021-06-21T08:58:32.511Z</time>
      </trkpt>
      <trkpt lat="43.30945" lon="-1.49896">
        <ele>122</ele>
        <time>2021-06-21T08:58:33.542Z</time>
      </trkpt>
      <trkpt lat="43.30949" lon="-1.49896">
        <ele>122</ele>
        <time>2021-06-21T08:58:34.527Z</time>
      </trkpt>
      <trkpt lat="43.30949" lon="-1.49896">
        <ele>122</ele>
        <time>2021-06-21T08:58:35.533Z</time>
      </trkpt>
      <trkpt lat="43.30957" lon="-1.49894">
        <ele>123</ele>
        <time>2021-06-21T08:58:36.546Z</time>
      </trkpt>
      <trkpt lat="43.30957" lon="-1.49894">
        <ele>123</ele>
        <time>2021-06-21T08:58:37.511Z</time>
      </trkpt>
      <trkpt lat="43.30966" lon="-1.49893">
        <ele>124</ele>
        <time>2021-06-21T08:58:38.518Z</time>
      </trkpt>
      <trkpt lat="43.30966" lon="-1.49893">
        <ele>124</ele>
        <time>2021-06-21T08:58:39.528Z</time>
      </trkpt>
      <trkpt lat="43.30974" lon="-1.49891">
        <ele>126</ele>
        <time>2021-06-21T08:58:40.546Z</time>
      </trkpt>
      <trkpt lat="43.30974" lon="-1.49891">
        <ele>126</ele>
        <time>2021-06-21T08:58:41.512Z</time>
      </trkpt>
      <trkpt lat="43.30981" lon="-1.4989">
        <ele>128</ele>
        <time>2021-06-21T08:58:42.545Z</time>
      </trkpt>
      <trkpt lat="43.30985" lon="-1.4989">
        <ele>128</ele>
        <time>2021-06-21T08:58:43.542Z</time>
      </trkpt>
      <trkpt lat="43.30985" lon="-1.4989">
        <ele>128</ele>
        <time>2021-06-21T08:58:44.548Z</time>
      </trkpt>
      <trkpt lat="43.30991" lon="-1.49891">
        <ele>126</ele>
        <time>2021-06-21T08:58:45.532Z</time>
      </trkpt>
      <trkpt lat="43.30991" lon="-1.49891">
        <ele>126</ele>
        <time>2021-06-21T08:58:46.538Z</time>
      </trkpt>
      <trkpt lat="43.30997" lon="-1.49891">
        <ele>125</ele>
        <time>2021-06-21T08:58:47.524Z</time>
      </trkpt>
      <trkpt lat="43.30997" lon="-1.49891">
        <ele>125</ele>
        <time>2021-06-21T08:58:48.531Z</time>
      </trkpt>
      <trkpt lat="43.31003" lon="-1.49895">
        <ele>126</ele>
        <time>2021-06-21T08:58:49.523Z</time>
      </trkpt>
      <trkpt lat="43.31003" lon="-1.49895">
        <ele>126</ele>
        <time>2021-06-21T08:58:50.529Z</time>
      </trkpt>
      <trkpt lat="43.31007" lon="-1.49899">
        <ele>126</ele>
        <time>2021-06-21T08:58:51.527Z</time>
      </trkpt>
      <trkpt lat="43.31007" lon="-1.49902">
        <ele>126</ele>
        <time>2021-06-21T08:58:52.516Z</time>
      </trkpt>
      <trkpt lat="43.31007" lon="-1.49902">
        <ele>126</ele>
        <time>2021-06-21T08:58:53.522Z</time>
      </trkpt>
      <trkpt lat="43.31008" lon="-1.49906">
        <ele>126</ele>
        <time>2021-06-21T08:58:54.532Z</time>
      </trkpt>
      <trkpt lat="43.31008" lon="-1.49908">
        <ele>126</ele>
        <time>2021-06-21T08:58:55.532Z</time>
      </trkpt>
      <trkpt lat="43.31008" lon="-1.49908">
        <ele>126</ele>
        <time>2021-06-21T08:58:56.539Z</time>
      </trkpt>
      <trkpt lat="43.31009" lon="-1.49913">
        <ele>126</ele>
        <time>2021-06-21T08:58:57.525Z</time>
      </trkpt>
      <trkpt lat="43.31009" lon="-1.49913">
        <ele>126</ele>
        <time>2021-06-21T08:58:58.533Z</time>
      </trkpt>
      <trkpt lat="43.31012" lon="-1.4992">
        <ele>126</ele>
        <time>2021-06-21T08:58:59.525Z</time>
      </trkpt>
      <trkpt lat="43.31012" lon="-1.4992">
        <ele>126</ele>
        <time>2021-06-21T08:59:00.531Z</time>
      </trkpt>
      <trkpt lat="43.31016" lon="-1.49929">
        <ele>125</ele>
        <time>2021-06-21T08:59:01.523Z</time>
      </trkpt>
      <trkpt lat="43.31016" lon="-1.49929">
        <ele>125</ele>
        <time>2021-06-21T08:59:02.529Z</time>
      </trkpt>
      <trkpt lat="43.31022" lon="-1.49943">
        <ele>124</ele>
        <time>2021-06-21T08:59:03.548Z</time>
      </trkpt>
      <trkpt lat="43.31022" lon="-1.49943">
        <ele>124</ele>
        <time>2021-06-21T08:59:04.513Z</time>
      </trkpt>
      <trkpt lat="43.31028" lon="-1.49961">
        <ele>123</ele>
        <time>2021-06-21T08:59:05.522Z</time>
      </trkpt>
      <trkpt lat="43.31031" lon="-1.49971">
        <ele>123</ele>
        <time>2021-06-21T08:59:06.522Z</time>
      </trkpt>
      <trkpt lat="43.31034" lon="-1.4998">
        <ele>122</ele>
        <time>2021-06-21T08:59:07.517Z</time>
      </trkpt>
      <trkpt lat="43.31034" lon="-1.4998">
        <ele>122</ele>
        <time>2021-06-21T08:59:08.523Z</time>
      </trkpt>
      <trkpt lat="43.31041" lon="-1.49997">
        <ele>120</ele>
        <time>2021-06-21T08:59:09.522Z</time>
      </trkpt>
      <trkpt lat="43.31041" lon="-1.49997">
        <ele>120</ele>
        <time>2021-06-21T08:59:10.527Z</time>
      </trkpt>
      <trkpt lat="43.31047" lon="-1.50014">
        <ele>118</ele>
        <time>2021-06-21T08:59:11.521Z</time>
      </trkpt>
      <trkpt lat="43.31047" lon="-1.50014">
        <ele>118</ele>
        <time>2021-06-21T08:59:12.526Z</time>
      </trkpt>
      <trkpt lat="43.31054" lon="-1.50028">
        <ele>117</ele>
        <time>2021-06-21T08:59:13.543Z</time>
      </trkpt>
      <trkpt lat="43.31054" lon="-1.50028">
        <ele>117</ele>
        <time>2021-06-21T08:59:14.511Z</time>
      </trkpt>
      <trkpt lat="43.31062" lon="-1.5004">
        <ele>115</ele>
        <time>2021-06-21T08:59:15.535Z</time>
      </trkpt>
      <trkpt lat="43.31067" lon="-1.50045">
        <ele>114</ele>
        <time>2021-06-21T08:59:16.529Z</time>
      </trkpt>
      <trkpt lat="43.31067" lon="-1.50045">
        <ele>114</ele>
        <time>2021-06-21T08:59:17.535Z</time>
      </trkpt>
      <trkpt lat="43.31078" lon="-1.5005">
        <ele>113</ele>
        <time>2021-06-21T08:59:18.522Z</time>
      </trkpt>
      <trkpt lat="43.31078" lon="-1.5005">
        <ele>113</ele>
        <time>2021-06-21T08:59:19.529Z</time>
      </trkpt>
      <trkpt lat="43.31088" lon="-1.50052">
        <ele>113</ele>
        <time>2021-06-21T08:59:20.516Z</time>
      </trkpt>
      <trkpt lat="43.31088" lon="-1.50052">
        <ele>113</ele>
        <time>2021-06-21T08:59:21.522Z</time>
      </trkpt>
      <trkpt lat="43.31099" lon="-1.5005">
        <ele>112</ele>
        <time>2021-06-21T08:59:22.530Z</time>
      </trkpt>
      <trkpt lat="43.31099" lon="-1.5005">
        <ele>112</ele>
        <time>2021-06-21T08:59:23.527Z</time>
      </trkpt>
      <trkpt lat="43.31108" lon="-1.50049">
        <ele>111</ele>
        <time>2021-06-21T08:59:24.517Z</time>
      </trkpt>
      <trkpt lat="43.31112" lon="-1.50047">
        <ele>111</ele>
        <time>2021-06-21T08:59:25.540Z</time>
      </trkpt>
      <trkpt lat="43.31112" lon="-1.50047">
        <ele>111</ele>
        <time>2021-06-21T08:59:26.547Z</time>
      </trkpt>
      <trkpt lat="43.31119" lon="-1.50044">
        <ele>110</ele>
        <time>2021-06-21T08:59:27.540Z</time>
      </trkpt>
      <trkpt lat="43.31119" lon="-1.50044">
        <ele>110</ele>
        <time>2021-06-21T08:59:28.546Z</time>
      </trkpt>
      <trkpt lat="43.31125" lon="-1.5004">
        <ele>109</ele>
        <time>2021-06-21T08:59:29.521Z</time>
      </trkpt>
      <trkpt lat="43.31125" lon="-1.5004">
        <ele>109</ele>
        <time>2021-06-21T08:59:30.527Z</time>
      </trkpt>
      <trkpt lat="43.31131" lon="-1.50039">
        <ele>108</ele>
        <time>2021-06-21T08:59:31.522Z</time>
      </trkpt>
      <trkpt lat="43.31135" lon="-1.50041">
        <ele>107</ele>
        <time>2021-06-21T08:59:32.510Z</time>
      </trkpt>
      <trkpt lat="43.31135" lon="-1.50041">
        <ele>107</ele>
        <time>2021-06-21T08:59:33.518Z</time>
      </trkpt>
      <trkpt lat="43.31142" lon="-1.50049">
        <ele>106</ele>
        <time>2021-06-21T08:59:34.547Z</time>
      </trkpt>
      <trkpt lat="43.31142" lon="-1.50049">
        <ele>106</ele>
        <time>2021-06-21T08:59:35.512Z</time>
      </trkpt>
      <trkpt lat="43.31147" lon="-1.50059">
        <ele>105</ele>
        <time>2021-06-21T08:59:36.536Z</time>
      </trkpt>
      <trkpt lat="43.31147" lon="-1.50059">
        <ele>105</ele>
        <time>2021-06-21T08:59:37.541Z</time>
      </trkpt>
      <trkpt lat="43.31152" lon="-1.5007">
        <ele>104</ele>
        <time>2021-06-21T08:59:38.544Z</time>
      </trkpt>
      <trkpt lat="43.31152" lon="-1.5007">
        <ele>104</ele>
        <time>2021-06-21T08:59:39.509Z</time>
      </trkpt>
      <trkpt lat="43.31158" lon="-1.50081">
        <ele>102</ele>
        <time>2021-06-21T08:59:40.540Z</time>
      </trkpt>
      <trkpt lat="43.31158" lon="-1.50081">
        <ele>102</ele>
        <time>2021-06-21T08:59:41.546Z</time>
      </trkpt>
      <trkpt lat="43.31166" lon="-1.50093">
        <ele>101</ele>
        <time>2021-06-21T08:59:42.532Z</time>
      </trkpt>
      <trkpt lat="43.3117" lon="-1.50099">
        <ele>101</ele>
        <time>2021-06-21T08:59:43.515Z</time>
      </trkpt>
      <trkpt lat="43.3117" lon="-1.50099">
        <ele>101</ele>
        <time>2021-06-21T08:59:44.521Z</time>
      </trkpt>
      <trkpt lat="43.31179" lon="-1.50111">
        <ele>100</ele>
        <time>2021-06-21T08:59:45.511Z</time>
      </trkpt>
      <trkpt lat="43.31179" lon="-1.50111">
        <ele>100</ele>
        <time>2021-06-21T08:59:46.517Z</time>
      </trkpt>
      <trkpt lat="43.31189" lon="-1.50126">
        <ele>99</ele>
        <time>2021-06-21T08:59:47.546Z</time>
      </trkpt>
      <trkpt lat="43.31193" lon="-1.50134">
        <ele>99</ele>
        <time>2021-06-21T08:59:48.545Z</time>
      </trkpt>
      <trkpt lat="43.31197" lon="-1.50142">
        <ele>98</ele>
        <time>2021-06-21T08:59:49.537Z</time>
      </trkpt>
      <trkpt lat="43.31197" lon="-1.50142">
        <ele>98</ele>
        <time>2021-06-21T08:59:50.542Z</time>
      </trkpt>
      <trkpt lat="43.31206" lon="-1.50157">
        <ele>97</ele>
        <time>2021-06-21T08:59:51.532Z</time>
      </trkpt>
      <trkpt lat="43.3121" lon="-1.50165">
        <ele>96</ele>
        <time>2021-06-21T08:59:52.531Z</time>
      </trkpt>
      <trkpt lat="43.3121" lon="-1.50165">
        <ele>96</ele>
        <time>2021-06-21T08:59:53.536Z</time>
      </trkpt>
      <trkpt lat="43.31221" lon="-1.50178">
        <ele>95</ele>
        <time>2021-06-21T08:59:54.531Z</time>
      </trkpt>
      <trkpt lat="43.31221" lon="-1.50178">
        <ele>95</ele>
        <time>2021-06-21T08:59:55.537Z</time>
      </trkpt>
      <trkpt lat="43.31232" lon="-1.50189">
        <ele>94</ele>
        <time>2021-06-21T08:59:56.511Z</time>
      </trkpt>
      <trkpt lat="43.31232" lon="-1.50189">
        <ele>94</ele>
        <time>2021-06-21T08:59:57.516Z</time>
      </trkpt>
      <trkpt lat="43.31243" lon="-1.50201">
        <ele>93</ele>
        <time>2021-06-21T08:59:58.548Z</time>
      </trkpt>
      <trkpt lat="43.31249" lon="-1.50209">
        <ele>92</ele>
        <time>2021-06-21T08:59:59.547Z</time>
      </trkpt>
      <trkpt lat="43.31249" lon="-1.50209">
        <ele>92</ele>
        <time>2021-06-21T09:00:00.514Z</time>
      </trkpt>
      <trkpt lat="43.31262" lon="-1.50226">
        <ele>89</ele>
        <time>2021-06-21T09:00:01.543Z</time>
      </trkpt>
      <trkpt lat="43.31262" lon="-1.50226">
        <ele>89</ele>
        <time>2021-06-21T09:00:02.549Z</time>
      </trkpt>
      <trkpt lat="43.31275" lon="-1.50243">
        <ele>87</ele>
        <time>2021-06-21T09:00:03.531Z</time>
      </trkpt>
      <trkpt lat="43.31282" lon="-1.50252">
        <ele>86</ele>
        <time>2021-06-21T09:00:04.531Z</time>
      </trkpt>
      <trkpt lat="43.31288" lon="-1.50261">
        <ele>85</ele>
        <time>2021-06-21T09:00:05.518Z</time>
      </trkpt>
      <trkpt lat="43.31288" lon="-1.50261">
        <ele>85</ele>
        <time>2021-06-21T09:00:06.524Z</time>
      </trkpt>
      <trkpt lat="43.31298" lon="-1.50279">
        <ele>84</ele>
        <time>2021-06-21T09:00:07.512Z</time>
      </trkpt>
      <trkpt lat="43.31298" lon="-1.50279">
        <ele>84</ele>
        <time>2021-06-21T09:00:08.517Z</time>
      </trkpt>
      <trkpt lat="43.31305" lon="-1.503">
        <ele>83</ele>
        <time>2021-06-21T09:00:09.521Z</time>
      </trkpt>
      <trkpt lat="43.31308" lon="-1.50311">
        <ele>82</ele>
        <time>2021-06-21T09:00:10.546Z</time>
      </trkpt>
      <trkpt lat="43.31308" lon="-1.50311">
        <ele>82</ele>
        <time>2021-06-21T09:00:11.512Z</time>
      </trkpt>
      <trkpt lat="43.31311" lon="-1.50336">
        <ele>80</ele>
        <time>2021-06-21T09:00:12.539Z</time>
      </trkpt>
      <trkpt lat="43.31312" lon="-1.5035">
        <ele>79</ele>
        <time>2021-06-21T09:00:13.525Z</time>
      </trkpt>
      <trkpt lat="43.31312" lon="-1.5035">
        <ele>79</ele>
        <time>2021-06-21T09:00:14.532Z</time>
      </trkpt>
      <trkpt lat="43.31309" lon="-1.5038">
        <ele>78</ele>
        <time>2021-06-21T09:00:15.542Z</time>
      </trkpt>
      <trkpt lat="43.31308" lon="-1.50395">
        <ele>77</ele>
        <time>2021-06-21T09:00:16.528Z</time>
      </trkpt>
      <trkpt lat="43.31308" lon="-1.50395">
        <ele>77</ele>
        <time>2021-06-21T09:00:17.534Z</time>
      </trkpt>
      <trkpt lat="43.31306" lon="-1.50424">
        <ele>75</ele>
        <time>2021-06-21T09:00:18.539Z</time>
      </trkpt>
      <trkpt lat="43.31306" lon="-1.50424">
        <ele>75</ele>
        <time>2021-06-21T09:00:19.543Z</time>
      </trkpt>
      <trkpt lat="43.31308" lon="-1.50453">
        <ele>74</ele>
        <time>2021-06-21T09:00:20.531Z</time>
      </trkpt>
      <trkpt lat="43.31311" lon="-1.50466">
        <ele>73</ele>
        <time>2021-06-21T09:00:21.524Z</time>
      </trkpt>
      <trkpt lat="43.31314" lon="-1.5048">
        <ele>72</ele>
        <time>2021-06-21T09:00:22.512Z</time>
      </trkpt>
      <trkpt lat="43.31314" lon="-1.5048">
        <ele>72</ele>
        <time>2021-06-21T09:00:23.543Z</time>
      </trkpt>
      <trkpt lat="43.31321" lon="-1.50507">
        <ele>71</ele>
        <time>2021-06-21T09:00:24.543Z</time>
      </trkpt>
      <trkpt lat="43.31324" lon="-1.5052">
        <ele>70</ele>
        <time>2021-06-21T09:00:25.524Z</time>
      </trkpt>
      <trkpt lat="43.31324" lon="-1.5052">
        <ele>70</ele>
        <time>2021-06-21T09:00:26.531Z</time>
      </trkpt>
      <trkpt lat="43.31331" lon="-1.50545">
        <ele>69</ele>
        <time>2021-06-21T09:00:27.536Z</time>
      </trkpt>
      <trkpt lat="43.31331" lon="-1.50545">
        <ele>69</ele>
        <time>2021-06-21T09:00:28.542Z</time>
      </trkpt>
      <trkpt lat="43.31337" lon="-1.50568">
        <ele>68</ele>
        <time>2021-06-21T09:00:29.514Z</time>
      </trkpt>
      <trkpt lat="43.31337" lon="-1.50568">
        <ele>68</ele>
        <time>2021-06-21T09:00:30.518Z</time>
      </trkpt>
      <trkpt lat="43.31342" lon="-1.50591">
        <ele>67</ele>
        <time>2021-06-21T09:00:31.521Z</time>
      </trkpt>
      <trkpt lat="43.31342" lon="-1.50591">
        <ele>67</ele>
        <time>2021-06-21T09:00:32.527Z</time>
      </trkpt>
      <trkpt lat="43.31349" lon="-1.50613">
        <ele>66</ele>
        <time>2021-06-21T09:00:33.515Z</time>
      </trkpt>
      <trkpt lat="43.31349" lon="-1.50613">
        <ele>66</ele>
        <time>2021-06-21T09:00:34.521Z</time>
      </trkpt>
      <trkpt lat="43.31353" lon="-1.50632">
        <ele>66</ele>
        <time>2021-06-21T09:00:35.513Z</time>
      </trkpt>
      <trkpt lat="43.31353" lon="-1.50632">
        <ele>66</ele>
        <time>2021-06-21T09:00:36.520Z</time>
      </trkpt>
      <trkpt lat="43.31357" lon="-1.50651">
        <ele>65</ele>
        <time>2021-06-21T09:00:37.514Z</time>
      </trkpt>
      <trkpt lat="43.31357" lon="-1.50651">
        <ele>65</ele>
        <time>2021-06-21T09:00:38.520Z</time>
      </trkpt>
      <trkpt lat="43.31358" lon="-1.50672">
        <ele>64</ele>
        <time>2021-06-21T09:00:39.522Z</time>
      </trkpt>
      <trkpt lat="43.31357" lon="-1.50682">
        <ele>64</ele>
        <time>2021-06-21T09:00:40.522Z</time>
      </trkpt>
      <trkpt lat="43.31357" lon="-1.50682">
        <ele>64</ele>
        <time>2021-06-21T09:00:41.529Z</time>
      </trkpt>
      <trkpt lat="43.31352" lon="-1.50699">
        <ele>63</ele>
        <time>2021-06-21T09:00:42.521Z</time>
      </trkpt>
      <trkpt lat="43.31352" lon="-1.50699">
        <ele>63</ele>
        <time>2021-06-21T09:00:43.526Z</time>
      </trkpt>
      <trkpt lat="43.31348" lon="-1.50718">
        <ele>63</ele>
        <time>2021-06-21T09:00:44.516Z</time>
      </trkpt>
      <trkpt lat="43.31348" lon="-1.50718">
        <ele>63</ele>
        <time>2021-06-21T09:00:45.522Z</time>
      </trkpt>
      <trkpt lat="43.31343" lon="-1.50737">
        <ele>62</ele>
        <time>2021-06-21T09:00:46.519Z</time>
      </trkpt>
      <trkpt lat="43.31343" lon="-1.50737">
        <ele>62</ele>
        <time>2021-06-21T09:00:47.528Z</time>
      </trkpt>
      <trkpt lat="43.31338" lon="-1.50757">
        <ele>62</ele>
        <time>2021-06-21T09:00:48.545Z</time>
      </trkpt>
      <trkpt lat="43.31336" lon="-1.50767">
        <ele>61</ele>
        <time>2021-06-21T09:00:49.528Z</time>
      </trkpt>
      <trkpt lat="43.31336" lon="-1.50767">
        <ele>61</ele>
        <time>2021-06-21T09:00:50.534Z</time>
      </trkpt>
      <trkpt lat="43.31331" lon="-1.50786">
        <ele>61</ele>
        <time>2021-06-21T09:00:51.509Z</time>
      </trkpt>
      <trkpt lat="43.31331" lon="-1.50786">
        <ele>61</ele>
        <time>2021-06-21T09:00:52.515Z</time>
      </trkpt>
      <trkpt lat="43.31326" lon="-1.50804">
        <ele>61</ele>
        <time>2021-06-21T09:00:53.513Z</time>
      </trkpt>
      <trkpt lat="43.31326" lon="-1.50804">
        <ele>61</ele>
        <time>2021-06-21T09:00:54.518Z</time>
      </trkpt>
      <trkpt lat="43.31322" lon="-1.50822">
        <ele>61</ele>
        <time>2021-06-21T09:00:55.522Z</time>
      </trkpt>
      <trkpt lat="43.31322" lon="-1.50822">
        <ele>61</ele>
        <time>2021-06-21T09:00:56.527Z</time>
      </trkpt>
      <trkpt lat="43.31317" lon="-1.5084">
        <ele>61</ele>
        <time>2021-06-21T09:00:57.513Z</time>
      </trkpt>
      <trkpt lat="43.31317" lon="-1.5084">
        <ele>61</ele>
        <time>2021-06-21T09:00:58.518Z</time>
      </trkpt>
      <trkpt lat="43.31313" lon="-1.50858">
        <ele>61</ele>
        <time>2021-06-21T09:00:59.511Z</time>
      </trkpt>
      <trkpt lat="43.3131" lon="-1.50867">
        <ele>61</ele>
        <time>2021-06-21T09:01:00.544Z</time>
      </trkpt>
      <trkpt lat="43.31308" lon="-1.50877">
        <ele>62</ele>
        <time>2021-06-21T09:01:01.548Z</time>
      </trkpt>
      <trkpt lat="43.31308" lon="-1.50877">
        <ele>62</ele>
        <time>2021-06-21T09:01:02.514Z</time>
      </trkpt>
      <trkpt lat="43.31304" lon="-1.50895">
        <ele>62</ele>
        <time>2021-06-21T09:01:03.545Z</time>
      </trkpt>
      <trkpt lat="43.31304" lon="-1.50895">
        <ele>62</ele>
        <time>2021-06-21T09:01:04.510Z</time>
      </trkpt>
      <trkpt lat="43.31299" lon="-1.50912">
        <ele>62</ele>
        <time>2021-06-21T09:01:05.532Z</time>
      </trkpt>
      <trkpt lat="43.31297" lon="-1.5092">
        <ele>62</ele>
        <time>2021-06-21T09:01:06.520Z</time>
      </trkpt>
      <trkpt lat="43.31293" lon="-1.50928">
        <ele>62</ele>
        <time>2021-06-21T09:01:07.548Z</time>
      </trkpt>
      <trkpt lat="43.31293" lon="-1.50928">
        <ele>62</ele>
        <time>2021-06-21T09:01:08.513Z</time>
      </trkpt>
      <trkpt lat="43.31286" lon="-1.50942">
        <ele>63</ele>
        <time>2021-06-21T09:01:09.545Z</time>
      </trkpt>
      <trkpt lat="43.31286" lon="-1.50942">
        <ele>63</ele>
        <time>2021-06-21T09:01:10.510Z</time>
      </trkpt>
      <trkpt lat="43.31276" lon="-1.50953">
        <ele>63</ele>
        <time>2021-06-21T09:01:11.509Z</time>
      </trkpt>
      <trkpt lat="43.31271" lon="-1.50958">
        <ele>63</ele>
        <time>2021-06-21T09:01:12.512Z</time>
      </trkpt>
      <trkpt lat="43.31271" lon="-1.50958">
        <ele>63</ele>
        <time>2021-06-21T09:01:13.517Z</time>
      </trkpt>
      <trkpt lat="43.31262" lon="-1.50969">
        <ele>63</ele>
        <time>2021-06-21T09:01:14.534Z</time>
      </trkpt>
      <trkpt lat="43.31258" lon="-1.50974">
        <ele>63</ele>
        <time>2021-06-21T09:01:15.536Z</time>
      </trkpt>
      <trkpt lat="43.31258" lon="-1.50974">
        <ele>63</ele>
        <time>2021-06-21T09:01:16.541Z</time>
      </trkpt>
      <trkpt lat="43.3125" lon="-1.50986">
        <ele>64</ele>
        <time>2021-06-21T09:01:17.542Z</time>
      </trkpt>
      <trkpt lat="43.31246" lon="-1.50992">
        <ele>64</ele>
        <time>2021-06-21T09:01:18.513Z</time>
      </trkpt>
      <trkpt lat="43.31243" lon="-1.50999">
        <ele>64</ele>
        <time>2021-06-21T09:01:19.512Z</time>
      </trkpt>
      <trkpt lat="43.31243" lon="-1.50999">
        <ele>64</ele>
        <time>2021-06-21T09:01:20.517Z</time>
      </trkpt>
      <trkpt lat="43.31237" lon="-1.51013">
        <ele>65</ele>
        <time>2021-06-21T09:01:21.543Z</time>
      </trkpt>
      <trkpt lat="43.31237" lon="-1.51013">
        <ele>65</ele>
        <time>2021-06-21T09:01:22.528Z</time>
      </trkpt>
      <trkpt lat="43.31232" lon="-1.51028">
        <ele>65</ele>
        <time>2021-06-21T09:01:23.509Z</time>
      </trkpt>
      <trkpt lat="43.31232" lon="-1.51028">
        <ele>65</ele>
        <time>2021-06-21T09:01:24.514Z</time>
      </trkpt>
      <trkpt lat="43.31226" lon="-1.51044">
        <ele>65</ele>
        <time>2021-06-21T09:01:25.513Z</time>
      </trkpt>
      <trkpt lat="43.31226" lon="-1.51044">
        <ele>65</ele>
        <time>2021-06-21T09:01:26.518Z</time>
      </trkpt>
      <trkpt lat="43.3122" lon="-1.51061">
        <ele>65</ele>
        <time>2021-06-21T09:01:27.512Z</time>
      </trkpt>
      <trkpt lat="43.3122" lon="-1.51061">
        <ele>65</ele>
        <time>2021-06-21T09:01:28.518Z</time>
      </trkpt>
      <trkpt lat="43.31214" lon="-1.51078">
        <ele>65</ele>
        <time>2021-06-21T09:01:29.543Z</time>
      </trkpt>
      <trkpt lat="43.31211" lon="-1.51087">
        <ele>65</ele>
        <time>2021-06-21T09:01:30.541Z</time>
      </trkpt>
      <trkpt lat="43.31209" lon="-1.51096">
        <ele>64</ele>
        <time>2021-06-21T09:01:31.533Z</time>
      </trkpt>
      <trkpt lat="43.31209" lon="-1.51096">
        <ele>64</ele>
        <time>2021-06-21T09:01:32.538Z</time>
      </trkpt>
      <trkpt lat="43.31203" lon="-1.51115">
        <ele>63</ele>
        <time>2021-06-21T09:01:33.524Z</time>
      </trkpt>
      <trkpt lat="43.31203" lon="-1.51115">
        <ele>63</ele>
        <time>2021-06-21T09:01:34.529Z</time>
      </trkpt>
      <trkpt lat="43.31198" lon="-1.51136">
        <ele>62</ele>
        <time>2021-06-21T09:01:35.532Z</time>
      </trkpt>
      <trkpt lat="43.31198" lon="-1.51136">
        <ele>62</ele>
        <time>2021-06-21T09:01:36.539Z</time>
      </trkpt>
      <trkpt lat="43.31193" lon="-1.51157">
        <ele>61</ele>
        <time>2021-06-21T09:01:37.527Z</time>
      </trkpt>
      <trkpt lat="43.31193" lon="-1.51157">
        <ele>61</ele>
        <time>2021-06-21T09:01:38.534Z</time>
      </trkpt>
      <trkpt lat="43.31189" lon="-1.5118">
        <ele>61</ele>
        <time>2021-06-21T09:01:39.521Z</time>
      </trkpt>
      <trkpt lat="43.31189" lon="-1.5118">
        <ele>61</ele>
        <time>2021-06-21T09:01:40.527Z</time>
      </trkpt>
      <trkpt lat="43.31184" lon="-1.51202">
        <ele>60</ele>
        <time>2021-06-21T09:01:41.530Z</time>
      </trkpt>
      <trkpt lat="43.31183" lon="-1.51214">
        <ele>60</ele>
        <time>2021-06-21T09:01:42.522Z</time>
      </trkpt>
      <trkpt lat="43.31183" lon="-1.51214">
        <ele>60</ele>
        <time>2021-06-21T09:01:43.528Z</time>
      </trkpt>
      <trkpt lat="43.31181" lon="-1.51237">
        <ele>59</ele>
        <time>2021-06-21T09:01:44.534Z</time>
      </trkpt>
      <trkpt lat="43.31181" lon="-1.51237">
        <ele>59</ele>
        <time>2021-06-21T09:01:45.539Z</time>
      </trkpt>
      <trkpt lat="43.31181" lon="-1.5126">
        <ele>58</ele>
        <time>2021-06-21T09:01:46.533Z</time>
      </trkpt>
      <trkpt lat="43.31181" lon="-1.51271">
        <ele>58</ele>
        <time>2021-06-21T09:01:47.526Z</time>
      </trkpt>
      <trkpt lat="43.31181" lon="-1.51271">
        <ele>58</ele>
        <time>2021-06-21T09:01:48.531Z</time>
      </trkpt>
      <trkpt lat="43.31182" lon="-1.51293">
        <ele>56</ele>
        <time>2021-06-21T09:01:49.521Z</time>
      </trkpt>
      <trkpt lat="43.31182" lon="-1.51293">
        <ele>56</ele>
        <time>2021-06-21T09:01:50.529Z</time>
      </trkpt>
      <trkpt lat="43.31183" lon="-1.51315">
        <ele>56</ele>
        <time>2021-06-21T09:01:51.509Z</time>
      </trkpt>
      <trkpt lat="43.31183" lon="-1.51315">
        <ele>56</ele>
        <time>2021-06-21T09:01:52.515Z</time>
      </trkpt>
      <trkpt lat="43.31185" lon="-1.51336">
        <ele>55</ele>
        <time>2021-06-21T09:01:53.532Z</time>
      </trkpt>
      <trkpt lat="43.31185" lon="-1.51336">
        <ele>55</ele>
        <time>2021-06-21T09:01:54.537Z</time>
      </trkpt>
      <trkpt lat="43.31187" lon="-1.51357">
        <ele>54</ele>
        <time>2021-06-21T09:01:55.520Z</time>
      </trkpt>
      <trkpt lat="43.31187" lon="-1.51357">
        <ele>54</ele>
        <time>2021-06-21T09:01:56.525Z</time>
      </trkpt>
      <trkpt lat="43.31189" lon="-1.51378">
        <ele>53</ele>
        <time>2021-06-21T09:01:57.524Z</time>
      </trkpt>
      <trkpt lat="43.31189" lon="-1.51378">
        <ele>53</ele>
        <time>2021-06-21T09:01:58.530Z</time>
      </trkpt>
      <trkpt lat="43.31192" lon="-1.514">
        <ele>52</ele>
        <time>2021-06-21T09:01:59.514Z</time>
      </trkpt>
      <trkpt lat="43.31192" lon="-1.514">
        <ele>52</ele>
        <time>2021-06-21T09:02:00.520Z</time>
      </trkpt>
      <trkpt lat="43.31196" lon="-1.5142">
        <ele>51</ele>
        <time>2021-06-21T09:02:01.546Z</time>
      </trkpt>
      <trkpt lat="43.31196" lon="-1.5142">
        <ele>51</ele>
        <time>2021-06-21T09:02:02.512Z</time>
      </trkpt>
      <trkpt lat="43.31201" lon="-1.51439">
        <ele>50</ele>
        <time>2021-06-21T09:02:03.512Z</time>
      </trkpt>
      <trkpt lat="43.31201" lon="-1.51439">
        <ele>50</ele>
        <time>2021-06-21T09:02:04.517Z</time>
      </trkpt>
      <trkpt lat="43.31205" lon="-1.51457">
        <ele>49</ele>
        <time>2021-06-21T09:02:05.544Z</time>
      </trkpt>
      <trkpt lat="43.31206" lon="-1.51465">
        <ele>49</ele>
        <time>2021-06-21T09:02:06.527Z</time>
      </trkpt>
      <trkpt lat="43.31208" lon="-1.51473">
        <ele>48</ele>
        <time>2021-06-21T09:02:07.516Z</time>
      </trkpt>
      <trkpt lat="43.31208" lon="-1.51473">
        <ele>48</ele>
        <time>2021-06-21T09:02:08.522Z</time>
      </trkpt>
      <trkpt lat="43.31211" lon="-1.51489">
        <ele>48</ele>
        <time>2021-06-21T09:02:09.517Z</time>
      </trkpt>
      <trkpt lat="43.31211" lon="-1.51489">
        <ele>48</ele>
        <time>2021-06-21T09:02:10.523Z</time>
      </trkpt>
      <trkpt lat="43.31214" lon="-1.51505">
        <ele>47</ele>
        <time>2021-06-21T09:02:11.536Z</time>
      </trkpt>
      <trkpt lat="43.31216" lon="-1.51514">
        <ele>47</ele>
        <time>2021-06-21T09:02:12.537Z</time>
      </trkpt>
      <trkpt lat="43.31216" lon="-1.51514">
        <ele>47</ele>
        <time>2021-06-21T09:02:13.543Z</time>
      </trkpt>
      <trkpt lat="43.31221" lon="-1.51529">
        <ele>47</ele>
        <time>2021-06-21T09:02:14.536Z</time>
      </trkpt>
      <trkpt lat="43.31221" lon="-1.51529">
        <ele>47</ele>
        <time>2021-06-21T09:02:15.542Z</time>
      </trkpt>
      <trkpt lat="43.31229" lon="-1.51544">
        <ele>47</ele>
        <time>2021-06-21T09:02:16.515Z</time>
      </trkpt>
      <trkpt lat="43.31229" lon="-1.51544">
        <ele>47</ele>
        <time>2021-06-21T09:02:17.521Z</time>
      </trkpt>
      <trkpt lat="43.31238" lon="-1.51558">
        <ele>47</ele>
        <time>2021-06-21T09:02:18.513Z</time>
      </trkpt>
      <trkpt lat="43.31242" lon="-1.51565">
        <ele>47</ele>
        <time>2021-06-21T09:02:19.544Z</time>
      </trkpt>
      <trkpt lat="43.31242" lon="-1.51565">
        <ele>47</ele>
        <time>2021-06-21T09:02:20.510Z</time>
      </trkpt>
      <trkpt lat="43.3125" lon="-1.51579">
        <ele>47</ele>
        <time>2021-06-21T09:02:21.541Z</time>
      </trkpt>
      <trkpt lat="43.3125" lon="-1.51579">
        <ele>47</ele>
        <time>2021-06-21T09:02:22.519Z</time>
      </trkpt>
      <trkpt lat="43.31259" lon="-1.51592">
        <ele>48</ele>
        <time>2021-06-21T09:02:23.520Z</time>
      </trkpt>
      <trkpt lat="43.31259" lon="-1.51592">
        <ele>48</ele>
        <time>2021-06-21T09:02:24.525Z</time>
      </trkpt>
      <trkpt lat="43.31267" lon="-1.51605">
        <ele>48</ele>
        <time>2021-06-21T09:02:25.548Z</time>
      </trkpt>
      <trkpt lat="43.31267" lon="-1.51605">
        <ele>48</ele>
        <time>2021-06-21T09:02:26.514Z</time>
      </trkpt>
      <trkpt lat="43.31276" lon="-1.51617">
        <ele>48</ele>
        <time>2021-06-21T09:02:27.519Z</time>
      </trkpt>
      <trkpt lat="43.31276" lon="-1.51617">
        <ele>48</ele>
        <time>2021-06-21T09:02:28.525Z</time>
      </trkpt>
      <trkpt lat="43.31285" lon="-1.51628">
        <ele>49</ele>
        <time>2021-06-21T09:02:29.525Z</time>
      </trkpt>
      <trkpt lat="43.31285" lon="-1.51628">
        <ele>49</ele>
        <time>2021-06-21T09:02:30.531Z</time>
      </trkpt>
      <trkpt lat="43.31293" lon="-1.5164">
        <ele>49</ele>
        <time>2021-06-21T09:02:31.535Z</time>
      </trkpt>
      <trkpt lat="43.31293" lon="-1.5164">
        <ele>49</ele>
        <time>2021-06-21T09:02:32.540Z</time>
      </trkpt>
      <trkpt lat="43.31301" lon="-1.51652">
        <ele>49</ele>
        <time>2021-06-21T09:02:33.529Z</time>
      </trkpt>
      <trkpt lat="43.31305" lon="-1.51658">
        <ele>49</ele>
        <time>2021-06-21T09:02:34.529Z</time>
      </trkpt>
      <trkpt lat="43.31305" lon="-1.51658">
        <ele>49</ele>
        <time>2021-06-21T09:02:35.535Z</time>
      </trkpt>
      <trkpt lat="43.31314" lon="-1.51672">
        <ele>50</ele>
        <time>2021-06-21T09:02:36.544Z</time>
      </trkpt>
      <trkpt lat="43.31318" lon="-1.51679">
        <ele>50</ele>
        <time>2021-06-21T09:02:37.537Z</time>
      </trkpt>
      <trkpt lat="43.31323" lon="-1.51686">
        <ele>50</ele>
        <time>2021-06-21T09:02:38.533Z</time>
      </trkpt>
      <trkpt lat="43.31323" lon="-1.51686">
        <ele>50</ele>
        <time>2021-06-21T09:02:39.539Z</time>
      </trkpt>
      <trkpt lat="43.31333" lon="-1.517">
        <ele>50</ele>
        <time>2021-06-21T09:02:40.535Z</time>
      </trkpt>
      <trkpt lat="43.31333" lon="-1.517">
        <ele>50</ele>
        <time>2021-06-21T09:02:41.541Z</time>
      </trkpt>
      <trkpt lat="43.31342" lon="-1.51714">
        <ele>51</ele>
        <time>2021-06-21T09:02:42.531Z</time>
      </trkpt>
      <trkpt lat="43.31347" lon="-1.51722">
        <ele>51</ele>
        <time>2021-06-21T09:02:43.530Z</time>
      </trkpt>
      <trkpt lat="43.31347" lon="-1.51722">
        <ele>51</ele>
        <time>2021-06-21T09:02:44.536Z</time>
      </trkpt>
      <trkpt lat="43.31355" lon="-1.51736">
        <ele>51</ele>
        <time>2021-06-21T09:02:45.530Z</time>
      </trkpt>
      <trkpt lat="43.31355" lon="-1.51736">
        <ele>51</ele>
        <time>2021-06-21T09:02:46.536Z</time>
      </trkpt>
      <trkpt lat="43.31363" lon="-1.5175">
        <ele>51</ele>
        <time>2021-06-21T09:02:47.539Z</time>
      </trkpt>
      <trkpt lat="43.31363" lon="-1.5175">
        <ele>51</ele>
        <time>2021-06-21T09:02:48.545Z</time>
      </trkpt>
      <trkpt lat="43.31371" lon="-1.51767">
        <ele>51</ele>
        <time>2021-06-21T09:02:49.543Z</time>
      </trkpt>
      <trkpt lat="43.31371" lon="-1.51767">
        <ele>51</ele>
        <time>2021-06-21T09:02:50.509Z</time>
      </trkpt>
      <trkpt lat="43.31378" lon="-1.51785">
        <ele>50</ele>
        <time>2021-06-21T09:02:51.547Z</time>
      </trkpt>
      <trkpt lat="43.31378" lon="-1.51785">
        <ele>50</ele>
        <time>2021-06-21T09:02:52.512Z</time>
      </trkpt>
      <trkpt lat="43.31382" lon="-1.51805">
        <ele>50</ele>
        <time>2021-06-21T09:02:53.510Z</time>
      </trkpt>
      <trkpt lat="43.31382" lon="-1.51805">
        <ele>50</ele>
        <time>2021-06-21T09:02:54.515Z</time>
      </trkpt>
      <trkpt lat="43.31386" lon="-1.51825">
        <ele>49</ele>
        <time>2021-06-21T09:02:55.519Z</time>
      </trkpt>
      <trkpt lat="43.31386" lon="-1.51825">
        <ele>49</ele>
        <time>2021-06-21T09:02:56.525Z</time>
      </trkpt>
      <trkpt lat="43.31391" lon="-1.51846">
        <ele>49</ele>
        <time>2021-06-21T09:02:57.529Z</time>
      </trkpt>
      <trkpt lat="43.31391" lon="-1.51846">
        <ele>49</ele>
        <time>2021-06-21T09:02:58.536Z</time>
      </trkpt>
      <trkpt lat="43.31395" lon="-1.51866">
        <ele>48</ele>
        <time>2021-06-21T09:02:59.541Z</time>
      </trkpt>
      <trkpt lat="43.31395" lon="-1.51866">
        <ele>48</ele>
        <time>2021-06-21T09:03:00.546Z</time>
      </trkpt>
      <trkpt lat="43.314" lon="-1.51887">
        <ele>48</ele>
        <time>2021-06-21T09:03:01.531Z</time>
      </trkpt>
      <trkpt lat="43.314" lon="-1.51887">
        <ele>48</ele>
        <time>2021-06-21T09:03:02.538Z</time>
      </trkpt>
      <trkpt lat="43.31403" lon="-1.51906">
        <ele>47</ele>
        <time>2021-06-21T09:03:03.528Z</time>
      </trkpt>
      <trkpt lat="43.31403" lon="-1.51906">
        <ele>47</ele>
        <time>2021-06-21T09:03:04.536Z</time>
      </trkpt>
      <trkpt lat="43.31407" lon="-1.51924">
        <ele>47</ele>
        <time>2021-06-21T09:03:05.529Z</time>
      </trkpt>
      <trkpt lat="43.31407" lon="-1.51924">
        <ele>47</ele>
        <time>2021-06-21T09:03:06.534Z</time>
      </trkpt>
      <trkpt lat="43.31411" lon="-1.51944">
        <ele>46</ele>
        <time>2021-06-21T09:03:07.543Z</time>
      </trkpt>
      <trkpt lat="43.31411" lon="-1.51944">
        <ele>46</ele>
        <time>2021-06-21T09:03:08.509Z</time>
      </trkpt>
      <trkpt lat="43.31417" lon="-1.51962">
        <ele>45</ele>
        <time>2021-06-21T09:03:09.542Z</time>
      </trkpt>
      <trkpt lat="43.31417" lon="-1.51962">
        <ele>45</ele>
        <time>2021-06-21T09:03:10.547Z</time>
      </trkpt>
      <trkpt lat="43.31427" lon="-1.51978">
        <ele>45</ele>
        <time>2021-06-21T09:03:11.535Z</time>
      </trkpt>
      <trkpt lat="43.31432" lon="-1.51984">
        <ele>45</ele>
        <time>2021-06-21T09:03:12.522Z</time>
      </trkpt>
      <trkpt lat="43.31432" lon="-1.51984">
        <ele>45</ele>
        <time>2021-06-21T09:03:13.527Z</time>
      </trkpt>
      <trkpt lat="43.31446" lon="-1.51992">
        <ele>44</ele>
        <time>2021-06-21T09:03:14.545Z</time>
      </trkpt>
      <trkpt lat="43.31453" lon="-1.51995">
        <ele>44</ele>
        <time>2021-06-21T09:03:15.542Z</time>
      </trkpt>
      <trkpt lat="43.31453" lon="-1.51995">
        <ele>44</ele>
        <time>2021-06-21T09:03:16.547Z</time>
      </trkpt>
      <trkpt lat="43.31468" lon="-1.52001">
        <ele>44</ele>
        <time>2021-06-21T09:03:17.512Z</time>
      </trkpt>
      <trkpt lat="43.31468" lon="-1.52001">
        <ele>44</ele>
        <time>2021-06-21T09:03:18.516Z</time>
      </trkpt>
      <trkpt lat="43.31483" lon="-1.52006">
        <ele>43</ele>
        <time>2021-06-21T09:03:19.514Z</time>
      </trkpt>
      <trkpt lat="43.31483" lon="-1.52006">
        <ele>43</ele>
        <time>2021-06-21T09:03:20.519Z</time>
      </trkpt>
      <trkpt lat="43.31496" lon="-1.52016">
        <ele>43</ele>
        <time>2021-06-21T09:03:21.510Z</time>
      </trkpt>
      <trkpt lat="43.31502" lon="-1.52022">
        <ele>42</ele>
        <time>2021-06-21T09:03:22.534Z</time>
      </trkpt>
      <trkpt lat="43.31502" lon="-1.52022">
        <ele>42</ele>
        <time>2021-06-21T09:03:23.527Z</time>
      </trkpt>
      <trkpt lat="43.31513" lon="-1.52036">
        <ele>42</ele>
        <time>2021-06-21T09:03:24.524Z</time>
      </trkpt>
      <trkpt lat="43.31518" lon="-1.52043">
        <ele>42</ele>
        <time>2021-06-21T09:03:25.518Z</time>
      </trkpt>
      <trkpt lat="43.31518" lon="-1.52043">
        <ele>42</ele>
        <time>2021-06-21T09:03:26.524Z</time>
      </trkpt>
      <trkpt lat="43.31528" lon="-1.52058">
        <ele>41</ele>
        <time>2021-06-21T09:03:27.522Z</time>
      </trkpt>
      <trkpt lat="43.31528" lon="-1.52058">
        <ele>41</ele>
        <time>2021-06-21T09:03:28.527Z</time>
      </trkpt>
      <trkpt lat="43.31539" lon="-1.52073">
        <ele>41</ele>
        <time>2021-06-21T09:03:29.522Z</time>
      </trkpt>
      <trkpt lat="43.31539" lon="-1.52073">
        <ele>41</ele>
        <time>2021-06-21T09:03:30.528Z</time>
      </trkpt>
      <trkpt lat="43.31549" lon="-1.52087">
        <ele>40</ele>
        <time>2021-06-21T09:03:31.512Z</time>
      </trkpt>
      <trkpt lat="43.31549" lon="-1.52087">
        <ele>40</ele>
        <time>2021-06-21T09:03:32.518Z</time>
      </trkpt>
      <trkpt lat="43.31559" lon="-1.52102">
        <ele>40</ele>
        <time>2021-06-21T09:03:33.509Z</time>
      </trkpt>
      <trkpt lat="43.31559" lon="-1.52102">
        <ele>40</ele>
        <time>2021-06-21T09:03:34.515Z</time>
      </trkpt>
      <trkpt lat="43.31569" lon="-1.52116">
        <ele>39</ele>
        <time>2021-06-21T09:03:35.547Z</time>
      </trkpt>
      <trkpt lat="43.31574" lon="-1.52124">
        <ele>40</ele>
        <time>2021-06-21T09:03:36.530Z</time>
      </trkpt>
      <trkpt lat="43.31579" lon="-1.52131">
        <ele>40</ele>
        <time>2021-06-21T09:03:37.540Z</time>
      </trkpt>
      <trkpt lat="43.31579" lon="-1.52131">
        <ele>40</ele>
        <time>2021-06-21T09:03:38.545Z</time>
      </trkpt>
      <trkpt lat="43.31589" lon="-1.52145">
        <ele>40</ele>
        <time>2021-06-21T09:03:39.537Z</time>
      </trkpt>
      <trkpt lat="43.31594" lon="-1.52152">
        <ele>39</ele>
        <time>2021-06-21T09:03:40.540Z</time>
      </trkpt>
      <trkpt lat="43.31594" lon="-1.52152">
        <ele>39</ele>
        <time>2021-06-21T09:03:41.545Z</time>
      </trkpt>
      <trkpt lat="43.31604" lon="-1.52166">
        <ele>39</ele>
        <time>2021-06-21T09:03:42.511Z</time>
      </trkpt>
      <trkpt lat="43.31604" lon="-1.52166">
        <ele>39</ele>
        <time>2021-06-21T09:03:43.517Z</time>
      </trkpt>
      <trkpt lat="43.31614" lon="-1.5218">
        <ele>39</ele>
        <time>2021-06-21T09:03:44.512Z</time>
      </trkpt>
      <trkpt lat="43.31614" lon="-1.5218">
        <ele>39</ele>
        <time>2021-06-21T09:03:45.517Z</time>
      </trkpt>
      <trkpt lat="43.31624" lon="-1.52194">
        <ele>39</ele>
        <time>2021-06-21T09:03:46.509Z</time>
      </trkpt>
      <trkpt lat="43.31624" lon="-1.52194">
        <ele>39</ele>
        <time>2021-06-21T09:03:47.515Z</time>
      </trkpt>
      <trkpt lat="43.31634" lon="-1.52208">
        <ele>38</ele>
        <time>2021-06-21T09:03:48.535Z</time>
      </trkpt>
      <trkpt lat="43.31634" lon="-1.52208">
        <ele>38</ele>
        <time>2021-06-21T09:03:49.540Z</time>
      </trkpt>
      <trkpt lat="43.31645" lon="-1.52221">
        <ele>38</ele>
        <time>2021-06-21T09:03:50.522Z</time>
      </trkpt>
      <trkpt lat="43.31645" lon="-1.52221">
        <ele>38</ele>
        <time>2021-06-21T09:03:51.532Z</time>
      </trkpt>
      <trkpt lat="43.31655" lon="-1.52234">
        <ele>38</ele>
        <time>2021-06-21T09:03:52.526Z</time>
      </trkpt>
      <trkpt lat="43.31655" lon="-1.52234">
        <ele>38</ele>
        <time>2021-06-21T09:03:53.532Z</time>
      </trkpt>
      <trkpt lat="43.31665" lon="-1.52249">
        <ele>38</ele>
        <time>2021-06-21T09:03:54.517Z</time>
      </trkpt>
      <trkpt lat="43.3167" lon="-1.52256">
        <ele>38</ele>
        <time>2021-06-21T09:03:55.511Z</time>
      </trkpt>
      <trkpt lat="43.3167" lon="-1.52256">
        <ele>38</ele>
        <time>2021-06-21T09:03:56.517Z</time>
      </trkpt>
      <trkpt lat="43.31679" lon="-1.5227">
        <ele>38</ele>
        <time>2021-06-21T09:03:57.536Z</time>
      </trkpt>
      <trkpt lat="43.31679" lon="-1.5227">
        <ele>38</ele>
        <time>2021-06-21T09:03:58.541Z</time>
      </trkpt>
      <trkpt lat="43.31689" lon="-1.52285">
        <ele>38</ele>
        <time>2021-06-21T09:03:59.549Z</time>
      </trkpt>
      <trkpt lat="43.31689" lon="-1.52285">
        <ele>38</ele>
        <time>2021-06-21T09:04:00.524Z</time>
      </trkpt>
      <trkpt lat="43.31699" lon="-1.52299">
        <ele>38</ele>
        <time>2021-06-21T09:04:01.526Z</time>
      </trkpt>
      <trkpt lat="43.31699" lon="-1.52299">
        <ele>38</ele>
        <time>2021-06-21T09:04:02.531Z</time>
      </trkpt>
      <trkpt lat="43.31709" lon="-1.52314">
        <ele>37</ele>
        <time>2021-06-21T09:04:03.522Z</time>
      </trkpt>
      <trkpt lat="43.31709" lon="-1.52314">
        <ele>37</ele>
        <time>2021-06-21T09:04:04.530Z</time>
      </trkpt>
      <trkpt lat="43.31719" lon="-1.52328">
        <ele>37</ele>
        <time>2021-06-21T09:04:05.530Z</time>
      </trkpt>
      <trkpt lat="43.31719" lon="-1.52328">
        <ele>37</ele>
        <time>2021-06-21T09:04:06.537Z</time>
      </trkpt>
      <trkpt lat="43.31729" lon="-1.52341">
        <ele>37</ele>
        <time>2021-06-21T09:04:07.526Z</time>
      </trkpt>
      <trkpt lat="43.31729" lon="-1.52341">
        <ele>37</ele>
        <time>2021-06-21T09:04:08.532Z</time>
      </trkpt>
      <trkpt lat="43.31739" lon="-1.52354">
        <ele>37</ele>
        <time>2021-06-21T09:04:09.528Z</time>
      </trkpt>
      <trkpt lat="43.31739" lon="-1.52354">
        <ele>37</ele>
        <time>2021-06-21T09:04:10.533Z</time>
      </trkpt>
      <trkpt lat="43.31748" lon="-1.52367">
        <ele>36</ele>
        <time>2021-06-21T09:04:11.513Z</time>
      </trkpt>
      <trkpt lat="43.31753" lon="-1.52374">
        <ele>36</ele>
        <time>2021-06-21T09:04:12.548Z</time>
      </trkpt>
      <trkpt lat="43.31757" lon="-1.5238">
        <ele>36</ele>
        <time>2021-06-21T09:04:13.544Z</time>
      </trkpt>
      <trkpt lat="43.31757" lon="-1.5238">
        <ele>36</ele>
        <time>2021-06-21T09:04:14.509Z</time>
      </trkpt>
      <trkpt lat="43.31767" lon="-1.52394">
        <ele>36</ele>
        <time>2021-06-21T09:04:15.536Z</time>
      </trkpt>
      <trkpt lat="43.31771" lon="-1.52401">
        <ele>35</ele>
        <time>2021-06-21T09:04:16.536Z</time>
      </trkpt>
      <trkpt lat="43.31776" lon="-1.52409">
        <ele>35</ele>
        <time>2021-06-21T09:04:17.545Z</time>
      </trkpt>
      <trkpt lat="43.31776" lon="-1.52409">
        <ele>35</ele>
        <time>2021-06-21T09:04:18.510Z</time>
      </trkpt>
      <trkpt lat="43.31785" lon="-1.52423">
        <ele>35</ele>
        <time>2021-06-21T09:04:19.511Z</time>
      </trkpt>
      <trkpt lat="43.31789" lon="-1.5243">
        <ele>35</ele>
        <time>2021-06-21T09:04:20.515Z</time>
      </trkpt>
      <trkpt lat="43.31789" lon="-1.5243">
        <ele>35</ele>
        <time>2021-06-21T09:04:21.520Z</time>
      </trkpt>
      <trkpt lat="43.31795" lon="-1.52447">
        <ele>34</ele>
        <time>2021-06-21T09:04:22.527Z</time>
      </trkpt>
      <trkpt lat="43.31795" lon="-1.52447">
        <ele>34</ele>
        <time>2021-06-21T09:04:23.515Z</time>
      </trkpt>
      <trkpt lat="43.31801" lon="-1.52464">
        <ele>34</ele>
        <time>2021-06-21T09:04:24.519Z</time>
      </trkpt>
      <trkpt lat="43.31801" lon="-1.52464">
        <ele>34</ele>
        <time>2021-06-21T09:04:25.525Z</time>
      </trkpt>
      <trkpt lat="43.31804" lon="-1.52483">
        <ele>33</ele>
        <time>2021-06-21T09:04:26.526Z</time>
      </trkpt>
      <trkpt lat="43.31805" lon="-1.52491">
        <ele>33</ele>
        <time>2021-06-21T09:04:27.529Z</time>
      </trkpt>
      <trkpt lat="43.31805" lon="-1.52491">
        <ele>33</ele>
        <time>2021-06-21T09:04:28.534Z</time>
      </trkpt>
      <trkpt lat="43.31805" lon="-1.5251">
        <ele>33</ele>
        <time>2021-06-21T09:04:29.521Z</time>
      </trkpt>
      <trkpt lat="43.31805" lon="-1.5251">
        <ele>33</ele>
        <time>2021-06-21T09:04:30.527Z</time>
      </trkpt>
      <trkpt lat="43.31803" lon="-1.52529">
        <ele>32</ele>
        <time>2021-06-21T09:04:31.511Z</time>
      </trkpt>
      <trkpt lat="43.31803" lon="-1.52529">
        <ele>32</ele>
        <time>2021-06-21T09:04:32.516Z</time>
      </trkpt>
      <trkpt lat="43.31801" lon="-1.52548">
        <ele>32</ele>
        <time>2021-06-21T09:04:33.542Z</time>
      </trkpt>
      <trkpt lat="43.31801" lon="-1.52548">
        <ele>32</ele>
        <time>2021-06-21T09:04:34.548Z</time>
      </trkpt>
      <trkpt lat="43.31799" lon="-1.52567">
        <ele>32</ele>
        <time>2021-06-21T09:04:35.542Z</time>
      </trkpt>
      <trkpt lat="43.31799" lon="-1.52567">
        <ele>32</ele>
        <time>2021-06-21T09:04:36.548Z</time>
      </trkpt>
      <trkpt lat="43.31795" lon="-1.52586">
        <ele>31</ele>
        <time>2021-06-21T09:04:37.511Z</time>
      </trkpt>
      <trkpt lat="43.31795" lon="-1.52586">
        <ele>31</ele>
        <time>2021-06-21T09:04:38.516Z</time>
      </trkpt>
      <trkpt lat="43.31792" lon="-1.52603">
        <ele>31</ele>
        <time>2021-06-21T09:04:39.522Z</time>
      </trkpt>
      <trkpt lat="43.31792" lon="-1.52603">
        <ele>31</ele>
        <time>2021-06-21T09:04:40.527Z</time>
      </trkpt>
      <trkpt lat="43.31789" lon="-1.52621">
        <ele>30</ele>
        <time>2021-06-21T09:04:41.522Z</time>
      </trkpt>
      <trkpt lat="43.31788" lon="-1.5263">
        <ele>30</ele>
        <time>2021-06-21T09:04:42.510Z</time>
      </trkpt>
      <trkpt lat="43.31788" lon="-1.5263">
        <ele>30</ele>
        <time>2021-06-21T09:04:43.515Z</time>
      </trkpt>
      <trkpt lat="43.31785" lon="-1.52649">
        <ele>29</ele>
        <time>2021-06-21T09:04:44.543Z</time>
      </trkpt>
      <trkpt lat="43.31783" lon="-1.52659">
        <ele>29</ele>
        <time>2021-06-21T09:04:45.542Z</time>
      </trkpt>
      <trkpt lat="43.31783" lon="-1.52659">
        <ele>29</ele>
        <time>2021-06-21T09:04:46.548Z</time>
      </trkpt>
      <trkpt lat="43.3178" lon="-1.52676">
        <ele>29</ele>
        <time>2021-06-21T09:04:47.512Z</time>
      </trkpt>
      <trkpt lat="43.3178" lon="-1.52676">
        <ele>29</ele>
        <time>2021-06-21T09:04:48.517Z</time>
      </trkpt>
      <trkpt lat="43.31776" lon="-1.52695">
        <ele>28</ele>
        <time>2021-06-21T09:04:49.511Z</time>
      </trkpt>
      <trkpt lat="43.31776" lon="-1.52695">
        <ele>28</ele>
        <time>2021-06-21T09:04:50.516Z</time>
      </trkpt>
      <trkpt lat="43.31773" lon="-1.52712">
        <ele>27</ele>
        <time>2021-06-21T09:04:51.518Z</time>
      </trkpt>
      <trkpt lat="43.31773" lon="-1.52712">
        <ele>27</ele>
        <time>2021-06-21T09:04:52.524Z</time>
      </trkpt>
      <trkpt lat="43.31771" lon="-1.52732">
        <ele>27</ele>
        <time>2021-06-21T09:04:53.522Z</time>
      </trkpt>
      <trkpt lat="43.31771" lon="-1.52732">
        <ele>27</ele>
        <time>2021-06-21T09:04:54.528Z</time>
      </trkpt>
      <trkpt lat="43.3177" lon="-1.5275">
        <ele>26</ele>
        <time>2021-06-21T09:04:55.522Z</time>
      </trkpt>
      <trkpt lat="43.3177" lon="-1.5275">
        <ele>26</ele>
        <time>2021-06-21T09:04:56.527Z</time>
      </trkpt>
      <trkpt lat="43.31766" lon="-1.52767">
        <ele>27</ele>
        <time>2021-06-21T09:04:57.524Z</time>
      </trkpt>
      <trkpt lat="43.31764" lon="-1.52777">
        <ele>26</ele>
        <time>2021-06-21T09:04:58.513Z</time>
      </trkpt>
      <trkpt lat="43.31763" lon="-1.52787">
        <ele>26</ele>
        <time>2021-06-21T09:04:59.539Z</time>
      </trkpt>
      <trkpt lat="43.31762" lon="-1.52796">
        <ele>26</ele>
        <time>2021-06-21T09:05:00.531Z</time>
      </trkpt>
      <trkpt lat="43.3176" lon="-1.52806">
        <ele>26</ele>
        <time>2021-06-21T09:05:01.528Z</time>
      </trkpt>
      <trkpt lat="43.3176" lon="-1.52806">
        <ele>26</ele>
        <time>2021-06-21T09:05:02.533Z</time>
      </trkpt>
      <trkpt lat="43.31757" lon="-1.52825">
        <ele>25</ele>
        <time>2021-06-21T09:05:03.526Z</time>
      </trkpt>
      <trkpt lat="43.31757" lon="-1.52825">
        <ele>25</ele>
        <time>2021-06-21T09:05:04.532Z</time>
      </trkpt>
      <trkpt lat="43.31754" lon="-1.52843">
        <ele>24</ele>
        <time>2021-06-21T09:05:05.514Z</time>
      </trkpt>
      <trkpt lat="43.31754" lon="-1.52843">
        <ele>24</ele>
        <time>2021-06-21T09:05:06.520Z</time>
      </trkpt>
      <trkpt lat="43.31751" lon="-1.5286">
        <ele>23</ele>
        <time>2021-06-21T09:05:07.518Z</time>
      </trkpt>
      <trkpt lat="43.31751" lon="-1.5286">
        <ele>23</ele>
        <time>2021-06-21T09:05:08.524Z</time>
      </trkpt>
      <trkpt lat="43.31748" lon="-1.52878">
        <ele>23</ele>
        <time>2021-06-21T09:05:09.522Z</time>
      </trkpt>
      <trkpt lat="43.31748" lon="-1.52878">
        <ele>23</ele>
        <time>2021-06-21T09:05:10.527Z</time>
      </trkpt>
      <trkpt lat="43.31746" lon="-1.52895">
        <ele>23</ele>
        <time>2021-06-21T09:05:11.529Z</time>
      </trkpt>
      <trkpt lat="43.31746" lon="-1.52895">
        <ele>23</ele>
        <time>2021-06-21T09:05:12.536Z</time>
      </trkpt>
      <trkpt lat="43.31743" lon="-1.52913">
        <ele>23</ele>
        <time>2021-06-21T09:05:13.536Z</time>
      </trkpt>
      <trkpt lat="43.31743" lon="-1.52913">
        <ele>23</ele>
        <time>2021-06-21T09:05:14.540Z</time>
      </trkpt>
      <trkpt lat="43.31741" lon="-1.52929">
        <ele>23</ele>
        <time>2021-06-21T09:05:15.538Z</time>
      </trkpt>
      <trkpt lat="43.31741" lon="-1.52929">
        <ele>23</ele>
        <time>2021-06-21T09:05:16.544Z</time>
      </trkpt>
      <trkpt lat="43.31738" lon="-1.52946">
        <ele>22</ele>
        <time>2021-06-21T09:05:17.515Z</time>
      </trkpt>
      <trkpt lat="43.31738" lon="-1.52946">
        <ele>22</ele>
        <time>2021-06-21T09:05:18.520Z</time>
      </trkpt>
      <trkpt lat="43.31734" lon="-1.52965">
        <ele>22</ele>
        <time>2021-06-21T09:05:19.512Z</time>
      </trkpt>
      <trkpt lat="43.31734" lon="-1.52965">
        <ele>22</ele>
        <time>2021-06-21T09:05:20.517Z</time>
      </trkpt>
      <trkpt lat="43.3173" lon="-1.52985">
        <ele>23</ele>
        <time>2021-06-21T09:05:21.543Z</time>
      </trkpt>
      <trkpt lat="43.3173" lon="-1.52985">
        <ele>23</ele>
        <time>2021-06-21T09:05:22.521Z</time>
      </trkpt>
      <trkpt lat="43.31726" lon="-1.53004">
        <ele>23</ele>
        <time>2021-06-21T09:05:23.520Z</time>
      </trkpt>
      <trkpt lat="43.31726" lon="-1.53004">
        <ele>23</ele>
        <time>2021-06-21T09:05:24.525Z</time>
      </trkpt>
      <trkpt lat="43.31723" lon="-1.53022">
        <ele>23</ele>
        <time>2021-06-21T09:05:25.516Z</time>
      </trkpt>
      <trkpt lat="43.31723" lon="-1.53022">
        <ele>23</ele>
        <time>2021-06-21T09:05:26.521Z</time>
      </trkpt>
      <trkpt lat="43.3172" lon="-1.5304">
        <ele>24</ele>
        <time>2021-06-21T09:05:27.520Z</time>
      </trkpt>
      <trkpt lat="43.3172" lon="-1.5304">
        <ele>24</ele>
        <time>2021-06-21T09:05:28.526Z</time>
      </trkpt>
      <trkpt lat="43.31717" lon="-1.53056">
        <ele>24</ele>
        <time>2021-06-21T09:05:29.546Z</time>
      </trkpt>
      <trkpt lat="43.31717" lon="-1.53056">
        <ele>24</ele>
        <time>2021-06-21T09:05:30.511Z</time>
      </trkpt>
      <trkpt lat="43.31715" lon="-1.53072">
        <ele>25</ele>
        <time>2021-06-21T09:05:31.532Z</time>
      </trkpt>
      <trkpt lat="43.31715" lon="-1.53072">
        <ele>25</ele>
        <time>2021-06-21T09:05:32.539Z</time>
      </trkpt>
      <trkpt lat="43.31713" lon="-1.53087">
        <ele>25</ele>
        <time>2021-06-21T09:05:33.531Z</time>
      </trkpt>
      <trkpt lat="43.31713" lon="-1.53087">
        <ele>25</ele>
        <time>2021-06-21T09:05:34.536Z</time>
      </trkpt>
      <trkpt lat="43.31711" lon="-1.53102">
        <ele>25</ele>
        <time>2021-06-21T09:05:35.528Z</time>
      </trkpt>
      <trkpt lat="43.3171" lon="-1.53108">
        <ele>26</ele>
        <time>2021-06-21T09:05:36.532Z</time>
      </trkpt>
      <trkpt lat="43.3171" lon="-1.53108">
        <ele>26</ele>
        <time>2021-06-21T09:05:37.539Z</time>
      </trkpt>
      <trkpt lat="43.31708" lon="-1.53121">
        <ele>26</ele>
        <time>2021-06-21T09:05:38.526Z</time>
      </trkpt>
      <trkpt lat="43.31708" lon="-1.53121">
        <ele>26</ele>
        <time>2021-06-21T09:05:39.531Z</time>
      </trkpt>
      <trkpt lat="43.31707" lon="-1.53131">
        <ele>27</ele>
        <time>2021-06-21T09:05:40.532Z</time>
      </trkpt>
      <trkpt lat="43.31707" lon="-1.53131">
        <ele>27</ele>
        <time>2021-06-21T09:05:41.537Z</time>
      </trkpt>
      <trkpt lat="43.31706" lon="-1.5314">
        <ele>27</ele>
        <time>2021-06-21T09:05:42.527Z</time>
      </trkpt>
      <trkpt lat="43.31706" lon="-1.5314">
        <ele>27</ele>
        <time>2021-06-21T09:05:43.534Z</time>
      </trkpt>
      <trkpt lat="43.31706" lon="-1.53147">
        <ele>28</ele>
        <time>2021-06-21T09:05:44.522Z</time>
      </trkpt>
      <trkpt lat="43.31706" lon="-1.53147">
        <ele>28</ele>
        <time>2021-06-21T09:05:45.527Z</time>
      </trkpt>
      <trkpt lat="43.31706" lon="-1.53155">
        <ele>29</ele>
        <time>2021-06-21T09:05:46.513Z</time>
      </trkpt>
      <trkpt lat="43.31706" lon="-1.53155">
        <ele>29</ele>
        <time>2021-06-21T09:05:47.517Z</time>
      </trkpt>
      <trkpt lat="43.31708" lon="-1.53161">
        <ele>30</ele>
        <time>2021-06-21T09:05:48.519Z</time>
      </trkpt>
      <trkpt lat="43.3171" lon="-1.53165">
        <ele>32</ele>
        <time>2021-06-21T09:05:49.522Z</time>
      </trkpt>
      <trkpt lat="43.3171" lon="-1.53165">
        <ele>32</ele>
        <time>2021-06-21T09:05:50.527Z</time>
      </trkpt>
      <trkpt lat="43.31715" lon="-1.53173">
        <ele>32</ele>
        <time>2021-06-21T09:05:51.514Z</time>
      </trkpt>
      <trkpt lat="43.31715" lon="-1.53173">
        <ele>32</ele>
        <time>2021-06-21T09:05:52.519Z</time>
      </trkpt>
      <trkpt lat="43.31721" lon="-1.53182">
        <ele>32</ele>
        <time>2021-06-21T09:05:53.540Z</time>
      </trkpt>
      <trkpt lat="43.31721" lon="-1.53182">
        <ele>32</ele>
        <time>2021-06-21T09:05:54.545Z</time>
      </trkpt>
      <trkpt lat="43.31729" lon="-1.53192">
        <ele>33</ele>
        <time>2021-06-21T09:05:55.542Z</time>
      </trkpt>
      <trkpt lat="43.31729" lon="-1.53192">
        <ele>33</ele>
        <time>2021-06-21T09:05:56.547Z</time>
      </trkpt>
      <trkpt lat="43.31736" lon="-1.53202">
        <ele>33</ele>
        <time>2021-06-21T09:05:57.512Z</time>
      </trkpt>
      <trkpt lat="43.3174" lon="-1.53208">
        <ele>33</ele>
        <time>2021-06-21T09:05:58.547Z</time>
      </trkpt>
      <trkpt lat="43.3174" lon="-1.53208">
        <ele>33</ele>
        <time>2021-06-21T09:05:59.512Z</time>
      </trkpt>
      <trkpt lat="43.31748" lon="-1.5322">
        <ele>33</ele>
        <time>2021-06-21T09:06:00.512Z</time>
      </trkpt>
      <trkpt lat="43.31748" lon="-1.5322">
        <ele>33</ele>
        <time>2021-06-21T09:06:01.517Z</time>
      </trkpt>
      <trkpt lat="43.31756" lon="-1.53232">
        <ele>33</ele>
        <time>2021-06-21T09:06:02.524Z</time>
      </trkpt>
      <trkpt lat="43.3176" lon="-1.53238">
        <ele>33</ele>
        <time>2021-06-21T09:06:03.525Z</time>
      </trkpt>
      <trkpt lat="43.3176" lon="-1.53238">
        <ele>33</ele>
        <time>2021-06-21T09:06:04.532Z</time>
      </trkpt>
      <trkpt lat="43.31768" lon="-1.5325">
        <ele>33</ele>
        <time>2021-06-21T09:06:05.532Z</time>
      </trkpt>
      <trkpt lat="43.31768" lon="-1.5325">
        <ele>33</ele>
        <time>2021-06-21T09:06:06.540Z</time>
      </trkpt>
      <trkpt lat="43.31776" lon="-1.53263">
        <ele>33</ele>
        <time>2021-06-21T09:06:07.532Z</time>
      </trkpt>
      <trkpt lat="43.31776" lon="-1.53263">
        <ele>33</ele>
        <time>2021-06-21T09:06:08.541Z</time>
      </trkpt>
      <trkpt lat="43.31785" lon="-1.53275">
        <ele>32</ele>
        <time>2021-06-21T09:06:09.520Z</time>
      </trkpt>
      <trkpt lat="43.31785" lon="-1.53275">
        <ele>32</ele>
        <time>2021-06-21T09:06:10.525Z</time>
      </trkpt>
      <trkpt lat="43.31794" lon="-1.53288">
        <ele>32</ele>
        <time>2021-06-21T09:06:11.531Z</time>
      </trkpt>
      <trkpt lat="43.31798" lon="-1.53294">
        <ele>32</ele>
        <time>2021-06-21T09:06:12.521Z</time>
      </trkpt>
      <trkpt lat="43.31798" lon="-1.53294">
        <ele>32</ele>
        <time>2021-06-21T09:06:13.527Z</time>
      </trkpt>
      <trkpt lat="43.31807" lon="-1.53306">
        <ele>31</ele>
        <time>2021-06-21T09:06:14.521Z</time>
      </trkpt>
      <trkpt lat="43.31807" lon="-1.53306">
        <ele>31</ele>
        <time>2021-06-21T09:06:15.526Z</time>
      </trkpt>
      <trkpt lat="43.31816" lon="-1.53319">
        <ele>31</ele>
        <time>2021-06-21T09:06:16.521Z</time>
      </trkpt>
      <trkpt lat="43.31816" lon="-1.53319">
        <ele>31</ele>
        <time>2021-06-21T09:06:17.527Z</time>
      </trkpt>
      <trkpt lat="43.31824" lon="-1.53333">
        <ele>31</ele>
        <time>2021-06-21T09:06:18.552Z</time>
      </trkpt>
      <trkpt lat="43.31824" lon="-1.53333">
        <ele>31</ele>
        <time>2021-06-21T09:06:19.509Z</time>
      </trkpt>
      <trkpt lat="43.31833" lon="-1.53347">
        <ele>32</ele>
        <time>2021-06-21T09:06:20.542Z</time>
      </trkpt>
      <trkpt lat="43.31833" lon="-1.53347">
        <ele>32</ele>
        <time>2021-06-21T09:06:21.547Z</time>
      </trkpt>
      <trkpt lat="43.31841" lon="-1.53361">
        <ele>33</ele>
        <time>2021-06-21T09:06:22.512Z</time>
      </trkpt>
      <trkpt lat="43.31841" lon="-1.53361">
        <ele>33</ele>
        <time>2021-06-21T09:06:23.538Z</time>
      </trkpt>
      <trkpt lat="43.3185" lon="-1.53374">
        <ele>33</ele>
        <time>2021-06-21T09:06:24.529Z</time>
      </trkpt>
      <trkpt lat="43.3185" lon="-1.53374">
        <ele>33</ele>
        <time>2021-06-21T09:06:25.535Z</time>
      </trkpt>
      <trkpt lat="43.31859" lon="-1.53389">
        <ele>34</ele>
        <time>2021-06-21T09:06:26.538Z</time>
      </trkpt>
      <trkpt lat="43.31864" lon="-1.53396">
        <ele>34</ele>
        <time>2021-06-21T09:06:27.510Z</time>
      </trkpt>
      <trkpt lat="43.31864" lon="-1.53396">
        <ele>34</ele>
        <time>2021-06-21T09:06:28.516Z</time>
      </trkpt>
      <trkpt lat="43.31872" lon="-1.53409">
        <ele>33</ele>
        <time>2021-06-21T09:06:29.509Z</time>
      </trkpt>
      <trkpt lat="43.31872" lon="-1.53409">
        <ele>33</ele>
        <time>2021-06-21T09:06:30.515Z</time>
      </trkpt>
      <trkpt lat="43.31881" lon="-1.53422">
        <ele>33</ele>
        <time>2021-06-21T09:06:31.541Z</time>
      </trkpt>
      <trkpt lat="43.31881" lon="-1.53422">
        <ele>33</ele>
        <time>2021-06-21T09:06:32.546Z</time>
      </trkpt>
      <trkpt lat="43.31888" lon="-1.53433">
        <ele>33</ele>
        <time>2021-06-21T09:06:33.544Z</time>
      </trkpt>
      <trkpt lat="43.31888" lon="-1.53433">
        <ele>33</ele>
        <time>2021-06-21T09:06:34.509Z</time>
      </trkpt>
      <trkpt lat="43.31895" lon="-1.53444">
        <ele>33</ele>
        <time>2021-06-21T09:06:35.519Z</time>
      </trkpt>
      <trkpt lat="43.31895" lon="-1.53444">
        <ele>33</ele>
        <time>2021-06-21T09:06:36.525Z</time>
      </trkpt>
      <trkpt lat="43.31902" lon="-1.53455">
        <ele>33</ele>
        <time>2021-06-21T09:06:37.512Z</time>
      </trkpt>
      <trkpt lat="43.31902" lon="-1.53455">
        <ele>33</ele>
        <time>2021-06-21T09:06:38.517Z</time>
      </trkpt>
      <trkpt lat="43.3191" lon="-1.53467">
        <ele>33</ele>
        <time>2021-06-21T09:06:39.510Z</time>
      </trkpt>
      <trkpt lat="43.3191" lon="-1.53467">
        <ele>33</ele>
        <time>2021-06-21T09:06:40.515Z</time>
      </trkpt>
      <trkpt lat="43.31918" lon="-1.53478">
        <ele>33</ele>
        <time>2021-06-21T09:06:41.542Z</time>
      </trkpt>
      <trkpt lat="43.31921" lon="-1.53484">
        <ele>33</ele>
        <time>2021-06-21T09:06:42.536Z</time>
      </trkpt>
      <trkpt lat="43.31925" lon="-1.53489">
        <ele>33</ele>
        <time>2021-06-21T09:06:43.531Z</time>
      </trkpt>
      <trkpt lat="43.31925" lon="-1.53489">
        <ele>33</ele>
        <time>2021-06-21T09:06:44.536Z</time>
      </trkpt>
      <trkpt lat="43.31933" lon="-1.53501">
        <ele>34</ele>
        <time>2021-06-21T09:06:45.526Z</time>
      </trkpt>
      <trkpt lat="43.31937" lon="-1.53507">
        <ele>34</ele>
        <time>2021-06-21T09:06:46.548Z</time>
      </trkpt>
      <trkpt lat="43.31937" lon="-1.53507">
        <ele>34</ele>
        <time>2021-06-21T09:06:47.514Z</time>
      </trkpt>
      <trkpt lat="43.31945" lon="-1.53519">
        <ele>34</ele>
        <time>2021-06-21T09:06:48.545Z</time>
      </trkpt>
      <trkpt lat="43.31949" lon="-1.53524">
        <ele>34</ele>
        <time>2021-06-21T09:06:49.542Z</time>
      </trkpt>
      <trkpt lat="43.31949" lon="-1.53524">
        <ele>34</ele>
        <time>2021-06-21T09:06:50.547Z</time>
      </trkpt>
      <trkpt lat="43.31958" lon="-1.53537">
        <ele>35</ele>
        <time>2021-06-21T09:06:51.540Z</time>
      </trkpt>
      <trkpt lat="43.31958" lon="-1.53537">
        <ele>35</ele>
        <time>2021-06-21T09:06:52.545Z</time>
      </trkpt>
      <trkpt lat="43.31966" lon="-1.53549">
        <ele>35</ele>
        <time>2021-06-21T09:06:53.517Z</time>
      </trkpt>
      <trkpt lat="43.31966" lon="-1.53549">
        <ele>35</ele>
        <time>2021-06-21T09:06:54.522Z</time>
      </trkpt>
      <trkpt lat="43.31974" lon="-1.53562">
        <ele>35</ele>
        <time>2021-06-21T09:06:55.538Z</time>
      </trkpt>
      <trkpt lat="43.31974" lon="-1.53562">
        <ele>35</ele>
        <time>2021-06-21T09:06:56.544Z</time>
      </trkpt>
      <trkpt lat="43.31981" lon="-1.53576">
        <ele>35</ele>
        <time>2021-06-21T09:06:57.539Z</time>
      </trkpt>
      <trkpt lat="43.31984" lon="-1.53584">
        <ele>36</ele>
        <time>2021-06-21T09:06:58.531Z</time>
      </trkpt>
      <trkpt lat="43.31984" lon="-1.53584">
        <ele>36</ele>
        <time>2021-06-21T09:06:59.545Z</time>
      </trkpt>
      <trkpt lat="43.31988" lon="-1.53599">
        <ele>36</ele>
        <time>2021-06-21T09:07:00.532Z</time>
      </trkpt>
      <trkpt lat="43.3199" lon="-1.53607">
        <ele>37</ele>
        <time>2021-06-21T09:07:01.521Z</time>
      </trkpt>
      <trkpt lat="43.3199" lon="-1.53607">
        <ele>37</ele>
        <time>2021-06-21T09:07:02.527Z</time>
      </trkpt>
      <trkpt lat="43.31992" lon="-1.53623">
        <ele>36</ele>
        <time>2021-06-21T09:07:03.512Z</time>
      </trkpt>
      <trkpt lat="43.31992" lon="-1.53623">
        <ele>36</ele>
        <time>2021-06-21T09:07:04.517Z</time>
      </trkpt>
      <trkpt lat="43.31993" lon="-1.5364">
        <ele>35</ele>
        <time>2021-06-21T09:07:05.512Z</time>
      </trkpt>
      <trkpt lat="43.31994" lon="-1.53649">
        <ele>35</ele>
        <time>2021-06-21T09:07:06.512Z</time>
      </trkpt>
      <trkpt lat="43.31995" lon="-1.53658">
        <ele>35</ele>
        <time>2021-06-21T09:07:07.522Z</time>
      </trkpt>
      <trkpt lat="43.31995" lon="-1.53658">
        <ele>35</ele>
        <time>2021-06-21T09:07:08.527Z</time>
      </trkpt>
      <trkpt lat="43.31995" lon="-1.53676">
        <ele>34</ele>
        <time>2021-06-21T09:07:09.520Z</time>
      </trkpt>
      <trkpt lat="43.31995" lon="-1.53676">
        <ele>34</ele>
        <time>2021-06-21T09:07:10.526Z</time>
      </trkpt>
      <trkpt lat="43.31996" lon="-1.53694">
        <ele>34</ele>
        <time>2021-06-21T09:07:11.537Z</time>
      </trkpt>
      <trkpt lat="43.31996" lon="-1.53694">
        <ele>34</ele>
        <time>2021-06-21T09:07:12.543Z</time>
      </trkpt>
      <trkpt lat="43.31997" lon="-1.53711">
        <ele>33</ele>
        <time>2021-06-21T09:07:13.511Z</time>
      </trkpt>
      <trkpt lat="43.31997" lon="-1.53711">
        <ele>33</ele>
        <time>2021-06-21T09:07:14.516Z</time>
      </trkpt>
      <trkpt lat="43.31997" lon="-1.53728">
        <ele>33</ele>
        <time>2021-06-21T09:07:15.542Z</time>
      </trkpt>
      <trkpt lat="43.31998" lon="-1.53737">
        <ele>33</ele>
        <time>2021-06-21T09:07:16.532Z</time>
      </trkpt>
      <trkpt lat="43.31998" lon="-1.53737">
        <ele>33</ele>
        <time>2021-06-21T09:07:17.539Z</time>
      </trkpt>
      <trkpt lat="43.31998" lon="-1.53755">
        <ele>32</ele>
        <time>2021-06-21T09:07:18.522Z</time>
      </trkpt>
      <trkpt lat="43.31999" lon="-1.53764">
        <ele>32</ele>
        <time>2021-06-21T09:07:19.538Z</time>
      </trkpt>
      <trkpt lat="43.31999" lon="-1.53764">
        <ele>32</ele>
        <time>2021-06-21T09:07:20.544Z</time>
      </trkpt>
      <trkpt lat="43.32" lon="-1.53782">
        <ele>32</ele>
        <time>2021-06-21T09:07:21.510Z</time>
      </trkpt>
      <trkpt lat="43.32" lon="-1.53782">
        <ele>32</ele>
        <time>2021-06-21T09:07:22.535Z</time>
      </trkpt>
      <trkpt lat="43.32001" lon="-1.538">
        <ele>31</ele>
        <time>2021-06-21T09:07:23.544Z</time>
      </trkpt>
      <trkpt lat="43.32002" lon="-1.53809">
        <ele>31</ele>
        <time>2021-06-21T09:07:24.540Z</time>
      </trkpt>
      <trkpt lat="43.32002" lon="-1.53818">
        <ele>31</ele>
        <time>2021-06-21T09:07:25.542Z</time>
      </trkpt>
      <trkpt lat="43.32002" lon="-1.53818">
        <ele>31</ele>
        <time>2021-06-21T09:07:26.548Z</time>
      </trkpt>
      <trkpt lat="43.32003" lon="-1.53836">
        <ele>31</ele>
        <time>2021-06-21T09:07:27.537Z</time>
      </trkpt>
      <trkpt lat="43.32003" lon="-1.53836">
        <ele>31</ele>
        <time>2021-06-21T09:07:28.543Z</time>
      </trkpt>
      <trkpt lat="43.32004" lon="-1.53854">
        <ele>31</ele>
        <time>2021-06-21T09:07:29.539Z</time>
      </trkpt>
      <trkpt lat="43.32004" lon="-1.53854">
        <ele>31</ele>
        <time>2021-06-21T09:07:30.544Z</time>
      </trkpt>
      <trkpt lat="43.32005" lon="-1.53871">
        <ele>30</ele>
        <time>2021-06-21T09:07:31.534Z</time>
      </trkpt>
      <trkpt lat="43.32005" lon="-1.53871">
        <ele>30</ele>
        <time>2021-06-21T09:07:32.540Z</time>
      </trkpt>
      <trkpt lat="43.32007" lon="-1.53888">
        <ele>30</ele>
        <time>2021-06-21T09:07:33.532Z</time>
      </trkpt>
      <trkpt lat="43.32007" lon="-1.53897">
        <ele>30</ele>
        <time>2021-06-21T09:07:34.547Z</time>
      </trkpt>
      <trkpt lat="43.32007" lon="-1.53897">
        <ele>30</ele>
        <time>2021-06-21T09:07:35.513Z</time>
      </trkpt>
      <trkpt lat="43.32008" lon="-1.53913">
        <ele>30</ele>
        <time>2021-06-21T09:07:36.515Z</time>
      </trkpt>
      <trkpt lat="43.32008" lon="-1.53913">
        <ele>30</ele>
        <time>2021-06-21T09:07:37.520Z</time>
      </trkpt>
      <trkpt lat="43.32008" lon="-1.53928">
        <ele>29</ele>
        <time>2021-06-21T09:07:38.513Z</time>
      </trkpt>
      <trkpt lat="43.32008" lon="-1.53936">
        <ele>29</ele>
        <time>2021-06-21T09:07:39.547Z</time>
      </trkpt>
      <trkpt lat="43.32008" lon="-1.53936">
        <ele>29</ele>
        <time>2021-06-21T09:07:40.512Z</time>
      </trkpt>
      <trkpt lat="43.32007" lon="-1.53949">
        <ele>28</ele>
        <time>2021-06-21T09:07:41.512Z</time>
      </trkpt>
      <trkpt lat="43.32007" lon="-1.53949">
        <ele>28</ele>
        <time>2021-06-21T09:07:42.517Z</time>
      </trkpt>
      <trkpt lat="43.32005" lon="-1.53961">
        <ele>28</ele>
        <time>2021-06-21T09:07:43.522Z</time>
      </trkpt>
      <trkpt lat="43.32005" lon="-1.53961">
        <ele>28</ele>
        <time>2021-06-21T09:07:44.528Z</time>
      </trkpt>
      <trkpt lat="43.32001" lon="-1.53975">
        <ele>27</ele>
        <time>2021-06-21T09:07:45.522Z</time>
      </trkpt>
      <trkpt lat="43.32001" lon="-1.53975">
        <ele>27</ele>
        <time>2021-06-21T09:07:46.528Z</time>
      </trkpt>
      <trkpt lat="43.31997" lon="-1.5399">
        <ele>27</ele>
        <time>2021-06-21T09:07:47.522Z</time>
      </trkpt>
      <trkpt lat="43.31997" lon="-1.5399">
        <ele>27</ele>
        <time>2021-06-21T09:07:48.527Z</time>
      </trkpt>
      <trkpt lat="43.31993" lon="-1.54006">
        <ele>27</ele>
        <time>2021-06-21T09:07:49.521Z</time>
      </trkpt>
      <trkpt lat="43.31993" lon="-1.54006">
        <ele>27</ele>
        <time>2021-06-21T09:07:50.527Z</time>
      </trkpt>
      <trkpt lat="43.31989" lon="-1.54022">
        <ele>26</ele>
        <time>2021-06-21T09:07:51.525Z</time>
      </trkpt>
      <trkpt lat="43.31989" lon="-1.54022">
        <ele>26</ele>
        <time>2021-06-21T09:07:52.530Z</time>
      </trkpt>
      <trkpt lat="43.31985" lon="-1.54038">
        <ele>26</ele>
        <time>2021-06-21T09:07:53.542Z</time>
      </trkpt>
      <trkpt lat="43.31985" lon="-1.54038">
        <ele>26</ele>
        <time>2021-06-21T09:07:54.547Z</time>
      </trkpt>
      <trkpt lat="43.31981" lon="-1.54054">
        <ele>26</ele>
        <time>2021-06-21T09:07:55.540Z</time>
      </trkpt>
      <trkpt lat="43.31981" lon="-1.54054">
        <ele>26</ele>
        <time>2021-06-21T09:07:56.546Z</time>
      </trkpt>
      <trkpt lat="43.31977" lon="-1.54069">
        <ele>27</ele>
        <time>2021-06-21T09:07:57.543Z</time>
      </trkpt>
      <trkpt lat="43.31975" lon="-1.54077">
        <ele>27</ele>
        <time>2021-06-21T09:07:58.528Z</time>
      </trkpt>
      <trkpt lat="43.31975" lon="-1.54077">
        <ele>27</ele>
        <time>2021-06-21T09:07:59.534Z</time>
      </trkpt>
      <trkpt lat="43.31971" lon="-1.54092">
        <ele>27</ele>
        <time>2021-06-21T09:08:00.523Z</time>
      </trkpt>
      <trkpt lat="43.31969" lon="-1.541">
        <ele>27</ele>
        <time>2021-06-21T09:08:01.512Z</time>
      </trkpt>
      <trkpt lat="43.31969" lon="-1.541">
        <ele>27</ele>
        <time>2021-06-21T09:08:02.517Z</time>
      </trkpt>
      <trkpt lat="43.31964" lon="-1.54115">
        <ele>27</ele>
        <time>2021-06-21T09:08:03.523Z</time>
      </trkpt>
      <trkpt lat="43.31964" lon="-1.54115">
        <ele>27</ele>
        <time>2021-06-21T09:08:04.528Z</time>
      </trkpt>
      <trkpt lat="43.31961" lon="-1.54131">
        <ele>27</ele>
        <time>2021-06-21T09:08:05.517Z</time>
      </trkpt>
      <trkpt lat="43.31961" lon="-1.54131">
        <ele>27</ele>
        <time>2021-06-21T09:08:06.522Z</time>
      </trkpt>
      <trkpt lat="43.31956" lon="-1.54147">
        <ele>28</ele>
        <time>2021-06-21T09:08:07.518Z</time>
      </trkpt>
      <trkpt lat="43.31956" lon="-1.54147">
        <ele>28</ele>
        <time>2021-06-21T09:08:08.524Z</time>
      </trkpt>
      <trkpt lat="43.31952" lon="-1.54162">
        <ele>28</ele>
        <time>2021-06-21T09:08:09.528Z</time>
      </trkpt>
      <trkpt lat="43.3195" lon="-1.5417">
        <ele>28</ele>
        <time>2021-06-21T09:08:10.535Z</time>
      </trkpt>
      <trkpt lat="43.31948" lon="-1.54178">
        <ele>28</ele>
        <time>2021-06-21T09:08:11.522Z</time>
      </trkpt>
      <trkpt lat="43.31946" lon="-1.54185">
        <ele>28</ele>
        <time>2021-06-21T09:08:12.522Z</time>
      </trkpt>
      <trkpt lat="43.31944" lon="-1.54193">
        <ele>28</ele>
        <time>2021-06-21T09:08:13.512Z</time>
      </trkpt>
      <trkpt lat="43.31944" lon="-1.54193">
        <ele>28</ele>
        <time>2021-06-21T09:08:14.517Z</time>
      </trkpt>
      <trkpt lat="43.3194" lon="-1.54209">
        <ele>28</ele>
        <time>2021-06-21T09:08:15.521Z</time>
      </trkpt>
      <trkpt lat="43.31938" lon="-1.54217">
        <ele>29</ele>
        <time>2021-06-21T09:08:16.518Z</time>
      </trkpt>
      <trkpt lat="43.31938" lon="-1.54217">
        <ele>29</ele>
        <time>2021-06-21T09:08:17.524Z</time>
      </trkpt>
      <trkpt lat="43.31934" lon="-1.54232">
        <ele>29</ele>
        <time>2021-06-21T09:08:18.515Z</time>
      </trkpt>
      <trkpt lat="43.31932" lon="-1.5424">
        <ele>28</ele>
        <time>2021-06-21T09:08:19.521Z</time>
      </trkpt>
      <trkpt lat="43.31932" lon="-1.5424">
        <ele>28</ele>
        <time>2021-06-21T09:08:20.530Z</time>
      </trkpt>
      <trkpt lat="43.31927" lon="-1.54256">
        <ele>28</ele>
        <time>2021-06-21T09:08:21.522Z</time>
      </trkpt>
      <trkpt lat="43.31927" lon="-1.54256">
        <ele>28</ele>
        <time>2021-06-21T09:08:22.538Z</time>
      </trkpt>
      <trkpt lat="43.31923" lon="-1.54271">
        <ele>28</ele>
        <time>2021-06-21T09:08:23.530Z</time>
      </trkpt>
      <trkpt lat="43.31923" lon="-1.54271">
        <ele>28</ele>
        <time>2021-06-21T09:08:24.537Z</time>
      </trkpt>
      <trkpt lat="43.31919" lon="-1.54286">
        <ele>29</ele>
        <time>2021-06-21T09:08:25.546Z</time>
      </trkpt>
      <trkpt lat="43.31919" lon="-1.54286">
        <ele>29</ele>
        <time>2021-06-21T09:08:26.511Z</time>
      </trkpt>
      <trkpt lat="43.31915" lon="-1.54302">
        <ele>29</ele>
        <time>2021-06-21T09:08:27.515Z</time>
      </trkpt>
      <trkpt lat="43.31915" lon="-1.54302">
        <ele>29</ele>
        <time>2021-06-21T09:08:28.520Z</time>
      </trkpt>
      <trkpt lat="43.3191" lon="-1.54317">
        <ele>30</ele>
        <time>2021-06-21T09:08:29.516Z</time>
      </trkpt>
      <trkpt lat="43.3191" lon="-1.54317">
        <ele>30</ele>
        <time>2021-06-21T09:08:30.522Z</time>
      </trkpt>
      <trkpt lat="43.31906" lon="-1.54333">
        <ele>30</ele>
        <time>2021-06-21T09:08:31.512Z</time>
      </trkpt>
      <trkpt lat="43.31906" lon="-1.54333">
        <ele>30</ele>
        <time>2021-06-21T09:08:32.518Z</time>
      </trkpt>
      <trkpt lat="43.31901" lon="-1.54348">
        <ele>30</ele>
        <time>2021-06-21T09:08:33.522Z</time>
      </trkpt>
      <trkpt lat="43.31901" lon="-1.54348">
        <ele>30</ele>
        <time>2021-06-21T09:08:34.527Z</time>
      </trkpt>
      <trkpt lat="43.31896" lon="-1.54364">
        <ele>30</ele>
        <time>2021-06-21T09:08:35.548Z</time>
      </trkpt>
      <trkpt lat="43.31896" lon="-1.54364">
        <ele>30</ele>
        <time>2021-06-21T09:08:36.513Z</time>
      </trkpt>
      <trkpt lat="43.31892" lon="-1.5438">
        <ele>30</ele>
        <time>2021-06-21T09:08:37.547Z</time>
      </trkpt>
      <trkpt lat="43.31892" lon="-1.5438">
        <ele>30</ele>
        <time>2021-06-21T09:08:38.513Z</time>
      </trkpt>
      <trkpt lat="43.31888" lon="-1.54395">
        <ele>30</ele>
        <time>2021-06-21T09:08:39.533Z</time>
      </trkpt>
      <trkpt lat="43.31888" lon="-1.54395">
        <ele>30</ele>
        <time>2021-06-21T09:08:40.547Z</time>
      </trkpt>
      <trkpt lat="43.31884" lon="-1.54412">
        <ele>31</ele>
        <time>2021-06-21T09:08:41.512Z</time>
      </trkpt>
      <trkpt lat="43.31884" lon="-1.54412">
        <ele>31</ele>
        <time>2021-06-21T09:08:42.517Z</time>
      </trkpt>
      <trkpt lat="43.31881" lon="-1.54429">
        <ele>30</ele>
        <time>2021-06-21T09:08:43.512Z</time>
      </trkpt>
      <trkpt lat="43.31881" lon="-1.54429">
        <ele>30</ele>
        <time>2021-06-21T09:08:44.517Z</time>
      </trkpt>
      <trkpt lat="43.31878" lon="-1.54446">
        <ele>30</ele>
        <time>2021-06-21T09:08:45.543Z</time>
      </trkpt>
      <trkpt lat="43.31876" lon="-1.54455">
        <ele>30</ele>
        <time>2021-06-21T09:08:46.534Z</time>
      </trkpt>
      <trkpt lat="43.31876" lon="-1.54455">
        <ele>30</ele>
        <time>2021-06-21T09:08:47.540Z</time>
      </trkpt>
      <trkpt lat="43.31875" lon="-1.54473">
        <ele>29</ele>
        <time>2021-06-21T09:08:48.525Z</time>
      </trkpt>
      <trkpt lat="43.31874" lon="-1.54481">
        <ele>29</ele>
        <time>2021-06-21T09:08:49.517Z</time>
      </trkpt>
      <trkpt lat="43.31874" lon="-1.54481">
        <ele>29</ele>
        <time>2021-06-21T09:08:50.523Z</time>
      </trkpt>
      <trkpt lat="43.31874" lon="-1.54499">
        <ele>29</ele>
        <time>2021-06-21T09:08:51.509Z</time>
      </trkpt>
      <trkpt lat="43.31874" lon="-1.54499">
        <ele>29</ele>
        <time>2021-06-21T09:08:52.514Z</time>
      </trkpt>
      <trkpt lat="43.31875" lon="-1.54517">
        <ele>28</ele>
        <time>2021-06-21T09:08:53.509Z</time>
      </trkpt>
      <trkpt lat="43.31875" lon="-1.54517">
        <ele>28</ele>
        <time>2021-06-21T09:08:54.515Z</time>
      </trkpt>
      <trkpt lat="43.31877" lon="-1.54534">
        <ele>28</ele>
        <time>2021-06-21T09:08:55.516Z</time>
      </trkpt>
      <trkpt lat="43.31877" lon="-1.54534">
        <ele>28</ele>
        <time>2021-06-21T09:08:56.522Z</time>
      </trkpt>
      <trkpt lat="43.3188" lon="-1.54552">
        <ele>27</ele>
        <time>2021-06-21T09:08:57.510Z</time>
      </trkpt>
      <trkpt lat="43.3188" lon="-1.54552">
        <ele>27</ele>
        <time>2021-06-21T09:08:58.516Z</time>
      </trkpt>
      <trkpt lat="43.31883" lon="-1.54569">
        <ele>27</ele>
        <time>2021-06-21T09:08:59.539Z</time>
      </trkpt>
      <trkpt lat="43.31883" lon="-1.54569">
        <ele>27</ele>
        <time>2021-06-21T09:09:00.545Z</time>
      </trkpt>
      <trkpt lat="43.31888" lon="-1.54585">
        <ele>27</ele>
        <time>2021-06-21T09:09:01.531Z</time>
      </trkpt>
      <trkpt lat="43.31888" lon="-1.54585">
        <ele>27</ele>
        <time>2021-06-21T09:09:02.538Z</time>
      </trkpt>
      <trkpt lat="43.31894" lon="-1.54601">
        <ele>27</ele>
        <time>2021-06-21T09:09:03.532Z</time>
      </trkpt>
      <trkpt lat="43.31897" lon="-1.54609">
        <ele>27</ele>
        <time>2021-06-21T09:09:04.530Z</time>
      </trkpt>
      <trkpt lat="43.31897" lon="-1.54609">
        <ele>27</ele>
        <time>2021-06-21T09:09:05.538Z</time>
      </trkpt>
      <trkpt lat="43.31904" lon="-1.54624">
        <ele>28</ele>
        <time>2021-06-21T09:09:06.527Z</time>
      </trkpt>
      <trkpt lat="43.31907" lon="-1.54631">
        <ele>28</ele>
        <time>2021-06-21T09:09:07.524Z</time>
      </trkpt>
      <trkpt lat="43.31907" lon="-1.54631">
        <ele>28</ele>
        <time>2021-06-21T09:09:08.529Z</time>
      </trkpt>
      <trkpt lat="43.31915" lon="-1.54646">
        <ele>28</ele>
        <time>2021-06-21T09:09:09.538Z</time>
      </trkpt>
      <trkpt lat="43.31915" lon="-1.54646">
        <ele>28</ele>
        <time>2021-06-21T09:09:10.543Z</time>
      </trkpt>
      <trkpt lat="43.31923" lon="-1.54659">
        <ele>28</ele>
        <time>2021-06-21T09:09:11.535Z</time>
      </trkpt>
      <trkpt lat="43.31928" lon="-1.54665">
        <ele>28</ele>
        <time>2021-06-21T09:09:12.515Z</time>
      </trkpt>
      <trkpt lat="43.31928" lon="-1.54665">
        <ele>28</ele>
        <time>2021-06-21T09:09:13.526Z</time>
      </trkpt>
      <trkpt lat="43.31937" lon="-1.54677">
        <ele>28</ele>
        <time>2021-06-21T09:09:14.533Z</time>
      </trkpt>
      <trkpt lat="43.31937" lon="-1.54677">
        <ele>28</ele>
        <time>2021-06-21T09:09:15.539Z</time>
      </trkpt>
      <trkpt lat="43.31946" lon="-1.54689">
        <ele>28</ele>
        <time>2021-06-21T09:09:16.546Z</time>
      </trkpt>
      <trkpt lat="43.31951" lon="-1.54694">
        <ele>28</ele>
        <time>2021-06-21T09:09:17.530Z</time>
      </trkpt>
      <trkpt lat="43.31951" lon="-1.54694">
        <ele>28</ele>
        <time>2021-06-21T09:09:18.536Z</time>
      </trkpt>
      <trkpt lat="43.3196" lon="-1.54706">
        <ele>28</ele>
        <time>2021-06-21T09:09:19.532Z</time>
      </trkpt>
      <trkpt lat="43.3196" lon="-1.54706">
        <ele>28</ele>
        <time>2021-06-21T09:09:20.537Z</time>
      </trkpt>
      <trkpt lat="43.31969" lon="-1.54716">
        <ele>28</ele>
        <time>2021-06-21T09:09:21.545Z</time>
      </trkpt>
      <trkpt lat="43.31969" lon="-1.54716">
        <ele>28</ele>
        <time>2021-06-21T09:09:22.530Z</time>
      </trkpt>
      <trkpt lat="43.31977" lon="-1.54727">
        <ele>28</ele>
        <time>2021-06-21T09:09:23.540Z</time>
      </trkpt>
      <trkpt lat="43.31977" lon="-1.54727">
        <ele>28</ele>
        <time>2021-06-21T09:09:24.545Z</time>
      </trkpt>
      <trkpt lat="43.31986" lon="-1.54738">
        <ele>28</ele>
        <time>2021-06-21T09:09:25.532Z</time>
      </trkpt>
      <trkpt lat="43.31986" lon="-1.54738">
        <ele>28</ele>
        <time>2021-06-21T09:09:26.540Z</time>
      </trkpt>
      <trkpt lat="43.31994" lon="-1.54749">
        <ele>28</ele>
        <time>2021-06-21T09:09:27.532Z</time>
      </trkpt>
      <trkpt lat="43.31998" lon="-1.54755">
        <ele>27</ele>
        <time>2021-06-21T09:09:28.513Z</time>
      </trkpt>
      <trkpt lat="43.31998" lon="-1.54755">
        <ele>27</ele>
        <time>2021-06-21T09:09:29.519Z</time>
      </trkpt>
      <trkpt lat="43.32007" lon="-1.54765">
        <ele>27</ele>
        <time>2021-06-21T09:09:30.543Z</time>
      </trkpt>
      <trkpt lat="43.32011" lon="-1.5477">
        <ele>27</ele>
        <time>2021-06-21T09:09:31.536Z</time>
      </trkpt>
      <trkpt lat="43.32011" lon="-1.5477">
        <ele>27</ele>
        <time>2021-06-21T09:09:32.543Z</time>
      </trkpt>
      <trkpt lat="43.3202" lon="-1.54781">
        <ele>27</ele>
        <time>2021-06-21T09:09:33.542Z</time>
      </trkpt>
      <trkpt lat="43.32025" lon="-1.54787">
        <ele>27</ele>
        <time>2021-06-21T09:09:34.531Z</time>
      </trkpt>
      <trkpt lat="43.32025" lon="-1.54787">
        <ele>27</ele>
        <time>2021-06-21T09:09:35.538Z</time>
      </trkpt>
      <trkpt lat="43.32034" lon="-1.54799">
        <ele>26</ele>
        <time>2021-06-21T09:09:36.522Z</time>
      </trkpt>
      <trkpt lat="43.32034" lon="-1.54799">
        <ele>26</ele>
        <time>2021-06-21T09:09:37.527Z</time>
      </trkpt>
      <trkpt lat="43.32042" lon="-1.54809">
        <ele>26</ele>
        <time>2021-06-21T09:09:38.512Z</time>
      </trkpt>
      <trkpt lat="43.32042" lon="-1.54809">
        <ele>26</ele>
        <time>2021-06-21T09:09:39.518Z</time>
      </trkpt>
      <trkpt lat="43.32051" lon="-1.5482">
        <ele>26</ele>
        <time>2021-06-21T09:09:40.532Z</time>
      </trkpt>
      <trkpt lat="43.32051" lon="-1.5482">
        <ele>26</ele>
        <time>2021-06-21T09:09:41.538Z</time>
      </trkpt>
      <trkpt lat="43.3206" lon="-1.54831">
        <ele>26</ele>
        <time>2021-06-21T09:09:42.542Z</time>
      </trkpt>
      <trkpt lat="43.32064" lon="-1.54836">
        <ele>26</ele>
        <time>2021-06-21T09:09:43.530Z</time>
      </trkpt>
      <trkpt lat="43.32064" lon="-1.54836">
        <ele>26</ele>
        <time>2021-06-21T09:09:44.534Z</time>
      </trkpt>
      <trkpt lat="43.32073" lon="-1.54848">
        <ele>27</ele>
        <time>2021-06-21T09:09:45.532Z</time>
      </trkpt>
      <trkpt lat="43.32078" lon="-1.54854">
        <ele>27</ele>
        <time>2021-06-21T09:09:46.512Z</time>
      </trkpt>
      <trkpt lat="43.32078" lon="-1.54854">
        <ele>27</ele>
        <time>2021-06-21T09:09:47.518Z</time>
      </trkpt>
      <trkpt lat="43.32086" lon="-1.54865">
        <ele>28</ele>
        <time>2021-06-21T09:09:48.541Z</time>
      </trkpt>
      <trkpt lat="43.32091" lon="-1.54871">
        <ele>27</ele>
        <time>2021-06-21T09:09:49.532Z</time>
      </trkpt>
      <trkpt lat="43.32091" lon="-1.54871">
        <ele>27</ele>
        <time>2021-06-21T09:09:50.541Z</time>
      </trkpt>
      <trkpt lat="43.32099" lon="-1.54882">
        <ele>28</ele>
        <time>2021-06-21T09:09:51.537Z</time>
      </trkpt>
      <trkpt lat="43.32104" lon="-1.54887">
        <ele>28</ele>
        <time>2021-06-21T09:09:52.537Z</time>
      </trkpt>
      <trkpt lat="43.32104" lon="-1.54887">
        <ele>28</ele>
        <time>2021-06-21T09:09:53.543Z</time>
      </trkpt>
      <trkpt lat="43.32112" lon="-1.54898">
        <ele>28</ele>
        <time>2021-06-21T09:09:54.528Z</time>
      </trkpt>
      <trkpt lat="43.32112" lon="-1.54898">
        <ele>28</ele>
        <time>2021-06-21T09:09:55.534Z</time>
      </trkpt>
      <trkpt lat="43.3212" lon="-1.5491">
        <ele>28</ele>
        <time>2021-06-21T09:09:56.522Z</time>
      </trkpt>
      <trkpt lat="43.3212" lon="-1.5491">
        <ele>28</ele>
        <time>2021-06-21T09:09:57.527Z</time>
      </trkpt>
      <trkpt lat="43.32127" lon="-1.54922">
        <ele>28</ele>
        <time>2021-06-21T09:09:58.519Z</time>
      </trkpt>
      <trkpt lat="43.32127" lon="-1.54922">
        <ele>28</ele>
        <time>2021-06-21T09:09:59.525Z</time>
      </trkpt>
      <trkpt lat="43.32131" lon="-1.54934">
        <ele>29</ele>
        <time>2021-06-21T09:10:00.510Z</time>
      </trkpt>
      <trkpt lat="43.32132" lon="-1.5494">
        <ele>29</ele>
        <time>2021-06-21T09:10:01.535Z</time>
      </trkpt>
      <trkpt lat="43.32132" lon="-1.5494">
        <ele>29</ele>
        <time>2021-06-21T09:10:02.540Z</time>
      </trkpt>
      <trkpt lat="43.32134" lon="-1.54953">
        <ele>28</ele>
        <time>2021-06-21T09:10:03.540Z</time>
      </trkpt>
      <trkpt lat="43.32134" lon="-1.54953">
        <ele>28</ele>
        <time>2021-06-21T09:10:04.545Z</time>
      </trkpt>
      <trkpt lat="43.32136" lon="-1.54965">
        <ele>28</ele>
        <time>2021-06-21T09:10:05.532Z</time>
      </trkpt>
      <trkpt lat="43.32136" lon="-1.54971">
        <ele>28</ele>
        <time>2021-06-21T09:10:06.526Z</time>
      </trkpt>
      <trkpt lat="43.32137" lon="-1.54976">
        <ele>28</ele>
        <time>2021-06-21T09:10:07.534Z</time>
      </trkpt>
      <trkpt lat="43.32137" lon="-1.54976">
        <ele>28</ele>
        <time>2021-06-21T09:10:08.540Z</time>
      </trkpt>
      <trkpt lat="43.32139" lon="-1.54987">
        <ele>28</ele>
        <time>2021-06-21T09:10:09.537Z</time>
      </trkpt>
      <trkpt lat="43.32139" lon="-1.54993">
        <ele>28</ele>
        <time>2021-06-21T09:10:10.529Z</time>
      </trkpt>
      <trkpt lat="43.32139" lon="-1.54993">
        <ele>28</ele>
        <time>2021-06-21T09:10:11.535Z</time>
      </trkpt>
      <trkpt lat="43.32141" lon="-1.55003">
        <ele>28</ele>
        <time>2021-06-21T09:10:12.524Z</time>
      </trkpt>
      <trkpt lat="43.32142" lon="-1.55007">
        <ele>28</ele>
        <time>2021-06-21T09:10:13.517Z</time>
      </trkpt>
      <trkpt lat="43.32142" lon="-1.55007">
        <ele>28</ele>
        <time>2021-06-21T09:10:14.523Z</time>
      </trkpt>
      <trkpt lat="43.32143" lon="-1.55016">
        <ele>27</ele>
        <time>2021-06-21T09:10:15.545Z</time>
      </trkpt>
      <trkpt lat="43.32143" lon="-1.55021">
        <ele>27</ele>
        <time>2021-06-21T09:10:16.537Z</time>
      </trkpt>
      <trkpt lat="43.32143" lon="-1.55021">
        <ele>27</ele>
        <time>2021-06-21T09:10:17.543Z</time>
      </trkpt>
      <trkpt lat="43.32145" lon="-1.55028">
        <ele>27</ele>
        <time>2021-06-21T09:10:18.533Z</time>
      </trkpt>
      <trkpt lat="43.32146" lon="-1.5503">
        <ele>27</ele>
        <time>2021-06-21T09:10:19.509Z</time>
      </trkpt>
      <trkpt lat="43.32146" lon="-1.5503">
        <ele>27</ele>
        <time>2021-06-21T09:10:20.515Z</time>
      </trkpt>
      <trkpt lat="43.32148" lon="-1.55033">
        <ele>26</ele>
        <time>2021-06-21T09:10:21.519Z</time>
      </trkpt>
      <trkpt lat="43.32148" lon="-1.55033">
        <ele>26</ele>
        <time>2021-06-21T09:10:22.539Z</time>
      </trkpt>
      <trkpt lat="43.32154" lon="-1.55035">
        <ele>26</ele>
        <time>2021-06-21T09:10:23.539Z</time>
      </trkpt>
      <trkpt lat="43.32154" lon="-1.55035">
        <ele>26</ele>
        <time>2021-06-21T09:10:24.545Z</time>
      </trkpt>
      <trkpt lat="43.32161" lon="-1.55032">
        <ele>26</ele>
        <time>2021-06-21T09:10:25.541Z</time>
      </trkpt>
      <trkpt lat="43.32161" lon="-1.55032">
        <ele>26</ele>
        <time>2021-06-21T09:10:26.546Z</time>
      </trkpt>
      <trkpt lat="43.32169" lon="-1.55028">
        <ele>25</ele>
        <time>2021-06-21T09:10:27.532Z</time>
      </trkpt>
      <trkpt lat="43.32169" lon="-1.55028">
        <ele>25</ele>
        <time>2021-06-21T09:10:28.538Z</time>
      </trkpt>
      <trkpt lat="43.32177" lon="-1.55023">
        <ele>25</ele>
        <time>2021-06-21T09:10:29.511Z</time>
      </trkpt>
      <trkpt lat="43.32177" lon="-1.55023">
        <ele>25</ele>
        <time>2021-06-21T09:10:30.516Z</time>
      </trkpt>
      <trkpt lat="43.32186" lon="-1.55018">
        <ele>24</ele>
        <time>2021-06-21T09:10:31.542Z</time>
      </trkpt>
      <trkpt lat="43.32186" lon="-1.55018">
        <ele>24</ele>
        <time>2021-06-21T09:10:32.548Z</time>
      </trkpt>
      <trkpt lat="43.32194" lon="-1.55014">
        <ele>24</ele>
        <time>2021-06-21T09:10:33.545Z</time>
      </trkpt>
      <trkpt lat="43.32194" lon="-1.55014">
        <ele>24</ele>
        <time>2021-06-21T09:10:34.511Z</time>
      </trkpt>
      <trkpt lat="43.32204" lon="-1.5501">
        <ele>24</ele>
        <time>2021-06-21T09:10:35.541Z</time>
      </trkpt>
      <trkpt lat="43.32209" lon="-1.55007">
        <ele>24</ele>
        <time>2021-06-21T09:10:36.522Z</time>
      </trkpt>
      <trkpt lat="43.32209" lon="-1.55007">
        <ele>24</ele>
        <time>2021-06-21T09:10:37.527Z</time>
      </trkpt>
      <trkpt lat="43.32218" lon="-1.55002">
        <ele>24</ele>
        <time>2021-06-21T09:10:38.540Z</time>
      </trkpt>
      <trkpt lat="43.32218" lon="-1.55002">
        <ele>24</ele>
        <time>2021-06-21T09:10:39.545Z</time>
      </trkpt>
      <trkpt lat="43.32228" lon="-1.54997">
        <ele>23</ele>
        <time>2021-06-21T09:10:40.535Z</time>
      </trkpt>
      <trkpt lat="43.32228" lon="-1.54997">
        <ele>23</ele>
        <time>2021-06-21T09:10:41.540Z</time>
      </trkpt>
      <trkpt lat="43.32238" lon="-1.54992">
        <ele>23</ele>
        <time>2021-06-21T09:10:42.521Z</time>
      </trkpt>
      <trkpt lat="43.32238" lon="-1.54992">
        <ele>23</ele>
        <time>2021-06-21T09:10:43.527Z</time>
      </trkpt>
      <trkpt lat="43.32247" lon="-1.54987">
        <ele>23</ele>
        <time>2021-06-21T09:10:44.515Z</time>
      </trkpt>
      <trkpt lat="43.32247" lon="-1.54987">
        <ele>23</ele>
        <time>2021-06-21T09:10:45.520Z</time>
      </trkpt>
      <trkpt lat="43.32257" lon="-1.54982">
        <ele>23</ele>
        <time>2021-06-21T09:10:46.546Z</time>
      </trkpt>
      <trkpt lat="43.32257" lon="-1.54982">
        <ele>23</ele>
        <time>2021-06-21T09:10:47.512Z</time>
      </trkpt>
      <trkpt lat="43.32267" lon="-1.54977">
        <ele>22</ele>
        <time>2021-06-21T09:10:48.512Z</time>
      </trkpt>
      <trkpt lat="43.32267" lon="-1.54977">
        <ele>22</ele>
        <time>2021-06-21T09:10:49.517Z</time>
      </trkpt>
      <trkpt lat="43.32279" lon="-1.54973">
        <ele>22</ele>
        <time>2021-06-21T09:10:50.513Z</time>
      </trkpt>
      <trkpt lat="43.32279" lon="-1.54973">
        <ele>22</ele>
        <time>2021-06-21T09:10:51.518Z</time>
      </trkpt>
      <trkpt lat="43.3229" lon="-1.54967">
        <ele>22</ele>
        <time>2021-06-21T09:10:52.512Z</time>
      </trkpt>
      <trkpt lat="43.3229" lon="-1.54967">
        <ele>22</ele>
        <time>2021-06-21T09:10:53.519Z</time>
      </trkpt>
      <trkpt lat="43.32301" lon="-1.54961">
        <ele>22</ele>
        <time>2021-06-21T09:10:54.518Z</time>
      </trkpt>
      <trkpt lat="43.32307" lon="-1.54958">
        <ele>22</ele>
        <time>2021-06-21T09:10:55.509Z</time>
      </trkpt>
      <trkpt lat="43.32307" lon="-1.54958">
        <ele>22</ele>
        <time>2021-06-21T09:10:56.515Z</time>
      </trkpt>
      <trkpt lat="43.32319" lon="-1.54951">
        <ele>22</ele>
        <time>2021-06-21T09:10:57.539Z</time>
      </trkpt>
      <trkpt lat="43.32319" lon="-1.54951">
        <ele>22</ele>
        <time>2021-06-21T09:10:58.545Z</time>
      </trkpt>
      <trkpt lat="43.32332" lon="-1.54946">
        <ele>21</ele>
        <time>2021-06-21T09:10:59.537Z</time>
      </trkpt>
      <trkpt lat="43.32338" lon="-1.54943">
        <ele>21</ele>
        <time>2021-06-21T09:11:00.529Z</time>
      </trkpt>
      <trkpt lat="43.32338" lon="-1.54943">
        <ele>21</ele>
        <time>2021-06-21T09:11:01.535Z</time>
      </trkpt>
      <trkpt lat="43.32351" lon="-1.54937">
        <ele>21</ele>
        <time>2021-06-21T09:11:02.527Z</time>
      </trkpt>
      <trkpt lat="43.32351" lon="-1.54937">
        <ele>21</ele>
        <time>2021-06-21T09:11:03.533Z</time>
      </trkpt>
      <trkpt lat="43.32363" lon="-1.54932">
        <ele>21</ele>
        <time>2021-06-21T09:11:04.542Z</time>
      </trkpt>
      <trkpt lat="43.32363" lon="-1.54932">
        <ele>21</ele>
        <time>2021-06-21T09:11:05.547Z</time>
      </trkpt>
      <trkpt lat="43.32376" lon="-1.54927">
        <ele>21</ele>
        <time>2021-06-21T09:11:06.542Z</time>
      </trkpt>
      <trkpt lat="43.32382" lon="-1.54924">
        <ele>21</ele>
        <time>2021-06-21T09:11:07.544Z</time>
      </trkpt>
      <trkpt lat="43.32389" lon="-1.54921">
        <ele>21</ele>
        <time>2021-06-21T09:11:08.523Z</time>
      </trkpt>
      <trkpt lat="43.32389" lon="-1.54921">
        <ele>21</ele>
        <time>2021-06-21T09:11:09.528Z</time>
      </trkpt>
      <trkpt lat="43.32402" lon="-1.54916">
        <ele>21</ele>
        <time>2021-06-21T09:11:10.531Z</time>
      </trkpt>
      <trkpt lat="43.32402" lon="-1.54916">
        <ele>21</ele>
        <time>2021-06-21T09:11:11.537Z</time>
      </trkpt>
      <trkpt lat="43.32414" lon="-1.54912">
        <ele>21</ele>
        <time>2021-06-21T09:11:12.527Z</time>
      </trkpt>
      <trkpt lat="43.32414" lon="-1.54912">
        <ele>21</ele>
        <time>2021-06-21T09:11:13.533Z</time>
      </trkpt>
      <trkpt lat="43.32427" lon="-1.54907">
        <ele>21</ele>
        <time>2021-06-21T09:11:14.533Z</time>
      </trkpt>
      <trkpt lat="43.32433" lon="-1.54904">
        <ele>21</ele>
        <time>2021-06-21T09:11:15.527Z</time>
      </trkpt>
      <trkpt lat="43.32433" lon="-1.54904">
        <ele>21</ele>
        <time>2021-06-21T09:11:16.533Z</time>
      </trkpt>
      <trkpt lat="43.32444" lon="-1.549">
        <ele>21</ele>
        <time>2021-06-21T09:11:17.524Z</time>
      </trkpt>
      <trkpt lat="43.32444" lon="-1.549">
        <ele>21</ele>
        <time>2021-06-21T09:11:18.530Z</time>
      </trkpt>
      <trkpt lat="43.32454" lon="-1.54896">
        <ele>21</ele>
        <time>2021-06-21T09:11:19.517Z</time>
      </trkpt>
      <trkpt lat="43.32454" lon="-1.54896">
        <ele>21</ele>
        <time>2021-06-21T09:11:20.523Z</time>
      </trkpt>
      <trkpt lat="43.32464" lon="-1.54889">
        <ele>21</ele>
        <time>2021-06-21T09:11:21.519Z</time>
      </trkpt>
      <trkpt lat="43.32468" lon="-1.54886">
        <ele>21</ele>
        <time>2021-06-21T09:11:22.540Z</time>
      </trkpt>
      <trkpt lat="43.32468" lon="-1.54886">
        <ele>21</ele>
        <time>2021-06-21T09:11:23.546Z</time>
      </trkpt>
      <trkpt lat="43.32475" lon="-1.54879">
        <ele>21</ele>
        <time>2021-06-21T09:11:24.541Z</time>
      </trkpt>
      <trkpt lat="43.32478" lon="-1.54875">
        <ele>21</ele>
        <time>2021-06-21T09:11:25.545Z</time>
      </trkpt>
      <trkpt lat="43.32478" lon="-1.54875">
        <ele>21</ele>
        <time>2021-06-21T09:11:26.510Z</time>
      </trkpt>
      <trkpt lat="43.32486" lon="-1.54867">
        <ele>21</ele>
        <time>2021-06-21T09:11:27.539Z</time>
      </trkpt>
      <trkpt lat="43.32486" lon="-1.54867">
        <ele>21</ele>
        <time>2021-06-21T09:11:28.544Z</time>
      </trkpt>
      <trkpt lat="43.32495" lon="-1.54859">
        <ele>21</ele>
        <time>2021-06-21T09:11:29.532Z</time>
      </trkpt>
      <trkpt lat="43.32499" lon="-1.54856">
        <ele>21</ele>
        <time>2021-06-21T09:11:30.530Z</time>
      </trkpt>
      <trkpt lat="43.32504" lon="-1.54852">
        <ele>21</ele>
        <time>2021-06-21T09:11:31.522Z</time>
      </trkpt>
      <trkpt lat="43.32504" lon="-1.54852">
        <ele>21</ele>
        <time>2021-06-21T09:11:32.527Z</time>
      </trkpt>
      <trkpt lat="43.32512" lon="-1.54845">
        <ele>21</ele>
        <time>2021-06-21T09:11:33.514Z</time>
      </trkpt>
      <trkpt lat="43.32512" lon="-1.54845">
        <ele>21</ele>
        <time>2021-06-21T09:11:34.519Z</time>
      </trkpt>
      <trkpt lat="43.3252" lon="-1.54838">
        <ele>22</ele>
        <time>2021-06-21T09:11:35.548Z</time>
      </trkpt>
      <trkpt lat="43.32524" lon="-1.54834">
        <ele>22</ele>
        <time>2021-06-21T09:11:36.514Z</time>
      </trkpt>
      <trkpt lat="43.32524" lon="-1.54834">
        <ele>22</ele>
        <time>2021-06-21T09:11:37.520Z</time>
      </trkpt>
      <trkpt lat="43.32532" lon="-1.54826">
        <ele>22</ele>
        <time>2021-06-21T09:11:38.517Z</time>
      </trkpt>
      <trkpt lat="43.32537" lon="-1.54822">
        <ele>23</ele>
        <time>2021-06-21T09:11:39.548Z</time>
      </trkpt>
      <trkpt lat="43.32537" lon="-1.54822">
        <ele>23</ele>
        <time>2021-06-21T09:11:40.514Z</time>
      </trkpt>
      <trkpt lat="43.32548" lon="-1.54813">
        <ele>24</ele>
        <time>2021-06-21T09:11:41.543Z</time>
      </trkpt>
      <trkpt lat="43.32554" lon="-1.54808">
        <ele>24</ele>
        <time>2021-06-21T09:11:42.533Z</time>
      </trkpt>
      <trkpt lat="43.32559" lon="-1.54804">
        <ele>25</ele>
        <time>2021-06-21T09:11:43.513Z</time>
      </trkpt>
      <trkpt lat="43.32559" lon="-1.54804">
        <ele>25</ele>
        <time>2021-06-21T09:11:44.518Z</time>
      </trkpt>
      <trkpt lat="43.32569" lon="-1.54795">
        <ele>25</ele>
        <time>2021-06-21T09:11:45.513Z</time>
      </trkpt>
      <trkpt lat="43.32569" lon="-1.54795">
        <ele>25</ele>
        <time>2021-06-21T09:11:46.519Z</time>
      </trkpt>
      <trkpt lat="43.32579" lon="-1.54785">
        <ele>25</ele>
        <time>2021-06-21T09:11:47.541Z</time>
      </trkpt>
      <trkpt lat="43.32584" lon="-1.54781">
        <ele>26</ele>
        <time>2021-06-21T09:11:48.526Z</time>
      </trkpt>
      <trkpt lat="43.32589" lon="-1.54776">
        <ele>26</ele>
        <time>2021-06-21T09:11:49.526Z</time>
      </trkpt>
      <trkpt lat="43.32589" lon="-1.54776">
        <ele>26</ele>
        <time>2021-06-21T09:11:50.531Z</time>
      </trkpt>
      <trkpt lat="43.32598" lon="-1.54766">
        <ele>27</ele>
        <time>2021-06-21T09:11:51.522Z</time>
      </trkpt>
      <trkpt lat="43.32598" lon="-1.54766">
        <ele>27</ele>
        <time>2021-06-21T09:11:52.527Z</time>
      </trkpt>
      <trkpt lat="43.32608" lon="-1.54757">
        <ele>27</ele>
        <time>2021-06-21T09:11:53.531Z</time>
      </trkpt>
      <trkpt lat="43.32612" lon="-1.54752">
        <ele>27</ele>
        <time>2021-06-21T09:11:54.513Z</time>
      </trkpt>
      <trkpt lat="43.32617" lon="-1.54747">
        <ele>28</ele>
        <time>2021-06-21T09:11:55.542Z</time>
      </trkpt>
      <trkpt lat="43.32617" lon="-1.54747">
        <ele>28</ele>
        <time>2021-06-21T09:11:56.547Z</time>
      </trkpt>
      <trkpt lat="43.32627" lon="-1.54737">
        <ele>28</ele>
        <time>2021-06-21T09:11:57.532Z</time>
      </trkpt>
      <trkpt lat="43.32627" lon="-1.54737">
        <ele>28</ele>
        <time>2021-06-21T09:11:58.538Z</time>
      </trkpt>
      <trkpt lat="43.32637" lon="-1.54728">
        <ele>28</ele>
        <time>2021-06-21T09:11:59.520Z</time>
      </trkpt>
      <trkpt lat="43.32637" lon="-1.54728">
        <ele>28</ele>
        <time>2021-06-21T09:12:00.526Z</time>
      </trkpt>
      <trkpt lat="43.32646" lon="-1.54718">
        <ele>28</ele>
        <time>2021-06-21T09:12:01.524Z</time>
      </trkpt>
      <trkpt lat="43.32646" lon="-1.54718">
        <ele>28</ele>
        <time>2021-06-21T09:12:02.529Z</time>
      </trkpt>
      <trkpt lat="43.32656" lon="-1.54709">
        <ele>29</ele>
        <time>2021-06-21T09:12:03.528Z</time>
      </trkpt>
      <trkpt lat="43.3266" lon="-1.54704">
        <ele>29</ele>
        <time>2021-06-21T09:12:04.515Z</time>
      </trkpt>
      <trkpt lat="43.32665" lon="-1.54699">
        <ele>29</ele>
        <time>2021-06-21T09:12:05.512Z</time>
      </trkpt>
      <trkpt lat="43.32665" lon="-1.54699">
        <ele>29</ele>
        <time>2021-06-21T09:12:06.518Z</time>
      </trkpt>
      <trkpt lat="43.32674" lon="-1.5469">
        <ele>29</ele>
        <time>2021-06-21T09:12:07.513Z</time>
      </trkpt>
      <trkpt lat="43.32674" lon="-1.5469">
        <ele>29</ele>
        <time>2021-06-21T09:12:08.517Z</time>
      </trkpt>
      <trkpt lat="43.32681" lon="-1.54683">
        <ele>29</ele>
        <time>2021-06-21T09:12:09.510Z</time>
      </trkpt>
      <trkpt lat="43.32681" lon="-1.54683">
        <ele>29</ele>
        <time>2021-06-21T09:12:10.515Z</time>
      </trkpt>
      <trkpt lat="43.32686" lon="-1.54678">
        <ele>29</ele>
        <time>2021-06-21T09:12:11.533Z</time>
      </trkpt>
      <trkpt lat="43.32686" lon="-1.54678">
        <ele>29</ele>
        <time>2021-06-21T09:12:12.540Z</time>
      </trkpt>
      <trkpt lat="43.32691" lon="-1.54674">
        <ele>29</ele>
        <time>2021-06-21T09:12:13.543Z</time>
      </trkpt>
      <trkpt lat="43.32691" lon="-1.54674">
        <ele>29</ele>
        <time>2021-06-21T09:12:14.548Z</time>
      </trkpt>
      <trkpt lat="43.32696" lon="-1.54669">
        <ele>29</ele>
        <time>2021-06-21T09:12:15.532Z</time>
      </trkpt>
      <trkpt lat="43.32696" lon="-1.54669">
        <ele>29</ele>
        <time>2021-06-21T09:12:16.538Z</time>
      </trkpt>
      <trkpt lat="43.32702" lon="-1.54663">
        <ele>29</ele>
        <time>2021-06-21T09:12:17.520Z</time>
      </trkpt>
      <trkpt lat="43.32702" lon="-1.54663">
        <ele>29</ele>
        <time>2021-06-21T09:12:18.525Z</time>
      </trkpt>
      <trkpt lat="43.32709" lon="-1.54656">
        <ele>30</ele>
        <time>2021-06-21T09:12:19.525Z</time>
      </trkpt>
      <trkpt lat="43.32709" lon="-1.54656">
        <ele>30</ele>
        <time>2021-06-21T09:12:20.531Z</time>
      </trkpt>
      <trkpt lat="43.32717" lon="-1.54649">
        <ele>30</ele>
        <time>2021-06-21T09:12:21.532Z</time>
      </trkpt>
      <trkpt lat="43.32721" lon="-1.54645">
        <ele>30</ele>
        <time>2021-06-21T09:12:22.545Z</time>
      </trkpt>
      <trkpt lat="43.32721" lon="-1.54645">
        <ele>30</ele>
        <time>2021-06-21T09:12:23.536Z</time>
      </trkpt>
      <trkpt lat="43.32729" lon="-1.54637">
        <ele>30</ele>
        <time>2021-06-21T09:12:24.514Z</time>
      </trkpt>
      <trkpt lat="43.32729" lon="-1.54637">
        <ele>30</ele>
        <time>2021-06-21T09:12:25.520Z</time>
      </trkpt>
      <trkpt lat="43.32737" lon="-1.54628">
        <ele>30</ele>
        <time>2021-06-21T09:12:26.522Z</time>
      </trkpt>
      <trkpt lat="43.32737" lon="-1.54628">
        <ele>30</ele>
        <time>2021-06-21T09:12:27.527Z</time>
      </trkpt>
      <trkpt lat="43.32744" lon="-1.54619">
        <ele>31</ele>
        <time>2021-06-21T09:12:28.520Z</time>
      </trkpt>
      <trkpt lat="43.32744" lon="-1.54619">
        <ele>31</ele>
        <time>2021-06-21T09:12:29.525Z</time>
      </trkpt>
      <trkpt lat="43.32752" lon="-1.5461">
        <ele>31</ele>
        <time>2021-06-21T09:12:30.522Z</time>
      </trkpt>
      <trkpt lat="43.32756" lon="-1.54606">
        <ele>31</ele>
        <time>2021-06-21T09:12:31.513Z</time>
      </trkpt>
      <trkpt lat="43.32756" lon="-1.54606">
        <ele>31</ele>
        <time>2021-06-21T09:12:32.527Z</time>
      </trkpt>
      <trkpt lat="43.32764" lon="-1.54597">
        <ele>32</ele>
        <time>2021-06-21T09:12:33.522Z</time>
      </trkpt>
      <trkpt lat="43.32764" lon="-1.54597">
        <ele>32</ele>
        <time>2021-06-21T09:12:34.527Z</time>
      </trkpt>
      <trkpt lat="43.32773" lon="-1.54589">
        <ele>32</ele>
        <time>2021-06-21T09:12:35.510Z</time>
      </trkpt>
      <trkpt lat="43.32773" lon="-1.54589">
        <ele>32</ele>
        <time>2021-06-21T09:12:36.516Z</time>
      </trkpt>
      <trkpt lat="43.32781" lon="-1.54582">
        <ele>32</ele>
        <time>2021-06-21T09:12:37.513Z</time>
      </trkpt>
      <trkpt lat="43.32781" lon="-1.54582">
        <ele>32</ele>
        <time>2021-06-21T09:12:38.519Z</time>
      </trkpt>
      <trkpt lat="43.32788" lon="-1.54575">
        <ele>33</ele>
        <time>2021-06-21T09:12:39.523Z</time>
      </trkpt>
      <trkpt lat="43.32788" lon="-1.54575">
        <ele>33</ele>
        <time>2021-06-21T09:12:40.528Z</time>
      </trkpt>
      <trkpt lat="43.32796" lon="-1.54568">
        <ele>34</ele>
        <time>2021-06-21T09:12:41.526Z</time>
      </trkpt>
      <trkpt lat="43.32796" lon="-1.54568">
        <ele>34</ele>
        <time>2021-06-21T09:12:42.533Z</time>
      </trkpt>
      <trkpt lat="43.32804" lon="-1.5456">
        <ele>34</ele>
        <time>2021-06-21T09:12:43.513Z</time>
      </trkpt>
      <trkpt lat="43.32804" lon="-1.5456">
        <ele>34</ele>
        <time>2021-06-21T09:12:44.518Z</time>
      </trkpt>
      <trkpt lat="43.32812" lon="-1.54552">
        <ele>35</ele>
        <time>2021-06-21T09:12:45.520Z</time>
      </trkpt>
      <trkpt lat="43.32812" lon="-1.54552">
        <ele>35</ele>
        <time>2021-06-21T09:12:46.526Z</time>
      </trkpt>
      <trkpt lat="43.3282" lon="-1.54544">
        <ele>35</ele>
        <time>2021-06-21T09:12:47.528Z</time>
      </trkpt>
      <trkpt lat="43.3282" lon="-1.54544">
        <ele>35</ele>
        <time>2021-06-21T09:12:48.535Z</time>
      </trkpt>
      <trkpt lat="43.32827" lon="-1.54535">
        <ele>36</ele>
        <time>2021-06-21T09:12:49.542Z</time>
      </trkpt>
      <trkpt lat="43.32827" lon="-1.54535">
        <ele>36</ele>
        <time>2021-06-21T09:12:50.547Z</time>
      </trkpt>
      <trkpt lat="43.32834" lon="-1.54528">
        <ele>36</ele>
        <time>2021-06-21T09:12:51.532Z</time>
      </trkpt>
      <trkpt lat="43.32834" lon="-1.54528">
        <ele>36</ele>
        <time>2021-06-21T09:12:52.538Z</time>
      </trkpt>
      <trkpt lat="43.32842" lon="-1.54521">
        <ele>36</ele>
        <time>2021-06-21T09:12:53.523Z</time>
      </trkpt>
      <trkpt lat="43.32842" lon="-1.54521">
        <ele>36</ele>
        <time>2021-06-21T09:12:54.530Z</time>
      </trkpt>
      <trkpt lat="43.3285" lon="-1.54514">
        <ele>37</ele>
        <time>2021-06-21T09:12:55.525Z</time>
      </trkpt>
      <trkpt lat="43.3285" lon="-1.54514">
        <ele>37</ele>
        <time>2021-06-21T09:12:56.531Z</time>
      </trkpt>
      <trkpt lat="43.32858" lon="-1.54509">
        <ele>37</ele>
        <time>2021-06-21T09:12:57.530Z</time>
      </trkpt>
      <trkpt lat="43.32861" lon="-1.54506">
        <ele>37</ele>
        <time>2021-06-21T09:12:58.512Z</time>
      </trkpt>
      <trkpt lat="43.32861" lon="-1.54506">
        <ele>37</ele>
        <time>2021-06-21T09:12:59.518Z</time>
      </trkpt>
      <trkpt lat="43.3287" lon="-1.545">
        <ele>37</ele>
        <time>2021-06-21T09:13:00.509Z</time>
      </trkpt>
      <trkpt lat="43.32874" lon="-1.54497">
        <ele>36</ele>
        <time>2021-06-21T09:13:01.533Z</time>
      </trkpt>
      <trkpt lat="43.32874" lon="-1.54497">
        <ele>36</ele>
        <time>2021-06-21T09:13:02.542Z</time>
      </trkpt>
      <trkpt lat="43.32882" lon="-1.54492">
        <ele>36</ele>
        <time>2021-06-21T09:13:03.521Z</time>
      </trkpt>
      <trkpt lat="43.32882" lon="-1.54492">
        <ele>36</ele>
        <time>2021-06-21T09:13:04.522Z</time>
      </trkpt>
      <trkpt lat="43.32892" lon="-1.54486">
        <ele>36</ele>
        <time>2021-06-21T09:13:05.515Z</time>
      </trkpt>
      <trkpt lat="43.32892" lon="-1.54486">
        <ele>36</ele>
        <time>2021-06-21T09:13:06.521Z</time>
      </trkpt>
      <trkpt lat="43.32901" lon="-1.54481">
        <ele>36</ele>
        <time>2021-06-21T09:13:07.520Z</time>
      </trkpt>
      <trkpt lat="43.32901" lon="-1.54481">
        <ele>36</ele>
        <time>2021-06-21T09:13:08.525Z</time>
      </trkpt>
      <trkpt lat="43.3291" lon="-1.54475">
        <ele>36</ele>
        <time>2021-06-21T09:13:09.522Z</time>
      </trkpt>
      <trkpt lat="43.3291" lon="-1.54475">
        <ele>36</ele>
        <time>2021-06-21T09:13:10.527Z</time>
      </trkpt>
      <trkpt lat="43.32919" lon="-1.5447">
        <ele>36</ele>
        <time>2021-06-21T09:13:11.530Z</time>
      </trkpt>
      <trkpt lat="43.32919" lon="-1.5447">
        <ele>36</ele>
        <time>2021-06-21T09:13:12.538Z</time>
      </trkpt>
      <trkpt lat="43.32928" lon="-1.54463">
        <ele>36</ele>
        <time>2021-06-21T09:13:13.537Z</time>
      </trkpt>
      <trkpt lat="43.32928" lon="-1.54463">
        <ele>36</ele>
        <time>2021-06-21T09:13:14.546Z</time>
      </trkpt>
      <trkpt lat="43.32937" lon="-1.54458">
        <ele>36</ele>
        <time>2021-06-21T09:13:15.534Z</time>
      </trkpt>
      <trkpt lat="43.32937" lon="-1.54458">
        <ele>36</ele>
        <time>2021-06-21T09:13:16.539Z</time>
      </trkpt>
      <trkpt lat="43.32946" lon="-1.54453">
        <ele>36</ele>
        <time>2021-06-21T09:13:17.537Z</time>
      </trkpt>
      <trkpt lat="43.32951" lon="-1.54451">
        <ele>36</ele>
        <time>2021-06-21T09:13:18.539Z</time>
      </trkpt>
      <trkpt lat="43.32951" lon="-1.54451">
        <ele>36</ele>
        <time>2021-06-21T09:13:19.545Z</time>
      </trkpt>
      <trkpt lat="43.3296" lon="-1.54447">
        <ele>36</ele>
        <time>2021-06-21T09:13:20.513Z</time>
      </trkpt>
      <trkpt lat="43.3296" lon="-1.54447">
        <ele>36</ele>
        <time>2021-06-21T09:13:21.518Z</time>
      </trkpt>
      <trkpt lat="43.3297" lon="-1.54442">
        <ele>36</ele>
        <time>2021-06-21T09:13:22.530Z</time>
      </trkpt>
      <trkpt lat="43.3297" lon="-1.54442">
        <ele>36</ele>
        <time>2021-06-21T09:13:23.523Z</time>
      </trkpt>
      <trkpt lat="43.3298" lon="-1.54437">
        <ele>36</ele>
        <time>2021-06-21T09:13:24.511Z</time>
      </trkpt>
      <trkpt lat="43.32985" lon="-1.54435">
        <ele>36</ele>
        <time>2021-06-21T09:13:25.542Z</time>
      </trkpt>
      <trkpt lat="43.32985" lon="-1.54435">
        <ele>36</ele>
        <time>2021-06-21T09:13:26.547Z</time>
      </trkpt>
      <trkpt lat="43.32995" lon="-1.54432">
        <ele>36</ele>
        <time>2021-06-21T09:13:27.514Z</time>
      </trkpt>
      <trkpt lat="43.32995" lon="-1.54432">
        <ele>36</ele>
        <time>2021-06-21T09:13:28.519Z</time>
      </trkpt>
      <trkpt lat="43.33005" lon="-1.5443">
        <ele>36</ele>
        <time>2021-06-21T09:13:29.520Z</time>
      </trkpt>
      <trkpt lat="43.33009" lon="-1.54431">
        <ele>36</ele>
        <time>2021-06-21T09:13:30.510Z</time>
      </trkpt>
      <trkpt lat="43.33013" lon="-1.54433">
        <ele>37</ele>
        <time>2021-06-21T09:13:31.541Z</time>
      </trkpt>
      <trkpt lat="43.33013" lon="-1.54433">
        <ele>37</ele>
        <time>2021-06-21T09:13:32.510Z</time>
      </trkpt>
      <trkpt lat="43.33025" lon="-1.54435">
        <ele>36</ele>
        <time>2021-06-21T09:13:33.538Z</time>
      </trkpt>
      <trkpt lat="43.33025" lon="-1.54435">
        <ele>36</ele>
        <time>2021-06-21T09:13:34.547Z</time>
      </trkpt>
      <trkpt lat="43.33036" lon="-1.5444">
        <ele>36</ele>
        <time>2021-06-21T09:13:35.521Z</time>
      </trkpt>
      <trkpt lat="43.33036" lon="-1.5444">
        <ele>36</ele>
        <time>2021-06-21T09:13:36.527Z</time>
      </trkpt>
      <trkpt lat="43.33046" lon="-1.54445">
        <ele>36</ele>
        <time>2021-06-21T09:13:37.522Z</time>
      </trkpt>
      <trkpt lat="43.33046" lon="-1.54445">
        <ele>36</ele>
        <time>2021-06-21T09:13:38.527Z</time>
      </trkpt>
      <trkpt lat="43.33056" lon="-1.54452">
        <ele>36</ele>
        <time>2021-06-21T09:13:39.518Z</time>
      </trkpt>
      <trkpt lat="43.3306" lon="-1.54456">
        <ele>35</ele>
        <time>2021-06-21T09:13:40.529Z</time>
      </trkpt>
      <trkpt lat="43.3306" lon="-1.54456">
        <ele>35</ele>
        <time>2021-06-21T09:13:41.534Z</time>
      </trkpt>
      <trkpt lat="43.33068" lon="-1.54463">
        <ele>35</ele>
        <time>2021-06-21T09:13:42.529Z</time>
      </trkpt>
      <trkpt lat="43.33072" lon="-1.54467">
        <ele>35</ele>
        <time>2021-06-21T09:13:43.523Z</time>
      </trkpt>
      <trkpt lat="43.33072" lon="-1.54467">
        <ele>35</ele>
        <time>2021-06-21T09:13:44.527Z</time>
      </trkpt>
      <trkpt lat="43.3308" lon="-1.54476">
        <ele>34</ele>
        <time>2021-06-21T09:13:45.522Z</time>
      </trkpt>
      <trkpt lat="43.3308" lon="-1.54476">
        <ele>34</ele>
        <time>2021-06-21T09:13:46.527Z</time>
      </trkpt>
      <trkpt lat="43.33087" lon="-1.54486">
        <ele>34</ele>
        <time>2021-06-21T09:13:47.523Z</time>
      </trkpt>
      <trkpt lat="43.33087" lon="-1.54486">
        <ele>34</ele>
        <time>2021-06-21T09:13:48.529Z</time>
      </trkpt>
      <trkpt lat="43.33095" lon="-1.54495">
        <ele>34</ele>
        <time>2021-06-21T09:13:49.523Z</time>
      </trkpt>
      <trkpt lat="43.33095" lon="-1.54495">
        <ele>34</ele>
        <time>2021-06-21T09:13:50.528Z</time>
      </trkpt>
      <trkpt lat="43.33104" lon="-1.54505">
        <ele>33</ele>
        <time>2021-06-21T09:13:51.516Z</time>
      </trkpt>
      <trkpt lat="43.33104" lon="-1.54505">
        <ele>33</ele>
        <time>2021-06-21T09:13:52.521Z</time>
      </trkpt>
      <trkpt lat="43.33112" lon="-1.54514">
        <ele>32</ele>
        <time>2021-06-21T09:13:53.527Z</time>
      </trkpt>
      <trkpt lat="43.33112" lon="-1.54514">
        <ele>32</ele>
        <time>2021-06-21T09:13:54.533Z</time>
      </trkpt>
      <trkpt lat="43.3312" lon="-1.54524">
        <ele>31</ele>
        <time>2021-06-21T09:13:55.532Z</time>
      </trkpt>
      <trkpt lat="43.3312" lon="-1.54524">
        <ele>31</ele>
        <time>2021-06-21T09:13:56.542Z</time>
      </trkpt>
      <trkpt lat="43.33129" lon="-1.54534">
        <ele>31</ele>
        <time>2021-06-21T09:13:57.523Z</time>
      </trkpt>
      <trkpt lat="43.33129" lon="-1.54534">
        <ele>31</ele>
        <time>2021-06-21T09:13:58.528Z</time>
      </trkpt>
      <trkpt lat="43.33137" lon="-1.54545">
        <ele>31</ele>
        <time>2021-06-21T09:13:59.535Z</time>
      </trkpt>
      <trkpt lat="43.33141" lon="-1.54549">
        <ele>31</ele>
        <time>2021-06-21T09:14:00.509Z</time>
      </trkpt>
      <trkpt lat="43.33141" lon="-1.54549">
        <ele>31</ele>
        <time>2021-06-21T09:14:01.514Z</time>
      </trkpt>
      <trkpt lat="43.33149" lon="-1.54558">
        <ele>31</ele>
        <time>2021-06-21T09:14:02.530Z</time>
      </trkpt>
      <trkpt lat="43.33149" lon="-1.54558">
        <ele>31</ele>
        <time>2021-06-21T09:14:03.535Z</time>
      </trkpt>
      <trkpt lat="43.33156" lon="-1.54566">
        <ele>31</ele>
        <time>2021-06-21T09:14:04.547Z</time>
      </trkpt>
      <trkpt lat="43.33159" lon="-1.54571">
        <ele>32</ele>
        <time>2021-06-21T09:14:05.531Z</time>
      </trkpt>
      <trkpt lat="43.33159" lon="-1.54571">
        <ele>32</ele>
        <time>2021-06-21T09:14:06.541Z</time>
      </trkpt>
      <trkpt lat="43.33164" lon="-1.54579">
        <ele>32</ele>
        <time>2021-06-21T09:14:07.525Z</time>
      </trkpt>
      <trkpt lat="43.33164" lon="-1.54579">
        <ele>32</ele>
        <time>2021-06-21T09:14:08.530Z</time>
      </trkpt>
      <trkpt lat="43.33169" lon="-1.54588">
        <ele>31</ele>
        <time>2021-06-21T09:14:09.530Z</time>
      </trkpt>
      <trkpt lat="43.33169" lon="-1.54588">
        <ele>31</ele>
        <time>2021-06-21T09:14:10.536Z</time>
      </trkpt>
      <trkpt lat="43.33173" lon="-1.54598">
        <ele>31</ele>
        <time>2021-06-21T09:14:11.526Z</time>
      </trkpt>
      <trkpt lat="43.33173" lon="-1.54598">
        <ele>31</ele>
        <time>2021-06-21T09:14:12.532Z</time>
      </trkpt>
      <trkpt lat="43.33177" lon="-1.54607">
        <ele>31</ele>
        <time>2021-06-21T09:14:13.528Z</time>
      </trkpt>
      <trkpt lat="43.33177" lon="-1.54607">
        <ele>31</ele>
        <time>2021-06-21T09:14:14.533Z</time>
      </trkpt>
      <trkpt lat="43.3318" lon="-1.54617">
        <ele>32</ele>
        <time>2021-06-21T09:14:15.532Z</time>
      </trkpt>
      <trkpt lat="43.3318" lon="-1.54617">
        <ele>32</ele>
        <time>2021-06-21T09:14:16.538Z</time>
      </trkpt>
      <trkpt lat="43.33183" lon="-1.54627">
        <ele>31</ele>
        <time>2021-06-21T09:14:17.512Z</time>
      </trkpt>
      <trkpt lat="43.33185" lon="-1.54631">
        <ele>31</ele>
        <time>2021-06-21T09:14:18.541Z</time>
      </trkpt>
      <trkpt lat="43.33186" lon="-1.54636">
        <ele>32</ele>
        <time>2021-06-21T09:14:19.528Z</time>
      </trkpt>
      <trkpt lat="43.33186" lon="-1.54636">
        <ele>32</ele>
        <time>2021-06-21T09:14:20.534Z</time>
      </trkpt>
      <trkpt lat="43.33189" lon="-1.54645">
        <ele>32</ele>
        <time>2021-06-21T09:14:21.535Z</time>
      </trkpt>
      <trkpt lat="43.33189" lon="-1.54645">
        <ele>32</ele>
        <time>2021-06-21T09:14:22.511Z</time>
      </trkpt>
      <trkpt lat="43.33191" lon="-1.54654">
        <ele>32</ele>
        <time>2021-06-21T09:14:23.541Z</time>
      </trkpt>
      <trkpt lat="43.33192" lon="-1.54658">
        <ele>32</ele>
        <time>2021-06-21T09:14:24.541Z</time>
      </trkpt>
      <trkpt lat="43.33194" lon="-1.54663">
        <ele>32</ele>
        <time>2021-06-21T09:14:25.540Z</time>
      </trkpt>
      <trkpt lat="43.33194" lon="-1.54663">
        <ele>32</ele>
        <time>2021-06-21T09:14:26.546Z</time>
      </trkpt>
      <trkpt lat="43.33197" lon="-1.54671">
        <ele>32</ele>
        <time>2021-06-21T09:14:27.540Z</time>
      </trkpt>
      <trkpt lat="43.33197" lon="-1.54671">
        <ele>32</ele>
        <time>2021-06-21T09:14:28.546Z</time>
      </trkpt>
      <trkpt lat="43.33201" lon="-1.54679">
        <ele>33</ele>
        <time>2021-06-21T09:14:29.536Z</time>
      </trkpt>
      <trkpt lat="43.33201" lon="-1.54679">
        <ele>33</ele>
        <time>2021-06-21T09:14:30.543Z</time>
      </trkpt>
      <trkpt lat="43.33205" lon="-1.54686">
        <ele>34</ele>
        <time>2021-06-21T09:14:31.532Z</time>
      </trkpt>
      <trkpt lat="43.33205" lon="-1.54686">
        <ele>34</ele>
        <time>2021-06-21T09:14:32.540Z</time>
      </trkpt>
      <trkpt lat="43.3321" lon="-1.54693">
        <ele>34</ele>
        <time>2021-06-21T09:14:33.537Z</time>
      </trkpt>
      <trkpt lat="43.33213" lon="-1.54696">
        <ele>35</ele>
        <time>2021-06-21T09:14:34.532Z</time>
      </trkpt>
      <trkpt lat="43.33213" lon="-1.54696">
        <ele>35</ele>
        <time>2021-06-21T09:14:35.540Z</time>
      </trkpt>
      <trkpt lat="43.33218" lon="-1.54703">
        <ele>36</ele>
        <time>2021-06-21T09:14:36.532Z</time>
      </trkpt>
      <trkpt lat="43.33221" lon="-1.54706">
        <ele>36</ele>
        <time>2021-06-21T09:14:37.525Z</time>
      </trkpt>
      <trkpt lat="43.33221" lon="-1.54706">
        <ele>36</ele>
        <time>2021-06-21T09:14:38.530Z</time>
      </trkpt>
      <trkpt lat="43.33226" lon="-1.54712">
        <ele>37</ele>
        <time>2021-06-21T09:14:39.536Z</time>
      </trkpt>
      <trkpt lat="43.33226" lon="-1.54712">
        <ele>37</ele>
        <time>2021-06-21T09:14:40.543Z</time>
      </trkpt>
      <trkpt lat="43.33232" lon="-1.54718">
        <ele>37</ele>
        <time>2021-06-21T09:14:41.525Z</time>
      </trkpt>
      <trkpt lat="43.33232" lon="-1.54718">
        <ele>37</ele>
        <time>2021-06-21T09:14:42.530Z</time>
      </trkpt>
      <trkpt lat="43.33237" lon="-1.54723">
        <ele>37</ele>
        <time>2021-06-21T09:14:43.542Z</time>
      </trkpt>
      <trkpt lat="43.3324" lon="-1.54726">
        <ele>37</ele>
        <time>2021-06-21T09:14:44.527Z</time>
      </trkpt>
      <trkpt lat="43.3324" lon="-1.54726">
        <ele>37</ele>
        <time>2021-06-21T09:14:45.533Z</time>
      </trkpt>
      <trkpt lat="43.33245" lon="-1.54731">
        <ele>38</ele>
        <time>2021-06-21T09:14:46.530Z</time>
      </trkpt>
      <trkpt lat="43.33245" lon="-1.54731">
        <ele>38</ele>
        <time>2021-06-21T09:14:47.543Z</time>
      </trkpt>
      <trkpt lat="43.33251" lon="-1.54737">
        <ele>38</ele>
        <time>2021-06-21T09:14:48.532Z</time>
      </trkpt>
      <trkpt lat="43.33254" lon="-1.5474">
        <ele>38</ele>
        <time>2021-06-21T09:14:49.531Z</time>
      </trkpt>
      <trkpt lat="43.33257" lon="-1.54743">
        <ele>39</ele>
        <time>2021-06-21T09:14:50.516Z</time>
      </trkpt>
      <trkpt lat="43.33257" lon="-1.54743">
        <ele>39</ele>
        <time>2021-06-21T09:14:51.522Z</time>
      </trkpt>
      <trkpt lat="43.33263" lon="-1.5475">
        <ele>39</ele>
        <time>2021-06-21T09:14:52.512Z</time>
      </trkpt>
      <trkpt lat="43.33263" lon="-1.5475">
        <ele>39</ele>
        <time>2021-06-21T09:14:53.517Z</time>
      </trkpt>
      <trkpt lat="43.33271" lon="-1.54757">
        <ele>39</ele>
        <time>2021-06-21T09:14:54.541Z</time>
      </trkpt>
      <trkpt lat="43.33274" lon="-1.54761">
        <ele>39</ele>
        <time>2021-06-21T09:14:55.540Z</time>
      </trkpt>
      <trkpt lat="43.33274" lon="-1.54761">
        <ele>39</ele>
        <time>2021-06-21T09:14:56.530Z</time>
      </trkpt>
      <trkpt lat="43.33283" lon="-1.54768">
        <ele>39</ele>
        <time>2021-06-21T09:14:57.525Z</time>
      </trkpt>
      <trkpt lat="43.33283" lon="-1.54768">
        <ele>39</ele>
        <time>2021-06-21T09:14:58.530Z</time>
      </trkpt>
      <trkpt lat="43.33291" lon="-1.54777">
        <ele>38</ele>
        <time>2021-06-21T09:14:59.511Z</time>
      </trkpt>
      <trkpt lat="43.33291" lon="-1.54777">
        <ele>38</ele>
        <time>2021-06-21T09:15:00.517Z</time>
      </trkpt>
      <trkpt lat="43.33302" lon="-1.54785">
        <ele>37</ele>
        <time>2021-06-21T09:15:01.512Z</time>
      </trkpt>
      <trkpt lat="43.33302" lon="-1.54785">
        <ele>37</ele>
        <time>2021-06-21T09:15:02.518Z</time>
      </trkpt>
      <trkpt lat="43.33313" lon="-1.54795">
        <ele>36</ele>
        <time>2021-06-21T09:15:03.538Z</time>
      </trkpt>
      <trkpt lat="43.33313" lon="-1.54795">
        <ele>36</ele>
        <time>2021-06-21T09:15:04.543Z</time>
      </trkpt>
      <trkpt lat="43.33325" lon="-1.54804">
        <ele>36</ele>
        <time>2021-06-21T09:15:05.532Z</time>
      </trkpt>
      <trkpt lat="43.33325" lon="-1.54804">
        <ele>36</ele>
        <time>2021-06-21T09:15:06.538Z</time>
      </trkpt>
      <trkpt lat="43.3334" lon="-1.5481">
        <ele>35</ele>
        <time>2021-06-21T09:15:07.524Z</time>
      </trkpt>
      <trkpt lat="43.3334" lon="-1.5481">
        <ele>35</ele>
        <time>2021-06-21T09:15:08.530Z</time>
      </trkpt>
      <trkpt lat="43.33355" lon="-1.54813">
        <ele>34</ele>
        <time>2021-06-21T09:15:09.532Z</time>
      </trkpt>
      <trkpt lat="43.33355" lon="-1.54813">
        <ele>34</ele>
        <time>2021-06-21T09:15:10.540Z</time>
      </trkpt>
      <trkpt lat="43.3337" lon="-1.54817">
        <ele>34</ele>
        <time>2021-06-21T09:15:11.532Z</time>
      </trkpt>
      <trkpt lat="43.3337" lon="-1.54817">
        <ele>34</ele>
        <time>2021-06-21T09:15:12.539Z</time>
      </trkpt>
      <trkpt lat="43.33385" lon="-1.5482">
        <ele>33</ele>
        <time>2021-06-21T09:15:13.527Z</time>
      </trkpt>
      <trkpt lat="43.33385" lon="-1.5482">
        <ele>33</ele>
        <time>2021-06-21T09:15:14.533Z</time>
      </trkpt>
      <trkpt lat="43.334" lon="-1.54823">
        <ele>33</ele>
        <time>2021-06-21T09:15:15.534Z</time>
      </trkpt>
      <trkpt lat="43.334" lon="-1.54823">
        <ele>33</ele>
        <time>2021-06-21T09:15:16.540Z</time>
      </trkpt>
      <trkpt lat="43.33415" lon="-1.54826">
        <ele>32</ele>
        <time>2021-06-21T09:15:17.542Z</time>
      </trkpt>
      <trkpt lat="43.33415" lon="-1.54826">
        <ele>32</ele>
        <time>2021-06-21T09:15:18.547Z</time>
      </trkpt>
      <trkpt lat="43.33429" lon="-1.54829">
        <ele>32</ele>
        <time>2021-06-21T09:15:19.510Z</time>
      </trkpt>
      <trkpt lat="43.33429" lon="-1.54829">
        <ele>32</ele>
        <time>2021-06-21T09:15:20.516Z</time>
      </trkpt>
      <trkpt lat="43.33442" lon="-1.54832">
        <ele>32</ele>
        <time>2021-06-21T09:15:21.543Z</time>
      </trkpt>
      <trkpt lat="43.33442" lon="-1.54832">
        <ele>32</ele>
        <time>2021-06-21T09:15:22.520Z</time>
      </trkpt>
      <trkpt lat="43.33454" lon="-1.54836">
        <ele>32</ele>
        <time>2021-06-21T09:15:23.533Z</time>
      </trkpt>
      <trkpt lat="43.33461" lon="-1.54838">
        <ele>32</ele>
        <time>2021-06-21T09:15:24.528Z</time>
      </trkpt>
      <trkpt lat="43.33467" lon="-1.54841">
        <ele>31</ele>
        <time>2021-06-21T09:15:25.532Z</time>
      </trkpt>
      <trkpt lat="43.33467" lon="-1.54841">
        <ele>31</ele>
        <time>2021-06-21T09:15:26.540Z</time>
      </trkpt>
      <trkpt lat="43.33478" lon="-1.54845">
        <ele>31</ele>
        <time>2021-06-21T09:15:27.518Z</time>
      </trkpt>
      <trkpt lat="43.33478" lon="-1.54845">
        <ele>31</ele>
        <time>2021-06-21T09:15:28.524Z</time>
      </trkpt>
      <trkpt lat="43.33489" lon="-1.5485">
        <ele>31</ele>
        <time>2021-06-21T09:15:29.532Z</time>
      </trkpt>
      <trkpt lat="43.33489" lon="-1.5485">
        <ele>31</ele>
        <time>2021-06-21T09:15:30.540Z</time>
      </trkpt>
      <trkpt lat="43.33499" lon="-1.54854">
        <ele>31</ele>
        <time>2021-06-21T09:15:31.542Z</time>
      </trkpt>
      <trkpt lat="43.33499" lon="-1.54854">
        <ele>31</ele>
        <time>2021-06-21T09:15:32.510Z</time>
      </trkpt>
      <trkpt lat="43.33507" lon="-1.54856">
        <ele>30</ele>
        <time>2021-06-21T09:15:33.512Z</time>
      </trkpt>
      <trkpt lat="43.33507" lon="-1.54856">
        <ele>30</ele>
        <time>2021-06-21T09:15:34.517Z</time>
      </trkpt>
      <trkpt lat="43.33513" lon="-1.54859">
        <ele>30</ele>
        <time>2021-06-21T09:15:35.541Z</time>
      </trkpt>
      <trkpt lat="43.33516" lon="-1.54859">
        <ele>30</ele>
        <time>2021-06-21T09:15:36.524Z</time>
      </trkpt>
      <trkpt lat="43.33516" lon="-1.54859">
        <ele>30</ele>
        <time>2021-06-21T09:15:37.529Z</time>
      </trkpt>
      <trkpt lat="43.33517" lon="-1.54859">
        <ele>30</ele>
        <time>2021-06-21T09:15:38.525Z</time>
      </trkpt>
      <trkpt lat="43.33516" lon="-1.5486">
        <ele>30</ele>
        <time>2021-06-21T09:15:39.539Z</time>
      </trkpt>
      <trkpt lat="43.33516" lon="-1.5486">
        <ele>30</ele>
        <time>2021-06-21T09:15:40.545Z</time>
      </trkpt>
      <trkpt lat="43.33517" lon="-1.5486">
        <ele>30</ele>
        <time>2021-06-21T09:15:41.512Z</time>
      </trkpt>
      <trkpt lat="43.33517" lon="-1.5486">
        <ele>30</ele>
        <time>2021-06-21T09:15:42.518Z</time>
      </trkpt>
      <trkpt lat="43.33517" lon="-1.5486">
        <ele>30</ele>
        <time>2021-06-21T09:15:43.524Z</time>
      </trkpt>
      <trkpt lat="43.33517" lon="-1.5486">
        <ele>30</ele>
        <time>2021-06-21T09:15:44.541Z</time>
      </trkpt>
      <trkpt lat="43.33517" lon="-1.5486">
        <ele>30</ele>
        <time>2021-06-21T09:15:45.517Z</time>
      </trkpt>
      <trkpt lat="43.33517" lon="-1.5486">
        <ele>30</ele>
        <time>2021-06-21T09:15:46.538Z</time>
      </trkpt>
      <trkpt lat="43.33517" lon="-1.5486">
        <ele>30</ele>
        <time>2021-06-21T09:15:47.521Z</time>
      </trkpt>
      <trkpt lat="43.33517" lon="-1.5486">
        <ele>30</ele>
        <time>2021-06-21T09:15:48.537Z</time>
      </trkpt>
      <trkpt lat="43.33517" lon="-1.5486">
        <ele>30</ele>
        <time>2021-06-21T09:15:49.518Z</time>
      </trkpt>
      <trkpt lat="43.33517" lon="-1.5486">
        <ele>30</ele>
        <time>2021-06-21T09:15:50.545Z</time>
      </trkpt>
      <trkpt lat="43.33517" lon="-1.5486">
        <ele>30</ele>
        <time>2021-06-21T09:15:51.523Z</time>
      </trkpt>
      <trkpt lat="43.33517" lon="-1.5486">
        <ele>30</ele>
        <time>2021-06-21T09:15:52.540Z</time>
      </trkpt>
      <trkpt lat="43.33517" lon="-1.5486">
        <ele>30</ele>
        <time>2021-06-21T09:15:53.516Z</time>
      </trkpt>
      <trkpt lat="43.33522" lon="-1.54861">
        <ele>30</ele>
        <time>2021-06-21T09:15:54.528Z</time>
      </trkpt>
      <trkpt lat="43.33525" lon="-1.54862">
        <ele>30</ele>
        <time>2021-06-21T09:15:55.519Z</time>
      </trkpt>
      <trkpt lat="43.33525" lon="-1.54862">
        <ele>30</ele>
        <time>2021-06-21T09:15:56.538Z</time>
      </trkpt>
      <trkpt lat="43.3353" lon="-1.54864">
        <ele>30</ele>
        <time>2021-06-21T09:15:57.520Z</time>
      </trkpt>
      <trkpt lat="43.33534" lon="-1.54866">
        <ele>30</ele>
        <time>2021-06-21T09:15:58.544Z</time>
      </trkpt>
      <trkpt lat="43.33534" lon="-1.54866">
        <ele>30</ele>
        <time>2021-06-21T09:15:59.520Z</time>
      </trkpt>
      <trkpt lat="43.33541" lon="-1.5487">
        <ele>31</ele>
        <time>2021-06-21T09:16:00.515Z</time>
      </trkpt>
      <trkpt lat="43.33541" lon="-1.5487">
        <ele>31</ele>
        <time>2021-06-21T09:16:01.520Z</time>
      </trkpt>
      <trkpt lat="43.33548" lon="-1.54873">
        <ele>31</ele>
        <time>2021-06-21T09:16:02.527Z</time>
      </trkpt>
      <trkpt lat="43.33552" lon="-1.54875">
        <ele>31</ele>
        <time>2021-06-21T09:16:03.522Z</time>
      </trkpt>
      <trkpt lat="43.33552" lon="-1.54875">
        <ele>31</ele>
        <time>2021-06-21T09:16:04.528Z</time>
      </trkpt>
      <trkpt lat="43.33559" lon="-1.54879">
        <ele>31</ele>
        <time>2021-06-21T09:16:05.511Z</time>
      </trkpt>
      <trkpt lat="43.33559" lon="-1.54879">
        <ele>31</ele>
        <time>2021-06-21T09:16:06.516Z</time>
      </trkpt>
      <trkpt lat="43.33567" lon="-1.54882">
        <ele>31</ele>
        <time>2021-06-21T09:16:07.512Z</time>
      </trkpt>
      <trkpt lat="43.33567" lon="-1.54882">
        <ele>31</ele>
        <time>2021-06-21T09:16:08.517Z</time>
      </trkpt>
      <trkpt lat="43.33575" lon="-1.54886">
        <ele>31</ele>
        <time>2021-06-21T09:16:09.514Z</time>
      </trkpt>
      <trkpt lat="43.33579" lon="-1.54888">
        <ele>31</ele>
        <time>2021-06-21T09:16:10.511Z</time>
      </trkpt>
      <trkpt lat="43.33579" lon="-1.54888">
        <ele>31</ele>
        <time>2021-06-21T09:16:11.516Z</time>
      </trkpt>
      <trkpt lat="43.33587" lon="-1.54892">
        <ele>32</ele>
        <time>2021-06-21T09:16:12.538Z</time>
      </trkpt>
      <trkpt lat="43.33591" lon="-1.54894">
        <ele>32</ele>
        <time>2021-06-21T09:16:13.529Z</time>
      </trkpt>
      <trkpt lat="43.33591" lon="-1.54894">
        <ele>32</ele>
        <time>2021-06-21T09:16:14.534Z</time>
      </trkpt>
      <trkpt lat="43.33599" lon="-1.54898">
        <ele>32</ele>
        <time>2021-06-21T09:16:15.533Z</time>
      </trkpt>
      <trkpt lat="43.33599" lon="-1.54898">
        <ele>32</ele>
        <time>2021-06-21T09:16:16.540Z</time>
      </trkpt>
      <trkpt lat="43.33608" lon="-1.54901">
        <ele>33</ele>
        <time>2021-06-21T09:16:17.526Z</time>
      </trkpt>
      <trkpt lat="43.33608" lon="-1.54901">
        <ele>33</ele>
        <time>2021-06-21T09:16:18.531Z</time>
      </trkpt>
      <trkpt lat="43.33616" lon="-1.54905">
        <ele>33</ele>
        <time>2021-06-21T09:16:19.532Z</time>
      </trkpt>
      <trkpt lat="43.33616" lon="-1.54905">
        <ele>33</ele>
        <time>2021-06-21T09:16:20.538Z</time>
      </trkpt>
      <trkpt lat="43.33625" lon="-1.54908">
        <ele>34</ele>
        <time>2021-06-21T09:16:21.533Z</time>
      </trkpt>
      <trkpt lat="43.33625" lon="-1.54908">
        <ele>34</ele>
        <time>2021-06-21T09:16:22.513Z</time>
      </trkpt>
      <trkpt lat="43.33634" lon="-1.54913">
        <ele>34</ele>
        <time>2021-06-21T09:16:23.535Z</time>
      </trkpt>
      <trkpt lat="43.33634" lon="-1.54913">
        <ele>34</ele>
        <time>2021-06-21T09:16:24.549Z</time>
      </trkpt>
      <trkpt lat="43.33644" lon="-1.54917">
        <ele>35</ele>
        <time>2021-06-21T09:16:25.509Z</time>
      </trkpt>
      <trkpt lat="43.33644" lon="-1.54917">
        <ele>35</ele>
        <time>2021-06-21T09:16:26.515Z</time>
      </trkpt>
      <trkpt lat="43.33654" lon="-1.5492">
        <ele>35</ele>
        <time>2021-06-21T09:16:27.522Z</time>
      </trkpt>
      <trkpt lat="43.33654" lon="-1.5492">
        <ele>35</ele>
        <time>2021-06-21T09:16:28.527Z</time>
      </trkpt>
      <trkpt lat="43.33666" lon="-1.54924">
        <ele>35</ele>
        <time>2021-06-21T09:16:29.522Z</time>
      </trkpt>
      <trkpt lat="43.33666" lon="-1.54924">
        <ele>35</ele>
        <time>2021-06-21T09:16:30.527Z</time>
      </trkpt>
      <trkpt lat="43.33678" lon="-1.54928">
        <ele>35</ele>
        <time>2021-06-21T09:16:31.521Z</time>
      </trkpt>
      <trkpt lat="43.33678" lon="-1.54928">
        <ele>35</ele>
        <time>2021-06-21T09:16:32.526Z</time>
      </trkpt>
      <trkpt lat="43.33691" lon="-1.54934">
        <ele>35</ele>
        <time>2021-06-21T09:16:33.516Z</time>
      </trkpt>
      <trkpt lat="43.33691" lon="-1.54934">
        <ele>35</ele>
        <time>2021-06-21T09:16:34.522Z</time>
      </trkpt>
      <trkpt lat="43.33704" lon="-1.54941">
        <ele>35</ele>
        <time>2021-06-21T09:16:35.521Z</time>
      </trkpt>
      <trkpt lat="43.3371" lon="-1.54944">
        <ele>35</ele>
        <time>2021-06-21T09:16:36.521Z</time>
      </trkpt>
      <trkpt lat="43.3371" lon="-1.54944">
        <ele>35</ele>
        <time>2021-06-21T09:16:37.532Z</time>
      </trkpt>
      <trkpt lat="43.33722" lon="-1.54951">
        <ele>34</ele>
        <time>2021-06-21T09:16:38.525Z</time>
      </trkpt>
      <trkpt lat="43.33728" lon="-1.54955">
        <ele>34</ele>
        <time>2021-06-21T09:16:39.521Z</time>
      </trkpt>
      <trkpt lat="43.33728" lon="-1.54955">
        <ele>34</ele>
        <time>2021-06-21T09:16:40.527Z</time>
      </trkpt>
      <trkpt lat="43.33739" lon="-1.54962">
        <ele>34</ele>
        <time>2021-06-21T09:16:41.522Z</time>
      </trkpt>
      <trkpt lat="43.33744" lon="-1.54965">
        <ele>34</ele>
        <time>2021-06-21T09:16:42.521Z</time>
      </trkpt>
      <trkpt lat="43.33749" lon="-1.54968">
        <ele>34</ele>
        <time>2021-06-21T09:16:43.542Z</time>
      </trkpt>
      <trkpt lat="43.33749" lon="-1.54968">
        <ele>34</ele>
        <time>2021-06-21T09:16:44.547Z</time>
      </trkpt>
      <trkpt lat="43.33758" lon="-1.54975">
        <ele>34</ele>
        <time>2021-06-21T09:16:45.540Z</time>
      </trkpt>
      <trkpt lat="43.33758" lon="-1.54975">
        <ele>34</ele>
        <time>2021-06-21T09:16:46.545Z</time>
      </trkpt>
      <trkpt lat="43.33767" lon="-1.5498">
        <ele>35</ele>
        <time>2021-06-21T09:16:47.532Z</time>
      </trkpt>
      <trkpt lat="43.33767" lon="-1.5498">
        <ele>35</ele>
        <time>2021-06-21T09:16:48.537Z</time>
      </trkpt>
      <trkpt lat="43.33777" lon="-1.54984">
        <ele>35</ele>
        <time>2021-06-21T09:16:49.533Z</time>
      </trkpt>
      <trkpt lat="43.33777" lon="-1.54984">
        <ele>35</ele>
        <time>2021-06-21T09:16:50.538Z</time>
      </trkpt>
      <trkpt lat="43.33786" lon="-1.54989">
        <ele>36</ele>
        <time>2021-06-21T09:16:51.530Z</time>
      </trkpt>
      <trkpt lat="43.33786" lon="-1.54989">
        <ele>36</ele>
        <time>2021-06-21T09:16:52.535Z</time>
      </trkpt>
      <trkpt lat="43.33794" lon="-1.54994">
        <ele>37</ele>
        <time>2021-06-21T09:16:53.538Z</time>
      </trkpt>
      <trkpt lat="43.33794" lon="-1.54994">
        <ele>37</ele>
        <time>2021-06-21T09:16:54.547Z</time>
      </trkpt>
      <trkpt lat="43.33801" lon="-1.54999">
        <ele>38</ele>
        <time>2021-06-21T09:16:55.545Z</time>
      </trkpt>
      <trkpt lat="43.33801" lon="-1.54999">
        <ele>38</ele>
        <time>2021-06-21T09:16:56.513Z</time>
      </trkpt>
      <trkpt lat="43.33809" lon="-1.55002">
        <ele>39</ele>
        <time>2021-06-21T09:16:57.537Z</time>
      </trkpt>
      <trkpt lat="43.33809" lon="-1.55002">
        <ele>39</ele>
        <time>2021-06-21T09:16:58.544Z</time>
      </trkpt>
      <trkpt lat="43.33815" lon="-1.55005">
        <ele>39</ele>
        <time>2021-06-21T09:16:59.519Z</time>
      </trkpt>
      <trkpt lat="43.33815" lon="-1.55005">
        <ele>39</ele>
        <time>2021-06-21T09:17:00.525Z</time>
      </trkpt>
      <trkpt lat="43.33822" lon="-1.55009">
        <ele>41</ele>
        <time>2021-06-21T09:17:01.532Z</time>
      </trkpt>
      <trkpt lat="43.33822" lon="-1.55009">
        <ele>41</ele>
        <time>2021-06-21T09:17:02.536Z</time>
      </trkpt>
      <trkpt lat="43.33828" lon="-1.55014">
        <ele>42</ele>
        <time>2021-06-21T09:17:03.531Z</time>
      </trkpt>
      <trkpt lat="43.33828" lon="-1.55014">
        <ele>42</ele>
        <time>2021-06-21T09:17:04.536Z</time>
      </trkpt>
      <trkpt lat="43.33834" lon="-1.55017">
        <ele>43</ele>
        <time>2021-06-21T09:17:05.526Z</time>
      </trkpt>
      <trkpt lat="43.33834" lon="-1.55017">
        <ele>43</ele>
        <time>2021-06-21T09:17:06.532Z</time>
      </trkpt>
      <trkpt lat="43.33841" lon="-1.55021">
        <ele>44</ele>
        <time>2021-06-21T09:17:07.512Z</time>
      </trkpt>
      <trkpt lat="43.33841" lon="-1.55021">
        <ele>44</ele>
        <time>2021-06-21T09:17:08.518Z</time>
      </trkpt>
      <trkpt lat="43.33847" lon="-1.55025">
        <ele>45</ele>
        <time>2021-06-21T09:17:09.522Z</time>
      </trkpt>
      <trkpt lat="43.33847" lon="-1.55025">
        <ele>45</ele>
        <time>2021-06-21T09:17:10.527Z</time>
      </trkpt>
      <trkpt lat="43.33855" lon="-1.55028">
        <ele>46</ele>
        <time>2021-06-21T09:17:11.541Z</time>
      </trkpt>
      <trkpt lat="43.33855" lon="-1.55028">
        <ele>46</ele>
        <time>2021-06-21T09:17:12.547Z</time>
      </trkpt>
      <trkpt lat="43.33861" lon="-1.55031">
        <ele>47</ele>
        <time>2021-06-21T09:17:13.542Z</time>
      </trkpt>
      <trkpt lat="43.33865" lon="-1.55034">
        <ele>47</ele>
        <time>2021-06-21T09:17:14.529Z</time>
      </trkpt>
      <trkpt lat="43.33865" lon="-1.55034">
        <ele>47</ele>
        <time>2021-06-21T09:17:15.534Z</time>
      </trkpt>
      <trkpt lat="43.33871" lon="-1.55038">
        <ele>47</ele>
        <time>2021-06-21T09:17:16.522Z</time>
      </trkpt>
      <trkpt lat="43.33871" lon="-1.55038">
        <ele>47</ele>
        <time>2021-06-21T09:17:17.527Z</time>
      </trkpt>
      <trkpt lat="43.33879" lon="-1.5504">
        <ele>47</ele>
        <time>2021-06-21T09:17:18.534Z</time>
      </trkpt>
      <trkpt lat="43.33883" lon="-1.55041">
        <ele>47</ele>
        <time>2021-06-21T09:17:19.537Z</time>
      </trkpt>
      <trkpt lat="43.33883" lon="-1.55041">
        <ele>47</ele>
        <time>2021-06-21T09:17:20.543Z</time>
      </trkpt>
      <trkpt lat="43.33891" lon="-1.55041">
        <ele>47</ele>
        <time>2021-06-21T09:17:21.531Z</time>
      </trkpt>
      <trkpt lat="43.33891" lon="-1.55041">
        <ele>47</ele>
        <time>2021-06-21T09:17:22.544Z</time>
      </trkpt>
      <trkpt lat="43.33899" lon="-1.5504">
        <ele>47</ele>
        <time>2021-06-21T09:17:23.526Z</time>
      </trkpt>
      <trkpt lat="43.33903" lon="-1.55039">
        <ele>47</ele>
        <time>2021-06-21T09:17:24.519Z</time>
      </trkpt>
      <trkpt lat="43.33907" lon="-1.55037">
        <ele>47</ele>
        <time>2021-06-21T09:17:25.510Z</time>
      </trkpt>
      <trkpt lat="43.33907" lon="-1.55037">
        <ele>47</ele>
        <time>2021-06-21T09:17:26.516Z</time>
      </trkpt>
      <trkpt lat="43.33914" lon="-1.55032">
        <ele>47</ele>
        <time>2021-06-21T09:17:27.509Z</time>
      </trkpt>
      <trkpt lat="43.33914" lon="-1.55032">
        <ele>47</ele>
        <time>2021-06-21T09:17:28.514Z</time>
      </trkpt>
      <trkpt lat="43.33922" lon="-1.55027">
        <ele>47</ele>
        <time>2021-06-21T09:17:29.516Z</time>
      </trkpt>
      <trkpt lat="43.33922" lon="-1.55027">
        <ele>47</ele>
        <time>2021-06-21T09:17:30.522Z</time>
      </trkpt>
      <trkpt lat="43.33929" lon="-1.55022">
        <ele>47</ele>
        <time>2021-06-21T09:17:31.510Z</time>
      </trkpt>
      <trkpt lat="43.33929" lon="-1.55022">
        <ele>47</ele>
        <time>2021-06-21T09:17:32.516Z</time>
      </trkpt>
      <trkpt lat="43.33935" lon="-1.55017">
        <ele>47</ele>
        <time>2021-06-21T09:17:33.542Z</time>
      </trkpt>
      <trkpt lat="43.33939" lon="-1.55015">
        <ele>47</ele>
        <time>2021-06-21T09:17:34.542Z</time>
      </trkpt>
      <trkpt lat="43.33939" lon="-1.55015">
        <ele>47</ele>
        <time>2021-06-21T09:17:35.547Z</time>
      </trkpt>
      <trkpt lat="43.33945" lon="-1.55012">
        <ele>47</ele>
        <time>2021-06-21T09:17:36.533Z</time>
      </trkpt>
      <trkpt lat="43.33948" lon="-1.55011">
        <ele>48</ele>
        <time>2021-06-21T09:17:37.516Z</time>
      </trkpt>
      <trkpt lat="43.33948" lon="-1.55011">
        <ele>48</ele>
        <time>2021-06-21T09:17:38.521Z</time>
      </trkpt>
      <trkpt lat="43.33955" lon="-1.55008">
        <ele>48</ele>
        <time>2021-06-21T09:17:39.518Z</time>
      </trkpt>
      <trkpt lat="43.33955" lon="-1.55008">
        <ele>48</ele>
        <time>2021-06-21T09:17:40.524Z</time>
      </trkpt>
      <trkpt lat="43.33964" lon="-1.55003">
        <ele>48</ele>
        <time>2021-06-21T09:17:41.511Z</time>
      </trkpt>
      <trkpt lat="43.33964" lon="-1.55003">
        <ele>48</ele>
        <time>2021-06-21T09:17:42.517Z</time>
      </trkpt>
      <trkpt lat="43.33974" lon="-1.54999">
        <ele>49</ele>
        <time>2021-06-21T09:17:43.544Z</time>
      </trkpt>
      <trkpt lat="43.33974" lon="-1.54999">
        <ele>49</ele>
        <time>2021-06-21T09:17:44.510Z</time>
      </trkpt>
      <trkpt lat="43.33984" lon="-1.54994">
        <ele>49</ele>
        <time>2021-06-21T09:17:45.510Z</time>
      </trkpt>
      <trkpt lat="43.33989" lon="-1.54991">
        <ele>49</ele>
        <time>2021-06-21T09:17:46.511Z</time>
      </trkpt>
      <trkpt lat="43.33989" lon="-1.54991">
        <ele>49</ele>
        <time>2021-06-21T09:17:47.517Z</time>
      </trkpt>
      <trkpt lat="43.33999" lon="-1.54985">
        <ele>49</ele>
        <time>2021-06-21T09:17:48.521Z</time>
      </trkpt>
      <trkpt lat="43.34004" lon="-1.54981">
        <ele>49</ele>
        <time>2021-06-21T09:17:49.514Z</time>
      </trkpt>
      <trkpt lat="43.34004" lon="-1.54981">
        <ele>49</ele>
        <time>2021-06-21T09:17:50.520Z</time>
      </trkpt>
      <trkpt lat="43.34015" lon="-1.54974">
        <ele>49</ele>
        <time>2021-06-21T09:17:51.512Z</time>
      </trkpt>
      <trkpt lat="43.34015" lon="-1.54974">
        <ele>49</ele>
        <time>2021-06-21T09:17:52.517Z</time>
      </trkpt>
      <trkpt lat="43.34027" lon="-1.54965">
        <ele>48</ele>
        <time>2021-06-21T09:17:53.548Z</time>
      </trkpt>
      <trkpt lat="43.34027" lon="-1.54965">
        <ele>48</ele>
        <time>2021-06-21T09:17:54.514Z</time>
      </trkpt>
      <trkpt lat="43.34039" lon="-1.54958">
        <ele>48</ele>
        <time>2021-06-21T09:17:55.543Z</time>
      </trkpt>
      <trkpt lat="43.34039" lon="-1.54958">
        <ele>48</ele>
        <time>2021-06-21T09:17:56.509Z</time>
      </trkpt>
      <trkpt lat="43.34051" lon="-1.5495">
        <ele>47</ele>
        <time>2021-06-21T09:17:57.542Z</time>
      </trkpt>
      <trkpt lat="43.34051" lon="-1.5495">
        <ele>47</ele>
        <time>2021-06-21T09:17:58.548Z</time>
      </trkpt>
      <trkpt lat="43.34064" lon="-1.54943">
        <ele>46</ele>
        <time>2021-06-21T09:17:59.514Z</time>
      </trkpt>
      <trkpt lat="43.34064" lon="-1.54943">
        <ele>46</ele>
        <time>2021-06-21T09:18:00.519Z</time>
      </trkpt>
      <trkpt lat="43.34077" lon="-1.54934">
        <ele>46</ele>
        <time>2021-06-21T09:18:01.533Z</time>
      </trkpt>
      <trkpt lat="43.34077" lon="-1.54934">
        <ele>46</ele>
        <time>2021-06-21T09:18:02.539Z</time>
      </trkpt>
      <trkpt lat="43.34091" lon="-1.54924">
        <ele>45</ele>
        <time>2021-06-21T09:18:03.531Z</time>
      </trkpt>
      <trkpt lat="43.34091" lon="-1.54924">
        <ele>45</ele>
        <time>2021-06-21T09:18:04.536Z</time>
      </trkpt>
      <trkpt lat="43.34105" lon="-1.54916">
        <ele>44</ele>
        <time>2021-06-21T09:18:05.541Z</time>
      </trkpt>
      <trkpt lat="43.34105" lon="-1.54916">
        <ele>44</ele>
        <time>2021-06-21T09:18:06.548Z</time>
      </trkpt>
      <trkpt lat="43.34119" lon="-1.54907">
        <ele>44</ele>
        <time>2021-06-21T09:18:07.534Z</time>
      </trkpt>
      <trkpt lat="43.34119" lon="-1.54907">
        <ele>44</ele>
        <time>2021-06-21T09:18:08.539Z</time>
      </trkpt>
      <trkpt lat="43.34133" lon="-1.54898">
        <ele>43</ele>
        <time>2021-06-21T09:18:09.547Z</time>
      </trkpt>
      <trkpt lat="43.34133" lon="-1.54898">
        <ele>43</ele>
        <time>2021-06-21T09:18:10.513Z</time>
      </trkpt>
      <trkpt lat="43.34148" lon="-1.54889">
        <ele>43</ele>
        <time>2021-06-21T09:18:11.546Z</time>
      </trkpt>
      <trkpt lat="43.34148" lon="-1.54889">
        <ele>43</ele>
        <time>2021-06-21T09:18:12.511Z</time>
      </trkpt>
      <trkpt lat="43.34162" lon="-1.5488">
        <ele>42</ele>
        <time>2021-06-21T09:18:13.546Z</time>
      </trkpt>
      <trkpt lat="43.34162" lon="-1.5488">
        <ele>42</ele>
        <time>2021-06-21T09:18:14.511Z</time>
      </trkpt>
      <trkpt lat="43.34177" lon="-1.54871">
        <ele>42</ele>
        <time>2021-06-21T09:18:15.533Z</time>
      </trkpt>
      <trkpt lat="43.34185" lon="-1.54867">
        <ele>42</ele>
        <time>2021-06-21T09:18:16.514Z</time>
      </trkpt>
      <trkpt lat="43.34185" lon="-1.54867">
        <ele>42</ele>
        <time>2021-06-21T09:18:17.519Z</time>
      </trkpt>
      <trkpt lat="43.34201" lon="-1.5486">
        <ele>40</ele>
        <time>2021-06-21T09:18:18.514Z</time>
      </trkpt>
      <trkpt lat="43.34209" lon="-1.54857">
        <ele>39</ele>
        <time>2021-06-21T09:18:19.512Z</time>
      </trkpt>
      <trkpt lat="43.34209" lon="-1.54857">
        <ele>39</ele>
        <time>2021-06-21T09:18:20.517Z</time>
      </trkpt>
      <trkpt lat="43.34225" lon="-1.54853">
        <ele>39</ele>
        <time>2021-06-21T09:18:21.512Z</time>
      </trkpt>
      <trkpt lat="43.34225" lon="-1.54853">
        <ele>39</ele>
        <time>2021-06-21T09:18:22.529Z</time>
      </trkpt>
      <trkpt lat="43.34242" lon="-1.54852">
        <ele>38</ele>
        <time>2021-06-21T09:18:23.547Z</time>
      </trkpt>
      <trkpt lat="43.34251" lon="-1.54852">
        <ele>37</ele>
        <time>2021-06-21T09:18:24.532Z</time>
      </trkpt>
      <trkpt lat="43.34251" lon="-1.54852">
        <ele>37</ele>
        <time>2021-06-21T09:18:25.537Z</time>
      </trkpt>
      <trkpt lat="43.34267" lon="-1.54855">
        <ele>36</ele>
        <time>2021-06-21T09:18:26.535Z</time>
      </trkpt>
      <trkpt lat="43.34267" lon="-1.54855">
        <ele>36</ele>
        <time>2021-06-21T09:18:27.542Z</time>
      </trkpt>
      <trkpt lat="43.34283" lon="-1.54861">
        <ele>35</ele>
        <time>2021-06-21T09:18:28.537Z</time>
      </trkpt>
      <trkpt lat="43.34283" lon="-1.54861">
        <ele>35</ele>
        <time>2021-06-21T09:18:29.543Z</time>
      </trkpt>
      <trkpt lat="43.34299" lon="-1.5487">
        <ele>34</ele>
        <time>2021-06-21T09:18:30.537Z</time>
      </trkpt>
      <trkpt lat="43.34306" lon="-1.54875">
        <ele>34</ele>
        <time>2021-06-21T09:18:31.539Z</time>
      </trkpt>
      <trkpt lat="43.34306" lon="-1.54875">
        <ele>34</ele>
        <time>2021-06-21T09:18:32.544Z</time>
      </trkpt>
      <trkpt lat="43.34319" lon="-1.54886">
        <ele>33</ele>
        <time>2021-06-21T09:18:33.542Z</time>
      </trkpt>
      <trkpt lat="43.34319" lon="-1.54886">
        <ele>33</ele>
        <time>2021-06-21T09:18:34.511Z</time>
      </trkpt>
      <trkpt lat="43.34332" lon="-1.54898">
        <ele>32</ele>
        <time>2021-06-21T09:18:35.509Z</time>
      </trkpt>
      <trkpt lat="43.34332" lon="-1.54898">
        <ele>32</ele>
        <time>2021-06-21T09:18:36.516Z</time>
      </trkpt>
      <trkpt lat="43.34344" lon="-1.54914">
        <ele>31</ele>
        <time>2021-06-21T09:18:37.541Z</time>
      </trkpt>
      <trkpt lat="43.34344" lon="-1.54914">
        <ele>31</ele>
        <time>2021-06-21T09:18:38.547Z</time>
      </trkpt>
      <trkpt lat="43.34356" lon="-1.54931">
        <ele>30</ele>
        <time>2021-06-21T09:18:39.541Z</time>
      </trkpt>
      <trkpt lat="43.34356" lon="-1.54931">
        <ele>30</ele>
        <time>2021-06-21T09:18:40.547Z</time>
      </trkpt>
      <trkpt lat="43.34368" lon="-1.54949">
        <ele>28</ele>
        <time>2021-06-21T09:18:41.537Z</time>
      </trkpt>
      <trkpt lat="43.34375" lon="-1.54958">
        <ele>28</ele>
        <time>2021-06-21T09:18:42.531Z</time>
      </trkpt>
      <trkpt lat="43.34381" lon="-1.54966">
        <ele>27</ele>
        <time>2021-06-21T09:18:43.520Z</time>
      </trkpt>
      <trkpt lat="43.34381" lon="-1.54966">
        <ele>27</ele>
        <time>2021-06-21T09:18:44.526Z</time>
      </trkpt>
      <trkpt lat="43.34395" lon="-1.54984">
        <ele>26</ele>
        <time>2021-06-21T09:18:45.524Z</time>
      </trkpt>
      <trkpt lat="43.34395" lon="-1.54984">
        <ele>26</ele>
        <time>2021-06-21T09:18:46.530Z</time>
      </trkpt>
      <trkpt lat="43.34408" lon="-1.55003">
        <ele>24</ele>
        <time>2021-06-21T09:18:47.533Z</time>
      </trkpt>
      <trkpt lat="43.34408" lon="-1.55003">
        <ele>24</ele>
        <time>2021-06-21T09:18:48.539Z</time>
      </trkpt>
      <trkpt lat="43.34422" lon="-1.55021">
        <ele>23</ele>
        <time>2021-06-21T09:18:49.534Z</time>
      </trkpt>
      <trkpt lat="43.34422" lon="-1.55021">
        <ele>23</ele>
        <time>2021-06-21T09:18:50.540Z</time>
      </trkpt>
      <trkpt lat="43.34436" lon="-1.55039">
        <ele>22</ele>
        <time>2021-06-21T09:18:51.536Z</time>
      </trkpt>
      <trkpt lat="43.34436" lon="-1.55039">
        <ele>22</ele>
        <time>2021-06-21T09:18:52.542Z</time>
      </trkpt>
      <trkpt lat="43.34449" lon="-1.55057">
        <ele>20</ele>
        <time>2021-06-21T09:18:53.549Z</time>
      </trkpt>
      <trkpt lat="43.34449" lon="-1.55057">
        <ele>20</ele>
        <time>2021-06-21T09:18:54.514Z</time>
      </trkpt>
      <trkpt lat="43.34462" lon="-1.55074">
        <ele>19</ele>
        <time>2021-06-21T09:18:55.516Z</time>
      </trkpt>
      <trkpt lat="43.34462" lon="-1.55074">
        <ele>19</ele>
        <time>2021-06-21T09:18:56.520Z</time>
      </trkpt>
      <trkpt lat="43.34475" lon="-1.55091">
        <ele>18</ele>
        <time>2021-06-21T09:18:57.521Z</time>
      </trkpt>
      <trkpt lat="43.34475" lon="-1.55091">
        <ele>18</ele>
        <time>2021-06-21T09:18:58.526Z</time>
      </trkpt>
      <trkpt lat="43.34487" lon="-1.55108">
        <ele>17</ele>
        <time>2021-06-21T09:18:59.520Z</time>
      </trkpt>
      <trkpt lat="43.34487" lon="-1.55108">
        <ele>17</ele>
        <time>2021-06-21T09:19:00.527Z</time>
      </trkpt>
      <trkpt lat="43.34499" lon="-1.55125">
        <ele>16</ele>
        <time>2021-06-21T09:19:01.543Z</time>
      </trkpt>
      <trkpt lat="43.34499" lon="-1.55125">
        <ele>16</ele>
        <time>2021-06-21T09:19:02.549Z</time>
      </trkpt>
      <trkpt lat="43.34511" lon="-1.55142">
        <ele>16</ele>
        <time>2021-06-21T09:19:03.542Z</time>
      </trkpt>
      <trkpt lat="43.34511" lon="-1.55142">
        <ele>16</ele>
        <time>2021-06-21T09:19:04.509Z</time>
      </trkpt>
      <trkpt lat="43.34523" lon="-1.55158">
        <ele>17</ele>
        <time>2021-06-21T09:19:05.534Z</time>
      </trkpt>
      <trkpt lat="43.34523" lon="-1.55158">
        <ele>17</ele>
        <time>2021-06-21T09:19:06.540Z</time>
      </trkpt>
      <trkpt lat="43.34535" lon="-1.55173">
        <ele>16</ele>
        <time>2021-06-21T09:19:07.539Z</time>
      </trkpt>
      <trkpt lat="43.34535" lon="-1.55173">
        <ele>16</ele>
        <time>2021-06-21T09:19:08.546Z</time>
      </trkpt>
      <trkpt lat="43.34547" lon="-1.55186">
        <ele>17</ele>
        <time>2021-06-21T09:19:09.543Z</time>
      </trkpt>
      <trkpt lat="43.34547" lon="-1.55186">
        <ele>17</ele>
        <time>2021-06-21T09:19:10.548Z</time>
      </trkpt>
      <trkpt lat="43.3456" lon="-1.55196">
        <ele>16</ele>
        <time>2021-06-21T09:19:11.511Z</time>
      </trkpt>
      <trkpt lat="43.3456" lon="-1.55196">
        <ele>16</ele>
        <time>2021-06-21T09:19:12.516Z</time>
      </trkpt>
      <trkpt lat="43.34574" lon="-1.55205">
        <ele>17</ele>
        <time>2021-06-21T09:19:13.545Z</time>
      </trkpt>
      <trkpt lat="43.34574" lon="-1.55205">
        <ele>17</ele>
        <time>2021-06-21T09:19:14.509Z</time>
      </trkpt>
      <trkpt lat="43.34588" lon="-1.5521">
        <ele>16</ele>
        <time>2021-06-21T09:19:15.521Z</time>
      </trkpt>
      <trkpt lat="43.34588" lon="-1.5521">
        <ele>16</ele>
        <time>2021-06-21T09:19:16.526Z</time>
      </trkpt>
      <trkpt lat="43.34602" lon="-1.55214">
        <ele>17</ele>
        <time>2021-06-21T09:19:17.522Z</time>
      </trkpt>
      <trkpt lat="43.34602" lon="-1.55214">
        <ele>17</ele>
        <time>2021-06-21T09:19:18.528Z</time>
      </trkpt>
      <trkpt lat="43.34615" lon="-1.55216">
        <ele>16</ele>
        <time>2021-06-21T09:19:19.523Z</time>
      </trkpt>
      <trkpt lat="43.34615" lon="-1.55216">
        <ele>16</ele>
        <time>2021-06-21T09:19:20.529Z</time>
      </trkpt>
      <trkpt lat="43.34629" lon="-1.55217">
        <ele>16</ele>
        <time>2021-06-21T09:19:21.521Z</time>
      </trkpt>
      <trkpt lat="43.34636" lon="-1.55218">
        <ele>16</ele>
        <time>2021-06-21T09:19:22.543Z</time>
      </trkpt>
      <trkpt lat="43.34636" lon="-1.55218">
        <ele>16</ele>
        <time>2021-06-21T09:19:23.532Z</time>
      </trkpt>
      <trkpt lat="43.34649" lon="-1.55219">
        <ele>16</ele>
        <time>2021-06-21T09:19:24.521Z</time>
      </trkpt>
      <trkpt lat="43.34656" lon="-1.55219">
        <ele>17</ele>
        <time>2021-06-21T09:19:25.516Z</time>
      </trkpt>
      <trkpt lat="43.34656" lon="-1.55219">
        <ele>17</ele>
        <time>2021-06-21T09:19:26.521Z</time>
      </trkpt>
      <trkpt lat="43.34669" lon="-1.55221">
        <ele>16</ele>
        <time>2021-06-21T09:19:27.515Z</time>
      </trkpt>
      <trkpt lat="43.34669" lon="-1.55221">
        <ele>16</ele>
        <time>2021-06-21T09:19:28.520Z</time>
      </trkpt>
      <trkpt lat="43.34682" lon="-1.55222">
        <ele>16</ele>
        <time>2021-06-21T09:19:29.516Z</time>
      </trkpt>
      <trkpt lat="43.34682" lon="-1.55222">
        <ele>16</ele>
        <time>2021-06-21T09:19:30.521Z</time>
      </trkpt>
      <trkpt lat="43.34695" lon="-1.55224">
        <ele>16</ele>
        <time>2021-06-21T09:19:31.522Z</time>
      </trkpt>
      <trkpt lat="43.34695" lon="-1.55224">
        <ele>16</ele>
        <time>2021-06-21T09:19:32.527Z</time>
      </trkpt>
      <trkpt lat="43.34707" lon="-1.55225">
        <ele>16</ele>
        <time>2021-06-21T09:19:33.525Z</time>
      </trkpt>
      <trkpt lat="43.34707" lon="-1.55225">
        <ele>16</ele>
        <time>2021-06-21T09:19:34.530Z</time>
      </trkpt>
      <trkpt lat="43.3472" lon="-1.55226">
        <ele>16</ele>
        <time>2021-06-21T09:19:35.541Z</time>
      </trkpt>
      <trkpt lat="43.34727" lon="-1.55226">
        <ele>16</ele>
        <time>2021-06-21T09:19:36.535Z</time>
      </trkpt>
      <trkpt lat="43.34733" lon="-1.55227">
        <ele>16</ele>
        <time>2021-06-21T09:19:37.521Z</time>
      </trkpt>
      <trkpt lat="43.34733" lon="-1.55227">
        <ele>16</ele>
        <time>2021-06-21T09:19:38.526Z</time>
      </trkpt>
      <trkpt lat="43.34746" lon="-1.55228">
        <ele>16</ele>
        <time>2021-06-21T09:19:39.511Z</time>
      </trkpt>
      <trkpt lat="43.34753" lon="-1.55228">
        <ele>16</ele>
        <time>2021-06-21T09:19:40.547Z</time>
      </trkpt>
      <trkpt lat="43.34753" lon="-1.55228">
        <ele>16</ele>
        <time>2021-06-21T09:19:41.512Z</time>
      </trkpt>
      <trkpt lat="43.34765" lon="-1.5523">
        <ele>15</ele>
        <time>2021-06-21T09:19:42.542Z</time>
      </trkpt>
      <trkpt lat="43.34772" lon="-1.5523">
        <ele>15</ele>
        <time>2021-06-21T09:19:43.542Z</time>
      </trkpt>
      <trkpt lat="43.34772" lon="-1.5523">
        <ele>15</ele>
        <time>2021-06-21T09:19:44.510Z</time>
      </trkpt>
      <trkpt lat="43.34784" lon="-1.55232">
        <ele>15</ele>
        <time>2021-06-21T09:19:45.539Z</time>
      </trkpt>
      <trkpt lat="43.34784" lon="-1.55232">
        <ele>15</ele>
        <time>2021-06-21T09:19:46.547Z</time>
      </trkpt>
      <trkpt lat="43.34796" lon="-1.55234">
        <ele>14</ele>
        <time>2021-06-21T09:19:47.545Z</time>
      </trkpt>
      <trkpt lat="43.34796" lon="-1.55234">
        <ele>14</ele>
        <time>2021-06-21T09:19:48.510Z</time>
      </trkpt>
      <trkpt lat="43.34808" lon="-1.55239">
        <ele>15</ele>
        <time>2021-06-21T09:19:49.509Z</time>
      </trkpt>
      <trkpt lat="43.34808" lon="-1.55239">
        <ele>15</ele>
        <time>2021-06-21T09:19:50.515Z</time>
      </trkpt>
      <trkpt lat="43.34819" lon="-1.55243">
        <ele>15</ele>
        <time>2021-06-21T09:19:51.535Z</time>
      </trkpt>
      <trkpt lat="43.34825" lon="-1.55244">
        <ele>15</ele>
        <time>2021-06-21T09:19:52.522Z</time>
      </trkpt>
      <trkpt lat="43.34825" lon="-1.55244">
        <ele>15</ele>
        <time>2021-06-21T09:19:53.527Z</time>
      </trkpt>
      <trkpt lat="43.34836" lon="-1.55244">
        <ele>14</ele>
        <time>2021-06-21T09:19:54.521Z</time>
      </trkpt>
      <trkpt lat="43.34842" lon="-1.55241">
        <ele>14</ele>
        <time>2021-06-21T09:19:55.544Z</time>
      </trkpt>
      <trkpt lat="43.34842" lon="-1.55241">
        <ele>14</ele>
        <time>2021-06-21T09:19:56.509Z</time>
      </trkpt>
      <trkpt lat="43.34851" lon="-1.55233">
        <ele>14</ele>
        <time>2021-06-21T09:19:57.548Z</time>
      </trkpt>
      <trkpt lat="43.34854" lon="-1.55227">
        <ele>14</ele>
        <time>2021-06-21T09:19:58.541Z</time>
      </trkpt>
      <trkpt lat="43.34854" lon="-1.55227">
        <ele>14</ele>
        <time>2021-06-21T09:19:59.545Z</time>
      </trkpt>
      <trkpt lat="43.34857" lon="-1.55214">
        <ele>14</ele>
        <time>2021-06-21T09:20:00.536Z</time>
      </trkpt>
      <trkpt lat="43.34858" lon="-1.55207">
        <ele>14</ele>
        <time>2021-06-21T09:20:01.522Z</time>
      </trkpt>
      <trkpt lat="43.34858" lon="-1.55207">
        <ele>14</ele>
        <time>2021-06-21T09:20:02.527Z</time>
      </trkpt>
      <trkpt lat="43.34861" lon="-1.55193">
        <ele>15</ele>
        <time>2021-06-21T09:20:03.520Z</time>
      </trkpt>
      <trkpt lat="43.34861" lon="-1.55193">
        <ele>15</ele>
        <time>2021-06-21T09:20:04.525Z</time>
      </trkpt>
      <trkpt lat="43.34864" lon="-1.55179">
        <ele>15</ele>
        <time>2021-06-21T09:20:05.517Z</time>
      </trkpt>
      <trkpt lat="43.34864" lon="-1.55179">
        <ele>15</ele>
        <time>2021-06-21T09:20:06.525Z</time>
      </trkpt>
      <trkpt lat="43.34869" lon="-1.55166">
        <ele>15</ele>
        <time>2021-06-21T09:20:07.519Z</time>
      </trkpt>
      <trkpt lat="43.34869" lon="-1.55166">
        <ele>15</ele>
        <time>2021-06-21T09:20:08.524Z</time>
      </trkpt>
      <trkpt lat="43.34877" lon="-1.55156">
        <ele>15</ele>
        <time>2021-06-21T09:20:09.541Z</time>
      </trkpt>
      <trkpt lat="43.34877" lon="-1.55156">
        <ele>15</ele>
        <time>2021-06-21T09:20:10.514Z</time>
      </trkpt>
      <trkpt lat="43.34886" lon="-1.55146">
        <ele>15</ele>
        <time>2021-06-21T09:20:11.547Z</time>
      </trkpt>
      <trkpt lat="43.34891" lon="-1.55142">
        <ele>15</ele>
        <time>2021-06-21T09:20:12.545Z</time>
      </trkpt>
      <trkpt lat="43.34896" lon="-1.55138">
        <ele>15</ele>
        <time>2021-06-21T09:20:13.517Z</time>
      </trkpt>
      <trkpt lat="43.34896" lon="-1.55138">
        <ele>15</ele>
        <time>2021-06-21T09:20:14.522Z</time>
      </trkpt>
      <trkpt lat="43.34905" lon="-1.55131">
        <ele>14</ele>
        <time>2021-06-21T09:20:15.509Z</time>
      </trkpt>
      <trkpt lat="43.34905" lon="-1.55131">
        <ele>14</ele>
        <time>2021-06-21T09:20:16.514Z</time>
      </trkpt>
      <trkpt lat="43.34915" lon="-1.55123">
        <ele>14</ele>
        <time>2021-06-21T09:20:17.525Z</time>
      </trkpt>
      <trkpt lat="43.34915" lon="-1.55123">
        <ele>14</ele>
        <time>2021-06-21T09:20:18.529Z</time>
      </trkpt>
      <trkpt lat="43.34924" lon="-1.55114">
        <ele>14</ele>
        <time>2021-06-21T09:20:19.519Z</time>
      </trkpt>
      <trkpt lat="43.34924" lon="-1.55114">
        <ele>14</ele>
        <time>2021-06-21T09:20:20.524Z</time>
      </trkpt>
      <trkpt lat="43.34934" lon="-1.55105">
        <ele>14</ele>
        <time>2021-06-21T09:20:21.541Z</time>
      </trkpt>
      <trkpt lat="43.34934" lon="-1.55105">
        <ele>14</ele>
        <time>2021-06-21T09:20:22.513Z</time>
      </trkpt>
      <trkpt lat="43.34943" lon="-1.55097">
        <ele>14</ele>
        <time>2021-06-21T09:20:23.513Z</time>
      </trkpt>
      <trkpt lat="43.34943" lon="-1.55097">
        <ele>14</ele>
        <time>2021-06-21T09:20:24.518Z</time>
      </trkpt>
      <trkpt lat="43.34953" lon="-1.55088">
        <ele>13</ele>
        <time>2021-06-21T09:20:25.513Z</time>
      </trkpt>
      <trkpt lat="43.34953" lon="-1.55088">
        <ele>13</ele>
        <time>2021-06-21T09:20:26.518Z</time>
      </trkpt>
      <trkpt lat="43.34963" lon="-1.5508">
        <ele>14</ele>
        <time>2021-06-21T09:20:27.515Z</time>
      </trkpt>
      <trkpt lat="43.34963" lon="-1.5508">
        <ele>14</ele>
        <time>2021-06-21T09:20:28.520Z</time>
      </trkpt>
      <trkpt lat="43.34973" lon="-1.55072">
        <ele>14</ele>
        <time>2021-06-21T09:20:29.517Z</time>
      </trkpt>
      <trkpt lat="43.34973" lon="-1.55072">
        <ele>14</ele>
        <time>2021-06-21T09:20:30.523Z</time>
      </trkpt>
      <trkpt lat="43.34983" lon="-1.55064">
        <ele>14</ele>
        <time>2021-06-21T09:20:31.512Z</time>
      </trkpt>
      <trkpt lat="43.34983" lon="-1.55064">
        <ele>14</ele>
        <time>2021-06-21T09:20:32.517Z</time>
      </trkpt>
      <trkpt lat="43.34994" lon="-1.55055">
        <ele>13</ele>
        <time>2021-06-21T09:20:33.514Z</time>
      </trkpt>
      <trkpt lat="43.34999" lon="-1.55051">
        <ele>13</ele>
        <time>2021-06-21T09:20:34.543Z</time>
      </trkpt>
      <trkpt lat="43.34999" lon="-1.55051">
        <ele>13</ele>
        <time>2021-06-21T09:20:35.548Z</time>
      </trkpt>
      <trkpt lat="43.35009" lon="-1.55042">
        <ele>13</ele>
        <time>2021-06-21T09:20:36.542Z</time>
      </trkpt>
      <trkpt lat="43.35009" lon="-1.55042">
        <ele>13</ele>
        <time>2021-06-21T09:20:37.547Z</time>
      </trkpt>
      <trkpt lat="43.3502" lon="-1.55033">
        <ele>13</ele>
        <time>2021-06-21T09:20:38.528Z</time>
      </trkpt>
      <trkpt lat="43.3502" lon="-1.55033">
        <ele>13</ele>
        <time>2021-06-21T09:20:39.533Z</time>
      </trkpt>
      <trkpt lat="43.3503" lon="-1.55024">
        <ele>13</ele>
        <time>2021-06-21T09:20:40.523Z</time>
      </trkpt>
      <trkpt lat="43.3503" lon="-1.55024">
        <ele>13</ele>
        <time>2021-06-21T09:20:41.527Z</time>
      </trkpt>
      <trkpt lat="43.35041" lon="-1.55014">
        <ele>13</ele>
        <time>2021-06-21T09:20:42.522Z</time>
      </trkpt>
      <trkpt lat="43.35045" lon="-1.55009">
        <ele>13</ele>
        <time>2021-06-21T09:20:43.549Z</time>
      </trkpt>
      <trkpt lat="43.35045" lon="-1.55009">
        <ele>13</ele>
        <time>2021-06-21T09:20:44.513Z</time>
      </trkpt>
      <trkpt lat="43.35056" lon="-1.55001">
        <ele>14</ele>
        <time>2021-06-21T09:20:45.537Z</time>
      </trkpt>
      <trkpt lat="43.35061" lon="-1.54997">
        <ele>14</ele>
        <time>2021-06-21T09:20:46.541Z</time>
      </trkpt>
      <trkpt lat="43.35061" lon="-1.54997">
        <ele>14</ele>
        <time>2021-06-21T09:20:47.548Z</time>
      </trkpt>
      <trkpt lat="43.3507" lon="-1.5499">
        <ele>14</ele>
        <time>2021-06-21T09:20:48.512Z</time>
      </trkpt>
      <trkpt lat="43.35074" lon="-1.54987">
        <ele>15</ele>
        <time>2021-06-21T09:20:49.516Z</time>
      </trkpt>
      <trkpt lat="43.35074" lon="-1.54987">
        <ele>15</ele>
        <time>2021-06-21T09:20:50.522Z</time>
      </trkpt>
      <trkpt lat="43.35081" lon="-1.5498">
        <ele>15</ele>
        <time>2021-06-21T09:20:51.509Z</time>
      </trkpt>
      <trkpt lat="43.35081" lon="-1.5498">
        <ele>15</ele>
        <time>2021-06-21T09:20:52.514Z</time>
      </trkpt>
      <trkpt lat="43.35086" lon="-1.54971">
        <ele>15</ele>
        <time>2021-06-21T09:20:53.517Z</time>
      </trkpt>
      <trkpt lat="43.35086" lon="-1.54971">
        <ele>15</ele>
        <time>2021-06-21T09:20:54.522Z</time>
      </trkpt>
      <trkpt lat="43.35089" lon="-1.5496">
        <ele>16</ele>
        <time>2021-06-21T09:20:55.548Z</time>
      </trkpt>
      <trkpt lat="43.35089" lon="-1.5496">
        <ele>16</ele>
        <time>2021-06-21T09:20:56.514Z</time>
      </trkpt>
      <trkpt lat="43.35092" lon="-1.54949">
        <ele>17</ele>
        <time>2021-06-21T09:20:57.523Z</time>
      </trkpt>
      <trkpt lat="43.35094" lon="-1.54943">
        <ele>16</ele>
        <time>2021-06-21T09:20:58.529Z</time>
      </trkpt>
      <trkpt lat="43.35094" lon="-1.54943">
        <ele>16</ele>
        <time>2021-06-21T09:20:59.533Z</time>
      </trkpt>
      <trkpt lat="43.351" lon="-1.54935">
        <ele>16</ele>
        <time>2021-06-21T09:21:00.520Z</time>
      </trkpt>
      <trkpt lat="43.35104" lon="-1.54932">
        <ele>16</ele>
        <time>2021-06-21T09:21:01.521Z</time>
      </trkpt>
      <trkpt lat="43.35104" lon="-1.54932">
        <ele>16</ele>
        <time>2021-06-21T09:21:02.526Z</time>
      </trkpt>
      <trkpt lat="43.35112" lon="-1.54931">
        <ele>16</ele>
        <time>2021-06-21T09:21:03.526Z</time>
      </trkpt>
      <trkpt lat="43.35112" lon="-1.54931">
        <ele>16</ele>
        <time>2021-06-21T09:21:04.530Z</time>
      </trkpt>
      <trkpt lat="43.35122" lon="-1.54934">
        <ele>16</ele>
        <time>2021-06-21T09:21:05.523Z</time>
      </trkpt>
      <trkpt lat="43.35122" lon="-1.54934">
        <ele>16</ele>
        <time>2021-06-21T09:21:06.529Z</time>
      </trkpt>
      <trkpt lat="43.35132" lon="-1.5494">
        <ele>16</ele>
        <time>2021-06-21T09:21:07.512Z</time>
      </trkpt>
      <trkpt lat="43.35132" lon="-1.5494">
        <ele>16</ele>
        <time>2021-06-21T09:21:08.517Z</time>
      </trkpt>
      <trkpt lat="43.35142" lon="-1.54943">
        <ele>16</ele>
        <time>2021-06-21T09:21:09.530Z</time>
      </trkpt>
      <trkpt lat="43.35142" lon="-1.54943">
        <ele>16</ele>
        <time>2021-06-21T09:21:10.537Z</time>
      </trkpt>
      <trkpt lat="43.35153" lon="-1.54944">
        <ele>15</ele>
        <time>2021-06-21T09:21:11.527Z</time>
      </trkpt>
      <trkpt lat="43.35153" lon="-1.54944">
        <ele>15</ele>
        <time>2021-06-21T09:21:12.532Z</time>
      </trkpt>
      <trkpt lat="43.35164" lon="-1.54945">
        <ele>14</ele>
        <time>2021-06-21T09:21:13.531Z</time>
      </trkpt>
      <trkpt lat="43.35164" lon="-1.54945">
        <ele>14</ele>
        <time>2021-06-21T09:21:14.536Z</time>
      </trkpt>
      <trkpt lat="43.35175" lon="-1.54948">
        <ele>14</ele>
        <time>2021-06-21T09:21:15.542Z</time>
      </trkpt>
      <trkpt lat="43.35175" lon="-1.54948">
        <ele>14</ele>
        <time>2021-06-21T09:21:16.548Z</time>
      </trkpt>
      <trkpt lat="43.35185" lon="-1.54952">
        <ele>14</ele>
        <time>2021-06-21T09:21:17.543Z</time>
      </trkpt>
      <trkpt lat="43.3519" lon="-1.54953">
        <ele>14</ele>
        <time>2021-06-21T09:21:18.536Z</time>
      </trkpt>
      <trkpt lat="43.3519" lon="-1.54953">
        <ele>14</ele>
        <time>2021-06-21T09:21:19.541Z</time>
      </trkpt>
      <trkpt lat="43.35201" lon="-1.54956">
        <ele>14</ele>
        <time>2021-06-21T09:21:20.529Z</time>
      </trkpt>
      <trkpt lat="43.35201" lon="-1.54956">
        <ele>14</ele>
        <time>2021-06-21T09:21:21.535Z</time>
      </trkpt>
      <trkpt lat="43.35211" lon="-1.54959">
        <ele>14</ele>
        <time>2021-06-21T09:21:22.526Z</time>
      </trkpt>
      <trkpt lat="43.35211" lon="-1.54959">
        <ele>14</ele>
        <time>2021-06-21T09:21:23.540Z</time>
      </trkpt>
      <trkpt lat="43.35221" lon="-1.54963">
        <ele>14</ele>
        <time>2021-06-21T09:21:24.509Z</time>
      </trkpt>
      <trkpt lat="43.35226" lon="-1.54965">
        <ele>14</ele>
        <time>2021-06-21T09:21:25.511Z</time>
      </trkpt>
      <trkpt lat="43.35226" lon="-1.54965">
        <ele>14</ele>
        <time>2021-06-21T09:21:26.517Z</time>
      </trkpt>
      <trkpt lat="43.35236" lon="-1.54968">
        <ele>15</ele>
        <time>2021-06-21T09:21:27.512Z</time>
      </trkpt>
      <trkpt lat="43.35236" lon="-1.54968">
        <ele>15</ele>
        <time>2021-06-21T09:21:28.517Z</time>
      </trkpt>
      <trkpt lat="43.35247" lon="-1.54972">
        <ele>15</ele>
        <time>2021-06-21T09:21:29.509Z</time>
      </trkpt>
      <trkpt lat="43.35252" lon="-1.54973">
        <ele>15</ele>
        <time>2021-06-21T09:21:30.532Z</time>
      </trkpt>
      <trkpt lat="43.35258" lon="-1.54975">
        <ele>15</ele>
        <time>2021-06-21T09:21:31.548Z</time>
      </trkpt>
      <trkpt lat="43.35258" lon="-1.54975">
        <ele>15</ele>
        <time>2021-06-21T09:21:32.514Z</time>
      </trkpt>
      <trkpt lat="43.35268" lon="-1.54978">
        <ele>15</ele>
        <time>2021-06-21T09:21:33.522Z</time>
      </trkpt>
      <trkpt lat="43.35268" lon="-1.54978">
        <ele>15</ele>
        <time>2021-06-21T09:21:34.527Z</time>
      </trkpt>
      <trkpt lat="43.35279" lon="-1.54982">
        <ele>16</ele>
        <time>2021-06-21T09:21:35.543Z</time>
      </trkpt>
      <trkpt lat="43.35284" lon="-1.54984">
        <ele>16</ele>
        <time>2021-06-21T09:21:36.524Z</time>
      </trkpt>
      <trkpt lat="43.35289" lon="-1.54985">
        <ele>17</ele>
        <time>2021-06-21T09:21:37.527Z</time>
      </trkpt>
      <trkpt lat="43.35289" lon="-1.54985">
        <ele>17</ele>
        <time>2021-06-21T09:21:38.533Z</time>
      </trkpt>
      <trkpt lat="43.353" lon="-1.54989">
        <ele>16</ele>
        <time>2021-06-21T09:21:39.519Z</time>
      </trkpt>
      <trkpt lat="43.35305" lon="-1.54991">
        <ele>17</ele>
        <time>2021-06-21T09:21:40.532Z</time>
      </trkpt>
      <trkpt lat="43.35305" lon="-1.54991">
        <ele>17</ele>
        <time>2021-06-21T09:21:41.537Z</time>
      </trkpt>
      <trkpt lat="43.35314" lon="-1.54994">
        <ele>16</ele>
        <time>2021-06-21T09:21:42.514Z</time>
      </trkpt>
      <trkpt lat="43.35319" lon="-1.54995">
        <ele>16</ele>
        <time>2021-06-21T09:21:43.532Z</time>
      </trkpt>
      <trkpt lat="43.35319" lon="-1.54995">
        <ele>16</ele>
        <time>2021-06-21T09:21:44.537Z</time>
      </trkpt>
      <trkpt lat="43.35329" lon="-1.54998">
        <ele>16</ele>
        <time>2021-06-21T09:21:45.523Z</time>
      </trkpt>
      <trkpt lat="43.35329" lon="-1.54998">
        <ele>16</ele>
        <time>2021-06-21T09:21:46.529Z</time>
      </trkpt>
      <trkpt lat="43.35338" lon="-1.55002">
        <ele>16</ele>
        <time>2021-06-21T09:21:47.524Z</time>
      </trkpt>
      <trkpt lat="43.35343" lon="-1.55004">
        <ele>17</ele>
        <time>2021-06-21T09:21:48.511Z</time>
      </trkpt>
      <trkpt lat="43.35348" lon="-1.55005">
        <ele>17</ele>
        <time>2021-06-21T09:21:49.540Z</time>
      </trkpt>
      <trkpt lat="43.35348" lon="-1.55005">
        <ele>17</ele>
        <time>2021-06-21T09:21:50.547Z</time>
      </trkpt>
      <trkpt lat="43.35356" lon="-1.55008">
        <ele>17</ele>
        <time>2021-06-21T09:21:51.546Z</time>
      </trkpt>
      <trkpt lat="43.35356" lon="-1.55008">
        <ele>17</ele>
        <time>2021-06-21T09:21:52.511Z</time>
      </trkpt>
      <trkpt lat="43.35364" lon="-1.55011">
        <ele>17</ele>
        <time>2021-06-21T09:21:53.538Z</time>
      </trkpt>
      <trkpt lat="43.35364" lon="-1.55011">
        <ele>17</ele>
        <time>2021-06-21T09:21:54.544Z</time>
      </trkpt>
      <trkpt lat="43.35371" lon="-1.55012">
        <ele>18</ele>
        <time>2021-06-21T09:21:55.540Z</time>
      </trkpt>
      <trkpt lat="43.35371" lon="-1.55012">
        <ele>18</ele>
        <time>2021-06-21T09:21:56.547Z</time>
      </trkpt>
      <trkpt lat="43.35376" lon="-1.55009">
        <ele>19</ele>
        <time>2021-06-21T09:21:57.526Z</time>
      </trkpt>
      <trkpt lat="43.35376" lon="-1.55009">
        <ele>19</ele>
        <time>2021-06-21T09:21:58.531Z</time>
      </trkpt>
      <trkpt lat="43.35378" lon="-1.55004">
        <ele>20</ele>
        <time>2021-06-21T09:21:59.517Z</time>
      </trkpt>
      <trkpt lat="43.35378" lon="-1.55002">
        <ele>20</ele>
        <time>2021-06-21T09:22:00.515Z</time>
      </trkpt>
      <trkpt lat="43.35378" lon="-1.55002">
        <ele>20</ele>
        <time>2021-06-21T09:22:01.521Z</time>
      </trkpt>
      <trkpt lat="43.35378" lon="-1.54996">
        <ele>20</ele>
        <time>2021-06-21T09:22:02.517Z</time>
      </trkpt>
      <trkpt lat="43.35378" lon="-1.54993">
        <ele>20</ele>
        <time>2021-06-21T09:22:03.512Z</time>
      </trkpt>
      <trkpt lat="43.35378" lon="-1.54993">
        <ele>20</ele>
        <time>2021-06-21T09:22:04.517Z</time>
      </trkpt>
      <trkpt lat="43.3538" lon="-1.54986">
        <ele>20</ele>
        <time>2021-06-21T09:22:05.537Z</time>
      </trkpt>
      <trkpt lat="43.3538" lon="-1.54986">
        <ele>20</ele>
        <time>2021-06-21T09:22:06.542Z</time>
      </trkpt>
      <trkpt lat="43.35378" lon="-1.54978">
        <ele>20</ele>
        <time>2021-06-21T09:22:07.515Z</time>
      </trkpt>
      <trkpt lat="43.35377" lon="-1.54974">
        <ele>20</ele>
        <time>2021-06-21T09:22:08.525Z</time>
      </trkpt>
      <trkpt lat="43.35377" lon="-1.54974">
        <ele>20</ele>
        <time>2021-06-21T09:22:09.531Z</time>
      </trkpt>
      <trkpt lat="43.35376" lon="-1.54965">
        <ele>20</ele>
        <time>2021-06-21T09:22:10.541Z</time>
      </trkpt>
      <trkpt lat="43.35375" lon="-1.5496">
        <ele>20</ele>
        <time>2021-06-21T09:22:11.512Z</time>
      </trkpt>
      <trkpt lat="43.35375" lon="-1.5496">
        <ele>20</ele>
        <time>2021-06-21T09:22:12.517Z</time>
      </trkpt>
      <trkpt lat="43.35374" lon="-1.54952">
        <ele>20</ele>
        <time>2021-06-21T09:22:13.532Z</time>
      </trkpt>
      <trkpt lat="43.35374" lon="-1.54952">
        <ele>20</ele>
        <time>2021-06-21T09:22:14.538Z</time>
      </trkpt>
      <trkpt lat="43.35372" lon="-1.54945">
        <ele>20</ele>
        <time>2021-06-21T09:22:15.522Z</time>
      </trkpt>
      <trkpt lat="43.35372" lon="-1.54945">
        <ele>20</ele>
        <time>2021-06-21T09:22:16.529Z</time>
      </trkpt>
      <trkpt lat="43.35372" lon="-1.54943">
        <ele>20</ele>
        <time>2021-06-21T09:22:17.525Z</time>
      </trkpt>
      <trkpt lat="43.35372" lon="-1.54943">
        <ele>20</ele>
        <time>2021-06-21T09:22:18.515Z</time>
      </trkpt>
      <trkpt lat="43.35372" lon="-1.54942">
        <ele>20</ele>
        <time>2021-06-21T09:22:19.530Z</time>
      </trkpt>
      <trkpt lat="43.35372" lon="-1.54942">
        <ele>20</ele>
        <time>2021-06-21T09:22:20.536Z</time>
      </trkpt>
      <trkpt lat="43.35372" lon="-1.54942">
        <ele>19</ele>
        <time>2021-06-21T09:22:21.541Z</time>
      </trkpt>
      <trkpt lat="43.35372" lon="-1.54942">
        <ele>19</ele>
        <time>2021-06-21T09:22:22.542Z</time>
      </trkpt>
      <trkpt lat="43.35374" lon="-1.54943">
        <ele>19</ele>
        <time>2021-06-21T09:22:23.513Z</time>
      </trkpt>
      <trkpt lat="43.35374" lon="-1.54943">
        <ele>19</ele>
        <time>2021-06-21T09:22:24.518Z</time>
      </trkpt>
      <trkpt lat="43.35376" lon="-1.54944">
        <ele>19</ele>
        <time>2021-06-21T09:22:25.524Z</time>
      </trkpt>
      <trkpt lat="43.35376" lon="-1.54944">
        <ele>19</ele>
        <time>2021-06-21T09:22:26.542Z</time>
      </trkpt>
      <trkpt lat="43.35376" lon="-1.54949">
        <ele>18</ele>
        <time>2021-06-21T09:22:27.523Z</time>
      </trkpt>
      <trkpt lat="43.35376" lon="-1.54949">
        <ele>18</ele>
        <time>2021-06-21T09:22:28.539Z</time>
      </trkpt>
      <trkpt lat="43.35378" lon="-1.54956">
        <ele>18</ele>
        <time>2021-06-21T09:22:29.522Z</time>
      </trkpt>
      <trkpt lat="43.35378" lon="-1.54956">
        <ele>18</ele>
        <time>2021-06-21T09:22:30.538Z</time>
      </trkpt>
      <trkpt lat="43.3538" lon="-1.54964">
        <ele>17</ele>
        <time>2021-06-21T09:22:31.539Z</time>
      </trkpt>
      <trkpt lat="43.3538" lon="-1.54964">
        <ele>17</ele>
        <time>2021-06-21T09:22:32.546Z</time>
      </trkpt>
      <trkpt lat="43.35382" lon="-1.54971">
        <ele>17</ele>
        <time>2021-06-21T09:22:33.519Z</time>
      </trkpt>
      <trkpt lat="43.35382" lon="-1.54975">
        <ele>17</ele>
        <time>2021-06-21T09:22:34.537Z</time>
      </trkpt>
      <trkpt lat="43.35382" lon="-1.54975">
        <ele>17</ele>
        <time>2021-06-21T09:22:35.542Z</time>
      </trkpt>
      <trkpt lat="43.35383" lon="-1.54984">
        <ele>16</ele>
        <time>2021-06-21T09:22:36.514Z</time>
      </trkpt>
      <trkpt lat="43.35383" lon="-1.54988">
        <ele>16</ele>
        <time>2021-06-21T09:22:37.513Z</time>
      </trkpt>
      <trkpt lat="43.35383" lon="-1.54988">
        <ele>16</ele>
        <time>2021-06-21T09:22:38.518Z</time>
      </trkpt>
      <trkpt lat="43.35383" lon="-1.54996">
        <ele>16</ele>
        <time>2021-06-21T09:22:39.526Z</time>
      </trkpt>
      <trkpt lat="43.35383" lon="-1.54996">
        <ele>16</ele>
        <time>2021-06-21T09:22:40.532Z</time>
      </trkpt>
      <trkpt lat="43.35383" lon="-1.55003">
        <ele>16</ele>
        <time>2021-06-21T09:22:41.519Z</time>
      </trkpt>
      <trkpt lat="43.35383" lon="-1.55003">
        <ele>16</ele>
        <time>2021-06-21T09:22:42.524Z</time>
      </trkpt>
      <trkpt lat="43.35383" lon="-1.55006">
        <ele>15</ele>
        <time>2021-06-21T09:22:43.525Z</time>
      </trkpt>
      <trkpt lat="43.35383" lon="-1.55006">
        <ele>15</ele>
        <time>2021-06-21T09:22:44.531Z</time>
      </trkpt>
      <trkpt lat="43.35384" lon="-1.55008">
        <ele>15</ele>
        <time>2021-06-21T09:22:45.511Z</time>
      </trkpt>
      <trkpt lat="43.35384" lon="-1.55008">
        <ele>15</ele>
        <time>2021-06-21T09:22:46.517Z</time>
      </trkpt>
      <trkpt lat="43.35387" lon="-1.55011">
        <ele>15</ele>
        <time>2021-06-21T09:22:47.517Z</time>
      </trkpt>
      <trkpt lat="43.35387" lon="-1.55011">
        <ele>15</ele>
        <time>2021-06-21T09:22:48.522Z</time>
      </trkpt>
      <trkpt lat="43.35391" lon="-1.55015">
        <ele>15</ele>
        <time>2021-06-21T09:22:49.521Z</time>
      </trkpt>
      <trkpt lat="43.35391" lon="-1.55015">
        <ele>15</ele>
        <time>2021-06-21T09:22:50.527Z</time>
      </trkpt>
      <trkpt lat="43.35397" lon="-1.55017">
        <ele>15</ele>
        <time>2021-06-21T09:22:51.519Z</time>
      </trkpt>
      <trkpt lat="43.35399" lon="-1.55019">
        <ele>15</ele>
        <time>2021-06-21T09:22:52.529Z</time>
      </trkpt>
      <trkpt lat="43.35399" lon="-1.55019">
        <ele>15</ele>
        <time>2021-06-21T09:22:53.534Z</time>
      </trkpt>
      <trkpt lat="43.35404" lon="-1.55022">
        <ele>15</ele>
        <time>2021-06-21T09:22:54.532Z</time>
      </trkpt>
      <trkpt lat="43.35407" lon="-1.55024">
        <ele>15</ele>
        <time>2021-06-21T09:22:55.531Z</time>
      </trkpt>
      <trkpt lat="43.35407" lon="-1.55024">
        <ele>15</ele>
        <time>2021-06-21T09:22:56.536Z</time>
      </trkpt>
      <trkpt lat="43.35413" lon="-1.55026">
        <ele>15</ele>
        <time>2021-06-21T09:22:57.542Z</time>
      </trkpt>
      <trkpt lat="43.35413" lon="-1.55026">
        <ele>15</ele>
        <time>2021-06-21T09:22:58.509Z</time>
      </trkpt>
      <trkpt lat="43.3542" lon="-1.55028">
        <ele>16</ele>
        <time>2021-06-21T09:22:59.512Z</time>
      </trkpt>
      <trkpt lat="43.35423" lon="-1.55027">
        <ele>16</ele>
        <time>2021-06-21T09:23:00.509Z</time>
      </trkpt>
      <trkpt lat="43.35426" lon="-1.55025">
        <ele>16</ele>
        <time>2021-06-21T09:23:01.532Z</time>
      </trkpt>
      <trkpt lat="43.35426" lon="-1.55025">
        <ele>16</ele>
        <time>2021-06-21T09:23:02.537Z</time>
      </trkpt>
      <trkpt lat="43.35428" lon="-1.55018">
        <ele>15</ele>
        <time>2021-06-21T09:23:03.522Z</time>
      </trkpt>
      <trkpt lat="43.35428" lon="-1.55018">
        <ele>15</ele>
        <time>2021-06-21T09:23:04.528Z</time>
      </trkpt>
      <trkpt lat="43.35429" lon="-1.55008">
        <ele>15</ele>
        <time>2021-06-21T09:23:05.537Z</time>
      </trkpt>
      <trkpt lat="43.3543" lon="-1.55003">
        <ele>15</ele>
        <time>2021-06-21T09:23:06.521Z</time>
      </trkpt>
      <trkpt lat="43.3543" lon="-1.54998">
        <ele>15</ele>
        <time>2021-06-21T09:23:07.541Z</time>
      </trkpt>
      <trkpt lat="43.3543" lon="-1.54998">
        <ele>15</ele>
        <time>2021-06-21T09:23:08.547Z</time>
      </trkpt>
      <trkpt lat="43.35431" lon="-1.54988">
        <ele>15</ele>
        <time>2021-06-21T09:23:09.543Z</time>
      </trkpt>
      <trkpt lat="43.35431" lon="-1.54988">
        <ele>15</ele>
        <time>2021-06-21T09:23:10.510Z</time>
      </trkpt>
      <trkpt lat="43.35431" lon="-1.54978">
        <ele>15</ele>
        <time>2021-06-21T09:23:11.543Z</time>
      </trkpt>
      <trkpt lat="43.35431" lon="-1.54978">
        <ele>15</ele>
        <time>2021-06-21T09:23:12.509Z</time>
      </trkpt>
      <trkpt lat="43.35433" lon="-1.54967">
        <ele>15</ele>
        <time>2021-06-21T09:23:13.536Z</time>
      </trkpt>
      <trkpt lat="43.35433" lon="-1.54967">
        <ele>15</ele>
        <time>2021-06-21T09:23:14.541Z</time>
      </trkpt>
      <trkpt lat="43.35433" lon="-1.54957">
        <ele>15</ele>
        <time>2021-06-21T09:23:15.531Z</time>
      </trkpt>
      <trkpt lat="43.35433" lon="-1.54957">
        <ele>15</ele>
        <time>2021-06-21T09:23:16.537Z</time>
      </trkpt>
      <trkpt lat="43.35433" lon="-1.54946">
        <ele>15</ele>
        <time>2021-06-21T09:23:17.525Z</time>
      </trkpt>
      <trkpt lat="43.35433" lon="-1.54946">
        <ele>15</ele>
        <time>2021-06-21T09:23:18.531Z</time>
      </trkpt>
      <trkpt lat="43.35434" lon="-1.54935">
        <ele>16</ele>
        <time>2021-06-21T09:23:19.538Z</time>
      </trkpt>
      <trkpt lat="43.35434" lon="-1.54935">
        <ele>16</ele>
        <time>2021-06-21T09:23:20.543Z</time>
      </trkpt>
      <trkpt lat="43.35435" lon="-1.54925">
        <ele>16</ele>
        <time>2021-06-21T09:23:21.519Z</time>
      </trkpt>
      <trkpt lat="43.35435" lon="-1.54925">
        <ele>16</ele>
        <time>2021-06-21T09:23:22.539Z</time>
      </trkpt>
      <trkpt lat="43.35436" lon="-1.54914">
        <ele>16</ele>
        <time>2021-06-21T09:23:23.538Z</time>
      </trkpt>
      <trkpt lat="43.35436" lon="-1.54909">
        <ele>16</ele>
        <time>2021-06-21T09:23:24.532Z</time>
      </trkpt>
      <trkpt lat="43.35437" lon="-1.54904">
        <ele>16</ele>
        <time>2021-06-21T09:23:25.527Z</time>
      </trkpt>
      <trkpt lat="43.35437" lon="-1.54904">
        <ele>16</ele>
        <time>2021-06-21T09:23:26.533Z</time>
      </trkpt>
      <trkpt lat="43.35438" lon="-1.54894">
        <ele>15</ele>
        <time>2021-06-21T09:23:27.535Z</time>
      </trkpt>
      <trkpt lat="43.35438" lon="-1.54894">
        <ele>15</ele>
        <time>2021-06-21T09:23:28.541Z</time>
      </trkpt>
      <trkpt lat="43.35439" lon="-1.54887">
        <ele>15</ele>
        <time>2021-06-21T09:23:29.521Z</time>
      </trkpt>
      <trkpt lat="43.35439" lon="-1.54887">
        <ele>15</ele>
        <time>2021-06-21T09:23:30.526Z</time>
      </trkpt>
      <trkpt lat="43.35441" lon="-1.5488">
        <ele>16</ele>
        <time>2021-06-21T09:23:31.519Z</time>
      </trkpt>
      <trkpt lat="43.35441" lon="-1.5488">
        <ele>16</ele>
        <time>2021-06-21T09:23:32.525Z</time>
      </trkpt>
      <trkpt lat="43.35442" lon="-1.54873">
        <ele>16</ele>
        <time>2021-06-21T09:23:33.512Z</time>
      </trkpt>
      <trkpt lat="43.35442" lon="-1.54873">
        <ele>16</ele>
        <time>2021-06-21T09:23:34.526Z</time>
      </trkpt>
      <trkpt lat="43.35444" lon="-1.54866">
        <ele>16</ele>
        <time>2021-06-21T09:23:35.517Z</time>
      </trkpt>
      <trkpt lat="43.35444" lon="-1.54866">
        <ele>16</ele>
        <time>2021-06-21T09:23:36.522Z</time>
      </trkpt>
      <trkpt lat="43.35448" lon="-1.54861">
        <ele>16</ele>
        <time>2021-06-21T09:23:37.512Z</time>
      </trkpt>
      <trkpt lat="43.35448" lon="-1.54861">
        <ele>16</ele>
        <time>2021-06-21T09:23:38.526Z</time>
      </trkpt>
      <trkpt lat="43.35452" lon="-1.5486">
        <ele>16</ele>
        <time>2021-06-21T09:23:39.512Z</time>
      </trkpt>
      <trkpt lat="43.35452" lon="-1.5486">
        <ele>16</ele>
        <time>2021-06-21T09:23:40.517Z</time>
      </trkpt>
      <trkpt lat="43.35457" lon="-1.54859">
        <ele>16</ele>
        <time>2021-06-21T09:23:41.509Z</time>
      </trkpt>
      <trkpt lat="43.35457" lon="-1.54859">
        <ele>16</ele>
        <time>2021-06-21T09:23:42.515Z</time>
      </trkpt>
      <trkpt lat="43.35463" lon="-1.54859">
        <ele>15</ele>
        <time>2021-06-21T09:23:43.548Z</time>
      </trkpt>
      <trkpt lat="43.35463" lon="-1.54859">
        <ele>15</ele>
        <time>2021-06-21T09:23:44.513Z</time>
      </trkpt>
      <trkpt lat="43.35468" lon="-1.5486">
        <ele>15</ele>
        <time>2021-06-21T09:23:45.547Z</time>
      </trkpt>
      <trkpt lat="43.35471" lon="-1.5486">
        <ele>15</ele>
        <time>2021-06-21T09:23:46.526Z</time>
      </trkpt>
      <trkpt lat="43.35471" lon="-1.5486">
        <ele>15</ele>
        <time>2021-06-21T09:23:47.531Z</time>
      </trkpt>
      <trkpt lat="43.35477" lon="-1.54861">
        <ele>15</ele>
        <time>2021-06-21T09:23:48.521Z</time>
      </trkpt>
      <trkpt lat="43.3548" lon="-1.54862">
        <ele>15</ele>
        <time>2021-06-21T09:23:49.522Z</time>
      </trkpt>
      <trkpt lat="43.3548" lon="-1.54862">
        <ele>15</ele>
        <time>2021-06-21T09:23:50.526Z</time>
      </trkpt>
      <trkpt lat="43.35486" lon="-1.54863">
        <ele>15</ele>
        <time>2021-06-21T09:23:51.513Z</time>
      </trkpt>
      <trkpt lat="43.35486" lon="-1.54863">
        <ele>15</ele>
        <time>2021-06-21T09:23:52.518Z</time>
      </trkpt>
      <trkpt lat="43.35491" lon="-1.54863">
        <ele>14</ele>
        <time>2021-06-21T09:23:53.522Z</time>
      </trkpt>
      <trkpt lat="43.35493" lon="-1.54863">
        <ele>14</ele>
        <time>2021-06-21T09:23:54.547Z</time>
      </trkpt>
      <trkpt lat="43.35495" lon="-1.54864">
        <ele>14</ele>
        <time>2021-06-21T09:23:55.536Z</time>
      </trkpt>
      <trkpt lat="43.35495" lon="-1.54864">
        <ele>14</ele>
        <time>2021-06-21T09:23:56.541Z</time>
      </trkpt>
      <trkpt lat="43.35499" lon="-1.54865">
        <ele>14</ele>
        <time>2021-06-21T09:23:57.531Z</time>
      </trkpt>
      <trkpt lat="43.35499" lon="-1.54865">
        <ele>14</ele>
        <time>2021-06-21T09:23:58.536Z</time>
      </trkpt>
      <trkpt lat="43.35503" lon="-1.5487">
        <ele>14</ele>
        <time>2021-06-21T09:23:59.512Z</time>
      </trkpt>
      <trkpt lat="43.35503" lon="-1.5487">
        <ele>14</ele>
        <time>2021-06-21T09:24:00.518Z</time>
      </trkpt>
      <trkpt lat="43.35507" lon="-1.54876">
        <ele>13</ele>
        <time>2021-06-21T09:24:01.541Z</time>
      </trkpt>
      <trkpt lat="43.35507" lon="-1.54876">
        <ele>13</ele>
        <time>2021-06-21T09:24:02.547Z</time>
      </trkpt>
      <trkpt lat="43.35511" lon="-1.54883">
        <ele>14</ele>
        <time>2021-06-21T09:24:03.536Z</time>
      </trkpt>
      <trkpt lat="43.35511" lon="-1.54883">
        <ele>14</ele>
        <time>2021-06-21T09:24:04.541Z</time>
      </trkpt>
      <trkpt lat="43.35518" lon="-1.54886">
        <ele>16</ele>
        <time>2021-06-21T09:24:05.536Z</time>
      </trkpt>
      <trkpt lat="43.35518" lon="-1.54886">
        <ele>16</ele>
        <time>2021-06-21T09:24:06.542Z</time>
      </trkpt>
      <trkpt lat="43.35524" lon="-1.54888">
        <ele>17</ele>
        <time>2021-06-21T09:24:07.529Z</time>
      </trkpt>
      <trkpt lat="43.35524" lon="-1.54888">
        <ele>17</ele>
        <time>2021-06-21T09:24:08.535Z</time>
      </trkpt>
      <trkpt lat="43.35529" lon="-1.54892">
        <ele>17</ele>
        <time>2021-06-21T09:24:09.518Z</time>
      </trkpt>
      <trkpt lat="43.35531" lon="-1.54896">
        <ele>17</ele>
        <time>2021-06-21T09:24:10.510Z</time>
      </trkpt>
      <trkpt lat="43.35531" lon="-1.54896">
        <ele>17</ele>
        <time>2021-06-21T09:24:11.516Z</time>
      </trkpt>
      <trkpt lat="43.35533" lon="-1.54907">
        <ele>18</ele>
        <time>2021-06-21T09:24:12.542Z</time>
      </trkpt>
      <trkpt lat="43.35533" lon="-1.54913">
        <ele>18</ele>
        <time>2021-06-21T09:24:13.533Z</time>
      </trkpt>
      <trkpt lat="43.35533" lon="-1.54913">
        <ele>18</ele>
        <time>2021-06-21T09:24:14.538Z</time>
      </trkpt>
      <trkpt lat="43.35535" lon="-1.54924">
        <ele>18</ele>
        <time>2021-06-21T09:24:15.524Z</time>
      </trkpt>
      <trkpt lat="43.35535" lon="-1.54924">
        <ele>18</ele>
        <time>2021-06-21T09:24:16.530Z</time>
      </trkpt>
      <trkpt lat="43.35535" lon="-1.54934">
        <ele>18</ele>
        <time>2021-06-21T09:24:17.521Z</time>
      </trkpt>
      <trkpt lat="43.35536" lon="-1.5494">
        <ele>18</ele>
        <time>2021-06-21T09:24:18.546Z</time>
      </trkpt>
      <trkpt lat="43.35536" lon="-1.54945">
        <ele>19</ele>
        <time>2021-06-21T09:24:19.533Z</time>
      </trkpt>
      <trkpt lat="43.35536" lon="-1.54945">
        <ele>19</ele>
        <time>2021-06-21T09:24:20.538Z</time>
      </trkpt>
      <trkpt lat="43.3554" lon="-1.54954">
        <ele>18</ele>
        <time>2021-06-21T09:24:21.531Z</time>
      </trkpt>
      <trkpt lat="43.3554" lon="-1.54954">
        <ele>18</ele>
        <time>2021-06-21T09:24:22.510Z</time>
      </trkpt>
      <trkpt lat="43.35546" lon="-1.54958">
        <ele>19</ele>
        <time>2021-06-21T09:24:23.518Z</time>
      </trkpt>
      <trkpt lat="43.35546" lon="-1.54958">
        <ele>19</ele>
        <time>2021-06-21T09:24:24.524Z</time>
      </trkpt>
      <trkpt lat="43.35554" lon="-1.54958">
        <ele>18</ele>
        <time>2021-06-21T09:24:25.522Z</time>
      </trkpt>
      <trkpt lat="43.35554" lon="-1.54958">
        <ele>18</ele>
        <time>2021-06-21T09:24:26.527Z</time>
      </trkpt>
      <trkpt lat="43.35561" lon="-1.54957">
        <ele>18</ele>
        <time>2021-06-21T09:24:27.523Z</time>
      </trkpt>
      <trkpt lat="43.35561" lon="-1.54957">
        <ele>18</ele>
        <time>2021-06-21T09:24:28.529Z</time>
      </trkpt>
      <trkpt lat="43.35568" lon="-1.54956">
        <ele>18</ele>
        <time>2021-06-21T09:24:29.542Z</time>
      </trkpt>
      <trkpt lat="43.35572" lon="-1.54956">
        <ele>18</ele>
        <time>2021-06-21T09:24:30.534Z</time>
      </trkpt>
      <trkpt lat="43.35575" lon="-1.54956">
        <ele>18</ele>
        <time>2021-06-21T09:24:31.531Z</time>
      </trkpt>
      <trkpt lat="43.35575" lon="-1.54956">
        <ele>18</ele>
        <time>2021-06-21T09:24:32.536Z</time>
      </trkpt>
      <trkpt lat="43.35583" lon="-1.54955">
        <ele>17</ele>
        <time>2021-06-21T09:24:33.529Z</time>
      </trkpt>
      <trkpt lat="43.35587" lon="-1.54955">
        <ele>18</ele>
        <time>2021-06-21T09:24:34.531Z</time>
      </trkpt>
      <trkpt lat="43.35587" lon="-1.54955">
        <ele>18</ele>
        <time>2021-06-21T09:24:35.536Z</time>
      </trkpt>
      <trkpt lat="43.35594" lon="-1.54954">
        <ele>17</ele>
        <time>2021-06-21T09:24:36.529Z</time>
      </trkpt>
      <trkpt lat="43.35597" lon="-1.54954">
        <ele>17</ele>
        <time>2021-06-21T09:24:37.515Z</time>
      </trkpt>
      <trkpt lat="43.35597" lon="-1.54954">
        <ele>17</ele>
        <time>2021-06-21T09:24:38.523Z</time>
      </trkpt>
      <trkpt lat="43.35604" lon="-1.54953">
        <ele>18</ele>
        <time>2021-06-21T09:24:39.512Z</time>
      </trkpt>
      <trkpt lat="43.35607" lon="-1.54953">
        <ele>18</ele>
        <time>2021-06-21T09:24:40.518Z</time>
      </trkpt>
      <trkpt lat="43.35607" lon="-1.54953">
        <ele>18</ele>
        <time>2021-06-21T09:24:41.524Z</time>
      </trkpt>
      <trkpt lat="43.35613" lon="-1.54952">
        <ele>18</ele>
        <time>2021-06-21T09:24:42.513Z</time>
      </trkpt>
      <trkpt lat="43.35616" lon="-1.54952">
        <ele>18</ele>
        <time>2021-06-21T09:24:43.512Z</time>
      </trkpt>
      <trkpt lat="43.35616" lon="-1.54952">
        <ele>18</ele>
        <time>2021-06-21T09:24:44.517Z</time>
      </trkpt>
      <trkpt lat="43.3562" lon="-1.54951">
        <ele>18</ele>
        <time>2021-06-21T09:24:45.512Z</time>
      </trkpt>
      <trkpt lat="43.3562" lon="-1.54951">
        <ele>18</ele>
        <time>2021-06-21T09:24:46.517Z</time>
      </trkpt>
      <trkpt lat="43.35624" lon="-1.54952">
        <ele>17</ele>
        <time>2021-06-21T09:24:47.509Z</time>
      </trkpt>
      <trkpt lat="43.35626" lon="-1.54952">
        <ele>17</ele>
        <time>2021-06-21T09:24:48.529Z</time>
      </trkpt>
      <trkpt lat="43.35628" lon="-1.54953">
        <ele>17</ele>
        <time>2021-06-21T09:24:49.548Z</time>
      </trkpt>
      <trkpt lat="43.3563" lon="-1.54956">
        <ele>17</ele>
        <time>2021-06-21T09:24:50.542Z</time>
      </trkpt>
      <trkpt lat="43.3563" lon="-1.54956">
        <ele>17</ele>
        <time>2021-06-21T09:24:51.548Z</time>
      </trkpt>
      <trkpt lat="43.35631" lon="-1.54962">
        <ele>18</ele>
        <time>2021-06-21T09:24:52.537Z</time>
      </trkpt>
      <trkpt lat="43.35631" lon="-1.54962">
        <ele>18</ele>
        <time>2021-06-21T09:24:53.543Z</time>
      </trkpt>
      <trkpt lat="43.3563" lon="-1.5497">
        <ele>18</ele>
        <time>2021-06-21T09:24:54.541Z</time>
      </trkpt>
      <trkpt lat="43.35629" lon="-1.54974">
        <ele>18</ele>
        <time>2021-06-21T09:24:55.526Z</time>
      </trkpt>
      <trkpt lat="43.35629" lon="-1.54974">
        <ele>18</ele>
        <time>2021-06-21T09:24:56.531Z</time>
      </trkpt>
      <trkpt lat="43.35628" lon="-1.54982">
        <ele>18</ele>
        <time>2021-06-21T09:24:57.537Z</time>
      </trkpt>
      <trkpt lat="43.35628" lon="-1.54982">
        <ele>18</ele>
        <time>2021-06-21T09:24:58.543Z</time>
      </trkpt>
      <trkpt lat="43.35628" lon="-1.5499">
        <ele>18</ele>
        <time>2021-06-21T09:24:59.527Z</time>
      </trkpt>
      <trkpt lat="43.35628" lon="-1.5499">
        <ele>18</ele>
        <time>2021-06-21T09:25:00.532Z</time>
      </trkpt>
      <trkpt lat="43.35627" lon="-1.54999">
        <ele>18</ele>
        <time>2021-06-21T09:25:01.539Z</time>
      </trkpt>
      <trkpt lat="43.35627" lon="-1.54999">
        <ele>18</ele>
        <time>2021-06-21T09:25:02.545Z</time>
      </trkpt>
      <trkpt lat="43.35628" lon="-1.5501">
        <ele>18</ele>
        <time>2021-06-21T09:25:03.537Z</time>
      </trkpt>
      <trkpt lat="43.35628" lon="-1.5501">
        <ele>18</ele>
        <time>2021-06-21T09:25:04.541Z</time>
      </trkpt>
      <trkpt lat="43.3563" lon="-1.55019">
        <ele>18</ele>
        <time>2021-06-21T09:25:05.547Z</time>
      </trkpt>
      <trkpt lat="43.35631" lon="-1.55023">
        <ele>18</ele>
        <time>2021-06-21T09:25:06.538Z</time>
      </trkpt>
      <trkpt lat="43.35632" lon="-1.55028">
        <ele>18</ele>
        <time>2021-06-21T09:25:07.539Z</time>
      </trkpt>
      <trkpt lat="43.35632" lon="-1.55028">
        <ele>18</ele>
        <time>2021-06-21T09:25:08.546Z</time>
      </trkpt>
      <trkpt lat="43.35635" lon="-1.55037">
        <ele>18</ele>
        <time>2021-06-21T09:25:09.528Z</time>
      </trkpt>
      <trkpt lat="43.35635" lon="-1.55037">
        <ele>18</ele>
        <time>2021-06-21T09:25:10.535Z</time>
      </trkpt>
      <trkpt lat="43.35636" lon="-1.55045">
        <ele>18</ele>
        <time>2021-06-21T09:25:11.541Z</time>
      </trkpt>
      <trkpt lat="43.35636" lon="-1.55045">
        <ele>18</ele>
        <time>2021-06-21T09:25:12.546Z</time>
      </trkpt>
      <trkpt lat="43.35638" lon="-1.55051">
        <ele>18</ele>
        <time>2021-06-21T09:25:13.535Z</time>
      </trkpt>
      <trkpt lat="43.35638" lon="-1.55051">
        <ele>18</ele>
        <time>2021-06-21T09:25:14.541Z</time>
      </trkpt>
      <trkpt lat="43.35642" lon="-1.55056">
        <ele>17</ele>
        <time>2021-06-21T09:25:15.528Z</time>
      </trkpt>
      <trkpt lat="43.35642" lon="-1.55056">
        <ele>17</ele>
        <time>2021-06-21T09:25:16.533Z</time>
      </trkpt>
      <trkpt lat="43.35645" lon="-1.55063">
        <ele>18</ele>
        <time>2021-06-21T09:25:17.541Z</time>
      </trkpt>
      <trkpt lat="43.35645" lon="-1.55063">
        <ele>18</ele>
        <time>2021-06-21T09:25:18.548Z</time>
      </trkpt>
      <trkpt lat="43.35648" lon="-1.55071">
        <ele>18</ele>
        <time>2021-06-21T09:25:19.536Z</time>
      </trkpt>
      <trkpt lat="43.35648" lon="-1.55071">
        <ele>18</ele>
        <time>2021-06-21T09:25:20.542Z</time>
      </trkpt>
      <trkpt lat="43.35651" lon="-1.55079">
        <ele>18</ele>
        <time>2021-06-21T09:25:21.534Z</time>
      </trkpt>
      <trkpt lat="43.35655" lon="-1.55087">
        <ele>17</ele>
        <time>2021-06-21T09:25:22.517Z</time>
      </trkpt>
      <trkpt lat="43.35655" lon="-1.55087">
        <ele>17</ele>
        <time>2021-06-21T09:25:23.531Z</time>
      </trkpt>
      <trkpt lat="43.35658" lon="-1.55091">
        <ele>17</ele>
        <time>2021-06-21T09:25:24.524Z</time>
      </trkpt>
      <trkpt lat="43.3566" lon="-1.55095">
        <ele>17</ele>
        <time>2021-06-21T09:25:25.514Z</time>
      </trkpt>
      <trkpt lat="43.3566" lon="-1.55095">
        <ele>17</ele>
        <time>2021-06-21T09:25:26.519Z</time>
      </trkpt>
      <trkpt lat="43.35663" lon="-1.55105">
        <ele>18</ele>
        <time>2021-06-21T09:25:27.547Z</time>
      </trkpt>
      <trkpt lat="43.35665" lon="-1.55109">
        <ele>18</ele>
        <time>2021-06-21T09:25:28.530Z</time>
      </trkpt>
      <trkpt lat="43.35665" lon="-1.55109">
        <ele>18</ele>
        <time>2021-06-21T09:25:29.535Z</time>
      </trkpt>
      <trkpt lat="43.35669" lon="-1.55118">
        <ele>18</ele>
        <time>2021-06-21T09:25:30.542Z</time>
      </trkpt>
      <trkpt lat="43.35672" lon="-1.55123">
        <ele>18</ele>
        <time>2021-06-21T09:25:31.521Z</time>
      </trkpt>
      <trkpt lat="43.35672" lon="-1.55123">
        <ele>18</ele>
        <time>2021-06-21T09:25:32.526Z</time>
      </trkpt>
      <trkpt lat="43.35676" lon="-1.55132">
        <ele>19</ele>
        <time>2021-06-21T09:25:33.521Z</time>
      </trkpt>
      <trkpt lat="43.35676" lon="-1.55132">
        <ele>19</ele>
        <time>2021-06-21T09:25:34.526Z</time>
      </trkpt>
      <trkpt lat="43.3568" lon="-1.5514">
        <ele>19</ele>
        <time>2021-06-21T09:25:35.516Z</time>
      </trkpt>
      <trkpt lat="43.3568" lon="-1.5514">
        <ele>19</ele>
        <time>2021-06-21T09:25:36.528Z</time>
      </trkpt>
      <trkpt lat="43.35685" lon="-1.55148">
        <ele>19</ele>
        <time>2021-06-21T09:25:37.532Z</time>
      </trkpt>
      <trkpt lat="43.35685" lon="-1.55148">
        <ele>19</ele>
        <time>2021-06-21T09:25:38.537Z</time>
      </trkpt>
      <trkpt lat="43.3569" lon="-1.55156">
        <ele>19</ele>
        <time>2021-06-21T09:25:39.532Z</time>
      </trkpt>
      <trkpt lat="43.35692" lon="-1.5516">
        <ele>19</ele>
        <time>2021-06-21T09:25:40.527Z</time>
      </trkpt>
      <trkpt lat="43.35692" lon="-1.5516">
        <ele>19</ele>
        <time>2021-06-21T09:25:41.533Z</time>
      </trkpt>
      <trkpt lat="43.35697" lon="-1.55168">
        <ele>19</ele>
        <time>2021-06-21T09:25:42.533Z</time>
      </trkpt>
      <trkpt lat="43.357" lon="-1.55172">
        <ele>19</ele>
        <time>2021-06-21T09:25:43.521Z</time>
      </trkpt>
      <trkpt lat="43.357" lon="-1.55172">
        <ele>19</ele>
        <time>2021-06-21T09:25:44.526Z</time>
      </trkpt>
      <trkpt lat="43.35705" lon="-1.5518">
        <ele>20</ele>
        <time>2021-06-21T09:25:45.522Z</time>
      </trkpt>
      <trkpt lat="43.35708" lon="-1.55184">
        <ele>19</ele>
        <time>2021-06-21T09:25:46.512Z</time>
      </trkpt>
      <trkpt lat="43.35708" lon="-1.55184">
        <ele>19</ele>
        <time>2021-06-21T09:25:47.517Z</time>
      </trkpt>
      <trkpt lat="43.35713" lon="-1.55193">
        <ele>19</ele>
        <time>2021-06-21T09:25:48.536Z</time>
      </trkpt>
      <trkpt lat="43.35715" lon="-1.55197">
        <ele>19</ele>
        <time>2021-06-21T09:25:49.512Z</time>
      </trkpt>
      <trkpt lat="43.35715" lon="-1.55197">
        <ele>19</ele>
        <time>2021-06-21T09:25:50.517Z</time>
      </trkpt>
      <trkpt lat="43.35721" lon="-1.55206">
        <ele>19</ele>
        <time>2021-06-21T09:25:51.539Z</time>
      </trkpt>
      <trkpt lat="43.35724" lon="-1.5521">
        <ele>19</ele>
        <time>2021-06-21T09:25:52.535Z</time>
      </trkpt>
      <trkpt lat="43.35724" lon="-1.5521">
        <ele>19</ele>
        <time>2021-06-21T09:25:53.542Z</time>
      </trkpt>
      <trkpt lat="43.3573" lon="-1.55219">
        <ele>19</ele>
        <time>2021-06-21T09:25:54.512Z</time>
      </trkpt>
      <trkpt lat="43.35733" lon="-1.55223">
        <ele>19</ele>
        <time>2021-06-21T09:25:55.511Z</time>
      </trkpt>
      <trkpt lat="43.35733" lon="-1.55223">
        <ele>19</ele>
        <time>2021-06-21T09:25:56.516Z</time>
      </trkpt>
      <trkpt lat="43.35738" lon="-1.55232">
        <ele>18</ele>
        <time>2021-06-21T09:25:57.518Z</time>
      </trkpt>
      <trkpt lat="43.35738" lon="-1.55232">
        <ele>18</ele>
        <time>2021-06-21T09:25:58.523Z</time>
      </trkpt>
      <trkpt lat="43.35743" lon="-1.5524">
        <ele>18</ele>
        <time>2021-06-21T09:25:59.512Z</time>
      </trkpt>
      <trkpt lat="43.35743" lon="-1.5524">
        <ele>18</ele>
        <time>2021-06-21T09:26:00.516Z</time>
      </trkpt>
      <trkpt lat="43.35749" lon="-1.55248">
        <ele>18</ele>
        <time>2021-06-21T09:26:01.511Z</time>
      </trkpt>
      <trkpt lat="43.35749" lon="-1.55248">
        <ele>18</ele>
        <time>2021-06-21T09:26:02.517Z</time>
      </trkpt>
      <trkpt lat="43.35755" lon="-1.55258">
        <ele>17</ele>
        <time>2021-06-21T09:26:03.512Z</time>
      </trkpt>
      <trkpt lat="43.35755" lon="-1.55258">
        <ele>17</ele>
        <time>2021-06-21T09:26:04.518Z</time>
      </trkpt>
      <trkpt lat="43.3576" lon="-1.55269">
        <ele>17</ele>
        <time>2021-06-21T09:26:05.546Z</time>
      </trkpt>
      <trkpt lat="43.3576" lon="-1.55269">
        <ele>17</ele>
        <time>2021-06-21T09:26:06.512Z</time>
      </trkpt>
      <trkpt lat="43.35765" lon="-1.55281">
        <ele>17</ele>
        <time>2021-06-21T09:26:07.542Z</time>
      </trkpt>
      <trkpt lat="43.35765" lon="-1.55281">
        <ele>17</ele>
        <time>2021-06-21T09:26:08.548Z</time>
      </trkpt>
      <trkpt lat="43.3577" lon="-1.55295">
        <ele>17</ele>
        <time>2021-06-21T09:26:09.542Z</time>
      </trkpt>
      <trkpt lat="43.3577" lon="-1.55295">
        <ele>17</ele>
        <time>2021-06-21T09:26:10.548Z</time>
      </trkpt>
      <trkpt lat="43.35772" lon="-1.5531">
        <ele>17</ele>
        <time>2021-06-21T09:26:11.547Z</time>
      </trkpt>
      <trkpt lat="43.35772" lon="-1.5531">
        <ele>17</ele>
        <time>2021-06-21T09:26:12.514Z</time>
      </trkpt>
      <trkpt lat="43.35774" lon="-1.55325">
        <ele>16</ele>
        <time>2021-06-21T09:26:13.542Z</time>
      </trkpt>
      <trkpt lat="43.35774" lon="-1.55325">
        <ele>16</ele>
        <time>2021-06-21T09:26:14.509Z</time>
      </trkpt>
      <trkpt lat="43.35777" lon="-1.55341">
        <ele>16</ele>
        <time>2021-06-21T09:26:15.544Z</time>
      </trkpt>
      <trkpt lat="43.35777" lon="-1.55341">
        <ele>16</ele>
        <time>2021-06-21T09:26:16.510Z</time>
      </trkpt>
      <trkpt lat="43.35779" lon="-1.55356">
        <ele>15</ele>
        <time>2021-06-21T09:26:17.541Z</time>
      </trkpt>
      <trkpt lat="43.3578" lon="-1.55364">
        <ele>15</ele>
        <time>2021-06-21T09:26:18.539Z</time>
      </trkpt>
      <trkpt lat="43.35782" lon="-1.55372">
        <ele>15</ele>
        <time>2021-06-21T09:26:19.541Z</time>
      </trkpt>
      <trkpt lat="43.35782" lon="-1.55372">
        <ele>15</ele>
        <time>2021-06-21T09:26:20.548Z</time>
      </trkpt>
      <trkpt lat="43.35784" lon="-1.55387">
        <ele>14</ele>
        <time>2021-06-21T09:26:21.538Z</time>
      </trkpt>
      <trkpt lat="43.35784" lon="-1.55387">
        <ele>14</ele>
        <time>2021-06-21T09:26:22.514Z</time>
      </trkpt>
      <trkpt lat="43.35785" lon="-1.55402">
        <ele>14</ele>
        <time>2021-06-21T09:26:23.512Z</time>
      </trkpt>
      <trkpt lat="43.35785" lon="-1.55402">
        <ele>14</ele>
        <time>2021-06-21T09:26:24.517Z</time>
      </trkpt>
      <trkpt lat="43.35787" lon="-1.55417">
        <ele>13</ele>
        <time>2021-06-21T09:26:25.512Z</time>
      </trkpt>
      <trkpt lat="43.35787" lon="-1.55417">
        <ele>13</ele>
        <time>2021-06-21T09:26:26.519Z</time>
      </trkpt>
      <trkpt lat="43.35789" lon="-1.55431">
        <ele>13</ele>
        <time>2021-06-21T09:26:27.510Z</time>
      </trkpt>
      <trkpt lat="43.35789" lon="-1.55431">
        <ele>13</ele>
        <time>2021-06-21T09:26:28.515Z</time>
      </trkpt>
      <trkpt lat="43.35792" lon="-1.55446">
        <ele>13</ele>
        <time>2021-06-21T09:26:29.512Z</time>
      </trkpt>
      <trkpt lat="43.35792" lon="-1.55446">
        <ele>13</ele>
        <time>2021-06-21T09:26:30.517Z</time>
      </trkpt>
      <trkpt lat="43.35794" lon="-1.55461">
        <ele>13</ele>
        <time>2021-06-21T09:26:31.519Z</time>
      </trkpt>
      <trkpt lat="43.35794" lon="-1.55461">
        <ele>13</ele>
        <time>2021-06-21T09:26:32.524Z</time>
      </trkpt>
      <trkpt lat="43.35796" lon="-1.55476">
        <ele>12</ele>
        <time>2021-06-21T09:26:33.548Z</time>
      </trkpt>
      <trkpt lat="43.35797" lon="-1.55483">
        <ele>12</ele>
        <time>2021-06-21T09:26:34.540Z</time>
      </trkpt>
      <trkpt lat="43.35797" lon="-1.55483">
        <ele>12</ele>
        <time>2021-06-21T09:26:35.547Z</time>
      </trkpt>
      <trkpt lat="43.35798" lon="-1.55498">
        <ele>12</ele>
        <time>2021-06-21T09:26:36.512Z</time>
      </trkpt>
      <trkpt lat="43.35798" lon="-1.55498">
        <ele>12</ele>
        <time>2021-06-21T09:26:37.517Z</time>
      </trkpt>
      <trkpt lat="43.358" lon="-1.55512">
        <ele>11</ele>
        <time>2021-06-21T09:26:38.511Z</time>
      </trkpt>
      <trkpt lat="43.358" lon="-1.55512">
        <ele>11</ele>
        <time>2021-06-21T09:26:39.517Z</time>
      </trkpt>
      <trkpt lat="43.358" lon="-1.55526">
        <ele>11</ele>
        <time>2021-06-21T09:26:40.545Z</time>
      </trkpt>
      <trkpt lat="43.358" lon="-1.55526">
        <ele>11</ele>
        <time>2021-06-21T09:26:41.510Z</time>
      </trkpt>
      <trkpt lat="43.35799" lon="-1.55541">
        <ele>10</ele>
        <time>2021-06-21T09:26:42.510Z</time>
      </trkpt>
      <trkpt lat="43.35798" lon="-1.55548">
        <ele>10</ele>
        <time>2021-06-21T09:26:43.519Z</time>
      </trkpt>
      <trkpt lat="43.35798" lon="-1.55548">
        <ele>10</ele>
        <time>2021-06-21T09:26:44.525Z</time>
      </trkpt>
      <trkpt lat="43.35796" lon="-1.55562">
        <ele>10</ele>
        <time>2021-06-21T09:26:45.530Z</time>
      </trkpt>
      <trkpt lat="43.35796" lon="-1.55562">
        <ele>10</ele>
        <time>2021-06-21T09:26:46.536Z</time>
      </trkpt>
      <trkpt lat="43.35793" lon="-1.55576">
        <ele>10</ele>
        <time>2021-06-21T09:26:47.537Z</time>
      </trkpt>
      <trkpt lat="43.35793" lon="-1.55576">
        <ele>10</ele>
        <time>2021-06-21T09:26:48.541Z</time>
      </trkpt>
      <trkpt lat="43.35791" lon="-1.55589">
        <ele>10</ele>
        <time>2021-06-21T09:26:49.519Z</time>
      </trkpt>
      <trkpt lat="43.35791" lon="-1.55589">
        <ele>10</ele>
        <time>2021-06-21T09:26:50.524Z</time>
      </trkpt>
      <trkpt lat="43.35788" lon="-1.55602">
        <ele>10</ele>
        <time>2021-06-21T09:26:51.512Z</time>
      </trkpt>
      <trkpt lat="43.35788" lon="-1.55602">
        <ele>10</ele>
        <time>2021-06-21T09:26:52.517Z</time>
      </trkpt>
      <trkpt lat="43.35786" lon="-1.55616">
        <ele>10</ele>
        <time>2021-06-21T09:26:53.538Z</time>
      </trkpt>
      <trkpt lat="43.35786" lon="-1.55616">
        <ele>10</ele>
        <time>2021-06-21T09:26:54.544Z</time>
      </trkpt>
      <trkpt lat="43.35783" lon="-1.55629">
        <ele>10</ele>
        <time>2021-06-21T09:26:55.539Z</time>
      </trkpt>
      <trkpt lat="43.35783" lon="-1.55629">
        <ele>10</ele>
        <time>2021-06-21T09:26:56.545Z</time>
      </trkpt>
      <trkpt lat="43.35782" lon="-1.55642">
        <ele>10</ele>
        <time>2021-06-21T09:26:57.530Z</time>
      </trkpt>
      <trkpt lat="43.35782" lon="-1.55642">
        <ele>10</ele>
        <time>2021-06-21T09:26:58.535Z</time>
      </trkpt>
      <trkpt lat="43.35781" lon="-1.55657">
        <ele>10</ele>
        <time>2021-06-21T09:26:59.530Z</time>
      </trkpt>
      <trkpt lat="43.35781" lon="-1.55657">
        <ele>10</ele>
        <time>2021-06-21T09:27:00.535Z</time>
      </trkpt>
      <trkpt lat="43.35781" lon="-1.55672">
        <ele>10</ele>
        <time>2021-06-21T09:27:01.536Z</time>
      </trkpt>
      <trkpt lat="43.35781" lon="-1.55672">
        <ele>10</ele>
        <time>2021-06-21T09:27:02.542Z</time>
      </trkpt>
      <trkpt lat="43.35782" lon="-1.55686">
        <ele>9</ele>
        <time>2021-06-21T09:27:03.531Z</time>
      </trkpt>
      <trkpt lat="43.35782" lon="-1.55686">
        <ele>9</ele>
        <time>2021-06-21T09:27:04.536Z</time>
      </trkpt>
      <trkpt lat="43.35782" lon="-1.557">
        <ele>9</ele>
        <time>2021-06-21T09:27:05.535Z</time>
      </trkpt>
      <trkpt lat="43.35782" lon="-1.557">
        <ele>9</ele>
        <time>2021-06-21T09:27:06.541Z</time>
      </trkpt>
      <trkpt lat="43.35782" lon="-1.55715">
        <ele>9</ele>
        <time>2021-06-21T09:27:07.534Z</time>
      </trkpt>
      <trkpt lat="43.35782" lon="-1.55715">
        <ele>9</ele>
        <time>2021-06-21T09:27:08.539Z</time>
      </trkpt>
      <trkpt lat="43.35783" lon="-1.55729">
        <ele>9</ele>
        <time>2021-06-21T09:27:09.533Z</time>
      </trkpt>
      <trkpt lat="43.35783" lon="-1.55729">
        <ele>9</ele>
        <time>2021-06-21T09:27:10.539Z</time>
      </trkpt>
      <trkpt lat="43.35783" lon="-1.55744">
        <ele>9</ele>
        <time>2021-06-21T09:27:11.547Z</time>
      </trkpt>
      <trkpt lat="43.35783" lon="-1.55744">
        <ele>9</ele>
        <time>2021-06-21T09:27:12.522Z</time>
      </trkpt>
      <trkpt lat="43.35783" lon="-1.5576">
        <ele>9</ele>
        <time>2021-06-21T09:27:13.512Z</time>
      </trkpt>
      <trkpt lat="43.35783" lon="-1.5576">
        <ele>9</ele>
        <time>2021-06-21T09:27:14.517Z</time>
      </trkpt>
      <trkpt lat="43.35784" lon="-1.55776">
        <ele>10</ele>
        <time>2021-06-21T09:27:15.516Z</time>
      </trkpt>
      <trkpt lat="43.35784" lon="-1.55776">
        <ele>10</ele>
        <time>2021-06-21T09:27:16.522Z</time>
      </trkpt>
      <trkpt lat="43.35784" lon="-1.55792">
        <ele>10</ele>
        <time>2021-06-21T09:27:17.519Z</time>
      </trkpt>
      <trkpt lat="43.35784" lon="-1.55792">
        <ele>10</ele>
        <time>2021-06-21T09:27:18.524Z</time>
      </trkpt>
      <trkpt lat="43.35784" lon="-1.55807">
        <ele>11</ele>
        <time>2021-06-21T09:27:19.517Z</time>
      </trkpt>
      <trkpt lat="43.35784" lon="-1.55807">
        <ele>11</ele>
        <time>2021-06-21T09:27:20.522Z</time>
      </trkpt>
      <trkpt lat="43.35785" lon="-1.55821">
        <ele>11</ele>
        <time>2021-06-21T09:27:21.512Z</time>
      </trkpt>
      <trkpt lat="43.35785" lon="-1.55821">
        <ele>11</ele>
        <time>2021-06-21T09:27:22.533Z</time>
      </trkpt>
      <trkpt lat="43.35785" lon="-1.55835">
        <ele>12</ele>
        <time>2021-06-21T09:27:23.524Z</time>
      </trkpt>
      <trkpt lat="43.35785" lon="-1.55842">
        <ele>12</ele>
        <time>2021-06-21T09:27:24.528Z</time>
      </trkpt>
      <trkpt lat="43.35785" lon="-1.55849">
        <ele>12</ele>
        <time>2021-06-21T09:27:25.519Z</time>
      </trkpt>
      <trkpt lat="43.35785" lon="-1.55849">
        <ele>12</ele>
        <time>2021-06-21T09:27:26.524Z</time>
      </trkpt>
      <trkpt lat="43.35786" lon="-1.55862">
        <ele>13</ele>
        <time>2021-06-21T09:27:27.510Z</time>
      </trkpt>
      <trkpt lat="43.35786" lon="-1.55862">
        <ele>13</ele>
        <time>2021-06-21T09:27:28.518Z</time>
      </trkpt>
      <trkpt lat="43.35786" lon="-1.55876">
        <ele>14</ele>
        <time>2021-06-21T09:27:29.521Z</time>
      </trkpt>
      <trkpt lat="43.35786" lon="-1.55876">
        <ele>14</ele>
        <time>2021-06-21T09:27:30.528Z</time>
      </trkpt>
      <trkpt lat="43.35786" lon="-1.55889">
        <ele>14</ele>
        <time>2021-06-21T09:27:31.522Z</time>
      </trkpt>
      <trkpt lat="43.35786" lon="-1.55889">
        <ele>14</ele>
        <time>2021-06-21T09:27:32.528Z</time>
      </trkpt>
      <trkpt lat="43.35786" lon="-1.55901">
        <ele>14</ele>
        <time>2021-06-21T09:27:33.522Z</time>
      </trkpt>
      <trkpt lat="43.35786" lon="-1.55901">
        <ele>14</ele>
        <time>2021-06-21T09:27:34.527Z</time>
      </trkpt>
      <trkpt lat="43.35786" lon="-1.55913">
        <ele>14</ele>
        <time>2021-06-21T09:27:35.515Z</time>
      </trkpt>
      <trkpt lat="43.35786" lon="-1.55913">
        <ele>14</ele>
        <time>2021-06-21T09:27:36.522Z</time>
      </trkpt>
      <trkpt lat="43.35784" lon="-1.55926">
        <ele>14</ele>
        <time>2021-06-21T09:27:37.532Z</time>
      </trkpt>
      <trkpt lat="43.35784" lon="-1.55926">
        <ele>14</ele>
        <time>2021-06-21T09:27:38.537Z</time>
      </trkpt>
      <trkpt lat="43.35782" lon="-1.55939">
        <ele>14</ele>
        <time>2021-06-21T09:27:39.543Z</time>
      </trkpt>
      <trkpt lat="43.35782" lon="-1.55939">
        <ele>14</ele>
        <time>2021-06-21T09:27:40.510Z</time>
      </trkpt>
      <trkpt lat="43.35778" lon="-1.55952">
        <ele>14</ele>
        <time>2021-06-21T09:27:41.539Z</time>
      </trkpt>
      <trkpt lat="43.35778" lon="-1.55952">
        <ele>14</ele>
        <time>2021-06-21T09:27:42.545Z</time>
      </trkpt>
      <trkpt lat="43.35773" lon="-1.55964">
        <ele>14</ele>
        <time>2021-06-21T09:27:43.540Z</time>
      </trkpt>
      <trkpt lat="43.35771" lon="-1.55969">
        <ele>14</ele>
        <time>2021-06-21T09:27:44.522Z</time>
      </trkpt>
      <trkpt lat="43.35771" lon="-1.55969">
        <ele>14</ele>
        <time>2021-06-21T09:27:45.528Z</time>
      </trkpt>
      <trkpt lat="43.35767" lon="-1.55981">
        <ele>14</ele>
        <time>2021-06-21T09:27:46.528Z</time>
      </trkpt>
      <trkpt lat="43.35767" lon="-1.55981">
        <ele>14</ele>
        <time>2021-06-21T09:27:47.533Z</time>
      </trkpt>
      <trkpt lat="43.35766" lon="-1.55993">
        <ele>14</ele>
        <time>2021-06-21T09:27:48.533Z</time>
      </trkpt>
      <trkpt lat="43.35766" lon="-1.55999">
        <ele>14</ele>
        <time>2021-06-21T09:27:49.516Z</time>
      </trkpt>
      <trkpt lat="43.35766" lon="-1.55999">
        <ele>14</ele>
        <time>2021-06-21T09:27:50.521Z</time>
      </trkpt>
      <trkpt lat="43.35764" lon="-1.5601">
        <ele>14</ele>
        <time>2021-06-21T09:27:51.515Z</time>
      </trkpt>
      <trkpt lat="43.35764" lon="-1.5601">
        <ele>14</ele>
        <time>2021-06-21T09:27:52.520Z</time>
      </trkpt>
      <trkpt lat="43.35758" lon="-1.56018">
        <ele>13</ele>
        <time>2021-06-21T09:27:53.542Z</time>
      </trkpt>
      <trkpt lat="43.35755" lon="-1.5602">
        <ele>13</ele>
        <time>2021-06-21T09:27:54.548Z</time>
      </trkpt>
      <trkpt lat="43.35751" lon="-1.56021">
        <ele>13</ele>
        <time>2021-06-21T09:27:55.535Z</time>
      </trkpt>
      <trkpt lat="43.35751" lon="-1.56021">
        <ele>13</ele>
        <time>2021-06-21T09:27:56.541Z</time>
      </trkpt>
      <trkpt lat="43.35742" lon="-1.56026">
        <ele>13</ele>
        <time>2021-06-21T09:27:57.541Z</time>
      </trkpt>
      <trkpt lat="43.35742" lon="-1.56026">
        <ele>13</ele>
        <time>2021-06-21T09:27:58.547Z</time>
      </trkpt>
      <trkpt lat="43.35734" lon="-1.56033">
        <ele>13</ele>
        <time>2021-06-21T09:27:59.536Z</time>
      </trkpt>
      <trkpt lat="43.35734" lon="-1.56033">
        <ele>13</ele>
        <time>2021-06-21T09:28:00.541Z</time>
      </trkpt>
      <trkpt lat="43.35727" lon="-1.56041">
        <ele>15</ele>
        <time>2021-06-21T09:28:01.545Z</time>
      </trkpt>
      <trkpt lat="43.35727" lon="-1.56041">
        <ele>15</ele>
        <time>2021-06-21T09:28:02.529Z</time>
      </trkpt>
      <trkpt lat="43.35719" lon="-1.56047">
        <ele>17</ele>
        <time>2021-06-21T09:28:03.529Z</time>
      </trkpt>
      <trkpt lat="43.35719" lon="-1.56047">
        <ele>17</ele>
        <time>2021-06-21T09:28:04.535Z</time>
      </trkpt>
      <trkpt lat="43.3571" lon="-1.56052">
        <ele>17</ele>
        <time>2021-06-21T09:28:05.516Z</time>
      </trkpt>
      <trkpt lat="43.35706" lon="-1.56055">
        <ele>17</ele>
        <time>2021-06-21T09:28:06.511Z</time>
      </trkpt>
      <trkpt lat="43.35701" lon="-1.56058">
        <ele>17</ele>
        <time>2021-06-21T09:28:07.544Z</time>
      </trkpt>
      <trkpt lat="43.35701" lon="-1.56058">
        <ele>17</ele>
        <time>2021-06-21T09:28:08.510Z</time>
      </trkpt>
      <trkpt lat="43.35693" lon="-1.56063">
        <ele>17</ele>
        <time>2021-06-21T09:28:09.522Z</time>
      </trkpt>
      <trkpt lat="43.35693" lon="-1.56063">
        <ele>17</ele>
        <time>2021-06-21T09:28:10.527Z</time>
      </trkpt>
      <trkpt lat="43.35684" lon="-1.56068">
        <ele>17</ele>
        <time>2021-06-21T09:28:11.518Z</time>
      </trkpt>
      <trkpt lat="43.35684" lon="-1.56068">
        <ele>17</ele>
        <time>2021-06-21T09:28:12.524Z</time>
      </trkpt>
      <trkpt lat="43.35675" lon="-1.56074">
        <ele>16</ele>
        <time>2021-06-21T09:28:13.522Z</time>
      </trkpt>
      <trkpt lat="43.35675" lon="-1.56074">
        <ele>16</ele>
        <time>2021-06-21T09:28:14.527Z</time>
      </trkpt>
      <trkpt lat="43.35666" lon="-1.5608">
        <ele>16</ele>
        <time>2021-06-21T09:28:15.525Z</time>
      </trkpt>
      <trkpt lat="43.35661" lon="-1.56083">
        <ele>16</ele>
        <time>2021-06-21T09:28:16.524Z</time>
      </trkpt>
      <trkpt lat="43.35661" lon="-1.56083">
        <ele>16</ele>
        <time>2021-06-21T09:28:17.529Z</time>
      </trkpt>
      <trkpt lat="43.35651" lon="-1.56092">
        <ele>15</ele>
        <time>2021-06-21T09:28:18.517Z</time>
      </trkpt>
      <trkpt lat="43.35647" lon="-1.56097">
        <ele>15</ele>
        <time>2021-06-21T09:28:19.526Z</time>
      </trkpt>
      <trkpt lat="43.35647" lon="-1.56097">
        <ele>15</ele>
        <time>2021-06-21T09:28:20.531Z</time>
      </trkpt>
      <trkpt lat="43.35638" lon="-1.56108">
        <ele>14</ele>
        <time>2021-06-21T09:28:21.535Z</time>
      </trkpt>
      <trkpt lat="43.35638" lon="-1.56108">
        <ele>14</ele>
        <time>2021-06-21T09:28:22.512Z</time>
      </trkpt>
      <trkpt lat="43.3563" lon="-1.56121">
        <ele>13</ele>
        <time>2021-06-21T09:28:23.515Z</time>
      </trkpt>
      <trkpt lat="43.35627" lon="-1.56128">
        <ele>13</ele>
        <time>2021-06-21T09:28:24.511Z</time>
      </trkpt>
      <trkpt lat="43.35627" lon="-1.56128">
        <ele>13</ele>
        <time>2021-06-21T09:28:25.516Z</time>
      </trkpt>
      <trkpt lat="43.35622" lon="-1.56142">
        <ele>13</ele>
        <time>2021-06-21T09:28:26.513Z</time>
      </trkpt>
      <trkpt lat="43.35622" lon="-1.56142">
        <ele>13</ele>
        <time>2021-06-21T09:28:27.519Z</time>
      </trkpt>
      <trkpt lat="43.35619" lon="-1.56157">
        <ele>13</ele>
        <time>2021-06-21T09:28:28.516Z</time>
      </trkpt>
      <trkpt lat="43.35619" lon="-1.56157">
        <ele>13</ele>
        <time>2021-06-21T09:28:29.522Z</time>
      </trkpt>
      <trkpt lat="43.35618" lon="-1.56172">
        <ele>13</ele>
        <time>2021-06-21T09:28:30.522Z</time>
      </trkpt>
      <trkpt lat="43.35617" lon="-1.5618">
        <ele>13</ele>
        <time>2021-06-21T09:28:31.520Z</time>
      </trkpt>
      <trkpt lat="43.35617" lon="-1.5618">
        <ele>13</ele>
        <time>2021-06-21T09:28:32.525Z</time>
      </trkpt>
      <trkpt lat="43.35616" lon="-1.56196">
        <ele>13</ele>
        <time>2021-06-21T09:28:33.520Z</time>
      </trkpt>
      <trkpt lat="43.35616" lon="-1.56196">
        <ele>13</ele>
        <time>2021-06-21T09:28:34.525Z</time>
      </trkpt>
      <trkpt lat="43.35616" lon="-1.56212">
        <ele>13</ele>
        <time>2021-06-21T09:28:35.519Z</time>
      </trkpt>
      <trkpt lat="43.35616" lon="-1.56212">
        <ele>13</ele>
        <time>2021-06-21T09:28:36.524Z</time>
      </trkpt>
      <trkpt lat="43.35616" lon="-1.56227">
        <ele>13</ele>
        <time>2021-06-21T09:28:37.520Z</time>
      </trkpt>
      <trkpt lat="43.35616" lon="-1.56227">
        <ele>13</ele>
        <time>2021-06-21T09:28:38.525Z</time>
      </trkpt>
      <trkpt lat="43.35617" lon="-1.56243">
        <ele>13</ele>
        <time>2021-06-21T09:28:39.532Z</time>
      </trkpt>
      <trkpt lat="43.35617" lon="-1.56243">
        <ele>13</ele>
        <time>2021-06-21T09:28:40.538Z</time>
      </trkpt>
      <trkpt lat="43.35617" lon="-1.56258">
        <ele>13</ele>
        <time>2021-06-21T09:28:41.532Z</time>
      </trkpt>
      <trkpt lat="43.35617" lon="-1.56258">
        <ele>13</ele>
        <time>2021-06-21T09:28:42.536Z</time>
      </trkpt>
      <trkpt lat="43.35618" lon="-1.56274">
        <ele>13</ele>
        <time>2021-06-21T09:28:43.520Z</time>
      </trkpt>
      <trkpt lat="43.35618" lon="-1.56274">
        <ele>13</ele>
        <time>2021-06-21T09:28:44.526Z</time>
      </trkpt>
      <trkpt lat="43.35618" lon="-1.56289">
        <ele>14</ele>
        <time>2021-06-21T09:28:45.517Z</time>
      </trkpt>
      <trkpt lat="43.35618" lon="-1.56289">
        <ele>14</ele>
        <time>2021-06-21T09:28:46.523Z</time>
      </trkpt>
      <trkpt lat="43.35618" lon="-1.56303">
        <ele>14</ele>
        <time>2021-06-21T09:28:47.515Z</time>
      </trkpt>
      <trkpt lat="43.35619" lon="-1.5631">
        <ele>14</ele>
        <time>2021-06-21T09:28:48.544Z</time>
      </trkpt>
      <trkpt lat="43.35619" lon="-1.56317">
        <ele>14</ele>
        <time>2021-06-21T09:28:49.528Z</time>
      </trkpt>
      <trkpt lat="43.35619" lon="-1.56317">
        <ele>14</ele>
        <time>2021-06-21T09:28:50.532Z</time>
      </trkpt>
      <trkpt lat="43.35619" lon="-1.56331">
        <ele>14</ele>
        <time>2021-06-21T09:28:51.532Z</time>
      </trkpt>
      <trkpt lat="43.35619" lon="-1.56331">
        <ele>14</ele>
        <time>2021-06-21T09:28:52.537Z</time>
      </trkpt>
      <trkpt lat="43.3562" lon="-1.56344">
        <ele>14</ele>
        <time>2021-06-21T09:28:53.533Z</time>
      </trkpt>
      <trkpt lat="43.3562" lon="-1.56344">
        <ele>14</ele>
        <time>2021-06-21T09:28:54.538Z</time>
      </trkpt>
      <trkpt lat="43.3562" lon="-1.56358">
        <ele>15</ele>
        <time>2021-06-21T09:28:55.534Z</time>
      </trkpt>
      <trkpt lat="43.35621" lon="-1.56365">
        <ele>15</ele>
        <time>2021-06-21T09:28:56.532Z</time>
      </trkpt>
      <trkpt lat="43.35621" lon="-1.56365">
        <ele>15</ele>
        <time>2021-06-21T09:28:57.537Z</time>
      </trkpt>
      <trkpt lat="43.35621" lon="-1.56378">
        <ele>15</ele>
        <time>2021-06-21T09:28:58.547Z</time>
      </trkpt>
      <trkpt lat="43.35621" lon="-1.56378">
        <ele>15</ele>
        <time>2021-06-21T09:28:59.511Z</time>
      </trkpt>
      <trkpt lat="43.35622" lon="-1.56393">
        <ele>15</ele>
        <time>2021-06-21T09:29:00.545Z</time>
      </trkpt>
      <trkpt lat="43.35622" lon="-1.564">
        <ele>15</ele>
        <time>2021-06-21T09:29:01.547Z</time>
      </trkpt>
      <trkpt lat="43.35622" lon="-1.564">
        <ele>15</ele>
        <time>2021-06-21T09:29:02.512Z</time>
      </trkpt>
      <trkpt lat="43.35623" lon="-1.56414">
        <ele>16</ele>
        <time>2021-06-21T09:29:03.522Z</time>
      </trkpt>
      <trkpt lat="43.35623" lon="-1.56414">
        <ele>16</ele>
        <time>2021-06-21T09:29:04.527Z</time>
      </trkpt>
      <trkpt lat="43.35623" lon="-1.56428">
        <ele>16</ele>
        <time>2021-06-21T09:29:05.519Z</time>
      </trkpt>
      <trkpt lat="43.35623" lon="-1.56428">
        <ele>16</ele>
        <time>2021-06-21T09:29:06.524Z</time>
      </trkpt>
      <trkpt lat="43.35624" lon="-1.56441">
        <ele>16</ele>
        <time>2021-06-21T09:29:07.520Z</time>
      </trkpt>
      <trkpt lat="43.35624" lon="-1.56441">
        <ele>16</ele>
        <time>2021-06-21T09:29:08.526Z</time>
      </trkpt>
      <trkpt lat="43.35625" lon="-1.56454">
        <ele>16</ele>
        <time>2021-06-21T09:29:09.532Z</time>
      </trkpt>
      <trkpt lat="43.35625" lon="-1.56454">
        <ele>16</ele>
        <time>2021-06-21T09:29:10.537Z</time>
      </trkpt>
      <trkpt lat="43.35625" lon="-1.56468">
        <ele>16</ele>
        <time>2021-06-21T09:29:11.533Z</time>
      </trkpt>
      <trkpt lat="43.35625" lon="-1.56468">
        <ele>16</ele>
        <time>2021-06-21T09:29:12.539Z</time>
      </trkpt>
      <trkpt lat="43.35626" lon="-1.56482">
        <ele>16</ele>
        <time>2021-06-21T09:29:13.524Z</time>
      </trkpt>
      <trkpt lat="43.35626" lon="-1.56482">
        <ele>16</ele>
        <time>2021-06-21T09:29:14.529Z</time>
      </trkpt>
      <trkpt lat="43.35626" lon="-1.56496">
        <ele>16</ele>
        <time>2021-06-21T09:29:15.518Z</time>
      </trkpt>
      <trkpt lat="43.35626" lon="-1.56496">
        <ele>16</ele>
        <time>2021-06-21T09:29:16.523Z</time>
      </trkpt>
      <trkpt lat="43.35626" lon="-1.56509">
        <ele>16</ele>
        <time>2021-06-21T09:29:17.529Z</time>
      </trkpt>
      <trkpt lat="43.35626" lon="-1.56509">
        <ele>16</ele>
        <time>2021-06-21T09:29:18.535Z</time>
      </trkpt>
      <trkpt lat="43.35626" lon="-1.56523">
        <ele>16</ele>
        <time>2021-06-21T09:29:19.528Z</time>
      </trkpt>
      <trkpt lat="43.35626" lon="-1.56523">
        <ele>16</ele>
        <time>2021-06-21T09:29:20.534Z</time>
      </trkpt>
      <trkpt lat="43.35625" lon="-1.56535">
        <ele>16</ele>
        <time>2021-06-21T09:29:21.532Z</time>
      </trkpt>
      <trkpt lat="43.35625" lon="-1.56535">
        <ele>16</ele>
        <time>2021-06-21T09:29:22.513Z</time>
      </trkpt>
      <trkpt lat="43.35626" lon="-1.56548">
        <ele>16</ele>
        <time>2021-06-21T09:29:23.537Z</time>
      </trkpt>
      <trkpt lat="43.35626" lon="-1.56554">
        <ele>16</ele>
        <time>2021-06-21T09:29:24.525Z</time>
      </trkpt>
      <trkpt lat="43.35627" lon="-1.5656">
        <ele>16</ele>
        <time>2021-06-21T09:29:25.514Z</time>
      </trkpt>
      <trkpt lat="43.35627" lon="-1.5656">
        <ele>16</ele>
        <time>2021-06-21T09:29:26.520Z</time>
      </trkpt>
      <trkpt lat="43.35629" lon="-1.56571">
        <ele>16</ele>
        <time>2021-06-21T09:29:27.548Z</time>
      </trkpt>
      <trkpt lat="43.3563" lon="-1.56576">
        <ele>16</ele>
        <time>2021-06-21T09:29:28.540Z</time>
      </trkpt>
      <trkpt lat="43.3563" lon="-1.56576">
        <ele>16</ele>
        <time>2021-06-21T09:29:29.546Z</time>
      </trkpt>
      <trkpt lat="43.35633" lon="-1.56586">
        <ele>17</ele>
        <time>2021-06-21T09:29:30.547Z</time>
      </trkpt>
      <trkpt lat="43.35636" lon="-1.56591">
        <ele>17</ele>
        <time>2021-06-21T09:29:31.541Z</time>
      </trkpt>
      <trkpt lat="43.35636" lon="-1.56591">
        <ele>17</ele>
        <time>2021-06-21T09:29:32.546Z</time>
      </trkpt>
      <trkpt lat="43.35637" lon="-1.56602">
        <ele>17</ele>
        <time>2021-06-21T09:29:33.538Z</time>
      </trkpt>
      <trkpt lat="43.35637" lon="-1.56602">
        <ele>17</ele>
        <time>2021-06-21T09:29:34.544Z</time>
      </trkpt>
      <trkpt lat="43.35633" lon="-1.56614">
        <ele>17</ele>
        <time>2021-06-21T09:29:35.542Z</time>
      </trkpt>
      <trkpt lat="43.35633" lon="-1.56614">
        <ele>17</ele>
        <time>2021-06-21T09:29:36.547Z</time>
      </trkpt>
      <trkpt lat="43.35629" lon="-1.56626">
        <ele>17</ele>
        <time>2021-06-21T09:29:37.545Z</time>
      </trkpt>
      <trkpt lat="43.35629" lon="-1.56626">
        <ele>17</ele>
        <time>2021-06-21T09:29:38.511Z</time>
      </trkpt>
      <trkpt lat="43.35628" lon="-1.56639">
        <ele>16</ele>
        <time>2021-06-21T09:29:39.512Z</time>
      </trkpt>
      <trkpt lat="43.35628" lon="-1.56639">
        <ele>16</ele>
        <time>2021-06-21T09:29:40.517Z</time>
      </trkpt>
      <trkpt lat="43.35626" lon="-1.56653">
        <ele>15</ele>
        <time>2021-06-21T09:29:41.548Z</time>
      </trkpt>
      <trkpt lat="43.35626" lon="-1.56653">
        <ele>15</ele>
        <time>2021-06-21T09:29:42.514Z</time>
      </trkpt>
      <trkpt lat="43.35624" lon="-1.56667">
        <ele>15</ele>
        <time>2021-06-21T09:29:43.544Z</time>
      </trkpt>
      <trkpt lat="43.35624" lon="-1.56667">
        <ele>15</ele>
        <time>2021-06-21T09:29:44.509Z</time>
      </trkpt>
      <trkpt lat="43.35621" lon="-1.56681">
        <ele>14</ele>
        <time>2021-06-21T09:29:45.538Z</time>
      </trkpt>
      <trkpt lat="43.35621" lon="-1.56681">
        <ele>14</ele>
        <time>2021-06-21T09:29:46.544Z</time>
      </trkpt>
      <trkpt lat="43.35619" lon="-1.56694">
        <ele>14</ele>
        <time>2021-06-21T09:29:47.540Z</time>
      </trkpt>
      <trkpt lat="43.35619" lon="-1.56694">
        <ele>14</ele>
        <time>2021-06-21T09:29:48.546Z</time>
      </trkpt>
      <trkpt lat="43.35616" lon="-1.56708">
        <ele>14</ele>
        <time>2021-06-21T09:29:49.534Z</time>
      </trkpt>
      <trkpt lat="43.35616" lon="-1.56708">
        <ele>14</ele>
        <time>2021-06-21T09:29:50.539Z</time>
      </trkpt>
      <trkpt lat="43.35612" lon="-1.56721">
        <ele>13</ele>
        <time>2021-06-21T09:29:51.515Z</time>
      </trkpt>
      <trkpt lat="43.35612" lon="-1.56721">
        <ele>13</ele>
        <time>2021-06-21T09:29:52.520Z</time>
      </trkpt>
      <trkpt lat="43.35608" lon="-1.56736">
        <ele>13</ele>
        <time>2021-06-21T09:29:53.521Z</time>
      </trkpt>
      <trkpt lat="43.35608" lon="-1.56736">
        <ele>13</ele>
        <time>2021-06-21T09:29:54.526Z</time>
      </trkpt>
      <trkpt lat="43.35604" lon="-1.5675">
        <ele>13</ele>
        <time>2021-06-21T09:29:55.514Z</time>
      </trkpt>
      <trkpt lat="43.35604" lon="-1.5675">
        <ele>13</ele>
        <time>2021-06-21T09:29:56.520Z</time>
      </trkpt>
      <trkpt lat="43.35599" lon="-1.56765">
        <ele>12</ele>
        <time>2021-06-21T09:29:57.527Z</time>
      </trkpt>
      <trkpt lat="43.35596" lon="-1.56771">
        <ele>12</ele>
        <time>2021-06-21T09:29:58.512Z</time>
      </trkpt>
      <trkpt lat="43.35596" lon="-1.56771">
        <ele>12</ele>
        <time>2021-06-21T09:29:59.518Z</time>
      </trkpt>
      <trkpt lat="43.35592" lon="-1.56784">
        <ele>12</ele>
        <time>2021-06-21T09:30:00.542Z</time>
      </trkpt>
      <trkpt lat="43.35592" lon="-1.56784">
        <ele>12</ele>
        <time>2021-06-21T09:30:01.513Z</time>
      </trkpt>
      <trkpt lat="43.3559" lon="-1.56797">
        <ele>12</ele>
        <time>2021-06-21T09:30:02.541Z</time>
      </trkpt>
      <trkpt lat="43.35589" lon="-1.56803">
        <ele>11</ele>
        <time>2021-06-21T09:30:03.535Z</time>
      </trkpt>
      <trkpt lat="43.35589" lon="-1.56803">
        <ele>11</ele>
        <time>2021-06-21T09:30:04.540Z</time>
      </trkpt>
      <trkpt lat="43.35588" lon="-1.56815">
        <ele>11</ele>
        <time>2021-06-21T09:30:05.547Z</time>
      </trkpt>
      <trkpt lat="43.35588" lon="-1.56824">
        <ele>11</ele>
        <time>2021-06-21T09:30:06.509Z</time>
      </trkpt>
      <trkpt lat="43.35589" lon="-1.56832">
        <ele>11</ele>
        <time>2021-06-21T09:30:07.512Z</time>
      </trkpt>
      <trkpt lat="43.35589" lon="-1.56832">
        <ele>11</ele>
        <time>2021-06-21T09:30:08.518Z</time>
      </trkpt>
      <trkpt lat="43.35591" lon="-1.56845">
        <ele>11</ele>
        <time>2021-06-21T09:30:09.545Z</time>
      </trkpt>
      <trkpt lat="43.35591" lon="-1.56845">
        <ele>11</ele>
        <time>2021-06-21T09:30:10.512Z</time>
      </trkpt>
      <trkpt lat="43.35594" lon="-1.56856">
        <ele>11</ele>
        <time>2021-06-21T09:30:11.548Z</time>
      </trkpt>
      <trkpt lat="43.35594" lon="-1.56856">
        <ele>11</ele>
        <time>2021-06-21T09:30:12.514Z</time>
      </trkpt>
      <trkpt lat="43.35599" lon="-1.56868">
        <ele>11</ele>
        <time>2021-06-21T09:30:13.537Z</time>
      </trkpt>
      <trkpt lat="43.35599" lon="-1.56868">
        <ele>11</ele>
        <time>2021-06-21T09:30:14.542Z</time>
      </trkpt>
      <trkpt lat="43.35605" lon="-1.56881">
        <ele>11</ele>
        <time>2021-06-21T09:30:15.536Z</time>
      </trkpt>
      <trkpt lat="43.35605" lon="-1.56881">
        <ele>11</ele>
        <time>2021-06-21T09:30:16.542Z</time>
      </trkpt>
      <trkpt lat="43.35611" lon="-1.56893">
        <ele>11</ele>
        <time>2021-06-21T09:30:17.513Z</time>
      </trkpt>
      <trkpt lat="43.35611" lon="-1.56893">
        <ele>11</ele>
        <time>2021-06-21T09:30:18.518Z</time>
      </trkpt>
      <trkpt lat="43.35617" lon="-1.56904">
        <ele>11</ele>
        <time>2021-06-21T09:30:19.520Z</time>
      </trkpt>
      <trkpt lat="43.35617" lon="-1.56904">
        <ele>11</ele>
        <time>2021-06-21T09:30:20.525Z</time>
      </trkpt>
      <trkpt lat="43.35622" lon="-1.56914">
        <ele>11</ele>
        <time>2021-06-21T09:30:21.546Z</time>
      </trkpt>
      <trkpt lat="43.35622" lon="-1.56914">
        <ele>11</ele>
        <time>2021-06-21T09:30:22.524Z</time>
      </trkpt>
      <trkpt lat="43.3563" lon="-1.56917">
        <ele>11</ele>
        <time>2021-06-21T09:30:23.515Z</time>
      </trkpt>
      <trkpt lat="43.3563" lon="-1.56917">
        <ele>11</ele>
        <time>2021-06-21T09:30:24.519Z</time>
      </trkpt>
      <trkpt lat="43.35637" lon="-1.56915">
        <ele>11</ele>
        <time>2021-06-21T09:30:25.512Z</time>
      </trkpt>
      <trkpt lat="43.35637" lon="-1.56915">
        <ele>11</ele>
        <time>2021-06-21T09:30:26.518Z</time>
      </trkpt>
      <trkpt lat="43.35646" lon="-1.56914">
        <ele>11</ele>
        <time>2021-06-21T09:30:27.522Z</time>
      </trkpt>
      <trkpt lat="43.35646" lon="-1.56914">
        <ele>11</ele>
        <time>2021-06-21T09:30:28.527Z</time>
      </trkpt>
      <trkpt lat="43.35654" lon="-1.56912">
        <ele>11</ele>
        <time>2021-06-21T09:30:29.542Z</time>
      </trkpt>
      <trkpt lat="43.35654" lon="-1.56912">
        <ele>11</ele>
        <time>2021-06-21T09:30:30.547Z</time>
      </trkpt>
      <trkpt lat="43.35662" lon="-1.56912">
        <ele>11</ele>
        <time>2021-06-21T09:30:31.532Z</time>
      </trkpt>
      <trkpt lat="43.35662" lon="-1.56912">
        <ele>11</ele>
        <time>2021-06-21T09:30:32.537Z</time>
      </trkpt>
      <trkpt lat="43.3567" lon="-1.56911">
        <ele>12</ele>
        <time>2021-06-21T09:30:33.547Z</time>
      </trkpt>
      <trkpt lat="43.35674" lon="-1.56909">
        <ele>11</ele>
        <time>2021-06-21T09:30:34.542Z</time>
      </trkpt>
      <trkpt lat="43.35679" lon="-1.56907">
        <ele>11</ele>
        <time>2021-06-21T09:30:35.532Z</time>
      </trkpt>
      <trkpt lat="43.35679" lon="-1.56907">
        <ele>11</ele>
        <time>2021-06-21T09:30:36.537Z</time>
      </trkpt>
      <trkpt lat="43.35687" lon="-1.56906">
        <ele>11</ele>
        <time>2021-06-21T09:30:37.526Z</time>
      </trkpt>
      <trkpt lat="43.35687" lon="-1.56906">
        <ele>11</ele>
        <time>2021-06-21T09:30:38.532Z</time>
      </trkpt>
      <trkpt lat="43.35695" lon="-1.56906">
        <ele>11</ele>
        <time>2021-06-21T09:30:39.520Z</time>
      </trkpt>
      <trkpt lat="43.35695" lon="-1.56906">
        <ele>11</ele>
        <time>2021-06-21T09:30:40.526Z</time>
      </trkpt>
      <trkpt lat="43.35703" lon="-1.56905">
        <ele>11</ele>
        <time>2021-06-21T09:30:41.516Z</time>
      </trkpt>
      <trkpt lat="43.35703" lon="-1.56905">
        <ele>11</ele>
        <time>2021-06-21T09:30:42.522Z</time>
      </trkpt>
      <trkpt lat="43.3571" lon="-1.56905">
        <ele>11</ele>
        <time>2021-06-21T09:30:43.517Z</time>
      </trkpt>
      <trkpt lat="43.3571" lon="-1.56905">
        <ele>11</ele>
        <time>2021-06-21T09:30:44.522Z</time>
      </trkpt>
      <trkpt lat="43.35718" lon="-1.56906">
        <ele>11</ele>
        <time>2021-06-21T09:30:45.545Z</time>
      </trkpt>
      <trkpt lat="43.35718" lon="-1.56906">
        <ele>11</ele>
        <time>2021-06-21T09:30:46.511Z</time>
      </trkpt>
      <trkpt lat="43.35726" lon="-1.56906">
        <ele>11</ele>
        <time>2021-06-21T09:30:47.542Z</time>
      </trkpt>
      <trkpt lat="43.35726" lon="-1.56906">
        <ele>11</ele>
        <time>2021-06-21T09:30:48.548Z</time>
      </trkpt>
      <trkpt lat="43.35735" lon="-1.56906">
        <ele>11</ele>
        <time>2021-06-21T09:30:49.539Z</time>
      </trkpt>
      <trkpt lat="43.35735" lon="-1.56906">
        <ele>11</ele>
        <time>2021-06-21T09:30:50.545Z</time>
      </trkpt>
      <trkpt lat="43.35743" lon="-1.56907">
        <ele>11</ele>
        <time>2021-06-21T09:30:51.528Z</time>
      </trkpt>
      <trkpt lat="43.35743" lon="-1.56907">
        <ele>11</ele>
        <time>2021-06-21T09:30:52.534Z</time>
      </trkpt>
      <trkpt lat="43.35751" lon="-1.56908">
        <ele>11</ele>
        <time>2021-06-21T09:30:53.527Z</time>
      </trkpt>
      <trkpt lat="43.35751" lon="-1.56908">
        <ele>11</ele>
        <time>2021-06-21T09:30:54.532Z</time>
      </trkpt>
      <trkpt lat="43.3576" lon="-1.56909">
        <ele>11</ele>
        <time>2021-06-21T09:30:55.528Z</time>
      </trkpt>
      <trkpt lat="43.3576" lon="-1.56909">
        <ele>11</ele>
        <time>2021-06-21T09:30:56.534Z</time>
      </trkpt>
      <trkpt lat="43.35768" lon="-1.56909">
        <ele>11</ele>
        <time>2021-06-21T09:30:57.521Z</time>
      </trkpt>
      <trkpt lat="43.35768" lon="-1.56909">
        <ele>11</ele>
        <time>2021-06-21T09:30:58.526Z</time>
      </trkpt>
      <trkpt lat="43.35777" lon="-1.5691">
        <ele>10</ele>
        <time>2021-06-21T09:30:59.512Z</time>
      </trkpt>
      <trkpt lat="43.35777" lon="-1.5691">
        <ele>10</ele>
        <time>2021-06-21T09:31:00.517Z</time>
      </trkpt>
      <trkpt lat="43.35785" lon="-1.56911">
        <ele>10</ele>
        <time>2021-06-21T09:31:01.516Z</time>
      </trkpt>
      <trkpt lat="43.35785" lon="-1.56911">
        <ele>10</ele>
        <time>2021-06-21T09:31:02.521Z</time>
      </trkpt>
      <trkpt lat="43.35792" lon="-1.56914">
        <ele>10</ele>
        <time>2021-06-21T09:31:03.510Z</time>
      </trkpt>
      <trkpt lat="43.35792" lon="-1.56914">
        <ele>10</ele>
        <time>2021-06-21T09:31:04.517Z</time>
      </trkpt>
      <trkpt lat="43.35799" lon="-1.56916">
        <ele>10</ele>
        <time>2021-06-21T09:31:05.511Z</time>
      </trkpt>
      <trkpt lat="43.35802" lon="-1.56919">
        <ele>10</ele>
        <time>2021-06-21T09:31:06.536Z</time>
      </trkpt>
      <trkpt lat="43.35806" lon="-1.56921">
        <ele>10</ele>
        <time>2021-06-21T09:31:07.516Z</time>
      </trkpt>
      <trkpt lat="43.35806" lon="-1.56921">
        <ele>10</ele>
        <time>2021-06-21T09:31:08.522Z</time>
      </trkpt>
      <trkpt lat="43.35812" lon="-1.56924">
        <ele>10</ele>
        <time>2021-06-21T09:31:09.520Z</time>
      </trkpt>
      <trkpt lat="43.35812" lon="-1.56924">
        <ele>10</ele>
        <time>2021-06-21T09:31:10.526Z</time>
      </trkpt>
      <trkpt lat="43.35819" lon="-1.56928">
        <ele>10</ele>
        <time>2021-06-21T09:31:11.522Z</time>
      </trkpt>
      <trkpt lat="43.35819" lon="-1.56928">
        <ele>10</ele>
        <time>2021-06-21T09:31:12.536Z</time>
      </trkpt>
      <trkpt lat="43.35825" lon="-1.56933">
        <ele>10</ele>
        <time>2021-06-21T09:31:13.522Z</time>
      </trkpt>
      <trkpt lat="43.35825" lon="-1.56933">
        <ele>10</ele>
        <time>2021-06-21T09:31:14.527Z</time>
      </trkpt>
      <trkpt lat="43.35831" lon="-1.56937">
        <ele>10</ele>
        <time>2021-06-21T09:31:15.528Z</time>
      </trkpt>
      <trkpt lat="43.35831" lon="-1.56937">
        <ele>10</ele>
        <time>2021-06-21T09:31:16.534Z</time>
      </trkpt>
      <trkpt lat="43.35838" lon="-1.56942">
        <ele>10</ele>
        <time>2021-06-21T09:31:17.535Z</time>
      </trkpt>
      <trkpt lat="43.35838" lon="-1.56942">
        <ele>10</ele>
        <time>2021-06-21T09:31:18.540Z</time>
      </trkpt>
      <trkpt lat="43.35843" lon="-1.56949">
        <ele>10</ele>
        <time>2021-06-21T09:31:19.530Z</time>
      </trkpt>
      <trkpt lat="43.35843" lon="-1.56949">
        <ele>10</ele>
        <time>2021-06-21T09:31:20.536Z</time>
      </trkpt>
      <trkpt lat="43.35849" lon="-1.56955">
        <ele>11</ele>
        <time>2021-06-21T09:31:21.520Z</time>
      </trkpt>
      <trkpt lat="43.35849" lon="-1.56955">
        <ele>11</ele>
        <time>2021-06-21T09:31:22.539Z</time>
      </trkpt>
      <trkpt lat="43.35855" lon="-1.56963">
        <ele>11</ele>
        <time>2021-06-21T09:31:23.512Z</time>
      </trkpt>
      <trkpt lat="43.35858" lon="-1.56968">
        <ele>12</ele>
        <time>2021-06-21T09:31:24.517Z</time>
      </trkpt>
      <trkpt lat="43.35862" lon="-1.56973">
        <ele>12</ele>
        <time>2021-06-21T09:31:25.544Z</time>
      </trkpt>
      <trkpt lat="43.35862" lon="-1.56973">
        <ele>12</ele>
        <time>2021-06-21T09:31:26.511Z</time>
      </trkpt>
      <trkpt lat="43.35868" lon="-1.56982">
        <ele>12</ele>
        <time>2021-06-21T09:31:27.542Z</time>
      </trkpt>
      <trkpt lat="43.35868" lon="-1.56982">
        <ele>12</ele>
        <time>2021-06-21T09:31:28.509Z</time>
      </trkpt>
      <trkpt lat="43.35875" lon="-1.5699">
        <ele>13</ele>
        <time>2021-06-21T09:31:29.539Z</time>
      </trkpt>
      <trkpt lat="43.35875" lon="-1.5699">
        <ele>13</ele>
        <time>2021-06-21T09:31:30.545Z</time>
      </trkpt>
      <trkpt lat="43.35883" lon="-1.56999">
        <ele>13</ele>
        <time>2021-06-21T09:31:31.542Z</time>
      </trkpt>
      <trkpt lat="43.35883" lon="-1.56999">
        <ele>13</ele>
        <time>2021-06-21T09:31:32.513Z</time>
      </trkpt>
      <trkpt lat="43.35891" lon="-1.57005">
        <ele>13</ele>
        <time>2021-06-21T09:31:33.537Z</time>
      </trkpt>
      <trkpt lat="43.35891" lon="-1.57005">
        <ele>13</ele>
        <time>2021-06-21T09:31:34.544Z</time>
      </trkpt>
      <trkpt lat="43.359" lon="-1.57012">
        <ele>13</ele>
        <time>2021-06-21T09:31:35.510Z</time>
      </trkpt>
      <trkpt lat="43.359" lon="-1.57012">
        <ele>13</ele>
        <time>2021-06-21T09:31:36.518Z</time>
      </trkpt>
      <trkpt lat="43.35909" lon="-1.57018">
        <ele>13</ele>
        <time>2021-06-21T09:31:37.513Z</time>
      </trkpt>
      <trkpt lat="43.35913" lon="-1.5702">
        <ele>14</ele>
        <time>2021-06-21T09:31:38.547Z</time>
      </trkpt>
      <trkpt lat="43.35917" lon="-1.57023">
        <ele>14</ele>
        <time>2021-06-21T09:31:39.536Z</time>
      </trkpt>
      <trkpt lat="43.35917" lon="-1.57023">
        <ele>14</ele>
        <time>2021-06-21T09:31:40.509Z</time>
      </trkpt>
      <trkpt lat="43.35926" lon="-1.57029">
        <ele>14</ele>
        <time>2021-06-21T09:31:41.528Z</time>
      </trkpt>
      <trkpt lat="43.35928" lon="-1.57033">
        <ele>14</ele>
        <time>2021-06-21T09:31:42.528Z</time>
      </trkpt>
      <trkpt lat="43.3593" lon="-1.57038">
        <ele>14</ele>
        <time>2021-06-21T09:31:43.533Z</time>
      </trkpt>
      <trkpt lat="43.3593" lon="-1.57038">
        <ele>14</ele>
        <time>2021-06-21T09:31:44.539Z</time>
      </trkpt>
      <trkpt lat="43.35932" lon="-1.57047">
        <ele>15</ele>
        <time>2021-06-21T09:31:45.547Z</time>
      </trkpt>
      <trkpt lat="43.35932" lon="-1.57047">
        <ele>15</ele>
        <time>2021-06-21T09:31:46.516Z</time>
      </trkpt>
      <trkpt lat="43.35934" lon="-1.57056">
        <ele>15</ele>
        <time>2021-06-21T09:31:47.516Z</time>
      </trkpt>
      <trkpt lat="43.35934" lon="-1.57056">
        <ele>15</ele>
        <time>2021-06-21T09:31:48.525Z</time>
      </trkpt>
      <trkpt lat="43.35935" lon="-1.57065">
        <ele>15</ele>
        <time>2021-06-21T09:31:49.519Z</time>
      </trkpt>
      <trkpt lat="43.35935" lon="-1.57065">
        <ele>15</ele>
        <time>2021-06-21T09:31:50.529Z</time>
      </trkpt>
      <trkpt lat="43.35936" lon="-1.57074">
        <ele>15</ele>
        <time>2021-06-21T09:31:51.532Z</time>
      </trkpt>
      <trkpt lat="43.35936" lon="-1.57074">
        <ele>15</ele>
        <time>2021-06-21T09:31:52.540Z</time>
      </trkpt>
      <trkpt lat="43.35936" lon="-1.57083">
        <ele>16</ele>
        <time>2021-06-21T09:31:53.542Z</time>
      </trkpt>
      <trkpt lat="43.35936" lon="-1.57083">
        <ele>16</ele>
        <time>2021-06-21T09:31:54.509Z</time>
      </trkpt>
      <trkpt lat="43.35935" lon="-1.57092">
        <ele>16</ele>
        <time>2021-06-21T09:31:55.543Z</time>
      </trkpt>
      <trkpt lat="43.35935" lon="-1.57092">
        <ele>16</ele>
        <time>2021-06-21T09:31:56.510Z</time>
      </trkpt>
      <trkpt lat="43.35934" lon="-1.57101">
        <ele>16</ele>
        <time>2021-06-21T09:31:57.535Z</time>
      </trkpt>
      <trkpt lat="43.35934" lon="-1.57101">
        <ele>16</ele>
        <time>2021-06-21T09:31:58.541Z</time>
      </trkpt>
      <trkpt lat="43.35933" lon="-1.5711">
        <ele>16</ele>
        <time>2021-06-21T09:31:59.518Z</time>
      </trkpt>
      <trkpt lat="43.35933" lon="-1.5711">
        <ele>16</ele>
        <time>2021-06-21T09:32:00.523Z</time>
      </trkpt>
      <trkpt lat="43.35931" lon="-1.57119">
        <ele>16</ele>
        <time>2021-06-21T09:32:01.521Z</time>
      </trkpt>
      <trkpt lat="43.35931" lon="-1.57119">
        <ele>16</ele>
        <time>2021-06-21T09:32:02.527Z</time>
      </trkpt>
      <trkpt lat="43.3593" lon="-1.5713">
        <ele>16</ele>
        <time>2021-06-21T09:32:03.519Z</time>
      </trkpt>
      <trkpt lat="43.3593" lon="-1.5713">
        <ele>16</ele>
        <time>2021-06-21T09:32:04.525Z</time>
      </trkpt>
      <trkpt lat="43.35927" lon="-1.57143">
        <ele>16</ele>
        <time>2021-06-21T09:32:05.520Z</time>
      </trkpt>
      <trkpt lat="43.35927" lon="-1.57143">
        <ele>16</ele>
        <time>2021-06-21T09:32:06.527Z</time>
      </trkpt>
      <trkpt lat="43.35925" lon="-1.57157">
        <ele>15</ele>
        <time>2021-06-21T09:32:07.517Z</time>
      </trkpt>
      <trkpt lat="43.35925" lon="-1.57157">
        <ele>15</ele>
        <time>2021-06-21T09:32:08.523Z</time>
      </trkpt>
      <trkpt lat="43.35922" lon="-1.57173">
        <ele>15</ele>
        <time>2021-06-21T09:32:09.543Z</time>
      </trkpt>
      <trkpt lat="43.35922" lon="-1.5718">
        <ele>15</ele>
        <time>2021-06-21T09:32:10.548Z</time>
      </trkpt>
      <trkpt lat="43.35922" lon="-1.5718">
        <ele>15</ele>
        <time>2021-06-21T09:32:11.516Z</time>
      </trkpt>
      <trkpt lat="43.35922" lon="-1.57197">
        <ele>15</ele>
        <time>2021-06-21T09:32:12.542Z</time>
      </trkpt>
      <trkpt lat="43.35923" lon="-1.57206">
        <ele>15</ele>
        <time>2021-06-21T09:32:13.523Z</time>
      </trkpt>
      <trkpt lat="43.35923" lon="-1.57206">
        <ele>15</ele>
        <time>2021-06-21T09:32:14.530Z</time>
      </trkpt>
      <trkpt lat="43.35926" lon="-1.57222">
        <ele>15</ele>
        <time>2021-06-21T09:32:15.532Z</time>
      </trkpt>
      <trkpt lat="43.35926" lon="-1.57222">
        <ele>15</ele>
        <time>2021-06-21T09:32:16.539Z</time>
      </trkpt>
      <trkpt lat="43.35929" lon="-1.57237">
        <ele>15</ele>
        <time>2021-06-21T09:32:17.528Z</time>
      </trkpt>
      <trkpt lat="43.35929" lon="-1.57237">
        <ele>15</ele>
        <time>2021-06-21T09:32:18.534Z</time>
      </trkpt>
      <trkpt lat="43.35932" lon="-1.5725">
        <ele>15</ele>
        <time>2021-06-21T09:32:19.542Z</time>
      </trkpt>
      <trkpt lat="43.35932" lon="-1.5725">
        <ele>15</ele>
        <time>2021-06-21T09:32:20.548Z</time>
      </trkpt>
      <trkpt lat="43.35935" lon="-1.57262">
        <ele>15</ele>
        <time>2021-06-21T09:32:21.544Z</time>
      </trkpt>
      <trkpt lat="43.35935" lon="-1.57262">
        <ele>15</ele>
        <time>2021-06-21T09:32:22.533Z</time>
      </trkpt>
      <trkpt lat="43.35938" lon="-1.57272">
        <ele>15</ele>
        <time>2021-06-21T09:32:23.526Z</time>
      </trkpt>
      <trkpt lat="43.35938" lon="-1.57272">
        <ele>15</ele>
        <time>2021-06-21T09:32:24.531Z</time>
      </trkpt>
      <trkpt lat="43.35941" lon="-1.57281">
        <ele>16</ele>
        <time>2021-06-21T09:32:25.523Z</time>
      </trkpt>
      <trkpt lat="43.35941" lon="-1.57281">
        <ele>16</ele>
        <time>2021-06-21T09:32:26.529Z</time>
      </trkpt>
      <trkpt lat="43.35945" lon="-1.57289">
        <ele>16</ele>
        <time>2021-06-21T09:32:27.529Z</time>
      </trkpt>
      <trkpt lat="43.35945" lon="-1.57289">
        <ele>16</ele>
        <time>2021-06-21T09:32:28.536Z</time>
      </trkpt>
      <trkpt lat="43.35948" lon="-1.57297">
        <ele>16</ele>
        <time>2021-06-21T09:32:29.525Z</time>
      </trkpt>
      <trkpt lat="43.35948" lon="-1.57297">
        <ele>16</ele>
        <time>2021-06-21T09:32:30.531Z</time>
      </trkpt>
      <trkpt lat="43.35951" lon="-1.57304">
        <ele>16</ele>
        <time>2021-06-21T09:32:31.522Z</time>
      </trkpt>
      <trkpt lat="43.35951" lon="-1.57304">
        <ele>16</ele>
        <time>2021-06-21T09:32:32.528Z</time>
      </trkpt>
      <trkpt lat="43.35954" lon="-1.57311">
        <ele>16</ele>
        <time>2021-06-21T09:32:33.527Z</time>
      </trkpt>
      <trkpt lat="43.35954" lon="-1.57311">
        <ele>16</ele>
        <time>2021-06-21T09:32:34.534Z</time>
      </trkpt>
      <trkpt lat="43.35958" lon="-1.57319">
        <ele>15</ele>
        <time>2021-06-21T09:32:35.538Z</time>
      </trkpt>
      <trkpt lat="43.35959" lon="-1.57323">
        <ele>15</ele>
        <time>2021-06-21T09:32:36.524Z</time>
      </trkpt>
      <trkpt lat="43.35959" lon="-1.57323">
        <ele>15</ele>
        <time>2021-06-21T09:32:37.530Z</time>
      </trkpt>
      <trkpt lat="43.35961" lon="-1.5733">
        <ele>15</ele>
        <time>2021-06-21T09:32:38.518Z</time>
      </trkpt>
      <trkpt lat="43.35961" lon="-1.5733">
        <ele>15</ele>
        <time>2021-06-21T09:32:39.525Z</time>
      </trkpt>
      <trkpt lat="43.35965" lon="-1.57338">
        <ele>15</ele>
        <time>2021-06-21T09:32:40.533Z</time>
      </trkpt>
      <trkpt lat="43.35965" lon="-1.57338">
        <ele>15</ele>
        <time>2021-06-21T09:32:41.539Z</time>
      </trkpt>
      <trkpt lat="43.35969" lon="-1.57346">
        <ele>14</ele>
        <time>2021-06-21T09:32:42.516Z</time>
      </trkpt>
      <trkpt lat="43.3597" lon="-1.5735">
        <ele>14</ele>
        <time>2021-06-21T09:32:43.520Z</time>
      </trkpt>
      <trkpt lat="43.3597" lon="-1.5735">
        <ele>14</ele>
        <time>2021-06-21T09:32:44.525Z</time>
      </trkpt>
      <trkpt lat="43.35973" lon="-1.57357">
        <ele>14</ele>
        <time>2021-06-21T09:32:45.516Z</time>
      </trkpt>
      <trkpt lat="43.35973" lon="-1.57357">
        <ele>14</ele>
        <time>2021-06-21T09:32:46.521Z</time>
      </trkpt>
      <trkpt lat="43.35977" lon="-1.57364">
        <ele>14</ele>
        <time>2021-06-21T09:32:47.532Z</time>
      </trkpt>
      <trkpt lat="43.35978" lon="-1.57366">
        <ele>14</ele>
        <time>2021-06-21T09:32:48.519Z</time>
      </trkpt>
      <trkpt lat="43.35978" lon="-1.57366">
        <ele>14</ele>
        <time>2021-06-21T09:32:49.525Z</time>
      </trkpt>
      <trkpt lat="43.35981" lon="-1.57372">
        <ele>13</ele>
        <time>2021-06-21T09:32:50.530Z</time>
      </trkpt>
      <trkpt lat="43.35981" lon="-1.57372">
        <ele>13</ele>
        <time>2021-06-21T09:32:51.536Z</time>
      </trkpt>
      <trkpt lat="43.35985" lon="-1.57378">
        <ele>13</ele>
        <time>2021-06-21T09:32:52.512Z</time>
      </trkpt>
      <trkpt lat="43.35985" lon="-1.57378">
        <ele>13</ele>
        <time>2021-06-21T09:32:53.518Z</time>
      </trkpt>
      <trkpt lat="43.3599" lon="-1.57386">
        <ele>13</ele>
        <time>2021-06-21T09:32:54.547Z</time>
      </trkpt>
      <trkpt lat="43.35991" lon="-1.57389">
        <ele>13</ele>
        <time>2021-06-21T09:32:55.532Z</time>
      </trkpt>
      <trkpt lat="43.35991" lon="-1.57389">
        <ele>13</ele>
        <time>2021-06-21T09:32:56.537Z</time>
      </trkpt>
      <trkpt lat="43.35996" lon="-1.57398">
        <ele>13</ele>
        <time>2021-06-21T09:32:57.532Z</time>
      </trkpt>
      <trkpt lat="43.35996" lon="-1.57398">
        <ele>13</ele>
        <time>2021-06-21T09:32:58.537Z</time>
      </trkpt>
      <trkpt lat="43.36" lon="-1.57407">
        <ele>12</ele>
        <time>2021-06-21T09:32:59.531Z</time>
      </trkpt>
      <trkpt lat="43.36" lon="-1.57407">
        <ele>12</ele>
        <time>2021-06-21T09:33:00.537Z</time>
      </trkpt>
      <trkpt lat="43.36004" lon="-1.57413">
        <ele>12</ele>
        <time>2021-06-21T09:33:01.532Z</time>
      </trkpt>
      <trkpt lat="43.36004" lon="-1.57413">
        <ele>12</ele>
        <time>2021-06-21T09:33:02.538Z</time>
      </trkpt>
      <trkpt lat="43.36009" lon="-1.57417">
        <ele>12</ele>
        <time>2021-06-21T09:33:03.539Z</time>
      </trkpt>
      <trkpt lat="43.36009" lon="-1.57417">
        <ele>12</ele>
        <time>2021-06-21T09:33:04.545Z</time>
      </trkpt>
      <trkpt lat="43.36014" lon="-1.57421">
        <ele>12</ele>
        <time>2021-06-21T09:33:05.540Z</time>
      </trkpt>
      <trkpt lat="43.36014" lon="-1.57421">
        <ele>12</ele>
        <time>2021-06-21T09:33:06.546Z</time>
      </trkpt>
      <trkpt lat="43.36019" lon="-1.57423">
        <ele>12</ele>
        <time>2021-06-21T09:33:07.540Z</time>
      </trkpt>
      <trkpt lat="43.36019" lon="-1.57423">
        <ele>12</ele>
        <time>2021-06-21T09:33:08.546Z</time>
      </trkpt>
      <trkpt lat="43.36025" lon="-1.57427">
        <ele>12</ele>
        <time>2021-06-21T09:33:09.547Z</time>
      </trkpt>
      <trkpt lat="43.36025" lon="-1.57427">
        <ele>12</ele>
        <time>2021-06-21T09:33:10.512Z</time>
      </trkpt>
      <trkpt lat="43.36031" lon="-1.57431">
        <ele>12</ele>
        <time>2021-06-21T09:33:11.522Z</time>
      </trkpt>
      <trkpt lat="43.36031" lon="-1.57431">
        <ele>12</ele>
        <time>2021-06-21T09:33:12.529Z</time>
      </trkpt>
      <trkpt lat="43.36036" lon="-1.57433">
        <ele>12</ele>
        <time>2021-06-21T09:33:13.516Z</time>
      </trkpt>
      <trkpt lat="43.36039" lon="-1.57434">
        <ele>12</ele>
        <time>2021-06-21T09:33:14.537Z</time>
      </trkpt>
      <trkpt lat="43.36039" lon="-1.57434">
        <ele>12</ele>
        <time>2021-06-21T09:33:15.542Z</time>
      </trkpt>
      <trkpt lat="43.36044" lon="-1.57435">
        <ele>13</ele>
        <time>2021-06-21T09:33:16.517Z</time>
      </trkpt>
      <trkpt lat="43.36044" lon="-1.57435">
        <ele>13</ele>
        <time>2021-06-21T09:33:17.524Z</time>
      </trkpt>
      <trkpt lat="43.36049" lon="-1.57436">
        <ele>13</ele>
        <time>2021-06-21T09:33:18.545Z</time>
      </trkpt>
      <trkpt lat="43.36052" lon="-1.57438">
        <ele>13</ele>
        <time>2021-06-21T09:33:19.541Z</time>
      </trkpt>
      <trkpt lat="43.36054" lon="-1.5744">
        <ele>14</ele>
        <time>2021-06-21T09:33:20.532Z</time>
      </trkpt>
      <trkpt lat="43.36054" lon="-1.5744">
        <ele>14</ele>
        <time>2021-06-21T09:33:21.538Z</time>
      </trkpt>
      <trkpt lat="43.36059" lon="-1.57444">
        <ele>14</ele>
        <time>2021-06-21T09:33:22.522Z</time>
      </trkpt>
      <trkpt lat="43.36059" lon="-1.57444">
        <ele>14</ele>
        <time>2021-06-21T09:33:23.525Z</time>
      </trkpt>
      <trkpt lat="43.36064" lon="-1.57448">
        <ele>15</ele>
        <time>2021-06-21T09:33:24.509Z</time>
      </trkpt>
      <trkpt lat="43.36067" lon="-1.5745">
        <ele>16</ele>
        <time>2021-06-21T09:33:25.542Z</time>
      </trkpt>
      <trkpt lat="43.36067" lon="-1.5745">
        <ele>16</ele>
        <time>2021-06-21T09:33:26.548Z</time>
      </trkpt>
      <trkpt lat="43.36071" lon="-1.57454">
        <ele>18</ele>
        <time>2021-06-21T09:33:27.522Z</time>
      </trkpt>
      <trkpt lat="43.36071" lon="-1.57454">
        <ele>18</ele>
        <time>2021-06-21T09:33:28.527Z</time>
      </trkpt>
      <trkpt lat="43.36075" lon="-1.5746">
        <ele>18</ele>
        <time>2021-06-21T09:33:29.530Z</time>
      </trkpt>
      <trkpt lat="43.36076" lon="-1.57464">
        <ele>19</ele>
        <time>2021-06-21T09:33:30.532Z</time>
      </trkpt>
      <trkpt lat="43.36076" lon="-1.57464">
        <ele>19</ele>
        <time>2021-06-21T09:33:31.537Z</time>
      </trkpt>
      <trkpt lat="43.36079" lon="-1.5747">
        <ele>20</ele>
        <time>2021-06-21T09:33:32.538Z</time>
      </trkpt>
      <trkpt lat="43.36079" lon="-1.5747">
        <ele>20</ele>
        <time>2021-06-21T09:33:33.543Z</time>
      </trkpt>
      <trkpt lat="43.36082" lon="-1.57477">
        <ele>21</ele>
        <time>2021-06-21T09:33:34.537Z</time>
      </trkpt>
      <trkpt lat="43.36082" lon="-1.57477">
        <ele>21</ele>
        <time>2021-06-21T09:33:35.542Z</time>
      </trkpt>
      <trkpt lat="43.36085" lon="-1.57485">
        <ele>21</ele>
        <time>2021-06-21T09:33:36.511Z</time>
      </trkpt>
      <trkpt lat="43.36085" lon="-1.57485">
        <ele>21</ele>
        <time>2021-06-21T09:33:37.521Z</time>
      </trkpt>
      <trkpt lat="43.36088" lon="-1.57492">
        <ele>22</ele>
        <time>2021-06-21T09:33:38.512Z</time>
      </trkpt>
      <trkpt lat="43.36088" lon="-1.57492">
        <ele>22</ele>
        <time>2021-06-21T09:33:39.518Z</time>
      </trkpt>
      <trkpt lat="43.36091" lon="-1.575">
        <ele>23</ele>
        <time>2021-06-21T09:33:40.542Z</time>
      </trkpt>
      <trkpt lat="43.36091" lon="-1.575">
        <ele>23</ele>
        <time>2021-06-21T09:33:41.547Z</time>
      </trkpt>
      <trkpt lat="43.36094" lon="-1.57509">
        <ele>24</ele>
        <time>2021-06-21T09:33:42.540Z</time>
      </trkpt>
      <trkpt lat="43.36096" lon="-1.57512">
        <ele>24</ele>
        <time>2021-06-21T09:33:43.541Z</time>
      </trkpt>
      <trkpt lat="43.36096" lon="-1.57512">
        <ele>24</ele>
        <time>2021-06-21T09:33:44.547Z</time>
      </trkpt>
      <trkpt lat="43.36099" lon="-1.5752">
        <ele>25</ele>
        <time>2021-06-21T09:33:45.512Z</time>
      </trkpt>
      <trkpt lat="43.36101" lon="-1.57523">
        <ele>25</ele>
        <time>2021-06-21T09:33:46.549Z</time>
      </trkpt>
      <trkpt lat="43.36103" lon="-1.57526">
        <ele>25</ele>
        <time>2021-06-21T09:33:47.521Z</time>
      </trkpt>
      <trkpt lat="43.36103" lon="-1.57526">
        <ele>25</ele>
        <time>2021-06-21T09:33:48.528Z</time>
      </trkpt>
      <trkpt lat="43.36107" lon="-1.57533">
        <ele>25</ele>
        <time>2021-06-21T09:33:49.521Z</time>
      </trkpt>
      <trkpt lat="43.36107" lon="-1.57533">
        <ele>25</ele>
        <time>2021-06-21T09:33:50.526Z</time>
      </trkpt>
      <trkpt lat="43.36112" lon="-1.5754">
        <ele>25</ele>
        <time>2021-06-21T09:33:51.512Z</time>
      </trkpt>
      <trkpt lat="43.36112" lon="-1.5754">
        <ele>25</ele>
        <time>2021-06-21T09:33:52.519Z</time>
      </trkpt>
      <trkpt lat="43.36117" lon="-1.57548">
        <ele>25</ele>
        <time>2021-06-21T09:33:53.544Z</time>
      </trkpt>
      <trkpt lat="43.36117" lon="-1.57548">
        <ele>25</ele>
        <time>2021-06-21T09:33:54.511Z</time>
      </trkpt>
      <trkpt lat="43.36122" lon="-1.57557">
        <ele>24</ele>
        <time>2021-06-21T09:33:55.537Z</time>
      </trkpt>
      <trkpt lat="43.36122" lon="-1.57557">
        <ele>24</ele>
        <time>2021-06-21T09:33:56.542Z</time>
      </trkpt>
      <trkpt lat="43.36129" lon="-1.57566">
        <ele>24</ele>
        <time>2021-06-21T09:33:57.527Z</time>
      </trkpt>
      <trkpt lat="43.36129" lon="-1.57566">
        <ele>24</ele>
        <time>2021-06-21T09:33:58.533Z</time>
      </trkpt>
      <trkpt lat="43.36136" lon="-1.57575">
        <ele>24</ele>
        <time>2021-06-21T09:33:59.542Z</time>
      </trkpt>
      <trkpt lat="43.36136" lon="-1.57575">
        <ele>24</ele>
        <time>2021-06-21T09:34:00.548Z</time>
      </trkpt>
      <trkpt lat="43.36141" lon="-1.57587">
        <ele>24</ele>
        <time>2021-06-21T09:34:01.542Z</time>
      </trkpt>
      <trkpt lat="43.36141" lon="-1.57587">
        <ele>24</ele>
        <time>2021-06-21T09:34:02.548Z</time>
      </trkpt>
      <trkpt lat="43.36144" lon="-1.576">
        <ele>24</ele>
        <time>2021-06-21T09:34:03.531Z</time>
      </trkpt>
      <trkpt lat="43.36144" lon="-1.576">
        <ele>24</ele>
        <time>2021-06-21T09:34:04.537Z</time>
      </trkpt>
      <trkpt lat="43.36146" lon="-1.57614">
        <ele>24</ele>
        <time>2021-06-21T09:34:05.523Z</time>
      </trkpt>
      <trkpt lat="43.36146" lon="-1.57614">
        <ele>24</ele>
        <time>2021-06-21T09:34:06.529Z</time>
      </trkpt>
      <trkpt lat="43.36147" lon="-1.57628">
        <ele>23</ele>
        <time>2021-06-21T09:34:07.512Z</time>
      </trkpt>
      <trkpt lat="43.36147" lon="-1.57628">
        <ele>23</ele>
        <time>2021-06-21T09:34:08.517Z</time>
      </trkpt>
      <trkpt lat="43.36147" lon="-1.57638">
        <ele>23</ele>
        <time>2021-06-21T09:34:09.521Z</time>
      </trkpt>
      <trkpt lat="43.36147" lon="-1.57638">
        <ele>23</ele>
        <time>2021-06-21T09:34:10.527Z</time>
      </trkpt>
      <trkpt lat="43.36151" lon="-1.57645">
        <ele>23</ele>
        <time>2021-06-21T09:34:11.512Z</time>
      </trkpt>
      <trkpt lat="43.36151" lon="-1.57645">
        <ele>23</ele>
        <time>2021-06-21T09:34:12.520Z</time>
      </trkpt>
      <trkpt lat="43.36157" lon="-1.57649">
        <ele>23</ele>
        <time>2021-06-21T09:34:13.521Z</time>
      </trkpt>
      <trkpt lat="43.36157" lon="-1.57649">
        <ele>23</ele>
        <time>2021-06-21T09:34:14.527Z</time>
      </trkpt>
      <trkpt lat="43.36163" lon="-1.57651">
        <ele>23</ele>
        <time>2021-06-21T09:34:15.523Z</time>
      </trkpt>
      <trkpt lat="43.36163" lon="-1.57651">
        <ele>23</ele>
        <time>2021-06-21T09:34:16.529Z</time>
      </trkpt>
      <trkpt lat="43.36168" lon="-1.57651">
        <ele>23</ele>
        <time>2021-06-21T09:34:17.516Z</time>
      </trkpt>
      <trkpt lat="43.3617" lon="-1.57651">
        <ele>23</ele>
        <time>2021-06-21T09:34:18.520Z</time>
      </trkpt>
      <trkpt lat="43.36173" lon="-1.57651">
        <ele>23</ele>
        <time>2021-06-21T09:34:19.514Z</time>
      </trkpt>
      <trkpt lat="43.36173" lon="-1.57651">
        <ele>23</ele>
        <time>2021-06-21T09:34:20.520Z</time>
      </trkpt>
      <trkpt lat="43.36178" lon="-1.57651">
        <ele>23</ele>
        <time>2021-06-21T09:34:21.513Z</time>
      </trkpt>
      <trkpt lat="43.36178" lon="-1.57651">
        <ele>23</ele>
        <time>2021-06-21T09:34:22.535Z</time>
      </trkpt>
      <trkpt lat="43.36183" lon="-1.57652">
        <ele>24</ele>
        <time>2021-06-21T09:34:23.523Z</time>
      </trkpt>
      <trkpt lat="43.36185" lon="-1.57653">
        <ele>24</ele>
        <time>2021-06-21T09:34:24.509Z</time>
      </trkpt>
      <trkpt lat="43.36188" lon="-1.57654">
        <ele>24</ele>
        <time>2021-06-21T09:34:25.517Z</time>
      </trkpt>
      <trkpt lat="43.36188" lon="-1.57654">
        <ele>24</ele>
        <time>2021-06-21T09:34:26.523Z</time>
      </trkpt>
      <trkpt lat="43.36193" lon="-1.57654">
        <ele>24</ele>
        <time>2021-06-21T09:34:27.535Z</time>
      </trkpt>
      <trkpt lat="43.36193" lon="-1.57654">
        <ele>24</ele>
        <time>2021-06-21T09:34:28.541Z</time>
      </trkpt>
      <trkpt lat="43.36198" lon="-1.57655">
        <ele>25</ele>
        <time>2021-06-21T09:34:29.520Z</time>
      </trkpt>
      <trkpt lat="43.36198" lon="-1.57655">
        <ele>25</ele>
        <time>2021-06-21T09:34:30.526Z</time>
      </trkpt>
      <trkpt lat="43.36203" lon="-1.57655">
        <ele>25</ele>
        <time>2021-06-21T09:34:31.514Z</time>
      </trkpt>
      <trkpt lat="43.36203" lon="-1.57655">
        <ele>25</ele>
        <time>2021-06-21T09:34:32.521Z</time>
      </trkpt>
      <trkpt lat="43.36207" lon="-1.57655">
        <ele>25</ele>
        <time>2021-06-21T09:34:33.547Z</time>
      </trkpt>
      <trkpt lat="43.36207" lon="-1.57655">
        <ele>25</ele>
        <time>2021-06-21T09:34:34.513Z</time>
      </trkpt>
      <trkpt lat="43.36212" lon="-1.57655">
        <ele>26</ele>
        <time>2021-06-21T09:34:35.542Z</time>
      </trkpt>
      <trkpt lat="43.36214" lon="-1.57655">
        <ele>26</ele>
        <time>2021-06-21T09:34:36.533Z</time>
      </trkpt>
      <trkpt lat="43.36216" lon="-1.57655">
        <ele>26</ele>
        <time>2021-06-21T09:34:37.533Z</time>
      </trkpt>
      <trkpt lat="43.36216" lon="-1.57655">
        <ele>26</ele>
        <time>2021-06-21T09:34:38.539Z</time>
      </trkpt>
      <trkpt lat="43.36221" lon="-1.57655">
        <ele>27</ele>
        <time>2021-06-21T09:34:39.527Z</time>
      </trkpt>
      <trkpt lat="43.36221" lon="-1.57655">
        <ele>27</ele>
        <time>2021-06-21T09:34:40.533Z</time>
      </trkpt>
      <trkpt lat="43.36225" lon="-1.57655">
        <ele>27</ele>
        <time>2021-06-21T09:34:41.519Z</time>
      </trkpt>
      <trkpt lat="43.36225" lon="-1.57655">
        <ele>27</ele>
        <time>2021-06-21T09:34:42.525Z</time>
      </trkpt>
      <trkpt lat="43.3623" lon="-1.57655">
        <ele>28</ele>
        <time>2021-06-21T09:34:43.518Z</time>
      </trkpt>
      <trkpt lat="43.3623" lon="-1.57655">
        <ele>28</ele>
        <time>2021-06-21T09:34:44.524Z</time>
      </trkpt>
      <trkpt lat="43.36234" lon="-1.57656">
        <ele>30</ele>
        <time>2021-06-21T09:34:45.510Z</time>
      </trkpt>
      <trkpt lat="43.36234" lon="-1.57656">
        <ele>30</ele>
        <time>2021-06-21T09:34:46.517Z</time>
      </trkpt>
      <trkpt lat="43.36238" lon="-1.57656">
        <ele>31</ele>
        <time>2021-06-21T09:34:47.547Z</time>
      </trkpt>
      <trkpt lat="43.36238" lon="-1.57656">
        <ele>31</ele>
        <time>2021-06-21T09:34:48.513Z</time>
      </trkpt>
      <trkpt lat="43.36243" lon="-1.57657">
        <ele>33</ele>
        <time>2021-06-21T09:34:49.512Z</time>
      </trkpt>
      <trkpt lat="43.36245" lon="-1.57656">
        <ele>34</ele>
        <time>2021-06-21T09:34:50.524Z</time>
      </trkpt>
      <trkpt lat="43.36245" lon="-1.57656">
        <ele>34</ele>
        <time>2021-06-21T09:34:51.529Z</time>
      </trkpt>
      <trkpt lat="43.36249" lon="-1.57656">
        <ele>34</ele>
        <time>2021-06-21T09:34:52.535Z</time>
      </trkpt>
      <trkpt lat="43.36251" lon="-1.57656">
        <ele>34</ele>
        <time>2021-06-21T09:34:53.532Z</time>
      </trkpt>
      <trkpt lat="43.36251" lon="-1.57656">
        <ele>34</ele>
        <time>2021-06-21T09:34:54.537Z</time>
      </trkpt>
      <trkpt lat="43.36255" lon="-1.57656">
        <ele>36</ele>
        <time>2021-06-21T09:34:55.536Z</time>
      </trkpt>
      <trkpt lat="43.36255" lon="-1.57656">
        <ele>36</ele>
        <time>2021-06-21T09:34:56.542Z</time>
      </trkpt>
      <trkpt lat="43.36259" lon="-1.57657">
        <ele>37</ele>
        <time>2021-06-21T09:34:57.513Z</time>
      </trkpt>
      <trkpt lat="43.36259" lon="-1.57657">
        <ele>37</ele>
        <time>2021-06-21T09:34:58.523Z</time>
      </trkpt>
      <trkpt lat="43.3626" lon="-1.57657">
        <ele>37</ele>
        <time>2021-06-21T09:34:59.512Z</time>
      </trkpt>
      <trkpt lat="43.3626" lon="-1.57657">
        <ele>37</ele>
        <time>2021-06-21T09:35:00.520Z</time>
      </trkpt>
      <trkpt lat="43.3626" lon="-1.57657">
        <ele>37</ele>
        <time>2021-06-21T09:35:01.536Z</time>
      </trkpt>
      <trkpt lat="43.3626" lon="-1.57657">
        <ele>37</ele>
        <time>2021-06-21T09:35:02.541Z</time>
      </trkpt>
      <trkpt lat="43.3626" lon="-1.57657">
        <ele>37</ele>
        <time>2021-06-21T09:35:03.546Z</time>
      </trkpt>
      <trkpt lat="43.3626" lon="-1.57657">
        <ele>37</ele>
        <time>2021-06-21T09:35:04.533Z</time>
      </trkpt>
      <trkpt lat="43.3626" lon="-1.57657">
        <ele>37</ele>
        <time>2021-06-21T09:35:05.522Z</time>
      </trkpt>
      <trkpt lat="43.3626" lon="-1.57657">
        <ele>37</ele>
        <time>2021-06-21T09:35:06.537Z</time>
      </trkpt>
      <trkpt lat="43.36262" lon="-1.57659">
        <ele>37</ele>
        <time>2021-06-21T09:35:07.534Z</time>
      </trkpt>
      <trkpt lat="43.36262" lon="-1.57659">
        <ele>37</ele>
        <time>2021-06-21T09:35:08.528Z</time>
      </trkpt>
      <trkpt lat="43.36262" lon="-1.5766">
        <ele>37</ele>
        <time>2021-06-21T09:35:09.545Z</time>
      </trkpt>
      <trkpt lat="43.36262" lon="-1.5766">
        <ele>37</ele>
        <time>2021-06-21T09:35:10.532Z</time>
      </trkpt>
      <trkpt lat="43.36262" lon="-1.57662">
        <ele>38</ele>
        <time>2021-06-21T09:35:11.548Z</time>
      </trkpt>
      <trkpt lat="43.36262" lon="-1.57663">
        <ele>38</ele>
        <time>2021-06-21T09:35:12.533Z</time>
      </trkpt>
    </trkseg>
  </trk>
</gpx>